<?xml version='1.0' encoding='UTF-8'?><gpx version="1.1" creator="JPX - https://github.com/jenetics/jpx" xmlns="http://www.topografix.com/GPX/1/1"><trk><trkseg><trkpt lat="42.6410978" lon="11.9821473"><ele>309.0</ele><time>2026-04-26T11:54:38.855Z</time></trkpt><trkpt lat="42.6410341" lon="11.9821706"><ele>309.0</ele><time>2026-04-26T11:54:40.856Z</time></trkpt><trkpt lat="42.6409685" lon="11.9822113"><ele>309.0</ele><time>2026-04-26T11:54:43.856Z</time></trkpt><trkpt lat="42.6409092" lon="11.9822872"><ele>309.0</ele><time>2026-04-26T11:54:51.856Z</time></trkpt><trkpt lat="42.6408779" lon="11.982377"><ele>309.0</ele><time>2026-04-26T11:54:53.856Z</time></trkpt><trkpt lat="42.6408448" lon="11.9824861"><ele>309.0</ele><time>2026-04-26T11:54:55.856Z</time></trkpt><trkpt lat="42.6408328" lon="11.9826003"><ele>309.0</ele><time>2026-04-26T11:54:57.856Z</time></trkpt><trkpt lat="42.6408584" lon="11.9827137"><ele>309.0</ele><time>2026-04-26T11:54:59.856Z</time></trkpt><trkpt lat="42.6409133" lon="11.9827895"><ele>309.0</ele><time>2026-04-26T11:55:01.856Z</time></trkpt><trkpt lat="42.6409854" lon="11.9828399"><ele>309.0</ele><time>2026-04-26T11:55:03.856Z</time></trkpt><trkpt lat="42.6410473" lon="11.982857"><ele>309.0</ele><time>2026-04-26T11:55:05.855Z</time></trkpt><trkpt lat="42.6411337" lon="11.9828486"><ele>309.0</ele><time>2026-04-26T11:55:08.856Z</time></trkpt><trkpt lat="42.6411895" lon="11.9828046"><ele>309.0</ele><time>2026-04-26T11:55:11.856Z</time></trkpt><trkpt lat="42.6412635" lon="11.9827273"><ele>309.0</ele><time>2026-04-26T11:55:14.856Z</time></trkpt><trkpt lat="42.6413267" lon="11.9825928"><ele>309.0</ele><time>2026-04-26T11:55:16.856Z</time></trkpt><trkpt lat="42.6413563" lon="11.9824524"><ele>309.0</ele><time>2026-04-26T11:55:18.855Z</time></trkpt><trkpt lat="42.6413213" lon="11.9823161"><ele>309.0</ele><time>2026-04-26T11:55:20.856Z</time></trkpt><trkpt lat="42.6412612" lon="11.9822166"><ele>309.0</ele><time>2026-04-26T11:55:22.856Z</time></trkpt><trkpt lat="42.6411711" lon="11.9821569"><ele>309.0</ele><time>2026-04-26T11:55:24.855Z</time></trkpt><trkpt lat="42.6410655" lon="11.9821616"><ele>309.0</ele><time>2026-04-26T11:55:26.856Z</time></trkpt><trkpt lat="42.6409996" lon="11.9822072"><ele>309.0</ele><time>2026-04-26T11:55:28.856Z</time></trkpt><trkpt lat="42.6409336" lon="11.9822488"><ele>309.0</ele><time>2026-04-26T11:55:32.856Z</time></trkpt><trkpt lat="42.6408798" lon="11.9823295"><ele>309.0</ele><time>2026-04-26T11:55:35.855Z</time></trkpt><trkpt lat="42.6408289" lon="11.9824218"><ele>309.0</ele><time>2026-04-26T11:55:37.855Z</time></trkpt><trkpt lat="42.6407766" lon="11.9825071"><ele>309.0</ele><time>2026-04-26T11:55:39.856Z</time></trkpt><trkpt lat="42.6407188" lon="11.9825983"><ele>309.0</ele><time>2026-04-26T11:55:41.856Z</time></trkpt><trkpt lat="42.6406578" lon="11.9826729"><ele>309.0</ele><time>2026-04-26T11:55:43.856Z</time></trkpt><trkpt lat="42.6406058" lon="11.9827534"><ele>309.0</ele><time>2026-04-26T11:55:45.856Z</time></trkpt><trkpt lat="42.6405504" lon="11.9828437"><ele>309.0</ele><time>2026-04-26T11:55:47.856Z</time></trkpt><trkpt lat="42.6404871" lon="11.9829532"><ele>308.59999999999997</ele><time>2026-04-26T11:55:49.855Z</time></trkpt><trkpt lat="42.6404134" lon="11.983057"><ele>308.2</ele><time>2026-04-26T11:55:51.855Z</time></trkpt><trkpt lat="42.640339" lon="11.9831649"><ele>307.79999999999995</ele><time>2026-04-26T11:55:53.856Z</time></trkpt><trkpt lat="42.6402581" lon="11.9832673"><ele>307.4</ele><time>2026-04-26T11:55:55.856Z</time></trkpt><trkpt lat="42.6402122" lon="11.9833321"><ele>307.0</ele><time>2026-04-26T11:55:56.856Z</time></trkpt><trkpt lat="42.6401346" lon="11.9834376"><ele>306.8333333333333</ele><time>2026-04-26T11:55:58.856Z</time></trkpt><trkpt lat="42.6400437" lon="11.9835422"><ele>306.66666666666663</ele><time>2026-04-26T11:56:00.856Z</time></trkpt><trkpt lat="42.639996" lon="11.9836059"><ele>306.5</ele><time>2026-04-26T11:56:01.855Z</time></trkpt><trkpt lat="42.6399501" lon="11.983667"><ele>306.3333333333333</ele><time>2026-04-26T11:56:02.856Z</time></trkpt><trkpt lat="42.6399011" lon="11.9837343"><ele>306.1666666666667</ele><time>2026-04-26T11:56:03.856Z</time></trkpt><trkpt lat="42.6398538" lon="11.9837968"><ele>306.0</ele><time>2026-04-26T11:56:04.856Z</time></trkpt><trkpt lat="42.6398068" lon="11.9838715"><ele>306.0</ele><time>2026-04-26T11:56:05.856Z</time></trkpt><trkpt lat="42.6397577" lon="11.9839415"><ele>306.0</ele><time>2026-04-26T11:56:06.856Z</time></trkpt><trkpt lat="42.6397103" lon="11.9840028"><ele>306.0</ele><time>2026-04-26T11:56:07.856Z</time></trkpt><trkpt lat="42.6396518" lon="11.9840648"><ele>306.0</ele><time>2026-04-26T11:56:08.856Z</time></trkpt><trkpt lat="42.6395991" lon="11.9841237"><ele>306.0</ele><time>2026-04-26T11:56:09.856Z</time></trkpt><trkpt lat="42.6394904" lon="11.9842272"><ele>306.0</ele><time>2026-04-26T11:56:11.856Z</time></trkpt><trkpt lat="42.6394298" lon="11.9842836"><ele>306.0</ele><time>2026-04-26T11:56:12.855Z</time></trkpt><trkpt lat="42.6393668" lon="11.9843292"><ele>306.0</ele><time>2026-04-26T11:56:13.856Z</time></trkpt><trkpt lat="42.6393088" lon="11.9843763"><ele>306.0</ele><time>2026-04-26T11:56:14.855Z</time></trkpt><trkpt lat="42.6392486" lon="11.9844205"><ele>306.0</ele><time>2026-04-26T11:56:15.856Z</time></trkpt><trkpt lat="42.6391897" lon="11.9844675"><ele>306.0</ele><time>2026-04-26T11:56:16.856Z</time></trkpt><trkpt lat="42.6391263" lon="11.9845151"><ele>306.0</ele><time>2026-04-26T11:56:17.855Z</time></trkpt><trkpt lat="42.639062" lon="11.9845568"><ele>306.0</ele><time>2026-04-26T11:56:18.856Z</time></trkpt><trkpt lat="42.6390005" lon="11.9845929"><ele>306.0</ele><time>2026-04-26T11:56:19.856Z</time></trkpt><trkpt lat="42.63894" lon="11.9846214"><ele>306.0</ele><time>2026-04-26T11:56:20.856Z</time></trkpt><trkpt lat="42.6388387" lon="11.9846605"><ele>306.0</ele><time>2026-04-26T11:56:22.855Z</time></trkpt><trkpt lat="42.6387768" lon="11.9847114"><ele>306.0</ele><time>2026-04-26T11:56:24.856Z</time></trkpt><trkpt lat="42.6387908" lon="11.9848435"><ele>306.0</ele><time>2026-04-26T11:56:26.855Z</time></trkpt><trkpt lat="42.6388185" lon="11.9849382"><ele>306.0</ele><time>2026-04-26T11:56:27.855Z</time></trkpt><trkpt lat="42.6388475" lon="11.9850347"><ele>306.2</ele><time>2026-04-26T11:56:28.856Z</time></trkpt><trkpt lat="42.6388732" lon="11.9851416"><ele>306.40000000000003</ele><time>2026-04-26T11:56:29.855Z</time></trkpt><trkpt lat="42.6389055" lon="11.9852591"><ele>306.6</ele><time>2026-04-26T11:56:30.856Z</time></trkpt><trkpt lat="42.6389507" lon="11.9853759"><ele>306.8</ele><time>2026-04-26T11:56:31.856Z</time></trkpt><trkpt lat="42.6389969" lon="11.9854863"><ele>307.0</ele><time>2026-04-26T11:56:32.856Z</time></trkpt><trkpt lat="42.6390505" lon="11.9855847"><ele>307.0</ele><time>2026-04-26T11:56:33.856Z</time></trkpt><trkpt lat="42.6391051" lon="11.9856668"><ele>307.0</ele><time>2026-04-26T11:56:34.856Z</time></trkpt><trkpt lat="42.6391599" lon="11.9857489"><ele>307.0</ele><time>2026-04-26T11:56:35.856Z</time></trkpt><trkpt lat="42.6392156" lon="11.9858319"><ele>307.0</ele><time>2026-04-26T11:56:36.856Z</time></trkpt><trkpt lat="42.6392723" lon="11.9859155"><ele>307.0</ele><time>2026-04-26T11:56:37.855Z</time></trkpt><trkpt lat="42.6393324" lon="11.9859963"><ele>307.0</ele><time>2026-04-26T11:56:38.856Z</time></trkpt><trkpt lat="42.6393987" lon="11.9860712"><ele>307.6</ele><time>2026-04-26T11:56:39.856Z</time></trkpt><trkpt lat="42.6394655" lon="11.9861529"><ele>308.2</ele><time>2026-04-26T11:56:40.856Z</time></trkpt><trkpt lat="42.6395313" lon="11.9862428"><ele>308.8</ele><time>2026-04-26T11:56:41.856Z</time></trkpt><trkpt lat="42.6395997" lon="11.9863326"><ele>309.4</ele><time>2026-04-26T11:56:42.856Z</time></trkpt><trkpt lat="42.6396705" lon="11.9864204"><ele>310.0</ele><time>2026-04-26T11:56:43.855Z</time></trkpt><trkpt lat="42.6397415" lon="11.9865065"><ele>310.0</ele><time>2026-04-26T11:56:44.856Z</time></trkpt><trkpt lat="42.6398105" lon="11.9866029"><ele>310.0</ele><time>2026-04-26T11:56:45.856Z</time></trkpt><trkpt lat="42.6398778" lon="11.9866913"><ele>310.0</ele><time>2026-04-26T11:56:46.856Z</time></trkpt><trkpt lat="42.6399411" lon="11.986776"><ele>310.0</ele><time>2026-04-26T11:56:47.856Z</time></trkpt><trkpt lat="42.6399954" lon="11.9868453"><ele>310.0</ele><time>2026-04-26T11:56:48.856Z</time></trkpt><trkpt lat="42.6400505" lon="11.986914"><ele>310.0</ele><time>2026-04-26T11:56:49.855Z</time></trkpt><trkpt lat="42.6401042" lon="11.9869772"><ele>310.16666666666663</ele><time>2026-04-26T11:56:50.856Z</time></trkpt><trkpt lat="42.6401643" lon="11.9870435"><ele>310.3333333333333</ele><time>2026-04-26T11:56:51.855Z</time></trkpt><trkpt lat="42.6402292" lon="11.9871178"><ele>310.5</ele><time>2026-04-26T11:56:52.856Z</time></trkpt><trkpt lat="42.6402976" lon="11.9871994"><ele>310.6666666666667</ele><time>2026-04-26T11:56:53.855Z</time></trkpt><trkpt lat="42.640365" lon="11.9872875"><ele>310.83333333333337</ele><time>2026-04-26T11:56:54.856Z</time></trkpt><trkpt lat="42.6404354" lon="11.9873806"><ele>311.0</ele><time>2026-04-26T11:56:55.856Z</time></trkpt><trkpt lat="42.6405065" lon="11.9874781"><ele>311.40000000000003</ele><time>2026-04-26T11:56:56.855Z</time></trkpt><trkpt lat="42.6405786" lon="11.9875662"><ele>311.8</ele><time>2026-04-26T11:56:57.855Z</time></trkpt><trkpt lat="42.6406501" lon="11.9876524"><ele>312.20000000000005</ele><time>2026-04-26T11:56:58.855Z</time></trkpt><trkpt lat="42.6407193" lon="11.9877449"><ele>312.6</ele><time>2026-04-26T11:56:59.855Z</time></trkpt><trkpt lat="42.6407808" lon="11.9878443"><ele>313.0</ele><time>2026-04-26T11:57:00.856Z</time></trkpt><trkpt lat="42.6408485" lon="11.987946"><ele>313.0</ele><time>2026-04-26T11:57:01.856Z</time></trkpt><trkpt lat="42.6409145" lon="11.9880484"><ele>313.0</ele><time>2026-04-26T11:57:02.855Z</time></trkpt><trkpt lat="42.6409797" lon="11.9881495"><ele>313.0</ele><time>2026-04-26T11:57:03.855Z</time></trkpt><trkpt lat="42.6410461" lon="11.9882475"><ele>313.0</ele><time>2026-04-26T11:57:04.856Z</time></trkpt><trkpt lat="42.6411129" lon="11.9883434"><ele>313.0</ele><time>2026-04-26T11:57:05.856Z</time></trkpt><trkpt lat="42.6411815" lon="11.9884459"><ele>313.8</ele><time>2026-04-26T11:57:06.856Z</time></trkpt><trkpt lat="42.6412462" lon="11.9885494"><ele>314.6</ele><time>2026-04-26T11:57:07.856Z</time></trkpt><trkpt lat="42.6413083" lon="11.988651"><ele>315.4</ele><time>2026-04-26T11:57:08.856Z</time></trkpt><trkpt lat="42.6413723" lon="11.9887527"><ele>316.2</ele><time>2026-04-26T11:57:09.856Z</time></trkpt><trkpt lat="42.6414382" lon="11.9888539"><ele>317.0</ele><time>2026-04-26T11:57:10.855Z</time></trkpt><trkpt lat="42.6415056" lon="11.9889506"><ele>317.0</ele><time>2026-04-26T11:57:11.856Z</time></trkpt><trkpt lat="42.6415729" lon="11.9890447"><ele>317.0</ele><time>2026-04-26T11:57:12.856Z</time></trkpt><trkpt lat="42.641633" lon="11.9891333"><ele>317.0</ele><time>2026-04-26T11:57:13.856Z</time></trkpt><trkpt lat="42.64168" lon="11.9892058"><ele>317.0</ele><time>2026-04-26T11:57:14.856Z</time></trkpt><trkpt lat="42.6417372" lon="11.9892541"><ele>317.0</ele><time>2026-04-26T11:57:18.856Z</time></trkpt><trkpt lat="42.6418418" lon="11.9891657"><ele>317.0</ele><time>2026-04-26T11:57:21.856Z</time></trkpt><trkpt lat="42.6418943" lon="11.9890824"><ele>317.0</ele><time>2026-04-26T11:57:22.856Z</time></trkpt><trkpt lat="42.6419528" lon="11.9889824"><ele>317.0</ele><time>2026-04-26T11:57:23.855Z</time></trkpt><trkpt lat="42.6420115" lon="11.988886"><ele>317.0</ele><time>2026-04-26T11:57:24.856Z</time></trkpt><trkpt lat="42.6420711" lon="11.9887895"><ele>317.0</ele><time>2026-04-26T11:57:25.856Z</time></trkpt><trkpt lat="42.642136" lon="11.9886844"><ele>317.0</ele><time>2026-04-26T11:57:26.855Z</time></trkpt><trkpt lat="42.6422149" lon="11.9885799"><ele>317.4</ele><time>2026-04-26T11:57:27.855Z</time></trkpt><trkpt lat="42.6422935" lon="11.9884701"><ele>317.79999999999995</ele><time>2026-04-26T11:57:28.856Z</time></trkpt><trkpt lat="42.6423774" lon="11.9883661"><ele>318.2</ele><time>2026-04-26T11:57:29.856Z</time></trkpt><trkpt lat="42.6424674" lon="11.9882729"><ele>318.59999999999997</ele><time>2026-04-26T11:57:30.856Z</time></trkpt><trkpt lat="42.6425565" lon="11.9881849"><ele>319.0</ele><time>2026-04-26T11:57:31.856Z</time></trkpt><trkpt lat="42.6426478" lon="11.988093"><ele>319.5</ele><time>2026-04-26T11:57:32.855Z</time></trkpt><trkpt lat="42.6427379" lon="11.9880002"><ele>320.0</ele><time>2026-04-26T11:57:33.856Z</time></trkpt><trkpt lat="42.6428219" lon="11.9879073"><ele>320.5</ele><time>2026-04-26T11:57:34.855Z</time></trkpt><trkpt lat="42.6429186" lon="11.9878116"><ele>321.0</ele><time>2026-04-26T11:57:35.856Z</time></trkpt><trkpt lat="42.6430148" lon="11.9877128"><ele>321.0</ele><time>2026-04-26T11:57:36.856Z</time></trkpt><trkpt lat="42.6431134" lon="11.9876159"><ele>321.0</ele><time>2026-04-26T11:57:37.856Z</time></trkpt><trkpt lat="42.6432083" lon="11.9875203"><ele>321.0</ele><time>2026-04-26T11:57:38.855Z</time></trkpt><trkpt lat="42.6432928" lon="11.9874185"><ele>321.0</ele><time>2026-04-26T11:57:39.856Z</time></trkpt><trkpt lat="42.6433784" lon="11.9873151"><ele>320.40000000000003</ele><time>2026-04-26T11:57:40.854Z</time></trkpt><trkpt lat="42.6434628" lon="11.987229"><ele>319.8</ele><time>2026-04-26T11:57:41.855Z</time></trkpt><trkpt lat="42.6435449" lon="11.9871399"><ele>319.20000000000005</ele><time>2026-04-26T11:57:42.855Z</time></trkpt><trkpt lat="42.6436245" lon="11.987061"><ele>318.6</ele><time>2026-04-26T11:57:43.854Z</time></trkpt><trkpt lat="42.643693" lon="11.9869856"><ele>318.0</ele><time>2026-04-26T11:57:44.855Z</time></trkpt><trkpt lat="42.6437553" lon="11.986925"><ele>318.4</ele><time>2026-04-26T11:57:45.855Z</time></trkpt><trkpt lat="42.6438138" lon="11.9868611"><ele>318.8</ele><time>2026-04-26T11:57:46.854Z</time></trkpt><trkpt lat="42.6438704" lon="11.9868038"><ele>319.2</ele><time>2026-04-26T11:57:47.854Z</time></trkpt><trkpt lat="42.6439235" lon="11.9867492"><ele>319.6</ele><time>2026-04-26T11:57:48.855Z</time></trkpt><trkpt lat="42.6440079" lon="11.9866322"><ele>320.0</ele><time>2026-04-26T11:57:50.855Z</time></trkpt><trkpt lat="42.6440931" lon="11.9865088"><ele>320.0</ele><time>2026-04-26T11:57:52.855Z</time></trkpt><trkpt lat="42.6441443" lon="11.9864313"><ele>320.0</ele><time>2026-04-26T11:57:53.855Z</time></trkpt><trkpt lat="42.6441935" lon="11.9863233"><ele>320.0</ele><time>2026-04-26T11:57:54.855Z</time></trkpt><trkpt lat="42.6442318" lon="11.9861994"><ele>320.0</ele><time>2026-04-26T11:57:55.855Z</time></trkpt><trkpt lat="42.6442732" lon="11.9860594"><ele>320.0</ele><time>2026-04-26T11:57:56.855Z</time></trkpt><trkpt lat="42.6443282" lon="11.9859165"><ele>319.5</ele><time>2026-04-26T11:57:57.855Z</time></trkpt><trkpt lat="42.6443882" lon="11.9857582"><ele>319.0</ele><time>2026-04-26T11:57:58.855Z</time></trkpt><trkpt lat="42.6444649" lon="11.9856029"><ele>318.5</ele><time>2026-04-26T11:57:59.855Z</time></trkpt><trkpt lat="42.6445599" lon="11.9854677"><ele>318.0</ele><time>2026-04-26T11:58:00.855Z</time></trkpt><trkpt lat="42.6446565" lon="11.9853384"><ele>317.75</ele><time>2026-04-26T11:58:01.855Z</time></trkpt><trkpt lat="42.6447549" lon="11.9852237"><ele>317.5</ele><time>2026-04-26T11:58:02.855Z</time></trkpt><trkpt lat="42.6448549" lon="11.9851053"><ele>317.25</ele><time>2026-04-26T11:58:03.854Z</time></trkpt><trkpt lat="42.6449499" lon="11.9849735"><ele>317.0</ele><time>2026-04-26T11:58:04.855Z</time></trkpt><trkpt lat="42.645036" lon="11.9848306"><ele>317.0</ele><time>2026-04-26T11:58:05.855Z</time></trkpt><trkpt lat="42.6451105" lon="11.9846708"><ele>317.0</ele><time>2026-04-26T11:58:06.855Z</time></trkpt><trkpt lat="42.6451819" lon="11.984499"><ele>317.0</ele><time>2026-04-26T11:58:07.855Z</time></trkpt><trkpt lat="42.6452599" lon="11.9843361"><ele>317.0</ele><time>2026-04-26T11:58:08.855Z</time></trkpt><trkpt lat="42.6453627" lon="11.9841924"><ele>318.0</ele><time>2026-04-26T11:58:09.854Z</time></trkpt><trkpt lat="42.6454743" lon="11.9840536"><ele>319.0</ele><time>2026-04-26T11:58:10.855Z</time></trkpt><trkpt lat="42.6455822" lon="11.9839026"><ele>320.0</ele><time>2026-04-26T11:58:11.855Z</time></trkpt><trkpt lat="42.6456898" lon="11.9837402"><ele>320.0</ele><time>2026-04-26T11:58:12.855Z</time></trkpt><trkpt lat="42.6458012" lon="11.9835796"><ele>320.0</ele><time>2026-04-26T11:58:13.855Z</time></trkpt><trkpt lat="42.6459136" lon="11.9834174"><ele>320.0</ele><time>2026-04-26T11:58:14.855Z</time></trkpt><trkpt lat="42.6460276" lon="11.9832558"><ele>320.33333333333337</ele><time>2026-04-26T11:58:15.855Z</time></trkpt><trkpt lat="42.6461442" lon="11.9830988"><ele>320.6666666666667</ele><time>2026-04-26T11:58:16.855Z</time></trkpt><trkpt lat="42.646253" lon="11.9829411"><ele>321.0</ele><time>2026-04-26T11:58:17.854Z</time></trkpt><trkpt lat="42.6463566" lon="11.9827782"><ele>321.0</ele><time>2026-04-26T11:58:18.855Z</time></trkpt><trkpt lat="42.6464468" lon="11.9826056"><ele>321.0</ele><time>2026-04-26T11:58:19.855Z</time></trkpt><trkpt lat="42.6465308" lon="11.982411"><ele>321.0</ele><time>2026-04-26T11:58:20.854Z</time></trkpt><trkpt lat="42.6466068" lon="11.9822059"><ele>320.6666666666667</ele><time>2026-04-26T11:58:21.855Z</time></trkpt><trkpt lat="42.6466733" lon="11.9819934"><ele>320.33333333333337</ele><time>2026-04-26T11:58:22.855Z</time></trkpt><trkpt lat="42.6467318" lon="11.9817742"><ele>320.0</ele><time>2026-04-26T11:58:23.855Z</time></trkpt><trkpt lat="42.6467868" lon="11.9815423"><ele>319.0</ele><time>2026-04-26T11:58:24.855Z</time></trkpt><trkpt lat="42.6468469" lon="11.9813119"><ele>318.0</ele><time>2026-04-26T11:58:25.855Z</time></trkpt><trkpt lat="42.6469049" lon="11.9810758"><ele>317.0</ele><time>2026-04-26T11:58:26.854Z</time></trkpt><trkpt lat="42.6469603" lon="11.9808393"><ele>318.33333333333337</ele><time>2026-04-26T11:58:27.855Z</time></trkpt><trkpt lat="42.6470232" lon="11.980601"><ele>319.6666666666667</ele><time>2026-04-26T11:58:28.855Z</time></trkpt><trkpt lat="42.6470846" lon="11.9803574"><ele>321.0</ele><time>2026-04-26T11:58:29.854Z</time></trkpt><trkpt lat="42.6471441" lon="11.9801094"><ele>320.3333333333333</ele><time>2026-04-26T11:58:30.855Z</time></trkpt><trkpt lat="42.6472055" lon="11.9798651"><ele>319.66666666666663</ele><time>2026-04-26T11:58:31.855Z</time></trkpt><trkpt lat="42.6472714" lon="11.9796128"><ele>319.0</ele><time>2026-04-26T11:58:32.855Z</time></trkpt><trkpt lat="42.6473323" lon="11.9793526"><ele>317.3333333333333</ele><time>2026-04-26T11:58:33.855Z</time></trkpt><trkpt lat="42.6473973" lon="11.9790877"><ele>315.6666666666667</ele><time>2026-04-26T11:58:34.855Z</time></trkpt><trkpt lat="42.6474664" lon="11.9788183"><ele>314.0</ele><time>2026-04-26T11:58:35.855Z</time></trkpt><trkpt lat="42.6475369" lon="11.9785462"><ele>313.6666666666667</ele><time>2026-04-26T11:58:36.854Z</time></trkpt><trkpt lat="42.6476042" lon="11.9782707"><ele>313.3333333333333</ele><time>2026-04-26T11:58:37.855Z</time></trkpt><trkpt lat="42.6476749" lon="11.9779929"><ele>313.0</ele><time>2026-04-26T11:58:38.855Z</time></trkpt><trkpt lat="42.6477465" lon="11.9777167"><ele>313.0</ele><time>2026-04-26T11:58:39.855Z</time></trkpt><trkpt lat="42.6478149" lon="11.977433"><ele>313.0</ele><time>2026-04-26T11:58:40.855Z</time></trkpt><trkpt lat="42.6478851" lon="11.9771526"><ele>313.0</ele><time>2026-04-26T11:58:41.855Z</time></trkpt><trkpt lat="42.6479578" lon="11.9768785"><ele>312.3333333333333</ele><time>2026-04-26T11:58:42.855Z</time></trkpt><trkpt lat="42.6480274" lon="11.9766023"><ele>311.6666666666667</ele><time>2026-04-26T11:58:43.854Z</time></trkpt><trkpt lat="42.6480953" lon="11.9763338"><ele>311.0</ele><time>2026-04-26T11:58:44.855Z</time></trkpt><trkpt lat="42.6481645" lon="11.9760705"><ele>310.33333333333337</ele><time>2026-04-26T11:58:45.854Z</time></trkpt><trkpt lat="42.6482312" lon="11.9758111"><ele>309.6666666666667</ele><time>2026-04-26T11:58:46.855Z</time></trkpt><trkpt lat="42.6482947" lon="11.9755546"><ele>309.0</ele><time>2026-04-26T11:58:47.855Z</time></trkpt><trkpt lat="42.6483531" lon="11.9753049"><ele>309.0</ele><time>2026-04-26T11:58:48.855Z</time></trkpt><trkpt lat="42.6484077" lon="11.9750607"><ele>309.0</ele><time>2026-04-26T11:58:49.855Z</time></trkpt><trkpt lat="42.6484613" lon="11.9748274"><ele>309.0</ele><time>2026-04-26T11:58:50.855Z</time></trkpt><trkpt lat="42.6485136" lon="11.9745971"><ele>309.0</ele><time>2026-04-26T11:58:51.855Z</time></trkpt><trkpt lat="42.6485653" lon="11.9743676"><ele>309.0</ele><time>2026-04-26T11:58:52.855Z</time></trkpt><trkpt lat="42.6486193" lon="11.9741348"><ele>309.0</ele><time>2026-04-26T11:58:53.854Z</time></trkpt><trkpt lat="42.6486678" lon="11.9738891"><ele>309.0</ele><time>2026-04-26T11:58:54.854Z</time></trkpt><trkpt lat="42.6487172" lon="11.9736357"><ele>309.0</ele><time>2026-04-26T11:58:55.855Z</time></trkpt><trkpt lat="42.6487674" lon="11.9733741"><ele>309.0</ele><time>2026-04-26T11:58:56.854Z</time></trkpt><trkpt lat="42.6488208" lon="11.9731097"><ele>308.3333333333333</ele><time>2026-04-26T11:58:57.855Z</time></trkpt><trkpt lat="42.6488762" lon="11.9728385"><ele>307.66666666666663</ele><time>2026-04-26T11:58:58.855Z</time></trkpt><trkpt lat="42.6489329" lon="11.9725584"><ele>307.0</ele><time>2026-04-26T11:58:59.854Z</time></trkpt><trkpt lat="42.6489947" lon="11.9722757"><ele>306.66666666666663</ele><time>2026-04-26T11:59:00.854Z</time></trkpt><trkpt lat="42.6490658" lon="11.9719928"><ele>306.3333333333333</ele><time>2026-04-26T11:59:01.855Z</time></trkpt><trkpt lat="42.6491458" lon="11.9717074"><ele>306.0</ele><time>2026-04-26T11:59:02.855Z</time></trkpt><trkpt lat="42.6492199" lon="11.9714198"><ele>306.0</ele><time>2026-04-26T11:59:03.855Z</time></trkpt><trkpt lat="42.6492984" lon="11.971123"><ele>306.0</ele><time>2026-04-26T11:59:04.855Z</time></trkpt><trkpt lat="42.6493756" lon="11.970826"><ele>306.5</ele><time>2026-04-26T11:59:05.854Z</time></trkpt><trkpt lat="42.6494526" lon="11.9705257"><ele>307.0</ele><time>2026-04-26T11:59:06.855Z</time></trkpt><trkpt lat="42.6495316" lon="11.9702272"><ele>306.5</ele><time>2026-04-26T11:59:07.854Z</time></trkpt><trkpt lat="42.649609" lon="11.9699269"><ele>306.0</ele><time>2026-04-26T11:59:08.855Z</time></trkpt><trkpt lat="42.6496859" lon="11.9696236"><ele>306.0</ele><time>2026-04-26T11:59:09.855Z</time></trkpt><trkpt lat="42.6497588" lon="11.969325"><ele>306.0</ele><time>2026-04-26T11:59:10.855Z</time></trkpt><trkpt lat="42.6498292" lon="11.9690189"><ele>306.5</ele><time>2026-04-26T11:59:11.855Z</time></trkpt><trkpt lat="42.649898" lon="11.9687196"><ele>307.0</ele><time>2026-04-26T11:59:12.855Z</time></trkpt><trkpt lat="42.6499658" lon="11.9684176"><ele>307.0</ele><time>2026-04-26T11:59:13.855Z</time></trkpt><trkpt lat="42.650029" lon="11.9681143"><ele>307.0</ele><time>2026-04-26T11:59:14.855Z</time></trkpt><trkpt lat="42.6500892" lon="11.9678075"><ele>307.0</ele><time>2026-04-26T11:59:15.854Z</time></trkpt><trkpt lat="42.6501454" lon="11.9675001"><ele>307.0</ele><time>2026-04-26T11:59:16.855Z</time></trkpt><trkpt lat="42.6502" lon="11.9671945"><ele>307.0</ele><time>2026-04-26T11:59:17.855Z</time></trkpt><trkpt lat="42.6502542" lon="11.9668817"><ele>307.0</ele><time>2026-04-26T11:59:18.854Z</time></trkpt><trkpt lat="42.6503083" lon="11.9665702"><ele>307.0</ele><time>2026-04-26T11:59:19.855Z</time></trkpt><trkpt lat="42.6503611" lon="11.9662591"><ele>307.0</ele><time>2026-04-26T11:59:20.855Z</time></trkpt><trkpt lat="42.6504116" lon="11.9659424"><ele>307.0</ele><time>2026-04-26T11:59:21.855Z</time></trkpt><trkpt lat="42.6504556" lon="11.9656387"><ele>307.0</ele><time>2026-04-26T11:59:22.855Z</time></trkpt><trkpt lat="42.6505025" lon="11.9653267"><ele>307.5</ele><time>2026-04-26T11:59:23.854Z</time></trkpt><trkpt lat="42.6505437" lon="11.9650167"><ele>308.0</ele><time>2026-04-26T11:59:24.855Z</time></trkpt><trkpt lat="42.6505837" lon="11.9647095"><ele>308.0</ele><time>2026-04-26T11:59:25.855Z</time></trkpt><trkpt lat="42.6506253" lon="11.9643983"><ele>308.0</ele><time>2026-04-26T11:59:26.855Z</time></trkpt><trkpt lat="42.6506633" lon="11.9640865"><ele>307.5</ele><time>2026-04-26T11:59:27.855Z</time></trkpt><trkpt lat="42.6507021" lon="11.9637749"><ele>307.0</ele><time>2026-04-26T11:59:28.854Z</time></trkpt><trkpt lat="42.6507413" lon="11.9634582"><ele>306.5</ele><time>2026-04-26T11:59:29.855Z</time></trkpt><trkpt lat="42.6507808" lon="11.9631474"><ele>306.0</ele><time>2026-04-26T11:59:30.855Z</time></trkpt><trkpt lat="42.6508214" lon="11.9628332"><ele>306.5</ele><time>2026-04-26T11:59:31.855Z</time></trkpt><trkpt lat="42.6508624" lon="11.9625202"><ele>307.0</ele><time>2026-04-26T11:59:32.855Z</time></trkpt><trkpt lat="42.6508993" lon="11.9622075"><ele>307.0</ele><time>2026-04-26T11:59:33.854Z</time></trkpt><trkpt lat="42.6509345" lon="11.9618952"><ele>307.0</ele><time>2026-04-26T11:59:34.855Z</time></trkpt><trkpt lat="42.6509703" lon="11.9615806"><ele>307.5</ele><time>2026-04-26T11:59:35.855Z</time></trkpt><trkpt lat="42.6510067" lon="11.9612635"><ele>308.0</ele><time>2026-04-26T11:59:36.854Z</time></trkpt><trkpt lat="42.6510422" lon="11.9609461"><ele>307.0</ele><time>2026-04-26T11:59:37.855Z</time></trkpt><trkpt lat="42.6510803" lon="11.9606281"><ele>306.0</ele><time>2026-04-26T11:59:38.855Z</time></trkpt><trkpt lat="42.6511199" lon="11.9603098"><ele>306.5</ele><time>2026-04-26T11:59:39.855Z</time></trkpt><trkpt lat="42.6511632" lon="11.9599942"><ele>307.0</ele><time>2026-04-26T11:59:40.855Z</time></trkpt><trkpt lat="42.6512055" lon="11.9596778"><ele>307.0</ele><time>2026-04-26T11:59:41.854Z</time></trkpt><trkpt lat="42.6512499" lon="11.9593634"><ele>307.0</ele><time>2026-04-26T11:59:42.854Z</time></trkpt><trkpt lat="42.6512917" lon="11.9590471"><ele>306.5</ele><time>2026-04-26T11:59:43.855Z</time></trkpt><trkpt lat="42.6513333" lon="11.9587307"><ele>306.0</ele><time>2026-04-26T11:59:44.854Z</time></trkpt><trkpt lat="42.6513741" lon="11.9584157"><ele>305.5</ele><time>2026-04-26T11:59:45.854Z</time></trkpt><trkpt lat="42.6514147" lon="11.9580997"><ele>305.0</ele><time>2026-04-26T11:59:46.855Z</time></trkpt><trkpt lat="42.6514556" lon="11.9577842"><ele>306.0</ele><time>2026-04-26T11:59:47.854Z</time></trkpt><trkpt lat="42.6514971" lon="11.9574744"><ele>307.0</ele><time>2026-04-26T11:59:48.855Z</time></trkpt><trkpt lat="42.6515403" lon="11.9571624"><ele>307.0</ele><time>2026-04-26T11:59:49.854Z</time></trkpt><trkpt lat="42.6515815" lon="11.9568497"><ele>307.0</ele><time>2026-04-26T11:59:50.854Z</time></trkpt><trkpt lat="42.6516238" lon="11.9565414"><ele>307.5</ele><time>2026-04-26T11:59:51.855Z</time></trkpt><trkpt lat="42.6516641" lon="11.9562342"><ele>308.0</ele><time>2026-04-26T11:59:52.854Z</time></trkpt><trkpt lat="42.6517081" lon="11.9559257"><ele>308.5</ele><time>2026-04-26T11:59:53.855Z</time></trkpt><trkpt lat="42.6517502" lon="11.9556151"><ele>309.0</ele><time>2026-04-26T11:59:54.855Z</time></trkpt><trkpt lat="42.651795" lon="11.9553093"><ele>308.0</ele><time>2026-04-26T11:59:55.855Z</time></trkpt><trkpt lat="42.6518399" lon="11.9550045"><ele>307.0</ele><time>2026-04-26T11:59:56.855Z</time></trkpt><trkpt lat="42.6518847" lon="11.9546948"><ele>307.0</ele><time>2026-04-26T11:59:57.854Z</time></trkpt><trkpt lat="42.651927" lon="11.954383"><ele>307.0</ele><time>2026-04-26T11:59:58.855Z</time></trkpt><trkpt lat="42.6519685" lon="11.9540762"><ele>307.0</ele><time>2026-04-26T11:59:59.855Z</time></trkpt><trkpt lat="42.6520068" lon="11.95377"><ele>307.0</ele><time>2026-04-26T12:00:00.855Z</time></trkpt><trkpt lat="42.6520465" lon="11.9534613"><ele>307.0</ele><time>2026-04-26T12:00:01.855Z</time></trkpt><trkpt lat="42.6520847" lon="11.9531497"><ele>307.0</ele><time>2026-04-26T12:00:02.854Z</time></trkpt><trkpt lat="42.6521188" lon="11.9528418"><ele>307.0</ele><time>2026-04-26T12:00:03.855Z</time></trkpt><trkpt lat="42.652151" lon="11.9525356"><ele>307.0</ele><time>2026-04-26T12:00:04.854Z</time></trkpt><trkpt lat="42.6521818" lon="11.9522218"><ele>307.0</ele><time>2026-04-26T12:00:05.855Z</time></trkpt><trkpt lat="42.6522102" lon="11.9519082"><ele>307.0</ele><time>2026-04-26T12:00:06.855Z</time></trkpt><trkpt lat="42.6522363" lon="11.9515986"><ele>306.5</ele><time>2026-04-26T12:00:07.854Z</time></trkpt><trkpt lat="42.6522607" lon="11.9512837"><ele>306.0</ele><time>2026-04-26T12:00:08.854Z</time></trkpt><trkpt lat="42.652287" lon="11.9509706"><ele>306.5</ele><time>2026-04-26T12:00:09.854Z</time></trkpt><trkpt lat="42.652315" lon="11.9506638"><ele>307.0</ele><time>2026-04-26T12:00:10.855Z</time></trkpt><trkpt lat="42.6523427" lon="11.9503449"><ele>306.5</ele><time>2026-04-26T12:00:11.855Z</time></trkpt><trkpt lat="42.652372" lon="11.9500282"><ele>306.0</ele><time>2026-04-26T12:00:12.855Z</time></trkpt><trkpt lat="42.652397" lon="11.949707"><ele>306.0</ele><time>2026-04-26T12:00:13.855Z</time></trkpt><trkpt lat="42.6524189" lon="11.9493883"><ele>306.0</ele><time>2026-04-26T12:00:14.855Z</time></trkpt><trkpt lat="42.652442" lon="11.9490674"><ele>306.0</ele><time>2026-04-26T12:00:15.855Z</time></trkpt><trkpt lat="42.6524654" lon="11.9487492"><ele>306.0</ele><time>2026-04-26T12:00:16.855Z</time></trkpt><trkpt lat="42.6524881" lon="11.9484335"><ele>305.5</ele><time>2026-04-26T12:00:17.854Z</time></trkpt><trkpt lat="42.6525134" lon="11.9481224"><ele>305.0</ele><time>2026-04-26T12:00:18.855Z</time></trkpt><trkpt lat="42.6525364" lon="11.9478069"><ele>305.0</ele><time>2026-04-26T12:00:19.855Z</time></trkpt><trkpt lat="42.6525568" lon="11.9474919"><ele>305.0</ele><time>2026-04-26T12:00:20.854Z</time></trkpt><trkpt lat="42.652579" lon="11.947181"><ele>305.0</ele><time>2026-04-26T12:00:21.855Z</time></trkpt><trkpt lat="42.6525887" lon="11.9468686"><ele>305.0</ele><time>2026-04-26T12:00:22.855Z</time></trkpt><trkpt lat="42.652602" lon="11.9465588"><ele>305.5</ele><time>2026-04-26T12:00:23.854Z</time></trkpt><trkpt lat="42.6526234" lon="11.9462502"><ele>306.0</ele><time>2026-04-26T12:00:24.854Z</time></trkpt><trkpt lat="42.65267" lon="11.9459534"><ele>306.5</ele><time>2026-04-26T12:00:25.855Z</time></trkpt><trkpt lat="42.6527496" lon="11.9456618"><ele>307.0</ele><time>2026-04-26T12:00:26.854Z</time></trkpt><trkpt lat="42.6528587" lon="11.9453939"><ele>307.0</ele><time>2026-04-26T12:00:27.855Z</time></trkpt><trkpt lat="42.6529819" lon="11.9451343"><ele>307.0</ele><time>2026-04-26T12:00:28.855Z</time></trkpt><trkpt lat="42.6530936" lon="11.9448634"><ele>307.0</ele><time>2026-04-26T12:00:29.855Z</time></trkpt><trkpt lat="42.6532087" lon="11.9445869"><ele>307.0</ele><time>2026-04-26T12:00:30.855Z</time></trkpt><trkpt lat="42.6533212" lon="11.9443118"><ele>307.5</ele><time>2026-04-26T12:00:31.855Z</time></trkpt><trkpt lat="42.6534344" lon="11.9440366"><ele>308.0</ele><time>2026-04-26T12:00:32.855Z</time></trkpt><trkpt lat="42.6535486" lon="11.9437646"><ele>307.5</ele><time>2026-04-26T12:00:33.855Z</time></trkpt><trkpt lat="42.6536565" lon="11.9434892"><ele>307.0</ele><time>2026-04-26T12:00:34.854Z</time></trkpt><trkpt lat="42.6537677" lon="11.9432133"><ele>307.0</ele><time>2026-04-26T12:00:35.855Z</time></trkpt><trkpt lat="42.6538769" lon="11.9429331"><ele>307.0</ele><time>2026-04-26T12:00:36.855Z</time></trkpt><trkpt lat="42.6539859" lon="11.9426522"><ele>306.0</ele><time>2026-04-26T12:00:37.855Z</time></trkpt><trkpt lat="42.6540913" lon="11.9423659"><ele>305.0</ele><time>2026-04-26T12:00:38.855Z</time></trkpt><trkpt lat="42.6541956" lon="11.9420773"><ele>305.0</ele><time>2026-04-26T12:00:39.855Z</time></trkpt><trkpt lat="42.654306" lon="11.9417948"><ele>305.0</ele><time>2026-04-26T12:00:40.855Z</time></trkpt><trkpt lat="42.6544221" lon="11.9415146"><ele>306.0</ele><time>2026-04-26T12:00:41.855Z</time></trkpt><trkpt lat="42.654538" lon="11.9412333"><ele>307.0</ele><time>2026-04-26T12:00:42.855Z</time></trkpt><trkpt lat="42.6546464" lon="11.9409451"><ele>307.0</ele><time>2026-04-26T12:00:43.854Z</time></trkpt><trkpt lat="42.6547546" lon="11.9406581"><ele>307.0</ele><time>2026-04-26T12:00:44.855Z</time></trkpt><trkpt lat="42.6548648" lon="11.9403713"><ele>307.0</ele><time>2026-04-26T12:00:45.855Z</time></trkpt><trkpt lat="42.6549759" lon="11.9400887"><ele>307.0</ele><time>2026-04-26T12:00:46.855Z</time></trkpt><trkpt lat="42.6550896" lon="11.9398105"><ele>308.0</ele><time>2026-04-26T12:00:47.855Z</time></trkpt><trkpt lat="42.6552015" lon="11.9395293"><ele>309.0</ele><time>2026-04-26T12:00:48.854Z</time></trkpt><trkpt lat="42.6553169" lon="11.9392441"><ele>309.5</ele><time>2026-04-26T12:00:49.855Z</time></trkpt><trkpt lat="42.6554301" lon="11.9389623"><ele>310.0</ele><time>2026-04-26T12:00:50.855Z</time></trkpt><trkpt lat="42.6555448" lon="11.9386805"><ele>310.0</ele><time>2026-04-26T12:00:51.855Z</time></trkpt><trkpt lat="42.6556581" lon="11.9383982"><ele>310.0</ele><time>2026-04-26T12:00:52.855Z</time></trkpt><trkpt lat="42.6557741" lon="11.9381154"><ele>309.5</ele><time>2026-04-26T12:00:53.855Z</time></trkpt><trkpt lat="42.6558879" lon="11.9378418"><ele>309.0</ele><time>2026-04-26T12:00:54.855Z</time></trkpt><trkpt lat="42.6559988" lon="11.9375695"><ele>310.0</ele><time>2026-04-26T12:00:55.855Z</time></trkpt><trkpt lat="42.6561094" lon="11.9372976"><ele>311.0</ele><time>2026-04-26T12:00:56.855Z</time></trkpt><trkpt lat="42.6562187" lon="11.9370308"><ele>311.0</ele><time>2026-04-26T12:00:57.854Z</time></trkpt><trkpt lat="42.6563233" lon="11.9367605"><ele>311.0</ele><time>2026-04-26T12:00:58.855Z</time></trkpt><trkpt lat="42.6564103" lon="11.9364808"><ele>311.0</ele><time>2026-04-26T12:00:59.854Z</time></trkpt><trkpt lat="42.6564693" lon="11.9361916"><ele>311.5</ele><time>2026-04-26T12:01:00.855Z</time></trkpt><trkpt lat="42.6565093" lon="11.9358832"><ele>312.0</ele><time>2026-04-26T12:01:01.855Z</time></trkpt><trkpt lat="42.6565374" lon="11.9355797"><ele>312.0</ele><time>2026-04-26T12:01:02.854Z</time></trkpt><trkpt lat="42.6565614" lon="11.935267"><ele>312.0</ele><time>2026-04-26T12:01:03.855Z</time></trkpt><trkpt lat="42.6565805" lon="11.9349617"><ele>311.5</ele><time>2026-04-26T12:01:04.855Z</time></trkpt><trkpt lat="42.6565978" lon="11.9346474"><ele>311.0</ele><time>2026-04-26T12:01:05.855Z</time></trkpt><trkpt lat="42.6566153" lon="11.9343375"><ele>311.0</ele><time>2026-04-26T12:01:06.855Z</time></trkpt><trkpt lat="42.6566306" lon="11.9340282"><ele>311.0</ele><time>2026-04-26T12:01:07.855Z</time></trkpt><trkpt lat="42.6566435" lon="11.9337149"><ele>311.0</ele><time>2026-04-26T12:01:08.855Z</time></trkpt><trkpt lat="42.6566521" lon="11.9334017"><ele>311.0</ele><time>2026-04-26T12:01:09.855Z</time></trkpt><trkpt lat="42.6566573" lon="11.9330902"><ele>311.5</ele><time>2026-04-26T12:01:10.855Z</time></trkpt><trkpt lat="42.6566575" lon="11.9327738"><ele>312.0</ele><time>2026-04-26T12:01:11.855Z</time></trkpt><trkpt lat="42.6566437" lon="11.9324597"><ele>312.0</ele><time>2026-04-26T12:01:12.854Z</time></trkpt><trkpt lat="42.656622" lon="11.9321464"><ele>312.0</ele><time>2026-04-26T12:01:13.855Z</time></trkpt><trkpt lat="42.6565968" lon="11.9318339"><ele>311.0</ele><time>2026-04-26T12:01:14.855Z</time></trkpt><trkpt lat="42.6565702" lon="11.931516"><ele>310.0</ele><time>2026-04-26T12:01:15.855Z</time></trkpt><trkpt lat="42.6565474" lon="11.9312067"><ele>310.0</ele><time>2026-04-26T12:01:16.855Z</time></trkpt><trkpt lat="42.6565333" lon="11.9308941"><ele>310.0</ele><time>2026-04-26T12:01:17.855Z</time></trkpt><trkpt lat="42.6565303" lon="11.9305807"><ele>310.0</ele><time>2026-04-26T12:01:18.855Z</time></trkpt><trkpt lat="42.6565344" lon="11.9302635"><ele>310.0</ele><time>2026-04-26T12:01:19.855Z</time></trkpt><trkpt lat="42.6565389" lon="11.9299469"><ele>310.0</ele><time>2026-04-26T12:01:20.855Z</time></trkpt><trkpt lat="42.6565414" lon="11.9296333"><ele>310.0</ele><time>2026-04-26T12:01:21.855Z</time></trkpt><trkpt lat="42.6565411" lon="11.9293196"><ele>311.0</ele><time>2026-04-26T12:01:22.854Z</time></trkpt><trkpt lat="42.6565407" lon="11.9290025"><ele>312.0</ele><time>2026-04-26T12:01:23.854Z</time></trkpt><trkpt lat="42.656523" lon="11.9286879"><ele>311.5</ele><time>2026-04-26T12:01:24.855Z</time></trkpt><trkpt lat="42.6564949" lon="11.9283694"><ele>311.0</ele><time>2026-04-26T12:01:25.855Z</time></trkpt><trkpt lat="42.6564615" lon="11.9280518"><ele>311.0</ele><time>2026-04-26T12:01:26.854Z</time></trkpt><trkpt lat="42.6564294" lon="11.9277358"><ele>311.0</ele><time>2026-04-26T12:01:27.855Z</time></trkpt><trkpt lat="42.6564105" lon="11.9274263"><ele>311.5</ele><time>2026-04-26T12:01:28.855Z</time></trkpt><trkpt lat="42.6563976" lon="11.9271046"><ele>312.0</ele><time>2026-04-26T12:01:29.855Z</time></trkpt><trkpt lat="42.6563863" lon="11.9267886"><ele>311.5</ele><time>2026-04-26T12:01:30.855Z</time></trkpt><trkpt lat="42.6563716" lon="11.9264763"><ele>311.0</ele><time>2026-04-26T12:01:31.855Z</time></trkpt><trkpt lat="42.6563545" lon="11.9261595"><ele>311.0</ele><time>2026-04-26T12:01:32.855Z</time></trkpt><trkpt lat="42.6563382" lon="11.9258424"><ele>311.0</ele><time>2026-04-26T12:01:33.854Z</time></trkpt><trkpt lat="42.6563265" lon="11.9255203"><ele>311.0</ele><time>2026-04-26T12:01:34.855Z</time></trkpt><trkpt lat="42.6563157" lon="11.9252057"><ele>311.0</ele><time>2026-04-26T12:01:35.855Z</time></trkpt><trkpt lat="42.6563121" lon="11.9248888"><ele>311.0</ele><time>2026-04-26T12:01:36.855Z</time></trkpt><trkpt lat="42.656318" lon="11.9245716"><ele>311.0</ele><time>2026-04-26T12:01:37.855Z</time></trkpt><trkpt lat="42.6563221" lon="11.9242543"><ele>311.5</ele><time>2026-04-26T12:01:38.854Z</time></trkpt><trkpt lat="42.6563107" lon="11.9239411"><ele>312.0</ele><time>2026-04-26T12:01:39.855Z</time></trkpt><trkpt lat="42.6562911" lon="11.9236275"><ele>311.5</ele><time>2026-04-26T12:01:40.854Z</time></trkpt><trkpt lat="42.6562576" lon="11.9233086"><ele>311.0</ele><time>2026-04-26T12:01:41.854Z</time></trkpt><trkpt lat="42.6562034" lon="11.9229962"><ele>311.0</ele><time>2026-04-26T12:01:42.855Z</time></trkpt><trkpt lat="42.6561392" lon="11.9226946"><ele>311.0</ele><time>2026-04-26T12:01:43.855Z</time></trkpt><trkpt lat="42.6560676" lon="11.9223905"><ele>310.5</ele><time>2026-04-26T12:01:44.855Z</time></trkpt><trkpt lat="42.655998" lon="11.9220826"><ele>310.0</ele><time>2026-04-26T12:01:45.854Z</time></trkpt><trkpt lat="42.6559335" lon="11.9217707"><ele>310.0</ele><time>2026-04-26T12:01:46.855Z</time></trkpt><trkpt lat="42.6558744" lon="11.9214599"><ele>310.0</ele><time>2026-04-26T12:01:47.855Z</time></trkpt><trkpt lat="42.6558201" lon="11.9211446"><ele>309.0</ele><time>2026-04-26T12:01:48.855Z</time></trkpt><trkpt lat="42.6557703" lon="11.9208327"><ele>308.0</ele><time>2026-04-26T12:01:49.854Z</time></trkpt><trkpt lat="42.6557212" lon="11.9205214"><ele>308.0</ele><time>2026-04-26T12:01:50.854Z</time></trkpt><trkpt lat="42.6556727" lon="11.9202124"><ele>308.0</ele><time>2026-04-26T12:01:51.855Z</time></trkpt><trkpt lat="42.6556282" lon="11.9199028"><ele>308.5</ele><time>2026-04-26T12:01:52.855Z</time></trkpt><trkpt lat="42.6555865" lon="11.9195947"><ele>309.0</ele><time>2026-04-26T12:01:53.855Z</time></trkpt><trkpt lat="42.6555523" lon="11.9192859"><ele>309.5</ele><time>2026-04-26T12:01:54.855Z</time></trkpt><trkpt lat="42.6555311" lon="11.9189781"><ele>310.0</ele><time>2026-04-26T12:01:55.855Z</time></trkpt><trkpt lat="42.655523" lon="11.9186703"><ele>310.5</ele><time>2026-04-26T12:01:56.855Z</time></trkpt><trkpt lat="42.6555395" lon="11.9183608"><ele>311.0</ele><time>2026-04-26T12:01:57.854Z</time></trkpt><trkpt lat="42.6555756" lon="11.9180579"><ele>311.0</ele><time>2026-04-26T12:01:58.855Z</time></trkpt><trkpt lat="42.6556234" lon="11.9177599"><ele>311.0</ele><time>2026-04-26T12:01:59.855Z</time></trkpt><trkpt lat="42.6556793" lon="11.9174601"><ele>310.5</ele><time>2026-04-26T12:02:00.855Z</time></trkpt><trkpt lat="42.655744" lon="11.9171635"><ele>310.0</ele><time>2026-04-26T12:02:01.855Z</time></trkpt><trkpt lat="42.6558148" lon="11.9168729"><ele>310.0</ele><time>2026-04-26T12:02:02.855Z</time></trkpt><trkpt lat="42.6558817" lon="11.9165775"><ele>310.0</ele><time>2026-04-26T12:02:03.854Z</time></trkpt><trkpt lat="42.6559578" lon="11.9162865"><ele>310.0</ele><time>2026-04-26T12:02:04.855Z</time></trkpt><trkpt lat="42.6560368" lon="11.9159947"><ele>310.0</ele><time>2026-04-26T12:02:05.855Z</time></trkpt><trkpt lat="42.6561187" lon="11.9157117"><ele>312.0</ele><time>2026-04-26T12:02:06.854Z</time></trkpt><trkpt lat="42.6562061" lon="11.915426"><ele>314.0</ele><time>2026-04-26T12:02:07.854Z</time></trkpt><trkpt lat="42.6562941" lon="11.9151383"><ele>314.0</ele><time>2026-04-26T12:02:08.854Z</time></trkpt><trkpt lat="42.6563832" lon="11.9148587"><ele>314.0</ele><time>2026-04-26T12:02:09.855Z</time></trkpt><trkpt lat="42.656492" lon="11.9145896"><ele>314.0</ele><time>2026-04-26T12:02:10.854Z</time></trkpt><trkpt lat="42.6566085" lon="11.9143213"><ele>314.0</ele><time>2026-04-26T12:02:11.855Z</time></trkpt><trkpt lat="42.6567319" lon="11.914057"><ele>314.0</ele><time>2026-04-26T12:02:12.854Z</time></trkpt><trkpt lat="42.6568567" lon="11.9137994"><ele>314.0</ele><time>2026-04-26T12:02:13.855Z</time></trkpt><trkpt lat="42.6569824" lon="11.9135349"><ele>315.5</ele><time>2026-04-26T12:02:14.855Z</time></trkpt><trkpt lat="42.6571082" lon="11.9132722"><ele>317.0</ele><time>2026-04-26T12:02:15.855Z</time></trkpt><trkpt lat="42.6572345" lon="11.9130079"><ele>317.0</ele><time>2026-04-26T12:02:16.855Z</time></trkpt><trkpt lat="42.6573627" lon="11.9127516"><ele>317.0</ele><time>2026-04-26T12:02:17.855Z</time></trkpt><trkpt lat="42.6574911" lon="11.912495"><ele>316.0</ele><time>2026-04-26T12:02:18.854Z</time></trkpt><trkpt lat="42.6576113" lon="11.9122263"><ele>315.0</ele><time>2026-04-26T12:02:19.855Z</time></trkpt><trkpt lat="42.6577243" lon="11.9119532"><ele>315.0</ele><time>2026-04-26T12:02:20.855Z</time></trkpt><trkpt lat="42.6578245" lon="11.9116829"><ele>315.0</ele><time>2026-04-26T12:02:21.854Z</time></trkpt><trkpt lat="42.6579228" lon="11.9114245"><ele>315.0</ele><time>2026-04-26T12:02:22.855Z</time></trkpt><trkpt lat="42.6580215" lon="11.9111724"><ele>315.0</ele><time>2026-04-26T12:02:23.855Z</time></trkpt><trkpt lat="42.6581212" lon="11.9109429"><ele>315.0</ele><time>2026-04-26T12:02:24.855Z</time></trkpt><trkpt lat="42.6582468" lon="11.9107477"><ele>315.0</ele><time>2026-04-26T12:02:25.855Z</time></trkpt><trkpt lat="42.658381" lon="11.9105568"><ele>314.6666666666667</ele><time>2026-04-26T12:02:26.855Z</time></trkpt><trkpt lat="42.6585168" lon="11.9103762"><ele>314.33333333333337</ele><time>2026-04-26T12:02:27.855Z</time></trkpt><trkpt lat="42.6586294" lon="11.910189"><ele>314.0</ele><time>2026-04-26T12:02:28.854Z</time></trkpt><trkpt lat="42.658727" lon="11.9100146"><ele>314.0</ele><time>2026-04-26T12:02:29.855Z</time></trkpt><trkpt lat="42.6588199" lon="11.909858"><ele>314.0</ele><time>2026-04-26T12:02:30.855Z</time></trkpt><trkpt lat="42.6589045" lon="11.9097278"><ele>314.0</ele><time>2026-04-26T12:02:31.855Z</time></trkpt><trkpt lat="42.6589837" lon="11.9096327"><ele>314.0</ele><time>2026-04-26T12:02:32.855Z</time></trkpt><trkpt lat="42.659062" lon="11.9095534"><ele>314.0</ele><time>2026-04-26T12:02:33.855Z</time></trkpt><trkpt lat="42.6591403" lon="11.9094911"><ele>314.0</ele><time>2026-04-26T12:02:34.855Z</time></trkpt><trkpt lat="42.6592329" lon="11.9094383"><ele>314.0</ele><time>2026-04-26T12:02:35.854Z</time></trkpt><trkpt lat="42.6593369" lon="11.9093899"><ele>314.0</ele><time>2026-04-26T12:02:36.855Z</time></trkpt><trkpt lat="42.6594444" lon="11.9093444"><ele>314.0</ele><time>2026-04-26T12:02:37.855Z</time></trkpt><trkpt lat="42.6595592" lon="11.9092952"><ele>314.0</ele><time>2026-04-26T12:02:38.855Z</time></trkpt><trkpt lat="42.6596804" lon="11.9092456"><ele>314.0</ele><time>2026-04-26T12:02:39.854Z</time></trkpt><trkpt lat="42.6598044" lon="11.9091885"><ele>314.0</ele><time>2026-04-26T12:02:40.855Z</time></trkpt><trkpt lat="42.65993" lon="11.9091364"><ele>314.0</ele><time>2026-04-26T12:02:41.855Z</time></trkpt><trkpt lat="42.6600563" lon="11.909082"><ele>314.0</ele><time>2026-04-26T12:02:42.854Z</time></trkpt><trkpt lat="42.6601846" lon="11.909026"><ele>314.0</ele><time>2026-04-26T12:02:43.855Z</time></trkpt><trkpt lat="42.6603082" lon="11.9089767"><ele>314.0</ele><time>2026-04-26T12:02:44.855Z</time></trkpt><trkpt lat="42.6604335" lon="11.9089276"><ele>314.0</ele><time>2026-04-26T12:02:45.855Z</time></trkpt><trkpt lat="42.6605581" lon="11.9088766"><ele>315.75</ele><time>2026-04-26T12:02:46.855Z</time></trkpt><trkpt lat="42.6606797" lon="11.9088245"><ele>317.5</ele><time>2026-04-26T12:02:47.855Z</time></trkpt><trkpt lat="42.6608023" lon="11.9087741"><ele>319.25</ele><time>2026-04-26T12:02:48.855Z</time></trkpt><trkpt lat="42.6609254" lon="11.9087183"><ele>321.0</ele><time>2026-04-26T12:02:49.855Z</time></trkpt><trkpt lat="42.6610446" lon="11.9086639"><ele>322.25</ele><time>2026-04-26T12:02:50.855Z</time></trkpt><trkpt lat="42.6611658" lon="11.9086142"><ele>323.5</ele><time>2026-04-26T12:02:51.855Z</time></trkpt><trkpt lat="42.6612933" lon="11.9085746"><ele>324.75</ele><time>2026-04-26T12:02:52.855Z</time></trkpt><trkpt lat="42.6614316" lon="11.9085433"><ele>326.0</ele><time>2026-04-26T12:02:53.855Z</time></trkpt><trkpt lat="42.6615753" lon="11.9085259"><ele>326.0</ele><time>2026-04-26T12:02:54.854Z</time></trkpt><trkpt lat="42.6617199" lon="11.908525"><ele>326.0</ele><time>2026-04-26T12:02:55.855Z</time></trkpt><trkpt lat="42.6618725" lon="11.9085377"><ele>326.0</ele><time>2026-04-26T12:02:56.855Z</time></trkpt><trkpt lat="42.6620381" lon="11.9085567"><ele>327.33333333333337</ele><time>2026-04-26T12:02:57.855Z</time></trkpt><trkpt lat="42.6622073" lon="11.9085814"><ele>328.6666666666667</ele><time>2026-04-26T12:02:58.855Z</time></trkpt><trkpt lat="42.6623885" lon="11.9086137"><ele>330.0</ele><time>2026-04-26T12:02:59.855Z</time></trkpt><trkpt lat="42.6625741" lon="11.9086525"><ele>330.0</ele><time>2026-04-26T12:03:00.854Z</time></trkpt><trkpt lat="42.6627664" lon="11.9087016"><ele>330.0</ele><time>2026-04-26T12:03:01.854Z</time></trkpt><trkpt lat="42.6629614" lon="11.9087655"><ele>330.0</ele><time>2026-04-26T12:03:02.855Z</time></trkpt><trkpt lat="42.6631528" lon="11.9088261"><ele>331.0</ele><time>2026-04-26T12:03:03.854Z</time></trkpt><trkpt lat="42.6633428" lon="11.9088661"><ele>332.0</ele><time>2026-04-26T12:03:04.855Z</time></trkpt><trkpt lat="42.6635368" lon="11.9088711"><ele>333.0</ele><time>2026-04-26T12:03:05.855Z</time></trkpt><trkpt lat="42.6637321" lon="11.9088438"><ele>333.6666666666667</ele><time>2026-04-26T12:03:06.854Z</time></trkpt><trkpt lat="42.6639269" lon="11.908777"><ele>334.33333333333337</ele><time>2026-04-26T12:03:07.855Z</time></trkpt><trkpt lat="42.6641209" lon="11.9087091"><ele>335.0</ele><time>2026-04-26T12:03:08.855Z</time></trkpt><trkpt lat="42.664315" lon="11.9086466"><ele>338.6666666666667</ele><time>2026-04-26T12:03:09.855Z</time></trkpt><trkpt lat="42.664509" lon="11.9085846"><ele>342.3333333333333</ele><time>2026-04-26T12:03:10.854Z</time></trkpt><trkpt lat="42.6646986" lon="11.9085345"><ele>346.0</ele><time>2026-04-26T12:03:11.855Z</time></trkpt><trkpt lat="42.6648853" lon="11.9084995"><ele>346.0</ele><time>2026-04-26T12:03:12.854Z</time></trkpt><trkpt lat="42.6650679" lon="11.9085087"><ele>346.0</ele><time>2026-04-26T12:03:13.855Z</time></trkpt><trkpt lat="42.6652518" lon="11.9085522"><ele>346.0</ele><time>2026-04-26T12:03:14.855Z</time></trkpt><trkpt lat="42.6654336" lon="11.9086032"><ele>347.66666666666663</ele><time>2026-04-26T12:03:15.855Z</time></trkpt><trkpt lat="42.6656251" lon="11.9086637"><ele>349.3333333333333</ele><time>2026-04-26T12:03:16.854Z</time></trkpt><trkpt lat="42.6658141" lon="11.9087165"><ele>351.0</ele><time>2026-04-26T12:03:17.855Z</time></trkpt><trkpt lat="42.6660122" lon="11.9087523"><ele>351.3333333333333</ele><time>2026-04-26T12:03:18.855Z</time></trkpt><trkpt lat="42.6662104" lon="11.9087649"><ele>351.66666666666663</ele><time>2026-04-26T12:03:19.855Z</time></trkpt><trkpt lat="42.6664077" lon="11.9087664"><ele>352.0</ele><time>2026-04-26T12:03:20.855Z</time></trkpt><trkpt lat="42.6666134" lon="11.9087587"><ele>352.0</ele><time>2026-04-26T12:03:21.855Z</time></trkpt><trkpt lat="42.666819" lon="11.9087583"><ele>352.0</ele><time>2026-04-26T12:03:22.855Z</time></trkpt><trkpt lat="42.6670271" lon="11.9087658"><ele>352.0</ele><time>2026-04-26T12:03:23.855Z</time></trkpt><trkpt lat="42.6672281" lon="11.9087764"><ele>351.66666666666663</ele><time>2026-04-26T12:03:24.855Z</time></trkpt><trkpt lat="42.6674257" lon="11.9087903"><ele>351.3333333333333</ele><time>2026-04-26T12:03:25.855Z</time></trkpt><trkpt lat="42.667617" lon="11.9088197"><ele>351.0</ele><time>2026-04-26T12:03:26.855Z</time></trkpt><trkpt lat="42.6677943" lon="11.9089012"><ele>351.3333333333333</ele><time>2026-04-26T12:03:27.855Z</time></trkpt><trkpt lat="42.6679534" lon="11.9090265"><ele>351.66666666666663</ele><time>2026-04-26T12:03:28.855Z</time></trkpt><trkpt lat="42.668089" lon="11.9091869"><ele>352.0</ele><time>2026-04-26T12:03:29.855Z</time></trkpt><trkpt lat="42.6681947" lon="11.9093815"><ele>352.0</ele><time>2026-04-26T12:03:30.854Z</time></trkpt><trkpt lat="42.6682785" lon="11.9095976"><ele>352.0</ele><time>2026-04-26T12:03:31.855Z</time></trkpt><trkpt lat="42.6683227" lon="11.9098352"><ele>352.0</ele><time>2026-04-26T12:03:32.855Z</time></trkpt><trkpt lat="42.6683434" lon="11.9100803"><ele>354.0</ele><time>2026-04-26T12:03:33.854Z</time></trkpt><trkpt lat="42.6683679" lon="11.9103181"><ele>356.0</ele><time>2026-04-26T12:03:34.854Z</time></trkpt><trkpt lat="42.6684038" lon="11.910549"><ele>358.0</ele><time>2026-04-26T12:03:35.855Z</time></trkpt><trkpt lat="42.6684495" lon="11.9107814"><ele>360.66666666666663</ele><time>2026-04-26T12:03:36.855Z</time></trkpt><trkpt lat="42.668514" lon="11.911008"><ele>363.3333333333333</ele><time>2026-04-26T12:03:37.855Z</time></trkpt><trkpt lat="42.6685868" lon="11.9112332"><ele>366.0</ele><time>2026-04-26T12:03:38.855Z</time></trkpt><trkpt lat="42.6686705" lon="11.9114467"><ele>362.3333333333333</ele><time>2026-04-26T12:03:39.855Z</time></trkpt><trkpt lat="42.6687606" lon="11.9116575"><ele>358.66666666666663</ele><time>2026-04-26T12:03:40.854Z</time></trkpt><trkpt lat="42.6688455" lon="11.9118827"><ele>355.0</ele><time>2026-04-26T12:03:41.854Z</time></trkpt><trkpt lat="42.6689129" lon="11.9121113"><ele>355.0</ele><time>2026-04-26T12:03:42.855Z</time></trkpt><trkpt lat="42.6689647" lon="11.912346"><ele>355.0</ele><time>2026-04-26T12:03:43.855Z</time></trkpt><trkpt lat="42.6690049" lon="11.9126011"><ele>355.0</ele><time>2026-04-26T12:03:44.855Z</time></trkpt><trkpt lat="42.6690413" lon="11.9128615"><ele>357.0</ele><time>2026-04-26T12:03:45.855Z</time></trkpt><trkpt lat="42.6690737" lon="11.913114"><ele>359.0</ele><time>2026-04-26T12:03:46.855Z</time></trkpt><trkpt lat="42.6690882" lon="11.9133624"><ele>361.0</ele><time>2026-04-26T12:03:47.855Z</time></trkpt><trkpt lat="42.6690853" lon="11.9136131"><ele>362.3333333333333</ele><time>2026-04-26T12:03:48.854Z</time></trkpt><trkpt lat="42.6690584" lon="11.9138629"><ele>363.6666666666667</ele><time>2026-04-26T12:03:49.855Z</time></trkpt><trkpt lat="42.6690178" lon="11.9141151"><ele>365.0</ele><time>2026-04-26T12:03:50.855Z</time></trkpt><trkpt lat="42.6689726" lon="11.9143677"><ele>365.6666666666667</ele><time>2026-04-26T12:03:51.855Z</time></trkpt><trkpt lat="42.6689297" lon="11.914623"><ele>366.3333333333333</ele><time>2026-04-26T12:03:52.855Z</time></trkpt><trkpt lat="42.6688895" lon="11.9148732"><ele>367.0</ele><time>2026-04-26T12:03:53.855Z</time></trkpt><trkpt lat="42.6688606" lon="11.9151196"><ele>369.0</ele><time>2026-04-26T12:03:54.855Z</time></trkpt><trkpt lat="42.6688595" lon="11.91538"><ele>371.0</ele><time>2026-04-26T12:03:55.855Z</time></trkpt><trkpt lat="42.6688873" lon="11.9156343"><ele>373.0</ele><time>2026-04-26T12:03:56.855Z</time></trkpt><trkpt lat="42.668946" lon="11.9159005"><ele>373.0</ele><time>2026-04-26T12:03:57.855Z</time></trkpt><trkpt lat="42.6690026" lon="11.9161637"><ele>373.0</ele><time>2026-04-26T12:03:58.855Z</time></trkpt><trkpt lat="42.6690641" lon="11.916429"><ele>373.0</ele><time>2026-04-26T12:03:59.855Z</time></trkpt><trkpt lat="42.6691335" lon="11.9166855"><ele>373.3333333333333</ele><time>2026-04-26T12:04:00.855Z</time></trkpt><trkpt lat="42.6692158" lon="11.9169351"><ele>373.6666666666667</ele><time>2026-04-26T12:04:01.855Z</time></trkpt><trkpt lat="42.6693201" lon="11.9171817"><ele>374.0</ele><time>2026-04-26T12:04:02.855Z</time></trkpt><trkpt lat="42.6694415" lon="11.9174204"><ele>375.0</ele><time>2026-04-26T12:04:03.855Z</time></trkpt><trkpt lat="42.6695768" lon="11.9176417"><ele>376.0</ele><time>2026-04-26T12:04:04.855Z</time></trkpt><trkpt lat="42.669726" lon="11.9178537"><ele>377.0</ele><time>2026-04-26T12:04:05.854Z</time></trkpt><trkpt lat="42.6698948" lon="11.9180364"><ele>377.0</ele><time>2026-04-26T12:04:06.855Z</time></trkpt><trkpt lat="42.6700702" lon="11.9182046"><ele>377.0</ele><time>2026-04-26T12:04:07.855Z</time></trkpt><trkpt lat="42.6702647" lon="11.918347"><ele>377.0</ele><time>2026-04-26T12:04:08.855Z</time></trkpt><trkpt lat="42.6704649" lon="11.9184767"><ele>378.0</ele><time>2026-04-26T12:04:09.855Z</time></trkpt><trkpt lat="42.6706751" lon="11.9185806"><ele>379.0</ele><time>2026-04-26T12:04:10.855Z</time></trkpt><trkpt lat="42.6708915" lon="11.918662"><ele>380.0</ele><time>2026-04-26T12:04:11.855Z</time></trkpt><trkpt lat="42.6711144" lon="11.9187196"><ele>380.0</ele><time>2026-04-26T12:04:12.855Z</time></trkpt><trkpt lat="42.671341" lon="11.9187389"><ele>380.0</ele><time>2026-04-26T12:04:13.855Z</time></trkpt><trkpt lat="42.6715695" lon="11.9187406"><ele>380.0</ele><time>2026-04-26T12:04:14.855Z</time></trkpt><trkpt lat="42.6718057" lon="11.9187398"><ele>380.0</ele><time>2026-04-26T12:04:15.855Z</time></trkpt><trkpt lat="42.6720371" lon="11.9187301"><ele>377.5</ele><time>2026-04-26T12:04:16.855Z</time></trkpt><trkpt lat="42.6722739" lon="11.9187195"><ele>375.0</ele><time>2026-04-26T12:04:17.854Z</time></trkpt><trkpt lat="42.6725051" lon="11.9187123"><ele>375.0</ele><time>2026-04-26T12:04:18.855Z</time></trkpt><trkpt lat="42.6727359" lon="11.9187061"><ele>375.0</ele><time>2026-04-26T12:04:19.855Z</time></trkpt><trkpt lat="42.6729688" lon="11.9187077"><ele>376.5</ele><time>2026-04-26T12:04:20.854Z</time></trkpt><trkpt lat="42.6732064" lon="11.9187064"><ele>378.0</ele><time>2026-04-26T12:04:21.855Z</time></trkpt><trkpt lat="42.6734417" lon="11.9186974"><ele>381.0</ele><time>2026-04-26T12:04:22.854Z</time></trkpt><trkpt lat="42.6736714" lon="11.9186823"><ele>384.0</ele><time>2026-04-26T12:04:23.855Z</time></trkpt><trkpt lat="42.673902" lon="11.9186701"><ele>384.0</ele><time>2026-04-26T12:04:24.855Z</time></trkpt><trkpt lat="42.67413" lon="11.9186595"><ele>384.0</ele><time>2026-04-26T12:04:25.855Z</time></trkpt><trkpt lat="42.6743602" lon="11.9186498"><ele>386.5</ele><time>2026-04-26T12:04:26.855Z</time></trkpt><trkpt lat="42.6745887" lon="11.9186416"><ele>389.0</ele><time>2026-04-26T12:04:27.855Z</time></trkpt><trkpt lat="42.6748166" lon="11.9186346"><ele>389.0</ele><time>2026-04-26T12:04:28.854Z</time></trkpt><trkpt lat="42.6750435" lon="11.9186299"><ele>389.0</ele><time>2026-04-26T12:04:29.854Z</time></trkpt><trkpt lat="42.6752679" lon="11.9186208"><ele>391.5</ele><time>2026-04-26T12:04:30.855Z</time></trkpt><trkpt lat="42.6754949" lon="11.9186125"><ele>394.0</ele><time>2026-04-26T12:04:31.855Z</time></trkpt><trkpt lat="42.6757243" lon="11.91861"><ele>394.0</ele><time>2026-04-26T12:04:32.855Z</time></trkpt><trkpt lat="42.6759512" lon="11.9186053"><ele>394.0</ele><time>2026-04-26T12:04:33.855Z</time></trkpt><trkpt lat="42.6761869" lon="11.9185995"><ele>396.5</ele><time>2026-04-26T12:04:34.855Z</time></trkpt><trkpt lat="42.67642" lon="11.9185928"><ele>399.0</ele><time>2026-04-26T12:04:35.854Z</time></trkpt><trkpt lat="42.6766538" lon="11.9185845"><ele>399.0</ele><time>2026-04-26T12:04:36.855Z</time></trkpt><trkpt lat="42.6768878" lon="11.9185804"><ele>399.0</ele><time>2026-04-26T12:04:37.855Z</time></trkpt><trkpt lat="42.6771186" lon="11.918574"><ele>400.5</ele><time>2026-04-26T12:04:38.855Z</time></trkpt><trkpt lat="42.6773549" lon="11.9185676"><ele>402.0</ele><time>2026-04-26T12:04:39.855Z</time></trkpt><trkpt lat="42.6775886" lon="11.9185638"><ele>404.5</ele><time>2026-04-26T12:04:40.855Z</time></trkpt><trkpt lat="42.6778246" lon="11.9185578"><ele>407.0</ele><time>2026-04-26T12:04:41.855Z</time></trkpt><trkpt lat="42.6780581" lon="11.9185503"><ele>407.0</ele><time>2026-04-26T12:04:42.854Z</time></trkpt><trkpt lat="42.6782934" lon="11.9185453"><ele>407.0</ele><time>2026-04-26T12:04:43.855Z</time></trkpt><trkpt lat="42.6785232" lon="11.9185265"><ele>411.0</ele><time>2026-04-26T12:04:44.855Z</time></trkpt><trkpt lat="42.6787504" lon="11.918489"><ele>415.0</ele><time>2026-04-26T12:04:45.855Z</time></trkpt><trkpt lat="42.6789706" lon="11.9184344"><ele>414.6666666666667</ele><time>2026-04-26T12:04:46.855Z</time></trkpt><trkpt lat="42.6791799" lon="11.9183552"><ele>414.33333333333337</ele><time>2026-04-26T12:04:47.855Z</time></trkpt><trkpt lat="42.6793838" lon="11.9182569"><ele>414.0</ele><time>2026-04-26T12:04:48.855Z</time></trkpt><trkpt lat="42.6795723" lon="11.9181333"><ele>418.0</ele><time>2026-04-26T12:04:49.855Z</time></trkpt><trkpt lat="42.6797398" lon="11.9179928"><ele>422.0</ele><time>2026-04-26T12:04:50.855Z</time></trkpt><trkpt lat="42.6798812" lon="11.9178321"><ele>426.0</ele><time>2026-04-26T12:04:51.855Z</time></trkpt><trkpt lat="42.6800091" lon="11.9176535"><ele>425.0</ele><time>2026-04-26T12:04:52.855Z</time></trkpt><trkpt lat="42.6801289" lon="11.9174425"><ele>424.0</ele><time>2026-04-26T12:04:53.855Z</time></trkpt><trkpt lat="42.6802478" lon="11.9172178"><ele>423.0</ele><time>2026-04-26T12:04:54.855Z</time></trkpt><trkpt lat="42.6803642" lon="11.9169835"><ele>427.0</ele><time>2026-04-26T12:04:55.855Z</time></trkpt><trkpt lat="42.6804905" lon="11.9167658"><ele>431.0</ele><time>2026-04-26T12:04:56.855Z</time></trkpt><trkpt lat="42.6806322" lon="11.9165684"><ele>435.0</ele><time>2026-04-26T12:04:57.854Z</time></trkpt><trkpt lat="42.6807817" lon="11.916407"><ele>435.0</ele><time>2026-04-26T12:04:58.855Z</time></trkpt><trkpt lat="42.6809643" lon="11.9162828"><ele>435.0</ele><time>2026-04-26T12:04:59.855Z</time></trkpt><trkpt lat="42.681159" lon="11.9161854"><ele>435.0</ele><time>2026-04-26T12:05:00.855Z</time></trkpt><trkpt lat="42.681362" lon="11.9161464"><ele>437.66666666666663</ele><time>2026-04-26T12:05:01.854Z</time></trkpt><trkpt lat="42.6815591" lon="11.9161643"><ele>440.3333333333333</ele><time>2026-04-26T12:05:02.855Z</time></trkpt><trkpt lat="42.6817549" lon="11.9162352"><ele>443.0</ele><time>2026-04-26T12:05:03.855Z</time></trkpt><trkpt lat="42.6819556" lon="11.9163222"><ele>443.0</ele><time>2026-04-26T12:05:04.854Z</time></trkpt><trkpt lat="42.6821415" lon="11.916446"><ele>443.0</ele><time>2026-04-26T12:05:05.854Z</time></trkpt><trkpt lat="42.6823325" lon="11.9165774"><ele>443.0</ele><time>2026-04-26T12:05:06.855Z</time></trkpt><trkpt lat="42.6825184" lon="11.9166946"><ele>443.66666666666663</ele><time>2026-04-26T12:05:07.854Z</time></trkpt><trkpt lat="42.6827013" lon="11.916805"><ele>444.33333333333337</ele><time>2026-04-26T12:05:08.855Z</time></trkpt><trkpt lat="42.6828822" lon="11.9169044"><ele>445.0</ele><time>2026-04-26T12:05:09.855Z</time></trkpt><trkpt lat="42.6830638" lon="11.9169727"><ele>445.0</ele><time>2026-04-26T12:05:10.855Z</time></trkpt><trkpt lat="42.6832502" lon="11.9169794"><ele>445.0</ele><time>2026-04-26T12:05:11.855Z</time></trkpt><trkpt lat="42.683421" lon="11.9169167"><ele>445.0</ele><time>2026-04-26T12:05:12.855Z</time></trkpt><trkpt lat="42.6835746" lon="11.9168117"><ele>446.33333333333337</ele><time>2026-04-26T12:05:13.855Z</time></trkpt><trkpt lat="42.6837126" lon="11.916642"><ele>447.66666666666663</ele><time>2026-04-26T12:05:14.855Z</time></trkpt><trkpt lat="42.6838429" lon="11.9164512"><ele>449.0</ele><time>2026-04-26T12:05:15.855Z</time></trkpt><trkpt lat="42.6839776" lon="11.916257"><ele>449.0</ele><time>2026-04-26T12:05:16.855Z</time></trkpt><trkpt lat="42.6841072" lon="11.9160588"><ele>449.0</ele><time>2026-04-26T12:05:17.855Z</time></trkpt><trkpt lat="42.6842416" lon="11.915856"><ele>449.0</ele><time>2026-04-26T12:05:18.855Z</time></trkpt><trkpt lat="42.6843686" lon="11.9156586"><ele>454.0</ele><time>2026-04-26T12:05:19.855Z</time></trkpt><trkpt lat="42.6845048" lon="11.9154528"><ele>459.0</ele><time>2026-04-26T12:05:20.855Z</time></trkpt><trkpt lat="42.6846336" lon="11.9152484"><ele>464.0</ele><time>2026-04-26T12:05:21.854Z</time></trkpt><trkpt lat="42.6847586" lon="11.9150526"><ele>464.0</ele><time>2026-04-26T12:05:22.855Z</time></trkpt><trkpt lat="42.6848563" lon="11.9148334"><ele>464.0</ele><time>2026-04-26T12:05:23.855Z</time></trkpt><trkpt lat="42.6849222" lon="11.9145911"><ele>464.0</ele><time>2026-04-26T12:05:24.854Z</time></trkpt><trkpt lat="42.6849646" lon="11.914324"><ele>466.3333333333333</ele><time>2026-04-26T12:05:25.855Z</time></trkpt><trkpt lat="42.6849793" lon="11.9140572"><ele>468.66666666666663</ele><time>2026-04-26T12:05:26.855Z</time></trkpt><trkpt lat="42.6849656" lon="11.9137779"><ele>471.0</ele><time>2026-04-26T12:05:27.855Z</time></trkpt><trkpt lat="42.6849324" lon="11.9135078"><ele>473.33333333333337</ele><time>2026-04-26T12:05:28.855Z</time></trkpt><trkpt lat="42.6848891" lon="11.9132442"><ele>475.6666666666667</ele><time>2026-04-26T12:05:29.855Z</time></trkpt><trkpt lat="42.6848468" lon="11.9129681"><ele>478.0</ele><time>2026-04-26T12:05:30.855Z</time></trkpt><trkpt lat="42.6847986" lon="11.9126917"><ele>479.6666666666667</ele><time>2026-04-26T12:05:31.855Z</time></trkpt><trkpt lat="42.6847554" lon="11.9124232"><ele>481.33333333333337</ele><time>2026-04-26T12:05:32.854Z</time></trkpt><trkpt lat="42.6847042" lon="11.9121501"><ele>483.0</ele><time>2026-04-26T12:05:33.855Z</time></trkpt><trkpt lat="42.6846663" lon="11.9118777"><ele>484.0</ele><time>2026-04-26T12:05:34.854Z</time></trkpt><trkpt lat="42.6846411" lon="11.9116042"><ele>485.0</ele><time>2026-04-26T12:05:35.855Z</time></trkpt><trkpt lat="42.6846309" lon="11.9113329"><ele>486.0</ele><time>2026-04-26T12:05:36.855Z</time></trkpt><trkpt lat="42.6846257" lon="11.9110682"><ele>486.33333333333337</ele><time>2026-04-26T12:05:37.855Z</time></trkpt><trkpt lat="42.6846257" lon="11.9108007"><ele>486.6666666666667</ele><time>2026-04-26T12:05:38.855Z</time></trkpt><trkpt lat="42.6846143" lon="11.9105343"><ele>487.0</ele><time>2026-04-26T12:05:39.855Z</time></trkpt><trkpt lat="42.684575" lon="11.9102698"><ele>485.6666666666667</ele><time>2026-04-26T12:05:40.855Z</time></trkpt><trkpt lat="42.6845197" lon="11.910011"><ele>484.33333333333337</ele><time>2026-04-26T12:05:41.854Z</time></trkpt><trkpt lat="42.6844562" lon="11.9097559"><ele>483.0</ele><time>2026-04-26T12:05:42.855Z</time></trkpt><trkpt lat="42.6843839" lon="11.9095048"><ele>480.33333333333337</ele><time>2026-04-26T12:05:43.855Z</time></trkpt><trkpt lat="42.6843064" lon="11.9092641"><ele>477.6666666666667</ele><time>2026-04-26T12:05:44.855Z</time></trkpt><trkpt lat="42.6842287" lon="11.9090275"><ele>475.0</ele><time>2026-04-26T12:05:45.855Z</time></trkpt><trkpt lat="42.6841556" lon="11.9087991"><ele>475.0</ele><time>2026-04-26T12:05:46.854Z</time></trkpt><trkpt lat="42.6841032" lon="11.9085847"><ele>475.0</ele><time>2026-04-26T12:05:47.855Z</time></trkpt><trkpt lat="42.6840717" lon="11.9083648"><ele>475.0</ele><time>2026-04-26T12:05:48.855Z</time></trkpt><trkpt lat="42.6840806" lon="11.9081403"><ele>477.6666666666667</ele><time>2026-04-26T12:05:49.855Z</time></trkpt><trkpt lat="42.6841205" lon="11.9079236"><ele>480.33333333333337</ele><time>2026-04-26T12:05:50.855Z</time></trkpt><trkpt lat="42.6841912" lon="11.9077102"><ele>483.0</ele><time>2026-04-26T12:05:51.855Z</time></trkpt><trkpt lat="42.6842901" lon="11.9075217"><ele>483.66666666666663</ele><time>2026-04-26T12:05:52.855Z</time></trkpt><trkpt lat="42.6844113" lon="11.907358"><ele>484.3333333333333</ele><time>2026-04-26T12:05:53.855Z</time></trkpt><trkpt lat="42.6845495" lon="11.9072195"><ele>485.0</ele><time>2026-04-26T12:05:54.855Z</time></trkpt><trkpt lat="42.6846925" lon="11.9071097"><ele>487.25</ele><time>2026-04-26T12:05:55.855Z</time></trkpt><trkpt lat="42.6848217" lon="11.907013"><ele>489.5</ele><time>2026-04-26T12:05:56.855Z</time></trkpt><trkpt lat="42.684942" lon="11.9069211"><ele>491.75</ele><time>2026-04-26T12:05:57.855Z</time></trkpt><trkpt lat="42.6850528" lon="11.9068369"><ele>494.0</ele><time>2026-04-26T12:05:58.854Z</time></trkpt><trkpt lat="42.6851515" lon="11.9067667"><ele>493.79999999999995</ele><time>2026-04-26T12:05:59.855Z</time></trkpt><trkpt lat="42.6852481" lon="11.9067"><ele>493.59999999999997</ele><time>2026-04-26T12:06:00.855Z</time></trkpt><trkpt lat="42.6853395" lon="11.9066355"><ele>493.4</ele><time>2026-04-26T12:06:01.855Z</time></trkpt><trkpt lat="42.6854268" lon="11.9065789"><ele>493.2</ele><time>2026-04-26T12:06:02.855Z</time></trkpt><trkpt lat="42.6855146" lon="11.9065203"><ele>493.0</ele><time>2026-04-26T12:06:03.855Z</time></trkpt><trkpt lat="42.6855933" lon="11.906463"><ele>493.4</ele><time>2026-04-26T12:06:04.855Z</time></trkpt><trkpt lat="42.6856658" lon="11.9064119"><ele>493.79999999999995</ele><time>2026-04-26T12:06:05.855Z</time></trkpt><trkpt lat="42.6857365" lon="11.9063616"><ele>494.2</ele><time>2026-04-26T12:06:06.854Z</time></trkpt><trkpt lat="42.6858502" lon="11.9063019"><ele>494.6</ele><time>2026-04-26T12:06:08.855Z</time></trkpt><trkpt lat="42.6859425" lon="11.9062527"><ele>495.0</ele><time>2026-04-26T12:06:10.855Z</time></trkpt><trkpt lat="42.6860019" lon="11.906208"><ele>495.0</ele><time>2026-04-26T12:06:12.855Z</time></trkpt><trkpt lat="42.6860786" lon="11.9061543"><ele>495.0</ele><time>2026-04-26T12:06:15.855Z</time></trkpt><trkpt lat="42.6861366" lon="11.906094"><ele>495.0</ele><time>2026-04-26T12:06:37.855Z</time></trkpt><trkpt lat="42.6862058" lon="11.9060436"><ele>495.0</ele><time>2026-04-26T12:06:40.855Z</time></trkpt><trkpt lat="42.6862818" lon="11.9060036"><ele>495.0</ele><time>2026-04-26T12:06:42.854Z</time></trkpt><trkpt lat="42.6863391" lon="11.9059553"><ele>495.0</ele><time>2026-04-26T12:06:43.855Z</time></trkpt><trkpt lat="42.6864073" lon="11.9059023"><ele>494.8</ele><time>2026-04-26T12:06:44.854Z</time></trkpt><trkpt lat="42.6864954" lon="11.9058413"><ele>494.6</ele><time>2026-04-26T12:06:45.855Z</time></trkpt><trkpt lat="42.6865783" lon="11.9057692"><ele>494.4</ele><time>2026-04-26T12:06:46.854Z</time></trkpt><trkpt lat="42.6866731" lon="11.9057007"><ele>494.2</ele><time>2026-04-26T12:06:47.854Z</time></trkpt><trkpt lat="42.6867839" lon="11.9056196"><ele>494.0</ele><time>2026-04-26T12:06:48.855Z</time></trkpt><trkpt lat="42.6869017" lon="11.9055409"><ele>493.25</ele><time>2026-04-26T12:06:49.854Z</time></trkpt><trkpt lat="42.6870279" lon="11.9054544"><ele>492.5</ele><time>2026-04-26T12:06:50.855Z</time></trkpt><trkpt lat="42.6871595" lon="11.9053565"><ele>491.75</ele><time>2026-04-26T12:06:51.855Z</time></trkpt><trkpt lat="42.6873014" lon="11.9052614"><ele>491.0</ele><time>2026-04-26T12:06:52.855Z</time></trkpt><trkpt lat="42.6874391" lon="11.9051572"><ele>489.66666666666663</ele><time>2026-04-26T12:06:53.855Z</time></trkpt><trkpt lat="42.6875881" lon="11.9050464"><ele>488.33333333333337</ele><time>2026-04-26T12:06:54.855Z</time></trkpt><trkpt lat="42.687742" lon="11.9049357"><ele>487.0</ele><time>2026-04-26T12:06:55.855Z</time></trkpt><trkpt lat="42.6879044" lon="11.9048211"><ele>487.0</ele><time>2026-04-26T12:06:56.855Z</time></trkpt><trkpt lat="42.6880703" lon="11.9047081"><ele>487.0</ele><time>2026-04-26T12:06:57.855Z</time></trkpt><trkpt lat="42.688235" lon="11.9045912"><ele>487.0</ele><time>2026-04-26T12:06:58.855Z</time></trkpt><trkpt lat="42.6883979" lon="11.9044745"><ele>487.0</ele><time>2026-04-26T12:06:59.854Z</time></trkpt><trkpt lat="42.6885558" lon="11.9043619"><ele>487.0</ele><time>2026-04-26T12:07:00.855Z</time></trkpt><trkpt lat="42.6887111" lon="11.9042553"><ele>487.0</ele><time>2026-04-26T12:07:01.855Z</time></trkpt><trkpt lat="42.6888696" lon="11.9041631"><ele>485.0</ele><time>2026-04-26T12:07:02.854Z</time></trkpt><trkpt lat="42.6890372" lon="11.9041005"><ele>483.0</ele><time>2026-04-26T12:07:03.855Z</time></trkpt><trkpt lat="42.6892141" lon="11.9040772"><ele>481.0</ele><time>2026-04-26T12:07:04.855Z</time></trkpt><trkpt lat="42.6893935" lon="11.9040849"><ele>479.6666666666667</ele><time>2026-04-26T12:07:05.855Z</time></trkpt><trkpt lat="42.6895763" lon="11.904098"><ele>478.33333333333337</ele><time>2026-04-26T12:07:06.854Z</time></trkpt><trkpt lat="42.6897572" lon="11.9040991"><ele>477.0</ele><time>2026-04-26T12:07:07.855Z</time></trkpt><trkpt lat="42.6899435" lon="11.9040717"><ele>477.0</ele><time>2026-04-26T12:07:08.855Z</time></trkpt><trkpt lat="42.6901274" lon="11.9039929"><ele>477.0</ele><time>2026-04-26T12:07:09.855Z</time></trkpt><trkpt lat="42.6903144" lon="11.9038931"><ele>477.0</ele><time>2026-04-26T12:07:10.855Z</time></trkpt><trkpt lat="42.6905025" lon="11.903793"><ele>475.0</ele><time>2026-04-26T12:07:11.855Z</time></trkpt><trkpt lat="42.6906941" lon="11.9036949"><ele>473.0</ele><time>2026-04-26T12:07:12.854Z</time></trkpt><trkpt lat="42.6908873" lon="11.9035917"><ele>471.0</ele><time>2026-04-26T12:07:13.855Z</time></trkpt><trkpt lat="42.691079" lon="11.9034854"><ele>471.33333333333337</ele><time>2026-04-26T12:07:14.854Z</time></trkpt><trkpt lat="42.6912774" lon="11.9034067"><ele>471.6666666666667</ele><time>2026-04-26T12:07:15.855Z</time></trkpt><trkpt lat="42.6914847" lon="11.9033509"><ele>472.0</ele><time>2026-04-26T12:07:16.854Z</time></trkpt><trkpt lat="42.6916937" lon="11.90331"><ele>472.0</ele><time>2026-04-26T12:07:17.855Z</time></trkpt><trkpt lat="42.6919136" lon="11.9032669"><ele>472.0</ele><time>2026-04-26T12:07:18.855Z</time></trkpt><trkpt lat="42.6921332" lon="11.9032299"><ele>472.0</ele><time>2026-04-26T12:07:19.855Z</time></trkpt><trkpt lat="42.6923508" lon="11.9031925"><ele>470.0</ele><time>2026-04-26T12:07:20.855Z</time></trkpt><trkpt lat="42.6925737" lon="11.903151"><ele>468.0</ele><time>2026-04-26T12:07:21.855Z</time></trkpt><trkpt lat="42.6928003" lon="11.9031063"><ele>467.5</ele><time>2026-04-26T12:07:22.855Z</time></trkpt><trkpt lat="42.6930267" lon="11.9030645"><ele>467.0</ele><time>2026-04-26T12:07:23.854Z</time></trkpt><trkpt lat="42.6932569" lon="11.9030208"><ele>467.0</ele><time>2026-04-26T12:07:24.855Z</time></trkpt><trkpt lat="42.6934894" lon="11.9029766"><ele>467.0</ele><time>2026-04-26T12:07:25.855Z</time></trkpt><trkpt lat="42.6937255" lon="11.9029308"><ele>466.5</ele><time>2026-04-26T12:07:26.854Z</time></trkpt><trkpt lat="42.6939578" lon="11.9028851"><ele>466.0</ele><time>2026-04-26T12:07:27.855Z</time></trkpt><trkpt lat="42.6941946" lon="11.9028394"><ele>465.0</ele><time>2026-04-26T12:07:28.855Z</time></trkpt><trkpt lat="42.6944305" lon="11.9027907"><ele>464.0</ele><time>2026-04-26T12:07:29.854Z</time></trkpt><trkpt lat="42.6946654" lon="11.9027468"><ele>464.0</ele><time>2026-04-26T12:07:30.854Z</time></trkpt><trkpt lat="42.6949025" lon="11.9027066"><ele>464.0</ele><time>2026-04-26T12:07:31.854Z</time></trkpt><trkpt lat="42.6951354" lon="11.9026753"><ele>464.0</ele><time>2026-04-26T12:07:32.854Z</time></trkpt><trkpt lat="42.6953711" lon="11.9026514"><ele>464.0</ele><time>2026-04-26T12:07:33.855Z</time></trkpt><trkpt lat="42.6956019" lon="11.9026426"><ele>464.0</ele><time>2026-04-26T12:07:34.855Z</time></trkpt><trkpt lat="42.6958385" lon="11.9026399"><ele>464.0</ele><time>2026-04-26T12:07:35.855Z</time></trkpt><trkpt lat="42.696068" lon="11.9026411"><ele>463.5</ele><time>2026-04-26T12:07:36.855Z</time></trkpt><trkpt lat="42.6962943" lon="11.9026342"><ele>463.0</ele><time>2026-04-26T12:07:37.855Z</time></trkpt><trkpt lat="42.6965223" lon="11.9026229"><ele>463.0</ele><time>2026-04-26T12:07:38.855Z</time></trkpt><trkpt lat="42.6967493" lon="11.902584"><ele>463.0</ele><time>2026-04-26T12:07:39.855Z</time></trkpt><trkpt lat="42.6969751" lon="11.9025144"><ele>461.5</ele><time>2026-04-26T12:07:40.855Z</time></trkpt><trkpt lat="42.6971923" lon="11.9024259"><ele>460.0</ele><time>2026-04-26T12:07:41.854Z</time></trkpt><trkpt lat="42.6974088" lon="11.9023241"><ele>460.0</ele><time>2026-04-26T12:07:42.854Z</time></trkpt><trkpt lat="42.6976255" lon="11.9022209"><ele>460.0</ele><time>2026-04-26T12:07:43.854Z</time></trkpt><trkpt lat="42.6978455" lon="11.9021202"><ele>462.0</ele><time>2026-04-26T12:07:44.855Z</time></trkpt><trkpt lat="42.6980696" lon="11.9020221"><ele>464.0</ele><time>2026-04-26T12:07:45.855Z</time></trkpt><trkpt lat="42.6982909" lon="11.9019297"><ele>464.0</ele><time>2026-04-26T12:07:46.855Z</time></trkpt><trkpt lat="42.698517" lon="11.9018553"><ele>464.0</ele><time>2026-04-26T12:07:47.855Z</time></trkpt><trkpt lat="42.6987458" lon="11.9017925"><ele>463.5</ele><time>2026-04-26T12:07:48.855Z</time></trkpt><trkpt lat="42.6989756" lon="11.9017488"><ele>463.0</ele><time>2026-04-26T12:07:49.854Z</time></trkpt><trkpt lat="42.6992095" lon="11.9017091"><ele>460.0</ele><time>2026-04-26T12:07:50.855Z</time></trkpt><trkpt lat="42.6994369" lon="11.9016489"><ele>457.0</ele><time>2026-04-26T12:07:51.854Z</time></trkpt><trkpt lat="42.6996621" lon="11.9015751"><ele>457.0</ele><time>2026-04-26T12:07:52.855Z</time></trkpt><trkpt lat="42.6998875" lon="11.9014853"><ele>457.0</ele><time>2026-04-26T12:07:53.855Z</time></trkpt><trkpt lat="42.7001154" lon="11.9014037"><ele>456.5</ele><time>2026-04-26T12:07:54.854Z</time></trkpt><trkpt lat="42.7003434" lon="11.9013232"><ele>456.0</ele><time>2026-04-26T12:07:55.854Z</time></trkpt><trkpt lat="42.7005801" lon="11.9012587"><ele>456.0</ele><time>2026-04-26T12:07:56.855Z</time></trkpt><trkpt lat="42.7008106" lon="11.9012005"><ele>456.0</ele><time>2026-04-26T12:07:57.855Z</time></trkpt><trkpt lat="42.7010461" lon="11.9011465"><ele>456.0</ele><time>2026-04-26T12:07:58.854Z</time></trkpt><trkpt lat="42.7012816" lon="11.9011028"><ele>456.0</ele><time>2026-04-26T12:07:59.855Z</time></trkpt><trkpt lat="42.70152" lon="11.9010711"><ele>456.0</ele><time>2026-04-26T12:08:00.854Z</time></trkpt><trkpt lat="42.7017616" lon="11.9010528"><ele>456.0</ele><time>2026-04-26T12:08:01.855Z</time></trkpt><trkpt lat="42.7020035" lon="11.9010517"><ele>455.5</ele><time>2026-04-26T12:08:02.855Z</time></trkpt><trkpt lat="42.7022435" lon="11.9010609"><ele>455.0</ele><time>2026-04-26T12:08:03.855Z</time></trkpt><trkpt lat="42.7024838" lon="11.9010638"><ele>455.0</ele><time>2026-04-26T12:08:04.855Z</time></trkpt><trkpt lat="42.7027238" lon="11.9010586"><ele>455.0</ele><time>2026-04-26T12:08:05.855Z</time></trkpt><trkpt lat="42.7029637" lon="11.9010539"><ele>455.5</ele><time>2026-04-26T12:08:06.854Z</time></trkpt><trkpt lat="42.7032015" lon="11.9010405"><ele>456.0</ele><time>2026-04-26T12:08:07.855Z</time></trkpt><trkpt lat="42.7034422" lon="11.9010088"><ele>455.5</ele><time>2026-04-26T12:08:08.855Z</time></trkpt><trkpt lat="42.7036737" lon="11.900957"><ele>455.0</ele><time>2026-04-26T12:08:09.855Z</time></trkpt><trkpt lat="42.7039059" lon="11.9008828"><ele>454.5</ele><time>2026-04-26T12:08:10.854Z</time></trkpt><trkpt lat="42.7041417" lon="11.900788"><ele>454.0</ele><time>2026-04-26T12:08:11.855Z</time></trkpt><trkpt lat="42.7043743" lon="11.9006914"><ele>452.5</ele><time>2026-04-26T12:08:12.855Z</time></trkpt><trkpt lat="42.7046087" lon="11.9005975"><ele>451.0</ele><time>2026-04-26T12:08:13.855Z</time></trkpt><trkpt lat="42.7048423" lon="11.9005118"><ele>451.0</ele><time>2026-04-26T12:08:14.854Z</time></trkpt><trkpt lat="42.7050774" lon="11.9004421"><ele>451.0</ele><time>2026-04-26T12:08:15.854Z</time></trkpt><trkpt lat="42.7053186" lon="11.9003887"><ele>450.5</ele><time>2026-04-26T12:08:16.855Z</time></trkpt><trkpt lat="42.7055571" lon="11.900341"><ele>450.0</ele><time>2026-04-26T12:08:17.854Z</time></trkpt><trkpt lat="42.7057975" lon="11.9002926"><ele>450.0</ele><time>2026-04-26T12:08:18.855Z</time></trkpt><trkpt lat="42.7060375" lon="11.9002395"><ele>450.0</ele><time>2026-04-26T12:08:19.855Z</time></trkpt><trkpt lat="42.7062752" lon="11.9001884"><ele>449.5</ele><time>2026-04-26T12:08:20.855Z</time></trkpt><trkpt lat="42.7065136" lon="11.9001369"><ele>449.0</ele><time>2026-04-26T12:08:21.855Z</time></trkpt><trkpt lat="42.7067473" lon="11.9000811"><ele>449.0</ele><time>2026-04-26T12:08:22.855Z</time></trkpt><trkpt lat="42.706985" lon="11.9000225"><ele>449.0</ele><time>2026-04-26T12:08:23.855Z</time></trkpt><trkpt lat="42.7072175" lon="11.8999517"><ele>449.0</ele><time>2026-04-26T12:08:24.854Z</time></trkpt><trkpt lat="42.7074476" lon="11.8998635"><ele>449.0</ele><time>2026-04-26T12:08:25.854Z</time></trkpt><trkpt lat="42.7076771" lon="11.8997505"><ele>448.5</ele><time>2026-04-26T12:08:26.854Z</time></trkpt><trkpt lat="42.7079011" lon="11.8996298"><ele>448.0</ele><time>2026-04-26T12:08:27.855Z</time></trkpt><trkpt lat="42.7081221" lon="11.8995021"><ele>448.0</ele><time>2026-04-26T12:08:28.855Z</time></trkpt><trkpt lat="42.7083463" lon="11.8993735"><ele>448.0</ele><time>2026-04-26T12:08:29.854Z</time></trkpt><trkpt lat="42.708574" lon="11.8992423"><ele>448.5</ele><time>2026-04-26T12:08:30.854Z</time></trkpt><trkpt lat="42.7088006" lon="11.8991096"><ele>449.0</ele><time>2026-04-26T12:08:31.855Z</time></trkpt><trkpt lat="42.7090276" lon="11.8989786"><ele>449.0</ele><time>2026-04-26T12:08:32.855Z</time></trkpt><trkpt lat="42.7092588" lon="11.8988481"><ele>449.0</ele><time>2026-04-26T12:08:33.854Z</time></trkpt><trkpt lat="42.7094876" lon="11.898713"><ele>447.5</ele><time>2026-04-26T12:08:34.855Z</time></trkpt><trkpt lat="42.7097167" lon="11.898575"><ele>446.0</ele><time>2026-04-26T12:08:35.854Z</time></trkpt><trkpt lat="42.7099487" lon="11.898444"><ele>446.5</ele><time>2026-04-26T12:08:36.854Z</time></trkpt><trkpt lat="42.7101852" lon="11.8983217"><ele>447.0</ele><time>2026-04-26T12:08:37.855Z</time></trkpt><trkpt lat="42.7104224" lon="11.8982067"><ele>446.0</ele><time>2026-04-26T12:08:38.855Z</time></trkpt><trkpt lat="42.7106605" lon="11.8980981"><ele>445.0</ele><time>2026-04-26T12:08:39.855Z</time></trkpt><trkpt lat="42.7109015" lon="11.897987"><ele>445.0</ele><time>2026-04-26T12:08:40.854Z</time></trkpt><trkpt lat="42.7111387" lon="11.8978755"><ele>445.0</ele><time>2026-04-26T12:08:41.855Z</time></trkpt><trkpt lat="42.7113733" lon="11.8977589"><ele>445.0</ele><time>2026-04-26T12:08:42.855Z</time></trkpt><trkpt lat="42.7116062" lon="11.8976385"><ele>445.0</ele><time>2026-04-26T12:08:43.855Z</time></trkpt><trkpt lat="42.711837" lon="11.8975198"><ele>445.5</ele><time>2026-04-26T12:08:44.854Z</time></trkpt><trkpt lat="42.7120659" lon="11.8973974"><ele>446.0</ele><time>2026-04-26T12:08:45.854Z</time></trkpt><trkpt lat="42.7122967" lon="11.8972778"><ele>446.0</ele><time>2026-04-26T12:08:46.855Z</time></trkpt><trkpt lat="42.7125248" lon="11.8971507"><ele>446.0</ele><time>2026-04-26T12:08:47.855Z</time></trkpt><trkpt lat="42.7127512" lon="11.8970243"><ele>447.5</ele><time>2026-04-26T12:08:48.855Z</time></trkpt><trkpt lat="42.7129757" lon="11.8968963"><ele>449.0</ele><time>2026-04-26T12:08:49.855Z</time></trkpt><trkpt lat="42.713203" lon="11.8967684"><ele>448.5</ele><time>2026-04-26T12:08:50.855Z</time></trkpt><trkpt lat="42.7134306" lon="11.8966383"><ele>448.0</ele><time>2026-04-26T12:08:51.855Z</time></trkpt><trkpt lat="42.7136581" lon="11.8965099"><ele>448.0</ele><time>2026-04-26T12:08:52.854Z</time></trkpt><trkpt lat="42.7138874" lon="11.8963816"><ele>448.0</ele><time>2026-04-26T12:08:53.855Z</time></trkpt><trkpt lat="42.7141154" lon="11.8962498"><ele>448.0</ele><time>2026-04-26T12:08:54.855Z</time></trkpt><trkpt lat="42.714344" lon="11.8961162"><ele>448.0</ele><time>2026-04-26T12:08:55.855Z</time></trkpt><trkpt lat="42.7145718" lon="11.8959831"><ele>447.0</ele><time>2026-04-26T12:08:56.855Z</time></trkpt><trkpt lat="42.7147964" lon="11.8958536"><ele>446.0</ele><time>2026-04-26T12:08:57.855Z</time></trkpt><trkpt lat="42.7150255" lon="11.8957218"><ele>446.0</ele><time>2026-04-26T12:08:58.855Z</time></trkpt><trkpt lat="42.7152519" lon="11.8955951"><ele>446.0</ele><time>2026-04-26T12:08:59.854Z</time></trkpt><trkpt lat="42.7154866" lon="11.8954801"><ele>446.0</ele><time>2026-04-26T12:09:00.854Z</time></trkpt><trkpt lat="42.7157251" lon="11.8953783"><ele>446.0</ele><time>2026-04-26T12:09:01.855Z</time></trkpt><trkpt lat="42.7159641" lon="11.8952842"><ele>446.0</ele><time>2026-04-26T12:09:02.854Z</time></trkpt><trkpt lat="42.7162032" lon="11.8951901"><ele>446.0</ele><time>2026-04-26T12:09:03.855Z</time></trkpt><trkpt lat="42.7164433" lon="11.8950947"><ele>445.5</ele><time>2026-04-26T12:09:04.855Z</time></trkpt><trkpt lat="42.7166823" lon="11.8949959"><ele>445.0</ele><time>2026-04-26T12:09:05.855Z</time></trkpt><trkpt lat="42.7169217" lon="11.8948947"><ele>445.0</ele><time>2026-04-26T12:09:06.855Z</time></trkpt><trkpt lat="42.7171615" lon="11.8947934"><ele>445.0</ele><time>2026-04-26T12:09:07.855Z</time></trkpt><trkpt lat="42.7173977" lon="11.8946941"><ele>445.0</ele><time>2026-04-26T12:09:08.854Z</time></trkpt><trkpt lat="42.7176363" lon="11.8945975"><ele>445.0</ele><time>2026-04-26T12:09:09.855Z</time></trkpt><trkpt lat="42.7178705" lon="11.8945036"><ele>445.0</ele><time>2026-04-26T12:09:10.855Z</time></trkpt><trkpt lat="42.7181067" lon="11.8944079"><ele>445.0</ele><time>2026-04-26T12:09:11.855Z</time></trkpt><trkpt lat="42.7183434" lon="11.8943087"><ele>444.5</ele><time>2026-04-26T12:09:12.855Z</time></trkpt><trkpt lat="42.7185791" lon="11.8942115"><ele>444.0</ele><time>2026-04-26T12:09:13.855Z</time></trkpt><trkpt lat="42.7188128" lon="11.8941086"><ele>444.0</ele><time>2026-04-26T12:09:14.855Z</time></trkpt><trkpt lat="42.7190423" lon="11.8939851"><ele>444.0</ele><time>2026-04-26T12:09:15.855Z</time></trkpt><trkpt lat="42.7192634" lon="11.8938344"><ele>444.5</ele><time>2026-04-26T12:09:16.855Z</time></trkpt><trkpt lat="42.7194752" lon="11.893674"><ele>445.0</ele><time>2026-04-26T12:09:17.854Z</time></trkpt><trkpt lat="42.7196892" lon="11.89351"><ele>445.0</ele><time>2026-04-26T12:09:18.855Z</time></trkpt><trkpt lat="42.7199027" lon="11.8933503"><ele>445.0</ele><time>2026-04-26T12:09:19.855Z</time></trkpt><trkpt lat="42.7201155" lon="11.8931859"><ele>447.0</ele><time>2026-04-26T12:09:20.855Z</time></trkpt><trkpt lat="42.7203282" lon="11.8930275"><ele>449.0</ele><time>2026-04-26T12:09:21.855Z</time></trkpt><trkpt lat="42.7205376" lon="11.8928842"><ele>449.0</ele><time>2026-04-26T12:09:22.855Z</time></trkpt><trkpt lat="42.7207553" lon="11.8927535"><ele>449.0</ele><time>2026-04-26T12:09:23.855Z</time></trkpt><trkpt lat="42.7209795" lon="11.892631"><ele>447.0</ele><time>2026-04-26T12:09:24.855Z</time></trkpt><trkpt lat="42.7212047" lon="11.8925164"><ele>445.0</ele><time>2026-04-26T12:09:25.855Z</time></trkpt><trkpt lat="42.7214313" lon="11.8923974"><ele>445.0</ele><time>2026-04-26T12:09:26.855Z</time></trkpt><trkpt lat="42.7216566" lon="11.8922772"><ele>445.0</ele><time>2026-04-26T12:09:27.855Z</time></trkpt><trkpt lat="42.7218817" lon="11.8921727"><ele>445.0</ele><time>2026-04-26T12:09:28.855Z</time></trkpt><trkpt lat="42.7221004" lon="11.8920708"><ele>445.0</ele><time>2026-04-26T12:09:29.854Z</time></trkpt><trkpt lat="42.7223252" lon="11.8919643"><ele>445.0</ele><time>2026-04-26T12:09:30.855Z</time></trkpt><trkpt lat="42.7225529" lon="11.8918427"><ele>445.0</ele><time>2026-04-26T12:09:31.855Z</time></trkpt><trkpt lat="42.7227768" lon="11.8917278"><ele>443.0</ele><time>2026-04-26T12:09:32.855Z</time></trkpt><trkpt lat="42.723" lon="11.891611"><ele>441.0</ele><time>2026-04-26T12:09:33.855Z</time></trkpt><trkpt lat="42.7232232" lon="11.8914975"><ele>441.0</ele><time>2026-04-26T12:09:34.854Z</time></trkpt><trkpt lat="42.7234443" lon="11.8913787"><ele>441.0</ele><time>2026-04-26T12:09:35.855Z</time></trkpt><trkpt lat="42.7236642" lon="11.8912508"><ele>441.5</ele><time>2026-04-26T12:09:36.855Z</time></trkpt><trkpt lat="42.7238848" lon="11.8911185"><ele>442.0</ele><time>2026-04-26T12:09:37.855Z</time></trkpt><trkpt lat="42.7241062" lon="11.8909765"><ele>442.0</ele><time>2026-04-26T12:09:38.855Z</time></trkpt><trkpt lat="42.7243241" lon="11.8908388"><ele>442.0</ele><time>2026-04-26T12:09:39.855Z</time></trkpt><trkpt lat="42.7245332" lon="11.890693"><ele>442.0</ele><time>2026-04-26T12:09:40.855Z</time></trkpt><trkpt lat="42.7247376" lon="11.8905314"><ele>442.0</ele><time>2026-04-26T12:09:41.855Z</time></trkpt><trkpt lat="42.7249299" lon="11.8903416"><ele>442.0</ele><time>2026-04-26T12:09:42.855Z</time></trkpt><trkpt lat="42.7251162" lon="11.8901483"><ele>442.0</ele><time>2026-04-26T12:09:43.855Z</time></trkpt><trkpt lat="42.7252982" lon="11.8899491"><ele>442.0</ele><time>2026-04-26T12:09:44.855Z</time></trkpt><trkpt lat="42.7254744" lon="11.8897421"><ele>442.0</ele><time>2026-04-26T12:09:45.855Z</time></trkpt><trkpt lat="42.7256386" lon="11.889519"><ele>442.0</ele><time>2026-04-26T12:09:46.855Z</time></trkpt><trkpt lat="42.725799" lon="11.8892923"><ele>442.0</ele><time>2026-04-26T12:09:47.855Z</time></trkpt><trkpt lat="42.7259509" lon="11.889063"><ele>442.0</ele><time>2026-04-26T12:09:48.855Z</time></trkpt><trkpt lat="42.7261044" lon="11.8888335"><ele>442.0</ele><time>2026-04-26T12:09:49.854Z</time></trkpt><trkpt lat="42.7262645" lon="11.8886061"><ele>441.5</ele><time>2026-04-26T12:09:50.854Z</time></trkpt><trkpt lat="42.7264246" lon="11.8883807"><ele>441.0</ele><time>2026-04-26T12:09:51.855Z</time></trkpt><trkpt lat="42.726591" lon="11.8881596"><ele>441.0</ele><time>2026-04-26T12:09:52.855Z</time></trkpt><trkpt lat="42.7267635" lon="11.8879487"><ele>441.0</ele><time>2026-04-26T12:09:53.855Z</time></trkpt><trkpt lat="42.7269401" lon="11.887732"><ele>439.0</ele><time>2026-04-26T12:09:54.855Z</time></trkpt><trkpt lat="42.7271196" lon="11.8875136"><ele>437.0</ele><time>2026-04-26T12:09:55.854Z</time></trkpt><trkpt lat="42.7272993" lon="11.8872958"><ele>437.0</ele><time>2026-04-26T12:09:56.855Z</time></trkpt><trkpt lat="42.7274795" lon="11.8870805"><ele>437.0</ele><time>2026-04-26T12:09:57.854Z</time></trkpt><trkpt lat="42.7276583" lon="11.8868656"><ele>435.5</ele><time>2026-04-26T12:09:58.855Z</time></trkpt><trkpt lat="42.7278384" lon="11.8866506"><ele>434.0</ele><time>2026-04-26T12:09:59.855Z</time></trkpt><trkpt lat="42.728023" lon="11.8864361"><ele>434.0</ele><time>2026-04-26T12:10:00.854Z</time></trkpt><trkpt lat="42.7282048" lon="11.8862191"><ele>434.0</ele><time>2026-04-26T12:10:01.855Z</time></trkpt><trkpt lat="42.7283796" lon="11.8860029"><ele>434.0</ele><time>2026-04-26T12:10:02.855Z</time></trkpt><trkpt lat="42.7285539" lon="11.8857948"><ele>434.0</ele><time>2026-04-26T12:10:03.855Z</time></trkpt><trkpt lat="42.7287339" lon="11.8855802"><ele>434.0</ele><time>2026-04-26T12:10:04.855Z</time></trkpt><trkpt lat="42.7289094" lon="11.8853623"><ele>434.0</ele><time>2026-04-26T12:10:05.855Z</time></trkpt><trkpt lat="42.7290886" lon="11.8851623"><ele>434.5</ele><time>2026-04-26T12:10:06.855Z</time></trkpt><trkpt lat="42.7292805" lon="11.8849921"><ele>435.0</ele><time>2026-04-26T12:10:07.855Z</time></trkpt><trkpt lat="42.7294805" lon="11.8848448"><ele>435.0</ele><time>2026-04-26T12:10:08.855Z</time></trkpt><trkpt lat="42.7297098" lon="11.8847587"><ele>435.0</ele><time>2026-04-26T12:10:09.855Z</time></trkpt><trkpt lat="42.7299461" lon="11.8847092"><ele>435.0</ele><time>2026-04-26T12:10:10.855Z</time></trkpt><trkpt lat="42.7301883" lon="11.8846936"><ele>435.0</ele><time>2026-04-26T12:10:11.855Z</time></trkpt><trkpt lat="42.7304187" lon="11.8846651"><ele>434.0</ele><time>2026-04-26T12:10:12.855Z</time></trkpt><trkpt lat="42.7306558" lon="11.8846082"><ele>433.0</ele><time>2026-04-26T12:10:13.855Z</time></trkpt><trkpt lat="42.7308874" lon="11.8845417"><ele>432.0</ele><time>2026-04-26T12:10:14.855Z</time></trkpt><trkpt lat="42.7311184" lon="11.8844698"><ele>431.0</ele><time>2026-04-26T12:10:15.855Z</time></trkpt><trkpt lat="42.7313582" lon="11.8844168"><ele>431.0</ele><time>2026-04-26T12:10:16.855Z</time></trkpt><trkpt lat="42.7315954" lon="11.8843917"><ele>431.0</ele><time>2026-04-26T12:10:17.855Z</time></trkpt><trkpt lat="42.7318366" lon="11.8843836"><ele>430.5</ele><time>2026-04-26T12:10:18.854Z</time></trkpt><trkpt lat="42.7320716" lon="11.8843694"><ele>430.0</ele><time>2026-04-26T12:10:19.855Z</time></trkpt><trkpt lat="42.7322999" lon="11.8843399"><ele>430.0</ele><time>2026-04-26T12:10:20.854Z</time></trkpt><trkpt lat="42.7325297" lon="11.8843007"><ele>430.0</ele><time>2026-04-26T12:10:21.855Z</time></trkpt><trkpt lat="42.7327615" lon="11.8842598"><ele>432.0</ele><time>2026-04-26T12:10:22.855Z</time></trkpt><trkpt lat="42.7329946" lon="11.8842227"><ele>434.0</ele><time>2026-04-26T12:10:23.855Z</time></trkpt><trkpt lat="42.7332312" lon="11.8842028"><ele>434.0</ele><time>2026-04-26T12:10:24.855Z</time></trkpt><trkpt lat="42.7334654" lon="11.8841766"><ele>434.0</ele><time>2026-04-26T12:10:25.855Z</time></trkpt><trkpt lat="42.7337072" lon="11.8841615"><ele>433.0</ele><time>2026-04-26T12:10:26.855Z</time></trkpt><trkpt lat="42.7339505" lon="11.8841382"><ele>432.0</ele><time>2026-04-26T12:10:27.855Z</time></trkpt><trkpt lat="42.7341983" lon="11.8841082"><ele>432.0</ele><time>2026-04-26T12:10:28.854Z</time></trkpt><trkpt lat="42.7344452" lon="11.8840561"><ele>432.0</ele><time>2026-04-26T12:10:29.855Z</time></trkpt><trkpt lat="42.734693" lon="11.8839939"><ele>432.0</ele><time>2026-04-26T12:10:30.854Z</time></trkpt><trkpt lat="42.7349363" lon="11.8839158"><ele>432.0</ele><time>2026-04-26T12:10:31.855Z</time></trkpt><trkpt lat="42.7351741" lon="11.8838342"><ele>432.5</ele><time>2026-04-26T12:10:32.854Z</time></trkpt><trkpt lat="42.7354063" lon="11.8837484"><ele>433.0</ele><time>2026-04-26T12:10:33.855Z</time></trkpt><trkpt lat="42.7356431" lon="11.8836876"><ele>433.0</ele><time>2026-04-26T12:10:34.855Z</time></trkpt><trkpt lat="42.7358804" lon="11.8836615"><ele>433.0</ele><time>2026-04-26T12:10:35.854Z</time></trkpt><trkpt lat="42.736126" lon="11.8836649"><ele>431.5</ele><time>2026-04-26T12:10:36.854Z</time></trkpt><trkpt lat="42.736373" lon="11.8836781"><ele>430.0</ele><time>2026-04-26T12:10:37.855Z</time></trkpt><trkpt lat="42.7366016" lon="11.8836845"><ele>430.0</ele><time>2026-04-26T12:10:38.855Z</time></trkpt><trkpt lat="42.7368328" lon="11.8836912"><ele>430.0</ele><time>2026-04-26T12:10:39.855Z</time></trkpt><trkpt lat="42.7370799" lon="11.8836999"><ele>427.5</ele><time>2026-04-26T12:10:40.855Z</time></trkpt><trkpt lat="42.7373327" lon="11.8837129"><ele>425.0</ele><time>2026-04-26T12:10:41.855Z</time></trkpt><trkpt lat="42.7375844" lon="11.8837266"><ele>425.0</ele><time>2026-04-26T12:10:42.855Z</time></trkpt><trkpt lat="42.737826" lon="11.883714"><ele>425.0</ele><time>2026-04-26T12:10:43.855Z</time></trkpt><trkpt lat="42.7380492" lon="11.8836623"><ele>425.0</ele><time>2026-04-26T12:10:44.855Z</time></trkpt><trkpt lat="42.7382568" lon="11.883571"><ele>425.0</ele><time>2026-04-26T12:10:45.855Z</time></trkpt><trkpt lat="42.7384569" lon="11.883394"><ele>425.5</ele><time>2026-04-26T12:10:46.854Z</time></trkpt><trkpt lat="42.7386446" lon="11.8831936"><ele>426.0</ele><time>2026-04-26T12:10:47.855Z</time></trkpt><trkpt lat="42.7388286" lon="11.882979"><ele>426.0</ele><time>2026-04-26T12:10:48.855Z</time></trkpt><trkpt lat="42.7390088" lon="11.8827543"><ele>426.0</ele><time>2026-04-26T12:10:49.854Z</time></trkpt><trkpt lat="42.7391892" lon="11.8825159"><ele>421.0</ele><time>2026-04-26T12:10:50.855Z</time></trkpt><trkpt lat="42.7393668" lon="11.8822725"><ele>416.0</ele><time>2026-04-26T12:10:51.855Z</time></trkpt><trkpt lat="42.7395373" lon="11.8820204"><ele>413.0</ele><time>2026-04-26T12:10:52.855Z</time></trkpt><trkpt lat="42.7396922" lon="11.8817504"><ele>410.0</ele><time>2026-04-26T12:10:53.855Z</time></trkpt><trkpt lat="42.7398404" lon="11.8814626"><ele>410.0</ele><time>2026-04-26T12:10:54.854Z</time></trkpt><trkpt lat="42.7399846" lon="11.8811742"><ele>410.0</ele><time>2026-04-26T12:10:55.855Z</time></trkpt><trkpt lat="42.7401246" lon="11.8808805"><ele>409.0</ele><time>2026-04-26T12:10:56.854Z</time></trkpt><trkpt lat="42.7402672" lon="11.8805873"><ele>408.0</ele><time>2026-04-26T12:10:57.855Z</time></trkpt><trkpt lat="42.7404059" lon="11.8802967"><ele>408.0</ele><time>2026-04-26T12:10:58.855Z</time></trkpt><trkpt lat="42.7405426" lon="11.8800139"><ele>408.0</ele><time>2026-04-26T12:10:59.855Z</time></trkpt><trkpt lat="42.740677" lon="11.8797374"><ele>408.0</ele><time>2026-04-26T12:11:00.855Z</time></trkpt><trkpt lat="42.7408037" lon="11.8794586"><ele>408.0</ele><time>2026-04-26T12:11:01.855Z</time></trkpt><trkpt lat="42.7409126" lon="11.8791846"><ele>408.0</ele><time>2026-04-26T12:11:02.854Z</time></trkpt><trkpt lat="42.7409988" lon="11.8789096"><ele>408.0</ele><time>2026-04-26T12:11:03.855Z</time></trkpt><trkpt lat="42.7410676" lon="11.8786451"><ele>408.0</ele><time>2026-04-26T12:11:04.855Z</time></trkpt><trkpt lat="42.7411187" lon="11.8783754"><ele>408.33333333333337</ele><time>2026-04-26T12:11:05.854Z</time></trkpt><trkpt lat="42.741166" lon="11.878097"><ele>408.6666666666667</ele><time>2026-04-26T12:11:06.854Z</time></trkpt><trkpt lat="42.741209" lon="11.877817"><ele>409.0</ele><time>2026-04-26T12:11:07.854Z</time></trkpt><trkpt lat="42.7412508" lon="11.8775279"><ele>408.33333333333337</ele><time>2026-04-26T12:11:08.854Z</time></trkpt><trkpt lat="42.7412964" lon="11.8772396"><ele>407.66666666666663</ele><time>2026-04-26T12:11:09.854Z</time></trkpt><trkpt lat="42.7413449" lon="11.8769562"><ele>407.0</ele><time>2026-04-26T12:11:10.854Z</time></trkpt><trkpt lat="42.7413916" lon="11.8766856"><ele>406.0</ele><time>2026-04-26T12:11:11.855Z</time></trkpt><trkpt lat="42.741434" lon="11.8764058"><ele>405.0</ele><time>2026-04-26T12:11:12.855Z</time></trkpt><trkpt lat="42.7414767" lon="11.8761448"><ele>404.0</ele><time>2026-04-26T12:11:13.854Z</time></trkpt><trkpt lat="42.7415127" lon="11.8758859"><ele>404.0</ele><time>2026-04-26T12:11:14.855Z</time></trkpt><trkpt lat="42.7415534" lon="11.8756299"><ele>404.0</ele><time>2026-04-26T12:11:15.854Z</time></trkpt><trkpt lat="42.7415922" lon="11.875387"><ele>404.0</ele><time>2026-04-26T12:11:16.855Z</time></trkpt><trkpt lat="42.7416288" lon="11.8751538"><ele>403.3333333333333</ele><time>2026-04-26T12:11:17.855Z</time></trkpt><trkpt lat="42.7416705" lon="11.8749212"><ele>402.66666666666663</ele><time>2026-04-26T12:11:18.855Z</time></trkpt><trkpt lat="42.7417109" lon="11.8746939"><ele>402.0</ele><time>2026-04-26T12:11:19.855Z</time></trkpt><trkpt lat="42.7417434" lon="11.8744718"><ele>399.0</ele><time>2026-04-26T12:11:20.855Z</time></trkpt><trkpt lat="42.7417781" lon="11.874254"><ele>396.0</ele><time>2026-04-26T12:11:21.855Z</time></trkpt><trkpt lat="42.7418128" lon="11.8740396"><ele>393.0</ele><time>2026-04-26T12:11:22.854Z</time></trkpt><trkpt lat="42.7418482" lon="11.8738282"><ele>393.0</ele><time>2026-04-26T12:11:23.855Z</time></trkpt><trkpt lat="42.7418792" lon="11.8736203"><ele>393.0</ele><time>2026-04-26T12:11:24.855Z</time></trkpt><trkpt lat="42.7419045" lon="11.8734154"><ele>393.0</ele><time>2026-04-26T12:11:25.855Z</time></trkpt><trkpt lat="42.7419329" lon="11.8732163"><ele>394.0</ele><time>2026-04-26T12:11:26.855Z</time></trkpt><trkpt lat="42.7419657" lon="11.8730182"><ele>395.0</ele><time>2026-04-26T12:11:27.855Z</time></trkpt><trkpt lat="42.7419932" lon="11.8728163"><ele>396.0</ele><time>2026-04-26T12:11:28.855Z</time></trkpt><trkpt lat="42.7420227" lon="11.8726112"><ele>394.5</ele><time>2026-04-26T12:11:29.855Z</time></trkpt><trkpt lat="42.7420585" lon="11.8724123"><ele>393.0</ele><time>2026-04-26T12:11:30.855Z</time></trkpt><trkpt lat="42.742087" lon="11.8722129"><ele>391.5</ele><time>2026-04-26T12:11:31.855Z</time></trkpt><trkpt lat="42.7421186" lon="11.8720188"><ele>390.0</ele><time>2026-04-26T12:11:32.855Z</time></trkpt><trkpt lat="42.7421602" lon="11.8718346"><ele>389.0</ele><time>2026-04-26T12:11:33.855Z</time></trkpt><trkpt lat="42.7422093" lon="11.8716548"><ele>388.0</ele><time>2026-04-26T12:11:34.854Z</time></trkpt><trkpt lat="42.7422729" lon="11.8714858"><ele>387.0</ele><time>2026-04-26T12:11:35.854Z</time></trkpt><trkpt lat="42.7423482" lon="11.8713239"><ele>386.0</ele><time>2026-04-26T12:11:36.854Z</time></trkpt><trkpt lat="42.7424239" lon="11.8711654"><ele>386.0</ele><time>2026-04-26T12:11:37.855Z</time></trkpt><trkpt lat="42.7424894" lon="11.871009"><ele>386.0</ele><time>2026-04-26T12:11:38.855Z</time></trkpt><trkpt lat="42.7425485" lon="11.8708513"><ele>386.0</ele><time>2026-04-26T12:11:39.855Z</time></trkpt><trkpt lat="42.7425975" lon="11.8706993"><ele>386.0</ele><time>2026-04-26T12:11:40.855Z</time></trkpt><trkpt lat="42.7426314" lon="11.8705449"><ele>386.75</ele><time>2026-04-26T12:11:41.855Z</time></trkpt><trkpt lat="42.7426505" lon="11.8703832"><ele>387.5</ele><time>2026-04-26T12:11:42.855Z</time></trkpt><trkpt lat="42.7426477" lon="11.8702258"><ele>388.25</ele><time>2026-04-26T12:11:43.855Z</time></trkpt><trkpt lat="42.7426293" lon="11.8700738"><ele>389.0</ele><time>2026-04-26T12:11:44.854Z</time></trkpt><trkpt lat="42.7426065" lon="11.8699243"><ele>390.0</ele><time>2026-04-26T12:11:45.855Z</time></trkpt><trkpt lat="42.7425773" lon="11.8697749"><ele>391.0</ele><time>2026-04-26T12:11:46.855Z</time></trkpt><trkpt lat="42.7425358" lon="11.8696299"><ele>392.0</ele><time>2026-04-26T12:11:47.855Z</time></trkpt><trkpt lat="42.7424897" lon="11.8694855"><ele>393.0</ele><time>2026-04-26T12:11:48.855Z</time></trkpt><trkpt lat="42.7424306" lon="11.8693472"><ele>392.5</ele><time>2026-04-26T12:11:49.855Z</time></trkpt><trkpt lat="42.7423655" lon="11.8691974"><ele>392.0</ele><time>2026-04-26T12:11:50.855Z</time></trkpt><trkpt lat="42.7422985" lon="11.8690582"><ele>391.5</ele><time>2026-04-26T12:11:51.854Z</time></trkpt><trkpt lat="42.7422273" lon="11.8689132"><ele>391.0</ele><time>2026-04-26T12:11:52.855Z</time></trkpt><trkpt lat="42.7421618" lon="11.8687652"><ele>391.0</ele><time>2026-04-26T12:11:53.855Z</time></trkpt><trkpt lat="42.7420982" lon="11.8686111"><ele>391.0</ele><time>2026-04-26T12:11:54.855Z</time></trkpt><trkpt lat="42.7420328" lon="11.8684455"><ele>391.0</ele><time>2026-04-26T12:11:55.855Z</time></trkpt><trkpt lat="42.7419762" lon="11.8682763"><ele>391.0</ele><time>2026-04-26T12:11:56.855Z</time></trkpt><trkpt lat="42.7419346" lon="11.8681048"><ele>390.25</ele><time>2026-04-26T12:11:57.855Z</time></trkpt><trkpt lat="42.7418981" lon="11.8679283"><ele>389.5</ele><time>2026-04-26T12:11:58.855Z</time></trkpt><trkpt lat="42.7418691" lon="11.867759"><ele>388.75</ele><time>2026-04-26T12:11:59.855Z</time></trkpt><trkpt lat="42.741835" lon="11.8675788"><ele>388.0</ele><time>2026-04-26T12:12:00.855Z</time></trkpt><trkpt lat="42.7417966" lon="11.8674057"><ele>387.0</ele><time>2026-04-26T12:12:01.855Z</time></trkpt><trkpt lat="42.7417632" lon="11.8672268"><ele>386.0</ele><time>2026-04-26T12:12:02.854Z</time></trkpt><trkpt lat="42.7417277" lon="11.8670526"><ele>385.0</ele><time>2026-04-26T12:12:03.855Z</time></trkpt><trkpt lat="42.741689" lon="11.8668838"><ele>384.0</ele><time>2026-04-26T12:12:04.854Z</time></trkpt><trkpt lat="42.7416571" lon="11.8667183"><ele>383.75</ele><time>2026-04-26T12:12:05.854Z</time></trkpt><trkpt lat="42.7416186" lon="11.8665476"><ele>383.5</ele><time>2026-04-26T12:12:06.855Z</time></trkpt><trkpt lat="42.7415874" lon="11.8663695"><ele>383.25</ele><time>2026-04-26T12:12:07.855Z</time></trkpt><trkpt lat="42.7415548" lon="11.8662042"><ele>383.0</ele><time>2026-04-26T12:12:08.854Z</time></trkpt><trkpt lat="42.7415239" lon="11.8660412"><ele>383.5</ele><time>2026-04-26T12:12:09.855Z</time></trkpt><trkpt lat="42.7414934" lon="11.865882"><ele>384.0</ele><time>2026-04-26T12:12:10.855Z</time></trkpt><trkpt lat="42.7414628" lon="11.8657209"><ele>384.5</ele><time>2026-04-26T12:12:11.855Z</time></trkpt><trkpt lat="42.7414399" lon="11.8655764"><ele>385.0</ele><time>2026-04-26T12:12:12.854Z</time></trkpt><trkpt lat="42.7414161" lon="11.8654277"><ele>385.0</ele><time>2026-04-26T12:12:13.855Z</time></trkpt><trkpt lat="42.7413958" lon="11.8652824"><ele>385.0</ele><time>2026-04-26T12:12:14.854Z</time></trkpt><trkpt lat="42.7413808" lon="11.8651283"><ele>385.0</ele><time>2026-04-26T12:12:15.855Z</time></trkpt><trkpt lat="42.7413769" lon="11.8649742"><ele>385.0</ele><time>2026-04-26T12:12:16.855Z</time></trkpt><trkpt lat="42.7413821" lon="11.8648268"><ele>385.0</ele><time>2026-04-26T12:12:17.855Z</time></trkpt><trkpt lat="42.741409" lon="11.8646845"><ele>385.8</ele><time>2026-04-26T12:12:18.855Z</time></trkpt><trkpt lat="42.7414735" lon="11.8645639"><ele>386.6</ele><time>2026-04-26T12:12:19.855Z</time></trkpt><trkpt lat="42.7415743" lon="11.8645228"><ele>387.4</ele><time>2026-04-26T12:12:20.854Z</time></trkpt><trkpt lat="42.741685" lon="11.8645002"><ele>388.2</ele><time>2026-04-26T12:12:21.855Z</time></trkpt><trkpt lat="42.7417952" lon="11.864519"><ele>389.0</ele><time>2026-04-26T12:12:22.855Z</time></trkpt><trkpt lat="42.7419013" lon="11.864558"><ele>389.2</ele><time>2026-04-26T12:12:23.855Z</time></trkpt><trkpt lat="42.7420009" lon="11.8646085"><ele>389.4</ele><time>2026-04-26T12:12:24.855Z</time></trkpt><trkpt lat="42.7421" lon="11.8646552"><ele>389.6</ele><time>2026-04-26T12:12:25.855Z</time></trkpt><trkpt lat="42.7422002" lon="11.8646704"><ele>389.8</ele><time>2026-04-26T12:12:26.855Z</time></trkpt><trkpt lat="42.742301" lon="11.8646443"><ele>390.0</ele><time>2026-04-26T12:12:27.855Z</time></trkpt><trkpt lat="42.7423744" lon="11.8645436"><ele>390.0</ele><time>2026-04-26T12:12:28.855Z</time></trkpt><trkpt lat="42.7424119" lon="11.8644174"><ele>390.0</ele><time>2026-04-26T12:12:29.854Z</time></trkpt><trkpt lat="42.7424193" lon="11.8642638"><ele>390.0</ele><time>2026-04-26T12:12:30.855Z</time></trkpt><trkpt lat="42.742426" lon="11.8641147"><ele>390.0</ele><time>2026-04-26T12:12:31.855Z</time></trkpt><trkpt lat="42.7424354" lon="11.8639589"><ele>390.0</ele><time>2026-04-26T12:12:32.855Z</time></trkpt><trkpt lat="42.7424495" lon="11.8638157"><ele>391.0</ele><time>2026-04-26T12:12:33.855Z</time></trkpt><trkpt lat="42.742505" lon="11.8637069"><ele>392.0</ele><time>2026-04-26T12:12:34.855Z</time></trkpt><trkpt lat="42.7426491" lon="11.8636519"><ele>393.0</ele><time>2026-04-26T12:12:35.854Z</time></trkpt><trkpt lat="42.7427864" lon="11.8636049"><ele>394.0</ele><time>2026-04-26T12:12:36.854Z</time></trkpt><trkpt lat="42.7429225" lon="11.8635439"><ele>394.0</ele><time>2026-04-26T12:12:37.855Z</time></trkpt><trkpt lat="42.743061" lon="11.8634659"><ele>394.0</ele><time>2026-04-26T12:12:38.855Z</time></trkpt><trkpt lat="42.7432004" lon="11.8633782"><ele>394.0</ele><time>2026-04-26T12:12:39.855Z</time></trkpt><trkpt lat="42.743343" lon="11.8632933"><ele>394.0</ele><time>2026-04-26T12:12:40.855Z</time></trkpt><trkpt lat="42.7434875" lon="11.8632107"><ele>394.0</ele><time>2026-04-26T12:12:41.855Z</time></trkpt><trkpt lat="42.7436302" lon="11.8631339"><ele>394.0</ele><time>2026-04-26T12:12:42.855Z</time></trkpt><trkpt lat="42.743771" lon="11.8630841"><ele>394.0</ele><time>2026-04-26T12:12:43.855Z</time></trkpt><trkpt lat="42.7439202" lon="11.8630557"><ele>394.0</ele><time>2026-04-26T12:12:44.855Z</time></trkpt><trkpt lat="42.7440695" lon="11.863056"><ele>394.0</ele><time>2026-04-26T12:12:45.855Z</time></trkpt><trkpt lat="42.7442172" lon="11.8630647"><ele>394.0</ele><time>2026-04-26T12:12:46.855Z</time></trkpt><trkpt lat="42.7443719" lon="11.863074"><ele>392.5</ele><time>2026-04-26T12:12:47.855Z</time></trkpt><trkpt lat="42.7445219" lon="11.8630772"><ele>391.0</ele><time>2026-04-26T12:12:48.855Z</time></trkpt><trkpt lat="42.7446686" lon="11.863084"><ele>389.5</ele><time>2026-04-26T12:12:49.855Z</time></trkpt><trkpt lat="42.7448183" lon="11.8630934"><ele>388.0</ele><time>2026-04-26T12:12:50.854Z</time></trkpt><trkpt lat="42.7449778" lon="11.8631009"><ele>388.0</ele><time>2026-04-26T12:12:51.855Z</time></trkpt><trkpt lat="42.7451355" lon="11.8630993"><ele>388.0</ele><time>2026-04-26T12:12:52.855Z</time></trkpt><trkpt lat="42.7452857" lon="11.8631051"><ele>388.0</ele><time>2026-04-26T12:12:53.855Z</time></trkpt><trkpt lat="42.745437" lon="11.8631098"><ele>386.0</ele><time>2026-04-26T12:12:54.855Z</time></trkpt><trkpt lat="42.745586" lon="11.8631143"><ele>384.0</ele><time>2026-04-26T12:12:55.855Z</time></trkpt><trkpt lat="42.7457337" lon="11.86312"><ele>382.0</ele><time>2026-04-26T12:12:56.854Z</time></trkpt><trkpt lat="42.7458774" lon="11.8631366"><ele>380.0</ele><time>2026-04-26T12:12:57.855Z</time></trkpt><trkpt lat="42.7460217" lon="11.8631608"><ele>379.25</ele><time>2026-04-26T12:12:58.855Z</time></trkpt><trkpt lat="42.7461595" lon="11.8631781"><ele>378.5</ele><time>2026-04-26T12:12:59.855Z</time></trkpt><trkpt lat="42.7463034" lon="11.8631946"><ele>377.75</ele><time>2026-04-26T12:13:00.855Z</time></trkpt><trkpt lat="42.7464414" lon="11.863207"><ele>377.0</ele><time>2026-04-26T12:13:01.855Z</time></trkpt><trkpt lat="42.7465775" lon="11.8632127"><ele>377.0</ele><time>2026-04-26T12:13:02.855Z</time></trkpt><trkpt lat="42.7467105" lon="11.8632101"><ele>377.0</ele><time>2026-04-26T12:13:03.855Z</time></trkpt><trkpt lat="42.7468439" lon="11.8631942"><ele>377.0</ele><time>2026-04-26T12:13:04.855Z</time></trkpt><trkpt lat="42.7469815" lon="11.8631646"><ele>377.0</ele><time>2026-04-26T12:13:05.855Z</time></trkpt><trkpt lat="42.747116" lon="11.8631371"><ele>373.5</ele><time>2026-04-26T12:13:06.855Z</time></trkpt><trkpt lat="42.747249" lon="11.8631128"><ele>370.0</ele><time>2026-04-26T12:13:07.854Z</time></trkpt><trkpt lat="42.7473863" lon="11.8630912"><ele>366.5</ele><time>2026-04-26T12:13:08.855Z</time></trkpt><trkpt lat="42.7475324" lon="11.863065"><ele>363.0</ele><time>2026-04-26T12:13:09.855Z</time></trkpt><trkpt lat="42.7476778" lon="11.8630428"><ele>360.3333333333333</ele><time>2026-04-26T12:13:10.855Z</time></trkpt><trkpt lat="42.7478355" lon="11.8630097"><ele>357.66666666666663</ele><time>2026-04-26T12:13:11.855Z</time></trkpt><trkpt lat="42.7480013" lon="11.8629756"><ele>355.0</ele><time>2026-04-26T12:13:12.855Z</time></trkpt><trkpt lat="42.748173" lon="11.8629477"><ele>355.0</ele><time>2026-04-26T12:13:13.855Z</time></trkpt><trkpt lat="42.7483395" lon="11.8629134"><ele>355.0</ele><time>2026-04-26T12:13:14.855Z</time></trkpt><trkpt lat="42.7484961" lon="11.8628725"><ele>355.0</ele><time>2026-04-26T12:13:15.854Z</time></trkpt><trkpt lat="42.7486547" lon="11.8628332"><ele>355.3333333333333</ele><time>2026-04-26T12:13:16.855Z</time></trkpt><trkpt lat="42.7488151" lon="11.8627947"><ele>355.6666666666667</ele><time>2026-04-26T12:13:17.855Z</time></trkpt><trkpt lat="42.7489734" lon="11.8627569"><ele>356.0</ele><time>2026-04-26T12:13:18.855Z</time></trkpt><trkpt lat="42.7491265" lon="11.862721"><ele>356.0</ele><time>2026-04-26T12:13:19.854Z</time></trkpt><trkpt lat="42.7492724" lon="11.8626835"><ele>356.0</ele><time>2026-04-26T12:13:20.855Z</time></trkpt><trkpt lat="42.7494182" lon="11.8626461"><ele>356.0</ele><time>2026-04-26T12:13:21.855Z</time></trkpt><trkpt lat="42.7495694" lon="11.8626018"><ele>358.33333333333337</ele><time>2026-04-26T12:13:22.855Z</time></trkpt><trkpt lat="42.7497278" lon="11.8625698"><ele>360.6666666666667</ele><time>2026-04-26T12:13:23.855Z</time></trkpt><trkpt lat="42.7498912" lon="11.8625393"><ele>363.0</ele><time>2026-04-26T12:13:24.855Z</time></trkpt><trkpt lat="42.7500691" lon="11.8625105"><ele>359.6666666666667</ele><time>2026-04-26T12:13:25.855Z</time></trkpt><trkpt lat="42.7502681" lon="11.8624891"><ele>356.33333333333337</ele><time>2026-04-26T12:13:26.855Z</time></trkpt><trkpt lat="42.7504712" lon="11.8624971"><ele>353.0</ele><time>2026-04-26T12:13:27.855Z</time></trkpt><trkpt lat="42.7506746" lon="11.8625074"><ele>353.0</ele><time>2026-04-26T12:13:28.854Z</time></trkpt><trkpt lat="42.7508716" lon="11.8625083"><ele>353.0</ele><time>2026-04-26T12:13:29.855Z</time></trkpt><trkpt lat="42.7510638" lon="11.862511"><ele>353.0</ele><time>2026-04-26T12:13:30.855Z</time></trkpt><trkpt lat="42.7512516" lon="11.8625144"><ele>349.6666666666667</ele><time>2026-04-26T12:13:31.854Z</time></trkpt><trkpt lat="42.7514323" lon="11.8625302"><ele>346.3333333333333</ele><time>2026-04-26T12:13:32.855Z</time></trkpt><trkpt lat="42.7515992" lon="11.8625529"><ele>343.0</ele><time>2026-04-26T12:13:33.855Z</time></trkpt><trkpt lat="42.7517521" lon="11.8625913"><ele>339.75</ele><time>2026-04-26T12:13:34.855Z</time></trkpt><trkpt lat="42.751885" lon="11.8626243"><ele>336.5</ele><time>2026-04-26T12:13:35.855Z</time></trkpt><trkpt lat="42.7519939" lon="11.862677"><ele>333.25</ele><time>2026-04-26T12:13:36.855Z</time></trkpt><trkpt lat="42.7520911" lon="11.8627363"><ele>330.0</ele><time>2026-04-26T12:13:37.854Z</time></trkpt><trkpt lat="42.7521578" lon="11.8628376"><ele>330.0</ele><time>2026-04-26T12:13:38.855Z</time></trkpt><trkpt lat="42.7521575" lon="11.8629754"><ele>330.0</ele><time>2026-04-26T12:13:39.855Z</time></trkpt><trkpt lat="42.7521239" lon="11.8631121"><ele>330.0</ele><time>2026-04-26T12:13:40.854Z</time></trkpt><trkpt lat="42.7520538" lon="11.8632179"><ele>330.0</ele><time>2026-04-26T12:13:41.855Z</time></trkpt><trkpt lat="42.7519454" lon="11.8632624"><ele>330.0</ele><time>2026-04-26T12:13:42.855Z</time></trkpt><trkpt lat="42.7518247" lon="11.8632707"><ele>329.75</ele><time>2026-04-26T12:13:43.855Z</time></trkpt><trkpt lat="42.7516913" lon="11.8632637"><ele>329.5</ele><time>2026-04-26T12:13:44.864Z</time></trkpt><trkpt lat="42.7515526" lon="11.8632478"><ele>329.25</ele><time>2026-04-26T12:13:45.863Z</time></trkpt><trkpt lat="42.7514077" lon="11.8632479"><ele>329.0</ele><time>2026-04-26T12:13:46.863Z</time></trkpt><trkpt lat="42.7512682" lon="11.86326"><ele>329.0</ele><time>2026-04-26T12:13:47.864Z</time></trkpt><trkpt lat="42.7511264" lon="11.8632751"><ele>329.0</ele><time>2026-04-26T12:13:48.864Z</time></trkpt><trkpt lat="42.7509809" lon="11.8633349"><ele>329.0</ele><time>2026-04-26T12:13:49.864Z</time></trkpt><trkpt lat="42.7508424" lon="11.8634314"><ele>326.0</ele><time>2026-04-26T12:13:50.864Z</time></trkpt><trkpt lat="42.7507081" lon="11.8635544"><ele>323.0</ele><time>2026-04-26T12:13:51.864Z</time></trkpt><trkpt lat="42.7505705" lon="11.86369"><ele>320.0</ele><time>2026-04-26T12:13:52.864Z</time></trkpt><trkpt lat="42.7504318" lon="11.8638302"><ele>320.0</ele><time>2026-04-26T12:13:53.864Z</time></trkpt><trkpt lat="42.7502953" lon="11.8639615"><ele>320.0</ele><time>2026-04-26T12:13:54.864Z</time></trkpt><trkpt lat="42.7501544" lon="11.864092"><ele>320.0</ele><time>2026-04-26T12:13:55.863Z</time></trkpt><trkpt lat="42.750024" lon="11.8642166"><ele>319.0</ele><time>2026-04-26T12:13:56.864Z</time></trkpt><trkpt lat="42.7499032" lon="11.864329"><ele>318.0</ele><time>2026-04-26T12:13:57.863Z</time></trkpt><trkpt lat="42.7497938" lon="11.8644461"><ele>317.0</ele><time>2026-04-26T12:13:58.864Z</time></trkpt><trkpt lat="42.7497211" lon="11.8645723"><ele>316.0</ele><time>2026-04-26T12:13:59.864Z</time></trkpt><trkpt lat="42.749693" lon="11.8647185"><ele>316.0</ele><time>2026-04-26T12:14:00.864Z</time></trkpt><trkpt lat="42.749708" lon="11.8648535"><ele>316.0</ele><time>2026-04-26T12:14:01.864Z</time></trkpt><trkpt lat="42.7497716" lon="11.8649654"><ele>316.0</ele><time>2026-04-26T12:14:02.864Z</time></trkpt><trkpt lat="42.7498713" lon="11.8650107"><ele>316.0</ele><time>2026-04-26T12:14:03.863Z</time></trkpt><trkpt lat="42.7499819" lon="11.8650131"><ele>316.0</ele><time>2026-04-26T12:14:04.863Z</time></trkpt><trkpt lat="42.7501111" lon="11.864993"><ele>313.75</ele><time>2026-04-26T12:14:05.864Z</time></trkpt><trkpt lat="42.7502524" lon="11.8649539"><ele>311.5</ele><time>2026-04-26T12:14:06.863Z</time></trkpt><trkpt lat="42.7503851" lon="11.8649293"><ele>309.25</ele><time>2026-04-26T12:14:07.864Z</time></trkpt><trkpt lat="42.7505409" lon="11.8649058"><ele>307.0</ele><time>2026-04-26T12:14:08.863Z</time></trkpt><trkpt lat="42.7507103" lon="11.8648686"><ele>307.0</ele><time>2026-04-26T12:14:09.863Z</time></trkpt><trkpt lat="42.7508852" lon="11.8648271"><ele>307.0</ele><time>2026-04-26T12:14:10.864Z</time></trkpt><trkpt lat="42.7510608" lon="11.8647844"><ele>307.0</ele><time>2026-04-26T12:14:11.864Z</time></trkpt><trkpt lat="42.7512369" lon="11.8647465"><ele>304.3333333333333</ele><time>2026-04-26T12:14:12.864Z</time></trkpt><trkpt lat="42.751409" lon="11.8646991"><ele>301.6666666666667</ele><time>2026-04-26T12:14:13.864Z</time></trkpt><trkpt lat="42.7515831" lon="11.8646605"><ele>299.0</ele><time>2026-04-26T12:14:14.864Z</time></trkpt><trkpt lat="42.7517608" lon="11.8646336"><ele>299.33333333333337</ele><time>2026-04-26T12:14:15.864Z</time></trkpt><trkpt lat="42.7519351" lon="11.8646322"><ele>299.6666666666667</ele><time>2026-04-26T12:14:16.864Z</time></trkpt><trkpt lat="42.7521114" lon="11.8646631"><ele>300.0</ele><time>2026-04-26T12:14:17.864Z</time></trkpt><trkpt lat="42.7522744" lon="11.864731"><ele>300.0</ele><time>2026-04-26T12:14:18.864Z</time></trkpt><trkpt lat="42.7524307" lon="11.8648377"><ele>300.0</ele><time>2026-04-26T12:14:19.864Z</time></trkpt><trkpt lat="42.7525811" lon="11.8649654"><ele>300.0</ele><time>2026-04-26T12:14:20.863Z</time></trkpt><trkpt lat="42.7527206" lon="11.8650921"><ele>296.6666666666667</ele><time>2026-04-26T12:14:21.864Z</time></trkpt><trkpt lat="42.7528614" lon="11.8652193"><ele>293.33333333333337</ele><time>2026-04-26T12:14:22.864Z</time></trkpt><trkpt lat="42.7530089" lon="11.8653348"><ele>290.0</ele><time>2026-04-26T12:14:23.864Z</time></trkpt><trkpt lat="42.7531696" lon="11.8654113"><ele>290.0</ele><time>2026-04-26T12:14:24.864Z</time></trkpt><trkpt lat="42.7533457" lon="11.8654469"><ele>290.0</ele><time>2026-04-26T12:14:25.864Z</time></trkpt><trkpt lat="42.7535182" lon="11.8654629"><ele>290.0</ele><time>2026-04-26T12:14:26.864Z</time></trkpt><trkpt lat="42.7536887" lon="11.8654799"><ele>290.33333333333337</ele><time>2026-04-26T12:14:27.864Z</time></trkpt><trkpt lat="42.7538531" lon="11.8655"><ele>290.6666666666667</ele><time>2026-04-26T12:14:28.864Z</time></trkpt><trkpt lat="42.7540181" lon="11.8655228"><ele>291.0</ele><time>2026-04-26T12:14:29.863Z</time></trkpt><trkpt lat="42.7541838" lon="11.8655392"><ele>291.0</ele><time>2026-04-26T12:14:30.863Z</time></trkpt><trkpt lat="42.7543469" lon="11.8655527"><ele>291.0</ele><time>2026-04-26T12:14:31.864Z</time></trkpt><trkpt lat="42.7545101" lon="11.8655712"><ele>291.0</ele><time>2026-04-26T12:14:32.864Z</time></trkpt><trkpt lat="42.7546673" lon="11.8655785"><ele>290.0</ele><time>2026-04-26T12:14:33.864Z</time></trkpt><trkpt lat="42.7548266" lon="11.8655784"><ele>289.0</ele><time>2026-04-26T12:14:34.864Z</time></trkpt><trkpt lat="42.7549862" lon="11.8655807"><ele>288.0</ele><time>2026-04-26T12:14:35.864Z</time></trkpt><trkpt lat="42.7551448" lon="11.8655754"><ele>284.6666666666667</ele><time>2026-04-26T12:14:36.864Z</time></trkpt><trkpt lat="42.7553014" lon="11.8655666"><ele>281.33333333333337</ele><time>2026-04-26T12:14:37.864Z</time></trkpt><trkpt lat="42.7554583" lon="11.8655559"><ele>278.0</ele><time>2026-04-26T12:14:38.864Z</time></trkpt><trkpt lat="42.7556276" lon="11.8655554"><ele>278.0</ele><time>2026-04-26T12:14:39.863Z</time></trkpt><trkpt lat="42.75581" lon="11.8655651"><ele>278.0</ele><time>2026-04-26T12:14:40.864Z</time></trkpt><trkpt lat="42.7560141" lon="11.86558"><ele>278.0</ele><time>2026-04-26T12:14:41.864Z</time></trkpt><trkpt lat="42.7562103" lon="11.8655973"><ele>276.33333333333337</ele><time>2026-04-26T12:14:42.864Z</time></trkpt><trkpt lat="42.7564011" lon="11.8656217"><ele>274.6666666666667</ele><time>2026-04-26T12:14:43.864Z</time></trkpt><trkpt lat="42.7565842" lon="11.8656462"><ele>273.0</ele><time>2026-04-26T12:14:44.863Z</time></trkpt><trkpt lat="42.7567613" lon="11.8656627"><ele>269.6666666666667</ele><time>2026-04-26T12:14:45.864Z</time></trkpt><trkpt lat="42.7569344" lon="11.8656738"><ele>266.33333333333337</ele><time>2026-04-26T12:14:46.863Z</time></trkpt><trkpt lat="42.7571034" lon="11.8656716"><ele>263.0</ele><time>2026-04-26T12:14:47.863Z</time></trkpt><trkpt lat="42.7572704" lon="11.86565"><ele>263.0</ele><time>2026-04-26T12:14:48.864Z</time></trkpt><trkpt lat="42.7574253" lon="11.8656185"><ele>263.0</ele><time>2026-04-26T12:14:49.864Z</time></trkpt><trkpt lat="42.7575674" lon="11.8655497"><ele>263.0</ele><time>2026-04-26T12:14:50.864Z</time></trkpt><trkpt lat="42.7576914" lon="11.8654313"><ele>261.5</ele><time>2026-04-26T12:14:51.864Z</time></trkpt><trkpt lat="42.757795" lon="11.8652936"><ele>260.0</ele><time>2026-04-26T12:14:52.863Z</time></trkpt><trkpt lat="42.7578839" lon="11.8651488"><ele>258.5</ele><time>2026-04-26T12:14:53.864Z</time></trkpt><trkpt lat="42.7579592" lon="11.8650026"><ele>257.0</ele><time>2026-04-26T12:14:54.864Z</time></trkpt><trkpt lat="42.7580302" lon="11.8648553"><ele>257.0</ele><time>2026-04-26T12:14:55.864Z</time></trkpt><trkpt lat="42.7581093" lon="11.8647131"><ele>257.0</ele><time>2026-04-26T12:14:56.864Z</time></trkpt><trkpt lat="42.7582122" lon="11.8645954"><ele>257.0</ele><time>2026-04-26T12:14:57.864Z</time></trkpt><trkpt lat="42.7583455" lon="11.8644963"><ele>257.0</ele><time>2026-04-26T12:14:58.864Z</time></trkpt><trkpt lat="42.7585093" lon="11.8644219"><ele>257.0</ele><time>2026-04-26T12:14:59.863Z</time></trkpt><trkpt lat="42.7586943" lon="11.8643559"><ele>257.0</ele><time>2026-04-26T12:15:00.863Z</time></trkpt><trkpt lat="42.7588874" lon="11.8642792"><ele>257.0</ele><time>2026-04-26T12:15:01.863Z</time></trkpt><trkpt lat="42.7590927" lon="11.8641924"><ele>257.0</ele><time>2026-04-26T12:15:02.864Z</time></trkpt><trkpt lat="42.7592939" lon="11.8641109"><ele>257.0</ele><time>2026-04-26T12:15:03.864Z</time></trkpt><trkpt lat="42.7594973" lon="11.8640275"><ele>257.0</ele><time>2026-04-26T12:15:04.864Z</time></trkpt><trkpt lat="42.7597029" lon="11.8639413"><ele>255.33333333333334</ele><time>2026-04-26T12:15:05.864Z</time></trkpt><trkpt lat="42.7599001" lon="11.863853"><ele>253.66666666666669</ele><time>2026-04-26T12:15:06.863Z</time></trkpt><trkpt lat="42.7600872" lon="11.8637722"><ele>252.0</ele><time>2026-04-26T12:15:07.864Z</time></trkpt><trkpt lat="42.7602691" lon="11.8636804"><ele>251.66666666666669</ele><time>2026-04-26T12:15:08.863Z</time></trkpt><trkpt lat="42.7604379" lon="11.8635779"><ele>251.33333333333334</ele><time>2026-04-26T12:15:09.864Z</time></trkpt><trkpt lat="42.7605856" lon="11.863442"><ele>251.0</ele><time>2026-04-26T12:15:10.864Z</time></trkpt><trkpt lat="42.7607116" lon="11.86327"><ele>251.0</ele><time>2026-04-26T12:15:11.863Z</time></trkpt><trkpt lat="42.7608107" lon="11.8630695"><ele>251.0</ele><time>2026-04-26T12:15:12.864Z</time></trkpt><trkpt lat="42.7608757" lon="11.8628226"><ele>251.0</ele><time>2026-04-26T12:15:13.864Z</time></trkpt><trkpt lat="42.7609315" lon="11.8625579"><ele>251.0</ele><time>2026-04-26T12:15:14.864Z</time></trkpt><trkpt lat="42.7609788" lon="11.8622854"><ele>251.0</ele><time>2026-04-26T12:15:15.863Z</time></trkpt><trkpt lat="42.761027" lon="11.8620037"><ele>251.0</ele><time>2026-04-26T12:15:16.864Z</time></trkpt><trkpt lat="42.7610833" lon="11.8617164"><ele>250.33333333333334</ele><time>2026-04-26T12:15:17.864Z</time></trkpt><trkpt lat="42.7611414" lon="11.8614271"><ele>249.66666666666669</ele><time>2026-04-26T12:15:18.864Z</time></trkpt><trkpt lat="42.7612007" lon="11.8611285"><ele>249.0</ele><time>2026-04-26T12:15:19.864Z</time></trkpt><trkpt lat="42.761261" lon="11.8608271"><ele>249.0</ele><time>2026-04-26T12:15:20.864Z</time></trkpt><trkpt lat="42.7613181" lon="11.8605246"><ele>249.0</ele><time>2026-04-26T12:15:21.864Z</time></trkpt><trkpt lat="42.7613684" lon="11.8602259"><ele>249.5</ele><time>2026-04-26T12:15:22.864Z</time></trkpt><trkpt lat="42.7614203" lon="11.8599233"><ele>250.0</ele><time>2026-04-26T12:15:23.864Z</time></trkpt><trkpt lat="42.7614758" lon="11.859621"><ele>250.0</ele><time>2026-04-26T12:15:24.864Z</time></trkpt><trkpt lat="42.7615318" lon="11.8593201"><ele>250.0</ele><time>2026-04-26T12:15:25.864Z</time></trkpt><trkpt lat="42.7615893" lon="11.8590168"><ele>251.5</ele><time>2026-04-26T12:15:26.864Z</time></trkpt><trkpt lat="42.761659" lon="11.8587174"><ele>253.0</ele><time>2026-04-26T12:15:27.863Z</time></trkpt><trkpt lat="42.7617375" lon="11.8584285"><ele>253.33333333333331</ele><time>2026-04-26T12:15:28.864Z</time></trkpt><trkpt lat="42.7618265" lon="11.8581506"><ele>253.66666666666669</ele><time>2026-04-26T12:15:29.864Z</time></trkpt><trkpt lat="42.7619266" lon="11.857881"><ele>254.0</ele><time>2026-04-26T12:15:30.863Z</time></trkpt><trkpt lat="42.762036" lon="11.857613"><ele>252.0</ele><time>2026-04-26T12:15:31.864Z</time></trkpt><trkpt lat="42.7621549" lon="11.8573517"><ele>250.0</ele><time>2026-04-26T12:15:32.862Z</time></trkpt><trkpt lat="42.7622861" lon="11.8571068"><ele>248.0</ele><time>2026-04-26T12:15:33.862Z</time></trkpt><trkpt lat="42.7624404" lon="11.8568842"><ele>248.5</ele><time>2026-04-26T12:15:34.863Z</time></trkpt><trkpt lat="42.7626232" lon="11.8566882"><ele>249.0</ele><time>2026-04-26T12:15:35.863Z</time></trkpt><trkpt lat="42.7628239" lon="11.8565305"><ele>248.0</ele><time>2026-04-26T12:15:36.862Z</time></trkpt><trkpt lat="42.7630403" lon="11.8564159"><ele>247.0</ele><time>2026-04-26T12:15:37.863Z</time></trkpt><trkpt lat="42.7632642" lon="11.8563389"><ele>247.0</ele><time>2026-04-26T12:15:38.863Z</time></trkpt><trkpt lat="42.7634995" lon="11.8563019"><ele>247.0</ele><time>2026-04-26T12:15:39.863Z</time></trkpt><trkpt lat="42.7637319" lon="11.8562968"><ele>246.5</ele><time>2026-04-26T12:15:40.863Z</time></trkpt><trkpt lat="42.7639667" lon="11.8563158"><ele>246.0</ele><time>2026-04-26T12:15:41.863Z</time></trkpt><trkpt lat="42.7641995" lon="11.856329"><ele>246.5</ele><time>2026-04-26T12:15:42.863Z</time></trkpt><trkpt lat="42.7644261" lon="11.8563338"><ele>247.0</ele><time>2026-04-26T12:15:43.862Z</time></trkpt><trkpt lat="42.7646519" lon="11.8563408"><ele>247.0</ele><time>2026-04-26T12:15:44.863Z</time></trkpt><trkpt lat="42.7648745" lon="11.856332"><ele>247.0</ele><time>2026-04-26T12:15:45.863Z</time></trkpt><trkpt lat="42.7651105" lon="11.8563292"><ele>247.0</ele><time>2026-04-26T12:15:46.863Z</time></trkpt><trkpt lat="42.7653467" lon="11.8563212"><ele>247.0</ele><time>2026-04-26T12:15:47.863Z</time></trkpt><trkpt lat="42.7655829" lon="11.8563143"><ele>247.0</ele><time>2026-04-26T12:15:48.862Z</time></trkpt><trkpt lat="42.7658188" lon="11.8563025"><ele>247.0</ele><time>2026-04-26T12:15:49.863Z</time></trkpt><trkpt lat="42.7660495" lon="11.8562756"><ele>249.0</ele><time>2026-04-26T12:15:50.863Z</time></trkpt><trkpt lat="42.7662867" lon="11.8562409"><ele>251.0</ele><time>2026-04-26T12:15:51.863Z</time></trkpt><trkpt lat="42.7665202" lon="11.856202"><ele>251.0</ele><time>2026-04-26T12:15:52.863Z</time></trkpt><trkpt lat="42.7667522" lon="11.8561657"><ele>251.0</ele><time>2026-04-26T12:15:53.863Z</time></trkpt><trkpt lat="42.7669826" lon="11.8561256"><ele>252.0</ele><time>2026-04-26T12:15:54.863Z</time></trkpt><trkpt lat="42.7672127" lon="11.8560853"><ele>253.0</ele><time>2026-04-26T12:15:55.863Z</time></trkpt><trkpt lat="42.7674458" lon="11.8560491"><ele>253.0</ele><time>2026-04-26T12:15:56.863Z</time></trkpt><trkpt lat="42.767672" lon="11.8560141"><ele>253.0</ele><time>2026-04-26T12:15:57.863Z</time></trkpt><trkpt lat="42.7679002" lon="11.8559807"><ele>254.0</ele><time>2026-04-26T12:15:58.863Z</time></trkpt><trkpt lat="42.7681294" lon="11.855946"><ele>255.0</ele><time>2026-04-26T12:15:59.862Z</time></trkpt><trkpt lat="42.7683609" lon="11.855901"><ele>256.5</ele><time>2026-04-26T12:16:00.862Z</time></trkpt><trkpt lat="42.7685898" lon="11.855858"><ele>258.0</ele><time>2026-04-26T12:16:01.863Z</time></trkpt><trkpt lat="42.7688205" lon="11.855818"><ele>258.0</ele><time>2026-04-26T12:16:02.863Z</time></trkpt><trkpt lat="42.7690537" lon="11.8557798"><ele>258.0</ele><time>2026-04-26T12:16:03.863Z</time></trkpt><trkpt lat="42.7692882" lon="11.8557401"><ele>258.5</ele><time>2026-04-26T12:16:04.862Z</time></trkpt><trkpt lat="42.7695189" lon="11.8556958"><ele>259.0</ele><time>2026-04-26T12:16:05.862Z</time></trkpt><trkpt lat="42.7697524" lon="11.8556618"><ele>259.0</ele><time>2026-04-26T12:16:06.863Z</time></trkpt><trkpt lat="42.7699806" lon="11.8556262"><ele>259.0</ele><time>2026-04-26T12:16:07.863Z</time></trkpt><trkpt lat="42.7702019" lon="11.8555915"><ele>259.66666666666663</ele><time>2026-04-26T12:16:08.863Z</time></trkpt><trkpt lat="42.7704137" lon="11.8555478"><ele>260.3333333333333</ele><time>2026-04-26T12:16:09.863Z</time></trkpt><trkpt lat="42.7706177" lon="11.8554799"><ele>261.0</ele><time>2026-04-26T12:16:10.863Z</time></trkpt><trkpt lat="42.7708029" lon="11.855369"><ele>261.0</ele><time>2026-04-26T12:16:11.863Z</time></trkpt><trkpt lat="42.7709655" lon="11.8552009"><ele>261.0</ele><time>2026-04-26T12:16:12.863Z</time></trkpt><trkpt lat="42.7711011" lon="11.8550046"><ele>261.0</ele><time>2026-04-26T12:16:13.863Z</time></trkpt><trkpt lat="42.7712018" lon="11.8547651"><ele>262.0</ele><time>2026-04-26T12:16:14.863Z</time></trkpt><trkpt lat="42.7712703" lon="11.8545028"><ele>263.0</ele><time>2026-04-26T12:16:15.863Z</time></trkpt><trkpt lat="42.7713142" lon="11.8542272"><ele>264.0</ele><time>2026-04-26T12:16:16.862Z</time></trkpt><trkpt lat="42.771349" lon="11.8539517"><ele>264.0</ele><time>2026-04-26T12:16:17.863Z</time></trkpt><trkpt lat="42.7713854" lon="11.8536769"><ele>264.0</ele><time>2026-04-26T12:16:18.863Z</time></trkpt><trkpt lat="42.7714237" lon="11.8534047"><ele>264.0</ele><time>2026-04-26T12:16:19.863Z</time></trkpt><trkpt lat="42.7714579" lon="11.8531595"><ele>263.75</ele><time>2026-04-26T12:16:20.863Z</time></trkpt><trkpt lat="42.7714921" lon="11.8529467"><ele>263.5</ele><time>2026-04-26T12:16:21.863Z</time></trkpt><trkpt lat="42.771533" lon="11.852763"><ele>263.25</ele><time>2026-04-26T12:16:22.863Z</time></trkpt><trkpt lat="42.7715979" lon="11.8526201"><ele>263.0</ele><time>2026-04-26T12:16:23.862Z</time></trkpt><trkpt lat="42.7716899" lon="11.8524972"><ele>263.75</ele><time>2026-04-26T12:16:24.863Z</time></trkpt><trkpt lat="42.7718109" lon="11.8523921"><ele>264.5</ele><time>2026-04-26T12:16:25.863Z</time></trkpt><trkpt lat="42.7719407" lon="11.8523311"><ele>265.25</ele><time>2026-04-26T12:16:26.862Z</time></trkpt><trkpt lat="42.7720784" lon="11.852306"><ele>266.0</ele><time>2026-04-26T12:16:27.863Z</time></trkpt><trkpt lat="42.7722174" lon="11.8523024"><ele>267.5</ele><time>2026-04-26T12:16:28.863Z</time></trkpt><trkpt lat="42.7723614" lon="11.8522997"><ele>269.0</ele><time>2026-04-26T12:16:29.863Z</time></trkpt><trkpt lat="42.7725089" lon="11.8522894"><ele>270.5</ele><time>2026-04-26T12:16:30.863Z</time></trkpt><trkpt lat="42.7726588" lon="11.8522734"><ele>272.0</ele><time>2026-04-26T12:16:31.863Z</time></trkpt><trkpt lat="42.7728139" lon="11.8522559"><ele>272.0</ele><time>2026-04-26T12:16:32.863Z</time></trkpt><trkpt lat="42.7729674" lon="11.8522435"><ele>272.0</ele><time>2026-04-26T12:16:33.863Z</time></trkpt><trkpt lat="42.7731323" lon="11.8522287"><ele>272.0</ele><time>2026-04-26T12:16:34.863Z</time></trkpt><trkpt lat="42.7733021" lon="11.8522071"><ele>272.0</ele><time>2026-04-26T12:16:35.862Z</time></trkpt><trkpt lat="42.7734791" lon="11.8521916"><ele>272.0</ele><time>2026-04-26T12:16:36.863Z</time></trkpt><trkpt lat="42.773661" lon="11.8521733"><ele>272.0</ele><time>2026-04-26T12:16:37.862Z</time></trkpt><trkpt lat="42.7738458" lon="11.8521517"><ele>273.0</ele><time>2026-04-26T12:16:38.863Z</time></trkpt><trkpt lat="42.7740304" lon="11.8521258"><ele>274.0</ele><time>2026-04-26T12:16:39.862Z</time></trkpt><trkpt lat="42.7742162" lon="11.8520957"><ele>275.0</ele><time>2026-04-26T12:16:40.863Z</time></trkpt><trkpt lat="42.7744022" lon="11.8520546"><ele>276.6666666666667</ele><time>2026-04-26T12:16:41.862Z</time></trkpt><trkpt lat="42.7745899" lon="11.8519993"><ele>278.3333333333333</ele><time>2026-04-26T12:16:42.863Z</time></trkpt><trkpt lat="42.7747733" lon="11.8519481"><ele>280.0</ele><time>2026-04-26T12:16:43.863Z</time></trkpt><trkpt lat="42.7749468" lon="11.851912"><ele>280.0</ele><time>2026-04-26T12:16:44.863Z</time></trkpt><trkpt lat="42.7751098" lon="11.8518921"><ele>280.0</ele><time>2026-04-26T12:16:45.863Z</time></trkpt><trkpt lat="42.7752527" lon="11.8518979"><ele>280.0</ele><time>2026-04-26T12:16:46.863Z</time></trkpt><trkpt lat="42.7753922" lon="11.8519234"><ele>280.0</ele><time>2026-04-26T12:16:47.863Z</time></trkpt><trkpt lat="42.7755322" lon="11.8519579"><ele>281.25</ele><time>2026-04-26T12:16:48.863Z</time></trkpt><trkpt lat="42.7756667" lon="11.8519928"><ele>282.5</ele><time>2026-04-26T12:16:49.863Z</time></trkpt><trkpt lat="42.7757963" lon="11.8520294"><ele>283.75</ele><time>2026-04-26T12:16:50.863Z</time></trkpt><trkpt lat="42.7759283" lon="11.8520642"><ele>285.0</ele><time>2026-04-26T12:16:51.863Z</time></trkpt><trkpt lat="42.7760605" lon="11.8520985"><ele>286.5</ele><time>2026-04-26T12:16:52.863Z</time></trkpt><trkpt lat="42.7761944" lon="11.8521306"><ele>288.0</ele><time>2026-04-26T12:16:53.863Z</time></trkpt><trkpt lat="42.7763346" lon="11.8521673"><ele>289.5</ele><time>2026-04-26T12:16:54.863Z</time></trkpt><trkpt lat="42.776468" lon="11.8521983"><ele>291.0</ele><time>2026-04-26T12:16:55.862Z</time></trkpt><trkpt lat="42.7766051" lon="11.8522252"><ele>291.0</ele><time>2026-04-26T12:16:56.863Z</time></trkpt><trkpt lat="42.7767447" lon="11.8522524"><ele>291.0</ele><time>2026-04-26T12:16:57.862Z</time></trkpt><trkpt lat="42.7768825" lon="11.8522826"><ele>291.0</ele><time>2026-04-26T12:16:58.862Z</time></trkpt><trkpt lat="42.7770229" lon="11.852296"><ele>291.0</ele><time>2026-04-26T12:16:59.863Z</time></trkpt><trkpt lat="42.7771693" lon="11.8522744"><ele>292.0</ele><time>2026-04-26T12:17:00.863Z</time></trkpt><trkpt lat="42.7773158" lon="11.852225"><ele>293.0</ele><time>2026-04-26T12:17:01.863Z</time></trkpt><trkpt lat="42.7774639" lon="11.8521576"><ele>294.0</ele><time>2026-04-26T12:17:02.863Z</time></trkpt><trkpt lat="42.7776101" lon="11.8520792"><ele>294.3333333333333</ele><time>2026-04-26T12:17:03.863Z</time></trkpt><trkpt lat="42.777768" lon="11.8520274"><ele>294.66666666666663</ele><time>2026-04-26T12:17:04.862Z</time></trkpt><trkpt lat="42.7779276" lon="11.852"><ele>295.0</ele><time>2026-04-26T12:17:05.862Z</time></trkpt><trkpt lat="42.7780924" lon="11.8520062"><ele>295.0</ele><time>2026-04-26T12:17:06.863Z</time></trkpt><trkpt lat="42.7782577" lon="11.8520286"><ele>295.0</ele><time>2026-04-26T12:17:07.863Z</time></trkpt><trkpt lat="42.7784176" lon="11.8520532"><ele>295.0</ele><time>2026-04-26T12:17:08.863Z</time></trkpt><trkpt lat="42.7785803" lon="11.8520736"><ele>294.66666666666663</ele><time>2026-04-26T12:17:09.863Z</time></trkpt><trkpt lat="42.7787405" lon="11.8520659"><ele>294.3333333333333</ele><time>2026-04-26T12:17:10.863Z</time></trkpt><trkpt lat="42.778896" lon="11.8520133"><ele>294.0</ele><time>2026-04-26T12:17:11.863Z</time></trkpt><trkpt lat="42.7790379" lon="11.8519128"><ele>295.0</ele><time>2026-04-26T12:17:12.863Z</time></trkpt><trkpt lat="42.7791625" lon="11.8517732"><ele>296.0</ele><time>2026-04-26T12:17:13.863Z</time></trkpt><trkpt lat="42.7792905" lon="11.8516222"><ele>297.0</ele><time>2026-04-26T12:17:14.862Z</time></trkpt><trkpt lat="42.7794209" lon="11.8514659"><ele>297.0</ele><time>2026-04-26T12:17:15.863Z</time></trkpt><trkpt lat="42.7795392" lon="11.8512925"><ele>297.0</ele><time>2026-04-26T12:17:16.862Z</time></trkpt><trkpt lat="42.7796362" lon="11.8511012"><ele>297.0</ele><time>2026-04-26T12:17:17.863Z</time></trkpt><trkpt lat="42.7797086" lon="11.8508995"><ele>299.6666666666667</ele><time>2026-04-26T12:17:18.862Z</time></trkpt><trkpt lat="42.7797601" lon="11.8506764"><ele>302.33333333333337</ele><time>2026-04-26T12:17:19.863Z</time></trkpt><trkpt lat="42.7798066" lon="11.8504469"><ele>305.0</ele><time>2026-04-26T12:17:20.863Z</time></trkpt><trkpt lat="42.7798354" lon="11.8502092"><ele>306.6666666666667</ele><time>2026-04-26T12:17:21.863Z</time></trkpt><trkpt lat="42.7798614" lon="11.8499717"><ele>308.3333333333333</ele><time>2026-04-26T12:17:22.863Z</time></trkpt><trkpt lat="42.7798901" lon="11.8497457"><ele>310.0</ele><time>2026-04-26T12:17:23.863Z</time></trkpt><trkpt lat="42.7799452" lon="11.8495264"><ele>310.0</ele><time>2026-04-26T12:17:24.863Z</time></trkpt><trkpt lat="42.7800273" lon="11.8493347"><ele>310.0</ele><time>2026-04-26T12:17:25.863Z</time></trkpt><trkpt lat="42.7801413" lon="11.8491686"><ele>310.0</ele><time>2026-04-26T12:17:26.862Z</time></trkpt><trkpt lat="42.7802615" lon="11.849006"><ele>310.3333333333333</ele><time>2026-04-26T12:17:27.863Z</time></trkpt><trkpt lat="42.7803864" lon="11.8488392"><ele>310.6666666666667</ele><time>2026-04-26T12:17:28.863Z</time></trkpt><trkpt lat="42.7805057" lon="11.8486656"><ele>311.0</ele><time>2026-04-26T12:17:29.862Z</time></trkpt><trkpt lat="42.7806226" lon="11.8484871"><ele>312.0</ele><time>2026-04-26T12:17:30.862Z</time></trkpt><trkpt lat="42.7807519" lon="11.8483246"><ele>313.0</ele><time>2026-04-26T12:17:31.863Z</time></trkpt><trkpt lat="42.7808882" lon="11.8481806"><ele>314.0</ele><time>2026-04-26T12:17:32.863Z</time></trkpt><trkpt lat="42.7810312" lon="11.8480523"><ele>314.0</ele><time>2026-04-26T12:17:33.863Z</time></trkpt><trkpt lat="42.7811778" lon="11.8479283"><ele>314.0</ele><time>2026-04-26T12:17:34.863Z</time></trkpt><trkpt lat="42.7813301" lon="11.8478001"><ele>314.0</ele><time>2026-04-26T12:17:35.863Z</time></trkpt><trkpt lat="42.7814821" lon="11.8476733"><ele>317.0</ele><time>2026-04-26T12:17:36.862Z</time></trkpt><trkpt lat="42.7816366" lon="11.8475459"><ele>320.0</ele><time>2026-04-26T12:17:37.863Z</time></trkpt><trkpt lat="42.7817951" lon="11.8474151"><ele>323.0</ele><time>2026-04-26T12:17:38.862Z</time></trkpt><trkpt lat="42.7819554" lon="11.8472882"><ele>323.6666666666667</ele><time>2026-04-26T12:17:39.863Z</time></trkpt><trkpt lat="42.7821199" lon="11.8471638"><ele>324.3333333333333</ele><time>2026-04-26T12:17:40.863Z</time></trkpt><trkpt lat="42.7822853" lon="11.8470544"><ele>325.0</ele><time>2026-04-26T12:17:41.862Z</time></trkpt><trkpt lat="42.7824474" lon="11.8469471"><ele>325.0</ele><time>2026-04-26T12:17:42.863Z</time></trkpt><trkpt lat="42.7826051" lon="11.8468399"><ele>325.0</ele><time>2026-04-26T12:17:43.863Z</time></trkpt><trkpt lat="42.7827579" lon="11.846733"><ele>325.0</ele><time>2026-04-26T12:17:44.863Z</time></trkpt><trkpt lat="42.7829004" lon="11.8466363"><ele>325.75</ele><time>2026-04-26T12:17:45.863Z</time></trkpt><trkpt lat="42.7830304" lon="11.846553"><ele>326.5</ele><time>2026-04-26T12:17:46.863Z</time></trkpt><trkpt lat="42.783154" lon="11.8464782"><ele>327.25</ele><time>2026-04-26T12:17:47.863Z</time></trkpt><trkpt lat="42.7832667" lon="11.8464054"><ele>328.0</ele><time>2026-04-26T12:17:48.863Z</time></trkpt><trkpt lat="42.7833797" lon="11.8463488"><ele>328.0</ele><time>2026-04-26T12:17:49.863Z</time></trkpt><trkpt lat="42.7834952" lon="11.846309"><ele>328.0</ele><time>2026-04-26T12:17:50.863Z</time></trkpt><trkpt lat="42.7836142" lon="11.8462733"><ele>328.0</ele><time>2026-04-26T12:17:51.863Z</time></trkpt><trkpt lat="42.78374" lon="11.8462469"><ele>328.0</ele><time>2026-04-26T12:17:52.863Z</time></trkpt><trkpt lat="42.7838701" lon="11.8462284"><ele>329.25</ele><time>2026-04-26T12:17:53.863Z</time></trkpt><trkpt lat="42.7839984" lon="11.8461997"><ele>330.5</ele><time>2026-04-26T12:17:54.863Z</time></trkpt><trkpt lat="42.7841104" lon="11.8462032"><ele>331.75</ele><time>2026-04-26T12:17:55.863Z</time></trkpt><trkpt lat="42.784212" lon="11.8462551"><ele>333.0</ele><time>2026-04-26T12:17:56.863Z</time></trkpt><trkpt lat="42.784275" lon="11.8463789"><ele>333.0</ele><time>2026-04-26T12:17:57.863Z</time></trkpt><trkpt lat="42.784293" lon="11.8465134"><ele>333.0</ele><time>2026-04-26T12:17:58.863Z</time></trkpt><trkpt lat="42.7842682" lon="11.8466406"><ele>333.0</ele><time>2026-04-26T12:17:59.863Z</time></trkpt><trkpt lat="42.7842203" lon="11.8467871"><ele>333.0</ele><time>2026-04-26T12:18:00.863Z</time></trkpt><trkpt lat="42.784178" lon="11.8469398"><ele>333.0</ele><time>2026-04-26T12:18:01.862Z</time></trkpt><trkpt lat="42.7841302" lon="11.8470958"><ele>334.75</ele><time>2026-04-26T12:18:02.862Z</time></trkpt><trkpt lat="42.7840778" lon="11.8472582"><ele>336.5</ele><time>2026-04-26T12:18:03.863Z</time></trkpt><trkpt lat="42.7840166" lon="11.8474295"><ele>338.25</ele><time>2026-04-26T12:18:04.863Z</time></trkpt><trkpt lat="42.7839411" lon="11.8475944"><ele>340.0</ele><time>2026-04-26T12:18:05.863Z</time></trkpt><trkpt lat="42.7838588" lon="11.8477552"><ele>343.0</ele><time>2026-04-26T12:18:06.863Z</time></trkpt><trkpt lat="42.7837727" lon="11.8479175"><ele>346.0</ele><time>2026-04-26T12:18:07.863Z</time></trkpt><trkpt lat="42.7836927" lon="11.8480837"><ele>349.0</ele><time>2026-04-26T12:18:08.863Z</time></trkpt><trkpt lat="42.7836139" lon="11.8482432"><ele>352.0</ele><time>2026-04-26T12:18:09.863Z</time></trkpt><trkpt lat="42.783529" lon="11.8484111"><ele>348.3333333333333</ele><time>2026-04-26T12:18:10.863Z</time></trkpt><trkpt lat="42.7834448" lon="11.8485819"><ele>344.6666666666667</ele><time>2026-04-26T12:18:11.863Z</time></trkpt><trkpt lat="42.7833587" lon="11.8487635"><ele>341.0</ele><time>2026-04-26T12:18:12.863Z</time></trkpt><trkpt lat="42.7832681" lon="11.8489462"><ele>341.0</ele><time>2026-04-26T12:18:13.863Z</time></trkpt><trkpt lat="42.7831727" lon="11.849123"><ele>341.0</ele><time>2026-04-26T12:18:14.863Z</time></trkpt><trkpt lat="42.7830773" lon="11.8493016"><ele>341.0</ele><time>2026-04-26T12:18:15.863Z</time></trkpt><trkpt lat="42.7829896" lon="11.8494916"><ele>344.33333333333337</ele><time>2026-04-26T12:18:16.863Z</time></trkpt><trkpt lat="42.7829213" lon="11.8497012"><ele>347.6666666666667</ele><time>2026-04-26T12:18:17.863Z</time></trkpt><trkpt lat="42.7828674" lon="11.8499121"><ele>351.0</ele><time>2026-04-26T12:18:18.863Z</time></trkpt><trkpt lat="42.7828227" lon="11.8501315"><ele>354.3333333333333</ele><time>2026-04-26T12:18:19.863Z</time></trkpt><trkpt lat="42.782784" lon="11.8503541"><ele>357.66666666666663</ele><time>2026-04-26T12:18:20.863Z</time></trkpt><trkpt lat="42.7827561" lon="11.8505773"><ele>361.0</ele><time>2026-04-26T12:18:21.863Z</time></trkpt><trkpt lat="42.7827398" lon="11.8508003"><ele>360.25</ele><time>2026-04-26T12:18:22.863Z</time></trkpt><trkpt lat="42.7827396" lon="11.8510121"><ele>359.5</ele><time>2026-04-26T12:18:23.863Z</time></trkpt><trkpt lat="42.7827629" lon="11.8511988"><ele>358.75</ele><time>2026-04-26T12:18:24.863Z</time></trkpt><trkpt lat="42.7828143" lon="11.8513643"><ele>358.0</ele><time>2026-04-26T12:18:25.863Z</time></trkpt><trkpt lat="42.7829068" lon="11.8514925"><ele>358.0</ele><time>2026-04-26T12:18:26.863Z</time></trkpt><trkpt lat="42.7830195" lon="11.8516072"><ele>358.0</ele><time>2026-04-26T12:18:27.863Z</time></trkpt><trkpt lat="42.7831353" lon="11.8517276"><ele>358.0</ele><time>2026-04-26T12:18:28.863Z</time></trkpt><trkpt lat="42.7832521" lon="11.8518575"><ele>358.0</ele><time>2026-04-26T12:18:29.862Z</time></trkpt><trkpt lat="42.7833697" lon="11.8519901"><ele>360.3333333333333</ele><time>2026-04-26T12:18:30.863Z</time></trkpt><trkpt lat="42.7834886" lon="11.8521314"><ele>362.6666666666667</ele><time>2026-04-26T12:18:31.863Z</time></trkpt><trkpt lat="42.7836078" lon="11.8522666"><ele>365.0</ele><time>2026-04-26T12:18:32.863Z</time></trkpt><trkpt lat="42.7837286" lon="11.8523967"><ele>365.0</ele><time>2026-04-26T12:18:33.863Z</time></trkpt><trkpt lat="42.7838418" lon="11.8525136"><ele>365.0</ele><time>2026-04-26T12:18:34.863Z</time></trkpt><trkpt lat="42.7839565" lon="11.8526059"><ele>365.0</ele><time>2026-04-26T12:18:35.863Z</time></trkpt><trkpt lat="42.7840848" lon="11.85267"><ele>365.0</ele><time>2026-04-26T12:18:36.863Z</time></trkpt><trkpt lat="42.7842193" lon="11.8526737"><ele>362.75</ele><time>2026-04-26T12:18:37.863Z</time></trkpt><trkpt lat="42.7843577" lon="11.852661"><ele>360.5</ele><time>2026-04-26T12:18:38.863Z</time></trkpt><trkpt lat="42.7844991" lon="11.8526681"><ele>358.25</ele><time>2026-04-26T12:18:39.863Z</time></trkpt><trkpt lat="42.7846472" lon="11.8526909"><ele>356.0</ele><time>2026-04-26T12:18:40.863Z</time></trkpt><trkpt lat="42.7847962" lon="11.8527258"><ele>356.0</ele><time>2026-04-26T12:18:41.862Z</time></trkpt><trkpt lat="42.7849443" lon="11.8527764"><ele>356.0</ele><time>2026-04-26T12:18:42.863Z</time></trkpt><trkpt lat="42.7850926" lon="11.8528322"><ele>356.0</ele><time>2026-04-26T12:18:43.862Z</time></trkpt><trkpt lat="42.785236" lon="11.8529012"><ele>359.33333333333337</ele><time>2026-04-26T12:18:44.862Z</time></trkpt><trkpt lat="42.7853802" lon="11.8529485"><ele>362.6666666666667</ele><time>2026-04-26T12:18:45.863Z</time></trkpt><trkpt lat="42.7855355" lon="11.8529567"><ele>366.0</ele><time>2026-04-26T12:18:46.863Z</time></trkpt><trkpt lat="42.785692" lon="11.8529536"><ele>366.0</ele><time>2026-04-26T12:18:47.863Z</time></trkpt><trkpt lat="42.7858512" lon="11.8529723"><ele>366.0</ele><time>2026-04-26T12:18:48.863Z</time></trkpt><trkpt lat="42.7860127" lon="11.853016"><ele>366.0</ele><time>2026-04-26T12:18:49.862Z</time></trkpt><trkpt lat="42.7861732" lon="11.8530728"><ele>369.3333333333333</ele><time>2026-04-26T12:18:50.863Z</time></trkpt><trkpt lat="42.7863387" lon="11.8531277"><ele>372.66666666666663</ele><time>2026-04-26T12:18:51.863Z</time></trkpt><trkpt lat="42.7865099" lon="11.8531833"><ele>376.0</ele><time>2026-04-26T12:18:52.863Z</time></trkpt><trkpt lat="42.7866774" lon="11.8532379"><ele>382.0</ele><time>2026-04-26T12:18:53.862Z</time></trkpt><trkpt lat="42.7868444" lon="11.853292"><ele>388.0</ele><time>2026-04-26T12:18:54.863Z</time></trkpt><trkpt lat="42.7870168" lon="11.8533406"><ele>394.0</ele><time>2026-04-26T12:18:55.863Z</time></trkpt><trkpt lat="42.7871854" lon="11.853388"><ele>394.0</ele><time>2026-04-26T12:18:56.863Z</time></trkpt><trkpt lat="42.7873483" lon="11.8534524"><ele>394.0</ele><time>2026-04-26T12:18:57.863Z</time></trkpt><trkpt lat="42.787505" lon="11.8535333"><ele>394.0</ele><time>2026-04-26T12:18:58.863Z</time></trkpt><trkpt lat="42.7876562" lon="11.8536469"><ele>392.6666666666667</ele><time>2026-04-26T12:18:59.863Z</time></trkpt><trkpt lat="42.7878014" lon="11.8537803"><ele>391.33333333333337</ele><time>2026-04-26T12:19:00.863Z</time></trkpt><trkpt lat="42.7879477" lon="11.8539219"><ele>390.0</ele><time>2026-04-26T12:19:01.863Z</time></trkpt><trkpt lat="42.7880948" lon="11.8540615"><ele>390.0</ele><time>2026-04-26T12:19:02.862Z</time></trkpt><trkpt lat="42.7882426" lon="11.854184"><ele>390.0</ele><time>2026-04-26T12:19:03.863Z</time></trkpt><trkpt lat="42.7883885" lon="11.8543075"><ele>390.0</ele><time>2026-04-26T12:19:04.863Z</time></trkpt><trkpt lat="42.7885286" lon="11.8544305"><ele>389.66666666666663</ele><time>2026-04-26T12:19:05.863Z</time></trkpt><trkpt lat="42.7886632" lon="11.8545527"><ele>389.3333333333333</ele><time>2026-04-26T12:19:06.862Z</time></trkpt><trkpt lat="42.7887912" lon="11.8546655"><ele>389.0</ele><time>2026-04-26T12:19:07.862Z</time></trkpt><trkpt lat="42.7889095" lon="11.8547563"><ele>389.0</ele><time>2026-04-26T12:19:08.863Z</time></trkpt><trkpt lat="42.7890302" lon="11.8548168"><ele>389.0</ele><time>2026-04-26T12:19:09.862Z</time></trkpt><trkpt lat="42.7891567" lon="11.8548293"><ele>389.0</ele><time>2026-04-26T12:19:10.862Z</time></trkpt><trkpt lat="42.7892929" lon="11.8547909"><ele>389.0</ele><time>2026-04-26T12:19:11.863Z</time></trkpt><trkpt lat="42.7894275" lon="11.8547391"><ele>388.5</ele><time>2026-04-26T12:19:12.863Z</time></trkpt><trkpt lat="42.7895628" lon="11.854694"><ele>388.0</ele><time>2026-04-26T12:19:13.863Z</time></trkpt><trkpt lat="42.789698" lon="11.8546376"><ele>387.5</ele><time>2026-04-26T12:19:14.863Z</time></trkpt><trkpt lat="42.7898408" lon="11.8545811"><ele>387.0</ele><time>2026-04-26T12:19:15.862Z</time></trkpt><trkpt lat="42.7899929" lon="11.8545556"><ele>387.0</ele><time>2026-04-26T12:19:16.863Z</time></trkpt><trkpt lat="42.7901546" lon="11.8545572"><ele>387.0</ele><time>2026-04-26T12:19:17.863Z</time></trkpt><trkpt lat="42.7903241" lon="11.8545935"><ele>387.0</ele><time>2026-04-26T12:19:18.863Z</time></trkpt><trkpt lat="42.7904865" lon="11.8546215"><ele>388.33333333333337</ele><time>2026-04-26T12:19:19.863Z</time></trkpt><trkpt lat="42.7906517" lon="11.8546581"><ele>389.6666666666667</ele><time>2026-04-26T12:19:20.863Z</time></trkpt><trkpt lat="42.7908142" lon="11.8546822"><ele>391.0</ele><time>2026-04-26T12:19:21.863Z</time></trkpt><trkpt lat="42.7909741" lon="11.8547127"><ele>396.0</ele><time>2026-04-26T12:19:22.863Z</time></trkpt><trkpt lat="42.79113" lon="11.8547806"><ele>401.0</ele><time>2026-04-26T12:19:23.862Z</time></trkpt><trkpt lat="42.7912689" lon="11.8548888"><ele>406.0</ele><time>2026-04-26T12:19:24.863Z</time></trkpt><trkpt lat="42.7914009" lon="11.8550113"><ele>406.0</ele><time>2026-04-26T12:19:25.863Z</time></trkpt><trkpt lat="42.7915374" lon="11.8551081"><ele>406.0</ele><time>2026-04-26T12:19:26.863Z</time></trkpt><trkpt lat="42.7916753" lon="11.8551768"><ele>406.0</ele><time>2026-04-26T12:19:27.863Z</time></trkpt><trkpt lat="42.7917995" lon="11.8552621"><ele>406.0</ele><time>2026-04-26T12:19:28.863Z</time></trkpt><trkpt lat="42.7919001" lon="11.8553976"><ele>409.33333333333337</ele><time>2026-04-26T12:19:29.862Z</time></trkpt><trkpt lat="42.7919877" lon="11.8555667"><ele>412.66666666666663</ele><time>2026-04-26T12:19:30.863Z</time></trkpt><trkpt lat="42.7920659" lon="11.8557518"><ele>416.0</ele><time>2026-04-26T12:19:31.863Z</time></trkpt><trkpt lat="42.7921423" lon="11.8559346"><ele>413.4</ele><time>2026-04-26T12:19:32.863Z</time></trkpt><trkpt lat="42.7922116" lon="11.8560952"><ele>410.8</ele><time>2026-04-26T12:19:33.863Z</time></trkpt><trkpt lat="42.7922676" lon="11.8562315"><ele>408.2</ele><time>2026-04-26T12:19:34.862Z</time></trkpt><trkpt lat="42.7923351" lon="11.8563369"><ele>405.59999999999997</ele><time>2026-04-26T12:19:35.863Z</time></trkpt><trkpt lat="42.7924187" lon="11.8563908"><ele>403.0</ele><time>2026-04-26T12:19:36.863Z</time></trkpt><trkpt lat="42.7925014" lon="11.8563665"><ele>403.0</ele><time>2026-04-26T12:19:37.863Z</time></trkpt><trkpt lat="42.7925677" lon="11.8562933"><ele>403.0</ele><time>2026-04-26T12:19:38.863Z</time></trkpt><trkpt lat="42.7925999" lon="11.8561543"><ele>403.0</ele><time>2026-04-26T12:19:39.863Z</time></trkpt><trkpt lat="42.7925876" lon="11.85601"><ele>403.0</ele><time>2026-04-26T12:19:40.863Z</time></trkpt><trkpt lat="42.7925489" lon="11.8558559"><ele>403.0</ele><time>2026-04-26T12:19:41.863Z</time></trkpt><trkpt lat="42.792516" lon="11.8556934"><ele>406.25</ele><time>2026-04-26T12:19:42.862Z</time></trkpt><trkpt lat="42.7924882" lon="11.8555363"><ele>409.5</ele><time>2026-04-26T12:19:43.862Z</time></trkpt><trkpt lat="42.7924612" lon="11.8553584"><ele>412.75</ele><time>2026-04-26T12:19:44.862Z</time></trkpt><trkpt lat="42.7924066" lon="11.8551801"><ele>416.0</ele><time>2026-04-26T12:19:45.863Z</time></trkpt><trkpt lat="42.7923343" lon="11.8550201"><ele>420.75</ele><time>2026-04-26T12:19:46.863Z</time></trkpt><trkpt lat="42.7922372" lon="11.854898"><ele>425.5</ele><time>2026-04-26T12:19:47.863Z</time></trkpt><trkpt lat="42.7921194" lon="11.8548189"><ele>430.25</ele><time>2026-04-26T12:19:48.863Z</time></trkpt><trkpt lat="42.7919973" lon="11.8547712"><ele>435.0</ele><time>2026-04-26T12:19:49.863Z</time></trkpt><trkpt lat="42.791882" lon="11.8547406"><ele>427.75</ele><time>2026-04-26T12:19:50.863Z</time></trkpt><trkpt lat="42.7917732" lon="11.8546928"><ele>420.5</ele><time>2026-04-26T12:19:51.863Z</time></trkpt><trkpt lat="42.7916914" lon="11.8545969"><ele>413.25</ele><time>2026-04-26T12:19:52.863Z</time></trkpt><trkpt lat="42.7916263" lon="11.8544434"><ele>406.0</ele><time>2026-04-26T12:19:53.863Z</time></trkpt><trkpt lat="42.7915621" lon="11.8543008"><ele>412.25</ele><time>2026-04-26T12:19:54.863Z</time></trkpt><trkpt lat="42.7915046" lon="11.8541487"><ele>418.5</ele><time>2026-04-26T12:19:55.863Z</time></trkpt><trkpt lat="42.7914341" lon="11.8540148"><ele>424.75</ele><time>2026-04-26T12:19:56.863Z</time></trkpt><trkpt lat="42.7913342" lon="11.8539139"><ele>431.0</ele><time>2026-04-26T12:19:57.863Z</time></trkpt><trkpt lat="42.7911999" lon="11.8538308"><ele>431.0</ele><time>2026-04-26T12:19:58.863Z</time></trkpt><trkpt lat="42.7910533" lon="11.8537734"><ele>431.0</ele><time>2026-04-26T12:19:59.863Z</time></trkpt><trkpt lat="42.7908946" lon="11.8537356"><ele>431.0</ele><time>2026-04-26T12:20:00.863Z</time></trkpt><trkpt lat="42.7907425" lon="11.8536885"><ele>426.3333333333333</ele><time>2026-04-26T12:20:01.863Z</time></trkpt><trkpt lat="42.7905913" lon="11.8536233"><ele>421.66666666666663</ele><time>2026-04-26T12:20:02.862Z</time></trkpt><trkpt lat="42.7904311" lon="11.8535681"><ele>417.0</ele><time>2026-04-26T12:20:03.863Z</time></trkpt><trkpt lat="42.7902657" lon="11.8535135"><ele>416.33333333333337</ele><time>2026-04-26T12:20:04.863Z</time></trkpt><trkpt lat="42.7901008" lon="11.8534606"><ele>415.6666666666667</ele><time>2026-04-26T12:20:05.863Z</time></trkpt><trkpt lat="42.7899373" lon="11.8534097"><ele>415.0</ele><time>2026-04-26T12:20:06.862Z</time></trkpt><trkpt lat="42.7897705" lon="11.8533578"><ele>419.6666666666667</ele><time>2026-04-26T12:20:07.863Z</time></trkpt><trkpt lat="42.7896106" lon="11.853293"><ele>424.33333333333337</ele><time>2026-04-26T12:20:08.862Z</time></trkpt><trkpt lat="42.7894589" lon="11.8532253"><ele>429.0</ele><time>2026-04-26T12:20:09.863Z</time></trkpt><trkpt lat="42.7893204" lon="11.8531099"><ele>429.0</ele><time>2026-04-26T12:20:10.863Z</time></trkpt><trkpt lat="42.7892114" lon="11.8529613"><ele>429.0</ele><time>2026-04-26T12:20:11.863Z</time></trkpt><trkpt lat="42.7891332" lon="11.8527615"><ele>429.0</ele><time>2026-04-26T12:20:12.863Z</time></trkpt><trkpt lat="42.7890513" lon="11.8525794"><ele>436.33333333333337</ele><time>2026-04-26T12:20:13.863Z</time></trkpt><trkpt lat="42.7889415" lon="11.8524189"><ele>443.6666666666667</ele><time>2026-04-26T12:20:14.863Z</time></trkpt><trkpt lat="42.7888127" lon="11.8522845"><ele>451.0</ele><time>2026-04-26T12:20:15.863Z</time></trkpt><trkpt lat="42.7886736" lon="11.8521621"><ele>451.0</ele><time>2026-04-26T12:20:16.862Z</time></trkpt><trkpt lat="42.7885299" lon="11.8520852"><ele>451.0</ele><time>2026-04-26T12:20:17.863Z</time></trkpt><trkpt lat="42.7883749" lon="11.8520256"><ele>451.0</ele><time>2026-04-26T12:20:18.863Z</time></trkpt><trkpt lat="42.7882162" lon="11.8519758"><ele>452.0</ele><time>2026-04-26T12:20:19.863Z</time></trkpt><trkpt lat="42.7880597" lon="11.851932"><ele>453.0</ele><time>2026-04-26T12:20:20.862Z</time></trkpt><trkpt lat="42.7879197" lon="11.8518975"><ele>454.0</ele><time>2026-04-26T12:20:21.862Z</time></trkpt><trkpt lat="42.7878024" lon="11.8518326"><ele>455.0</ele><time>2026-04-26T12:20:22.862Z</time></trkpt><trkpt lat="42.7877262" lon="11.8517252"><ele>455.0</ele><time>2026-04-26T12:20:23.863Z</time></trkpt><trkpt lat="42.7877026" lon="11.8516026"><ele>455.0</ele><time>2026-04-26T12:20:24.863Z</time></trkpt><trkpt lat="42.7877272" lon="11.8515044"><ele>455.0</ele><time>2026-04-26T12:20:25.863Z</time></trkpt><trkpt lat="42.7878096" lon="11.8514162"><ele>455.0</ele><time>2026-04-26T12:20:26.863Z</time></trkpt><trkpt lat="42.7879234" lon="11.8513835"><ele>455.0</ele><time>2026-04-26T12:20:27.862Z</time></trkpt><trkpt lat="42.7880474" lon="11.8513793"><ele>455.0</ele><time>2026-04-26T12:20:28.863Z</time></trkpt><trkpt lat="42.7881734" lon="11.8514014"><ele>455.0</ele><time>2026-04-26T12:20:29.863Z</time></trkpt><trkpt lat="42.7883043" lon="11.8514425"><ele>455.0</ele><time>2026-04-26T12:20:30.863Z</time></trkpt><trkpt lat="42.7884367" lon="11.8515021"><ele>455.0</ele><time>2026-04-26T12:20:31.863Z</time></trkpt><trkpt lat="42.7885848" lon="11.8515643"><ele>455.66666666666663</ele><time>2026-04-26T12:20:32.862Z</time></trkpt><trkpt lat="42.7887373" lon="11.8516243"><ele>456.33333333333337</ele><time>2026-04-26T12:20:33.863Z</time></trkpt><trkpt lat="42.7889015" lon="11.8516932"><ele>457.0</ele><time>2026-04-26T12:20:34.862Z</time></trkpt><trkpt lat="42.789064" lon="11.8517802"><ele>455.0</ele><time>2026-04-26T12:20:35.862Z</time></trkpt><trkpt lat="42.7892199" lon="11.8518877"><ele>453.0</ele><time>2026-04-26T12:20:36.863Z</time></trkpt><trkpt lat="42.7893663" lon="11.8520213"><ele>451.0</ele><time>2026-04-26T12:20:37.863Z</time></trkpt><trkpt lat="42.7895144" lon="11.8521542"><ele>455.0</ele><time>2026-04-26T12:20:38.863Z</time></trkpt><trkpt lat="42.7896684" lon="11.8522599"><ele>459.0</ele><time>2026-04-26T12:20:39.862Z</time></trkpt><trkpt lat="42.7898371" lon="11.8523292"><ele>463.0</ele><time>2026-04-26T12:20:40.863Z</time></trkpt><trkpt lat="42.7900091" lon="11.8523475"><ele>464.0</ele><time>2026-04-26T12:20:41.863Z</time></trkpt><trkpt lat="42.7901903" lon="11.8523348"><ele>465.0</ele><time>2026-04-26T12:20:42.862Z</time></trkpt><trkpt lat="42.7903708" lon="11.8522915"><ele>466.0</ele><time>2026-04-26T12:20:43.862Z</time></trkpt><trkpt lat="42.7905426" lon="11.8522082"><ele>466.0</ele><time>2026-04-26T12:20:44.863Z</time></trkpt><trkpt lat="42.7907114" lon="11.852116"><ele>466.0</ele><time>2026-04-26T12:20:45.862Z</time></trkpt><trkpt lat="42.7908796" lon="11.8520306"><ele>466.0</ele><time>2026-04-26T12:20:46.863Z</time></trkpt><trkpt lat="42.7910545" lon="11.8519644"><ele>467.6666666666667</ele><time>2026-04-26T12:20:47.862Z</time></trkpt><trkpt lat="42.7912362" lon="11.8519253"><ele>469.33333333333337</ele><time>2026-04-26T12:20:48.862Z</time></trkpt><trkpt lat="42.7914213" lon="11.8518883"><ele>471.0</ele><time>2026-04-26T12:20:49.863Z</time></trkpt><trkpt lat="42.7916086" lon="11.8518456"><ele>471.0</ele><time>2026-04-26T12:20:50.863Z</time></trkpt><trkpt lat="42.7917941" lon="11.8518095"><ele>471.0</ele><time>2026-04-26T12:20:51.862Z</time></trkpt><trkpt lat="42.7919763" lon="11.8517796"><ele>471.0</ele><time>2026-04-26T12:20:52.863Z</time></trkpt><trkpt lat="42.7921588" lon="11.8517633"><ele>475.66666666666663</ele><time>2026-04-26T12:20:53.863Z</time></trkpt><trkpt lat="42.7923309" lon="11.8517805"><ele>480.3333333333333</ele><time>2026-04-26T12:20:54.863Z</time></trkpt><trkpt lat="42.7925029" lon="11.8518243"><ele>485.0</ele><time>2026-04-26T12:20:55.863Z</time></trkpt><trkpt lat="42.7926819" lon="11.8518952"><ele>490.0</ele><time>2026-04-26T12:20:56.862Z</time></trkpt><trkpt lat="42.7928521" lon="11.851967"><ele>495.0</ele><time>2026-04-26T12:20:57.863Z</time></trkpt><trkpt lat="42.7930138" lon="11.8520347"><ele>500.0</ele><time>2026-04-26T12:20:58.863Z</time></trkpt><trkpt lat="42.7931712" lon="11.8520914"><ele>500.0</ele><time>2026-04-26T12:20:59.862Z</time></trkpt><trkpt lat="42.7933172" lon="11.8521287"><ele>500.0</ele><time>2026-04-26T12:21:00.862Z</time></trkpt><trkpt lat="42.7934516" lon="11.8521094"><ele>500.0</ele><time>2026-04-26T12:21:01.863Z</time></trkpt><trkpt lat="42.7935757" lon="11.8520254"><ele>500.0</ele><time>2026-04-26T12:21:02.863Z</time></trkpt><trkpt lat="42.7936767" lon="11.8519011"><ele>501.0</ele><time>2026-04-26T12:21:03.862Z</time></trkpt><trkpt lat="42.7937562" lon="11.8517359"><ele>502.0</ele><time>2026-04-26T12:21:04.863Z</time></trkpt><trkpt lat="42.7938095" lon="11.851576"><ele>503.0</ele><time>2026-04-26T12:21:05.863Z</time></trkpt><trkpt lat="42.793875" lon="11.8514426"><ele>504.0</ele><time>2026-04-26T12:21:06.863Z</time></trkpt><trkpt lat="42.7939676" lon="11.8513981"><ele>504.0</ele><time>2026-04-26T12:21:07.863Z</time></trkpt><trkpt lat="42.7940525" lon="11.85142"><ele>504.0</ele><time>2026-04-26T12:21:08.863Z</time></trkpt><trkpt lat="42.7941432" lon="11.8514871"><ele>504.0</ele><time>2026-04-26T12:21:09.863Z</time></trkpt><trkpt lat="42.7942124" lon="11.8515915"><ele>504.0</ele><time>2026-04-26T12:21:10.863Z</time></trkpt><trkpt lat="42.7942674" lon="11.8517368"><ele>504.0</ele><time>2026-04-26T12:21:11.863Z</time></trkpt><trkpt lat="42.7943344" lon="11.8518887"><ele>507.25</ele><time>2026-04-26T12:21:12.863Z</time></trkpt><trkpt lat="42.7944198" lon="11.8520407"><ele>510.5</ele><time>2026-04-26T12:21:13.863Z</time></trkpt><trkpt lat="42.7945318" lon="11.8521632"><ele>513.75</ele><time>2026-04-26T12:21:14.863Z</time></trkpt><trkpt lat="42.7946628" lon="11.8522586"><ele>517.0</ele><time>2026-04-26T12:21:15.863Z</time></trkpt><trkpt lat="42.794811" lon="11.8523305"><ele>517.0</ele><time>2026-04-26T12:21:16.863Z</time></trkpt><trkpt lat="42.7949752" lon="11.8523889"><ele>517.0</ele><time>2026-04-26T12:21:17.863Z</time></trkpt><trkpt lat="42.7951339" lon="11.8524622"><ele>517.0</ele><time>2026-04-26T12:21:18.862Z</time></trkpt><trkpt lat="42.7953063" lon="11.8525538"><ele>519.0</ele><time>2026-04-26T12:21:19.862Z</time></trkpt><trkpt lat="42.7954844" lon="11.8526576"><ele>521.0</ele><time>2026-04-26T12:21:20.863Z</time></trkpt><trkpt lat="42.7956587" lon="11.8527502"><ele>523.0</ele><time>2026-04-26T12:21:21.862Z</time></trkpt><trkpt lat="42.7958426" lon="11.8528427"><ele>520.3333333333334</ele><time>2026-04-26T12:21:22.863Z</time></trkpt><trkpt lat="42.7960319" lon="11.8529364"><ele>517.6666666666666</ele><time>2026-04-26T12:21:23.863Z</time></trkpt><trkpt lat="42.7962219" lon="11.8530326"><ele>515.0</ele><time>2026-04-26T12:21:24.863Z</time></trkpt><trkpt lat="42.7964118" lon="11.8531359"><ele>515.0</ele><time>2026-04-26T12:21:25.862Z</time></trkpt><trkpt lat="42.796605" lon="11.8532393"><ele>515.0</ele><time>2026-04-26T12:21:26.863Z</time></trkpt><trkpt lat="42.7967985" lon="11.8533451"><ele>515.0</ele><time>2026-04-26T12:21:27.862Z</time></trkpt><trkpt lat="42.7969885" lon="11.853454"><ele>518.0</ele><time>2026-04-26T12:21:28.863Z</time></trkpt><trkpt lat="42.7971804" lon="11.8535565"><ele>521.0</ele><time>2026-04-26T12:21:29.863Z</time></trkpt><trkpt lat="42.7973651" lon="11.8536634"><ele>524.0</ele><time>2026-04-26T12:21:30.863Z</time></trkpt><trkpt lat="42.7975463" lon="11.8537759"><ele>523.6666666666666</ele><time>2026-04-26T12:21:31.862Z</time></trkpt><trkpt lat="42.7977184" lon="11.8538854"><ele>523.3333333333334</ele><time>2026-04-26T12:21:32.863Z</time></trkpt><trkpt lat="42.7978828" lon="11.8539917"><ele>523.0</ele><time>2026-04-26T12:21:33.862Z</time></trkpt><trkpt lat="42.7980275" lon="11.8540869"><ele>523.0</ele><time>2026-04-26T12:21:34.862Z</time></trkpt><trkpt lat="42.798159" lon="11.8541654"><ele>523.0</ele><time>2026-04-26T12:21:35.862Z</time></trkpt><trkpt lat="42.7982841" lon="11.8542175"><ele>523.0</ele><time>2026-04-26T12:21:36.863Z</time></trkpt><trkpt lat="42.7983993" lon="11.8542123"><ele>523.0</ele><time>2026-04-26T12:21:37.862Z</time></trkpt><trkpt lat="42.7985012" lon="11.8541713"><ele>521.4</ele><time>2026-04-26T12:21:38.862Z</time></trkpt><trkpt lat="42.7985903" lon="11.8541062"><ele>519.8</ele><time>2026-04-26T12:21:39.863Z</time></trkpt><trkpt lat="42.7986648" lon="11.8540208"><ele>518.2</ele><time>2026-04-26T12:21:40.863Z</time></trkpt><trkpt lat="42.7987327" lon="11.8539046"><ele>516.6</ele><time>2026-04-26T12:21:41.862Z</time></trkpt><trkpt lat="42.7987853" lon="11.8537477"><ele>515.0</ele><time>2026-04-26T12:21:42.862Z</time></trkpt><trkpt lat="42.7988241" lon="11.8535625"><ele>515.6666666666666</ele><time>2026-04-26T12:21:43.863Z</time></trkpt><trkpt lat="42.7988506" lon="11.853363"><ele>516.3333333333334</ele><time>2026-04-26T12:21:44.863Z</time></trkpt><trkpt lat="42.7988823" lon="11.8531505"><ele>517.0</ele><time>2026-04-26T12:21:45.862Z</time></trkpt><trkpt lat="42.7989203" lon="11.8529416"><ele>517.0</ele><time>2026-04-26T12:21:46.863Z</time></trkpt><trkpt lat="42.7989601" lon="11.8527222"><ele>517.0</ele><time>2026-04-26T12:21:47.863Z</time></trkpt><trkpt lat="42.7989922" lon="11.8525009"><ele>517.0</ele><time>2026-04-26T12:21:48.862Z</time></trkpt><trkpt lat="42.799022" lon="11.8522763"><ele>519.0</ele><time>2026-04-26T12:21:49.862Z</time></trkpt><trkpt lat="42.7990394" lon="11.8520525"><ele>521.0</ele><time>2026-04-26T12:21:50.862Z</time></trkpt><trkpt lat="42.7990459" lon="11.8518346"><ele>523.0</ele><time>2026-04-26T12:21:51.863Z</time></trkpt><trkpt lat="42.7990409" lon="11.8516292"><ele>524.75</ele><time>2026-04-26T12:21:52.863Z</time></trkpt><trkpt lat="42.7990424" lon="11.8514331"><ele>526.5</ele><time>2026-04-26T12:21:53.863Z</time></trkpt><trkpt lat="42.799074" lon="11.8512504"><ele>528.25</ele><time>2026-04-26T12:21:54.863Z</time></trkpt><trkpt lat="42.7991381" lon="11.8511167"><ele>530.0</ele><time>2026-04-26T12:21:55.863Z</time></trkpt><trkpt lat="42.7992415" lon="11.8509958"><ele>531.0</ele><time>2026-04-26T12:21:56.863Z</time></trkpt><trkpt lat="42.799355" lon="11.8508842"><ele>532.0</ele><time>2026-04-26T12:21:57.863Z</time></trkpt><trkpt lat="42.7994642" lon="11.8507603"><ele>533.0</ele><time>2026-04-26T12:21:58.863Z</time></trkpt><trkpt lat="42.7995537" lon="11.8506003"><ele>534.0</ele><time>2026-04-26T12:21:59.863Z</time></trkpt><trkpt lat="42.7996281" lon="11.850415"><ele>534.0</ele><time>2026-04-26T12:22:00.863Z</time></trkpt><trkpt lat="42.7997069" lon="11.8502352"><ele>534.0</ele><time>2026-04-26T12:22:01.863Z</time></trkpt><trkpt lat="42.7997903" lon="11.8500659"><ele>534.0</ele><time>2026-04-26T12:22:02.863Z</time></trkpt><trkpt lat="42.7998787" lon="11.8499164"><ele>534.0</ele><time>2026-04-26T12:22:03.862Z</time></trkpt><trkpt lat="42.7999931" lon="11.8498087"><ele>537.25</ele><time>2026-04-26T12:22:04.863Z</time></trkpt><trkpt lat="42.800119" lon="11.8497491"><ele>540.5</ele><time>2026-04-26T12:22:05.863Z</time></trkpt><trkpt lat="42.8002695" lon="11.8497507"><ele>543.75</ele><time>2026-04-26T12:22:06.863Z</time></trkpt><trkpt lat="42.8004186" lon="11.849752"><ele>547.0</ele><time>2026-04-26T12:22:07.863Z</time></trkpt><trkpt lat="42.8005619" lon="11.8497273"><ele>547.0</ele><time>2026-04-26T12:22:08.863Z</time></trkpt><trkpt lat="42.8007012" lon="11.8496546"><ele>547.0</ele><time>2026-04-26T12:22:09.863Z</time></trkpt><trkpt lat="42.8008275" lon="11.8495346"><ele>547.0</ele><time>2026-04-26T12:22:10.863Z</time></trkpt><trkpt lat="42.8009503" lon="11.8493983"><ele>551.25</ele><time>2026-04-26T12:22:11.863Z</time></trkpt><trkpt lat="42.8010702" lon="11.8492698"><ele>555.5</ele><time>2026-04-26T12:22:12.863Z</time></trkpt><trkpt lat="42.8011911" lon="11.8491688"><ele>559.75</ele><time>2026-04-26T12:22:13.863Z</time></trkpt><trkpt lat="42.8013244" lon="11.8490855"><ele>564.0</ele><time>2026-04-26T12:22:14.862Z</time></trkpt><trkpt lat="42.8014665" lon="11.8490492"><ele>564.0</ele><time>2026-04-26T12:22:15.863Z</time></trkpt><trkpt lat="42.8016168" lon="11.8490587"><ele>564.0</ele><time>2026-04-26T12:22:16.863Z</time></trkpt><trkpt lat="42.8017694" lon="11.8490829"><ele>564.0</ele><time>2026-04-26T12:22:17.863Z</time></trkpt><trkpt lat="42.8019205" lon="11.8491257"><ele>563.3333333333334</ele><time>2026-04-26T12:22:18.863Z</time></trkpt><trkpt lat="42.802071" lon="11.8491846"><ele>562.6666666666667</ele><time>2026-04-26T12:22:19.863Z</time></trkpt><trkpt lat="42.8022127" lon="11.8492605"><ele>562.0</ele><time>2026-04-26T12:22:20.863Z</time></trkpt><trkpt lat="42.8023445" lon="11.8493684"><ele>562.0</ele><time>2026-04-26T12:22:21.863Z</time></trkpt><trkpt lat="42.8024579" lon="11.8494974"><ele>562.0</ele><time>2026-04-26T12:22:22.863Z</time></trkpt><trkpt lat="42.8025568" lon="11.8496597"><ele>562.0</ele><time>2026-04-26T12:22:23.862Z</time></trkpt><trkpt lat="42.8026567" lon="11.8498369"><ele>562.3333333333334</ele><time>2026-04-26T12:22:24.863Z</time></trkpt><trkpt lat="42.8027546" lon="11.8500112"><ele>562.6666666666666</ele><time>2026-04-26T12:22:25.863Z</time></trkpt><trkpt lat="42.8028478" lon="11.8501777"><ele>563.0</ele><time>2026-04-26T12:22:26.863Z</time></trkpt><trkpt lat="42.8029316" lon="11.8503244"><ele>563.0</ele><time>2026-04-26T12:22:27.863Z</time></trkpt><trkpt lat="42.8030075" lon="11.8504546"><ele>563.0</ele><time>2026-04-26T12:22:28.863Z</time></trkpt><trkpt lat="42.8030829" lon="11.8505643"><ele>563.0</ele><time>2026-04-26T12:22:29.863Z</time></trkpt><trkpt lat="42.8031651" lon="11.8506266"><ele>563.0</ele><time>2026-04-26T12:22:30.863Z</time></trkpt><trkpt lat="42.8032699" lon="11.8506408"><ele>563.0</ele><time>2026-04-26T12:22:31.863Z</time></trkpt><trkpt lat="42.8033868" lon="11.8506091"><ele>563.5</ele><time>2026-04-26T12:22:32.862Z</time></trkpt><trkpt lat="42.8035085" lon="11.8505764"><ele>564.0</ele><time>2026-04-26T12:22:33.863Z</time></trkpt><trkpt lat="42.8036338" lon="11.8505271"><ele>564.5</ele><time>2026-04-26T12:22:34.863Z</time></trkpt><trkpt lat="42.8037638" lon="11.8504828"><ele>565.0</ele><time>2026-04-26T12:22:35.863Z</time></trkpt><trkpt lat="42.8038986" lon="11.850455"><ele>565.0</ele><time>2026-04-26T12:22:36.863Z</time></trkpt><trkpt lat="42.8040373" lon="11.850468"><ele>565.0</ele><time>2026-04-26T12:22:37.863Z</time></trkpt><trkpt lat="42.8041881" lon="11.8505142"><ele>565.0</ele><time>2026-04-26T12:22:38.862Z</time></trkpt><trkpt lat="42.8043337" lon="11.8505867"><ele>565.0</ele><time>2026-04-26T12:22:39.863Z</time></trkpt><trkpt lat="42.8044512" lon="11.8506427"><ele>574.0</ele><time>2026-04-26T12:22:40.863Z</time></trkpt><trkpt lat="42.8045379" lon="11.8506812"><ele>574.0</ele><time>2026-04-26T12:22:41.863Z</time></trkpt><trkpt lat="42.8046068" lon="11.8507138"><ele>574.0</ele><time>2026-04-26T12:22:43.863Z</time></trkpt><trkpt lat="42.8045641" lon="11.8508228"><ele>574.0</ele><time>2026-04-26T12:22:46.863Z</time></trkpt><trkpt lat="42.8045004" lon="11.850898"><ele>574.0</ele><time>2026-04-26T12:22:49.863Z</time></trkpt><trkpt lat="42.8044254" lon="11.8509431"><ele>574.0</ele><time>2026-04-26T12:22:52.863Z</time></trkpt></trkseg><trkseg><trkpt lat="42.804317" lon="11.8508235"><ele>565.0</ele><time>2026-04-26T12:40:22.861Z</time></trkpt><trkpt lat="42.8043148" lon="11.8507283"><ele>565.0</ele><time>2026-04-26T12:40:24.862Z</time></trkpt><trkpt lat="42.8043822" lon="11.8506534"><ele>565.0</ele><time>2026-04-26T12:40:28.862Z</time></trkpt><trkpt lat="42.8044981" lon="11.8507028"><ele>565.0</ele><time>2026-04-26T12:40:30.862Z</time></trkpt><trkpt lat="42.8045713" lon="11.8507245"><ele>565.0</ele><time>2026-04-26T12:40:31.861Z</time></trkpt><trkpt lat="42.8046519" lon="11.850746"><ele>565.0</ele><time>2026-04-26T12:40:32.862Z</time></trkpt><trkpt lat="42.8047344" lon="11.8507683"><ele>567.25</ele><time>2026-04-26T12:40:33.862Z</time></trkpt><trkpt lat="42.8048202" lon="11.8508036"><ele>569.5</ele><time>2026-04-26T12:40:34.862Z</time></trkpt><trkpt lat="42.8049277" lon="11.8508539"><ele>571.75</ele><time>2026-04-26T12:40:35.861Z</time></trkpt><trkpt lat="42.8050397" lon="11.8509152"><ele>574.0</ele><time>2026-04-26T12:40:36.862Z</time></trkpt><trkpt lat="42.8051601" lon="11.8509661"><ele>571.5</ele><time>2026-04-26T12:40:37.862Z</time></trkpt><trkpt lat="42.8052866" lon="11.8510192"><ele>569.0</ele><time>2026-04-26T12:40:38.862Z</time></trkpt><trkpt lat="42.8054196" lon="11.8510696"><ele>566.5</ele><time>2026-04-26T12:40:39.862Z</time></trkpt><trkpt lat="42.8055477" lon="11.8511308"><ele>564.0</ele><time>2026-04-26T12:40:40.861Z</time></trkpt><trkpt lat="42.8056809" lon="11.8511942"><ele>564.0</ele><time>2026-04-26T12:40:41.861Z</time></trkpt><trkpt lat="42.8058191" lon="11.8512587"><ele>564.0</ele><time>2026-04-26T12:40:42.862Z</time></trkpt><trkpt lat="42.8059578" lon="11.851335"><ele>564.0</ele><time>2026-04-26T12:40:43.862Z</time></trkpt><trkpt lat="42.8060873" lon="11.8514335"><ele>564.0</ele><time>2026-04-26T12:40:44.861Z</time></trkpt><trkpt lat="42.8062132" lon="11.8515497"><ele>561.0</ele><time>2026-04-26T12:40:45.862Z</time></trkpt><trkpt lat="42.806343" lon="11.8516689"><ele>558.0</ele><time>2026-04-26T12:40:46.862Z</time></trkpt><trkpt lat="42.8064711" lon="11.8517875"><ele>555.0</ele><time>2026-04-26T12:40:47.862Z</time></trkpt><trkpt lat="42.8066081" lon="11.8519034"><ele>555.0</ele><time>2026-04-26T12:40:48.862Z</time></trkpt><trkpt lat="42.8067426" lon="11.8520191"><ele>555.0</ele><time>2026-04-26T12:40:49.861Z</time></trkpt><trkpt lat="42.8068743" lon="11.8521404"><ele>555.0</ele><time>2026-04-26T12:40:50.862Z</time></trkpt><trkpt lat="42.8069909" lon="11.8522778"><ele>556.6666666666666</ele><time>2026-04-26T12:40:51.861Z</time></trkpt><trkpt lat="42.8070928" lon="11.8524395"><ele>558.3333333333333</ele><time>2026-04-26T12:40:52.862Z</time></trkpt><trkpt lat="42.807174" lon="11.8526129"><ele>560.0</ele><time>2026-04-26T12:40:53.862Z</time></trkpt><trkpt lat="42.8072609" lon="11.85278"><ele>560.0</ele><time>2026-04-26T12:40:54.862Z</time></trkpt><trkpt lat="42.8073527" lon="11.8529388"><ele>560.0</ele><time>2026-04-26T12:40:55.862Z</time></trkpt><trkpt lat="42.8074605" lon="11.8530853"><ele>560.0</ele><time>2026-04-26T12:40:56.862Z</time></trkpt><trkpt lat="42.8075863" lon="11.8532173"><ele>560.6666666666666</ele><time>2026-04-26T12:40:57.861Z</time></trkpt><trkpt lat="42.8077212" lon="11.8533208"><ele>561.3333333333334</ele><time>2026-04-26T12:40:58.862Z</time></trkpt><trkpt lat="42.8078617" lon="11.853431"><ele>562.0</ele><time>2026-04-26T12:40:59.861Z</time></trkpt><trkpt lat="42.8080104" lon="11.853544"><ele>563.0</ele><time>2026-04-26T12:41:00.862Z</time></trkpt><trkpt lat="42.8081588" lon="11.85367"><ele>564.0</ele><time>2026-04-26T12:41:01.862Z</time></trkpt><trkpt lat="42.8082995" lon="11.8538044"><ele>565.0</ele><time>2026-04-26T12:41:02.862Z</time></trkpt><trkpt lat="42.8084438" lon="11.8539352"><ele>565.3333333333334</ele><time>2026-04-26T12:41:03.862Z</time></trkpt><trkpt lat="42.8085901" lon="11.8540654"><ele>565.6666666666666</ele><time>2026-04-26T12:41:04.862Z</time></trkpt><trkpt lat="42.8087416" lon="11.8541873"><ele>566.0</ele><time>2026-04-26T12:41:05.862Z</time></trkpt><trkpt lat="42.8088946" lon="11.8543086"><ele>566.3333333333333</ele><time>2026-04-26T12:41:06.862Z</time></trkpt><trkpt lat="42.8090408" lon="11.854434"><ele>566.6666666666666</ele><time>2026-04-26T12:41:07.862Z</time></trkpt><trkpt lat="42.8091891" lon="11.8545583"><ele>567.0</ele><time>2026-04-26T12:41:08.862Z</time></trkpt><trkpt lat="42.8093362" lon="11.8546821"><ele>567.0</ele><time>2026-04-26T12:41:09.861Z</time></trkpt><trkpt lat="42.8094844" lon="11.8548054"><ele>567.0</ele><time>2026-04-26T12:41:10.862Z</time></trkpt><trkpt lat="42.809637" lon="11.8549342"><ele>567.0</ele><time>2026-04-26T12:41:11.862Z</time></trkpt><trkpt lat="42.8097897" lon="11.8550649"><ele>567.6666666666666</ele><time>2026-04-26T12:41:12.862Z</time></trkpt><trkpt lat="42.8099433" lon="11.8551861"><ele>568.3333333333333</ele><time>2026-04-26T12:41:13.862Z</time></trkpt><trkpt lat="42.8101037" lon="11.8553156"><ele>569.0</ele><time>2026-04-26T12:41:14.861Z</time></trkpt><trkpt lat="42.8102627" lon="11.8554492"><ele>569.0</ele><time>2026-04-26T12:41:15.862Z</time></trkpt><trkpt lat="42.8104216" lon="11.8555826"><ele>569.0</ele><time>2026-04-26T12:41:16.862Z</time></trkpt><trkpt lat="42.8105817" lon="11.855713"><ele>569.0</ele><time>2026-04-26T12:41:17.862Z</time></trkpt><trkpt lat="42.8107405" lon="11.8558444"><ele>567.3333333333333</ele><time>2026-04-26T12:41:18.862Z</time></trkpt><trkpt lat="42.8108998" lon="11.8559784"><ele>565.6666666666666</ele><time>2026-04-26T12:41:19.862Z</time></trkpt><trkpt lat="42.8110569" lon="11.856132"><ele>564.0</ele><time>2026-04-26T12:41:20.862Z</time></trkpt><trkpt lat="42.811205" lon="11.8562931"><ele>562.6666666666666</ele><time>2026-04-26T12:41:21.862Z</time></trkpt><trkpt lat="42.8113462" lon="11.8564636"><ele>561.3333333333333</ele><time>2026-04-26T12:41:22.861Z</time></trkpt><trkpt lat="42.8114821" lon="11.8566431"><ele>560.0</ele><time>2026-04-26T12:41:23.862Z</time></trkpt><trkpt lat="42.8116164" lon="11.8568173"><ele>559.6666666666666</ele><time>2026-04-26T12:41:24.862Z</time></trkpt><trkpt lat="42.8117554" lon="11.8569718"><ele>559.3333333333334</ele><time>2026-04-26T12:41:25.862Z</time></trkpt><trkpt lat="42.8119142" lon="11.8570955"><ele>559.0</ele><time>2026-04-26T12:41:26.862Z</time></trkpt><trkpt lat="42.8120867" lon="11.8571837"><ele>559.0</ele><time>2026-04-26T12:41:27.862Z</time></trkpt><trkpt lat="42.8122537" lon="11.8572628"><ele>559.0</ele><time>2026-04-26T12:41:28.862Z</time></trkpt><trkpt lat="42.8124099" lon="11.8573648"><ele>559.0</ele><time>2026-04-26T12:41:29.862Z</time></trkpt><trkpt lat="42.8125449" lon="11.8575155"><ele>556.6666666666667</ele><time>2026-04-26T12:41:30.862Z</time></trkpt><trkpt lat="42.8126627" lon="11.857693"><ele>554.3333333333334</ele><time>2026-04-26T12:41:31.861Z</time></trkpt><trkpt lat="42.8127586" lon="11.8578969"><ele>552.0</ele><time>2026-04-26T12:41:32.862Z</time></trkpt><trkpt lat="42.8128507" lon="11.8581064"><ele>552.0</ele><time>2026-04-26T12:41:33.862Z</time></trkpt><trkpt lat="42.8129556" lon="11.8583276"><ele>552.0</ele><time>2026-04-26T12:41:34.861Z</time></trkpt><trkpt lat="42.813065" lon="11.8585441"><ele>552.0</ele><time>2026-04-26T12:41:35.861Z</time></trkpt><trkpt lat="42.8131751" lon="11.8587742"><ele>552.0</ele><time>2026-04-26T12:41:36.861Z</time></trkpt><trkpt lat="42.8132818" lon="11.8590058"><ele>552.0</ele><time>2026-04-26T12:41:37.862Z</time></trkpt><trkpt lat="42.8133926" lon="11.859239"><ele>552.0</ele><time>2026-04-26T12:41:38.862Z</time></trkpt><trkpt lat="42.8135096" lon="11.8594728"><ele>552.0</ele><time>2026-04-26T12:41:39.862Z</time></trkpt><trkpt lat="42.8136244" lon="11.8597149"><ele>552.0</ele><time>2026-04-26T12:41:40.862Z</time></trkpt><trkpt lat="42.8137374" lon="11.8599501"><ele>552.0</ele><time>2026-04-26T12:41:41.861Z</time></trkpt><trkpt lat="42.8138489" lon="11.8601901"><ele>552.0</ele><time>2026-04-26T12:41:42.861Z</time></trkpt><trkpt lat="42.8139611" lon="11.8604324"><ele>552.0</ele><time>2026-04-26T12:41:43.862Z</time></trkpt><trkpt lat="42.8140711" lon="11.8606658"><ele>552.0</ele><time>2026-04-26T12:41:44.862Z</time></trkpt><trkpt lat="42.8141859" lon="11.8608919"><ele>554.6666666666666</ele><time>2026-04-26T12:41:45.862Z</time></trkpt><trkpt lat="42.8143017" lon="11.861097"><ele>557.3333333333333</ele><time>2026-04-26T12:41:46.862Z</time></trkpt><trkpt lat="42.8144277" lon="11.8612688"><ele>560.0</ele><time>2026-04-26T12:41:47.862Z</time></trkpt><trkpt lat="42.8145776" lon="11.8614058"><ele>560.0</ele><time>2026-04-26T12:41:48.862Z</time></trkpt><trkpt lat="42.8147431" lon="11.8615154"><ele>560.0</ele><time>2026-04-26T12:41:49.862Z</time></trkpt><trkpt lat="42.8149093" lon="11.8616193"><ele>560.0</ele><time>2026-04-26T12:41:50.861Z</time></trkpt><trkpt lat="42.8150771" lon="11.8617234"><ele>562.6666666666666</ele><time>2026-04-26T12:41:51.862Z</time></trkpt><trkpt lat="42.81524" lon="11.861831"><ele>565.3333333333334</ele><time>2026-04-26T12:41:52.861Z</time></trkpt><trkpt lat="42.8153986" lon="11.8619485"><ele>568.0</ele><time>2026-04-26T12:41:53.861Z</time></trkpt><trkpt lat="42.8155432" lon="11.8620856"><ele>568.0</ele><time>2026-04-26T12:41:54.862Z</time></trkpt><trkpt lat="42.8156793" lon="11.8622466"><ele>568.0</ele><time>2026-04-26T12:41:55.862Z</time></trkpt><trkpt lat="42.8158109" lon="11.8624217"><ele>568.0</ele><time>2026-04-26T12:41:56.861Z</time></trkpt><trkpt lat="42.8159347" lon="11.862603"><ele>569.0</ele><time>2026-04-26T12:41:57.862Z</time></trkpt><trkpt lat="42.8160586" lon="11.8627862"><ele>570.0</ele><time>2026-04-26T12:41:58.862Z</time></trkpt><trkpt lat="42.8161958" lon="11.8629633"><ele>571.0</ele><time>2026-04-26T12:41:59.861Z</time></trkpt><trkpt lat="42.8163411" lon="11.8631456"><ele>571.0</ele><time>2026-04-26T12:42:00.862Z</time></trkpt><trkpt lat="42.8164834" lon="11.8633296"><ele>571.0</ele><time>2026-04-26T12:42:01.861Z</time></trkpt><trkpt lat="42.8166297" lon="11.8635152"><ele>571.0</ele><time>2026-04-26T12:42:02.862Z</time></trkpt><trkpt lat="42.8167783" lon="11.8637017"><ele>570.0</ele><time>2026-04-26T12:42:03.861Z</time></trkpt><trkpt lat="42.8169296" lon="11.8638907"><ele>569.0</ele><time>2026-04-26T12:42:04.862Z</time></trkpt><trkpt lat="42.8170825" lon="11.8640804"><ele>568.0</ele><time>2026-04-26T12:42:05.862Z</time></trkpt><trkpt lat="42.8172349" lon="11.8642724"><ele>567.0</ele><time>2026-04-26T12:42:06.862Z</time></trkpt><trkpt lat="42.8173903" lon="11.8644653"><ele>566.0</ele><time>2026-04-26T12:42:07.861Z</time></trkpt><trkpt lat="42.8175411" lon="11.8646611"><ele>565.0</ele><time>2026-04-26T12:42:08.862Z</time></trkpt><trkpt lat="42.8176888" lon="11.8648576"><ele>565.0</ele><time>2026-04-26T12:42:09.862Z</time></trkpt><trkpt lat="42.817843" lon="11.8650408"><ele>565.0</ele><time>2026-04-26T12:42:10.862Z</time></trkpt><trkpt lat="42.8180076" lon="11.8651974"><ele>565.0</ele><time>2026-04-26T12:42:11.862Z</time></trkpt><trkpt lat="42.8181864" lon="11.8653286"><ele>566.0</ele><time>2026-04-26T12:42:12.862Z</time></trkpt><trkpt lat="42.8183667" lon="11.8654526"><ele>567.0</ele><time>2026-04-26T12:42:13.861Z</time></trkpt><trkpt lat="42.8185294" lon="11.865618"><ele>568.0</ele><time>2026-04-26T12:42:14.862Z</time></trkpt><trkpt lat="42.8186746" lon="11.865817"><ele>571.3333333333334</ele><time>2026-04-26T12:42:15.861Z</time></trkpt><trkpt lat="42.8188382" lon="11.8659965"><ele>574.6666666666666</ele><time>2026-04-26T12:42:16.861Z</time></trkpt><trkpt lat="42.8190218" lon="11.8661366"><ele>578.0</ele><time>2026-04-26T12:42:17.862Z</time></trkpt><trkpt lat="42.8192139" lon="11.8662628"><ele>575.0</ele><time>2026-04-26T12:42:18.862Z</time></trkpt><trkpt lat="42.8194065" lon="11.8663778"><ele>572.0</ele><time>2026-04-26T12:42:19.862Z</time></trkpt><trkpt lat="42.8195947" lon="11.8664905"><ele>569.0</ele><time>2026-04-26T12:42:20.861Z</time></trkpt><trkpt lat="42.8197719" lon="11.8666081"><ele>569.0</ele><time>2026-04-26T12:42:21.862Z</time></trkpt><trkpt lat="42.8199401" lon="11.8667392"><ele>569.0</ele><time>2026-04-26T12:42:22.861Z</time></trkpt><trkpt lat="42.8200886" lon="11.8668984"><ele>569.0</ele><time>2026-04-26T12:42:23.862Z</time></trkpt><trkpt lat="42.8202165" lon="11.8670983"><ele>569.6666666666666</ele><time>2026-04-26T12:42:24.862Z</time></trkpt><trkpt lat="42.8203213" lon="11.8673085"><ele>570.3333333333334</ele><time>2026-04-26T12:42:25.862Z</time></trkpt><trkpt lat="42.8203952" lon="11.8675327"><ele>571.0</ele><time>2026-04-26T12:42:26.862Z</time></trkpt><trkpt lat="42.8204256" lon="11.8677507"><ele>571.0</ele><time>2026-04-26T12:42:27.862Z</time></trkpt><trkpt lat="42.8203906" lon="11.8679719"><ele>571.0</ele><time>2026-04-26T12:42:28.862Z</time></trkpt><trkpt lat="42.820342" lon="11.8681675"><ele>571.0</ele><time>2026-04-26T12:42:29.862Z</time></trkpt><trkpt lat="42.820297" lon="11.8683519"><ele>573.75</ele><time>2026-04-26T12:42:30.862Z</time></trkpt><trkpt lat="42.8202739" lon="11.8685374"><ele>576.5</ele><time>2026-04-26T12:42:31.862Z</time></trkpt><trkpt lat="42.820321" lon="11.8686803"><ele>579.25</ele><time>2026-04-26T12:42:32.861Z</time></trkpt><trkpt lat="42.8204039" lon="11.8687862"><ele>582.0</ele><time>2026-04-26T12:42:33.862Z</time></trkpt><trkpt lat="42.8205211" lon="11.8688495"><ele>582.0</ele><time>2026-04-26T12:42:34.861Z</time></trkpt><trkpt lat="42.8206596" lon="11.8688497"><ele>582.0</ele><time>2026-04-26T12:42:35.861Z</time></trkpt><trkpt lat="42.8208" lon="11.8688143"><ele>582.0</ele><time>2026-04-26T12:42:36.862Z</time></trkpt><trkpt lat="42.8209431" lon="11.8687972"><ele>582.0</ele><time>2026-04-26T12:42:37.862Z</time></trkpt><trkpt lat="42.8210882" lon="11.8687901"><ele>582.75</ele><time>2026-04-26T12:42:38.862Z</time></trkpt><trkpt lat="42.8212274" lon="11.8687787"><ele>583.5</ele><time>2026-04-26T12:42:39.862Z</time></trkpt><trkpt lat="42.8213577" lon="11.8687831"><ele>584.25</ele><time>2026-04-26T12:42:40.862Z</time></trkpt><trkpt lat="42.821479" lon="11.8687939"><ele>585.0</ele><time>2026-04-26T12:42:41.861Z</time></trkpt><trkpt lat="42.8215925" lon="11.8688159"><ele>585.0</ele><time>2026-04-26T12:42:42.862Z</time></trkpt><trkpt lat="42.8216919" lon="11.8688917"><ele>585.0</ele><time>2026-04-26T12:42:43.862Z</time></trkpt><trkpt lat="42.8217684" lon="11.8690206"><ele>585.0</ele><time>2026-04-26T12:42:44.861Z</time></trkpt><trkpt lat="42.8218369" lon="11.8691709"><ele>585.0</ele><time>2026-04-26T12:42:45.862Z</time></trkpt><trkpt lat="42.8219083" lon="11.8693164"><ele>587.0</ele><time>2026-04-26T12:42:46.862Z</time></trkpt><trkpt lat="42.8219811" lon="11.8694603"><ele>589.0</ele><time>2026-04-26T12:42:47.862Z</time></trkpt><trkpt lat="42.8220656" lon="11.8696038"><ele>591.0</ele><time>2026-04-26T12:42:48.861Z</time></trkpt><trkpt lat="42.822159" lon="11.8697384"><ele>593.0</ele><time>2026-04-26T12:42:49.862Z</time></trkpt><trkpt lat="42.8222608" lon="11.8698753"><ele>593.0</ele><time>2026-04-26T12:42:50.862Z</time></trkpt><trkpt lat="42.8223663" lon="11.8700094"><ele>593.0</ele><time>2026-04-26T12:42:51.861Z</time></trkpt><trkpt lat="42.8224523" lon="11.8701424"><ele>593.0</ele><time>2026-04-26T12:42:52.862Z</time></trkpt><trkpt lat="42.8225163" lon="11.8702802"><ele>593.0</ele><time>2026-04-26T12:42:53.862Z</time></trkpt><trkpt lat="42.8225766" lon="11.8704219"><ele>592.25</ele><time>2026-04-26T12:42:54.862Z</time></trkpt><trkpt lat="42.8226567" lon="11.870557"><ele>591.5</ele><time>2026-04-26T12:42:55.862Z</time></trkpt><trkpt lat="42.8227484" lon="11.8706796"><ele>590.75</ele><time>2026-04-26T12:42:56.862Z</time></trkpt><trkpt lat="42.8228333" lon="11.8708235"><ele>590.0</ele><time>2026-04-26T12:42:57.862Z</time></trkpt><trkpt lat="42.8229109" lon="11.8710058"><ele>590.0</ele><time>2026-04-26T12:42:58.862Z</time></trkpt><trkpt lat="42.8229703" lon="11.8711996"><ele>590.0</ele><time>2026-04-26T12:42:59.861Z</time></trkpt><trkpt lat="42.8230224" lon="11.8713987"><ele>590.0</ele><time>2026-04-26T12:43:00.861Z</time></trkpt><trkpt lat="42.8230768" lon="11.8715953"><ele>590.25</ele><time>2026-04-26T12:43:01.861Z</time></trkpt><trkpt lat="42.8231451" lon="11.8717793"><ele>590.5</ele><time>2026-04-26T12:43:02.861Z</time></trkpt><trkpt lat="42.8232254" lon="11.8719308"><ele>590.75</ele><time>2026-04-26T12:43:03.861Z</time></trkpt><trkpt lat="42.8232975" lon="11.8720811"><ele>591.0</ele><time>2026-04-26T12:43:04.862Z</time></trkpt><trkpt lat="42.8233435" lon="11.8722213"><ele>591.0</ele><time>2026-04-26T12:43:05.861Z</time></trkpt><trkpt lat="42.8233506" lon="11.872369"><ele>591.0</ele><time>2026-04-26T12:43:06.862Z</time></trkpt><trkpt lat="42.8233098" lon="11.8725064"><ele>591.0</ele><time>2026-04-26T12:43:07.862Z</time></trkpt><trkpt lat="42.8232458" lon="11.8726497"><ele>591.0</ele><time>2026-04-26T12:43:08.861Z</time></trkpt><trkpt lat="42.8231712" lon="11.8727927"><ele>588.5</ele><time>2026-04-26T12:43:09.862Z</time></trkpt><trkpt lat="42.8231003" lon="11.8729503"><ele>586.0</ele><time>2026-04-26T12:43:10.861Z</time></trkpt><trkpt lat="42.8230471" lon="11.8731326"><ele>583.5</ele><time>2026-04-26T12:43:11.862Z</time></trkpt><trkpt lat="42.823015" lon="11.8733166"><ele>581.0</ele><time>2026-04-26T12:43:12.861Z</time></trkpt><trkpt lat="42.8229957" lon="11.873489"><ele>579.5</ele><time>2026-04-26T12:43:13.861Z</time></trkpt><trkpt lat="42.8229876" lon="11.8736409"><ele>578.0</ele><time>2026-04-26T12:43:14.862Z</time></trkpt><trkpt lat="42.8230075" lon="11.8737863"><ele>576.5</ele><time>2026-04-26T12:43:15.861Z</time></trkpt><trkpt lat="42.8230569" lon="11.8739345"><ele>575.0</ele><time>2026-04-26T12:43:16.861Z</time></trkpt><trkpt lat="42.8231228" lon="11.8740681"><ele>575.0</ele><time>2026-04-26T12:43:17.862Z</time></trkpt><trkpt lat="42.8231998" lon="11.8742198"><ele>575.0</ele><time>2026-04-26T12:43:18.862Z</time></trkpt><trkpt lat="42.8232828" lon="11.8743611"><ele>575.0</ele><time>2026-04-26T12:43:19.862Z</time></trkpt><trkpt lat="42.8233837" lon="11.8744831"><ele>575.0</ele><time>2026-04-26T12:43:20.862Z</time></trkpt><trkpt lat="42.8235128" lon="11.8745778"><ele>574.3333333333333</ele><time>2026-04-26T12:43:21.862Z</time></trkpt><trkpt lat="42.823655" lon="11.8746566"><ele>573.6666666666666</ele><time>2026-04-26T12:43:22.861Z</time></trkpt><trkpt lat="42.8237941" lon="11.8747161"><ele>573.0</ele><time>2026-04-26T12:43:23.861Z</time></trkpt><trkpt lat="42.8239408" lon="11.8747809"><ele>573.0</ele><time>2026-04-26T12:43:24.862Z</time></trkpt><trkpt lat="42.8240752" lon="11.8748618"><ele>573.0</ele><time>2026-04-26T12:43:25.862Z</time></trkpt><trkpt lat="42.82421" lon="11.874955"><ele>573.0</ele><time>2026-04-26T12:43:26.861Z</time></trkpt><trkpt lat="42.8243399" lon="11.8750654"><ele>573.0</ele><time>2026-04-26T12:43:27.862Z</time></trkpt><trkpt lat="42.824469" lon="11.875178"><ele>573.0</ele><time>2026-04-26T12:43:28.861Z</time></trkpt><trkpt lat="42.8245961" lon="11.8752923"><ele>573.0</ele><time>2026-04-26T12:43:29.862Z</time></trkpt><trkpt lat="42.8247215" lon="11.8753996"><ele>573.0</ele><time>2026-04-26T12:43:30.861Z</time></trkpt><trkpt lat="42.8248328" lon="11.8754998"><ele>573.0</ele><time>2026-04-26T12:43:31.862Z</time></trkpt><trkpt lat="42.8249359" lon="11.8756071"><ele>573.0</ele><time>2026-04-26T12:43:32.862Z</time></trkpt><trkpt lat="42.8250154" lon="11.8757584"><ele>573.0</ele><time>2026-04-26T12:43:33.862Z</time></trkpt><trkpt lat="42.8250657" lon="11.8759574"><ele>573.0</ele><time>2026-04-26T12:43:34.861Z</time></trkpt><trkpt lat="42.825085" lon="11.8761853"><ele>573.0</ele><time>2026-04-26T12:43:35.862Z</time></trkpt><trkpt lat="42.8250998" lon="11.8764028"><ele>573.0</ele><time>2026-04-26T12:43:36.862Z</time></trkpt><trkpt lat="42.8251145" lon="11.8766188"><ele>574.6666666666666</ele><time>2026-04-26T12:43:37.862Z</time></trkpt><trkpt lat="42.8251371" lon="11.8768421"><ele>576.3333333333333</ele><time>2026-04-26T12:43:38.862Z</time></trkpt><trkpt lat="42.8251611" lon="11.8770714"><ele>578.0</ele><time>2026-04-26T12:43:39.862Z</time></trkpt><trkpt lat="42.8251834" lon="11.8773013"><ele>585.6666666666666</ele><time>2026-04-26T12:43:40.861Z</time></trkpt><trkpt lat="42.8252046" lon="11.8775321"><ele>593.3333333333334</ele><time>2026-04-26T12:43:41.862Z</time></trkpt><trkpt lat="42.825218" lon="11.8777633"><ele>601.0</ele><time>2026-04-26T12:43:42.861Z</time></trkpt><trkpt lat="42.8252239" lon="11.8779967"><ele>602.3333333333334</ele><time>2026-04-26T12:43:43.862Z</time></trkpt><trkpt lat="42.8252115" lon="11.8782243"><ele>603.6666666666666</ele><time>2026-04-26T12:43:44.862Z</time></trkpt><trkpt lat="42.8251973" lon="11.8784397"><ele>605.0</ele><time>2026-04-26T12:43:45.859Z</time></trkpt><trkpt lat="42.8251866" lon="11.8786262"><ele>606.2</ele><time>2026-04-26T12:43:46.859Z</time></trkpt><trkpt lat="42.8251657" lon="11.8787726"><ele>607.4</ele><time>2026-04-26T12:43:47.859Z</time></trkpt><trkpt lat="42.8251457" lon="11.8788819"><ele>608.6</ele><time>2026-04-26T12:43:48.859Z</time></trkpt><trkpt lat="42.8251129" lon="11.879004"><ele>609.8</ele><time>2026-04-26T12:43:49.859Z</time></trkpt><trkpt lat="42.8250533" lon="11.8791172"><ele>611.0</ele><time>2026-04-26T12:43:50.858Z</time></trkpt><trkpt lat="42.8249686" lon="11.8792223"><ele>610.0</ele><time>2026-04-26T12:43:51.858Z</time></trkpt><trkpt lat="42.8248582" lon="11.8793122"><ele>609.0</ele><time>2026-04-26T12:43:52.859Z</time></trkpt><trkpt lat="42.8247313" lon="11.8793781"><ele>608.0</ele><time>2026-04-26T12:43:53.859Z</time></trkpt><trkpt lat="42.8246019" lon="11.8794265"><ele>607.0</ele><time>2026-04-26T12:43:54.858Z</time></trkpt><trkpt lat="42.8244638" lon="11.8794335"><ele>607.0</ele><time>2026-04-26T12:43:55.859Z</time></trkpt><trkpt lat="42.8243341" lon="11.8794094"><ele>607.0</ele><time>2026-04-26T12:43:56.859Z</time></trkpt><trkpt lat="42.8242119" lon="11.8793777"><ele>607.0</ele><time>2026-04-26T12:43:57.859Z</time></trkpt><trkpt lat="42.8240997" lon="11.87936"><ele>607.0</ele><time>2026-04-26T12:43:58.858Z</time></trkpt><trkpt lat="42.8239978" lon="11.8793921"><ele>605.5</ele><time>2026-04-26T12:43:59.858Z</time></trkpt><trkpt lat="42.8238989" lon="11.8794756"><ele>604.0</ele><time>2026-04-26T12:44:00.859Z</time></trkpt><trkpt lat="42.8238292" lon="11.8796021"><ele>602.5</ele><time>2026-04-26T12:44:01.859Z</time></trkpt><trkpt lat="42.8237694" lon="11.8797555"><ele>601.0</ele><time>2026-04-26T12:44:02.859Z</time></trkpt><trkpt lat="42.8237093" lon="11.8799134"><ele>601.0</ele><time>2026-04-26T12:44:03.858Z</time></trkpt><trkpt lat="42.8236456" lon="11.8800514"><ele>601.0</ele><time>2026-04-26T12:44:04.859Z</time></trkpt><trkpt lat="42.8235891" lon="11.880186"><ele>601.0</ele><time>2026-04-26T12:44:05.859Z</time></trkpt><trkpt lat="42.8235629" lon="11.8803224"><ele>601.0</ele><time>2026-04-26T12:44:06.859Z</time></trkpt><trkpt lat="42.8235834" lon="11.8804602"><ele>601.0</ele><time>2026-04-26T12:44:07.859Z</time></trkpt><trkpt lat="42.8236585" lon="11.880558"><ele>603.5</ele><time>2026-04-26T12:44:08.858Z</time></trkpt><trkpt lat="42.8237616" lon="11.8806302"><ele>606.0</ele><time>2026-04-26T12:44:09.859Z</time></trkpt><trkpt lat="42.8238836" lon="11.8806836"><ele>608.5</ele><time>2026-04-26T12:44:10.858Z</time></trkpt><trkpt lat="42.8240111" lon="11.8807323"><ele>611.0</ele><time>2026-04-26T12:44:11.859Z</time></trkpt><trkpt lat="42.8241356" lon="11.8807849"><ele>611.0</ele><time>2026-04-26T12:44:12.859Z</time></trkpt><trkpt lat="42.8242601" lon="11.880855"><ele>611.0</ele><time>2026-04-26T12:44:13.859Z</time></trkpt><trkpt lat="42.8243719" lon="11.8809623"><ele>611.0</ele><time>2026-04-26T12:44:14.859Z</time></trkpt><trkpt lat="42.8244629" lon="11.8811192"><ele>611.0</ele><time>2026-04-26T12:44:15.859Z</time></trkpt><trkpt lat="42.8245154" lon="11.8813058"><ele>610.75</ele><time>2026-04-26T12:44:16.859Z</time></trkpt><trkpt lat="42.8245553" lon="11.8814965"><ele>610.5</ele><time>2026-04-26T12:44:17.858Z</time></trkpt><trkpt lat="42.8246049" lon="11.881683"><ele>610.25</ele><time>2026-04-26T12:44:18.859Z</time></trkpt><trkpt lat="42.8246741" lon="11.8818437"><ele>610.0</ele><time>2026-04-26T12:44:19.858Z</time></trkpt><trkpt lat="42.8247719" lon="11.8819648"><ele>608.0</ele><time>2026-04-26T12:44:20.859Z</time></trkpt><trkpt lat="42.824874" lon="11.8820539"><ele>606.0</ele><time>2026-04-26T12:44:21.859Z</time></trkpt><trkpt lat="42.825006" lon="11.8820943"><ele>604.0</ele><time>2026-04-26T12:44:22.858Z</time></trkpt><trkpt lat="42.8251438" lon="11.8821131"><ele>602.0</ele><time>2026-04-26T12:44:23.859Z</time></trkpt><trkpt lat="42.8252827" lon="11.8820977"><ele>600.6</ele><time>2026-04-26T12:44:24.858Z</time></trkpt><trkpt lat="42.8254077" lon="11.8820584"><ele>599.2</ele><time>2026-04-26T12:44:25.858Z</time></trkpt><trkpt lat="42.8255092" lon="11.8819861"><ele>597.8</ele><time>2026-04-26T12:44:26.859Z</time></trkpt><trkpt lat="42.8255858" lon="11.8819085"><ele>596.4</ele><time>2026-04-26T12:44:27.859Z</time></trkpt><trkpt lat="42.8256615" lon="11.881867"><ele>595.0</ele><time>2026-04-26T12:44:28.858Z</time></trkpt><trkpt lat="42.8257373" lon="11.8818902"><ele>595.0</ele><time>2026-04-26T12:44:29.859Z</time></trkpt><trkpt lat="42.825773" lon="11.8819806"><ele>595.0</ele><time>2026-04-26T12:44:30.859Z</time></trkpt><trkpt lat="42.825779" lon="11.8820984"><ele>595.0</ele><time>2026-04-26T12:44:31.859Z</time></trkpt><trkpt lat="42.8257494" lon="11.8822094"><ele>595.0</ele><time>2026-04-26T12:44:32.859Z</time></trkpt><trkpt lat="42.8256771" lon="11.8823217"><ele>595.0</ele><time>2026-04-26T12:44:33.859Z</time></trkpt><trkpt lat="42.8255688" lon="11.8824342"><ele>595.0</ele><time>2026-04-26T12:44:34.859Z</time></trkpt><trkpt lat="42.8254596" lon="11.882544"><ele>595.0</ele><time>2026-04-26T12:44:35.859Z</time></trkpt><trkpt lat="42.8253561" lon="11.8826651"><ele>595.0</ele><time>2026-04-26T12:44:36.859Z</time></trkpt><trkpt lat="42.8252622" lon="11.8827811"><ele>595.0</ele><time>2026-04-26T12:44:37.858Z</time></trkpt><trkpt lat="42.8251722" lon="11.8829055"><ele>594.5</ele><time>2026-04-26T12:44:38.858Z</time></trkpt><trkpt lat="42.8250915" lon="11.8830437"><ele>594.0</ele><time>2026-04-26T12:44:39.858Z</time></trkpt><trkpt lat="42.8250175" lon="11.8831831"><ele>593.5</ele><time>2026-04-26T12:44:40.859Z</time></trkpt><trkpt lat="42.82496" lon="11.8833188"><ele>593.0</ele><time>2026-04-26T12:44:41.859Z</time></trkpt><trkpt lat="42.8249349" lon="11.883465"><ele>592.25</ele><time>2026-04-26T12:44:42.858Z</time></trkpt><trkpt lat="42.8249459" lon="11.883631"><ele>591.5</ele><time>2026-04-26T12:44:43.859Z</time></trkpt><trkpt lat="42.8249812" lon="11.8837995"><ele>590.75</ele><time>2026-04-26T12:44:44.858Z</time></trkpt><trkpt lat="42.8250246" lon="11.8839457"><ele>590.0</ele><time>2026-04-26T12:44:45.859Z</time></trkpt><trkpt lat="42.8250666" lon="11.8840915"><ele>590.0</ele><time>2026-04-26T12:44:46.859Z</time></trkpt><trkpt lat="42.8251124" lon="11.8842202"><ele>590.0</ele><time>2026-04-26T12:44:47.859Z</time></trkpt><trkpt lat="42.825164" lon="11.8843548"><ele>590.0</ele><time>2026-04-26T12:44:48.859Z</time></trkpt><trkpt lat="42.8252031" lon="11.8845071"><ele>590.0</ele><time>2026-04-26T12:44:49.859Z</time></trkpt><trkpt lat="42.825197" lon="11.8846615"><ele>590.0</ele><time>2026-04-26T12:44:50.859Z</time></trkpt><trkpt lat="42.8251695" lon="11.8848105"><ele>589.6</ele><time>2026-04-26T12:44:51.858Z</time></trkpt><trkpt lat="42.8251467" lon="11.8849465"><ele>589.2</ele><time>2026-04-26T12:44:52.859Z</time></trkpt><trkpt lat="42.825125" lon="11.8850832"><ele>588.8</ele><time>2026-04-26T12:44:53.859Z</time></trkpt><trkpt lat="42.8251091" lon="11.885209"><ele>588.4</ele><time>2026-04-26T12:44:54.858Z</time></trkpt><trkpt lat="42.8251068" lon="11.8853321"><ele>588.0</ele><time>2026-04-26T12:44:55.858Z</time></trkpt><trkpt lat="42.8251178" lon="11.8854455"><ele>585.1999999999999</ele><time>2026-04-26T12:44:56.859Z</time></trkpt><trkpt lat="42.8251588" lon="11.8855518"><ele>582.4</ele><time>2026-04-26T12:44:57.859Z</time></trkpt><trkpt lat="42.8252128" lon="11.8856544"><ele>579.5999999999999</ele><time>2026-04-26T12:44:58.859Z</time></trkpt><trkpt lat="42.8252805" lon="11.8857437"><ele>576.8</ele><time>2026-04-26T12:44:59.858Z</time></trkpt><trkpt lat="42.8253532" lon="11.885822"><ele>574.0</ele><time>2026-04-26T12:45:00.859Z</time></trkpt><trkpt lat="42.8254381" lon="11.88589"><ele>574.0</ele><time>2026-04-26T12:45:01.858Z</time></trkpt><trkpt lat="42.8255606" lon="11.8858974"><ele>574.0</ele><time>2026-04-26T12:45:02.859Z</time></trkpt><trkpt lat="42.8257234" lon="11.8858375"><ele>574.0</ele><time>2026-04-26T12:45:03.859Z</time></trkpt><trkpt lat="42.8258755" lon="11.8858151"><ele>574.0</ele><time>2026-04-26T12:45:04.859Z</time></trkpt><trkpt lat="42.8260232" lon="11.885824"><ele>574.6666666666667</ele><time>2026-04-26T12:45:05.858Z</time></trkpt><trkpt lat="42.826166" lon="11.885876"><ele>575.3333333333334</ele><time>2026-04-26T12:45:06.859Z</time></trkpt><trkpt lat="42.8263171" lon="11.8859409"><ele>576.0</ele><time>2026-04-26T12:45:07.859Z</time></trkpt><trkpt lat="42.8264669" lon="11.8859734"><ele>576.0</ele><time>2026-04-26T12:45:08.858Z</time></trkpt><trkpt lat="42.8266137" lon="11.8859618"><ele>576.0</ele><time>2026-04-26T12:45:09.859Z</time></trkpt><trkpt lat="42.8267515" lon="11.8859393"><ele>576.0</ele><time>2026-04-26T12:45:10.859Z</time></trkpt><trkpt lat="42.8268826" lon="11.8859173"><ele>576.0</ele><time>2026-04-26T12:45:11.858Z</time></trkpt><trkpt lat="42.8270051" lon="11.8859219"><ele>572.6</ele><time>2026-04-26T12:45:12.859Z</time></trkpt><trkpt lat="42.8271069" lon="11.8859879"><ele>569.2</ele><time>2026-04-26T12:45:13.859Z</time></trkpt><trkpt lat="42.8271545" lon="11.8861256"><ele>565.8</ele><time>2026-04-26T12:45:14.859Z</time></trkpt><trkpt lat="42.8271717" lon="11.8862725"><ele>562.4</ele><time>2026-04-26T12:45:15.858Z</time></trkpt><trkpt lat="42.8271855" lon="11.8864199"><ele>559.0</ele><time>2026-04-26T12:45:16.859Z</time></trkpt><trkpt lat="42.8272263" lon="11.8865506"><ele>559.0</ele><time>2026-04-26T12:45:17.859Z</time></trkpt><trkpt lat="42.8273125" lon="11.886692"><ele>559.0</ele><time>2026-04-26T12:45:18.859Z</time></trkpt><trkpt lat="42.8274303" lon="11.8867786"><ele>559.0</ele><time>2026-04-26T12:45:19.859Z</time></trkpt><trkpt lat="42.8275847" lon="11.8868332"><ele>559.0</ele><time>2026-04-26T12:45:20.859Z</time></trkpt><trkpt lat="42.8277342" lon="11.8868897"><ele>558.5</ele><time>2026-04-26T12:45:21.859Z</time></trkpt><trkpt lat="42.8278792" lon="11.8869354"><ele>558.0</ele><time>2026-04-26T12:45:22.859Z</time></trkpt><trkpt lat="42.8280173" lon="11.8869677"><ele>557.5</ele><time>2026-04-26T12:45:23.859Z</time></trkpt><trkpt lat="42.8281499" lon="11.8869648"><ele>557.0</ele><time>2026-04-26T12:45:24.859Z</time></trkpt><trkpt lat="42.8282759" lon="11.8869061"><ele>557.0</ele><time>2026-04-26T12:45:25.858Z</time></trkpt><trkpt lat="42.8284021" lon="11.8868096"><ele>557.0</ele><time>2026-04-26T12:45:26.859Z</time></trkpt><trkpt lat="42.8285297" lon="11.886704"><ele>557.0</ele><time>2026-04-26T12:45:27.859Z</time></trkpt><trkpt lat="42.8286611" lon="11.8865951"><ele>557.0</ele><time>2026-04-26T12:45:28.859Z</time></trkpt><trkpt lat="42.8287929" lon="11.8864858"><ele>558.6666666666666</ele><time>2026-04-26T12:45:29.859Z</time></trkpt><trkpt lat="42.8289115" lon="11.8863669"><ele>560.3333333333334</ele><time>2026-04-26T12:45:30.859Z</time></trkpt><trkpt lat="42.8290198" lon="11.8862245"><ele>562.0</ele><time>2026-04-26T12:45:31.859Z</time></trkpt><trkpt lat="42.8290888" lon="11.8860389"><ele>560.3333333333334</ele><time>2026-04-26T12:45:32.859Z</time></trkpt><trkpt lat="42.8291286" lon="11.8858235"><ele>558.6666666666666</ele><time>2026-04-26T12:45:33.859Z</time></trkpt><trkpt lat="42.8291614" lon="11.8855952"><ele>557.0</ele><time>2026-04-26T12:45:34.859Z</time></trkpt><trkpt lat="42.8291928" lon="11.8853774"><ele>557.0</ele><time>2026-04-26T12:45:35.859Z</time></trkpt><trkpt lat="42.8292261" lon="11.8851774"><ele>557.0</ele><time>2026-04-26T12:45:36.859Z</time></trkpt><trkpt lat="42.8292709" lon="11.8849934"><ele>557.0</ele><time>2026-04-26T12:45:37.858Z</time></trkpt><trkpt lat="42.8293361" lon="11.8848356"><ele>557.0</ele><time>2026-04-26T12:45:38.859Z</time></trkpt><trkpt lat="42.829448" lon="11.8847169"><ele>559.3333333333333</ele><time>2026-04-26T12:45:39.859Z</time></trkpt><trkpt lat="42.8295714" lon="11.8846135"><ele>561.6666666666666</ele><time>2026-04-26T12:45:40.859Z</time></trkpt><trkpt lat="42.8296975" lon="11.8845094"><ele>564.0</ele><time>2026-04-26T12:45:41.859Z</time></trkpt><trkpt lat="42.829826" lon="11.8843812"><ele>561.6666666666666</ele><time>2026-04-26T12:45:42.859Z</time></trkpt><trkpt lat="42.8299414" lon="11.884236"><ele>559.3333333333333</ele><time>2026-04-26T12:45:43.859Z</time></trkpt><trkpt lat="42.8300414" lon="11.8840656"><ele>557.0</ele><time>2026-04-26T12:45:44.859Z</time></trkpt><trkpt lat="42.8301349" lon="11.8838826"><ele>558.6666666666666</ele><time>2026-04-26T12:45:45.859Z</time></trkpt><trkpt lat="42.8302247" lon="11.8837037"><ele>560.3333333333334</ele><time>2026-04-26T12:45:46.859Z</time></trkpt><trkpt lat="42.830327" lon="11.8835315"><ele>562.0</ele><time>2026-04-26T12:45:47.859Z</time></trkpt><trkpt lat="42.8304477" lon="11.8833793"><ele>562.0</ele><time>2026-04-26T12:45:48.858Z</time></trkpt><trkpt lat="42.8305832" lon="11.8832612"><ele>562.0</ele><time>2026-04-26T12:45:49.859Z</time></trkpt><trkpt lat="42.8307413" lon="11.8831808"><ele>562.0</ele><time>2026-04-26T12:45:50.859Z</time></trkpt><trkpt lat="42.8309111" lon="11.8830918"><ele>566.6666666666667</ele><time>2026-04-26T12:45:51.858Z</time></trkpt><trkpt lat="42.8310866" lon="11.8829979"><ele>571.3333333333334</ele><time>2026-04-26T12:45:52.858Z</time></trkpt><trkpt lat="42.8312548" lon="11.8828826"><ele>576.0</ele><time>2026-04-26T12:45:53.858Z</time></trkpt><trkpt lat="42.8314188" lon="11.8827552"><ele>576.0</ele><time>2026-04-26T12:45:54.859Z</time></trkpt><trkpt lat="42.8315815" lon="11.8826188"><ele>576.0</ele><time>2026-04-26T12:45:55.859Z</time></trkpt><trkpt lat="42.8317439" lon="11.8824783"><ele>576.0</ele><time>2026-04-26T12:45:56.859Z</time></trkpt><trkpt lat="42.8319072" lon="11.8823301"><ele>574.3333333333334</ele><time>2026-04-26T12:45:57.859Z</time></trkpt><trkpt lat="42.8320699" lon="11.8821876"><ele>572.6666666666667</ele><time>2026-04-26T12:45:58.859Z</time></trkpt><trkpt lat="42.8322288" lon="11.8820305"><ele>571.0</ele><time>2026-04-26T12:45:59.858Z</time></trkpt><trkpt lat="42.832386" lon="11.8818662"><ele>572.0</ele><time>2026-04-26T12:46:00.859Z</time></trkpt><trkpt lat="42.8325341" lon="11.8816942"><ele>573.0</ele><time>2026-04-26T12:46:01.858Z</time></trkpt><trkpt lat="42.8326738" lon="11.8815083"><ele>574.0</ele><time>2026-04-26T12:46:02.858Z</time></trkpt><trkpt lat="42.8328175" lon="11.8813188"><ele>574.0</ele><time>2026-04-26T12:46:03.859Z</time></trkpt><trkpt lat="42.8329657" lon="11.8811308"><ele>574.0</ele><time>2026-04-26T12:46:04.859Z</time></trkpt><trkpt lat="42.8331052" lon="11.88094"><ele>574.0</ele><time>2026-04-26T12:46:05.859Z</time></trkpt><trkpt lat="42.8332365" lon="11.8807367"><ele>574.3333333333334</ele><time>2026-04-26T12:46:06.859Z</time></trkpt><trkpt lat="42.833363" lon="11.88052"><ele>574.6666666666666</ele><time>2026-04-26T12:46:07.859Z</time></trkpt><trkpt lat="42.8334869" lon="11.8802998"><ele>575.0</ele><time>2026-04-26T12:46:08.859Z</time></trkpt><trkpt lat="42.8336146" lon="11.8800772"><ele>575.0</ele><time>2026-04-26T12:46:09.858Z</time></trkpt><trkpt lat="42.8337382" lon="11.8798594"><ele>575.0</ele><time>2026-04-26T12:46:10.858Z</time></trkpt><trkpt lat="42.8338614" lon="11.879643"><ele>575.0</ele><time>2026-04-26T12:46:11.858Z</time></trkpt><trkpt lat="42.8339849" lon="11.879426"><ele>573.6666666666666</ele><time>2026-04-26T12:46:12.858Z</time></trkpt><trkpt lat="42.8341085" lon="11.879216"><ele>572.3333333333334</ele><time>2026-04-26T12:46:13.859Z</time></trkpt><trkpt lat="42.8342325" lon="11.8790084"><ele>571.0</ele><time>2026-04-26T12:46:14.859Z</time></trkpt><trkpt lat="42.8343533" lon="11.8788099"><ele>575.3333333333334</ele><time>2026-04-26T12:46:15.858Z</time></trkpt><trkpt lat="42.8344553" lon="11.8786014"><ele>579.6666666666666</ele><time>2026-04-26T12:46:16.858Z</time></trkpt><trkpt lat="42.8345256" lon="11.8783676"><ele>584.0</ele><time>2026-04-26T12:46:17.858Z</time></trkpt><trkpt lat="42.8345701" lon="11.8781319"><ele>584.0</ele><time>2026-04-26T12:46:18.859Z</time></trkpt><trkpt lat="42.834613" lon="11.8779081"><ele>584.0</ele><time>2026-04-26T12:46:19.859Z</time></trkpt><trkpt lat="42.8346729" lon="11.8776787"><ele>584.0</ele><time>2026-04-26T12:46:20.858Z</time></trkpt><trkpt lat="42.8347609" lon="11.877466"><ele>580.3333333333333</ele><time>2026-04-26T12:46:21.859Z</time></trkpt><trkpt lat="42.8348578" lon="11.8772504"><ele>576.6666666666666</ele><time>2026-04-26T12:46:22.859Z</time></trkpt><trkpt lat="42.8349573" lon="11.8770467"><ele>573.0</ele><time>2026-04-26T12:46:23.859Z</time></trkpt><trkpt lat="42.8350474" lon="11.8768494"><ele>572.3333333333334</ele><time>2026-04-26T12:46:24.859Z</time></trkpt><trkpt lat="42.835135" lon="11.8766478"><ele>571.6666666666667</ele><time>2026-04-26T12:46:25.859Z</time></trkpt><trkpt lat="42.8352223" lon="11.8764507"><ele>571.0</ele><time>2026-04-26T12:46:26.858Z</time></trkpt><trkpt lat="42.8353419" lon="11.8762712"><ele>571.0</ele><time>2026-04-26T12:46:27.858Z</time></trkpt><trkpt lat="42.8354827" lon="11.8760881"><ele>571.0</ele><time>2026-04-26T12:46:28.859Z</time></trkpt><trkpt lat="42.8356206" lon="11.8759085"><ele>571.0</ele><time>2026-04-26T12:46:29.858Z</time></trkpt><trkpt lat="42.835761" lon="11.8757354"><ele>569.3333333333334</ele><time>2026-04-26T12:46:30.859Z</time></trkpt><trkpt lat="42.8358898" lon="11.8755544"><ele>567.6666666666666</ele><time>2026-04-26T12:46:31.859Z</time></trkpt><trkpt lat="42.8360023" lon="11.8753708"><ele>566.0</ele><time>2026-04-26T12:46:32.859Z</time></trkpt><trkpt lat="42.8360862" lon="11.875167"><ele>563.6666666666666</ele><time>2026-04-26T12:46:33.859Z</time></trkpt><trkpt lat="42.8361364" lon="11.8749418"><ele>561.3333333333334</ele><time>2026-04-26T12:46:34.858Z</time></trkpt><trkpt lat="42.836175" lon="11.8747204"><ele>559.0</ele><time>2026-04-26T12:46:35.859Z</time></trkpt><trkpt lat="42.8362043" lon="11.8745109"><ele>559.0</ele><time>2026-04-26T12:46:36.859Z</time></trkpt><trkpt lat="42.8362375" lon="11.8743436"><ele>559.0</ele><time>2026-04-26T12:46:37.859Z</time></trkpt><trkpt lat="42.8362793" lon="11.8742021"><ele>559.0</ele><time>2026-04-26T12:46:38.859Z</time></trkpt><trkpt lat="42.8363308" lon="11.8740934"><ele>559.0</ele><time>2026-04-26T12:46:39.858Z</time></trkpt><trkpt lat="42.8364096" lon="11.8740368"><ele>559.0</ele><time>2026-04-26T12:46:40.859Z</time></trkpt><trkpt lat="42.8365061" lon="11.8740485"><ele>558.0</ele><time>2026-04-26T12:46:41.859Z</time></trkpt><trkpt lat="42.8366057" lon="11.8741107"><ele>557.0</ele><time>2026-04-26T12:46:42.859Z</time></trkpt><trkpt lat="42.8367043" lon="11.8742003"><ele>556.0</ele><time>2026-04-26T12:46:43.859Z</time></trkpt><trkpt lat="42.8368219" lon="11.8742872"><ele>555.0</ele><time>2026-04-26T12:46:44.859Z</time></trkpt><trkpt lat="42.836934" lon="11.8743829"><ele>554.3333333333334</ele><time>2026-04-26T12:46:45.859Z</time></trkpt><trkpt lat="42.8370577" lon="11.8744894"><ele>553.6666666666667</ele><time>2026-04-26T12:46:46.858Z</time></trkpt><trkpt lat="42.8371723" lon="11.8746462"><ele>553.0</ele><time>2026-04-26T12:46:47.859Z</time></trkpt><trkpt lat="42.8372664" lon="11.8748323"><ele>553.0</ele><time>2026-04-26T12:46:48.859Z</time></trkpt><trkpt lat="42.8373406" lon="11.8750355"><ele>553.0</ele><time>2026-04-26T12:46:49.859Z</time></trkpt><trkpt lat="42.837413" lon="11.8752525"><ele>553.0</ele><time>2026-04-26T12:46:50.859Z</time></trkpt><trkpt lat="42.8374888" lon="11.8754761"><ele>554.6666666666667</ele><time>2026-04-26T12:46:51.859Z</time></trkpt><trkpt lat="42.8375755" lon="11.8757049"><ele>556.3333333333334</ele><time>2026-04-26T12:46:52.859Z</time></trkpt><trkpt lat="42.8376756" lon="11.8759025"><ele>558.0</ele><time>2026-04-26T12:46:53.859Z</time></trkpt><trkpt lat="42.837783" lon="11.8760859"><ele>558.0</ele><time>2026-04-26T12:46:54.859Z</time></trkpt><trkpt lat="42.8379073" lon="11.8762551"><ele>558.0</ele><time>2026-04-26T12:46:55.859Z</time></trkpt><trkpt lat="42.8380526" lon="11.8764036"><ele>558.0</ele><time>2026-04-26T12:46:56.859Z</time></trkpt><trkpt lat="42.8382045" lon="11.8765526"><ele>558.0</ele><time>2026-04-26T12:46:57.859Z</time></trkpt><trkpt lat="42.8383551" lon="11.8767049"><ele>558.0</ele><time>2026-04-26T12:46:58.859Z</time></trkpt><trkpt lat="42.8385043" lon="11.8768591"><ele>558.0</ele><time>2026-04-26T12:46:59.859Z</time></trkpt><trkpt lat="42.8386427" lon="11.8770088"><ele>556.6666666666666</ele><time>2026-04-26T12:47:00.858Z</time></trkpt><trkpt lat="42.8387756" lon="11.8771606"><ele>555.3333333333333</ele><time>2026-04-26T12:47:01.859Z</time></trkpt><trkpt lat="42.838893" lon="11.877321"><ele>554.0</ele><time>2026-04-26T12:47:02.859Z</time></trkpt><trkpt lat="42.8389927" lon="11.8775133"><ele>556.3333333333333</ele><time>2026-04-26T12:47:03.859Z</time></trkpt><trkpt lat="42.8390914" lon="11.8777173"><ele>558.6666666666666</ele><time>2026-04-26T12:47:04.859Z</time></trkpt><trkpt lat="42.8391907" lon="11.8779139"><ele>561.0</ele><time>2026-04-26T12:47:05.858Z</time></trkpt><trkpt lat="42.8392936" lon="11.8780858"><ele>560.0</ele><time>2026-04-26T12:47:06.859Z</time></trkpt><trkpt lat="42.8394041" lon="11.8782346"><ele>559.0</ele><time>2026-04-26T12:47:07.858Z</time></trkpt><trkpt lat="42.8395047" lon="11.8783532"><ele>558.0</ele><time>2026-04-26T12:47:08.859Z</time></trkpt><trkpt lat="42.8396053" lon="11.8784569"><ele>557.0</ele><time>2026-04-26T12:47:09.858Z</time></trkpt><trkpt lat="42.8397039" lon="11.8785375"><ele>560.0</ele><time>2026-04-26T12:47:10.859Z</time></trkpt><trkpt lat="42.8398147" lon="11.8785769"><ele>563.0</ele><time>2026-04-26T12:47:11.859Z</time></trkpt><trkpt lat="42.8399311" lon="11.8785822"><ele>566.0</ele><time>2026-04-26T12:47:12.858Z</time></trkpt><trkpt lat="42.8400509" lon="11.8785491"><ele>569.0</ele><time>2026-04-26T12:47:13.859Z</time></trkpt><trkpt lat="42.8401668" lon="11.8785131"><ele>569.0</ele><time>2026-04-26T12:47:14.859Z</time></trkpt><trkpt lat="42.8402793" lon="11.87846"><ele>569.0</ele><time>2026-04-26T12:47:15.859Z</time></trkpt><trkpt lat="42.8403949" lon="11.8784112"><ele>569.0</ele><time>2026-04-26T12:47:16.858Z</time></trkpt><trkpt lat="42.8405003" lon="11.8783691"><ele>569.0</ele><time>2026-04-26T12:47:17.859Z</time></trkpt><trkpt lat="42.8406074" lon="11.8783322"><ele>566.5</ele><time>2026-04-26T12:47:18.859Z</time></trkpt><trkpt lat="42.8407163" lon="11.8783119"><ele>564.0</ele><time>2026-04-26T12:47:19.858Z</time></trkpt><trkpt lat="42.8408278" lon="11.8783143"><ele>561.5</ele><time>2026-04-26T12:47:20.859Z</time></trkpt><trkpt lat="42.8409442" lon="11.8783397"><ele>559.0</ele><time>2026-04-26T12:47:21.858Z</time></trkpt><trkpt lat="42.8410619" lon="11.8783798"><ele>559.0</ele><time>2026-04-26T12:47:22.859Z</time></trkpt><trkpt lat="42.8411884" lon="11.8784155"><ele>559.0</ele><time>2026-04-26T12:47:23.859Z</time></trkpt><trkpt lat="42.8413192" lon="11.8784585"><ele>559.0</ele><time>2026-04-26T12:47:24.859Z</time></trkpt><trkpt lat="42.8414661" lon="11.8784793"><ele>559.0</ele><time>2026-04-26T12:47:25.859Z</time></trkpt><trkpt lat="42.8416109" lon="11.8784698"><ele>559.0</ele><time>2026-04-26T12:47:26.858Z</time></trkpt><trkpt lat="42.8417514" lon="11.8784337"><ele>559.0</ele><time>2026-04-26T12:47:27.859Z</time></trkpt><trkpt lat="42.8418983" lon="11.8783855"><ele>559.0</ele><time>2026-04-26T12:47:28.859Z</time></trkpt><trkpt lat="42.8420449" lon="11.8783417"><ele>559.0</ele><time>2026-04-26T12:47:29.859Z</time></trkpt><trkpt lat="42.8421781" lon="11.8782968"><ele>559.0</ele><time>2026-04-26T12:47:30.859Z</time></trkpt><trkpt lat="42.8423062" lon="11.8782524"><ele>559.0</ele><time>2026-04-26T12:47:31.859Z</time></trkpt><trkpt lat="42.8424256" lon="11.8782119"><ele>559.0</ele><time>2026-04-26T12:47:32.858Z</time></trkpt><trkpt lat="42.8425336" lon="11.8781886"><ele>559.0</ele><time>2026-04-26T12:47:33.858Z</time></trkpt><trkpt lat="42.8426326" lon="11.8781979"><ele>558.2</ele><time>2026-04-26T12:47:34.858Z</time></trkpt><trkpt lat="42.8427276" lon="11.8782465"><ele>557.4</ele><time>2026-04-26T12:47:35.858Z</time></trkpt><trkpt lat="42.8428029" lon="11.8783501"><ele>556.6</ele><time>2026-04-26T12:47:36.858Z</time></trkpt><trkpt lat="42.842857" lon="11.8784844"><ele>555.8</ele><time>2026-04-26T12:47:37.858Z</time></trkpt><trkpt lat="42.8428944" lon="11.8786256"><ele>555.0</ele><time>2026-04-26T12:47:38.857Z</time></trkpt><trkpt lat="42.8429368" lon="11.8787813"><ele>555.0</ele><time>2026-04-26T12:47:39.858Z</time></trkpt><trkpt lat="42.842985" lon="11.8789836"><ele>555.0</ele><time>2026-04-26T12:47:40.858Z</time></trkpt><trkpt lat="42.8430314" lon="11.8791824"><ele>555.0</ele><time>2026-04-26T12:47:41.858Z</time></trkpt><trkpt lat="42.8430833" lon="11.8793861"><ele>555.0</ele><time>2026-04-26T12:47:42.858Z</time></trkpt><trkpt lat="42.843135" lon="11.8795908"><ele>555.0</ele><time>2026-04-26T12:47:43.858Z</time></trkpt><trkpt lat="42.8431988" lon="11.8797846"><ele>555.0</ele><time>2026-04-26T12:47:44.858Z</time></trkpt><trkpt lat="42.8432792" lon="11.8799642"><ele>552.6666666666666</ele><time>2026-04-26T12:47:45.857Z</time></trkpt><trkpt lat="42.8433745" lon="11.8801374"><ele>550.3333333333333</ele><time>2026-04-26T12:47:46.857Z</time></trkpt><trkpt lat="42.8434832" lon="11.8803065"><ele>548.0</ele><time>2026-04-26T12:47:47.858Z</time></trkpt><trkpt lat="42.8435928" lon="11.8804736"><ele>548.0</ele><time>2026-04-26T12:47:48.858Z</time></trkpt><trkpt lat="42.8437087" lon="11.8806445"><ele>548.0</ele><time>2026-04-26T12:47:49.858Z</time></trkpt><trkpt lat="42.8438339" lon="11.8808291"><ele>548.0</ele><time>2026-04-26T12:47:50.858Z</time></trkpt><trkpt lat="42.8439542" lon="11.8810118"><ele>548.6666666666666</ele><time>2026-04-26T12:47:51.858Z</time></trkpt><trkpt lat="42.8440718" lon="11.8811793"><ele>549.3333333333334</ele><time>2026-04-26T12:47:52.857Z</time></trkpt><trkpt lat="42.8441897" lon="11.881343"><ele>550.0</ele><time>2026-04-26T12:47:53.858Z</time></trkpt><trkpt lat="42.8443097" lon="11.8815069"><ele>548.0</ele><time>2026-04-26T12:47:54.858Z</time></trkpt><trkpt lat="42.8444352" lon="11.8816385"><ele>546.0</ele><time>2026-04-26T12:47:55.857Z</time></trkpt><trkpt lat="42.8445534" lon="11.8817663"><ele>544.0</ele><time>2026-04-26T12:47:56.858Z</time></trkpt><trkpt lat="42.8446667" lon="11.8818964"><ele>544.0</ele><time>2026-04-26T12:47:57.858Z</time></trkpt><trkpt lat="42.8447613" lon="11.8820383"><ele>544.0</ele><time>2026-04-26T12:47:58.858Z</time></trkpt><trkpt lat="42.8448513" lon="11.8821838"><ele>544.0</ele><time>2026-04-26T12:47:59.858Z</time></trkpt><trkpt lat="42.8449358" lon="11.8823338"><ele>544.0</ele><time>2026-04-26T12:48:00.858Z</time></trkpt><trkpt lat="42.8450108" lon="11.8824865"><ele>544.0</ele><time>2026-04-26T12:48:01.858Z</time></trkpt><trkpt lat="42.8450801" lon="11.8826363"><ele>544.0</ele><time>2026-04-26T12:48:02.858Z</time></trkpt><trkpt lat="42.8451444" lon="11.8827927"><ele>544.0</ele><time>2026-04-26T12:48:03.857Z</time></trkpt><trkpt lat="42.8452048" lon="11.8829525"><ele>544.0</ele><time>2026-04-26T12:48:04.857Z</time></trkpt><trkpt lat="42.8452604" lon="11.8831105"><ele>544.0</ele><time>2026-04-26T12:48:05.858Z</time></trkpt><trkpt lat="42.8453145" lon="11.8832747"><ele>544.0</ele><time>2026-04-26T12:48:06.858Z</time></trkpt><trkpt lat="42.8453759" lon="11.883429"><ele>544.0</ele><time>2026-04-26T12:48:07.858Z</time></trkpt><trkpt lat="42.8454405" lon="11.8835754"><ele>544.0</ele><time>2026-04-26T12:48:08.858Z</time></trkpt><trkpt lat="42.8455107" lon="11.8837235"><ele>545.75</ele><time>2026-04-26T12:48:09.858Z</time></trkpt><trkpt lat="42.8455805" lon="11.8838638"><ele>547.5</ele><time>2026-04-26T12:48:10.858Z</time></trkpt><trkpt lat="42.8456498" lon="11.8839931"><ele>549.25</ele><time>2026-04-26T12:48:11.857Z</time></trkpt><trkpt lat="42.8457219" lon="11.8841048"><ele>551.0</ele><time>2026-04-26T12:48:12.858Z</time></trkpt><trkpt lat="42.8458117" lon="11.8841717"><ele>551.0</ele><time>2026-04-26T12:48:13.858Z</time></trkpt><trkpt lat="42.8459117" lon="11.884203"><ele>551.0</ele><time>2026-04-26T12:48:14.858Z</time></trkpt><trkpt lat="42.8460049" lon="11.8842108"><ele>551.0</ele><time>2026-04-26T12:48:15.858Z</time></trkpt><trkpt lat="42.8461093" lon="11.8842079"><ele>551.0</ele><time>2026-04-26T12:48:16.858Z</time></trkpt><trkpt lat="42.8462175" lon="11.8841807"><ele>551.0</ele><time>2026-04-26T12:48:17.858Z</time></trkpt><trkpt lat="42.8463323" lon="11.8841341"><ele>552.0</ele><time>2026-04-26T12:48:18.858Z</time></trkpt><trkpt lat="42.8464375" lon="11.8840641"><ele>553.0</ele><time>2026-04-26T12:48:19.858Z</time></trkpt><trkpt lat="42.8465538" lon="11.8839851"><ele>554.0</ele><time>2026-04-26T12:48:20.858Z</time></trkpt><trkpt lat="42.8466719" lon="11.883898"><ele>555.0</ele><time>2026-04-26T12:48:21.858Z</time></trkpt><trkpt lat="42.8467932" lon="11.8838068"><ele>554.75</ele><time>2026-04-26T12:48:22.857Z</time></trkpt><trkpt lat="42.8469068" lon="11.8837067"><ele>554.5</ele><time>2026-04-26T12:48:23.857Z</time></trkpt><trkpt lat="42.8470085" lon="11.8835787"><ele>554.25</ele><time>2026-04-26T12:48:24.857Z</time></trkpt><trkpt lat="42.8470937" lon="11.8834384"><ele>554.0</ele><time>2026-04-26T12:48:25.858Z</time></trkpt><trkpt lat="42.8471781" lon="11.8833002"><ele>554.0</ele><time>2026-04-26T12:48:26.857Z</time></trkpt><trkpt lat="42.8472578" lon="11.8831643"><ele>554.0</ele><time>2026-04-26T12:48:27.858Z</time></trkpt><trkpt lat="42.8473208" lon="11.8830446"><ele>554.0</ele><time>2026-04-26T12:48:28.858Z</time></trkpt><trkpt lat="42.8473728" lon="11.8829297"><ele>554.0</ele><time>2026-04-26T12:48:29.858Z</time></trkpt><trkpt lat="42.8474111" lon="11.8828501"><ele>554.0</ele><time>2026-04-26T12:48:30.858Z</time></trkpt><trkpt lat="42.8474413" lon="11.8827725"><ele>554.0</ele><time>2026-04-26T12:48:31.858Z</time></trkpt><trkpt lat="42.8475044" lon="11.8826254"><ele>554.0</ele><time>2026-04-26T12:48:33.858Z</time></trkpt><trkpt lat="42.8475459" lon="11.8825362"><ele>554.0</ele><time>2026-04-26T12:48:34.858Z</time></trkpt><trkpt lat="42.8475933" lon="11.8824314"><ele>554.0</ele><time>2026-04-26T12:48:35.858Z</time></trkpt><trkpt lat="42.8476521" lon="11.8823083"><ele>554.0</ele><time>2026-04-26T12:48:36.857Z</time></trkpt><trkpt lat="42.8477079" lon="11.8821821"><ele>554.4</ele><time>2026-04-26T12:48:37.858Z</time></trkpt><trkpt lat="42.847763" lon="11.8820541"><ele>554.8</ele><time>2026-04-26T12:48:38.858Z</time></trkpt><trkpt lat="42.84782" lon="11.8819316"><ele>555.2</ele><time>2026-04-26T12:48:39.858Z</time></trkpt><trkpt lat="42.847883" lon="11.8818092"><ele>555.6</ele><time>2026-04-26T12:48:40.858Z</time></trkpt><trkpt lat="42.8479437" lon="11.8816854"><ele>556.0</ele><time>2026-04-26T12:48:41.858Z</time></trkpt><trkpt lat="42.8480003" lon="11.8815628"><ele>554.8</ele><time>2026-04-26T12:48:42.858Z</time></trkpt><trkpt lat="42.8480513" lon="11.8814446"><ele>553.6</ele><time>2026-04-26T12:48:43.858Z</time></trkpt><trkpt lat="42.8481106" lon="11.8813317"><ele>552.4</ele><time>2026-04-26T12:48:44.857Z</time></trkpt><trkpt lat="42.8481789" lon="11.8812207"><ele>551.2</ele><time>2026-04-26T12:48:45.858Z</time></trkpt><trkpt lat="42.8482582" lon="11.8811152"><ele>550.0</ele><time>2026-04-26T12:48:46.858Z</time></trkpt><trkpt lat="42.8483438" lon="11.8810141"><ele>552.25</ele><time>2026-04-26T12:48:47.858Z</time></trkpt><trkpt lat="42.848442" lon="11.8809147"><ele>554.5</ele><time>2026-04-26T12:48:48.857Z</time></trkpt><trkpt lat="42.8485401" lon="11.8808219"><ele>556.75</ele><time>2026-04-26T12:48:49.858Z</time></trkpt><trkpt lat="42.8486341" lon="11.8807353"><ele>559.0</ele><time>2026-04-26T12:48:50.858Z</time></trkpt><trkpt lat="42.8487136" lon="11.880653"><ele>559.0</ele><time>2026-04-26T12:48:51.857Z</time></trkpt><trkpt lat="42.8487759" lon="11.8805806"><ele>559.0</ele><time>2026-04-26T12:48:52.858Z</time></trkpt><trkpt lat="42.8488247" lon="11.8805137"><ele>559.0</ele><time>2026-04-26T12:48:53.857Z</time></trkpt><trkpt lat="42.8488609" lon="11.8804375"><ele>559.0</ele><time>2026-04-26T12:48:54.858Z</time></trkpt><trkpt lat="42.8488882" lon="11.8803542"><ele>559.0</ele><time>2026-04-26T12:48:55.858Z</time></trkpt><trkpt lat="42.848919" lon="11.8802063"><ele>559.0</ele><time>2026-04-26T12:48:57.857Z</time></trkpt><trkpt lat="42.8488987" lon="11.8800413"><ele>557.8</ele><time>2026-04-26T12:48:59.858Z</time></trkpt><trkpt lat="42.8488611" lon="11.8798839"><ele>556.5999999999999</ele><time>2026-04-26T12:49:01.858Z</time></trkpt><trkpt lat="42.8488715" lon="11.8797844"><ele>555.4</ele><time>2026-04-26T12:49:02.858Z</time></trkpt><trkpt lat="42.848894" lon="11.8796748"><ele>554.1999999999999</ele><time>2026-04-26T12:49:03.858Z</time></trkpt><trkpt lat="42.8489472" lon="11.8795338"><ele>553.0</ele><time>2026-04-26T12:49:04.858Z</time></trkpt><trkpt lat="42.8490103" lon="11.8793903"><ele>551.75</ele><time>2026-04-26T12:49:05.858Z</time></trkpt><trkpt lat="42.849078" lon="11.8792498"><ele>550.5</ele><time>2026-04-26T12:49:06.858Z</time></trkpt><trkpt lat="42.849144" lon="11.8791031"><ele>549.25</ele><time>2026-04-26T12:49:07.858Z</time></trkpt><trkpt lat="42.8492139" lon="11.8789512"><ele>548.0</ele><time>2026-04-26T12:49:08.858Z</time></trkpt><trkpt lat="42.8492836" lon="11.8787936"><ele>547.0</ele><time>2026-04-26T12:49:09.858Z</time></trkpt><trkpt lat="42.8493501" lon="11.8786346"><ele>546.0</ele><time>2026-04-26T12:49:10.858Z</time></trkpt><trkpt lat="42.8494007" lon="11.8784617"><ele>545.0</ele><time>2026-04-26T12:49:11.857Z</time></trkpt><trkpt lat="42.8494289" lon="11.8782767"><ele>544.0</ele><time>2026-04-26T12:49:12.858Z</time></trkpt><trkpt lat="42.8494375" lon="11.8781021"><ele>544.0</ele><time>2026-04-26T12:49:13.858Z</time></trkpt><trkpt lat="42.8494367" lon="11.8779317"><ele>544.0</ele><time>2026-04-26T12:49:14.858Z</time></trkpt><trkpt lat="42.8494287" lon="11.8777626"><ele>544.0</ele><time>2026-04-26T12:49:15.858Z</time></trkpt><trkpt lat="42.8494539" lon="11.8776017"><ele>544.0</ele><time>2026-04-26T12:49:16.858Z</time></trkpt><trkpt lat="42.8495231" lon="11.877453"><ele>542.0</ele><time>2026-04-26T12:49:17.858Z</time></trkpt><trkpt lat="42.8496315" lon="11.8773171"><ele>540.0</ele><time>2026-04-26T12:49:18.857Z</time></trkpt><trkpt lat="42.8497478" lon="11.8772017"><ele>538.0</ele><time>2026-04-26T12:49:19.858Z</time></trkpt><trkpt lat="42.8498634" lon="11.8770843"><ele>536.0</ele><time>2026-04-26T12:49:20.857Z</time></trkpt><trkpt lat="42.8499921" lon="11.8769759"><ele>535.6666666666666</ele><time>2026-04-26T12:49:21.858Z</time></trkpt><trkpt lat="42.850145" lon="11.8768938"><ele>535.3333333333334</ele><time>2026-04-26T12:49:22.857Z</time></trkpt><trkpt lat="42.8503134" lon="11.8768431"><ele>535.0</ele><time>2026-04-26T12:49:23.857Z</time></trkpt><trkpt lat="42.8504776" lon="11.8767996"><ele>535.0</ele><time>2026-04-26T12:49:24.858Z</time></trkpt><trkpt lat="42.8506508" lon="11.8767783"><ele>535.0</ele><time>2026-04-26T12:49:25.858Z</time></trkpt><trkpt lat="42.850834" lon="11.8767894"><ele>535.0</ele><time>2026-04-26T12:49:26.857Z</time></trkpt><trkpt lat="42.8510193" lon="11.8768002"><ele>536.0</ele><time>2026-04-26T12:49:27.858Z</time></trkpt><trkpt lat="42.8512021" lon="11.8768017"><ele>537.0</ele><time>2026-04-26T12:49:28.858Z</time></trkpt><trkpt lat="42.8513809" lon="11.8768053"><ele>538.0</ele><time>2026-04-26T12:49:29.857Z</time></trkpt><trkpt lat="42.8515466" lon="11.8768073"><ele>538.0</ele><time>2026-04-26T12:49:30.858Z</time></trkpt><trkpt lat="42.8516998" lon="11.876797"><ele>538.0</ele><time>2026-04-26T12:49:31.857Z</time></trkpt><trkpt lat="42.8518445" lon="11.8767804"><ele>538.0</ele><time>2026-04-26T12:49:32.858Z</time></trkpt><trkpt lat="42.8519778" lon="11.8767547"><ele>538.0</ele><time>2026-04-26T12:49:33.857Z</time></trkpt><trkpt lat="42.8521036" lon="11.8767158"><ele>535.25</ele><time>2026-04-26T12:49:34.858Z</time></trkpt><trkpt lat="42.8522265" lon="11.876646"><ele>532.5</ele><time>2026-04-26T12:49:35.858Z</time></trkpt><trkpt lat="42.8523451" lon="11.8765426"><ele>529.75</ele><time>2026-04-26T12:49:36.858Z</time></trkpt><trkpt lat="42.8524528" lon="11.8764094"><ele>527.0</ele><time>2026-04-26T12:49:37.858Z</time></trkpt><trkpt lat="42.8525495" lon="11.8762541"><ele>528.25</ele><time>2026-04-26T12:49:38.858Z</time></trkpt><trkpt lat="42.8526339" lon="11.8760925"><ele>529.5</ele><time>2026-04-26T12:49:39.858Z</time></trkpt><trkpt lat="42.8527155" lon="11.8759262"><ele>530.75</ele><time>2026-04-26T12:49:40.857Z</time></trkpt><trkpt lat="42.8527896" lon="11.8757462"><ele>532.0</ele><time>2026-04-26T12:49:41.858Z</time></trkpt><trkpt lat="42.852868" lon="11.875583"><ele>532.0</ele><time>2026-04-26T12:49:42.858Z</time></trkpt><trkpt lat="42.8529496" lon="11.8754257"><ele>532.0</ele><time>2026-04-26T12:49:43.858Z</time></trkpt><trkpt lat="42.8530415" lon="11.8752752"><ele>532.0</ele><time>2026-04-26T12:49:44.858Z</time></trkpt><trkpt lat="42.8531543" lon="11.8751432"><ele>532.0</ele><time>2026-04-26T12:49:45.858Z</time></trkpt><trkpt lat="42.8532781" lon="11.8750448"><ele>528.0</ele><time>2026-04-26T12:49:46.858Z</time></trkpt><trkpt lat="42.8534067" lon="11.874967"><ele>524.0</ele><time>2026-04-26T12:49:47.858Z</time></trkpt><trkpt lat="42.8535315" lon="11.8748915"><ele>520.0</ele><time>2026-04-26T12:49:48.858Z</time></trkpt><trkpt lat="42.8536329" lon="11.8747729"><ele>516.0</ele><time>2026-04-26T12:49:49.858Z</time></trkpt><trkpt lat="42.8537221" lon="11.8746219"><ele>516.0</ele><time>2026-04-26T12:49:50.858Z</time></trkpt><trkpt lat="42.8537705" lon="11.874449"><ele>516.0</ele><time>2026-04-26T12:49:51.858Z</time></trkpt><trkpt lat="42.853814" lon="11.8742767"><ele>516.0</ele><time>2026-04-26T12:49:52.857Z</time></trkpt><trkpt lat="42.8538549" lon="11.874123"><ele>516.0</ele><time>2026-04-26T12:49:53.858Z</time></trkpt><trkpt lat="42.8539217" lon="11.8740214"><ele>514.5</ele><time>2026-04-26T12:49:54.858Z</time></trkpt><trkpt lat="42.8540424" lon="11.8739711"><ele>513.0</ele><time>2026-04-26T12:49:55.858Z</time></trkpt><trkpt lat="42.8541662" lon="11.8739222"><ele>511.5</ele><time>2026-04-26T12:49:56.858Z</time></trkpt><trkpt lat="42.8543032" lon="11.8738553"><ele>510.0</ele><time>2026-04-26T12:49:57.858Z</time></trkpt><trkpt lat="42.8544441" lon="11.8737885"><ele>510.0</ele><time>2026-04-26T12:49:58.858Z</time></trkpt><trkpt lat="42.8545785" lon="11.8737055"><ele>510.0</ele><time>2026-04-26T12:49:59.857Z</time></trkpt><trkpt lat="42.8547039" lon="11.8736131"><ele>510.0</ele><time>2026-04-26T12:50:00.857Z</time></trkpt><trkpt lat="42.8548297" lon="11.8735124"><ele>510.0</ele><time>2026-04-26T12:50:01.857Z</time></trkpt><trkpt lat="42.8549519" lon="11.8734102"><ele>509.0</ele><time>2026-04-26T12:50:02.858Z</time></trkpt><trkpt lat="42.8550691" lon="11.8733046"><ele>508.0</ele><time>2026-04-26T12:50:03.858Z</time></trkpt><trkpt lat="42.8551903" lon="11.8731903"><ele>507.0</ele><time>2026-04-26T12:50:04.857Z</time></trkpt><trkpt lat="42.8553024" lon="11.8730591"><ele>506.0</ele><time>2026-04-26T12:50:05.858Z</time></trkpt><trkpt lat="42.8553829" lon="11.8729136"><ele>506.0</ele><time>2026-04-26T12:50:06.858Z</time></trkpt><trkpt lat="42.855458" lon="11.87277"><ele>506.0</ele><time>2026-04-26T12:50:07.858Z</time></trkpt><trkpt lat="42.8555404" lon="11.8726717"><ele>506.0</ele><time>2026-04-26T12:50:08.857Z</time></trkpt><trkpt lat="42.8556423" lon="11.8726193"><ele>506.0</ele><time>2026-04-26T12:50:09.858Z</time></trkpt><trkpt lat="42.8557452" lon="11.872627"><ele>506.0</ele><time>2026-04-26T12:50:10.858Z</time></trkpt><trkpt lat="42.8558388" lon="11.8727012"><ele>506.0</ele><time>2026-04-26T12:50:11.858Z</time></trkpt><trkpt lat="42.8559426" lon="11.8728108"><ele>506.0</ele><time>2026-04-26T12:50:12.858Z</time></trkpt><trkpt lat="42.8560445" lon="11.8729207"><ele>506.0</ele><time>2026-04-26T12:50:13.858Z</time></trkpt><trkpt lat="42.8561542" lon="11.8730218"><ele>503.75</ele><time>2026-04-26T12:50:14.858Z</time></trkpt><trkpt lat="42.8562761" lon="11.8731076"><ele>501.5</ele><time>2026-04-26T12:50:15.858Z</time></trkpt><trkpt lat="42.8564099" lon="11.8731772"><ele>499.25</ele><time>2026-04-26T12:50:16.858Z</time></trkpt><trkpt lat="42.8565524" lon="11.873221"><ele>497.0</ele><time>2026-04-26T12:50:17.858Z</time></trkpt><trkpt lat="42.8566971" lon="11.8732316"><ele>495.25</ele><time>2026-04-26T12:50:18.857Z</time></trkpt><trkpt lat="42.8568464" lon="11.873231"><ele>493.5</ele><time>2026-04-26T12:50:19.858Z</time></trkpt><trkpt lat="42.8569958" lon="11.8732321"><ele>491.75</ele><time>2026-04-26T12:50:20.857Z</time></trkpt><trkpt lat="42.8571456" lon="11.8732471"><ele>490.0</ele><time>2026-04-26T12:50:21.858Z</time></trkpt><trkpt lat="42.857292" lon="11.8733017"><ele>490.0</ele><time>2026-04-26T12:50:22.858Z</time></trkpt><trkpt lat="42.8574329" lon="11.8733924"><ele>490.0</ele><time>2026-04-26T12:50:23.858Z</time></trkpt><trkpt lat="42.8575686" lon="11.8734771"><ele>490.0</ele><time>2026-04-26T12:50:24.858Z</time></trkpt><trkpt lat="42.8576731" lon="11.8735957"><ele>490.0</ele><time>2026-04-26T12:50:25.857Z</time></trkpt><trkpt lat="42.8577404" lon="11.8737651"><ele>489.0</ele><time>2026-04-26T12:50:26.858Z</time></trkpt><trkpt lat="42.8577897" lon="11.8739433"><ele>488.0</ele><time>2026-04-26T12:50:27.858Z</time></trkpt><trkpt lat="42.8578383" lon="11.8741298"><ele>487.0</ele><time>2026-04-26T12:50:28.857Z</time></trkpt><trkpt lat="42.8578813" lon="11.8743186"><ele>486.0</ele><time>2026-04-26T12:50:29.857Z</time></trkpt><trkpt lat="42.8579072" lon="11.8745074"><ele>486.0</ele><time>2026-04-26T12:50:30.858Z</time></trkpt><trkpt lat="42.8579206" lon="11.8746888"><ele>486.0</ele><time>2026-04-26T12:50:31.858Z</time></trkpt><trkpt lat="42.8579318" lon="11.8748721"><ele>486.0</ele><time>2026-04-26T12:50:32.858Z</time></trkpt><trkpt lat="42.8579725" lon="11.8750612"><ele>486.0</ele><time>2026-04-26T12:50:33.858Z</time></trkpt><trkpt lat="42.8580598" lon="11.8752522"><ele>491.0</ele><time>2026-04-26T12:50:34.858Z</time></trkpt><trkpt lat="42.8581565" lon="11.8754507"><ele>496.0</ele><time>2026-04-26T12:50:35.858Z</time></trkpt><trkpt lat="42.858258" lon="11.875643"><ele>501.0</ele><time>2026-04-26T12:50:36.858Z</time></trkpt><trkpt lat="42.8583518" lon="11.8758141"><ele>500.25</ele><time>2026-04-26T12:50:37.858Z</time></trkpt><trkpt lat="42.8584426" lon="11.8759715"><ele>499.5</ele><time>2026-04-26T12:50:38.858Z</time></trkpt><trkpt lat="42.8585208" lon="11.8761297"><ele>498.75</ele><time>2026-04-26T12:50:39.858Z</time></trkpt><trkpt lat="42.8585776" lon="11.8762799"><ele>498.0</ele><time>2026-04-26T12:50:40.858Z</time></trkpt><trkpt lat="42.8586194" lon="11.8764263"><ele>498.0</ele><time>2026-04-26T12:50:41.857Z</time></trkpt><trkpt lat="42.8586706" lon="11.8765532"><ele>497.99999999999994</ele><time>2026-04-26T12:50:42.857Z</time></trkpt><trkpt lat="42.8587347" lon="11.876654"><ele>497.99999999999994</ele><time>2026-04-26T12:50:43.858Z</time></trkpt><trkpt lat="42.8588189" lon="11.876727"><ele>498.0</ele><time>2026-04-26T12:50:44.857Z</time></trkpt><trkpt lat="42.8589081" lon="11.8767752"><ele>498.0</ele><time>2026-04-26T12:50:45.858Z</time></trkpt><trkpt lat="42.8590124" lon="11.8767679"><ele>498.0</ele><time>2026-04-26T12:50:46.858Z</time></trkpt><trkpt lat="42.8591322" lon="11.8767183"><ele>498.0</ele><time>2026-04-26T12:50:47.858Z</time></trkpt><trkpt lat="42.8592445" lon="11.8766764"><ele>498.0</ele><time>2026-04-26T12:50:48.857Z</time></trkpt><trkpt lat="42.8593506" lon="11.8766257"><ele>498.0</ele><time>2026-04-26T12:50:49.857Z</time></trkpt><trkpt lat="42.8594329" lon="11.8765482"><ele>500.5</ele><time>2026-04-26T12:50:50.857Z</time></trkpt><trkpt lat="42.8594744" lon="11.8764113"><ele>503.0</ele><time>2026-04-26T12:50:51.858Z</time></trkpt><trkpt lat="42.8594807" lon="11.8762338"><ele>505.5</ele><time>2026-04-26T12:50:52.858Z</time></trkpt><trkpt lat="42.859462" lon="11.876063"><ele>508.0</ele><time>2026-04-26T12:50:53.858Z</time></trkpt><trkpt lat="42.8594575" lon="11.8758856"><ele>508.0</ele><time>2026-04-26T12:50:54.858Z</time></trkpt><trkpt lat="42.8594847" lon="11.8757102"><ele>508.0</ele><time>2026-04-26T12:50:55.858Z</time></trkpt><trkpt lat="42.8595234" lon="11.8755435"><ele>508.0</ele><time>2026-04-26T12:50:56.858Z</time></trkpt><trkpt lat="42.8595698" lon="11.8754002"><ele>508.0</ele><time>2026-04-26T12:50:57.858Z</time></trkpt><trkpt lat="42.8596407" lon="11.8752858"><ele>508.0</ele><time>2026-04-26T12:50:58.858Z</time></trkpt><trkpt lat="42.8597349" lon="11.8752096"><ele>508.0</ele><time>2026-04-26T12:50:59.858Z</time></trkpt><trkpt lat="42.8598374" lon="11.8751671"><ele>508.0</ele><time>2026-04-26T12:51:00.858Z</time></trkpt><trkpt lat="42.8599522" lon="11.875159"><ele>508.0</ele><time>2026-04-26T12:51:01.858Z</time></trkpt><trkpt lat="42.8600731" lon="11.8751824"><ele>508.25</ele><time>2026-04-26T12:51:02.858Z</time></trkpt><trkpt lat="42.8602017" lon="11.8752245"><ele>508.5</ele><time>2026-04-26T12:51:03.858Z</time></trkpt><trkpt lat="42.8603243" lon="11.8752893"><ele>508.75</ele><time>2026-04-26T12:51:04.858Z</time></trkpt><trkpt lat="42.8604624" lon="11.8753571"><ele>509.0</ele><time>2026-04-26T12:51:05.858Z</time></trkpt><trkpt lat="42.8606047" lon="11.8754331"><ele>509.0</ele><time>2026-04-26T12:51:06.857Z</time></trkpt><trkpt lat="42.8607585" lon="11.8755092"><ele>509.0</ele><time>2026-04-26T12:51:07.858Z</time></trkpt><trkpt lat="42.8609196" lon="11.8755822"><ele>509.0</ele><time>2026-04-26T12:51:08.858Z</time></trkpt><trkpt lat="42.8610842" lon="11.8756622"><ele>509.0</ele><time>2026-04-26T12:51:09.858Z</time></trkpt><trkpt lat="42.8612532" lon="11.875741"><ele>509.0</ele><time>2026-04-26T12:51:10.857Z</time></trkpt><trkpt lat="42.8614202" lon="11.875816"><ele>509.0</ele><time>2026-04-26T12:51:11.857Z</time></trkpt><trkpt lat="42.8615896" lon="11.8758994"><ele>511.3333333333333</ele><time>2026-04-26T12:51:12.858Z</time></trkpt><trkpt lat="42.8617635" lon="11.8759781"><ele>513.6666666666666</ele><time>2026-04-26T12:51:13.857Z</time></trkpt><trkpt lat="42.8619383" lon="11.8760627"><ele>516.0</ele><time>2026-04-26T12:51:14.858Z</time></trkpt><trkpt lat="42.8621167" lon="11.8761442"><ele>518.3333333333334</ele><time>2026-04-26T12:51:15.858Z</time></trkpt><trkpt lat="42.8622974" lon="11.8762293"><ele>520.6666666666667</ele><time>2026-04-26T12:51:16.858Z</time></trkpt><trkpt lat="42.8624817" lon="11.8763168"><ele>523.0</ele><time>2026-04-26T12:51:17.857Z</time></trkpt><trkpt lat="42.8626597" lon="11.8764036"><ele>524.0</ele><time>2026-04-26T12:51:18.857Z</time></trkpt><trkpt lat="42.8628325" lon="11.8764851"><ele>525.0</ele><time>2026-04-26T12:51:19.858Z</time></trkpt><trkpt lat="42.8630064" lon="11.8765681"><ele>526.0</ele><time>2026-04-26T12:51:20.858Z</time></trkpt><trkpt lat="42.8631746" lon="11.8766497"><ele>526.0</ele><time>2026-04-26T12:51:21.858Z</time></trkpt><trkpt lat="42.8633452" lon="11.8767299"><ele>526.0</ele><time>2026-04-26T12:51:22.857Z</time></trkpt><trkpt lat="42.8635167" lon="11.8768062"><ele>526.0</ele><time>2026-04-26T12:51:23.857Z</time></trkpt><trkpt lat="42.8636851" lon="11.8768794"><ele>529.0</ele><time>2026-04-26T12:51:24.857Z</time></trkpt><trkpt lat="42.8638498" lon="11.8769554"><ele>532.0</ele><time>2026-04-26T12:51:25.857Z</time></trkpt><trkpt lat="42.8640056" lon="11.877034"><ele>535.0</ele><time>2026-04-26T12:51:26.858Z</time></trkpt><trkpt lat="42.8641612" lon="11.877112"><ele>537.6666666666667</ele><time>2026-04-26T12:51:27.857Z</time></trkpt><trkpt lat="42.8643075" lon="11.8771974"><ele>540.3333333333334</ele><time>2026-04-26T12:51:28.858Z</time></trkpt><trkpt lat="42.8644495" lon="11.8772779"><ele>543.0</ele><time>2026-04-26T12:51:29.858Z</time></trkpt><trkpt lat="42.8645823" lon="11.8773604"><ele>543.0</ele><time>2026-04-26T12:51:30.857Z</time></trkpt><trkpt lat="42.8647058" lon="11.8774079"><ele>543.0</ele><time>2026-04-26T12:51:31.858Z</time></trkpt><trkpt lat="42.8648273" lon="11.8774082"><ele>543.0</ele><time>2026-04-26T12:51:32.858Z</time></trkpt><trkpt lat="42.8649435" lon="11.8773586"><ele>543.0</ele><time>2026-04-26T12:51:33.858Z</time></trkpt><trkpt lat="42.8650492" lon="11.8772504"><ele>543.0</ele><time>2026-04-26T12:51:34.857Z</time></trkpt><trkpt lat="42.8651114" lon="11.8771063"><ele>543.0</ele><time>2026-04-26T12:51:35.858Z</time></trkpt><trkpt lat="42.8651728" lon="11.8769283"><ele>543.0</ele><time>2026-04-26T12:51:36.858Z</time></trkpt><trkpt lat="42.8652162" lon="11.8767332"><ele>543.0</ele><time>2026-04-26T12:51:37.858Z</time></trkpt><trkpt lat="42.8652579" lon="11.8765297"><ele>543.6666666666666</ele><time>2026-04-26T12:51:38.858Z</time></trkpt><trkpt lat="42.8652938" lon="11.876317"><ele>544.3333333333333</ele><time>2026-04-26T12:51:39.858Z</time></trkpt><trkpt lat="42.8653285" lon="11.8761087"><ele>545.0</ele><time>2026-04-26T12:51:40.857Z</time></trkpt><trkpt lat="42.8653663" lon="11.875909"><ele>545.0</ele><time>2026-04-26T12:51:41.858Z</time></trkpt><trkpt lat="42.8654062" lon="11.8757234"><ele>545.0</ele><time>2026-04-26T12:51:42.858Z</time></trkpt><trkpt lat="42.8654445" lon="11.8755525"><ele>545.0</ele><time>2026-04-26T12:51:43.858Z</time></trkpt><trkpt lat="42.8655076" lon="11.8754151"><ele>545.0</ele><time>2026-04-26T12:51:44.858Z</time></trkpt><trkpt lat="42.8656183" lon="11.8753238"><ele>545.0</ele><time>2026-04-26T12:51:45.857Z</time></trkpt><trkpt lat="42.8657357" lon="11.8752804"><ele>545.0</ele><time>2026-04-26T12:51:46.857Z</time></trkpt><trkpt lat="42.8658612" lon="11.8752844"><ele>545.0</ele><time>2026-04-26T12:51:47.858Z</time></trkpt><trkpt lat="42.8659922" lon="11.8753274"><ele>545.0</ele><time>2026-04-26T12:51:48.858Z</time></trkpt><trkpt lat="42.8661208" lon="11.8753973"><ele>546.25</ele><time>2026-04-26T12:51:49.858Z</time></trkpt><trkpt lat="42.8662525" lon="11.8754661"><ele>547.5</ele><time>2026-04-26T12:51:50.858Z</time></trkpt><trkpt lat="42.8663817" lon="11.8755259"><ele>548.75</ele><time>2026-04-26T12:51:51.858Z</time></trkpt><trkpt lat="42.8665046" lon="11.8755793"><ele>550.0</ele><time>2026-04-26T12:51:52.858Z</time></trkpt><trkpt lat="42.8666106" lon="11.8756378"><ele>550.0</ele><time>2026-04-26T12:51:53.857Z</time></trkpt><trkpt lat="42.8667063" lon="11.8756927"><ele>550.0</ele><time>2026-04-26T12:51:54.858Z</time></trkpt><trkpt lat="42.8667923" lon="11.8757289"><ele>550.0</ele><time>2026-04-26T12:51:55.858Z</time></trkpt><trkpt lat="42.86687" lon="11.8757659"><ele>550.0</ele><time>2026-04-26T12:51:56.858Z</time></trkpt><trkpt lat="42.8669533" lon="11.8758086"><ele>550.0</ele><time>2026-04-26T12:51:57.858Z</time></trkpt><trkpt lat="42.8670369" lon="11.8758501"><ele>549.75</ele><time>2026-04-26T12:51:58.858Z</time></trkpt><trkpt lat="42.8671397" lon="11.8758995"><ele>549.5</ele><time>2026-04-26T12:51:59.858Z</time></trkpt><trkpt lat="42.8672467" lon="11.8759501"><ele>549.25</ele><time>2026-04-26T12:52:00.858Z</time></trkpt><trkpt lat="42.8673565" lon="11.8760014"><ele>549.0</ele><time>2026-04-26T12:52:01.857Z</time></trkpt><trkpt lat="42.8674629" lon="11.8760588"><ele>548.25</ele><time>2026-04-26T12:52:02.858Z</time></trkpt><trkpt lat="42.8675618" lon="11.8761423"><ele>547.5</ele><time>2026-04-26T12:52:03.858Z</time></trkpt><trkpt lat="42.8676505" lon="11.8762793"><ele>546.75</ele><time>2026-04-26T12:52:04.858Z</time></trkpt><trkpt lat="42.8676979" lon="11.8764321"><ele>546.0</ele><time>2026-04-26T12:52:05.858Z</time></trkpt><trkpt lat="42.8676974" lon="11.8766152"><ele>551.25</ele><time>2026-04-26T12:52:06.858Z</time></trkpt><trkpt lat="42.8676795" lon="11.8768128"><ele>556.5</ele><time>2026-04-26T12:52:07.858Z</time></trkpt><trkpt lat="42.8676672" lon="11.8770068"><ele>561.75</ele><time>2026-04-26T12:52:08.858Z</time></trkpt><trkpt lat="42.8676663" lon="11.8771685"><ele>567.0</ele><time>2026-04-26T12:52:09.858Z</time></trkpt><trkpt lat="42.8676691" lon="11.8773276"><ele>567.0</ele><time>2026-04-26T12:52:10.858Z</time></trkpt><trkpt lat="42.8677336" lon="11.8774584"><ele>567.0</ele><time>2026-04-26T12:52:11.858Z</time></trkpt><trkpt lat="42.8678155" lon="11.8775566"><ele>567.0</ele><time>2026-04-26T12:52:12.858Z</time></trkpt><trkpt lat="42.8679343" lon="11.877602"><ele>567.0</ele><time>2026-04-26T12:52:13.857Z</time></trkpt><trkpt lat="42.8680755" lon="11.8775743"><ele>567.0</ele><time>2026-04-26T12:52:14.858Z</time></trkpt><trkpt lat="42.868207" lon="11.8775192"><ele>567.0</ele><time>2026-04-26T12:52:15.857Z</time></trkpt><trkpt lat="42.8683144" lon="11.8774036"><ele>567.0</ele><time>2026-04-26T12:52:16.858Z</time></trkpt><trkpt lat="42.8684234" lon="11.8772759"><ele>567.0</ele><time>2026-04-26T12:52:17.858Z</time></trkpt><trkpt lat="42.8685352" lon="11.8771663"><ele>570.0</ele><time>2026-04-26T12:52:18.858Z</time></trkpt><trkpt lat="42.8686562" lon="11.8770845"><ele>573.0</ele><time>2026-04-26T12:52:19.857Z</time></trkpt><trkpt lat="42.8687948" lon="11.8770185"><ele>576.0</ele><time>2026-04-26T12:52:20.858Z</time></trkpt><trkpt lat="42.8689459" lon="11.8769773"><ele>579.0</ele><time>2026-04-26T12:52:21.858Z</time></trkpt><trkpt lat="42.8690963" lon="11.8769455"><ele>579.0</ele><time>2026-04-26T12:52:22.857Z</time></trkpt><trkpt lat="42.8692465" lon="11.8769224"><ele>579.0</ele><time>2026-04-26T12:52:23.858Z</time></trkpt><trkpt lat="42.8693993" lon="11.876909"><ele>579.0</ele><time>2026-04-26T12:52:24.858Z</time></trkpt><trkpt lat="42.8695496" lon="11.8768912"><ele>577.5</ele><time>2026-04-26T12:52:25.858Z</time></trkpt><trkpt lat="42.869704" lon="11.8768752"><ele>576.0</ele><time>2026-04-26T12:52:26.858Z</time></trkpt><trkpt lat="42.8698455" lon="11.8768713"><ele>574.5</ele><time>2026-04-26T12:52:27.858Z</time></trkpt><trkpt lat="42.8699748" lon="11.8768688"><ele>573.0</ele><time>2026-04-26T12:52:28.857Z</time></trkpt><trkpt lat="42.8700851" lon="11.8768594"><ele>574.0</ele><time>2026-04-26T12:52:29.858Z</time></trkpt><trkpt lat="42.8701751" lon="11.8768467"><ele>575.0</ele><time>2026-04-26T12:52:30.858Z</time></trkpt><trkpt lat="42.8702493" lon="11.8768783"><ele>576.0</ele><time>2026-04-26T12:52:31.858Z</time></trkpt><trkpt lat="42.870302" lon="11.8769296"><ele>577.0</ele><time>2026-04-26T12:52:32.858Z</time></trkpt><trkpt lat="42.8703284" lon="11.877026"><ele>578.0</ele><time>2026-04-26T12:52:33.857Z</time></trkpt><trkpt lat="42.8703354" lon="11.8771287"><ele>579.0</ele><time>2026-04-26T12:52:34.858Z</time></trkpt><trkpt lat="42.8703608" lon="11.8772226"><ele>579.0</ele><time>2026-04-26T12:52:35.858Z</time></trkpt><trkpt lat="42.8704182" lon="11.8772907"><ele>579.0</ele><time>2026-04-26T12:52:36.858Z</time></trkpt><trkpt lat="42.8705158" lon="11.8773067"><ele>579.0</ele><time>2026-04-26T12:52:37.858Z</time></trkpt><trkpt lat="42.8706099" lon="11.8772869"><ele>579.0</ele><time>2026-04-26T12:52:38.857Z</time></trkpt><trkpt lat="42.8707198" lon="11.8772252"><ele>579.0</ele><time>2026-04-26T12:52:39.857Z</time></trkpt><trkpt lat="42.8708259" lon="11.8771656"><ele>579.75</ele><time>2026-04-26T12:52:40.857Z</time></trkpt><trkpt lat="42.870946" lon="11.8770975"><ele>580.5</ele><time>2026-04-26T12:52:41.858Z</time></trkpt><trkpt lat="42.8710732" lon="11.8770321"><ele>581.25</ele><time>2026-04-26T12:52:42.858Z</time></trkpt><trkpt lat="42.8712062" lon="11.8769731"><ele>582.0</ele><time>2026-04-26T12:52:43.857Z</time></trkpt><trkpt lat="42.8713403" lon="11.8769111"><ele>582.0</ele><time>2026-04-26T12:52:44.858Z</time></trkpt><trkpt lat="42.87148" lon="11.8768608"><ele>582.0</ele><time>2026-04-26T12:52:45.858Z</time></trkpt><trkpt lat="42.871623" lon="11.8768457"><ele>582.0</ele><time>2026-04-26T12:52:46.858Z</time></trkpt><trkpt lat="42.8717643" lon="11.876839"><ele>582.0</ele><time>2026-04-26T12:52:47.858Z</time></trkpt><trkpt lat="42.8719036" lon="11.8768433"><ele>581.25</ele><time>2026-04-26T12:52:48.858Z</time></trkpt><trkpt lat="42.8720345" lon="11.8768499"><ele>580.5</ele><time>2026-04-26T12:52:49.858Z</time></trkpt><trkpt lat="42.8721627" lon="11.876847"><ele>579.75</ele><time>2026-04-26T12:52:50.858Z</time></trkpt><trkpt lat="42.8722832" lon="11.8768443"><ele>579.0</ele><time>2026-04-26T12:52:51.858Z</time></trkpt><trkpt lat="42.8723921" lon="11.8768531"><ele>579.0</ele><time>2026-04-26T12:52:52.858Z</time></trkpt><trkpt lat="42.8724945" lon="11.8768789"><ele>579.0</ele><time>2026-04-26T12:52:53.857Z</time></trkpt><trkpt lat="42.872581" lon="11.8769151"><ele>579.0</ele><time>2026-04-26T12:52:54.858Z</time></trkpt><trkpt lat="42.8726501" lon="11.8769534"><ele>579.0</ele><time>2026-04-26T12:52:55.858Z</time></trkpt><trkpt lat="42.8727122" lon="11.8770014"><ele>579.0</ele><time>2026-04-26T12:52:56.858Z</time></trkpt><trkpt lat="42.8727799" lon="11.87704"><ele>579.0</ele><time>2026-04-26T12:52:58.857Z</time></trkpt><trkpt lat="42.8728688" lon="11.8770146"><ele>577.8333333333334</ele><time>2026-04-26T12:53:01.857Z</time></trkpt><trkpt lat="42.8729041" lon="11.8769389"><ele>576.6666666666666</ele><time>2026-04-26T12:53:02.858Z</time></trkpt><trkpt lat="42.8729445" lon="11.8768399"><ele>575.5</ele><time>2026-04-26T12:53:03.858Z</time></trkpt><trkpt lat="42.872994" lon="11.8767524"><ele>574.3333333333333</ele><time>2026-04-26T12:53:04.857Z</time></trkpt><trkpt lat="42.8730545" lon="11.8766628"><ele>573.1666666666666</ele><time>2026-04-26T12:53:05.858Z</time></trkpt><trkpt lat="42.8731326" lon="11.8765705"><ele>572.0</ele><time>2026-04-26T12:53:06.858Z</time></trkpt><trkpt lat="42.8732095" lon="11.8764642"><ele>571.8000000000001</ele><time>2026-04-26T12:53:07.857Z</time></trkpt><trkpt lat="42.873288" lon="11.8763466"><ele>571.6</ele><time>2026-04-26T12:53:08.858Z</time></trkpt><trkpt lat="42.8733586" lon="11.8762314"><ele>571.4000000000001</ele><time>2026-04-26T12:53:09.857Z</time></trkpt><trkpt lat="42.873419" lon="11.8761111"><ele>571.2</ele><time>2026-04-26T12:53:10.858Z</time></trkpt><trkpt lat="42.8734638" lon="11.8760007"><ele>571.0</ele><time>2026-04-26T12:53:11.857Z</time></trkpt><trkpt lat="42.8735074" lon="11.8759045"><ele>572.3333333333334</ele><time>2026-04-26T12:53:12.857Z</time></trkpt><trkpt lat="42.8735537" lon="11.8758289"><ele>573.6666666666667</ele><time>2026-04-26T12:53:13.858Z</time></trkpt><trkpt lat="42.8736091" lon="11.8757696"><ele>575.0</ele><time>2026-04-26T12:53:14.858Z</time></trkpt><trkpt lat="42.8736887" lon="11.8757635"><ele>576.3333333333334</ele><time>2026-04-26T12:53:15.857Z</time></trkpt><trkpt lat="42.8737765" lon="11.8757921"><ele>577.6666666666666</ele><time>2026-04-26T12:53:16.858Z</time></trkpt><trkpt lat="42.8738674" lon="11.8758275"><ele>579.0</ele><time>2026-04-26T12:53:17.858Z</time></trkpt><trkpt lat="42.8739736" lon="11.8758686"><ele>579.0</ele><time>2026-04-26T12:53:18.858Z</time></trkpt><trkpt lat="42.8740863" lon="11.8759015"><ele>579.0</ele><time>2026-04-26T12:53:19.858Z</time></trkpt><trkpt lat="42.8741963" lon="11.8759327"><ele>579.0</ele><time>2026-04-26T12:53:20.858Z</time></trkpt><trkpt lat="42.8743062" lon="11.8759684"><ele>579.0</ele><time>2026-04-26T12:53:21.858Z</time></trkpt><trkpt lat="42.8744083" lon="11.8759754"><ele>579.0</ele><time>2026-04-26T12:53:22.857Z</time></trkpt><trkpt lat="42.8745057" lon="11.8759667"><ele>580.2</ele><time>2026-04-26T12:53:23.858Z</time></trkpt><trkpt lat="42.8746032" lon="11.8759188"><ele>581.4</ele><time>2026-04-26T12:53:24.857Z</time></trkpt><trkpt lat="42.8746866" lon="11.8758242"><ele>582.6</ele><time>2026-04-26T12:53:25.858Z</time></trkpt><trkpt lat="42.8747583" lon="11.8757278"><ele>583.8</ele><time>2026-04-26T12:53:26.858Z</time></trkpt><trkpt lat="42.8748388" lon="11.8756317"><ele>585.0</ele><time>2026-04-26T12:53:27.858Z</time></trkpt><trkpt lat="42.8749277" lon="11.8755572"><ele>585.0</ele><time>2026-04-26T12:53:28.858Z</time></trkpt><trkpt lat="42.8750316" lon="11.8755079"><ele>585.0</ele><time>2026-04-26T12:53:29.858Z</time></trkpt><trkpt lat="42.8751355" lon="11.8754679"><ele>585.0</ele><time>2026-04-26T12:53:30.858Z</time></trkpt><trkpt lat="42.875244" lon="11.87543"><ele>585.0</ele><time>2026-04-26T12:53:31.858Z</time></trkpt><trkpt lat="42.875359" lon="11.8753978"><ele>585.0</ele><time>2026-04-26T12:53:32.857Z</time></trkpt><trkpt lat="42.8754761" lon="11.8753766"><ele>586.0</ele><time>2026-04-26T12:53:33.857Z</time></trkpt><trkpt lat="42.8755972" lon="11.8753672"><ele>587.0</ele><time>2026-04-26T12:53:34.858Z</time></trkpt><trkpt lat="42.8757316" lon="11.8753672"><ele>588.0</ele><time>2026-04-26T12:53:35.858Z</time></trkpt><trkpt lat="42.8758814" lon="11.875386"><ele>589.0</ele><time>2026-04-26T12:53:36.858Z</time></trkpt><trkpt lat="42.8760293" lon="11.8754174"><ele>591.0</ele><time>2026-04-26T12:53:37.858Z</time></trkpt><trkpt lat="42.8761808" lon="11.8754674"><ele>593.0</ele><time>2026-04-26T12:53:38.858Z</time></trkpt><trkpt lat="42.8763446" lon="11.8755182"><ele>595.0</ele><time>2026-04-26T12:53:39.858Z</time></trkpt><trkpt lat="42.876507" lon="11.8755801"><ele>595.0</ele><time>2026-04-26T12:53:40.857Z</time></trkpt><trkpt lat="42.8766534" lon="11.8756385"><ele>595.0</ele><time>2026-04-26T12:53:41.858Z</time></trkpt><trkpt lat="42.8767859" lon="11.8756887"><ele>595.0</ele><time>2026-04-26T12:53:42.858Z</time></trkpt><trkpt lat="42.8769003" lon="11.8757227"><ele>595.0</ele><time>2026-04-26T12:53:43.857Z</time></trkpt><trkpt lat="42.8770064" lon="11.8757282"><ele>596.25</ele><time>2026-04-26T12:53:44.858Z</time></trkpt><trkpt lat="42.8771184" lon="11.8756703"><ele>597.5</ele><time>2026-04-26T12:53:45.858Z</time></trkpt><trkpt lat="42.8772201" lon="11.8755683"><ele>598.75</ele><time>2026-04-26T12:53:46.857Z</time></trkpt><trkpt lat="42.8773158" lon="11.8754393"><ele>600.0</ele><time>2026-04-26T12:53:47.858Z</time></trkpt><trkpt lat="42.8774142" lon="11.8753037"><ele>600.0</ele><time>2026-04-26T12:53:48.858Z</time></trkpt><trkpt lat="42.8775148" lon="11.8751588"><ele>600.0</ele><time>2026-04-26T12:53:49.858Z</time></trkpt><trkpt lat="42.8776201" lon="11.8750119"><ele>600.0</ele><time>2026-04-26T12:53:50.858Z</time></trkpt><trkpt lat="42.8777299" lon="11.8748829"><ele>600.0</ele><time>2026-04-26T12:53:51.858Z</time></trkpt><trkpt lat="42.877854" lon="11.8747703"><ele>602.5</ele><time>2026-04-26T12:53:52.857Z</time></trkpt><trkpt lat="42.8779893" lon="11.8746958"><ele>605.0</ele><time>2026-04-26T12:53:53.857Z</time></trkpt><trkpt lat="42.8781351" lon="11.8746574"><ele>607.5</ele><time>2026-04-26T12:53:54.857Z</time></trkpt><trkpt lat="42.8782794" lon="11.8746672"><ele>610.0</ele><time>2026-04-26T12:53:55.858Z</time></trkpt><trkpt lat="42.8784152" lon="11.8747273"><ele>613.3333333333334</ele><time>2026-04-26T12:53:56.858Z</time></trkpt><trkpt lat="42.8785522" lon="11.874796"><ele>616.6666666666666</ele><time>2026-04-26T12:53:57.858Z</time></trkpt><trkpt lat="42.8786981" lon="11.8748557"><ele>620.0</ele><time>2026-04-26T12:53:58.858Z</time></trkpt><trkpt lat="42.8788597" lon="11.8748861"><ele>620.0</ele><time>2026-04-26T12:53:59.858Z</time></trkpt><trkpt lat="42.8790104" lon="11.8748618"><ele>620.0</ele><time>2026-04-26T12:54:00.858Z</time></trkpt><trkpt lat="42.8791628" lon="11.8748035"><ele>620.0</ele><time>2026-04-26T12:54:01.857Z</time></trkpt><trkpt lat="42.8793069" lon="11.8746997"><ele>623.0</ele><time>2026-04-26T12:54:02.857Z</time></trkpt><trkpt lat="42.8794364" lon="11.874588"><ele>626.0</ele><time>2026-04-26T12:54:03.858Z</time></trkpt><trkpt lat="42.8795509" lon="11.8744827"><ele>629.0</ele><time>2026-04-26T12:54:04.858Z</time></trkpt><trkpt lat="42.8796712" lon="11.8744271"><ele>632.0</ele><time>2026-04-26T12:54:05.857Z</time></trkpt><trkpt lat="42.879803" lon="11.8744521"><ele>632.0</ele><time>2026-04-26T12:54:06.857Z</time></trkpt><trkpt lat="42.8799315" lon="11.8745307"><ele>632.0</ele><time>2026-04-26T12:54:07.858Z</time></trkpt><trkpt lat="42.8800436" lon="11.8746473"><ele>632.0</ele><time>2026-04-26T12:54:08.858Z</time></trkpt><trkpt lat="42.8801497" lon="11.8747915"><ele>632.0</ele><time>2026-04-26T12:54:09.858Z</time></trkpt><trkpt lat="42.8802421" lon="11.8749363"><ele>634.5</ele><time>2026-04-26T12:54:10.858Z</time></trkpt><trkpt lat="42.8803322" lon="11.8751009"><ele>637.0</ele><time>2026-04-26T12:54:11.858Z</time></trkpt><trkpt lat="42.8804344" lon="11.8752545"><ele>639.5</ele><time>2026-04-26T12:54:12.857Z</time></trkpt><trkpt lat="42.8805596" lon="11.8753559"><ele>642.0</ele><time>2026-04-26T12:54:13.858Z</time></trkpt><trkpt lat="42.8807043" lon="11.8754061"><ele>646.3333333333334</ele><time>2026-04-26T12:54:14.857Z</time></trkpt><trkpt lat="42.8808595" lon="11.8754068"><ele>650.6666666666667</ele><time>2026-04-26T12:54:15.858Z</time></trkpt><trkpt lat="42.8810218" lon="11.8753703"><ele>655.0</ele><time>2026-04-26T12:54:16.858Z</time></trkpt><trkpt lat="42.8811838" lon="11.8753091"><ele>658.6666666666667</ele><time>2026-04-26T12:54:17.858Z</time></trkpt><trkpt lat="42.8813545" lon="11.875258"><ele>662.3333333333334</ele><time>2026-04-26T12:54:18.857Z</time></trkpt><trkpt lat="42.8815272" lon="11.8752264"><ele>666.0</ele><time>2026-04-26T12:54:19.858Z</time></trkpt><trkpt lat="42.8817017" lon="11.8752365"><ele>664.3333333333334</ele><time>2026-04-26T12:54:20.858Z</time></trkpt><trkpt lat="42.8818774" lon="11.8752804"><ele>662.6666666666667</ele><time>2026-04-26T12:54:21.857Z</time></trkpt><trkpt lat="42.8820514" lon="11.8753552"><ele>661.0</ele><time>2026-04-26T12:54:22.858Z</time></trkpt><trkpt lat="42.8822161" lon="11.8754719"><ele>661.0</ele><time>2026-04-26T12:54:23.858Z</time></trkpt><trkpt lat="42.8823662" lon="11.8756139"><ele>661.0</ele><time>2026-04-26T12:54:24.858Z</time></trkpt><trkpt lat="42.8825031" lon="11.8757748"><ele>661.0</ele><time>2026-04-26T12:54:25.857Z</time></trkpt><trkpt lat="42.8826236" lon="11.8759237"><ele>662.3333333333334</ele><time>2026-04-26T12:54:26.858Z</time></trkpt><trkpt lat="42.8827707" lon="11.8760288"><ele>663.6666666666666</ele><time>2026-04-26T12:54:27.858Z</time></trkpt><trkpt lat="42.8829656" lon="11.8760817"><ele>665.0</ele><time>2026-04-26T12:54:28.858Z</time></trkpt><trkpt lat="42.8831635" lon="11.8760979"><ele>665.0</ele><time>2026-04-26T12:54:29.858Z</time></trkpt><trkpt lat="42.8833531" lon="11.8761205"><ele>665.0</ele><time>2026-04-26T12:54:30.857Z</time></trkpt><trkpt lat="42.8835355" lon="11.8761397"><ele>665.0</ele><time>2026-04-26T12:54:31.858Z</time></trkpt><trkpt lat="42.883722" lon="11.8761244"><ele>666.3333333333333</ele><time>2026-04-26T12:54:32.858Z</time></trkpt><trkpt lat="42.8839108" lon="11.8760417"><ele>667.6666666666666</ele><time>2026-04-26T12:54:33.857Z</time></trkpt><trkpt lat="42.8840857" lon="11.8759281"><ele>669.0</ele><time>2026-04-26T12:54:34.857Z</time></trkpt><trkpt lat="42.8842641" lon="11.8758069"><ele>674.0</ele><time>2026-04-26T12:54:35.857Z</time></trkpt><trkpt lat="42.8844328" lon="11.8756966"><ele>679.0</ele><time>2026-04-26T12:54:36.858Z</time></trkpt><trkpt lat="42.8846163" lon="11.8756064"><ele>684.0</ele><time>2026-04-26T12:54:37.858Z</time></trkpt><trkpt lat="42.8847987" lon="11.8755341"><ele>684.0</ele><time>2026-04-26T12:54:38.858Z</time></trkpt><trkpt lat="42.8849745" lon="11.8754579"><ele>684.0</ele><time>2026-04-26T12:54:39.857Z</time></trkpt><trkpt lat="42.8851461" lon="11.8753714"><ele>684.0</ele><time>2026-04-26T12:54:40.858Z</time></trkpt><trkpt lat="42.8853186" lon="11.8753053"><ele>684.0</ele><time>2026-04-26T12:54:41.858Z</time></trkpt><trkpt lat="42.8854958" lon="11.8752769"><ele>684.0</ele><time>2026-04-26T12:54:42.858Z</time></trkpt><trkpt lat="42.8856753" lon="11.8752903"><ele>684.0</ele><time>2026-04-26T12:54:43.858Z</time></trkpt><trkpt lat="42.8858557" lon="11.8753287"><ele>682.3333333333334</ele><time>2026-04-26T12:54:44.858Z</time></trkpt><trkpt lat="42.8860411" lon="11.8753435"><ele>680.6666666666667</ele><time>2026-04-26T12:54:45.858Z</time></trkpt><trkpt lat="42.8862319" lon="11.8753283"><ele>679.0</ele><time>2026-04-26T12:54:46.858Z</time></trkpt><trkpt lat="42.8864236" lon="11.8753191"><ele>679.0</ele><time>2026-04-26T12:54:47.858Z</time></trkpt><trkpt lat="42.8866188" lon="11.8753195"><ele>679.0</ele><time>2026-04-26T12:54:48.858Z</time></trkpt><trkpt lat="42.886811" lon="11.8753445"><ele>679.0</ele><time>2026-04-26T12:54:49.857Z</time></trkpt><trkpt lat="42.886998" lon="11.8753915"><ele>678.0</ele><time>2026-04-26T12:54:50.858Z</time></trkpt><trkpt lat="42.8871731" lon="11.8754323"><ele>677.0</ele><time>2026-04-26T12:54:51.858Z</time></trkpt><trkpt lat="42.8873438" lon="11.8754595"><ele>676.0</ele><time>2026-04-26T12:54:52.857Z</time></trkpt><trkpt lat="42.8875122" lon="11.8754621"><ele>678.3333333333334</ele><time>2026-04-26T12:54:53.857Z</time></trkpt><trkpt lat="42.8876684" lon="11.8753953"><ele>680.6666666666666</ele><time>2026-04-26T12:54:54.858Z</time></trkpt><trkpt lat="42.8878184" lon="11.8752726"><ele>683.0</ele><time>2026-04-26T12:54:55.858Z</time></trkpt><trkpt lat="42.8879562" lon="11.8751219"><ele>684.3333333333333</ele><time>2026-04-26T12:54:56.858Z</time></trkpt><trkpt lat="42.8880952" lon="11.8749715"><ele>685.6666666666666</ele><time>2026-04-26T12:54:57.858Z</time></trkpt><trkpt lat="42.8882347" lon="11.8748245"><ele>687.0</ele><time>2026-04-26T12:54:58.858Z</time></trkpt><trkpt lat="42.888376" lon="11.8746783"><ele>691.3333333333334</ele><time>2026-04-26T12:54:59.858Z</time></trkpt><trkpt lat="42.8885216" lon="11.8745306"><ele>695.6666666666667</ele><time>2026-04-26T12:55:00.858Z</time></trkpt><trkpt lat="42.8886642" lon="11.8743789"><ele>700.0</ele><time>2026-04-26T12:55:01.857Z</time></trkpt><trkpt lat="42.8888048" lon="11.8742317"><ele>700.0</ele><time>2026-04-26T12:55:02.858Z</time></trkpt><trkpt lat="42.88895" lon="11.8740955"><ele>700.0</ele><time>2026-04-26T12:55:03.857Z</time></trkpt><trkpt lat="42.889108" lon="11.8739733"><ele>700.0</ele><time>2026-04-26T12:55:04.858Z</time></trkpt><trkpt lat="42.889273" lon="11.8738705"><ele>702.3333333333334</ele><time>2026-04-26T12:55:05.858Z</time></trkpt><trkpt lat="42.8894445" lon="11.8737902"><ele>704.6666666666666</ele><time>2026-04-26T12:55:06.857Z</time></trkpt><trkpt lat="42.8896188" lon="11.873719"><ele>707.0</ele><time>2026-04-26T12:55:07.858Z</time></trkpt><trkpt lat="42.8898001" lon="11.8736713"><ele>707.0</ele><time>2026-04-26T12:55:08.858Z</time></trkpt><trkpt lat="42.8899885" lon="11.8736442"><ele>707.0</ele><time>2026-04-26T12:55:09.858Z</time></trkpt><trkpt lat="42.8901755" lon="11.8736334"><ele>707.0</ele><time>2026-04-26T12:55:10.858Z</time></trkpt><trkpt lat="42.8903662" lon="11.8736203"><ele>706.6666666666666</ele><time>2026-04-26T12:55:11.857Z</time></trkpt><trkpt lat="42.8905565" lon="11.8736184"><ele>706.3333333333334</ele><time>2026-04-26T12:55:12.858Z</time></trkpt><trkpt lat="42.8907581" lon="11.8736325"><ele>706.0</ele><time>2026-04-26T12:55:13.858Z</time></trkpt><trkpt lat="42.8909564" lon="11.8736729"><ele>706.0</ele><time>2026-04-26T12:55:14.858Z</time></trkpt><trkpt lat="42.8911628" lon="11.8737286"><ele>706.0</ele><time>2026-04-26T12:55:15.858Z</time></trkpt><trkpt lat="42.8913668" lon="11.8737939"><ele>706.0</ele><time>2026-04-26T12:55:16.858Z</time></trkpt><trkpt lat="42.8915698" lon="11.8738638"><ele>708.6666666666667</ele><time>2026-04-26T12:55:17.858Z</time></trkpt><trkpt lat="42.8917794" lon="11.8739407"><ele>711.3333333333334</ele><time>2026-04-26T12:55:18.857Z</time></trkpt><trkpt lat="42.8919862" lon="11.8740334"><ele>714.0</ele><time>2026-04-26T12:55:19.858Z</time></trkpt><trkpt lat="42.892186" lon="11.8741461"><ele>714.0</ele><time>2026-04-26T12:55:20.858Z</time></trkpt><trkpt lat="42.8923862" lon="11.8742764"><ele>714.0</ele><time>2026-04-26T12:55:21.857Z</time></trkpt><trkpt lat="42.8925917" lon="11.8743928"><ele>714.0</ele><time>2026-04-26T12:55:22.858Z</time></trkpt><trkpt lat="42.8927952" lon="11.8745033"><ele>714.0</ele><time>2026-04-26T12:55:23.858Z</time></trkpt><trkpt lat="42.8930013" lon="11.8746115"><ele>714.0</ele><time>2026-04-26T12:55:24.858Z</time></trkpt><trkpt lat="42.8932024" lon="11.874714"><ele>714.0</ele><time>2026-04-26T12:55:25.857Z</time></trkpt><trkpt lat="42.8933969" lon="11.8748103"><ele>721.0</ele><time>2026-04-26T12:55:26.857Z</time></trkpt><trkpt lat="42.8935895" lon="11.8749131"><ele>728.0</ele><time>2026-04-26T12:55:27.858Z</time></trkpt><trkpt lat="42.8937802" lon="11.8750066"><ele>735.0</ele><time>2026-04-26T12:55:28.858Z</time></trkpt><trkpt lat="42.8939534" lon="11.875103"><ele>736.6666666666666</ele><time>2026-04-26T12:55:29.858Z</time></trkpt><trkpt lat="42.8941029" lon="11.8752039"><ele>738.3333333333333</ele><time>2026-04-26T12:55:30.858Z</time></trkpt><trkpt lat="42.8942215" lon="11.8753592"><ele>740.0</ele><time>2026-04-26T12:55:31.858Z</time></trkpt><trkpt lat="42.8943036" lon="11.8755461"><ele>740.0</ele><time>2026-04-26T12:55:32.858Z</time></trkpt><trkpt lat="42.8943836" lon="11.8757245"><ele>740.0</ele><time>2026-04-26T12:55:33.858Z</time></trkpt><trkpt lat="42.8944801" lon="11.8758915"><ele>740.0</ele><time>2026-04-26T12:55:34.858Z</time></trkpt><trkpt lat="42.8946085" lon="11.8760098"><ele>734.0</ele><time>2026-04-26T12:55:35.857Z</time></trkpt><trkpt lat="42.8947569" lon="11.8760692"><ele>728.0</ele><time>2026-04-26T12:55:36.858Z</time></trkpt><trkpt lat="42.8949128" lon="11.8760938"><ele>722.0</ele><time>2026-04-26T12:55:37.858Z</time></trkpt><trkpt lat="42.8950873" lon="11.8760773"><ele>725.0</ele><time>2026-04-26T12:55:38.858Z</time></trkpt><trkpt lat="42.895263" lon="11.8760487"><ele>728.0</ele><time>2026-04-26T12:55:39.858Z</time></trkpt><trkpt lat="42.8954373" lon="11.8760297"><ele>731.0</ele><time>2026-04-26T12:55:40.857Z</time></trkpt><trkpt lat="42.8956153" lon="11.8760166"><ele>731.0</ele><time>2026-04-26T12:55:41.857Z</time></trkpt><trkpt lat="42.8958017" lon="11.8759946"><ele>731.0</ele><time>2026-04-26T12:55:42.858Z</time></trkpt><trkpt lat="42.8959894" lon="11.8759847"><ele>731.0</ele><time>2026-04-26T12:55:43.858Z</time></trkpt><trkpt lat="42.8961827" lon="11.8759863"><ele>734.0</ele><time>2026-04-26T12:55:44.858Z</time></trkpt><trkpt lat="42.8963702" lon="11.8760088"><ele>737.0</ele><time>2026-04-26T12:55:45.858Z</time></trkpt><trkpt lat="42.8965579" lon="11.8760549"><ele>740.0</ele><time>2026-04-26T12:55:46.858Z</time></trkpt><trkpt lat="42.8967508" lon="11.8761238"><ele>744.6666666666666</ele><time>2026-04-26T12:55:47.858Z</time></trkpt><trkpt lat="42.896947" lon="11.8761977"><ele>749.3333333333334</ele><time>2026-04-26T12:55:48.858Z</time></trkpt><trkpt lat="42.8971436" lon="11.8762659"><ele>754.0</ele><time>2026-04-26T12:55:49.858Z</time></trkpt><trkpt lat="42.8973445" lon="11.8763111"><ele>754.0</ele><time>2026-04-26T12:55:50.857Z</time></trkpt><trkpt lat="42.8975545" lon="11.8763475"><ele>754.0</ele><time>2026-04-26T12:55:51.858Z</time></trkpt><trkpt lat="42.8977642" lon="11.8763803"><ele>754.0</ele><time>2026-04-26T12:55:52.857Z</time></trkpt><trkpt lat="42.8979786" lon="11.8764004"><ele>755.0</ele><time>2026-04-26T12:55:53.858Z</time></trkpt><trkpt lat="42.8981903" lon="11.8764044"><ele>756.0</ele><time>2026-04-26T12:55:54.858Z</time></trkpt><trkpt lat="42.8984045" lon="11.8763968"><ele>757.0</ele><time>2026-04-26T12:55:55.857Z</time></trkpt><trkpt lat="42.898617" lon="11.8763898"><ele>757.3333333333334</ele><time>2026-04-26T12:55:56.857Z</time></trkpt><trkpt lat="42.8988303" lon="11.8763681"><ele>757.6666666666666</ele><time>2026-04-26T12:55:57.858Z</time></trkpt><trkpt lat="42.8990385" lon="11.8763388"><ele>758.0</ele><time>2026-04-26T12:55:58.858Z</time></trkpt><trkpt lat="42.899249" lon="11.8763168"><ele>759.0</ele><time>2026-04-26T12:55:59.858Z</time></trkpt><trkpt lat="42.8994583" lon="11.8763091"><ele>760.0</ele><time>2026-04-26T12:56:00.858Z</time></trkpt><trkpt lat="42.8996666" lon="11.8763243"><ele>761.0</ele><time>2026-04-26T12:56:01.858Z</time></trkpt><trkpt lat="42.8998713" lon="11.8763536"><ele>761.0</ele><time>2026-04-26T12:56:02.858Z</time></trkpt><trkpt lat="42.9000804" lon="11.8764059"><ele>761.0</ele><time>2026-04-26T12:56:03.858Z</time></trkpt><trkpt lat="42.9002886" lon="11.8764694"><ele>761.0</ele><time>2026-04-26T12:56:04.857Z</time></trkpt><trkpt lat="42.9004977" lon="11.8765335"><ele>763.0</ele><time>2026-04-26T12:56:05.857Z</time></trkpt><trkpt lat="42.900707" lon="11.8765991"><ele>765.0</ele><time>2026-04-26T12:56:06.857Z</time></trkpt><trkpt lat="42.9009186" lon="11.8766584"><ele>767.0</ele><time>2026-04-26T12:56:07.858Z</time></trkpt><trkpt lat="42.9011301" lon="11.8767124"><ele>768.3333333333333</ele><time>2026-04-26T12:56:08.857Z</time></trkpt><trkpt lat="42.9013427" lon="11.8767581"><ele>769.6666666666666</ele><time>2026-04-26T12:56:09.858Z</time></trkpt><trkpt lat="42.9015524" lon="11.8768053"><ele>771.0</ele><time>2026-04-26T12:56:10.858Z</time></trkpt><trkpt lat="42.901765" lon="11.8768509"><ele>768.3333333333334</ele><time>2026-04-26T12:56:11.858Z</time></trkpt><trkpt lat="42.9019768" lon="11.8768921"><ele>765.6666666666667</ele><time>2026-04-26T12:56:12.858Z</time></trkpt><trkpt lat="42.9021834" lon="11.8769229"><ele>763.0</ele><time>2026-04-26T12:56:13.858Z</time></trkpt><trkpt lat="42.9023921" lon="11.876944"><ele>761.0</ele><time>2026-04-26T12:56:14.857Z</time></trkpt><trkpt lat="42.9026013" lon="11.8769571"><ele>759.0</ele><time>2026-04-26T12:56:15.858Z</time></trkpt><trkpt lat="42.9028011" lon="11.8769692"><ele>757.0</ele><time>2026-04-26T12:56:16.858Z</time></trkpt><trkpt lat="42.902999" lon="11.8769796"><ele>757.0</ele><time>2026-04-26T12:56:17.858Z</time></trkpt><trkpt lat="42.9031937" lon="11.8769974"><ele>757.0</ele><time>2026-04-26T12:56:18.858Z</time></trkpt><trkpt lat="42.9033799" lon="11.877036"><ele>757.0</ele><time>2026-04-26T12:56:19.858Z</time></trkpt><trkpt lat="42.9035693" lon="11.8771022"><ele>756.0</ele><time>2026-04-26T12:56:20.858Z</time></trkpt><trkpt lat="42.9037576" lon="11.8771793"><ele>755.0</ele><time>2026-04-26T12:56:21.858Z</time></trkpt><trkpt lat="42.90395" lon="11.8772637"><ele>754.0</ele><time>2026-04-26T12:56:22.858Z</time></trkpt><trkpt lat="42.9041397" lon="11.8773593"><ele>752.3333333333334</ele><time>2026-04-26T12:56:23.858Z</time></trkpt><trkpt lat="42.904337" lon="11.8774372"><ele>750.6666666666666</ele><time>2026-04-26T12:56:24.858Z</time></trkpt><trkpt lat="42.9045408" lon="11.8774942"><ele>749.0</ele><time>2026-04-26T12:56:25.858Z</time></trkpt><trkpt lat="42.9047547" lon="11.8775576"><ele>746.6666666666666</ele><time>2026-04-26T12:56:26.858Z</time></trkpt><trkpt lat="42.9049665" lon="11.8776215"><ele>744.3333333333334</ele><time>2026-04-26T12:56:27.857Z</time></trkpt><trkpt lat="42.9051656" lon="11.8776899"><ele>742.0</ele><time>2026-04-26T12:56:28.857Z</time></trkpt><trkpt lat="42.9053529" lon="11.8777678"><ele>747.0</ele><time>2026-04-26T12:56:29.858Z</time></trkpt><trkpt lat="42.9055257" lon="11.8778587"><ele>752.0</ele><time>2026-04-26T12:56:30.857Z</time></trkpt><trkpt lat="42.9056771" lon="11.8779345"><ele>757.0</ele><time>2026-04-26T12:56:31.858Z</time></trkpt><trkpt lat="42.9058339" lon="11.8779801"><ele>760.5</ele><time>2026-04-26T12:56:32.858Z</time></trkpt><trkpt lat="42.9059983" lon="11.8779853"><ele>764.0</ele><time>2026-04-26T12:56:33.857Z</time></trkpt><trkpt lat="42.9061234" lon="11.8779091"><ele>767.5</ele><time>2026-04-26T12:56:34.858Z</time></trkpt><trkpt lat="42.9062277" lon="11.8777794"><ele>771.0</ele><time>2026-04-26T12:56:35.857Z</time></trkpt><trkpt lat="42.9063342" lon="11.877631"><ele>770.5</ele><time>2026-04-26T12:56:36.857Z</time></trkpt><trkpt lat="42.9064334" lon="11.8774779"><ele>770.0</ele><time>2026-04-26T12:56:37.858Z</time></trkpt><trkpt lat="42.9065209" lon="11.8773228"><ele>769.5</ele><time>2026-04-26T12:56:38.857Z</time></trkpt><trkpt lat="42.906611" lon="11.8771789"><ele>769.0</ele><time>2026-04-26T12:56:39.857Z</time></trkpt><trkpt lat="42.9067163" lon="11.8770627"><ele>770.0</ele><time>2026-04-26T12:56:40.858Z</time></trkpt><trkpt lat="42.9068456" lon="11.8769809"><ele>771.0</ele><time>2026-04-26T12:56:41.857Z</time></trkpt><trkpt lat="42.906991" lon="11.8769588"><ele>772.0</ele><time>2026-04-26T12:56:42.858Z</time></trkpt><trkpt lat="42.9071469" lon="11.8769789"><ele>773.0</ele><time>2026-04-26T12:56:43.858Z</time></trkpt><trkpt lat="42.9073016" lon="11.8770146"><ele>773.0</ele><time>2026-04-26T12:56:44.858Z</time></trkpt><trkpt lat="42.9074629" lon="11.8770177"><ele>773.0</ele><time>2026-04-26T12:56:45.858Z</time></trkpt><trkpt lat="42.9076331" lon="11.8769831"><ele>773.0</ele><time>2026-04-26T12:56:46.857Z</time></trkpt><trkpt lat="42.9078017" lon="11.8769073"><ele>772.0</ele><time>2026-04-26T12:56:47.858Z</time></trkpt><trkpt lat="42.90797" lon="11.8768112"><ele>771.0</ele><time>2026-04-26T12:56:48.858Z</time></trkpt><trkpt lat="42.9081374" lon="11.8767122"><ele>770.0</ele><time>2026-04-26T12:56:49.857Z</time></trkpt><trkpt lat="42.9083162" lon="11.8766247"><ele>772.3333333333334</ele><time>2026-04-26T12:56:50.858Z</time></trkpt><trkpt lat="42.908499" lon="11.8765531"><ele>774.6666666666667</ele><time>2026-04-26T12:56:51.858Z</time></trkpt><trkpt lat="42.9086873" lon="11.8764939"><ele>777.0</ele><time>2026-04-26T12:56:52.858Z</time></trkpt><trkpt lat="42.9088762" lon="11.8764387"><ele>777.0</ele><time>2026-04-26T12:56:53.858Z</time></trkpt><trkpt lat="42.9090698" lon="11.8763827"><ele>777.0</ele><time>2026-04-26T12:56:54.857Z</time></trkpt><trkpt lat="42.9092524" lon="11.8763162"><ele>777.0</ele><time>2026-04-26T12:56:55.858Z</time></trkpt><trkpt lat="42.9094361" lon="11.8762411"><ele>777.3333333333333</ele><time>2026-04-26T12:56:56.858Z</time></trkpt><trkpt lat="42.909615" lon="11.8761663"><ele>777.6666666666666</ele><time>2026-04-26T12:56:57.857Z</time></trkpt><trkpt lat="42.9097841" lon="11.8760908"><ele>778.0</ele><time>2026-04-26T12:56:58.858Z</time></trkpt><trkpt lat="42.9099553" lon="11.8760193"><ele>780.0</ele><time>2026-04-26T12:56:59.858Z</time></trkpt><trkpt lat="42.9101271" lon="11.8759547"><ele>782.0</ele><time>2026-04-26T12:57:00.857Z</time></trkpt><trkpt lat="42.9102969" lon="11.8759129"><ele>784.0</ele><time>2026-04-26T12:57:01.857Z</time></trkpt><trkpt lat="42.9104715" lon="11.8758795"><ele>784.0</ele><time>2026-04-26T12:57:02.858Z</time></trkpt><trkpt lat="42.9106548" lon="11.8758708"><ele>784.0</ele><time>2026-04-26T12:57:03.858Z</time></trkpt><trkpt lat="42.9108407" lon="11.8758864"><ele>784.0</ele><time>2026-04-26T12:57:04.858Z</time></trkpt><trkpt lat="42.9110309" lon="11.8759177"><ele>781.0</ele><time>2026-04-26T12:57:05.857Z</time></trkpt><trkpt lat="42.9112122" lon="11.8759698"><ele>778.0</ele><time>2026-04-26T12:57:06.858Z</time></trkpt><trkpt lat="42.9113933" lon="11.8760314"><ele>775.0</ele><time>2026-04-26T12:57:07.858Z</time></trkpt><trkpt lat="42.9115776" lon="11.8760933"><ele>776.6666666666666</ele><time>2026-04-26T12:57:08.858Z</time></trkpt><trkpt lat="42.9117686" lon="11.8761514"><ele>778.3333333333333</ele><time>2026-04-26T12:57:09.857Z</time></trkpt><trkpt lat="42.9119577" lon="11.8762149"><ele>780.0</ele><time>2026-04-26T12:57:10.858Z</time></trkpt><trkpt lat="42.912154" lon="11.8762813"><ele>780.0</ele><time>2026-04-26T12:57:11.858Z</time></trkpt><trkpt lat="42.9123514" lon="11.8763622"><ele>780.0</ele><time>2026-04-26T12:57:12.858Z</time></trkpt><trkpt lat="42.9125459" lon="11.8764697"><ele>780.0</ele><time>2026-04-26T12:57:13.858Z</time></trkpt><trkpt lat="42.9127373" lon="11.8765989"><ele>782.0</ele><time>2026-04-26T12:57:14.857Z</time></trkpt><trkpt lat="42.9129183" lon="11.8767291"><ele>784.0</ele><time>2026-04-26T12:57:15.857Z</time></trkpt><trkpt lat="42.9130946" lon="11.8768557"><ele>786.0</ele><time>2026-04-26T12:57:16.858Z</time></trkpt><trkpt lat="42.913267" lon="11.8769879"><ele>790.0</ele><time>2026-04-26T12:57:17.858Z</time></trkpt><trkpt lat="42.9134286" lon="11.8771277"><ele>794.0</ele><time>2026-04-26T12:57:18.858Z</time></trkpt><trkpt lat="42.9135806" lon="11.8772792"><ele>798.0</ele><time>2026-04-26T12:57:19.858Z</time></trkpt><trkpt lat="42.9137219" lon="11.877461"><ele>797.0</ele><time>2026-04-26T12:57:20.858Z</time></trkpt><trkpt lat="42.9138432" lon="11.8776613"><ele>796.0</ele><time>2026-04-26T12:57:21.858Z</time></trkpt><trkpt lat="42.913948" lon="11.8778766"><ele>795.0</ele><time>2026-04-26T12:57:22.858Z</time></trkpt><trkpt lat="42.9140558" lon="11.8780858"><ele>795.0</ele><time>2026-04-26T12:57:23.858Z</time></trkpt><trkpt lat="42.9141644" lon="11.8782806"><ele>795.0</ele><time>2026-04-26T12:57:24.857Z</time></trkpt><trkpt lat="42.9142631" lon="11.8784739"><ele>795.0</ele><time>2026-04-26T12:57:25.857Z</time></trkpt><trkpt lat="42.9143584" lon="11.8786515"><ele>794.0</ele><time>2026-04-26T12:57:26.858Z</time></trkpt><trkpt lat="42.9144469" lon="11.8788181"><ele>793.0</ele><time>2026-04-26T12:57:27.858Z</time></trkpt><trkpt lat="42.9145395" lon="11.8789714"><ele>792.0</ele><time>2026-04-26T12:57:28.858Z</time></trkpt><trkpt lat="42.9146385" lon="11.8790839"><ele>791.0</ele><time>2026-04-26T12:57:29.858Z</time></trkpt><trkpt lat="42.9147516" lon="11.8791562"><ele>791.0</ele><time>2026-04-26T12:57:30.857Z</time></trkpt><trkpt lat="42.9148615" lon="11.8792265"><ele>791.0</ele><time>2026-04-26T12:57:31.857Z</time></trkpt><trkpt lat="42.9149495" lon="11.8793264"><ele>791.0</ele><time>2026-04-26T12:57:32.858Z</time></trkpt><trkpt lat="42.9150108" lon="11.879466"><ele>791.0</ele><time>2026-04-26T12:57:33.858Z</time></trkpt><trkpt lat="42.9150107" lon="11.879638"><ele>791.25</ele><time>2026-04-26T12:57:34.858Z</time></trkpt><trkpt lat="42.9149645" lon="11.879801"><ele>791.5</ele><time>2026-04-26T12:57:35.857Z</time></trkpt><trkpt lat="42.9148633" lon="11.8799369"><ele>791.75</ele><time>2026-04-26T12:57:36.857Z</time></trkpt><trkpt lat="42.9147399" lon="11.8800311"><ele>792.0</ele><time>2026-04-26T12:57:37.857Z</time></trkpt><trkpt lat="42.9146224" lon="11.880118"><ele>792.0</ele><time>2026-04-26T12:57:38.858Z</time></trkpt><trkpt lat="42.9145214" lon="11.8801957"><ele>792.0</ele><time>2026-04-26T12:57:39.858Z</time></trkpt><trkpt lat="42.9144532" lon="11.8803288"><ele>792.0</ele><time>2026-04-26T12:57:40.858Z</time></trkpt><trkpt lat="42.9144241" lon="11.8805101"><ele>792.0</ele><time>2026-04-26T12:57:41.857Z</time></trkpt><trkpt lat="42.9144109" lon="11.8807155"><ele>792.0</ele><time>2026-04-26T12:57:42.858Z</time></trkpt><trkpt lat="42.9144027" lon="11.8809191"><ele>792.0</ele><time>2026-04-26T12:57:43.858Z</time></trkpt><trkpt lat="42.9143907" lon="11.8811327"><ele>792.0</ele><time>2026-04-26T12:57:44.858Z</time></trkpt><trkpt lat="42.9143744" lon="11.8813383"><ele>788.75</ele><time>2026-04-26T12:57:45.858Z</time></trkpt><trkpt lat="42.9143562" lon="11.8815506"><ele>785.5</ele><time>2026-04-26T12:57:46.858Z</time></trkpt><trkpt lat="42.914334" lon="11.8817541"><ele>782.25</ele><time>2026-04-26T12:57:47.858Z</time></trkpt><trkpt lat="42.91432" lon="11.8819421"><ele>779.0</ele><time>2026-04-26T12:57:48.858Z</time></trkpt><trkpt lat="42.9143176" lon="11.8821267"><ele>774.0</ele><time>2026-04-26T12:57:49.858Z</time></trkpt><trkpt lat="42.9143323" lon="11.8823007"><ele>769.0</ele><time>2026-04-26T12:57:50.858Z</time></trkpt><trkpt lat="42.9143646" lon="11.8824625"><ele>764.0</ele><time>2026-04-26T12:57:51.858Z</time></trkpt><trkpt lat="42.9144358" lon="11.8825854"><ele>759.0</ele><time>2026-04-26T12:57:52.858Z</time></trkpt><trkpt lat="42.9145378" lon="11.8826711"><ele>759.0</ele><time>2026-04-26T12:57:53.858Z</time></trkpt><trkpt lat="42.9146587" lon="11.8826949"><ele>759.0</ele><time>2026-04-26T12:57:54.857Z</time></trkpt><trkpt lat="42.9147748" lon="11.8826773"><ele>759.0</ele><time>2026-04-26T12:57:55.858Z</time></trkpt><trkpt lat="42.9148794" lon="11.8826189"><ele>759.0</ele><time>2026-04-26T12:57:56.857Z</time></trkpt><trkpt lat="42.9149686" lon="11.8825635"><ele>759.0</ele><time>2026-04-26T12:57:57.858Z</time></trkpt><trkpt lat="42.9150507" lon="11.8825597"><ele>759.0</ele><time>2026-04-26T12:57:58.858Z</time></trkpt><trkpt lat="42.915139" lon="11.8826098"><ele>759.0</ele><time>2026-04-26T12:57:59.858Z</time></trkpt><trkpt lat="42.9151903" lon="11.8827267"><ele>759.0</ele><time>2026-04-26T12:58:00.858Z</time></trkpt><trkpt lat="42.9152" lon="11.8828666"><ele>759.0</ele><time>2026-04-26T12:58:01.858Z</time></trkpt><trkpt lat="42.9151966" lon="11.8830426"><ele>758.75</ele><time>2026-04-26T12:58:02.857Z</time></trkpt><trkpt lat="42.9151973" lon="11.8832195"><ele>758.5</ele><time>2026-04-26T12:58:03.857Z</time></trkpt><trkpt lat="42.9151968" lon="11.8834181"><ele>758.25</ele><time>2026-04-26T12:58:04.858Z</time></trkpt><trkpt lat="42.915198" lon="11.8836251"><ele>758.0</ele><time>2026-04-26T12:58:05.858Z</time></trkpt><trkpt lat="42.9152046" lon="11.8838393"><ele>754.25</ele><time>2026-04-26T12:58:06.858Z</time></trkpt><trkpt lat="42.9152346" lon="11.8840472"><ele>750.5</ele><time>2026-04-26T12:58:07.858Z</time></trkpt><trkpt lat="42.9152828" lon="11.8842353"><ele>746.75</ele><time>2026-04-26T12:58:08.858Z</time></trkpt><trkpt lat="42.9153458" lon="11.8844055"><ele>743.0</ele><time>2026-04-26T12:58:09.858Z</time></trkpt><trkpt lat="42.9154041" lon="11.8845625"><ele>738.25</ele><time>2026-04-26T12:58:10.858Z</time></trkpt><trkpt lat="42.9154864" lon="11.8846797"><ele>733.5</ele><time>2026-04-26T12:58:11.858Z</time></trkpt><trkpt lat="42.9156022" lon="11.8847598"><ele>728.75</ele><time>2026-04-26T12:58:12.857Z</time></trkpt><trkpt lat="42.9157223" lon="11.8847983"><ele>724.0</ele><time>2026-04-26T12:58:13.858Z</time></trkpt><trkpt lat="42.9158499" lon="11.8847744"><ele>725.25</ele><time>2026-04-26T12:58:14.858Z</time></trkpt><trkpt lat="42.9159752" lon="11.884731"><ele>726.5</ele><time>2026-04-26T12:58:15.858Z</time></trkpt><trkpt lat="42.9161063" lon="11.8847161"><ele>727.75</ele><time>2026-04-26T12:58:16.858Z</time></trkpt><trkpt lat="42.9162284" lon="11.8847597"><ele>729.0</ele><time>2026-04-26T12:58:17.858Z</time></trkpt><trkpt lat="42.9163444" lon="11.8848565"><ele>729.0</ele><time>2026-04-26T12:58:18.858Z</time></trkpt><trkpt lat="42.916446" lon="11.8849861"><ele>729.0</ele><time>2026-04-26T12:58:19.858Z</time></trkpt><trkpt lat="42.9165364" lon="11.8851457"><ele>729.0</ele><time>2026-04-26T12:58:20.857Z</time></trkpt><trkpt lat="42.9166153" lon="11.8853146"><ele>729.0</ele><time>2026-04-26T12:58:21.858Z</time></trkpt><trkpt lat="42.9166908" lon="11.8854907"><ele>724.6666666666666</ele><time>2026-04-26T12:58:22.858Z</time></trkpt><trkpt lat="42.9167732" lon="11.885665"><ele>720.3333333333333</ele><time>2026-04-26T12:58:23.858Z</time></trkpt><trkpt lat="42.9168765" lon="11.8858356"><ele>716.0</ele><time>2026-04-26T12:58:24.858Z</time></trkpt><trkpt lat="42.9170171" lon="11.8859864"><ele>710.3333333333333</ele><time>2026-04-26T12:58:25.858Z</time></trkpt><trkpt lat="42.9171649" lon="11.88612"><ele>704.6666666666666</ele><time>2026-04-26T12:58:26.858Z</time></trkpt><trkpt lat="42.9173153" lon="11.8862588"><ele>699.0</ele><time>2026-04-26T12:58:27.858Z</time></trkpt><trkpt lat="42.9174714" lon="11.8863819"><ele>698.0</ele><time>2026-04-26T12:58:28.858Z</time></trkpt><trkpt lat="42.9176351" lon="11.88649"><ele>697.0</ele><time>2026-04-26T12:58:29.857Z</time></trkpt><trkpt lat="42.9178174" lon="11.8865594"><ele>696.0</ele><time>2026-04-26T12:58:30.858Z</time></trkpt><trkpt lat="42.9180108" lon="11.8866127"><ele>696.0</ele><time>2026-04-26T12:58:31.857Z</time></trkpt><trkpt lat="42.9182125" lon="11.88665"><ele>696.0</ele><time>2026-04-26T12:58:32.858Z</time></trkpt><trkpt lat="42.9184119" lon="11.8866904"><ele>696.0</ele><time>2026-04-26T12:58:33.858Z</time></trkpt><trkpt lat="42.9186164" lon="11.8867368"><ele>691.3333333333334</ele><time>2026-04-26T12:58:34.858Z</time></trkpt><trkpt lat="42.9188239" lon="11.8867845"><ele>686.6666666666667</ele><time>2026-04-26T12:58:35.858Z</time></trkpt><trkpt lat="42.9190291" lon="11.8868346"><ele>682.0</ele><time>2026-04-26T12:58:36.857Z</time></trkpt><trkpt lat="42.9192388" lon="11.8868926"><ele>680.0</ele><time>2026-04-26T12:58:37.858Z</time></trkpt><trkpt lat="42.9194435" lon="11.8869406"><ele>678.0</ele><time>2026-04-26T12:58:38.858Z</time></trkpt><trkpt lat="42.9196529" lon="11.8869859"><ele>676.0</ele><time>2026-04-26T12:58:39.858Z</time></trkpt><trkpt lat="42.9198625" lon="11.8870374"><ele>673.0</ele><time>2026-04-26T12:58:40.858Z</time></trkpt><trkpt lat="42.9200757" lon="11.8870852"><ele>670.0</ele><time>2026-04-26T12:58:41.857Z</time></trkpt><trkpt lat="42.9202905" lon="11.887135"><ele>667.0</ele><time>2026-04-26T12:58:42.857Z</time></trkpt><trkpt lat="42.9205069" lon="11.8871919"><ele>667.0</ele><time>2026-04-26T12:58:43.857Z</time></trkpt><trkpt lat="42.9207269" lon="11.8872453"><ele>667.0</ele><time>2026-04-26T12:58:44.857Z</time></trkpt><trkpt lat="42.9209485" lon="11.8872942"><ele>667.0</ele><time>2026-04-26T12:58:45.858Z</time></trkpt><trkpt lat="42.9211705" lon="11.8873471"><ele>665.3333333333334</ele><time>2026-04-26T12:58:46.857Z</time></trkpt><trkpt lat="42.921393" lon="11.8874105"><ele>663.6666666666666</ele><time>2026-04-26T12:58:47.858Z</time></trkpt><trkpt lat="42.9216089" lon="11.8874742"><ele>662.0</ele><time>2026-04-26T12:58:48.858Z</time></trkpt><trkpt lat="42.9218185" lon="11.8875361"><ele>659.0</ele><time>2026-04-26T12:58:49.858Z</time></trkpt><trkpt lat="42.9220104" lon="11.8876252"><ele>656.0</ele><time>2026-04-26T12:58:50.858Z</time></trkpt><trkpt lat="42.9221948" lon="11.8877292"><ele>653.0</ele><time>2026-04-26T12:58:51.858Z</time></trkpt><trkpt lat="42.9223596" lon="11.8878589"><ele>653.0</ele><time>2026-04-26T12:58:52.858Z</time></trkpt><trkpt lat="42.9225191" lon="11.88799"><ele>653.0</ele><time>2026-04-26T12:58:53.857Z</time></trkpt><trkpt lat="42.9226709" lon="11.8881087"><ele>653.0</ele><time>2026-04-26T12:58:54.858Z</time></trkpt><trkpt lat="42.9228221" lon="11.8882172"><ele>652.6666666666666</ele><time>2026-04-26T12:58:55.858Z</time></trkpt><trkpt lat="42.9229727" lon="11.8883041"><ele>652.3333333333334</ele><time>2026-04-26T12:58:56.858Z</time></trkpt><trkpt lat="42.9231273" lon="11.8883497"><ele>652.0</ele><time>2026-04-26T12:58:57.857Z</time></trkpt><trkpt lat="42.9232816" lon="11.8883543"><ele>652.0</ele><time>2026-04-26T12:58:58.857Z</time></trkpt><trkpt lat="42.923431" lon="11.8883276"><ele>652.0</ele><time>2026-04-26T12:58:59.857Z</time></trkpt><trkpt lat="42.9235575" lon="11.8882595"><ele>652.0</ele><time>2026-04-26T12:59:00.858Z</time></trkpt><trkpt lat="42.9236882" lon="11.8881932"><ele>652.0</ele><time>2026-04-26T12:59:01.857Z</time></trkpt><trkpt lat="42.9238289" lon="11.8881568"><ele>652.0</ele><time>2026-04-26T12:59:02.858Z</time></trkpt><trkpt lat="42.92397" lon="11.8881523"><ele>652.0</ele><time>2026-04-26T12:59:03.858Z</time></trkpt><trkpt lat="42.9241165" lon="11.8881856"><ele>652.0</ele><time>2026-04-26T12:59:04.858Z</time></trkpt><trkpt lat="42.9242397" lon="11.8882306"><ele>652.0</ele><time>2026-04-26T12:59:05.858Z</time></trkpt><trkpt lat="42.9243668" lon="11.8883214"><ele>652.6666666666667</ele><time>2026-04-26T12:59:06.858Z</time></trkpt><trkpt lat="42.9245078" lon="11.8884458"><ele>653.3333333333334</ele><time>2026-04-26T12:59:07.858Z</time></trkpt><trkpt lat="42.9246635" lon="11.888561"><ele>654.0</ele><time>2026-04-26T12:59:08.858Z</time></trkpt><trkpt lat="42.9248279" lon="11.8886705"><ele>654.0</ele><time>2026-04-26T12:59:09.858Z</time></trkpt><trkpt lat="42.9249862" lon="11.8887677"><ele>654.0</ele><time>2026-04-26T12:59:10.858Z</time></trkpt><trkpt lat="42.925155" lon="11.8888463"><ele>654.0</ele><time>2026-04-26T12:59:11.857Z</time></trkpt><trkpt lat="42.9253344" lon="11.88892"><ele>652.3333333333334</ele><time>2026-04-26T12:59:12.858Z</time></trkpt><trkpt lat="42.9255194" lon="11.8889871"><ele>650.6666666666667</ele><time>2026-04-26T12:59:13.858Z</time></trkpt><trkpt lat="42.9257238" lon="11.8890458"><ele>649.0</ele><time>2026-04-26T12:59:14.858Z</time></trkpt><trkpt lat="42.9259256" lon="11.8890567"><ele>646.6666666666667</ele><time>2026-04-26T12:59:15.858Z</time></trkpt><trkpt lat="42.9261264" lon="11.8890137"><ele>644.3333333333334</ele><time>2026-04-26T12:59:16.857Z</time></trkpt><trkpt lat="42.9263151" lon="11.8889681"><ele>642.0</ele><time>2026-04-26T12:59:17.858Z</time></trkpt><trkpt lat="42.926501" lon="11.8889241"><ele>642.0</ele><time>2026-04-26T12:59:18.858Z</time></trkpt><trkpt lat="42.9266831" lon="11.8888901"><ele>642.0</ele><time>2026-04-26T12:59:19.858Z</time></trkpt><trkpt lat="42.9268659" lon="11.8888625"><ele>642.0</ele><time>2026-04-26T12:59:20.858Z</time></trkpt><trkpt lat="42.9270509" lon="11.8888637"><ele>644.3333333333334</ele><time>2026-04-26T12:59:21.858Z</time></trkpt><trkpt lat="42.9272189" lon="11.8889029"><ele>646.6666666666667</ele><time>2026-04-26T12:59:22.858Z</time></trkpt><trkpt lat="42.9273775" lon="11.8889828"><ele>649.0</ele><time>2026-04-26T12:59:23.858Z</time></trkpt><trkpt lat="42.9275278" lon="11.8890886"><ele>650.0</ele><time>2026-04-26T12:59:24.857Z</time></trkpt><trkpt lat="42.9276683" lon="11.8892173"><ele>651.0</ele><time>2026-04-26T12:59:25.858Z</time></trkpt><trkpt lat="42.9278065" lon="11.8893605"><ele>652.0</ele><time>2026-04-26T12:59:26.858Z</time></trkpt><trkpt lat="42.9279461" lon="11.8894986"><ele>652.0</ele><time>2026-04-26T12:59:27.857Z</time></trkpt><trkpt lat="42.9280948" lon="11.8896312"><ele>652.0</ele><time>2026-04-26T12:59:28.858Z</time></trkpt><trkpt lat="42.9282554" lon="11.8897552"><ele>652.0</ele><time>2026-04-26T12:59:29.858Z</time></trkpt><trkpt lat="42.9284298" lon="11.8898571"><ele>652.6666666666667</ele><time>2026-04-26T12:59:30.857Z</time></trkpt><trkpt lat="42.9286044" lon="11.8899352"><ele>653.3333333333334</ele><time>2026-04-26T12:59:31.857Z</time></trkpt><trkpt lat="42.9287816" lon="11.8899627"><ele>654.0</ele><time>2026-04-26T12:59:32.858Z</time></trkpt><trkpt lat="42.9289695" lon="11.8899637"><ele>654.0</ele><time>2026-04-26T12:59:33.858Z</time></trkpt><trkpt lat="42.9291552" lon="11.8899337"><ele>654.0</ele><time>2026-04-26T12:59:34.858Z</time></trkpt><trkpt lat="42.9293404" lon="11.8898889"><ele>654.0</ele><time>2026-04-26T12:59:35.858Z</time></trkpt><trkpt lat="42.9295264" lon="11.8898314"><ele>652.3333333333334</ele><time>2026-04-26T12:59:36.858Z</time></trkpt><trkpt lat="42.9297158" lon="11.8897926"><ele>650.6666666666667</ele><time>2026-04-26T12:59:37.858Z</time></trkpt><trkpt lat="42.9299069" lon="11.8897986"><ele>649.0</ele><time>2026-04-26T12:59:38.858Z</time></trkpt><trkpt lat="42.9301043" lon="11.889839"><ele>652.6666666666667</ele><time>2026-04-26T12:59:39.857Z</time></trkpt><trkpt lat="42.9303059" lon="11.8898974"><ele>656.3333333333334</ele><time>2026-04-26T12:59:40.857Z</time></trkpt><trkpt lat="42.9304982" lon="11.8899813"><ele>660.0</ele><time>2026-04-26T12:59:41.857Z</time></trkpt><trkpt lat="42.9306768" lon="11.8900896"><ele>656.0</ele><time>2026-04-26T12:59:42.858Z</time></trkpt><trkpt lat="42.930827" lon="11.8902191"><ele>652.0</ele><time>2026-04-26T12:59:43.857Z</time></trkpt><trkpt lat="42.930969" lon="11.89032"><ele>648.0</ele><time>2026-04-26T12:59:44.858Z</time></trkpt><trkpt lat="42.9311197" lon="11.8903627"><ele>648.0</ele><time>2026-04-26T12:59:45.858Z</time></trkpt><trkpt lat="42.9312823" lon="11.890364"><ele>648.0</ele><time>2026-04-26T12:59:46.857Z</time></trkpt><trkpt lat="42.9314419" lon="11.8903336"><ele>648.0</ele><time>2026-04-26T12:59:47.858Z</time></trkpt><trkpt lat="42.9316103" lon="11.890278"><ele>649.0</ele><time>2026-04-26T12:59:48.857Z</time></trkpt><trkpt lat="42.9317863" lon="11.890192"><ele>650.0</ele><time>2026-04-26T12:59:49.858Z</time></trkpt><trkpt lat="42.9319614" lon="11.8900922"><ele>651.0</ele><time>2026-04-26T12:59:50.858Z</time></trkpt><trkpt lat="42.932144" lon="11.8899911"><ele>651.0</ele><time>2026-04-26T12:59:51.857Z</time></trkpt><trkpt lat="42.9323323" lon="11.8898901"><ele>651.0</ele><time>2026-04-26T12:59:52.858Z</time></trkpt><trkpt lat="42.9325237" lon="11.8897856"><ele>651.0</ele><time>2026-04-26T12:59:53.858Z</time></trkpt><trkpt lat="42.9327183" lon="11.8896764"><ele>651.0</ele><time>2026-04-26T12:59:54.857Z</time></trkpt><trkpt lat="42.9329099" lon="11.8895753"><ele>651.0</ele><time>2026-04-26T12:59:55.858Z</time></trkpt><trkpt lat="42.9330963" lon="11.8894738"><ele>651.0</ele><time>2026-04-26T12:59:56.858Z</time></trkpt><trkpt lat="42.933279" lon="11.8893766"><ele>649.0</ele><time>2026-04-26T12:59:57.858Z</time></trkpt><trkpt lat="42.9334538" lon="11.8892867"><ele>647.0</ele><time>2026-04-26T12:59:58.858Z</time></trkpt><trkpt lat="42.9336167" lon="11.8892017"><ele>645.0</ele><time>2026-04-26T12:59:59.858Z</time></trkpt><trkpt lat="42.9337664" lon="11.8891289"><ele>645.0</ele><time>2026-04-26T13:00:00.858Z</time></trkpt><trkpt lat="42.9339181" lon="11.8891067"><ele>645.0</ele><time>2026-04-26T13:00:01.858Z</time></trkpt><trkpt lat="42.93408" lon="11.8891499"><ele>645.0</ele><time>2026-04-26T13:00:02.858Z</time></trkpt><trkpt lat="42.9342302" lon="11.8892314"><ele>638.3333333333334</ele><time>2026-04-26T13:00:03.857Z</time></trkpt><trkpt lat="42.934382" lon="11.8893332"><ele>631.6666666666667</ele><time>2026-04-26T13:00:04.858Z</time></trkpt><trkpt lat="42.9345492" lon="11.8894173"><ele>625.0</ele><time>2026-04-26T13:00:05.858Z</time></trkpt><trkpt lat="42.9347012" lon="11.8894955"><ele>625.0</ele><time>2026-04-26T13:00:06.858Z</time></trkpt><trkpt lat="42.9348471" lon="11.8895551"><ele>625.0</ele><time>2026-04-26T13:00:07.858Z</time></trkpt><trkpt lat="42.934987" lon="11.8895867"><ele>625.0</ele><time>2026-04-26T13:00:08.858Z</time></trkpt><trkpt lat="42.9351109" lon="11.8896018"><ele>625.0</ele><time>2026-04-26T13:00:09.857Z</time></trkpt><trkpt lat="42.9352265" lon="11.8896032"><ele>622.6</ele><time>2026-04-26T13:00:10.858Z</time></trkpt><trkpt lat="42.9353258" lon="11.8896222"><ele>620.2</ele><time>2026-04-26T13:00:11.858Z</time></trkpt><trkpt lat="42.9354176" lon="11.889672"><ele>617.8</ele><time>2026-04-26T13:00:12.858Z</time></trkpt><trkpt lat="42.935495" lon="11.8897772"><ele>615.4</ele><time>2026-04-26T13:00:13.858Z</time></trkpt><trkpt lat="42.9355419" lon="11.8898985"><ele>613.0</ele><time>2026-04-26T13:00:14.858Z</time></trkpt><trkpt lat="42.9355502" lon="11.8900335"><ele>610.6</ele><time>2026-04-26T13:00:15.857Z</time></trkpt><trkpt lat="42.9355421" lon="11.8901504"><ele>608.1999999999999</ele><time>2026-04-26T13:00:16.857Z</time></trkpt><trkpt lat="42.9355284" lon="11.8902538"><ele>605.8</ele><time>2026-04-26T13:00:17.858Z</time></trkpt><trkpt lat="42.9356393" lon="11.8903045"><ele>603.4</ele><time>2026-04-26T13:00:19.858Z</time></trkpt><trkpt lat="42.9356993" lon="11.8902352"><ele>601.0</ele><time>2026-04-26T13:00:20.857Z</time></trkpt><trkpt lat="42.9357566" lon="11.8901051"><ele>600.2</ele><time>2026-04-26T13:00:21.858Z</time></trkpt><trkpt lat="42.9358105" lon="11.8899811"><ele>599.4000000000001</ele><time>2026-04-26T13:00:22.858Z</time></trkpt><trkpt lat="42.935864" lon="11.8898827"><ele>598.6</ele><time>2026-04-26T13:00:23.858Z</time></trkpt><trkpt lat="42.9359397" lon="11.8898308"><ele>597.8000000000001</ele><time>2026-04-26T13:00:24.858Z</time></trkpt><trkpt lat="42.9360229" lon="11.8898396"><ele>597.0</ele><time>2026-04-26T13:00:25.858Z</time></trkpt><trkpt lat="42.9361057" lon="11.88989"><ele>597.0</ele><time>2026-04-26T13:00:26.857Z</time></trkpt><trkpt lat="42.9361676" lon="11.8899897"><ele>597.0</ele><time>2026-04-26T13:00:27.857Z</time></trkpt><trkpt lat="42.9362172" lon="11.8901171"><ele>597.0</ele><time>2026-04-26T13:00:28.858Z</time></trkpt><trkpt lat="42.9362614" lon="11.8902558"><ele>597.0</ele><time>2026-04-26T13:00:29.858Z</time></trkpt><trkpt lat="42.9363017" lon="11.8903754"><ele>597.0</ele><time>2026-04-26T13:00:30.858Z</time></trkpt><trkpt lat="42.9363715" lon="11.8904591"><ele>597.0</ele><time>2026-04-26T13:00:31.857Z</time></trkpt><trkpt lat="42.9364671" lon="11.8904875"><ele>597.0</ele><time>2026-04-26T13:00:32.857Z</time></trkpt><trkpt lat="42.936549" lon="11.8904419"><ele>597.0</ele><time>2026-04-26T13:00:33.858Z</time></trkpt><trkpt lat="42.9366212" lon="11.8903311"><ele>597.0</ele><time>2026-04-26T13:00:34.858Z</time></trkpt><trkpt lat="42.9366497" lon="11.8901516"><ele>597.0</ele><time>2026-04-26T13:00:35.858Z</time></trkpt><trkpt lat="42.9366481" lon="11.8899621"><ele>597.0</ele><time>2026-04-26T13:00:36.858Z</time></trkpt><trkpt lat="42.9366475" lon="11.8897886"><ele>597.0</ele><time>2026-04-26T13:00:37.858Z</time></trkpt><trkpt lat="42.9366646" lon="11.889631"><ele>597.0</ele><time>2026-04-26T13:00:38.857Z</time></trkpt><trkpt lat="42.9367093" lon="11.8894831"><ele>597.0</ele><time>2026-04-26T13:00:39.858Z</time></trkpt><trkpt lat="42.9367909" lon="11.8893599"><ele>592.3333333333334</ele><time>2026-04-26T13:00:40.858Z</time></trkpt><trkpt lat="42.9369089" lon="11.8892337"><ele>587.6666666666667</ele><time>2026-04-26T13:00:41.857Z</time></trkpt><trkpt lat="42.9370555" lon="11.889132"><ele>583.0</ele><time>2026-04-26T13:00:42.858Z</time></trkpt><trkpt lat="42.9372235" lon="11.8890457"><ele>583.0</ele><time>2026-04-26T13:00:43.858Z</time></trkpt><trkpt lat="42.9374047" lon="11.8889739"><ele>583.0</ele><time>2026-04-26T13:00:44.857Z</time></trkpt><trkpt lat="42.9375941" lon="11.8888931"><ele>583.0</ele><time>2026-04-26T13:00:45.858Z</time></trkpt><trkpt lat="42.9377914" lon="11.8888045"><ele>576.6666666666667</ele><time>2026-04-26T13:00:46.858Z</time></trkpt><trkpt lat="42.9380004" lon="11.8887151"><ele>570.3333333333334</ele><time>2026-04-26T13:00:47.858Z</time></trkpt><trkpt lat="42.9382154" lon="11.8886258"><ele>564.0</ele><time>2026-04-26T13:00:48.858Z</time></trkpt><trkpt lat="42.938438" lon="11.8885236"><ele>561.0</ele><time>2026-04-26T13:00:49.858Z</time></trkpt><trkpt lat="42.9386696" lon="11.8884201"><ele>558.0</ele><time>2026-04-26T13:00:50.858Z</time></trkpt><trkpt lat="42.9389069" lon="11.8883122"><ele>558.0</ele><time>2026-04-26T13:00:51.857Z</time></trkpt><trkpt lat="42.9391484" lon="11.8882063"><ele>558.0</ele><time>2026-04-26T13:00:52.858Z</time></trkpt><trkpt lat="42.939391" lon="11.8881042"><ele>552.5</ele><time>2026-04-26T13:00:53.858Z</time></trkpt><trkpt lat="42.9396331" lon="11.8880083"><ele>547.0</ele><time>2026-04-26T13:00:54.858Z</time></trkpt><trkpt lat="42.9398825" lon="11.8879176"><ele>545.5</ele><time>2026-04-26T13:00:55.858Z</time></trkpt><trkpt lat="42.9401317" lon="11.8878352"><ele>544.0</ele><time>2026-04-26T13:00:56.858Z</time></trkpt><trkpt lat="42.940384" lon="11.8877695"><ele>544.0</ele><time>2026-04-26T13:00:57.858Z</time></trkpt><trkpt lat="42.9406411" lon="11.8877259"><ele>544.0</ele><time>2026-04-26T13:00:58.857Z</time></trkpt><trkpt lat="42.9408984" lon="11.8876959"><ele>545.0</ele><time>2026-04-26T13:00:59.858Z</time></trkpt><trkpt lat="42.9411539" lon="11.8876792"><ele>546.0</ele><time>2026-04-26T13:01:00.858Z</time></trkpt><trkpt lat="42.9413967" lon="11.8876643"><ele>546.0</ele><time>2026-04-26T13:01:01.858Z</time></trkpt><trkpt lat="42.9416182" lon="11.8876531"><ele>546.0</ele><time>2026-04-26T13:01:02.858Z</time></trkpt><trkpt lat="42.9418211" lon="11.8876431"><ele>546.0</ele><time>2026-04-26T13:01:03.858Z</time></trkpt><trkpt lat="42.9420072" lon="11.8876228"><ele>547.0</ele><time>2026-04-26T13:01:04.858Z</time></trkpt><trkpt lat="42.9421688" lon="11.887572"><ele>548.0</ele><time>2026-04-26T13:01:05.858Z</time></trkpt><trkpt lat="42.9423117" lon="11.8874704"><ele>549.0</ele><time>2026-04-26T13:01:06.858Z</time></trkpt><trkpt lat="42.9424407" lon="11.8873372"><ele>545.3333333333334</ele><time>2026-04-26T13:01:07.858Z</time></trkpt><trkpt lat="42.9425715" lon="11.8871777"><ele>541.6666666666667</ele><time>2026-04-26T13:01:08.858Z</time></trkpt><trkpt lat="42.9427121" lon="11.8870174"><ele>538.0</ele><time>2026-04-26T13:01:09.858Z</time></trkpt><trkpt lat="42.9428552" lon="11.8868583"><ele>540.3333333333334</ele><time>2026-04-26T13:01:10.858Z</time></trkpt><trkpt lat="42.9430002" lon="11.8866921"><ele>542.6666666666666</ele><time>2026-04-26T13:01:11.858Z</time></trkpt><trkpt lat="42.9431342" lon="11.88652"><ele>545.0</ele><time>2026-04-26T13:01:12.858Z</time></trkpt><trkpt lat="42.9432419" lon="11.8863344"><ele>545.0</ele><time>2026-04-26T13:01:13.858Z</time></trkpt><trkpt lat="42.9433327" lon="11.8861362"><ele>545.0</ele><time>2026-04-26T13:01:14.858Z</time></trkpt><trkpt lat="42.9433989" lon="11.8859196"><ele>545.0</ele><time>2026-04-26T13:01:15.857Z</time></trkpt><trkpt lat="42.943438" lon="11.885696"><ele>542.0</ele><time>2026-04-26T13:01:16.858Z</time></trkpt><trkpt lat="42.943449" lon="11.8854717"><ele>539.0</ele><time>2026-04-26T13:01:17.858Z</time></trkpt><trkpt lat="42.9434449" lon="11.8852463"><ele>536.0</ele><time>2026-04-26T13:01:18.858Z</time></trkpt><trkpt lat="42.9434402" lon="11.885028"><ele>535.5</ele><time>2026-04-26T13:01:19.858Z</time></trkpt><trkpt lat="42.9434332" lon="11.8848235"><ele>535.0</ele><time>2026-04-26T13:01:20.857Z</time></trkpt><trkpt lat="42.9434323" lon="11.8846292"><ele>534.5</ele><time>2026-04-26T13:01:21.858Z</time></trkpt><trkpt lat="42.9434566" lon="11.8844495"><ele>534.0</ele><time>2026-04-26T13:01:22.857Z</time></trkpt><trkpt lat="42.9434975" lon="11.8842776"><ele>534.75</ele><time>2026-04-26T13:01:23.858Z</time></trkpt><trkpt lat="42.9435646" lon="11.8841123"><ele>535.5</ele><time>2026-04-26T13:01:24.858Z</time></trkpt><trkpt lat="42.9436637" lon="11.8839701"><ele>536.25</ele><time>2026-04-26T13:01:25.857Z</time></trkpt><trkpt lat="42.9437895" lon="11.8838773"><ele>537.0</ele><time>2026-04-26T13:01:26.858Z</time></trkpt><trkpt lat="42.9439363" lon="11.8838172"><ele>537.0</ele><time>2026-04-26T13:01:27.858Z</time></trkpt><trkpt lat="42.9441015" lon="11.8837901"><ele>537.0</ele><time>2026-04-26T13:01:28.857Z</time></trkpt><trkpt lat="42.9442784" lon="11.8837801"><ele>537.0</ele><time>2026-04-26T13:01:29.858Z</time></trkpt><trkpt lat="42.9444691" lon="11.8837754"><ele>533.0</ele><time>2026-04-26T13:01:30.858Z</time></trkpt><trkpt lat="42.944669" lon="11.8837745"><ele>529.0</ele><time>2026-04-26T13:01:31.857Z</time></trkpt><trkpt lat="42.9448761" lon="11.8837729"><ele>525.0</ele><time>2026-04-26T13:01:32.858Z</time></trkpt><trkpt lat="42.9450806" lon="11.8837808"><ele>524.6666666666666</ele><time>2026-04-26T13:01:33.858Z</time></trkpt><trkpt lat="42.9452888" lon="11.8837982"><ele>524.3333333333333</ele><time>2026-04-26T13:01:34.858Z</time></trkpt><trkpt lat="42.9454992" lon="11.8838268"><ele>524.0</ele><time>2026-04-26T13:01:35.858Z</time></trkpt><trkpt lat="42.9457107" lon="11.883875"><ele>525.0</ele><time>2026-04-26T13:01:36.858Z</time></trkpt><trkpt lat="42.9459212" lon="11.8839295"><ele>526.0</ele><time>2026-04-26T13:01:37.858Z</time></trkpt><trkpt lat="42.946126" lon="11.8839897"><ele>527.0</ele><time>2026-04-26T13:01:38.857Z</time></trkpt><trkpt lat="42.9463148" lon="11.8840543"><ele>527.0</ele><time>2026-04-26T13:01:39.858Z</time></trkpt><trkpt lat="42.946489" lon="11.8841227"><ele>527.0</ele><time>2026-04-26T13:01:40.858Z</time></trkpt><trkpt lat="42.9466425" lon="11.8841869"><ele>527.0</ele><time>2026-04-26T13:01:41.858Z</time></trkpt><trkpt lat="42.9467747" lon="11.8842682"><ele>527.6666666666666</ele><time>2026-04-26T13:01:42.857Z</time></trkpt><trkpt lat="42.9468868" lon="11.8844024"><ele>528.3333333333334</ele><time>2026-04-26T13:01:43.858Z</time></trkpt><trkpt lat="42.9469726" lon="11.8845757"><ele>529.0</ele><time>2026-04-26T13:01:44.857Z</time></trkpt><trkpt lat="42.9470451" lon="11.8847671"><ele>529.0</ele><time>2026-04-26T13:01:45.858Z</time></trkpt><trkpt lat="42.9471147" lon="11.8849642"><ele>529.0</ele><time>2026-04-26T13:01:46.857Z</time></trkpt><trkpt lat="42.9471887" lon="11.8851684"><ele>529.0</ele><time>2026-04-26T13:01:47.858Z</time></trkpt><trkpt lat="42.947261" lon="11.8853682"><ele>528.75</ele><time>2026-04-26T13:01:48.858Z</time></trkpt><trkpt lat="42.9473356" lon="11.8855507"><ele>528.5</ele><time>2026-04-26T13:01:49.858Z</time></trkpt><trkpt lat="42.9474088" lon="11.8857138"><ele>528.25</ele><time>2026-04-26T13:01:50.858Z</time></trkpt><trkpt lat="42.9474975" lon="11.8858528"><ele>528.0</ele><time>2026-04-26T13:01:51.858Z</time></trkpt><trkpt lat="42.9476103" lon="11.88596"><ele>526.25</ele><time>2026-04-26T13:01:52.858Z</time></trkpt><trkpt lat="42.9477365" lon="11.8860445"><ele>524.5</ele><time>2026-04-26T13:01:53.858Z</time></trkpt><trkpt lat="42.9478799" lon="11.8860849"><ele>522.75</ele><time>2026-04-26T13:01:54.858Z</time></trkpt><trkpt lat="42.9480363" lon="11.8860944"><ele>521.0</ele><time>2026-04-26T13:01:55.858Z</time></trkpt><trkpt lat="42.9482047" lon="11.8861017"><ele>521.0</ele><time>2026-04-26T13:01:56.857Z</time></trkpt><trkpt lat="42.9483699" lon="11.8861491"><ele>521.0</ele><time>2026-04-26T13:01:57.858Z</time></trkpt><trkpt lat="42.9485375" lon="11.8861883"><ele>521.0</ele><time>2026-04-26T13:01:58.857Z</time></trkpt><trkpt lat="42.9487121" lon="11.886214"><ele>524.6666666666666</ele><time>2026-04-26T13:01:59.858Z</time></trkpt><trkpt lat="42.9488902" lon="11.886226"><ele>528.3333333333334</ele><time>2026-04-26T13:02:00.857Z</time></trkpt><trkpt lat="42.9490671" lon="11.8862218"><ele>532.0</ele><time>2026-04-26T13:02:01.857Z</time></trkpt><trkpt lat="42.9492387" lon="11.8862298"><ele>532.6666666666667</ele><time>2026-04-26T13:02:02.858Z</time></trkpt><trkpt lat="42.9494088" lon="11.8862398"><ele>533.3333333333334</ele><time>2026-04-26T13:02:03.858Z</time></trkpt><trkpt lat="42.9495629" lon="11.8862527"><ele>534.0</ele><time>2026-04-26T13:02:04.858Z</time></trkpt><trkpt lat="42.9497151" lon="11.88626"><ele>534.0</ele><time>2026-04-26T13:02:05.858Z</time></trkpt><trkpt lat="42.9498689" lon="11.8862406"><ele>534.0</ele><time>2026-04-26T13:02:06.858Z</time></trkpt><trkpt lat="42.9500223" lon="11.8861874"><ele>534.0</ele><time>2026-04-26T13:02:07.858Z</time></trkpt><trkpt lat="42.9501787" lon="11.886124"><ele>533.3333333333334</ele><time>2026-04-26T13:02:08.858Z</time></trkpt><trkpt lat="42.9503394" lon="11.8860589"><ele>532.6666666666667</ele><time>2026-04-26T13:02:09.858Z</time></trkpt><trkpt lat="42.9505055" lon="11.8860099"><ele>532.0</ele><time>2026-04-26T13:02:10.858Z</time></trkpt><trkpt lat="42.9506769" lon="11.8859713"><ele>532.0</ele><time>2026-04-26T13:02:11.858Z</time></trkpt><trkpt lat="42.9508498" lon="11.8859358"><ele>532.0</ele><time>2026-04-26T13:02:12.857Z</time></trkpt><trkpt lat="42.9510268" lon="11.8859038"><ele>532.0</ele><time>2026-04-26T13:02:13.858Z</time></trkpt><trkpt lat="42.9512065" lon="11.885868"><ele>532.3333333333334</ele><time>2026-04-26T13:02:14.858Z</time></trkpt><trkpt lat="42.9513886" lon="11.8858257"><ele>532.6666666666666</ele><time>2026-04-26T13:02:15.858Z</time></trkpt><trkpt lat="42.9515648" lon="11.8857713"><ele>533.0</ele><time>2026-04-26T13:02:16.857Z</time></trkpt><trkpt lat="42.9517436" lon="11.8857008"><ele>535.3333333333333</ele><time>2026-04-26T13:02:17.858Z</time></trkpt><trkpt lat="42.9519183" lon="11.8856254"><ele>537.6666666666666</ele><time>2026-04-26T13:02:18.858Z</time></trkpt><trkpt lat="42.952092" lon="11.8855466"><ele>540.0</ele><time>2026-04-26T13:02:19.858Z</time></trkpt><trkpt lat="42.9522627" lon="11.8854587"><ele>540.0</ele><time>2026-04-26T13:02:20.857Z</time></trkpt><trkpt lat="42.9524303" lon="11.885382"><ele>540.0</ele><time>2026-04-26T13:02:21.858Z</time></trkpt><trkpt lat="42.9525908" lon="11.8853195"><ele>540.0</ele><time>2026-04-26T13:02:22.858Z</time></trkpt><trkpt lat="42.9527541" lon="11.8852836"><ele>545.0</ele><time>2026-04-26T13:02:23.858Z</time></trkpt><trkpt lat="42.9529205" lon="11.8853066"><ele>550.0</ele><time>2026-04-26T13:02:24.858Z</time></trkpt><trkpt lat="42.9530787" lon="11.8853843"><ele>555.0</ele><time>2026-04-26T13:02:25.857Z</time></trkpt><trkpt lat="42.9532159" lon="11.8854923"><ele>555.0</ele><time>2026-04-26T13:02:26.858Z</time></trkpt><trkpt lat="42.953357" lon="11.8855809"><ele>555.0</ele><time>2026-04-26T13:02:27.858Z</time></trkpt><trkpt lat="42.9535107" lon="11.8856332"><ele>555.0</ele><time>2026-04-26T13:02:28.858Z</time></trkpt><trkpt lat="42.9536672" lon="11.8856513"><ele>557.3333333333334</ele><time>2026-04-26T13:02:29.857Z</time></trkpt><trkpt lat="42.953823" lon="11.8856695"><ele>559.6666666666667</ele><time>2026-04-26T13:02:30.858Z</time></trkpt><trkpt lat="42.9539764" lon="11.8856744"><ele>562.0</ele><time>2026-04-26T13:02:31.858Z</time></trkpt><trkpt lat="42.9541376" lon="11.885687"><ele>562.3333333333334</ele><time>2026-04-26T13:02:32.858Z</time></trkpt><trkpt lat="42.9542952" lon="11.8856985"><ele>562.6666666666666</ele><time>2026-04-26T13:02:33.858Z</time></trkpt><trkpt lat="42.9544541" lon="11.8856973"><ele>563.0</ele><time>2026-04-26T13:02:34.858Z</time></trkpt><trkpt lat="42.9546118" lon="11.8856757"><ele>563.0</ele><time>2026-04-26T13:02:35.858Z</time></trkpt><trkpt lat="42.9547676" lon="11.8856318"><ele>563.0</ele><time>2026-04-26T13:02:36.858Z</time></trkpt><trkpt lat="42.9549224" lon="11.8855533"><ele>563.0</ele><time>2026-04-26T13:02:37.857Z</time></trkpt><trkpt lat="42.9550525" lon="11.8854514"><ele>562.5</ele><time>2026-04-26T13:02:38.858Z</time></trkpt><trkpt lat="42.9551833" lon="11.8853618"><ele>562.0</ele><time>2026-04-26T13:02:39.858Z</time></trkpt><trkpt lat="42.9552975" lon="11.8853055"><ele>561.5</ele><time>2026-04-26T13:02:40.857Z</time></trkpt><trkpt lat="42.9554022" lon="11.8852873"><ele>561.0</ele><time>2026-04-26T13:02:41.858Z</time></trkpt><trkpt lat="42.9555106" lon="11.8852582"><ele>561.0</ele><time>2026-04-26T13:02:42.857Z</time></trkpt><trkpt lat="42.9556202" lon="11.8851992"><ele>561.0</ele><time>2026-04-26T13:02:43.857Z</time></trkpt><trkpt lat="42.9557217" lon="11.8851128"><ele>561.0</ele><time>2026-04-26T13:02:44.857Z</time></trkpt><trkpt lat="42.9558199" lon="11.8850117"><ele>561.0</ele><time>2026-04-26T13:02:45.857Z</time></trkpt><trkpt lat="42.9559275" lon="11.8849326"><ele>562.75</ele><time>2026-04-26T13:02:46.857Z</time></trkpt><trkpt lat="42.9560484" lon="11.8848748"><ele>564.5</ele><time>2026-04-26T13:02:47.858Z</time></trkpt><trkpt lat="42.956159" lon="11.8848124"><ele>566.25</ele><time>2026-04-26T13:02:48.858Z</time></trkpt><trkpt lat="42.9562671" lon="11.884708"><ele>568.0</ele><time>2026-04-26T13:02:49.857Z</time></trkpt><trkpt lat="42.9563667" lon="11.8845632"><ele>568.0</ele><time>2026-04-26T13:02:50.857Z</time></trkpt><trkpt lat="42.9564615" lon="11.8844013"><ele>568.0</ele><time>2026-04-26T13:02:51.858Z</time></trkpt><trkpt lat="42.9565467" lon="11.8842296"><ele>568.0</ele><time>2026-04-26T13:02:52.858Z</time></trkpt><trkpt lat="42.9566272" lon="11.8840497"><ele>564.0</ele><time>2026-04-26T13:02:53.858Z</time></trkpt><trkpt lat="42.9567079" lon="11.8838717"><ele>560.0</ele><time>2026-04-26T13:02:54.858Z</time></trkpt><trkpt lat="42.9567891" lon="11.8836945"><ele>556.0</ele><time>2026-04-26T13:02:55.858Z</time></trkpt><trkpt lat="42.9568592" lon="11.8835181"><ele>563.0</ele><time>2026-04-26T13:02:56.858Z</time></trkpt><trkpt lat="42.9569369" lon="11.8833535"><ele>570.0</ele><time>2026-04-26T13:02:57.858Z</time></trkpt><trkpt lat="42.9570341" lon="11.8831914"><ele>577.0</ele><time>2026-04-26T13:02:58.858Z</time></trkpt><trkpt lat="42.9571686" lon="11.8830751"><ele>577.0</ele><time>2026-04-26T13:02:59.857Z</time></trkpt><trkpt lat="42.9573107" lon="11.8829762"><ele>577.0</ele><time>2026-04-26T13:03:00.857Z</time></trkpt><trkpt lat="42.9574561" lon="11.8828804"><ele>577.0</ele><time>2026-04-26T13:03:01.858Z</time></trkpt><trkpt lat="42.9575978" lon="11.8827985"><ele>575.25</ele><time>2026-04-26T13:03:02.858Z</time></trkpt><trkpt lat="42.9577311" lon="11.8827266"><ele>573.5</ele><time>2026-04-26T13:03:03.858Z</time></trkpt><trkpt lat="42.9578629" lon="11.8826632"><ele>571.75</ele><time>2026-04-26T13:03:04.858Z</time></trkpt><trkpt lat="42.9579878" lon="11.8825972"><ele>570.0</ele><time>2026-04-26T13:03:05.858Z</time></trkpt><trkpt lat="42.9581065" lon="11.8825145"><ele>570.0</ele><time>2026-04-26T13:03:06.858Z</time></trkpt><trkpt lat="42.9582018" lon="11.8823784"><ele>570.0</ele><time>2026-04-26T13:03:07.858Z</time></trkpt><trkpt lat="42.9582911" lon="11.8822141"><ele>570.0</ele><time>2026-04-26T13:03:08.857Z</time></trkpt><trkpt lat="42.9583903" lon="11.8820625"><ele>570.0</ele><time>2026-04-26T13:03:09.857Z</time></trkpt><trkpt lat="42.9585177" lon="11.8819587"><ele>567.75</ele><time>2026-04-26T13:03:10.858Z</time></trkpt><trkpt lat="42.9586571" lon="11.8819167"><ele>565.5</ele><time>2026-04-26T13:03:11.858Z</time></trkpt><trkpt lat="42.958807" lon="11.8819374"><ele>563.25</ele><time>2026-04-26T13:03:12.857Z</time></trkpt><trkpt lat="42.9589557" lon="11.8819995"><ele>561.0</ele><time>2026-04-26T13:03:13.858Z</time></trkpt><trkpt lat="42.9591062" lon="11.8820678"><ele>559.0</ele><time>2026-04-26T13:03:14.858Z</time></trkpt><trkpt lat="42.9592543" lon="11.8821153"><ele>557.0</ele><time>2026-04-26T13:03:15.858Z</time></trkpt><trkpt lat="42.9594221" lon="11.8821176"><ele>555.0</ele><time>2026-04-26T13:03:16.858Z</time></trkpt><trkpt lat="42.9595957" lon="11.8820689"><ele>555.0</ele><time>2026-04-26T13:03:17.858Z</time></trkpt><trkpt lat="42.9597661" lon="11.8819786"><ele>555.0</ele><time>2026-04-26T13:03:18.857Z</time></trkpt><trkpt lat="42.9599337" lon="11.8818558"><ele>555.0</ele><time>2026-04-26T13:03:19.858Z</time></trkpt><trkpt lat="42.9600912" lon="11.8817242"><ele>558.0</ele><time>2026-04-26T13:03:20.858Z</time></trkpt><trkpt lat="42.9602442" lon="11.8815828"><ele>561.0</ele><time>2026-04-26T13:03:21.858Z</time></trkpt><trkpt lat="42.960392" lon="11.8814448"><ele>564.0</ele><time>2026-04-26T13:03:22.858Z</time></trkpt><trkpt lat="42.9605369" lon="11.8813104"><ele>564.0</ele><time>2026-04-26T13:03:23.858Z</time></trkpt><trkpt lat="42.9606807" lon="11.8811876"><ele>564.0</ele><time>2026-04-26T13:03:24.858Z</time></trkpt><trkpt lat="42.9608237" lon="11.8810705"><ele>564.0</ele><time>2026-04-26T13:03:25.857Z</time></trkpt><trkpt lat="42.9609644" lon="11.8809586"><ele>564.6666666666666</ele><time>2026-04-26T13:03:26.858Z</time></trkpt><trkpt lat="42.9611049" lon="11.880856"><ele>565.3333333333333</ele><time>2026-04-26T13:03:27.857Z</time></trkpt><trkpt lat="42.9612496" lon="11.8807587"><ele>566.0</ele><time>2026-04-26T13:03:28.858Z</time></trkpt><trkpt lat="42.9613947" lon="11.8806638"><ele>566.0</ele><time>2026-04-26T13:03:29.858Z</time></trkpt><trkpt lat="42.9615364" lon="11.8805681"><ele>566.0</ele><time>2026-04-26T13:03:30.858Z</time></trkpt><trkpt lat="42.9616773" lon="11.8804685"><ele>566.0</ele><time>2026-04-26T13:03:31.858Z</time></trkpt><trkpt lat="42.9618138" lon="11.8803642"><ele>565.6666666666666</ele><time>2026-04-26T13:03:32.858Z</time></trkpt><trkpt lat="42.9619469" lon="11.8802445"><ele>565.3333333333334</ele><time>2026-04-26T13:03:33.858Z</time></trkpt><trkpt lat="42.9620674" lon="11.8801028"><ele>565.0</ele><time>2026-04-26T13:03:34.858Z</time></trkpt><trkpt lat="42.9621754" lon="11.8799542"><ele>565.0</ele><time>2026-04-26T13:03:35.858Z</time></trkpt><trkpt lat="42.9622719" lon="11.8797954"><ele>565.0</ele><time>2026-04-26T13:03:36.858Z</time></trkpt><trkpt lat="42.9623726" lon="11.8796549"><ele>565.0</ele><time>2026-04-26T13:03:37.858Z</time></trkpt><trkpt lat="42.9624732" lon="11.8795246"><ele>565.0</ele><time>2026-04-26T13:03:38.858Z</time></trkpt><trkpt lat="42.9625808" lon="11.8794117"><ele>565.25</ele><time>2026-04-26T13:03:39.858Z</time></trkpt><trkpt lat="42.9626934" lon="11.8793098"><ele>565.5</ele><time>2026-04-26T13:03:40.858Z</time></trkpt><trkpt lat="42.96281" lon="11.8792169"><ele>565.75</ele><time>2026-04-26T13:03:41.857Z</time></trkpt><trkpt lat="42.9629194" lon="11.8791123"><ele>566.0</ele><time>2026-04-26T13:03:42.858Z</time></trkpt><trkpt lat="42.9630122" lon="11.8789928"><ele>566.0</ele><time>2026-04-26T13:03:43.858Z</time></trkpt><trkpt lat="42.9630951" lon="11.8788584"><ele>566.0</ele><time>2026-04-26T13:03:44.858Z</time></trkpt><trkpt lat="42.9631655" lon="11.8787226"><ele>566.0</ele><time>2026-04-26T13:03:45.858Z</time></trkpt><trkpt lat="42.9632288" lon="11.8785904"><ele>566.0</ele><time>2026-04-26T13:03:46.858Z</time></trkpt><trkpt lat="42.9633049" lon="11.8784729"><ele>566.75</ele><time>2026-04-26T13:03:47.858Z</time></trkpt><trkpt lat="42.9633961" lon="11.8783687"><ele>567.5</ele><time>2026-04-26T13:03:48.858Z</time></trkpt><trkpt lat="42.9634922" lon="11.8782775"><ele>568.25</ele><time>2026-04-26T13:03:49.857Z</time></trkpt><trkpt lat="42.9635994" lon="11.8782037"><ele>569.0</ele><time>2026-04-26T13:03:50.858Z</time></trkpt><trkpt lat="42.9637129" lon="11.8781289"><ele>569.0</ele><time>2026-04-26T13:03:51.858Z</time></trkpt><trkpt lat="42.9638236" lon="11.8780559"><ele>569.0</ele><time>2026-04-26T13:03:52.857Z</time></trkpt><trkpt lat="42.9639356" lon="11.8779754"><ele>569.0</ele><time>2026-04-26T13:03:53.858Z</time></trkpt><trkpt lat="42.9640549" lon="11.8778998"><ele>569.0</ele><time>2026-04-26T13:03:54.858Z</time></trkpt><trkpt lat="42.964177" lon="11.8778218"><ele>569.75</ele><time>2026-04-26T13:03:55.857Z</time></trkpt><trkpt lat="42.9643044" lon="11.8777402"><ele>570.5</ele><time>2026-04-26T13:03:56.858Z</time></trkpt><trkpt lat="42.9644349" lon="11.8776608"><ele>571.25</ele><time>2026-04-26T13:03:57.858Z</time></trkpt><trkpt lat="42.9645596" lon="11.877583"><ele>572.0</ele><time>2026-04-26T13:03:58.858Z</time></trkpt><trkpt lat="42.9646763" lon="11.8775101"><ele>572.0</ele><time>2026-04-26T13:03:59.858Z</time></trkpt><trkpt lat="42.9647836" lon="11.8774389"><ele>572.0</ele><time>2026-04-26T13:04:00.858Z</time></trkpt><trkpt lat="42.9648814" lon="11.8773587"><ele>572.0</ele><time>2026-04-26T13:04:01.858Z</time></trkpt><trkpt lat="42.9649692" lon="11.87728"><ele>572.0</ele><time>2026-04-26T13:04:02.858Z</time></trkpt><trkpt lat="42.9650497" lon="11.8771886"><ele>572.0</ele><time>2026-04-26T13:04:03.858Z</time></trkpt><trkpt lat="42.9651302" lon="11.8770967"><ele>568.75</ele><time>2026-04-26T13:04:04.857Z</time></trkpt><trkpt lat="42.9652114" lon="11.8769998"><ele>565.5</ele><time>2026-04-26T13:04:05.858Z</time></trkpt><trkpt lat="42.9653004" lon="11.8769168"><ele>562.25</ele><time>2026-04-26T13:04:06.858Z</time></trkpt><trkpt lat="42.9654121" lon="11.8768492"><ele>559.0</ele><time>2026-04-26T13:04:07.858Z</time></trkpt><trkpt lat="42.9655246" lon="11.8768226"><ele>559.0</ele><time>2026-04-26T13:04:08.858Z</time></trkpt><trkpt lat="42.9656347" lon="11.8767973"><ele>559.0</ele><time>2026-04-26T13:04:09.858Z</time></trkpt><trkpt lat="42.9657424" lon="11.8767631"><ele>559.0</ele><time>2026-04-26T13:04:10.858Z</time></trkpt><trkpt lat="42.9658461" lon="11.8767007"><ele>559.0</ele><time>2026-04-26T13:04:11.858Z</time></trkpt><trkpt lat="42.9659327" lon="11.8766126"><ele>559.0</ele><time>2026-04-26T13:04:12.857Z</time></trkpt><trkpt lat="42.9660006" lon="11.8765219"><ele>559.6</ele><time>2026-04-26T13:04:13.858Z</time></trkpt><trkpt lat="42.9660732" lon="11.8764256"><ele>560.2</ele><time>2026-04-26T13:04:14.857Z</time></trkpt><trkpt lat="42.9661433" lon="11.8763222"><ele>560.8000000000001</ele><time>2026-04-26T13:04:15.857Z</time></trkpt><trkpt lat="42.9662078" lon="11.8762213"><ele>561.4</ele><time>2026-04-26T13:04:16.858Z</time></trkpt><trkpt lat="42.9662802" lon="11.8761389"><ele>562.0</ele><time>2026-04-26T13:04:17.857Z</time></trkpt><trkpt lat="42.9663696" lon="11.8760942"><ele>562.0</ele><time>2026-04-26T13:04:18.858Z</time></trkpt><trkpt lat="42.9664655" lon="11.8760813"><ele>562.0</ele><time>2026-04-26T13:04:19.857Z</time></trkpt><trkpt lat="42.9665661" lon="11.876132"><ele>562.0</ele><time>2026-04-26T13:04:20.858Z</time></trkpt><trkpt lat="42.9666525" lon="11.876221"><ele>562.0</ele><time>2026-04-26T13:04:21.858Z</time></trkpt><trkpt lat="42.9667232" lon="11.8763387"><ele>562.0</ele><time>2026-04-26T13:04:22.858Z</time></trkpt><trkpt lat="42.9667894" lon="11.8764572"><ele>560.25</ele><time>2026-04-26T13:04:23.858Z</time></trkpt><trkpt lat="42.9668638" lon="11.8765612"><ele>558.5</ele><time>2026-04-26T13:04:24.858Z</time></trkpt><trkpt lat="42.9669587" lon="11.8766439"><ele>556.75</ele><time>2026-04-26T13:04:25.858Z</time></trkpt><trkpt lat="42.9670793" lon="11.8766968"><ele>555.0</ele><time>2026-04-26T13:04:26.857Z</time></trkpt><trkpt lat="42.9672161" lon="11.8766936"><ele>555.0</ele><time>2026-04-26T13:04:27.858Z</time></trkpt><trkpt lat="42.9673527" lon="11.8766628"><ele>555.0</ele><time>2026-04-26T13:04:28.857Z</time></trkpt><trkpt lat="42.9674902" lon="11.8766096"><ele>555.0</ele><time>2026-04-26T13:04:29.858Z</time></trkpt><trkpt lat="42.9676307" lon="11.8765271"><ele>555.0</ele><time>2026-04-26T13:04:30.858Z</time></trkpt><trkpt lat="42.9677662" lon="11.8764454"><ele>551.6666666666666</ele><time>2026-04-26T13:04:31.858Z</time></trkpt><trkpt lat="42.9679032" lon="11.8763486"><ele>548.3333333333333</ele><time>2026-04-26T13:04:32.858Z</time></trkpt><trkpt lat="42.9680327" lon="11.8762251"><ele>545.0</ele><time>2026-04-26T13:04:33.858Z</time></trkpt><trkpt lat="42.9681547" lon="11.8760739"><ele>546.0</ele><time>2026-04-26T13:04:34.858Z</time></trkpt><trkpt lat="42.9682674" lon="11.8759076"><ele>547.0</ele><time>2026-04-26T13:04:35.858Z</time></trkpt><trkpt lat="42.9683732" lon="11.8757196"><ele>548.0</ele><time>2026-04-26T13:04:36.858Z</time></trkpt><trkpt lat="42.9684769" lon="11.8755374"><ele>548.0</ele><time>2026-04-26T13:04:37.858Z</time></trkpt><trkpt lat="42.9685788" lon="11.8753506"><ele>548.0</ele><time>2026-04-26T13:04:38.858Z</time></trkpt><trkpt lat="42.9686836" lon="11.87516"><ele>548.0</ele><time>2026-04-26T13:04:39.858Z</time></trkpt><trkpt lat="42.9687926" lon="11.8749687"><ele>549.0</ele><time>2026-04-26T13:04:40.857Z</time></trkpt><trkpt lat="42.9689027" lon="11.8747839"><ele>550.0</ele><time>2026-04-26T13:04:41.857Z</time></trkpt><trkpt lat="42.969021" lon="11.8746012"><ele>551.0</ele><time>2026-04-26T13:04:42.858Z</time></trkpt><trkpt lat="42.9691428" lon="11.8744214"><ele>550.0</ele><time>2026-04-26T13:04:43.858Z</time></trkpt><trkpt lat="42.9692712" lon="11.874255"><ele>549.0</ele><time>2026-04-26T13:04:44.858Z</time></trkpt><trkpt lat="42.9694084" lon="11.8741049"><ele>548.0</ele><time>2026-04-26T13:04:45.858Z</time></trkpt><trkpt lat="42.9695482" lon="11.8739612"><ele>548.0</ele><time>2026-04-26T13:04:46.858Z</time></trkpt><trkpt lat="42.969684" lon="11.8738162"><ele>548.0</ele><time>2026-04-26T13:04:47.858Z</time></trkpt><trkpt lat="42.9698155" lon="11.8736593"><ele>548.0</ele><time>2026-04-26T13:04:48.858Z</time></trkpt><trkpt lat="42.9699337" lon="11.8734996"><ele>545.6666666666666</ele><time>2026-04-26T13:04:49.857Z</time></trkpt><trkpt lat="42.9700398" lon="11.8733226"><ele>543.3333333333334</ele><time>2026-04-26T13:04:50.857Z</time></trkpt><trkpt lat="42.9701433" lon="11.8731408"><ele>541.0</ele><time>2026-04-26T13:04:51.857Z</time></trkpt><trkpt lat="42.9702405" lon="11.8729601"><ele>541.0</ele><time>2026-04-26T13:04:52.858Z</time></trkpt><trkpt lat="42.9703312" lon="11.872776"><ele>541.0</ele><time>2026-04-26T13:04:53.858Z</time></trkpt><trkpt lat="42.970425" lon="11.872589"><ele>541.0</ele><time>2026-04-26T13:04:54.858Z</time></trkpt><trkpt lat="42.9705182" lon="11.8723965"><ele>541.6666666666667</ele><time>2026-04-26T13:04:55.858Z</time></trkpt><trkpt lat="42.9706205" lon="11.8722064"><ele>542.3333333333334</ele><time>2026-04-26T13:04:56.857Z</time></trkpt><trkpt lat="42.9707342" lon="11.8720396"><ele>543.0</ele><time>2026-04-26T13:04:57.858Z</time></trkpt><trkpt lat="42.9708702" lon="11.8718999"><ele>544.0</ele><time>2026-04-26T13:04:58.858Z</time></trkpt><trkpt lat="42.9710168" lon="11.8717799"><ele>545.0</ele><time>2026-04-26T13:04:59.858Z</time></trkpt><trkpt lat="42.9711784" lon="11.8716777"><ele>546.0</ele><time>2026-04-26T13:05:00.857Z</time></trkpt><trkpt lat="42.9713475" lon="11.8716003"><ele>546.0</ele><time>2026-04-26T13:05:01.858Z</time></trkpt><trkpt lat="42.971521" lon="11.8715457"><ele>546.0</ele><time>2026-04-26T13:05:02.858Z</time></trkpt><trkpt lat="42.9716907" lon="11.871485"><ele>546.0</ele><time>2026-04-26T13:05:03.857Z</time></trkpt><trkpt lat="42.9718629" lon="11.8714154"><ele>543.3333333333334</ele><time>2026-04-26T13:05:04.858Z</time></trkpt><trkpt lat="42.9720214" lon="11.8713391"><ele>540.6666666666667</ele><time>2026-04-26T13:05:05.858Z</time></trkpt><trkpt lat="42.9721735" lon="11.8712552"><ele>538.0</ele><time>2026-04-26T13:05:06.858Z</time></trkpt><trkpt lat="42.9723172" lon="11.8711737"><ele>538.0</ele><time>2026-04-26T13:05:07.858Z</time></trkpt><trkpt lat="42.9724661" lon="11.8711135"><ele>538.0</ele><time>2026-04-26T13:05:08.857Z</time></trkpt><trkpt lat="42.9726184" lon="11.8710738"><ele>538.0</ele><time>2026-04-26T13:05:09.858Z</time></trkpt><trkpt lat="42.9727664" lon="11.871044"><ele>538.0</ele><time>2026-04-26T13:05:10.858Z</time></trkpt><trkpt lat="42.9729106" lon="11.8709875"><ele>538.0</ele><time>2026-04-26T13:05:11.858Z</time></trkpt><trkpt lat="42.9730393" lon="11.8708891"><ele>538.0</ele><time>2026-04-26T13:05:12.858Z</time></trkpt><trkpt lat="42.9731536" lon="11.8707609"><ele>538.0</ele><time>2026-04-26T13:05:13.857Z</time></trkpt><trkpt lat="42.9732607" lon="11.8706339"><ele>539.25</ele><time>2026-04-26T13:05:14.858Z</time></trkpt><trkpt lat="42.9733691" lon="11.8705118"><ele>540.5</ele><time>2026-04-26T13:05:15.858Z</time></trkpt><trkpt lat="42.9734737" lon="11.8703856"><ele>541.75</ele><time>2026-04-26T13:05:16.858Z</time></trkpt><trkpt lat="42.9735799" lon="11.8702694"><ele>543.0</ele><time>2026-04-26T13:05:17.858Z</time></trkpt><trkpt lat="42.9736882" lon="11.8701688"><ele>543.25</ele><time>2026-04-26T13:05:18.858Z</time></trkpt><trkpt lat="42.9738062" lon="11.8700798"><ele>543.5</ele><time>2026-04-26T13:05:19.858Z</time></trkpt><trkpt lat="42.9739334" lon="11.8699932"><ele>543.75</ele><time>2026-04-26T13:05:20.858Z</time></trkpt><trkpt lat="42.9740677" lon="11.8699126"><ele>544.0</ele><time>2026-04-26T13:05:21.858Z</time></trkpt><trkpt lat="42.9742076" lon="11.8698362"><ele>544.0</ele><time>2026-04-26T13:05:22.858Z</time></trkpt><trkpt lat="42.9743502" lon="11.8697713"><ele>544.0</ele><time>2026-04-26T13:05:23.858Z</time></trkpt><trkpt lat="42.9744956" lon="11.8697101"><ele>544.0</ele><time>2026-04-26T13:05:24.857Z</time></trkpt><trkpt lat="42.9746424" lon="11.869653"><ele>544.0</ele><time>2026-04-26T13:05:25.858Z</time></trkpt><trkpt lat="42.9747818" lon="11.8695952"><ele>544.0</ele><time>2026-04-26T13:05:26.858Z</time></trkpt><trkpt lat="42.974917" lon="11.8695397"><ele>544.0</ele><time>2026-04-26T13:05:27.858Z</time></trkpt><trkpt lat="42.9750391" lon="11.8694801"><ele>544.0</ele><time>2026-04-26T13:05:28.858Z</time></trkpt><trkpt lat="42.9751427" lon="11.8694112"><ele>544.6</ele><time>2026-04-26T13:05:29.858Z</time></trkpt><trkpt lat="42.9752316" lon="11.8693219"><ele>545.2</ele><time>2026-04-26T13:05:30.858Z</time></trkpt><trkpt lat="42.9753169" lon="11.8692296"><ele>545.8000000000001</ele><time>2026-04-26T13:05:31.857Z</time></trkpt><trkpt lat="42.9753997" lon="11.8691472"><ele>546.4</ele><time>2026-04-26T13:05:32.858Z</time></trkpt><trkpt lat="42.9754913" lon="11.8690817"><ele>547.0</ele><time>2026-04-26T13:05:33.858Z</time></trkpt><trkpt lat="42.9755998" lon="11.8690409"><ele>547.8000000000001</ele><time>2026-04-26T13:05:34.857Z</time></trkpt><trkpt lat="42.9757122" lon="11.8690268"><ele>548.6</ele><time>2026-04-26T13:05:35.858Z</time></trkpt><trkpt lat="42.9758185" lon="11.8690209"><ele>549.4000000000001</ele><time>2026-04-26T13:05:36.858Z</time></trkpt><trkpt lat="42.9759254" lon="11.8690224"><ele>550.2</ele><time>2026-04-26T13:05:37.858Z</time></trkpt><trkpt lat="42.9760358" lon="11.8690296"><ele>551.0</ele><time>2026-04-26T13:05:38.858Z</time></trkpt><trkpt lat="42.9761417" lon="11.8690451"><ele>551.0</ele><time>2026-04-26T13:05:39.858Z</time></trkpt><trkpt lat="42.9762491" lon="11.869087"><ele>551.0</ele><time>2026-04-26T13:05:40.858Z</time></trkpt><trkpt lat="42.9763474" lon="11.8691727"><ele>551.0</ele><time>2026-04-26T13:05:41.858Z</time></trkpt><trkpt lat="42.9764089" lon="11.8692963"><ele>551.0</ele><time>2026-04-26T13:05:42.857Z</time></trkpt><trkpt lat="42.9764676" lon="11.8694194"><ele>551.0</ele><time>2026-04-26T13:05:43.857Z</time></trkpt><trkpt lat="42.9765333" lon="11.8695452"><ele>550.5</ele><time>2026-04-26T13:05:44.858Z</time></trkpt><trkpt lat="42.9766077" lon="11.8696737"><ele>550.0</ele><time>2026-04-26T13:05:45.858Z</time></trkpt><trkpt lat="42.9766829" lon="11.8698035"><ele>549.5</ele><time>2026-04-26T13:05:46.858Z</time></trkpt><trkpt lat="42.9767699" lon="11.869929"><ele>549.0</ele><time>2026-04-26T13:05:47.858Z</time></trkpt><trkpt lat="42.9768756" lon="11.8700477"><ele>547.75</ele><time>2026-04-26T13:05:48.858Z</time></trkpt><trkpt lat="42.9769868" lon="11.8701631"><ele>546.5</ele><time>2026-04-26T13:05:49.858Z</time></trkpt><trkpt lat="42.9771006" lon="11.8702689"><ele>545.25</ele><time>2026-04-26T13:05:50.858Z</time></trkpt><trkpt lat="42.9772201" lon="11.8703683"><ele>544.0</ele><time>2026-04-26T13:05:51.858Z</time></trkpt><trkpt lat="42.977357" lon="11.8704471"><ele>544.0</ele><time>2026-04-26T13:05:52.857Z</time></trkpt><trkpt lat="42.9775041" lon="11.8704949"><ele>544.0</ele><time>2026-04-26T13:05:53.858Z</time></trkpt><trkpt lat="42.9776535" lon="11.8705165"><ele>544.0</ele><time>2026-04-26T13:05:54.858Z</time></trkpt><trkpt lat="42.9778089" lon="11.8705027"><ele>543.6666666666667</ele><time>2026-04-26T13:05:55.858Z</time></trkpt><trkpt lat="42.9779655" lon="11.8704893"><ele>543.3333333333334</ele><time>2026-04-26T13:05:56.857Z</time></trkpt><trkpt lat="42.978119" lon="11.8705141"><ele>543.0</ele><time>2026-04-26T13:05:57.857Z</time></trkpt><trkpt lat="42.9782676" lon="11.8705738"><ele>544.3333333333334</ele><time>2026-04-26T13:05:58.858Z</time></trkpt><trkpt lat="42.9784083" lon="11.870671"><ele>545.6666666666667</ele><time>2026-04-26T13:05:59.858Z</time></trkpt><trkpt lat="42.9785463" lon="11.8707826"><ele>547.0</ele><time>2026-04-26T13:06:00.858Z</time></trkpt><trkpt lat="42.978684" lon="11.8708914"><ele>545.3333333333334</ele><time>2026-04-26T13:06:01.857Z</time></trkpt><trkpt lat="42.9788248" lon="11.8709909"><ele>543.6666666666666</ele><time>2026-04-26T13:06:02.858Z</time></trkpt><trkpt lat="42.9789677" lon="11.8710709"><ele>542.0</ele><time>2026-04-26T13:06:03.858Z</time></trkpt><trkpt lat="42.9791133" lon="11.8711127"><ele>545.3333333333333</ele><time>2026-04-26T13:06:04.857Z</time></trkpt><trkpt lat="42.9792616" lon="11.871119"><ele>548.6666666666666</ele><time>2026-04-26T13:06:05.858Z</time></trkpt><trkpt lat="42.9794127" lon="11.8710878"><ele>552.0</ele><time>2026-04-26T13:06:06.858Z</time></trkpt><trkpt lat="42.9795569" lon="11.871033"><ele>552.0</ele><time>2026-04-26T13:06:07.858Z</time></trkpt><trkpt lat="42.9796921" lon="11.870961"><ele>552.0</ele><time>2026-04-26T13:06:08.858Z</time></trkpt><trkpt lat="42.9798186" lon="11.8708712"><ele>552.0</ele><time>2026-04-26T13:06:09.858Z</time></trkpt><trkpt lat="42.9799387" lon="11.8707737"><ele>552.0</ele><time>2026-04-26T13:06:10.858Z</time></trkpt><trkpt lat="42.9800496" lon="11.8706721"><ele>554.25</ele><time>2026-04-26T13:06:11.858Z</time></trkpt><trkpt lat="42.9801547" lon="11.870576"><ele>556.5</ele><time>2026-04-26T13:06:12.857Z</time></trkpt><trkpt lat="42.9802582" lon="11.8704956"><ele>558.75</ele><time>2026-04-26T13:06:13.858Z</time></trkpt><trkpt lat="42.9803588" lon="11.870441"><ele>561.0</ele><time>2026-04-26T13:06:14.858Z</time></trkpt><trkpt lat="42.9804622" lon="11.8703871"><ele>561.0</ele><time>2026-04-26T13:06:15.858Z</time></trkpt><trkpt lat="42.9805639" lon="11.8703179"><ele>561.0</ele><time>2026-04-26T13:06:16.858Z</time></trkpt><trkpt lat="42.9806582" lon="11.8702334"><ele>561.0</ele><time>2026-04-26T13:06:17.858Z</time></trkpt><trkpt lat="42.9807494" lon="11.8701415"><ele>561.0</ele><time>2026-04-26T13:06:18.858Z</time></trkpt><trkpt lat="42.9808414" lon="11.8700526"><ele>557.75</ele><time>2026-04-26T13:06:19.857Z</time></trkpt><trkpt lat="42.9809355" lon="11.8699706"><ele>554.5</ele><time>2026-04-26T13:06:20.857Z</time></trkpt><trkpt lat="42.9810345" lon="11.8698946"><ele>551.25</ele><time>2026-04-26T13:06:21.858Z</time></trkpt><trkpt lat="42.9811391" lon="11.8698248"><ele>548.0</ele><time>2026-04-26T13:06:22.858Z</time></trkpt><trkpt lat="42.9812483" lon="11.8697598"><ele>548.0</ele><time>2026-04-26T13:06:23.857Z</time></trkpt><trkpt lat="42.9813582" lon="11.8696941"><ele>548.0</ele><time>2026-04-26T13:06:24.858Z</time></trkpt><trkpt lat="42.9814814" lon="11.869628"><ele>548.0</ele><time>2026-04-26T13:06:25.858Z</time></trkpt><trkpt lat="42.981609" lon="11.8695716"><ele>548.0</ele><time>2026-04-26T13:06:26.858Z</time></trkpt><trkpt lat="42.9817395" lon="11.8695301"><ele>544.25</ele><time>2026-04-26T13:06:27.858Z</time></trkpt><trkpt lat="42.9818766" lon="11.8695012"><ele>540.5</ele><time>2026-04-26T13:06:28.857Z</time></trkpt><trkpt lat="42.9820165" lon="11.8694758"><ele>536.75</ele><time>2026-04-26T13:06:29.858Z</time></trkpt><trkpt lat="42.9821519" lon="11.8694589"><ele>533.0</ele><time>2026-04-26T13:06:30.857Z</time></trkpt><trkpt lat="42.9822766" lon="11.869447"><ele>533.0</ele><time>2026-04-26T13:06:31.858Z</time></trkpt><trkpt lat="42.982388" lon="11.8694423"><ele>533.0</ele><time>2026-04-26T13:06:32.858Z</time></trkpt><trkpt lat="42.9824809" lon="11.8694402"><ele>533.0</ele><time>2026-04-26T13:06:33.858Z</time></trkpt><trkpt lat="42.9825669" lon="11.8694425"><ele>533.0</ele><time>2026-04-26T13:06:34.858Z</time></trkpt><trkpt lat="42.9826368" lon="11.8694451"><ele>533.0</ele><time>2026-04-26T13:06:35.858Z</time></trkpt><trkpt lat="42.9827013" lon="11.8694386"><ele>533.0</ele><time>2026-04-26T13:06:36.857Z</time></trkpt><trkpt lat="42.9828052" lon="11.8694252"><ele>531.1999999999999</ele><time>2026-04-26T13:06:38.857Z</time></trkpt><trkpt lat="42.9829035" lon="11.8694523"><ele>529.4</ele><time>2026-04-26T13:06:40.858Z</time></trkpt><trkpt lat="42.9829666" lon="11.8695133"><ele>527.5999999999999</ele><time>2026-04-26T13:06:41.858Z</time></trkpt><trkpt lat="42.9830302" lon="11.8695965"><ele>525.8</ele><time>2026-04-26T13:06:42.858Z</time></trkpt><trkpt lat="42.9831053" lon="11.8696863"><ele>524.0</ele><time>2026-04-26T13:06:43.858Z</time></trkpt><trkpt lat="42.9831944" lon="11.8697723"><ele>524.0</ele><time>2026-04-26T13:06:44.857Z</time></trkpt><trkpt lat="42.9833033" lon="11.8698642"><ele>524.0</ele><time>2026-04-26T13:06:45.858Z</time></trkpt><trkpt lat="42.9834282" lon="11.8699528"><ele>524.0</ele><time>2026-04-26T13:06:46.858Z</time></trkpt><trkpt lat="42.9835611" lon="11.8700453"><ele>524.0</ele><time>2026-04-26T13:06:47.858Z</time></trkpt><trkpt lat="42.9837106" lon="11.8701369"><ele>523.6666666666666</ele><time>2026-04-26T13:06:48.857Z</time></trkpt><trkpt lat="42.9838646" lon="11.8702306"><ele>523.3333333333334</ele><time>2026-04-26T13:06:49.857Z</time></trkpt><trkpt lat="42.9840256" lon="11.8703104"><ele>523.0</ele><time>2026-04-26T13:06:50.858Z</time></trkpt><trkpt lat="42.9841951" lon="11.8703769"><ele>523.0</ele><time>2026-04-26T13:06:51.858Z</time></trkpt><trkpt lat="42.9843747" lon="11.870405"><ele>523.0</ele><time>2026-04-26T13:06:52.858Z</time></trkpt><trkpt lat="42.9845485" lon="11.8703961"><ele>523.0</ele><time>2026-04-26T13:06:53.858Z</time></trkpt><trkpt lat="42.9847211" lon="11.8703709"><ele>523.0</ele><time>2026-04-26T13:06:54.857Z</time></trkpt><trkpt lat="42.9848883" lon="11.8703456"><ele>523.0</ele><time>2026-04-26T13:06:55.858Z</time></trkpt><trkpt lat="42.9850543" lon="11.8703293"><ele>523.0</ele><time>2026-04-26T13:06:56.858Z</time></trkpt><trkpt lat="42.9852143" lon="11.8703141"><ele>522.25</ele><time>2026-04-26T13:06:57.858Z</time></trkpt><trkpt lat="42.9853657" lon="11.8703012"><ele>521.5</ele><time>2026-04-26T13:06:58.858Z</time></trkpt><trkpt lat="42.9855115" lon="11.8702851"><ele>520.75</ele><time>2026-04-26T13:06:59.858Z</time></trkpt><trkpt lat="42.9856546" lon="11.8702707"><ele>520.0</ele><time>2026-04-26T13:07:00.858Z</time></trkpt><trkpt lat="42.9857955" lon="11.8702544"><ele>520.25</ele><time>2026-04-26T13:07:01.858Z</time></trkpt><trkpt lat="42.9859344" lon="11.8702421"><ele>520.5</ele><time>2026-04-26T13:07:02.858Z</time></trkpt><trkpt lat="42.9860688" lon="11.8702375"><ele>520.75</ele><time>2026-04-26T13:07:03.857Z</time></trkpt><trkpt lat="42.9861974" lon="11.8702281"><ele>521.0</ele><time>2026-04-26T13:07:04.858Z</time></trkpt><trkpt lat="42.9863222" lon="11.8702207"><ele>521.0</ele><time>2026-04-26T13:07:05.858Z</time></trkpt><trkpt lat="42.9864411" lon="11.8702166"><ele>521.0</ele><time>2026-04-26T13:07:06.858Z</time></trkpt><trkpt lat="42.9865491" lon="11.8702154"><ele>521.0</ele><time>2026-04-26T13:07:07.858Z</time></trkpt><trkpt lat="42.9866477" lon="11.8702172"><ele>521.0</ele><time>2026-04-26T13:07:08.857Z</time></trkpt><trkpt lat="42.9867428" lon="11.8702213"><ele>521.0</ele><time>2026-04-26T13:07:09.858Z</time></trkpt><trkpt lat="42.9868416" lon="11.8702186"><ele>521.2</ele><time>2026-04-26T13:07:10.857Z</time></trkpt><trkpt lat="42.9869355" lon="11.8702176"><ele>521.4000000000001</ele><time>2026-04-26T13:07:11.858Z</time></trkpt><trkpt lat="42.9870322" lon="11.870215"><ele>521.6</ele><time>2026-04-26T13:07:12.858Z</time></trkpt><trkpt lat="42.9871284" lon="11.8702177"><ele>521.8000000000001</ele><time>2026-04-26T13:07:13.858Z</time></trkpt><trkpt lat="42.9872265" lon="11.8702126"><ele>522.0</ele><time>2026-04-26T13:07:14.858Z</time></trkpt><trkpt lat="42.98732" lon="11.8701997"><ele>522.0</ele><time>2026-04-26T13:07:15.858Z</time></trkpt><trkpt lat="42.9874136" lon="11.8701781"><ele>522.0</ele><time>2026-04-26T13:07:16.858Z</time></trkpt><trkpt lat="42.9874945" lon="11.8701552"><ele>522.0</ele><time>2026-04-26T13:07:17.858Z</time></trkpt><trkpt lat="42.9875566" lon="11.870132"><ele>522.0</ele><time>2026-04-26T13:07:18.858Z</time></trkpt><trkpt lat="42.9876255" lon="11.8701105"><ele>522.0</ele><time>2026-04-26T13:07:24.858Z</time></trkpt><trkpt lat="42.9876887" lon="11.870113"><ele>522.0</ele><time>2026-04-26T13:07:26.858Z</time></trkpt><trkpt lat="42.9877534" lon="11.87011"><ele>522.0</ele><time>2026-04-26T13:07:27.858Z</time></trkpt><trkpt lat="42.9878218" lon="11.8700959"><ele>522.6666666666666</ele><time>2026-04-26T13:07:28.858Z</time></trkpt><trkpt lat="42.9878974" lon="11.8700825"><ele>523.3333333333334</ele><time>2026-04-26T13:07:29.858Z</time></trkpt><trkpt lat="42.9879712" lon="11.8700711"><ele>524.0</ele><time>2026-04-26T13:07:30.858Z</time></trkpt><trkpt lat="42.9880487" lon="11.8700727"><ele>524.6666666666667</ele><time>2026-04-26T13:07:31.858Z</time></trkpt><trkpt lat="42.9881338" lon="11.8700809"><ele>525.3333333333334</ele><time>2026-04-26T13:07:32.858Z</time></trkpt><trkpt lat="42.9882209" lon="11.8700873"><ele>526.0</ele><time>2026-04-26T13:07:33.858Z</time></trkpt><trkpt lat="42.9883117" lon="11.8700826"><ele>527.0</ele><time>2026-04-26T13:07:34.858Z</time></trkpt><trkpt lat="42.9883989" lon="11.8700648"><ele>528.0</ele><time>2026-04-26T13:07:35.857Z</time></trkpt><trkpt lat="42.9884785" lon="11.8700458"><ele>529.0</ele><time>2026-04-26T13:07:36.858Z</time></trkpt><trkpt lat="42.9885522" lon="11.8700351"><ele>530.0</ele><time>2026-04-26T13:07:37.858Z</time></trkpt><trkpt lat="42.9886221" lon="11.8700419"><ele>531.0</ele><time>2026-04-26T13:07:38.858Z</time></trkpt><trkpt lat="42.9886957" lon="11.8700556"><ele>532.0</ele><time>2026-04-26T13:07:39.857Z</time></trkpt><trkpt lat="42.9887679" lon="11.8700573"><ele>532.0</ele><time>2026-04-26T13:07:40.857Z</time></trkpt><trkpt lat="42.9888406" lon="11.8700474"><ele>532.0</ele><time>2026-04-26T13:07:41.858Z</time></trkpt><trkpt lat="42.9889107" lon="11.8700323"><ele>532.0</ele><time>2026-04-26T13:07:42.857Z</time></trkpt><trkpt lat="42.9890219" lon="11.8700059"><ele>532.0</ele><time>2026-04-26T13:07:44.858Z</time></trkpt><trkpt lat="42.9890948" lon="11.8699912"><ele>532.0</ele><time>2026-04-26T13:07:46.857Z</time></trkpt><trkpt lat="42.9891749" lon="11.8699929"><ele>532.0</ele><time>2026-04-26T13:07:49.856Z</time></trkpt><trkpt lat="42.9892721" lon="11.8699664"><ele>534.0</ele><time>2026-04-26T13:07:52.857Z</time></trkpt><trkpt lat="42.9893456" lon="11.8698579"><ele>536.0</ele><time>2026-04-26T13:07:54.857Z</time></trkpt><trkpt lat="42.9893592" lon="11.8696709"><ele>538.0</ele><time>2026-04-26T13:07:56.857Z</time></trkpt><trkpt lat="42.9893584" lon="11.8695671"><ele>540.0</ele><time>2026-04-26T13:07:57.857Z</time></trkpt><trkpt lat="42.9893638" lon="11.869458"><ele>542.0</ele><time>2026-04-26T13:07:58.857Z</time></trkpt><trkpt lat="42.989367" lon="11.8693459"><ele>542.4</ele><time>2026-04-26T13:07:59.857Z</time></trkpt><trkpt lat="42.9893676" lon="11.869221"><ele>542.8000000000001</ele><time>2026-04-26T13:08:00.856Z</time></trkpt><trkpt lat="42.9893633" lon="11.8690896"><ele>543.2</ele><time>2026-04-26T13:08:01.856Z</time></trkpt><trkpt lat="42.9893549" lon="11.8689569"><ele>543.6</ele><time>2026-04-26T13:08:02.857Z</time></trkpt><trkpt lat="42.9893424" lon="11.8688219"><ele>544.0</ele><time>2026-04-26T13:08:03.857Z</time></trkpt><trkpt lat="42.9893237" lon="11.8686798"><ele>544.0</ele><time>2026-04-26T13:08:04.856Z</time></trkpt><trkpt lat="42.9893051" lon="11.8685279"><ele>544.0</ele><time>2026-04-26T13:08:05.857Z</time></trkpt><trkpt lat="42.9892877" lon="11.8683702"><ele>544.0</ele><time>2026-04-26T13:08:06.856Z</time></trkpt><trkpt lat="42.9892668" lon="11.8682096"><ele>544.0</ele><time>2026-04-26T13:08:07.857Z</time></trkpt><trkpt lat="42.9892386" lon="11.8680509"><ele>545.25</ele><time>2026-04-26T13:08:08.857Z</time></trkpt><trkpt lat="42.9892124" lon="11.867892"><ele>546.5</ele><time>2026-04-26T13:08:09.856Z</time></trkpt><trkpt lat="42.989187" lon="11.8677297"><ele>547.75</ele><time>2026-04-26T13:08:10.857Z</time></trkpt><trkpt lat="42.9891627" lon="11.8675742"><ele>549.0</ele><time>2026-04-26T13:08:11.857Z</time></trkpt><trkpt lat="42.9891422" lon="11.8674203"><ele>549.4</ele><time>2026-04-26T13:08:12.857Z</time></trkpt><trkpt lat="42.9891223" lon="11.8672625"><ele>549.8</ele><time>2026-04-26T13:08:13.857Z</time></trkpt><trkpt lat="42.9891155" lon="11.8671178"><ele>550.2</ele><time>2026-04-26T13:08:14.857Z</time></trkpt><trkpt lat="42.9891261" lon="11.8669789"><ele>550.6</ele><time>2026-04-26T13:08:15.857Z</time></trkpt><trkpt lat="42.9891536" lon="11.8668488"><ele>551.0</ele><time>2026-04-26T13:08:16.857Z</time></trkpt><trkpt lat="42.9891888" lon="11.866716"><ele>551.0</ele><time>2026-04-26T13:08:17.857Z</time></trkpt><trkpt lat="42.9892353" lon="11.8665878"><ele>551.0</ele><time>2026-04-26T13:08:18.857Z</time></trkpt><trkpt lat="42.9892848" lon="11.8664489"><ele>551.0</ele><time>2026-04-26T13:08:19.857Z</time></trkpt><trkpt lat="42.9893467" lon="11.8663038"><ele>551.0</ele><time>2026-04-26T13:08:20.857Z</time></trkpt><trkpt lat="42.9894087" lon="11.8661513"><ele>551.0</ele><time>2026-04-26T13:08:21.857Z</time></trkpt><trkpt lat="42.9894672" lon="11.8660007"><ele>551.0</ele><time>2026-04-26T13:08:22.857Z</time></trkpt><trkpt lat="42.9895277" lon="11.8658531"><ele>551.0</ele><time>2026-04-26T13:08:23.857Z</time></trkpt><trkpt lat="42.9895901" lon="11.8657095"><ele>551.0</ele><time>2026-04-26T13:08:24.857Z</time></trkpt><trkpt lat="42.9896528" lon="11.8655707"><ele>549.25</ele><time>2026-04-26T13:08:25.857Z</time></trkpt><trkpt lat="42.989733" lon="11.8654401"><ele>547.5</ele><time>2026-04-26T13:08:26.856Z</time></trkpt><trkpt lat="42.9898368" lon="11.865337"><ele>545.75</ele><time>2026-04-26T13:08:27.856Z</time></trkpt><trkpt lat="42.9899504" lon="11.8652415"><ele>544.0</ele><time>2026-04-26T13:08:28.857Z</time></trkpt><trkpt lat="42.9900606" lon="11.8651479"><ele>542.0</ele><time>2026-04-26T13:08:29.856Z</time></trkpt><trkpt lat="42.9901725" lon="11.8650457"><ele>540.0</ele><time>2026-04-26T13:08:30.857Z</time></trkpt><trkpt lat="42.990284" lon="11.8649332"><ele>538.0</ele><time>2026-04-26T13:08:31.857Z</time></trkpt><trkpt lat="42.990393" lon="11.8648087"><ele>536.0</ele><time>2026-04-26T13:08:32.857Z</time></trkpt><trkpt lat="42.9905043" lon="11.864673"><ele>536.0</ele><time>2026-04-26T13:08:33.856Z</time></trkpt><trkpt lat="42.9906198" lon="11.864546"><ele>536.0</ele><time>2026-04-26T13:08:34.857Z</time></trkpt><trkpt lat="42.9907309" lon="11.8644198"><ele>536.0</ele><time>2026-04-26T13:08:35.856Z</time></trkpt><trkpt lat="42.9908353" lon="11.8643014"><ele>536.0</ele><time>2026-04-26T13:08:36.857Z</time></trkpt><trkpt lat="42.9909374" lon="11.8641908"><ele>535.25</ele><time>2026-04-26T13:08:37.857Z</time></trkpt><trkpt lat="42.9910418" lon="11.8640955"><ele>534.5</ele><time>2026-04-26T13:08:38.857Z</time></trkpt><trkpt lat="42.991148" lon="11.8640208"><ele>533.75</ele><time>2026-04-26T13:08:39.857Z</time></trkpt><trkpt lat="42.9912567" lon="11.8639903"><ele>533.0</ele><time>2026-04-26T13:08:40.857Z</time></trkpt><trkpt lat="42.9913754" lon="11.8640619"><ele>533.0</ele><time>2026-04-26T13:08:41.857Z</time></trkpt><trkpt lat="42.9915039" lon="11.8641683"><ele>533.0</ele><time>2026-04-26T13:08:42.857Z</time></trkpt><trkpt lat="42.9916235" lon="11.8642848"><ele>533.0</ele><time>2026-04-26T13:08:43.857Z</time></trkpt><trkpt lat="42.9917502" lon="11.8643815"><ele>533.0</ele><time>2026-04-26T13:08:44.857Z</time></trkpt><trkpt lat="42.991874" lon="11.8644605"><ele>531.5</ele><time>2026-04-26T13:08:45.857Z</time></trkpt><trkpt lat="42.9919998" lon="11.8645071"><ele>530.0</ele><time>2026-04-26T13:08:46.857Z</time></trkpt><trkpt lat="42.9921286" lon="11.8644963"><ele>528.5</ele><time>2026-04-26T13:08:47.857Z</time></trkpt><trkpt lat="42.9922556" lon="11.8644429"><ele>527.0</ele><time>2026-04-26T13:08:48.857Z</time></trkpt><trkpt lat="42.9923833" lon="11.8643607"><ele>527.25</ele><time>2026-04-26T13:08:49.857Z</time></trkpt><trkpt lat="42.9925104" lon="11.8642752"><ele>527.5</ele><time>2026-04-26T13:08:50.856Z</time></trkpt><trkpt lat="42.9926433" lon="11.8641901"><ele>527.75</ele><time>2026-04-26T13:08:51.857Z</time></trkpt><trkpt lat="42.9927835" lon="11.8640977"><ele>528.0</ele><time>2026-04-26T13:08:52.857Z</time></trkpt><trkpt lat="42.9929317" lon="11.8640016"><ele>528.0</ele><time>2026-04-26T13:08:53.857Z</time></trkpt><trkpt lat="42.9930786" lon="11.8639105"><ele>528.0</ele><time>2026-04-26T13:08:54.857Z</time></trkpt><trkpt lat="42.9932214" lon="11.8638139"><ele>528.0</ele><time>2026-04-26T13:08:55.857Z</time></trkpt><trkpt lat="42.9933715" lon="11.8637172"><ele>528.0</ele><time>2026-04-26T13:08:56.857Z</time></trkpt><trkpt lat="42.9935233" lon="11.86362"><ele>528.0</ele><time>2026-04-26T13:08:57.857Z</time></trkpt><trkpt lat="42.9936541" lon="11.8635403"><ele>528.0</ele><time>2026-04-26T13:08:58.857Z</time></trkpt><trkpt lat="42.9937689" lon="11.8634615"><ele>528.0</ele><time>2026-04-26T13:08:59.857Z</time></trkpt><trkpt lat="42.9938737" lon="11.8633982"><ele>527.8</ele><time>2026-04-26T13:09:00.857Z</time></trkpt><trkpt lat="42.9939638" lon="11.8633348"><ele>527.5999999999999</ele><time>2026-04-26T13:09:01.857Z</time></trkpt><trkpt lat="42.9940561" lon="11.8632744"><ele>527.4000000000001</ele><time>2026-04-26T13:09:02.857Z</time></trkpt><trkpt lat="42.9941474" lon="11.8632146"><ele>527.2</ele><time>2026-04-26T13:09:03.857Z</time></trkpt><trkpt lat="42.9942431" lon="11.8631524"><ele>527.0</ele><time>2026-04-26T13:09:04.857Z</time></trkpt><trkpt lat="42.9943459" lon="11.8630871"><ele>527.5</ele><time>2026-04-26T13:09:05.857Z</time></trkpt><trkpt lat="42.9944647" lon="11.8630105"><ele>528.0</ele><time>2026-04-26T13:09:06.856Z</time></trkpt><trkpt lat="42.9946019" lon="11.862914"><ele>528.5</ele><time>2026-04-26T13:09:07.857Z</time></trkpt><trkpt lat="42.9947448" lon="11.862827"><ele>529.0</ele><time>2026-04-26T13:09:08.857Z</time></trkpt><trkpt lat="42.994886" lon="11.8627403"><ele>528.3333333333334</ele><time>2026-04-26T13:09:09.856Z</time></trkpt><trkpt lat="42.9950248" lon="11.862651"><ele>527.6666666666666</ele><time>2026-04-26T13:09:10.857Z</time></trkpt><trkpt lat="42.9951627" lon="11.8625618"><ele>527.0</ele><time>2026-04-26T13:09:11.857Z</time></trkpt><trkpt lat="42.9952957" lon="11.8624773"><ele>526.75</ele><time>2026-04-26T13:09:12.857Z</time></trkpt><trkpt lat="42.9954258" lon="11.8623893"><ele>526.5</ele><time>2026-04-26T13:09:13.857Z</time></trkpt><trkpt lat="42.9955567" lon="11.862308"><ele>526.25</ele><time>2026-04-26T13:09:14.857Z</time></trkpt><trkpt lat="42.9956883" lon="11.8622316"><ele>526.0</ele><time>2026-04-26T13:09:15.857Z</time></trkpt><trkpt lat="42.9958097" lon="11.8621562"><ele>526.5</ele><time>2026-04-26T13:09:16.856Z</time></trkpt><trkpt lat="42.9959307" lon="11.8620879"><ele>527.0</ele><time>2026-04-26T13:09:17.857Z</time></trkpt><trkpt lat="42.996045" lon="11.8620125"><ele>527.5</ele><time>2026-04-26T13:09:18.856Z</time></trkpt><trkpt lat="42.9961675" lon="11.8619369"><ele>528.0</ele><time>2026-04-26T13:09:19.857Z</time></trkpt><trkpt lat="42.9962947" lon="11.8618581"><ele>527.3333333333334</ele><time>2026-04-26T13:09:20.857Z</time></trkpt><trkpt lat="42.9964309" lon="11.8617746"><ele>526.6666666666667</ele><time>2026-04-26T13:09:21.857Z</time></trkpt><trkpt lat="42.9965738" lon="11.8616831"><ele>526.0</ele><time>2026-04-26T13:09:22.856Z</time></trkpt><trkpt lat="42.9967228" lon="11.8615866"><ele>526.0</ele><time>2026-04-26T13:09:23.857Z</time></trkpt><trkpt lat="42.9968755" lon="11.8614911"><ele>526.0</ele><time>2026-04-26T13:09:24.857Z</time></trkpt><trkpt lat="42.9970352" lon="11.861395"><ele>526.0</ele><time>2026-04-26T13:09:25.857Z</time></trkpt><trkpt lat="42.9971966" lon="11.8612959"><ele>526.0</ele><time>2026-04-26T13:09:26.857Z</time></trkpt><trkpt lat="42.9973608" lon="11.8611904"><ele>526.0</ele><time>2026-04-26T13:09:27.857Z</time></trkpt><trkpt lat="42.9975265" lon="11.8610822"><ele>526.0</ele><time>2026-04-26T13:09:28.857Z</time></trkpt><trkpt lat="42.9976925" lon="11.8609744"><ele>526.6666666666667</ele><time>2026-04-26T13:09:29.857Z</time></trkpt><trkpt lat="42.9978506" lon="11.860872"><ele>527.3333333333334</ele><time>2026-04-26T13:09:30.857Z</time></trkpt><trkpt lat="42.9979987" lon="11.860771"><ele>528.0</ele><time>2026-04-26T13:09:31.857Z</time></trkpt><trkpt lat="42.9981402" lon="11.8606666"><ele>528.0</ele><time>2026-04-26T13:09:32.857Z</time></trkpt><trkpt lat="42.9982708" lon="11.8605398"><ele>528.0</ele><time>2026-04-26T13:09:33.856Z</time></trkpt><trkpt lat="42.9983878" lon="11.860379"><ele>528.0</ele><time>2026-04-26T13:09:34.856Z</time></trkpt><trkpt lat="42.9984775" lon="11.8601825"><ele>527.3333333333334</ele><time>2026-04-26T13:09:35.857Z</time></trkpt><trkpt lat="42.9985358" lon="11.8599643"><ele>526.6666666666667</ele><time>2026-04-26T13:09:36.857Z</time></trkpt><trkpt lat="42.9985594" lon="11.8597286"><ele>526.0</ele><time>2026-04-26T13:09:37.857Z</time></trkpt><trkpt lat="42.9985542" lon="11.8594815"><ele>526.3333333333334</ele><time>2026-04-26T13:09:38.857Z</time></trkpt><trkpt lat="42.9985208" lon="11.8592254"><ele>526.6666666666666</ele><time>2026-04-26T13:09:39.857Z</time></trkpt><trkpt lat="42.9984776" lon="11.8589729"><ele>527.0</ele><time>2026-04-26T13:09:40.857Z</time></trkpt><trkpt lat="42.9984244" lon="11.8587135"><ele>527.0</ele><time>2026-04-26T13:09:41.857Z</time></trkpt><trkpt lat="42.9983637" lon="11.8584578"><ele>527.0</ele><time>2026-04-26T13:09:42.856Z</time></trkpt><trkpt lat="42.9982998" lon="11.8582075"><ele>527.0</ele><time>2026-04-26T13:09:43.857Z</time></trkpt><trkpt lat="42.9982376" lon="11.8579651"><ele>531.0</ele><time>2026-04-26T13:09:44.857Z</time></trkpt><trkpt lat="42.9981794" lon="11.8577353"><ele>535.0</ele><time>2026-04-26T13:09:45.857Z</time></trkpt><trkpt lat="42.9981249" lon="11.8575229"><ele>539.0</ele><time>2026-04-26T13:09:46.857Z</time></trkpt><trkpt lat="42.998071" lon="11.8573189"><ele>539.5</ele><time>2026-04-26T13:09:47.857Z</time></trkpt><trkpt lat="42.9980275" lon="11.8571157"><ele>540.0</ele><time>2026-04-26T13:09:48.857Z</time></trkpt><trkpt lat="42.9980019" lon="11.8569197"><ele>540.5</ele><time>2026-04-26T13:09:49.856Z</time></trkpt><trkpt lat="42.997994" lon="11.8567231"><ele>541.0</ele><time>2026-04-26T13:09:50.857Z</time></trkpt><trkpt lat="42.9980137" lon="11.8565229"><ele>542.5</ele><time>2026-04-26T13:09:51.856Z</time></trkpt><trkpt lat="42.9980768" lon="11.8563387"><ele>544.0</ele><time>2026-04-26T13:09:52.857Z</time></trkpt><trkpt lat="42.9981701" lon="11.8561828"><ele>545.5</ele><time>2026-04-26T13:09:53.857Z</time></trkpt><trkpt lat="42.99828" lon="11.8560583"><ele>547.0</ele><time>2026-04-26T13:09:54.857Z</time></trkpt><trkpt lat="42.9983776" lon="11.8559476"><ele>547.25</ele><time>2026-04-26T13:09:55.857Z</time></trkpt><trkpt lat="42.9984744" lon="11.8558408"><ele>547.5</ele><time>2026-04-26T13:09:56.857Z</time></trkpt><trkpt lat="42.9985648" lon="11.8557368"><ele>547.75</ele><time>2026-04-26T13:09:57.857Z</time></trkpt><trkpt lat="42.9986597" lon="11.8556552"><ele>548.0</ele><time>2026-04-26T13:09:58.856Z</time></trkpt><trkpt lat="42.9987549" lon="11.8555979"><ele>548.0</ele><time>2026-04-26T13:09:59.857Z</time></trkpt><trkpt lat="42.9988484" lon="11.8555516"><ele>548.0</ele><time>2026-04-26T13:10:00.857Z</time></trkpt><trkpt lat="42.9989403" lon="11.8555014"><ele>548.0</ele><time>2026-04-26T13:10:01.857Z</time></trkpt><trkpt lat="42.9990414" lon="11.8554372"><ele>548.0</ele><time>2026-04-26T13:10:02.856Z</time></trkpt><trkpt lat="42.9991385" lon="11.8553672"><ele>548.0</ele><time>2026-04-26T13:10:03.857Z</time></trkpt><trkpt lat="42.9992432" lon="11.8553012"><ele>546.75</ele><time>2026-04-26T13:10:04.857Z</time></trkpt><trkpt lat="42.9993508" lon="11.855235"><ele>545.5</ele><time>2026-04-26T13:10:05.857Z</time></trkpt><trkpt lat="42.9994576" lon="11.8551727"><ele>544.25</ele><time>2026-04-26T13:10:06.857Z</time></trkpt><trkpt lat="42.9995695" lon="11.8551129"><ele>543.0</ele><time>2026-04-26T13:10:07.857Z</time></trkpt><trkpt lat="42.9996818" lon="11.8550478"><ele>543.0</ele><time>2026-04-26T13:10:08.856Z</time></trkpt><trkpt lat="42.9997946" lon="11.8549756"><ele>543.0</ele><time>2026-04-26T13:10:09.857Z</time></trkpt><trkpt lat="42.9999043" lon="11.8549074"><ele>543.0</ele><time>2026-04-26T13:10:10.856Z</time></trkpt><trkpt lat="43.0000119" lon="11.8548501"><ele>543.0</ele><time>2026-04-26T13:10:11.856Z</time></trkpt><trkpt lat="43.0001081" lon="11.8547915"><ele>543.0</ele><time>2026-04-26T13:10:12.857Z</time></trkpt><trkpt lat="43.000203" lon="11.8547254"><ele>543.0</ele><time>2026-04-26T13:10:13.856Z</time></trkpt><trkpt lat="43.0002855" lon="11.8546453"><ele>543.0</ele><time>2026-04-26T13:10:14.857Z</time></trkpt><trkpt lat="43.000359" lon="11.8545419"><ele>543.0</ele><time>2026-04-26T13:10:15.857Z</time></trkpt><trkpt lat="43.0004177" lon="11.8544229"><ele>543.0</ele><time>2026-04-26T13:10:16.857Z</time></trkpt><trkpt lat="43.0004677" lon="11.8543014"><ele>543.8</ele><time>2026-04-26T13:10:17.857Z</time></trkpt><trkpt lat="43.0005179" lon="11.8541791"><ele>544.5999999999999</ele><time>2026-04-26T13:10:18.857Z</time></trkpt><trkpt lat="43.0005668" lon="11.8540652"><ele>545.4000000000001</ele><time>2026-04-26T13:10:19.857Z</time></trkpt><trkpt lat="43.0006179" lon="11.8539509"><ele>546.2</ele><time>2026-04-26T13:10:20.857Z</time></trkpt><trkpt lat="43.0006832" lon="11.8538445"><ele>547.0</ele><time>2026-04-26T13:10:21.856Z</time></trkpt><trkpt lat="43.0007734" lon="11.8537654"><ele>543.5</ele><time>2026-04-26T13:10:22.857Z</time></trkpt><trkpt lat="43.0008731" lon="11.8537139"><ele>540.0</ele><time>2026-04-26T13:10:23.857Z</time></trkpt><trkpt lat="43.0009987" lon="11.8536985"><ele>536.5</ele><time>2026-04-26T13:10:24.857Z</time></trkpt><trkpt lat="43.0011347" lon="11.8536981"><ele>533.0</ele><time>2026-04-26T13:10:25.856Z</time></trkpt><trkpt lat="43.0012671" lon="11.8536916"><ele>533.0</ele><time>2026-04-26T13:10:26.857Z</time></trkpt><trkpt lat="43.0014009" lon="11.8536884"><ele>533.0</ele><time>2026-04-26T13:10:27.856Z</time></trkpt><trkpt lat="43.0015288" lon="11.8536824"><ele>533.0</ele><time>2026-04-26T13:10:28.856Z</time></trkpt><trkpt lat="43.0016569" lon="11.8536699"><ele>533.0</ele><time>2026-04-26T13:10:29.857Z</time></trkpt><trkpt lat="43.0017876" lon="11.8536609"><ele>531.25</ele><time>2026-04-26T13:10:30.857Z</time></trkpt><trkpt lat="43.0019242" lon="11.8536544"><ele>529.5</ele><time>2026-04-26T13:10:31.857Z</time></trkpt><trkpt lat="43.0020624" lon="11.8536491"><ele>527.75</ele><time>2026-04-26T13:10:32.857Z</time></trkpt><trkpt lat="43.0021943" lon="11.8536461"><ele>526.0</ele><time>2026-04-26T13:10:33.857Z</time></trkpt><trkpt lat="43.0023273" lon="11.8536378"><ele>526.0</ele><time>2026-04-26T13:10:34.856Z</time></trkpt><trkpt lat="43.0024548" lon="11.8536246"><ele>526.0</ele><time>2026-04-26T13:10:35.857Z</time></trkpt><trkpt lat="43.0025695" lon="11.8535876"><ele>526.0</ele><time>2026-04-26T13:10:36.856Z</time></trkpt><trkpt lat="43.0026758" lon="11.8535109"><ele>526.0</ele><time>2026-04-26T13:10:37.856Z</time></trkpt><trkpt lat="43.002774" lon="11.8534174"><ele>524.75</ele><time>2026-04-26T13:10:38.857Z</time></trkpt><trkpt lat="43.0028625" lon="11.8533166"><ele>523.5</ele><time>2026-04-26T13:10:39.857Z</time></trkpt><trkpt lat="43.0029544" lon="11.8532246"><ele>522.25</ele><time>2026-04-26T13:10:40.857Z</time></trkpt><trkpt lat="43.003053" lon="11.8531376"><ele>521.0</ele><time>2026-04-26T13:10:41.857Z</time></trkpt><trkpt lat="43.0031614" lon="11.8530675"><ele>521.0</ele><time>2026-04-26T13:10:42.856Z</time></trkpt><trkpt lat="43.0032818" lon="11.8530022"><ele>521.0</ele><time>2026-04-26T13:10:43.857Z</time></trkpt><trkpt lat="43.0034035" lon="11.8529494"><ele>521.0</ele><time>2026-04-26T13:10:44.856Z</time></trkpt><trkpt lat="43.0035281" lon="11.8528987"><ele>521.0</ele><time>2026-04-26T13:10:45.857Z</time></trkpt><trkpt lat="43.0036492" lon="11.8528455"><ele>519.25</ele><time>2026-04-26T13:10:46.856Z</time></trkpt><trkpt lat="43.0037675" lon="11.8527932"><ele>517.5</ele><time>2026-04-26T13:10:47.856Z</time></trkpt><trkpt lat="43.0038878" lon="11.8527392"><ele>515.75</ele><time>2026-04-26T13:10:48.857Z</time></trkpt><trkpt lat="43.0040082" lon="11.8526928"><ele>514.0</ele><time>2026-04-26T13:10:49.857Z</time></trkpt><trkpt lat="43.0041252" lon="11.8526427"><ele>513.75</ele><time>2026-04-26T13:10:50.857Z</time></trkpt><trkpt lat="43.0042413" lon="11.8525852"><ele>513.5</ele><time>2026-04-26T13:10:51.857Z</time></trkpt><trkpt lat="43.0043526" lon="11.8525132"><ele>513.25</ele><time>2026-04-26T13:10:52.857Z</time></trkpt><trkpt lat="43.0044634" lon="11.8524174"><ele>513.0</ele><time>2026-04-26T13:10:53.857Z</time></trkpt><trkpt lat="43.0045654" lon="11.8522706"><ele>513.0</ele><time>2026-04-26T13:10:54.856Z</time></trkpt><trkpt lat="43.0046637" lon="11.852101"><ele>513.0</ele><time>2026-04-26T13:10:55.857Z</time></trkpt><trkpt lat="43.0047777" lon="11.8519257"><ele>513.0</ele><time>2026-04-26T13:10:56.857Z</time></trkpt><trkpt lat="43.004903" lon="11.8517565"><ele>511.0</ele><time>2026-04-26T13:10:57.856Z</time></trkpt><trkpt lat="43.0050376" lon="11.8515758"><ele>509.0</ele><time>2026-04-26T13:10:58.857Z</time></trkpt><trkpt lat="43.0051782" lon="11.8513758"><ele>507.0</ele><time>2026-04-26T13:10:59.857Z</time></trkpt><trkpt lat="43.0053219" lon="11.8511792"><ele>507.0</ele><time>2026-04-26T13:11:00.857Z</time></trkpt><trkpt lat="43.0054716" lon="11.8509894"><ele>507.0</ele><time>2026-04-26T13:11:01.857Z</time></trkpt><trkpt lat="43.0056202" lon="11.8507939"><ele>507.0</ele><time>2026-04-26T13:11:02.857Z</time></trkpt><trkpt lat="43.0057647" lon="11.8505891"><ele>508.66666666666663</ele><time>2026-04-26T13:11:03.857Z</time></trkpt><trkpt lat="43.005911" lon="11.8503835"><ele>510.3333333333333</ele><time>2026-04-26T13:11:04.857Z</time></trkpt><trkpt lat="43.0060617" lon="11.8501826"><ele>512.0</ele><time>2026-04-26T13:11:05.857Z</time></trkpt><trkpt lat="43.0062098" lon="11.8499784"><ele>513.0</ele><time>2026-04-26T13:11:06.856Z</time></trkpt><trkpt lat="43.0063614" lon="11.8497771"><ele>514.0</ele><time>2026-04-26T13:11:07.857Z</time></trkpt><trkpt lat="43.0065111" lon="11.8495758"><ele>515.0</ele><time>2026-04-26T13:11:08.857Z</time></trkpt><trkpt lat="43.0066582" lon="11.8493697"><ele>515.6666666666666</ele><time>2026-04-26T13:11:09.857Z</time></trkpt><trkpt lat="43.006803" lon="11.8491664"><ele>516.3333333333334</ele><time>2026-04-26T13:11:10.857Z</time></trkpt><trkpt lat="43.0069501" lon="11.8489656"><ele>517.0</ele><time>2026-04-26T13:11:11.857Z</time></trkpt><trkpt lat="43.0070952" lon="11.848767"><ele>517.0</ele><time>2026-04-26T13:11:12.857Z</time></trkpt><trkpt lat="43.007236" lon="11.8485665"><ele>517.0</ele><time>2026-04-26T13:11:13.857Z</time></trkpt><trkpt lat="43.0073712" lon="11.8483596"><ele>517.0</ele><time>2026-04-26T13:11:14.857Z</time></trkpt><trkpt lat="43.0075018" lon="11.8481387"><ele>516.6666666666667</ele><time>2026-04-26T13:11:15.856Z</time></trkpt><trkpt lat="43.0076242" lon="11.8478995"><ele>516.3333333333334</ele><time>2026-04-26T13:11:16.857Z</time></trkpt><trkpt lat="43.0077436" lon="11.8476474"><ele>516.0</ele><time>2026-04-26T13:11:17.856Z</time></trkpt><trkpt lat="43.0078669" lon="11.8473923"><ele>517.5</ele><time>2026-04-26T13:11:18.857Z</time></trkpt><trkpt lat="43.0079936" lon="11.8471312"><ele>519.0</ele><time>2026-04-26T13:11:19.856Z</time></trkpt><trkpt lat="43.0081221" lon="11.8468673"><ele>518.0</ele><time>2026-04-26T13:11:20.857Z</time></trkpt><trkpt lat="43.0082521" lon="11.8466097"><ele>517.0</ele><time>2026-04-26T13:11:21.856Z</time></trkpt><trkpt lat="43.0083762" lon="11.8463425"><ele>517.0</ele><time>2026-04-26T13:11:22.857Z</time></trkpt><trkpt lat="43.0085028" lon="11.8460785"><ele>517.0</ele><time>2026-04-26T13:11:23.857Z</time></trkpt><trkpt lat="43.0086293" lon="11.8458138"><ele>517.0</ele><time>2026-04-26T13:11:24.857Z</time></trkpt><trkpt lat="43.0087564" lon="11.8455526"><ele>517.0</ele><time>2026-04-26T13:11:25.857Z</time></trkpt><trkpt lat="43.0088817" lon="11.8452968"><ele>520.5</ele><time>2026-04-26T13:11:26.857Z</time></trkpt><trkpt lat="43.0090094" lon="11.8450386"><ele>524.0</ele><time>2026-04-26T13:11:27.857Z</time></trkpt><trkpt lat="43.0091355" lon="11.8447775"><ele>519.5</ele><time>2026-04-26T13:11:28.857Z</time></trkpt><trkpt lat="43.0092628" lon="11.8445149"><ele>515.0</ele><time>2026-04-26T13:11:29.857Z</time></trkpt><trkpt lat="43.0093907" lon="11.8442455"><ele>515.0</ele><time>2026-04-26T13:11:30.857Z</time></trkpt><trkpt lat="43.0095254" lon="11.8439801"><ele>515.0</ele><time>2026-04-26T13:11:31.857Z</time></trkpt><trkpt lat="43.0096676" lon="11.8437203"><ele>515.0</ele><time>2026-04-26T13:11:32.857Z</time></trkpt><trkpt lat="43.009809" lon="11.8434647"><ele>515.0</ele><time>2026-04-26T13:11:33.857Z</time></trkpt><trkpt lat="43.009958" lon="11.8432104"><ele>513.5</ele><time>2026-04-26T13:11:34.856Z</time></trkpt><trkpt lat="43.0101055" lon="11.8429566"><ele>512.0</ele><time>2026-04-26T13:11:35.857Z</time></trkpt><trkpt lat="43.0102529" lon="11.8427033"><ele>516.0</ele><time>2026-04-26T13:11:36.857Z</time></trkpt><trkpt lat="43.0103944" lon="11.8424533"><ele>520.0</ele><time>2026-04-26T13:11:37.856Z</time></trkpt><trkpt lat="43.0105342" lon="11.8422116"><ele>520.0</ele><time>2026-04-26T13:11:38.857Z</time></trkpt><trkpt lat="43.0106693" lon="11.8419722"><ele>520.0</ele><time>2026-04-26T13:11:39.857Z</time></trkpt><trkpt lat="43.0107904" lon="11.8417412"><ele>520.0</ele><time>2026-04-26T13:11:40.857Z</time></trkpt><trkpt lat="43.0108993" lon="11.841511"><ele>519.3333333333334</ele><time>2026-04-26T13:11:41.857Z</time></trkpt><trkpt lat="43.0110074" lon="11.8412888"><ele>518.6666666666666</ele><time>2026-04-26T13:11:42.857Z</time></trkpt><trkpt lat="43.0111103" lon="11.8410734"><ele>518.0</ele><time>2026-04-26T13:11:43.856Z</time></trkpt><trkpt lat="43.0111989" lon="11.8408651"><ele>519.6666666666666</ele><time>2026-04-26T13:11:44.857Z</time></trkpt><trkpt lat="43.0112903" lon="11.8406763"><ele>521.3333333333334</ele><time>2026-04-26T13:11:45.857Z</time></trkpt><trkpt lat="43.0113822" lon="11.8404961"><ele>523.0</ele><time>2026-04-26T13:11:46.857Z</time></trkpt><trkpt lat="43.0114691" lon="11.8403335"><ele>523.0</ele><time>2026-04-26T13:11:47.857Z</time></trkpt><trkpt lat="43.0115542" lon="11.8401886"><ele>523.0</ele><time>2026-04-26T13:11:48.857Z</time></trkpt><trkpt lat="43.0116379" lon="11.8400585"><ele>523.0</ele><time>2026-04-26T13:11:49.857Z</time></trkpt><trkpt lat="43.0117431" lon="11.8399446"><ele>523.0</ele><time>2026-04-26T13:11:50.857Z</time></trkpt><trkpt lat="43.011871" lon="11.8398533"><ele>521.6666666666667</ele><time>2026-04-26T13:11:51.857Z</time></trkpt><trkpt lat="43.0120109" lon="11.8398084"><ele>520.3333333333334</ele><time>2026-04-26T13:11:52.857Z</time></trkpt><trkpt lat="43.0121621" lon="11.8398038"><ele>519.0</ele><time>2026-04-26T13:11:53.857Z</time></trkpt><trkpt lat="43.0123174" lon="11.8398401"><ele>519.0</ele><time>2026-04-26T13:11:54.857Z</time></trkpt><trkpt lat="43.0124708" lon="11.8398976"><ele>519.0</ele><time>2026-04-26T13:11:55.857Z</time></trkpt><trkpt lat="43.0126245" lon="11.8399868"><ele>519.0</ele><time>2026-04-26T13:11:56.857Z</time></trkpt><trkpt lat="43.0127918" lon="11.8401149"><ele>514.3333333333334</ele><time>2026-04-26T13:11:57.857Z</time></trkpt><trkpt lat="43.0129532" lon="11.8402201"><ele>509.6666666666667</ele><time>2026-04-26T13:11:58.856Z</time></trkpt><trkpt lat="43.0131118" lon="11.8403252"><ele>505.0</ele><time>2026-04-26T13:11:59.857Z</time></trkpt><trkpt lat="43.0132606" lon="11.8404229"><ele>503.75</ele><time>2026-04-26T13:12:00.856Z</time></trkpt><trkpt lat="43.0134017" lon="11.8405146"><ele>502.5</ele><time>2026-04-26T13:12:01.857Z</time></trkpt><trkpt lat="43.0135331" lon="11.8405969"><ele>501.25</ele><time>2026-04-26T13:12:02.856Z</time></trkpt><trkpt lat="43.0136559" lon="11.8406485"><ele>500.0</ele><time>2026-04-26T13:12:03.856Z</time></trkpt><trkpt lat="43.0137831" lon="11.8406611"><ele>500.0</ele><time>2026-04-26T13:12:04.857Z</time></trkpt><trkpt lat="43.013904" lon="11.8405976"><ele>500.0</ele><time>2026-04-26T13:12:05.857Z</time></trkpt><trkpt lat="43.0140212" lon="11.8405011"><ele>500.0</ele><time>2026-04-26T13:12:06.857Z</time></trkpt><trkpt lat="43.0141217" lon="11.8403502"><ele>500.0</ele><time>2026-04-26T13:12:07.857Z</time></trkpt><trkpt lat="43.0142186" lon="11.8401846"><ele>500.66666666666663</ele><time>2026-04-26T13:12:08.857Z</time></trkpt><trkpt lat="43.014328" lon="11.8400405"><ele>501.33333333333337</ele><time>2026-04-26T13:12:09.856Z</time></trkpt><trkpt lat="43.0144815" lon="11.8399371"><ele>502.0</ele><time>2026-04-26T13:12:10.857Z</time></trkpt><trkpt lat="43.0146465" lon="11.8398571"><ele>502.0</ele><time>2026-04-26T13:12:11.857Z</time></trkpt><trkpt lat="43.0148288" lon="11.8397924"><ele>502.0</ele><time>2026-04-26T13:12:12.857Z</time></trkpt><trkpt lat="43.0150194" lon="11.8397557"><ele>502.0</ele><time>2026-04-26T13:12:13.857Z</time></trkpt><trkpt lat="43.015226" lon="11.839716"><ele>498.6666666666667</ele><time>2026-04-26T13:12:14.856Z</time></trkpt><trkpt lat="43.0154327" lon="11.8396687"><ele>495.33333333333337</ele><time>2026-04-26T13:12:15.857Z</time></trkpt><trkpt lat="43.0156377" lon="11.8396202"><ele>492.0</ele><time>2026-04-26T13:12:16.857Z</time></trkpt><trkpt lat="43.015848" lon="11.8395718"><ele>490.66666666666663</ele><time>2026-04-26T13:12:17.857Z</time></trkpt><trkpt lat="43.0160575" lon="11.8395287"><ele>489.3333333333333</ele><time>2026-04-26T13:12:18.857Z</time></trkpt><trkpt lat="43.016264" lon="11.8394993"><ele>488.0</ele><time>2026-04-26T13:12:19.857Z</time></trkpt><trkpt lat="43.0164702" lon="11.8394839"><ele>487.0</ele><time>2026-04-26T13:12:20.857Z</time></trkpt><trkpt lat="43.0166684" lon="11.8394802"><ele>486.0</ele><time>2026-04-26T13:12:21.856Z</time></trkpt><trkpt lat="43.016869" lon="11.8394816"><ele>485.0</ele><time>2026-04-26T13:12:22.857Z</time></trkpt><trkpt lat="43.0170724" lon="11.8394853"><ele>485.0</ele><time>2026-04-26T13:12:23.857Z</time></trkpt><trkpt lat="43.0172725" lon="11.8394966"><ele>485.0</ele><time>2026-04-26T13:12:24.857Z</time></trkpt><trkpt lat="43.0174693" lon="11.8395279"><ele>485.0</ele><time>2026-04-26T13:12:25.856Z</time></trkpt><trkpt lat="43.017675" lon="11.8395773"><ele>484.3333333333333</ele><time>2026-04-26T13:12:26.857Z</time></trkpt><trkpt lat="43.0178695" lon="11.8396471"><ele>483.66666666666663</ele><time>2026-04-26T13:12:27.857Z</time></trkpt><trkpt lat="43.0180611" lon="11.8397146"><ele>483.0</ele><time>2026-04-26T13:12:28.857Z</time></trkpt><trkpt lat="43.018253" lon="11.8397783"><ele>480.33333333333337</ele><time>2026-04-26T13:12:29.857Z</time></trkpt><trkpt lat="43.0184401" lon="11.8398273"><ele>477.6666666666667</ele><time>2026-04-26T13:12:30.856Z</time></trkpt><trkpt lat="43.0186347" lon="11.8398488"><ele>475.0</ele><time>2026-04-26T13:12:31.857Z</time></trkpt><trkpt lat="43.0188174" lon="11.8398077"><ele>475.0</ele><time>2026-04-26T13:12:32.856Z</time></trkpt><trkpt lat="43.0189976" lon="11.8397418"><ele>475.0</ele><time>2026-04-26T13:12:33.857Z</time></trkpt><trkpt lat="43.0191707" lon="11.8396826"><ele>475.0</ele><time>2026-04-26T13:12:34.857Z</time></trkpt><trkpt lat="43.0193447" lon="11.8396284"><ele>474.0</ele><time>2026-04-26T13:12:35.857Z</time></trkpt><trkpt lat="43.0195185" lon="11.8395872"><ele>473.0</ele><time>2026-04-26T13:12:36.857Z</time></trkpt><trkpt lat="43.0197013" lon="11.8395722"><ele>472.0</ele><time>2026-04-26T13:12:37.857Z</time></trkpt><trkpt lat="43.0198852" lon="11.8395812"><ele>471.33333333333337</ele><time>2026-04-26T13:12:38.857Z</time></trkpt><trkpt lat="43.0200733" lon="11.8395858"><ele>470.66666666666663</ele><time>2026-04-26T13:12:39.856Z</time></trkpt><trkpt lat="43.0202643" lon="11.8395691"><ele>470.0</ele><time>2026-04-26T13:12:40.857Z</time></trkpt><trkpt lat="43.0204536" lon="11.839534"><ele>470.0</ele><time>2026-04-26T13:12:41.857Z</time></trkpt><trkpt lat="43.0206394" lon="11.8394788"><ele>470.0</ele><time>2026-04-26T13:12:42.856Z</time></trkpt><trkpt lat="43.0208037" lon="11.8394087"><ele>470.0</ele><time>2026-04-26T13:12:43.857Z</time></trkpt><trkpt lat="43.0209439" lon="11.8393262"><ele>465.75</ele><time>2026-04-26T13:12:44.857Z</time></trkpt><trkpt lat="43.0210737" lon="11.8392501"><ele>461.5</ele><time>2026-04-26T13:12:45.856Z</time></trkpt><trkpt lat="43.0212119" lon="11.8392055"><ele>457.25</ele><time>2026-04-26T13:12:46.857Z</time></trkpt><trkpt lat="43.0213594" lon="11.8392057"><ele>453.0</ele><time>2026-04-26T13:12:47.857Z</time></trkpt><trkpt lat="43.0215235" lon="11.8392415"><ele>452.0</ele><time>2026-04-26T13:12:48.857Z</time></trkpt><trkpt lat="43.0217113" lon="11.8392532"><ele>451.0</ele><time>2026-04-26T13:12:49.856Z</time></trkpt><trkpt lat="43.0218931" lon="11.8392086"><ele>450.0</ele><time>2026-04-26T13:12:50.856Z</time></trkpt><trkpt lat="43.022077" lon="11.8391543"><ele>450.0</ele><time>2026-04-26T13:12:51.857Z</time></trkpt><trkpt lat="43.0222692" lon="11.8390753"><ele>450.0</ele><time>2026-04-26T13:12:52.856Z</time></trkpt><trkpt lat="43.0224572" lon="11.8389818"><ele>450.0</ele><time>2026-04-26T13:12:53.857Z</time></trkpt><trkpt lat="43.0226542" lon="11.8388911"><ele>449.0</ele><time>2026-04-26T13:12:54.857Z</time></trkpt><trkpt lat="43.0228538" lon="11.8387969"><ele>448.0</ele><time>2026-04-26T13:12:55.856Z</time></trkpt><trkpt lat="43.0230554" lon="11.8387014"><ele>447.0</ele><time>2026-04-26T13:12:56.857Z</time></trkpt><trkpt lat="43.0232645" lon="11.8386031"><ele>445.5</ele><time>2026-04-26T13:12:57.856Z</time></trkpt><trkpt lat="43.0234757" lon="11.8385043"><ele>444.0</ele><time>2026-04-26T13:12:58.857Z</time></trkpt><trkpt lat="43.0236952" lon="11.8383958"><ele>439.0</ele><time>2026-04-26T13:12:59.857Z</time></trkpt><trkpt lat="43.0239129" lon="11.8382904"><ele>434.0</ele><time>2026-04-26T13:13:00.857Z</time></trkpt><trkpt lat="43.0241284" lon="11.8381872"><ele>433.3333333333333</ele><time>2026-04-26T13:13:01.857Z</time></trkpt><trkpt lat="43.0243324" lon="11.8380838"><ele>432.66666666666663</ele><time>2026-04-26T13:13:02.857Z</time></trkpt><trkpt lat="43.0245343" lon="11.8379916"><ele>432.0</ele><time>2026-04-26T13:13:03.856Z</time></trkpt><trkpt lat="43.0247292" lon="11.8379023"><ele>432.0</ele><time>2026-04-26T13:13:04.857Z</time></trkpt><trkpt lat="43.0249151" lon="11.8378112"><ele>432.0</ele><time>2026-04-26T13:13:05.857Z</time></trkpt><trkpt lat="43.0250873" lon="11.8377001"><ele>432.0</ele><time>2026-04-26T13:13:06.857Z</time></trkpt><trkpt lat="43.0252465" lon="11.83756"><ele>428.0</ele><time>2026-04-26T13:13:07.857Z</time></trkpt><trkpt lat="43.0253892" lon="11.8374135"><ele>424.0</ele><time>2026-04-26T13:13:08.857Z</time></trkpt><trkpt lat="43.0255138" lon="11.8372729"><ele>420.0</ele><time>2026-04-26T13:13:09.857Z</time></trkpt><trkpt lat="43.0256257" lon="11.8371496"><ele>420.0</ele><time>2026-04-26T13:13:10.856Z</time></trkpt><trkpt lat="43.0257181" lon="11.8370344"><ele>420.0</ele><time>2026-04-26T13:13:11.857Z</time></trkpt><trkpt lat="43.0258096" lon="11.8369315"><ele>420.0</ele><time>2026-04-26T13:13:12.856Z</time></trkpt><trkpt lat="43.0259128" lon="11.8368603"><ele>420.0</ele><time>2026-04-26T13:13:13.857Z</time></trkpt><trkpt lat="43.0260319" lon="11.8368341"><ele>420.25</ele><time>2026-04-26T13:13:14.857Z</time></trkpt><trkpt lat="43.0261608" lon="11.8368507"><ele>420.5</ele><time>2026-04-26T13:13:15.857Z</time></trkpt><trkpt lat="43.0263005" lon="11.8369118"><ele>420.75</ele><time>2026-04-26T13:13:16.856Z</time></trkpt><trkpt lat="43.026441" lon="11.8370063"><ele>421.0</ele><time>2026-04-26T13:13:17.857Z</time></trkpt><trkpt lat="43.0265749" lon="11.8371181"><ele>418.75</ele><time>2026-04-26T13:13:18.856Z</time></trkpt><trkpt lat="43.026706" lon="11.837245"><ele>416.5</ele><time>2026-04-26T13:13:19.857Z</time></trkpt><trkpt lat="43.0268235" lon="11.8373721"><ele>414.25</ele><time>2026-04-26T13:13:20.857Z</time></trkpt><trkpt lat="43.0269333" lon="11.8374857"><ele>412.0</ele><time>2026-04-26T13:13:21.857Z</time></trkpt><trkpt lat="43.0270335" lon="11.8375914"><ele>412.0</ele><time>2026-04-26T13:13:22.856Z</time></trkpt><trkpt lat="43.0271253" lon="11.8376755"><ele>412.0</ele><time>2026-04-26T13:13:23.857Z</time></trkpt><trkpt lat="43.0272075" lon="11.8377406"><ele>412.0</ele><time>2026-04-26T13:13:24.856Z</time></trkpt><trkpt lat="43.0273012" lon="11.8377589"><ele>412.0</ele><time>2026-04-26T13:13:25.857Z</time></trkpt><trkpt lat="43.0273825" lon="11.8377135"><ele>412.0</ele><time>2026-04-26T13:13:26.856Z</time></trkpt><trkpt lat="43.0274459" lon="11.8376208"><ele>412.0</ele><time>2026-04-26T13:13:27.857Z</time></trkpt><trkpt lat="43.0274685" lon="11.8375007"><ele>412.0</ele><time>2026-04-26T13:13:28.857Z</time></trkpt><trkpt lat="43.027441" lon="11.8373511"><ele>412.0</ele><time>2026-04-26T13:13:29.857Z</time></trkpt><trkpt lat="43.0273895" lon="11.8372097"><ele>412.0</ele><time>2026-04-26T13:13:30.857Z</time></trkpt><trkpt lat="43.0273204" lon="11.8370548"><ele>412.0</ele><time>2026-04-26T13:13:31.857Z</time></trkpt><trkpt lat="43.0272376" lon="11.8368736"><ele>412.0</ele><time>2026-04-26T13:13:32.857Z</time></trkpt><trkpt lat="43.0271569" lon="11.8366842"><ele>412.0</ele><time>2026-04-26T13:13:33.857Z</time></trkpt><trkpt lat="43.027073" lon="11.8364945"><ele>409.33333333333337</ele><time>2026-04-26T13:13:34.857Z</time></trkpt><trkpt lat="43.0269928" lon="11.836311"><ele>406.66666666666663</ele><time>2026-04-26T13:13:35.856Z</time></trkpt><trkpt lat="43.0269177" lon="11.8361311"><ele>404.0</ele><time>2026-04-26T13:13:36.857Z</time></trkpt><trkpt lat="43.0268437" lon="11.835954"><ele>402.25</ele><time>2026-04-26T13:13:37.857Z</time></trkpt><trkpt lat="43.0267664" lon="11.8357845"><ele>400.5</ele><time>2026-04-26T13:13:38.857Z</time></trkpt><trkpt lat="43.0266966" lon="11.8356264"><ele>398.75</ele><time>2026-04-26T13:13:39.857Z</time></trkpt><trkpt lat="43.0266314" lon="11.8354828"><ele>397.0</ele><time>2026-04-26T13:13:40.856Z</time></trkpt><trkpt lat="43.0265756" lon="11.8353352"><ele>397.0</ele><time>2026-04-26T13:13:41.856Z</time></trkpt><trkpt lat="43.0265547" lon="11.8351769"><ele>397.0</ele><time>2026-04-26T13:13:42.856Z</time></trkpt><trkpt lat="43.0265979" lon="11.8350074"><ele>397.0</ele><time>2026-04-26T13:13:43.856Z</time></trkpt><trkpt lat="43.0266832" lon="11.8348422"><ele>397.0</ele><time>2026-04-26T13:13:44.856Z</time></trkpt><trkpt lat="43.0267928" lon="11.8346845"><ele>393.33333333333337</ele><time>2026-04-26T13:13:45.856Z</time></trkpt><trkpt lat="43.0269144" lon="11.8345233"><ele>389.66666666666663</ele><time>2026-04-26T13:13:46.857Z</time></trkpt><trkpt lat="43.0270332" lon="11.8343527"><ele>386.0</ele><time>2026-04-26T13:13:47.857Z</time></trkpt><trkpt lat="43.0271499" lon="11.8341808"><ele>385.3333333333333</ele><time>2026-04-26T13:13:48.857Z</time></trkpt><trkpt lat="43.027269" lon="11.8340021"><ele>384.66666666666663</ele><time>2026-04-26T13:13:49.857Z</time></trkpt><trkpt lat="43.0273944" lon="11.8338239"><ele>384.0</ele><time>2026-04-26T13:13:50.857Z</time></trkpt><trkpt lat="43.0275182" lon="11.8336363"><ele>385.66666666666663</ele><time>2026-04-26T13:13:51.857Z</time></trkpt><trkpt lat="43.0276495" lon="11.8334473"><ele>387.3333333333333</ele><time>2026-04-26T13:13:52.857Z</time></trkpt><trkpt lat="43.0277869" lon="11.8332834"><ele>389.0</ele><time>2026-04-26T13:13:53.857Z</time></trkpt><trkpt lat="43.0279239" lon="11.8331544"><ele>389.0</ele><time>2026-04-26T13:13:54.856Z</time></trkpt><trkpt lat="43.0280713" lon="11.8330695"><ele>389.0</ele><time>2026-04-26T13:13:55.857Z</time></trkpt><trkpt lat="43.0282173" lon="11.8330282"><ele>389.0</ele><time>2026-04-26T13:13:56.857Z</time></trkpt><trkpt lat="43.0283538" lon="11.832987"><ele>389.0</ele><time>2026-04-26T13:13:57.856Z</time></trkpt><trkpt lat="43.028505" lon="11.8329647"><ele>389.66666666666663</ele><time>2026-04-26T13:13:58.856Z</time></trkpt><trkpt lat="43.0286519" lon="11.8329848"><ele>390.33333333333337</ele><time>2026-04-26T13:13:59.857Z</time></trkpt><trkpt lat="43.0288138" lon="11.8330412"><ele>391.0</ele><time>2026-04-26T13:14:00.857Z</time></trkpt><trkpt lat="43.0289793" lon="11.8331173"><ele>391.33333333333337</ele><time>2026-04-26T13:14:01.857Z</time></trkpt><trkpt lat="43.0291549" lon="11.8332127"><ele>391.66666666666663</ele><time>2026-04-26T13:14:02.856Z</time></trkpt><trkpt lat="43.0293337" lon="11.833295"><ele>392.0</ele><time>2026-04-26T13:14:03.857Z</time></trkpt><trkpt lat="43.0295304" lon="11.8333851"><ele>392.0</ele><time>2026-04-26T13:14:04.856Z</time></trkpt><trkpt lat="43.0297275" lon="11.8334701"><ele>392.0</ele><time>2026-04-26T13:14:05.857Z</time></trkpt><trkpt lat="43.0299237" lon="11.833562"><ele>392.0</ele><time>2026-04-26T13:14:06.857Z</time></trkpt><trkpt lat="43.0301241" lon="11.8336571"><ele>391.3333333333333</ele><time>2026-04-26T13:14:07.856Z</time></trkpt><trkpt lat="43.0303212" lon="11.8337572"><ele>390.66666666666663</ele><time>2026-04-26T13:14:08.857Z</time></trkpt><trkpt lat="43.030519" lon="11.8338567"><ele>390.0</ele><time>2026-04-26T13:14:09.857Z</time></trkpt><trkpt lat="43.0307083" lon="11.8339502"><ele>393.33333333333337</ele><time>2026-04-26T13:14:10.857Z</time></trkpt><trkpt lat="43.0308827" lon="11.8340353"><ele>396.6666666666667</ele><time>2026-04-26T13:14:11.857Z</time></trkpt><trkpt lat="43.0310426" lon="11.8341101"><ele>400.0</ele><time>2026-04-26T13:14:12.857Z</time></trkpt><trkpt lat="43.0311974" lon="11.8341362"><ele>400.0</ele><time>2026-04-26T13:14:13.857Z</time></trkpt><trkpt lat="43.0313506" lon="11.8341146"><ele>400.0</ele><time>2026-04-26T13:14:14.857Z</time></trkpt><trkpt lat="43.0315029" lon="11.8340374"><ele>400.0</ele><time>2026-04-26T13:14:15.857Z</time></trkpt><trkpt lat="43.0316419" lon="11.8339139"><ele>401.6666666666667</ele><time>2026-04-26T13:14:16.857Z</time></trkpt><trkpt lat="43.0317729" lon="11.8337915"><ele>403.33333333333337</ele><time>2026-04-26T13:14:17.857Z</time></trkpt><trkpt lat="43.0319123" lon="11.8336698"><ele>405.0</ele><time>2026-04-26T13:14:18.857Z</time></trkpt><trkpt lat="43.0320574" lon="11.8335936"><ele>405.0</ele><time>2026-04-26T13:14:19.856Z</time></trkpt><trkpt lat="43.0322091" lon="11.8335567"><ele>405.0</ele><time>2026-04-26T13:14:20.857Z</time></trkpt><trkpt lat="43.0323699" lon="11.83358"><ele>405.0</ele><time>2026-04-26T13:14:21.856Z</time></trkpt><trkpt lat="43.0325126" lon="11.8336583"><ele>408.66666666666663</ele><time>2026-04-26T13:14:22.857Z</time></trkpt><trkpt lat="43.0326538" lon="11.8337979"><ele>412.3333333333333</ele><time>2026-04-26T13:14:23.857Z</time></trkpt><trkpt lat="43.0327635" lon="11.8339664"><ele>416.0</ele><time>2026-04-26T13:14:24.857Z</time></trkpt><trkpt lat="43.0328638" lon="11.8341522"><ele>414.0</ele><time>2026-04-26T13:14:25.856Z</time></trkpt><trkpt lat="43.0329635" lon="11.8343386"><ele>412.0</ele><time>2026-04-26T13:14:26.857Z</time></trkpt><trkpt lat="43.0330768" lon="11.8345015"><ele>410.0</ele><time>2026-04-26T13:14:27.857Z</time></trkpt><trkpt lat="43.0332058" lon="11.8346363"><ele>414.0</ele><time>2026-04-26T13:14:28.856Z</time></trkpt><trkpt lat="43.0333515" lon="11.8347477"><ele>418.0</ele><time>2026-04-26T13:14:29.857Z</time></trkpt><trkpt lat="43.0335082" lon="11.8348332"><ele>422.0</ele><time>2026-04-26T13:14:30.856Z</time></trkpt><trkpt lat="43.0336693" lon="11.8349254"><ele>422.0</ele><time>2026-04-26T13:14:31.856Z</time></trkpt><trkpt lat="43.0338259" lon="11.8350094"><ele>422.0</ele><time>2026-04-26T13:14:32.857Z</time></trkpt><trkpt lat="43.0339778" lon="11.8350679"><ele>422.0</ele><time>2026-04-26T13:14:33.857Z</time></trkpt><trkpt lat="43.0341347" lon="11.8351065"><ele>424.66666666666663</ele><time>2026-04-26T13:14:34.857Z</time></trkpt><trkpt lat="43.0342911" lon="11.835113"><ele>427.33333333333337</ele><time>2026-04-26T13:14:35.857Z</time></trkpt><trkpt lat="43.0344429" lon="11.8351054"><ele>430.0</ele><time>2026-04-26T13:14:36.856Z</time></trkpt><trkpt lat="43.0345939" lon="11.8350858"><ele>430.0</ele><time>2026-04-26T13:14:37.856Z</time></trkpt><trkpt lat="43.034742" lon="11.8350714"><ele>430.0</ele><time>2026-04-26T13:14:38.857Z</time></trkpt><trkpt lat="43.0348839" lon="11.8350523"><ele>430.0</ele><time>2026-04-26T13:14:39.857Z</time></trkpt><trkpt lat="43.0350242" lon="11.8350362"><ele>430.0</ele><time>2026-04-26T13:14:40.857Z</time></trkpt><trkpt lat="43.035156" lon="11.83502"><ele>431.4</ele><time>2026-04-26T13:14:41.856Z</time></trkpt><trkpt lat="43.0352751" lon="11.8350031"><ele>432.8</ele><time>2026-04-26T13:14:42.857Z</time></trkpt><trkpt lat="43.0353865" lon="11.8349974"><ele>434.20000000000005</ele><time>2026-04-26T13:14:43.856Z</time></trkpt><trkpt lat="43.0354836" lon="11.8350067"><ele>435.6</ele><time>2026-04-26T13:14:44.857Z</time></trkpt><trkpt lat="43.0355561" lon="11.8350464"><ele>437.0</ele><time>2026-04-26T13:14:45.857Z</time></trkpt><trkpt lat="43.035608" lon="11.8351001"><ele>437.0</ele><time>2026-04-26T13:14:46.857Z</time></trkpt><trkpt lat="43.0356727" lon="11.8351416"><ele>437.00000000000006</ele><time>2026-04-26T13:14:48.857Z</time></trkpt><trkpt lat="43.0357405" lon="11.835121"><ele>437.00000000000006</ele><time>2026-04-26T13:14:51.857Z</time></trkpt><trkpt lat="43.0358515" lon="11.8350185"><ele>437.0</ele><time>2026-04-26T13:14:53.857Z</time></trkpt><trkpt lat="43.0359167" lon="11.8349277"><ele>437.0</ele><time>2026-04-26T13:14:54.857Z</time></trkpt><trkpt lat="43.0359919" lon="11.8348341"><ele>438.25</ele><time>2026-04-26T13:14:55.857Z</time></trkpt><trkpt lat="43.036093" lon="11.8347485"><ele>439.5</ele><time>2026-04-26T13:14:56.857Z</time></trkpt><trkpt lat="43.0362086" lon="11.8346611"><ele>440.75</ele><time>2026-04-26T13:14:57.857Z</time></trkpt><trkpt lat="43.0363289" lon="11.8345664"><ele>442.0</ele><time>2026-04-26T13:14:58.857Z</time></trkpt><trkpt lat="43.0364505" lon="11.8344631"><ele>442.0</ele><time>2026-04-26T13:14:59.856Z</time></trkpt><trkpt lat="43.0365693" lon="11.8343421"><ele>442.0</ele><time>2026-04-26T13:15:00.857Z</time></trkpt><trkpt lat="43.0366676" lon="11.8341946"><ele>442.0</ele><time>2026-04-26T13:15:01.856Z</time></trkpt><trkpt lat="43.0367406" lon="11.8339995"><ele>442.0</ele><time>2026-04-26T13:15:02.856Z</time></trkpt><trkpt lat="43.0367912" lon="11.8338025"><ele>442.0</ele><time>2026-04-26T13:15:03.857Z</time></trkpt><trkpt lat="43.0368333" lon="11.8336108"><ele>442.0</ele><time>2026-04-26T13:15:04.857Z</time></trkpt><trkpt lat="43.0368648" lon="11.8334133"><ele>442.0</ele><time>2026-04-26T13:15:05.856Z</time></trkpt><trkpt lat="43.0368667" lon="11.833199"><ele>442.33333333333337</ele><time>2026-04-26T13:15:06.857Z</time></trkpt><trkpt lat="43.0368356" lon="11.8329884"><ele>442.66666666666663</ele><time>2026-04-26T13:15:07.857Z</time></trkpt><trkpt lat="43.0367892" lon="11.8327849"><ele>443.0</ele><time>2026-04-26T13:15:08.857Z</time></trkpt><trkpt lat="43.036721" lon="11.8325892"><ele>443.0</ele><time>2026-04-26T13:15:09.856Z</time></trkpt><trkpt lat="43.0366625" lon="11.8323971"><ele>443.0</ele><time>2026-04-26T13:15:10.857Z</time></trkpt><trkpt lat="43.0366234" lon="11.8321971"><ele>443.0</ele><time>2026-04-26T13:15:11.857Z</time></trkpt><trkpt lat="43.0366157" lon="11.8319751"><ele>444.3333333333333</ele><time>2026-04-26T13:15:12.857Z</time></trkpt><trkpt lat="43.0366319" lon="11.831749"><ele>445.66666666666663</ele><time>2026-04-26T13:15:13.857Z</time></trkpt><trkpt lat="43.0366644" lon="11.8315217"><ele>447.0</ele><time>2026-04-26T13:15:14.857Z</time></trkpt><trkpt lat="43.0367223" lon="11.831287"><ele>447.0</ele><time>2026-04-26T13:15:15.857Z</time></trkpt><trkpt lat="43.036803" lon="11.8310686"><ele>447.0</ele><time>2026-04-26T13:15:16.857Z</time></trkpt><trkpt lat="43.0369088" lon="11.8308681"><ele>447.0</ele><time>2026-04-26T13:15:17.856Z</time></trkpt><trkpt lat="43.0370177" lon="11.8306687"><ele>448.66666666666663</ele><time>2026-04-26T13:15:18.856Z</time></trkpt><trkpt lat="43.0370988" lon="11.8304418"><ele>450.3333333333333</ele><time>2026-04-26T13:15:19.857Z</time></trkpt><trkpt lat="43.0371599" lon="11.8302025"><ele>452.0</ele><time>2026-04-26T13:15:20.857Z</time></trkpt><trkpt lat="43.0372091" lon="11.8299578"><ele>453.3333333333333</ele><time>2026-04-26T13:15:21.857Z</time></trkpt><trkpt lat="43.0372478" lon="11.829712"><ele>454.66666666666663</ele><time>2026-04-26T13:15:22.857Z</time></trkpt><trkpt lat="43.0372719" lon="11.8294608"><ele>456.0</ele><time>2026-04-26T13:15:23.856Z</time></trkpt><trkpt lat="43.0372806" lon="11.829208"><ele>457.33333333333337</ele><time>2026-04-26T13:15:24.856Z</time></trkpt><trkpt lat="43.0372644" lon="11.8289531"><ele>458.6666666666667</ele><time>2026-04-26T13:15:25.857Z</time></trkpt><trkpt lat="43.0372322" lon="11.8287028"><ele>460.0</ele><time>2026-04-26T13:15:26.857Z</time></trkpt><trkpt lat="43.037181" lon="11.8284554"><ele>460.0</ele><time>2026-04-26T13:15:27.857Z</time></trkpt><trkpt lat="43.0371226" lon="11.828215"><ele>460.0</ele><time>2026-04-26T13:15:28.857Z</time></trkpt><trkpt lat="43.0370702" lon="11.82798"><ele>460.0</ele><time>2026-04-26T13:15:29.857Z</time></trkpt><trkpt lat="43.0370232" lon="11.8277586"><ele>460.5</ele><time>2026-04-26T13:15:30.857Z</time></trkpt><trkpt lat="43.0369765" lon="11.8275465"><ele>461.0</ele><time>2026-04-26T13:15:31.857Z</time></trkpt><trkpt lat="43.0369342" lon="11.8273555"><ele>461.5</ele><time>2026-04-26T13:15:32.857Z</time></trkpt><trkpt lat="43.0369038" lon="11.8271882"><ele>462.0</ele><time>2026-04-26T13:15:33.857Z</time></trkpt><trkpt lat="43.0368863" lon="11.8270316"><ele>462.0</ele><time>2026-04-26T13:15:34.857Z</time></trkpt><trkpt lat="43.036878" lon="11.8268882"><ele>462.00000000000006</ele><time>2026-04-26T13:15:35.857Z</time></trkpt><trkpt lat="43.0368818" lon="11.8267455"><ele>462.00000000000006</ele><time>2026-04-26T13:15:36.857Z</time></trkpt><trkpt lat="43.0368952" lon="11.8266081"><ele>462.0</ele><time>2026-04-26T13:15:37.857Z</time></trkpt><trkpt lat="43.0369224" lon="11.8264734"><ele>462.0</ele><time>2026-04-26T13:15:38.857Z</time></trkpt><trkpt lat="43.0369479" lon="11.8263372"><ele>462.6</ele><time>2026-04-26T13:15:39.857Z</time></trkpt><trkpt lat="43.0369558" lon="11.8261879"><ele>463.20000000000005</ele><time>2026-04-26T13:15:40.857Z</time></trkpt><trkpt lat="43.0369431" lon="11.8260332"><ele>463.8</ele><time>2026-04-26T13:15:41.857Z</time></trkpt><trkpt lat="43.0369211" lon="11.8258906"><ele>464.4</ele><time>2026-04-26T13:15:42.857Z</time></trkpt><trkpt lat="43.036888" lon="11.8257476"><ele>465.0</ele><time>2026-04-26T13:15:43.857Z</time></trkpt><trkpt lat="43.0368502" lon="11.8256109"><ele>465.4</ele><time>2026-04-26T13:15:44.857Z</time></trkpt><trkpt lat="43.0368286" lon="11.8254689"><ele>465.8</ele><time>2026-04-26T13:15:45.856Z</time></trkpt><trkpt lat="43.0368201" lon="11.8253227"><ele>466.20000000000005</ele><time>2026-04-26T13:15:46.856Z</time></trkpt><trkpt lat="43.0368367" lon="11.8251729"><ele>466.6</ele><time>2026-04-26T13:15:47.857Z</time></trkpt><trkpt lat="43.03686" lon="11.8250297"><ele>467.0</ele><time>2026-04-26T13:15:48.857Z</time></trkpt><trkpt lat="43.0368868" lon="11.8248862"><ele>467.6</ele><time>2026-04-26T13:15:49.856Z</time></trkpt><trkpt lat="43.0369163" lon="11.8247437"><ele>468.20000000000005</ele><time>2026-04-26T13:15:50.857Z</time></trkpt><trkpt lat="43.0369427" lon="11.8246176"><ele>468.8</ele><time>2026-04-26T13:15:51.857Z</time></trkpt><trkpt lat="43.0369674" lon="11.8244918"><ele>469.4</ele><time>2026-04-26T13:15:52.857Z</time></trkpt><trkpt lat="43.0369908" lon="11.8243635"><ele>470.0</ele><time>2026-04-26T13:15:53.857Z</time></trkpt><trkpt lat="43.0370114" lon="11.8242411"><ele>470.8333333333333</ele><time>2026-04-26T13:15:54.857Z</time></trkpt><trkpt lat="43.0370315" lon="11.8241267"><ele>471.66666666666663</ele><time>2026-04-26T13:15:55.857Z</time></trkpt><trkpt lat="43.0370478" lon="11.8240068"><ele>472.5</ele><time>2026-04-26T13:15:56.856Z</time></trkpt><trkpt lat="43.0370509" lon="11.8238878"><ele>473.33333333333337</ele><time>2026-04-26T13:15:57.856Z</time></trkpt><trkpt lat="43.0370382" lon="11.82377"><ele>474.1666666666667</ele><time>2026-04-26T13:15:58.857Z</time></trkpt><trkpt lat="43.0370314" lon="11.8236504"><ele>475.0</ele><time>2026-04-26T13:15:59.857Z</time></trkpt><trkpt lat="43.0370247" lon="11.8235201"><ele>475.50000000000006</ele><time>2026-04-26T13:16:00.856Z</time></trkpt><trkpt lat="43.0370171" lon="11.8233954"><ele>476.0</ele><time>2026-04-26T13:16:01.856Z</time></trkpt><trkpt lat="43.0370133" lon="11.8232755"><ele>476.5</ele><time>2026-04-26T13:16:02.857Z</time></trkpt><trkpt lat="43.0370075" lon="11.8231559"><ele>477.0</ele><time>2026-04-26T13:16:03.856Z</time></trkpt><trkpt lat="43.0370084" lon="11.8230342"><ele>477.50000000000006</ele><time>2026-04-26T13:16:04.857Z</time></trkpt><trkpt lat="43.0370245" lon="11.8229111"><ele>478.0</ele><time>2026-04-26T13:16:05.857Z</time></trkpt><trkpt lat="43.0370527" lon="11.8227935"><ele>478.0</ele><time>2026-04-26T13:16:06.857Z</time></trkpt><trkpt lat="43.0370876" lon="11.8226716"><ele>477.99999999999994</ele><time>2026-04-26T13:16:07.857Z</time></trkpt><trkpt lat="43.0371265" lon="11.8225499"><ele>477.99999999999994</ele><time>2026-04-26T13:16:08.856Z</time></trkpt><trkpt lat="43.0371705" lon="11.8224207"><ele>478.0</ele><time>2026-04-26T13:16:09.857Z</time></trkpt><trkpt lat="43.0372164" lon="11.822302"><ele>478.0</ele><time>2026-04-26T13:16:10.856Z</time></trkpt><trkpt lat="43.0372651" lon="11.8221868"><ele>478.4</ele><time>2026-04-26T13:16:11.857Z</time></trkpt><trkpt lat="43.0373301" lon="11.8220704"><ele>478.79999999999995</ele><time>2026-04-26T13:16:12.857Z</time></trkpt><trkpt lat="43.0373972" lon="11.8219597"><ele>479.2</ele><time>2026-04-26T13:16:13.856Z</time></trkpt><trkpt lat="43.0374711" lon="11.8218535"><ele>479.6</ele><time>2026-04-26T13:16:14.856Z</time></trkpt><trkpt lat="43.0375526" lon="11.8217483"><ele>480.0</ele><time>2026-04-26T13:16:15.857Z</time></trkpt><trkpt lat="43.0376308" lon="11.8216353"><ele>477.75</ele><time>2026-04-26T13:16:16.856Z</time></trkpt><trkpt lat="43.0377084" lon="11.8215118"><ele>475.5</ele><time>2026-04-26T13:16:17.857Z</time></trkpt><trkpt lat="43.0377941" lon="11.8213902"><ele>473.25</ele><time>2026-04-26T13:16:18.856Z</time></trkpt><trkpt lat="43.0378844" lon="11.8212774"><ele>471.0</ele><time>2026-04-26T13:16:19.856Z</time></trkpt><trkpt lat="43.0379618" lon="11.8211648"><ele>471.0</ele><time>2026-04-26T13:16:20.857Z</time></trkpt><trkpt lat="43.0380411" lon="11.8210556"><ele>471.0</ele><time>2026-04-26T13:16:21.856Z</time></trkpt><trkpt lat="43.0381174" lon="11.8209473"><ele>471.0</ele><time>2026-04-26T13:16:22.857Z</time></trkpt><trkpt lat="43.038205" lon="11.8208481"><ele>471.0</ele><time>2026-04-26T13:16:23.857Z</time></trkpt><trkpt lat="43.0382913" lon="11.8207425"><ele>468.75</ele><time>2026-04-26T13:16:24.856Z</time></trkpt><trkpt lat="43.0383733" lon="11.8206386"><ele>466.5</ele><time>2026-04-26T13:16:25.857Z</time></trkpt><trkpt lat="43.0384541" lon="11.8205264"><ele>464.25</ele><time>2026-04-26T13:16:26.856Z</time></trkpt><trkpt lat="43.0385336" lon="11.820408"><ele>462.0</ele><time>2026-04-26T13:16:27.857Z</time></trkpt><trkpt lat="43.0386145" lon="11.8202873"><ele>462.0</ele><time>2026-04-26T13:16:28.857Z</time></trkpt><trkpt lat="43.0386955" lon="11.8201531"><ele>462.0</ele><time>2026-04-26T13:16:29.857Z</time></trkpt><trkpt lat="43.0387684" lon="11.8200224"><ele>462.0</ele><time>2026-04-26T13:16:30.856Z</time></trkpt><trkpt lat="43.0388438" lon="11.8198943"><ele>462.0</ele><time>2026-04-26T13:16:31.857Z</time></trkpt><trkpt lat="43.038905" lon="11.8197591"><ele>461.0</ele><time>2026-04-26T13:16:32.856Z</time></trkpt><trkpt lat="43.0389634" lon="11.8196246"><ele>460.00000000000006</ele><time>2026-04-26T13:16:33.857Z</time></trkpt><trkpt lat="43.0390108" lon="11.8194881"><ele>459.00000000000006</ele><time>2026-04-26T13:16:34.857Z</time></trkpt><trkpt lat="43.0390545" lon="11.8193621"><ele>458.0</ele><time>2026-04-26T13:16:35.857Z</time></trkpt><trkpt lat="43.0390995" lon="11.8192412"><ele>457.0</ele><time>2026-04-26T13:16:36.857Z</time></trkpt><trkpt lat="43.0391411" lon="11.8191191"><ele>457.0</ele><time>2026-04-26T13:16:37.857Z</time></trkpt><trkpt lat="43.0391831" lon="11.8189968"><ele>457.00000000000006</ele><time>2026-04-26T13:16:38.856Z</time></trkpt><trkpt lat="43.0392243" lon="11.8188809"><ele>457.00000000000006</ele><time>2026-04-26T13:16:39.857Z</time></trkpt><trkpt lat="43.0392659" lon="11.8187653"><ele>457.0</ele><time>2026-04-26T13:16:40.856Z</time></trkpt><trkpt lat="43.0392997" lon="11.8186608"><ele>457.0</ele><time>2026-04-26T13:16:41.856Z</time></trkpt><trkpt lat="43.0393465" lon="11.8185724"><ele>457.0</ele><time>2026-04-26T13:16:42.857Z</time></trkpt><trkpt lat="43.0394156" lon="11.8185165"><ele>457.00000000000006</ele><time>2026-04-26T13:16:43.856Z</time></trkpt><trkpt lat="43.039491" lon="11.8185045"><ele>457.00000000000006</ele><time>2026-04-26T13:16:44.857Z</time></trkpt><trkpt lat="43.0395675" lon="11.8185403"><ele>457.0</ele><time>2026-04-26T13:16:45.857Z</time></trkpt><trkpt lat="43.0396639" lon="11.8186034"><ele>457.0</ele><time>2026-04-26T13:16:46.857Z</time></trkpt><trkpt lat="43.0397651" lon="11.8186814"><ele>457.0</ele><time>2026-04-26T13:16:47.857Z</time></trkpt><trkpt lat="43.0398796" lon="11.818754"><ele>457.0</ele><time>2026-04-26T13:16:48.857Z</time></trkpt><trkpt lat="43.0399994" lon="11.8188164"><ele>457.0</ele><time>2026-04-26T13:16:49.857Z</time></trkpt><trkpt lat="43.0401128" lon="11.8188876"><ele>457.0</ele><time>2026-04-26T13:16:50.857Z</time></trkpt><trkpt lat="43.0402242" lon="11.8189575"><ele>455.5</ele><time>2026-04-26T13:16:51.857Z</time></trkpt><trkpt lat="43.0403349" lon="11.8190247"><ele>454.0</ele><time>2026-04-26T13:16:52.857Z</time></trkpt><trkpt lat="43.0404396" lon="11.819097"><ele>452.5</ele><time>2026-04-26T13:16:53.856Z</time></trkpt><trkpt lat="43.0405506" lon="11.8191635"><ele>451.0</ele><time>2026-04-26T13:16:54.857Z</time></trkpt><trkpt lat="43.0406648" lon="11.81922"><ele>451.0</ele><time>2026-04-26T13:16:55.857Z</time></trkpt><trkpt lat="43.0407806" lon="11.8192662"><ele>451.0</ele><time>2026-04-26T13:16:56.857Z</time></trkpt><trkpt lat="43.0409028" lon="11.8193015"><ele>451.0</ele><time>2026-04-26T13:16:57.857Z</time></trkpt><trkpt lat="43.0410248" lon="11.819319"><ele>451.0</ele><time>2026-04-26T13:16:58.856Z</time></trkpt><trkpt lat="43.0411483" lon="11.8193201"><ele>448.75</ele><time>2026-04-26T13:16:59.857Z</time></trkpt><trkpt lat="43.0412731" lon="11.8192999"><ele>446.5</ele><time>2026-04-26T13:17:00.857Z</time></trkpt><trkpt lat="43.041391" lon="11.8192657"><ele>444.25</ele><time>2026-04-26T13:17:01.857Z</time></trkpt><trkpt lat="43.0415073" lon="11.8192151"><ele>442.0</ele><time>2026-04-26T13:17:02.857Z</time></trkpt><trkpt lat="43.0416148" lon="11.8191605"><ele>440.6</ele><time>2026-04-26T13:17:03.857Z</time></trkpt><trkpt lat="43.0417106" lon="11.8191074"><ele>439.20000000000005</ele><time>2026-04-26T13:17:04.856Z</time></trkpt><trkpt lat="43.0418029" lon="11.8190582"><ele>437.8</ele><time>2026-04-26T13:17:05.856Z</time></trkpt><trkpt lat="43.0418861" lon="11.8190014"><ele>436.4</ele><time>2026-04-26T13:17:06.857Z</time></trkpt><trkpt lat="43.0419598" lon="11.8189394"><ele>435.0</ele><time>2026-04-26T13:17:07.857Z</time></trkpt><trkpt lat="43.0420209" lon="11.8188593"><ele>435.0</ele><time>2026-04-26T13:17:08.857Z</time></trkpt><trkpt lat="43.0420514" lon="11.8187593"><ele>435.0</ele><time>2026-04-26T13:17:09.856Z</time></trkpt><trkpt lat="43.0420633" lon="11.818655"><ele>435.0</ele><time>2026-04-26T13:17:10.857Z</time></trkpt><trkpt lat="43.0420702" lon="11.8185456"><ele>435.0</ele><time>2026-04-26T13:17:11.857Z</time></trkpt><trkpt lat="43.0420777" lon="11.8184342"><ele>435.0</ele><time>2026-04-26T13:17:12.857Z</time></trkpt><trkpt lat="43.0420893" lon="11.8183202"><ele>435.0</ele><time>2026-04-26T13:17:13.856Z</time></trkpt><trkpt lat="43.0420862" lon="11.8182085"><ele>435.8</ele><time>2026-04-26T13:17:14.857Z</time></trkpt><trkpt lat="43.0420631" lon="11.8180997"><ele>436.6</ele><time>2026-04-26T13:17:15.857Z</time></trkpt><trkpt lat="43.0420247" lon="11.8179895"><ele>437.4</ele><time>2026-04-26T13:17:16.857Z</time></trkpt><trkpt lat="43.041972" lon="11.8178737"><ele>438.2</ele><time>2026-04-26T13:17:17.857Z</time></trkpt><trkpt lat="43.0419112" lon="11.8177491"><ele>439.0</ele><time>2026-04-26T13:17:18.857Z</time></trkpt><trkpt lat="43.0418417" lon="11.8176022"><ele>440.0</ele><time>2026-04-26T13:17:19.857Z</time></trkpt><trkpt lat="43.0417828" lon="11.8174381"><ele>441.0</ele><time>2026-04-26T13:17:20.856Z</time></trkpt><trkpt lat="43.0417223" lon="11.8172643"><ele>442.0</ele><time>2026-04-26T13:17:21.857Z</time></trkpt><trkpt lat="43.0416689" lon="11.817097"><ele>443.0</ele><time>2026-04-26T13:17:22.857Z</time></trkpt><trkpt lat="43.0416168" lon="11.8169468"><ele>443.99999999999994</ele><time>2026-04-26T13:17:23.856Z</time></trkpt><trkpt lat="43.0415711" lon="11.8168055"><ele>445.0</ele><time>2026-04-26T13:17:24.857Z</time></trkpt><trkpt lat="43.0415335" lon="11.8166821"><ele>446.0</ele><time>2026-04-26T13:17:25.857Z</time></trkpt><trkpt lat="43.0415067" lon="11.8165682"><ele>447.0</ele><time>2026-04-26T13:17:26.857Z</time></trkpt><trkpt lat="43.0415138" lon="11.8164736"><ele>447.99999999999994</ele><time>2026-04-26T13:17:27.857Z</time></trkpt><trkpt lat="43.0415665" lon="11.8163992"><ele>449.0</ele><time>2026-04-26T13:17:28.857Z</time></trkpt><trkpt lat="43.0416402" lon="11.8163417"><ele>449.0</ele><time>2026-04-26T13:17:29.857Z</time></trkpt><trkpt lat="43.0417479" lon="11.8162925"><ele>449.0</ele><time>2026-04-26T13:17:30.857Z</time></trkpt><trkpt lat="43.0418468" lon="11.8162319"><ele>449.0</ele><time>2026-04-26T13:17:31.857Z</time></trkpt><trkpt lat="43.0419464" lon="11.8161685"><ele>449.0</ele><time>2026-04-26T13:17:32.857Z</time></trkpt><trkpt lat="43.0420537" lon="11.8160997"><ele>449.0</ele><time>2026-04-26T13:17:33.857Z</time></trkpt><trkpt lat="43.042171" lon="11.8160327"><ele>449.0</ele><time>2026-04-26T13:17:34.857Z</time></trkpt><trkpt lat="43.0422955" lon="11.8159508"><ele>449.0</ele><time>2026-04-26T13:17:35.857Z</time></trkpt><trkpt lat="43.0424162" lon="11.8158657"><ele>449.0</ele><time>2026-04-26T13:17:36.857Z</time></trkpt><trkpt lat="43.042536" lon="11.8157851"><ele>451.25</ele><time>2026-04-26T13:17:37.857Z</time></trkpt><trkpt lat="43.0426578" lon="11.8157031"><ele>453.5</ele><time>2026-04-26T13:17:38.856Z</time></trkpt><trkpt lat="43.0427824" lon="11.8156223"><ele>455.75</ele><time>2026-04-26T13:17:39.857Z</time></trkpt><trkpt lat="43.0429112" lon="11.8155371"><ele>458.0</ele><time>2026-04-26T13:17:40.856Z</time></trkpt><trkpt lat="43.043038" lon="11.8154483"><ele>458.0</ele><time>2026-04-26T13:17:41.857Z</time></trkpt><trkpt lat="43.0431743" lon="11.8153574"><ele>458.0</ele><time>2026-04-26T13:17:42.857Z</time></trkpt><trkpt lat="43.0433134" lon="11.8152634"><ele>458.0</ele><time>2026-04-26T13:17:43.857Z</time></trkpt><trkpt lat="43.0434564" lon="11.8151647"><ele>460.66666666666663</ele><time>2026-04-26T13:17:44.856Z</time></trkpt><trkpt lat="43.0435971" lon="11.8150678"><ele>463.33333333333337</ele><time>2026-04-26T13:17:45.857Z</time></trkpt><trkpt lat="43.0437339" lon="11.8149756"><ele>466.0</ele><time>2026-04-26T13:17:46.857Z</time></trkpt><trkpt lat="43.0438666" lon="11.8148822"><ele>466.0</ele><time>2026-04-26T13:17:47.857Z</time></trkpt><trkpt lat="43.0439978" lon="11.8147911"><ele>466.0</ele><time>2026-04-26T13:17:48.857Z</time></trkpt><trkpt lat="43.04412" lon="11.8147058"><ele>466.0</ele><time>2026-04-26T13:17:49.857Z</time></trkpt><trkpt lat="43.0442274" lon="11.8146218"><ele>466.0</ele><time>2026-04-26T13:17:50.857Z</time></trkpt><trkpt lat="43.0443222" lon="11.8145672"><ele>466.1666666666667</ele><time>2026-04-26T13:17:51.856Z</time></trkpt><trkpt lat="43.0444027" lon="11.8145166"><ele>466.33333333333337</ele><time>2026-04-26T13:17:52.856Z</time></trkpt><trkpt lat="43.0444692" lon="11.8144709"><ele>466.5</ele><time>2026-04-26T13:17:53.857Z</time></trkpt><trkpt lat="43.044531" lon="11.8144325"><ele>466.66666666666663</ele><time>2026-04-26T13:17:54.857Z</time></trkpt><trkpt lat="43.0445895" lon="11.8143883"><ele>466.8333333333333</ele><time>2026-04-26T13:17:55.857Z</time></trkpt><trkpt lat="43.0446894" lon="11.814343"><ele>467.0</ele><time>2026-04-26T13:17:57.857Z</time></trkpt><trkpt lat="43.0448061" lon="11.8144135"><ele>467.0</ele><time>2026-04-26T13:17:59.857Z</time></trkpt><trkpt lat="43.0448606" lon="11.8145007"><ele>467.00000000000006</ele><time>2026-04-26T13:18:00.857Z</time></trkpt><trkpt lat="43.0449182" lon="11.814592"><ele>467.00000000000006</ele><time>2026-04-26T13:18:01.857Z</time></trkpt><trkpt lat="43.0449773" lon="11.8146877"><ele>467.0</ele><time>2026-04-26T13:18:02.856Z</time></trkpt><trkpt lat="43.0450423" lon="11.8147804"><ele>467.0</ele><time>2026-04-26T13:18:03.857Z</time></trkpt><trkpt lat="43.0451116" lon="11.8148834"><ele>467.5</ele><time>2026-04-26T13:18:04.857Z</time></trkpt><trkpt lat="43.0451867" lon="11.8149986"><ele>468.0</ele><time>2026-04-26T13:18:05.857Z</time></trkpt><trkpt lat="43.0452615" lon="11.8151195"><ele>468.5</ele><time>2026-04-26T13:18:06.857Z</time></trkpt><trkpt lat="43.0453336" lon="11.815243"><ele>469.0</ele><time>2026-04-26T13:18:07.857Z</time></trkpt><trkpt lat="43.0454102" lon="11.8153662"><ele>469.0</ele><time>2026-04-26T13:18:08.857Z</time></trkpt><trkpt lat="43.0454825" lon="11.8154905"><ele>469.0</ele><time>2026-04-26T13:18:09.857Z</time></trkpt><trkpt lat="43.0455501" lon="11.8156076"><ele>469.0</ele><time>2026-04-26T13:18:10.857Z</time></trkpt><trkpt lat="43.0456178" lon="11.8157282"><ele>469.0</ele><time>2026-04-26T13:18:11.856Z</time></trkpt><trkpt lat="43.0456892" lon="11.8158429"><ele>469.0</ele><time>2026-04-26T13:18:12.857Z</time></trkpt><trkpt lat="43.0457571" lon="11.8159562"><ele>468.4</ele><time>2026-04-26T13:18:13.857Z</time></trkpt><trkpt lat="43.0458213" lon="11.8160712"><ele>467.79999999999995</ele><time>2026-04-26T13:18:14.856Z</time></trkpt><trkpt lat="43.0458819" lon="11.8161879"><ele>467.20000000000005</ele><time>2026-04-26T13:18:15.856Z</time></trkpt><trkpt lat="43.0459399" lon="11.8163044"><ele>466.6</ele><time>2026-04-26T13:18:16.856Z</time></trkpt><trkpt lat="43.0459938" lon="11.8164262"><ele>466.0</ele><time>2026-04-26T13:18:17.857Z</time></trkpt><trkpt lat="43.0460456" lon="11.8165504"><ele>466.0</ele><time>2026-04-26T13:18:18.857Z</time></trkpt><trkpt lat="43.0460967" lon="11.8166621"><ele>466.0</ele><time>2026-04-26T13:18:19.857Z</time></trkpt><trkpt lat="43.0461489" lon="11.8167709"><ele>466.0</ele><time>2026-04-26T13:18:20.857Z</time></trkpt><trkpt lat="43.0461978" lon="11.8168853"><ele>466.0</ele><time>2026-04-26T13:18:21.857Z</time></trkpt><trkpt lat="43.0462477" lon="11.8170143"><ele>466.0</ele><time>2026-04-26T13:18:22.856Z</time></trkpt><trkpt lat="43.0462986" lon="11.8171399"><ele>463.6</ele><time>2026-04-26T13:18:23.857Z</time></trkpt><trkpt lat="43.0463559" lon="11.8172575"><ele>461.20000000000005</ele><time>2026-04-26T13:18:24.857Z</time></trkpt><trkpt lat="43.0464141" lon="11.8173643"><ele>458.79999999999995</ele><time>2026-04-26T13:18:25.856Z</time></trkpt><trkpt lat="43.0464795" lon="11.817469"><ele>456.4</ele><time>2026-04-26T13:18:26.857Z</time></trkpt><trkpt lat="43.0465487" lon="11.8175704"><ele>454.0</ele><time>2026-04-26T13:18:27.857Z</time></trkpt><trkpt lat="43.046628" lon="11.8176692"><ele>454.0</ele><time>2026-04-26T13:18:28.856Z</time></trkpt><trkpt lat="43.0466985" lon="11.8177698"><ele>454.0</ele><time>2026-04-26T13:18:29.857Z</time></trkpt><trkpt lat="43.046768" lon="11.8178692"><ele>454.0</ele><time>2026-04-26T13:18:30.857Z</time></trkpt><trkpt lat="43.0468352" lon="11.8179609"><ele>454.0</ele><time>2026-04-26T13:18:31.856Z</time></trkpt><trkpt lat="43.046908" lon="11.8180445"><ele>454.0</ele><time>2026-04-26T13:18:32.857Z</time></trkpt><trkpt lat="43.0469727" lon="11.8181387"><ele>454.0</ele><time>2026-04-26T13:18:33.857Z</time></trkpt><trkpt lat="43.0470355" lon="11.8182069"><ele>454.00000000000006</ele><time>2026-04-26T13:18:34.857Z</time></trkpt><trkpt lat="43.0471" lon="11.818271"><ele>454.0</ele><time>2026-04-26T13:18:35.856Z</time></trkpt><trkpt lat="43.0471612" lon="11.8183331"><ele>454.0</ele><time>2026-04-26T13:18:36.856Z</time></trkpt><trkpt lat="43.0472102" lon="11.8184064"><ele>454.00000000000006</ele><time>2026-04-26T13:18:37.856Z</time></trkpt><trkpt lat="43.0472334" lon="11.8184934"><ele>454.0</ele><time>2026-04-26T13:18:38.857Z</time></trkpt><trkpt lat="43.0472284" lon="11.8185838"><ele>454.0</ele><time>2026-04-26T13:18:39.856Z</time></trkpt><trkpt lat="43.0472483" lon="11.8187405"><ele>453.2</ele><time>2026-04-26T13:18:41.857Z</time></trkpt><trkpt lat="43.0473473" lon="11.8187979"><ele>452.4</ele><time>2026-04-26T13:18:43.857Z</time></trkpt><trkpt lat="43.0474155" lon="11.8187792"><ele>451.6</ele><time>2026-04-26T13:18:44.856Z</time></trkpt><trkpt lat="43.0474914" lon="11.8187333"><ele>450.8</ele><time>2026-04-26T13:18:45.857Z</time></trkpt><trkpt lat="43.0475838" lon="11.8186993"><ele>450.0</ele><time>2026-04-26T13:18:46.856Z</time></trkpt><trkpt lat="43.047682" lon="11.8186963"><ele>450.0</ele><time>2026-04-26T13:18:47.857Z</time></trkpt><trkpt lat="43.0477948" lon="11.8187246"><ele>450.0</ele><time>2026-04-26T13:18:48.857Z</time></trkpt><trkpt lat="43.0479047" lon="11.8187721"><ele>450.0</ele><time>2026-04-26T13:18:49.856Z</time></trkpt><trkpt lat="43.0480171" lon="11.8188309"><ele>450.0</ele><time>2026-04-26T13:18:50.857Z</time></trkpt><trkpt lat="43.048134" lon="11.8188947"><ele>450.0</ele><time>2026-04-26T13:18:51.857Z</time></trkpt><trkpt lat="43.0482607" lon="11.8189616"><ele>450.0</ele><time>2026-04-26T13:18:52.857Z</time></trkpt><trkpt lat="43.0483922" lon="11.8190318"><ele>450.0</ele><time>2026-04-26T13:18:53.857Z</time></trkpt><trkpt lat="43.0485254" lon="11.819114"><ele>450.0</ele><time>2026-04-26T13:18:54.857Z</time></trkpt><trkpt lat="43.0486593" lon="11.8191933"><ele>451.0</ele><time>2026-04-26T13:18:55.856Z</time></trkpt><trkpt lat="43.0487965" lon="11.8192726"><ele>452.0</ele><time>2026-04-26T13:18:56.857Z</time></trkpt><trkpt lat="43.0489367" lon="11.8193612"><ele>453.0</ele><time>2026-04-26T13:18:57.856Z</time></trkpt><trkpt lat="43.0490835" lon="11.819446"><ele>453.0</ele><time>2026-04-26T13:18:58.857Z</time></trkpt><trkpt lat="43.0492189" lon="11.8195346"><ele>453.0</ele><time>2026-04-26T13:18:59.857Z</time></trkpt><trkpt lat="43.0493521" lon="11.8196203"><ele>453.0</ele><time>2026-04-26T13:19:00.857Z</time></trkpt><trkpt lat="43.0494751" lon="11.8197198"><ele>453.0</ele><time>2026-04-26T13:19:01.856Z</time></trkpt><trkpt lat="43.0495851" lon="11.8198003"><ele>453.0</ele><time>2026-04-26T13:19:02.857Z</time></trkpt><trkpt lat="43.0496929" lon="11.8198774"><ele>452.99999999999994</ele><time>2026-04-26T13:19:03.857Z</time></trkpt><trkpt lat="43.0497817" lon="11.8199496"><ele>452.99999999999994</ele><time>2026-04-26T13:19:04.857Z</time></trkpt><trkpt lat="43.0498527" lon="11.8200003"><ele>453.0</ele><time>2026-04-26T13:19:05.857Z</time></trkpt><trkpt lat="43.0499144" lon="11.8200532"><ele>453.0</ele><time>2026-04-26T13:19:06.857Z</time></trkpt><trkpt lat="43.050002" lon="11.8201132"><ele>453.0</ele><time>2026-04-26T13:19:08.857Z</time></trkpt><trkpt lat="43.0500608" lon="11.8201585"><ele>452.99999999999994</ele><time>2026-04-26T13:19:10.856Z</time></trkpt><trkpt lat="43.0501294" lon="11.8201913"><ele>452.99999999999994</ele><time>2026-04-26T13:19:13.857Z</time></trkpt><trkpt lat="43.0502413" lon="11.8202246"><ele>453.0</ele><time>2026-04-26T13:19:44.857Z</time></trkpt><trkpt lat="43.0503328" lon="11.8202659"><ele>453.0</ele><time>2026-04-26T13:19:45.857Z</time></trkpt><trkpt lat="43.0504342" lon="11.820307"><ele>453.0</ele><time>2026-04-26T13:19:46.856Z</time></trkpt><trkpt lat="43.0505422" lon="11.8203531"><ele>453.0</ele><time>2026-04-26T13:19:47.857Z</time></trkpt><trkpt lat="43.050655" lon="11.8203957"><ele>453.0</ele><time>2026-04-26T13:19:48.857Z</time></trkpt><trkpt lat="43.0507781" lon="11.8204531"><ele>453.0</ele><time>2026-04-26T13:19:49.856Z</time></trkpt><trkpt lat="43.0508937" lon="11.8205051"><ele>454.59999999999997</ele><time>2026-04-26T13:19:50.857Z</time></trkpt><trkpt lat="43.0510105" lon="11.8205617"><ele>456.19999999999993</ele><time>2026-04-26T13:19:51.857Z</time></trkpt><trkpt lat="43.0511083" lon="11.820611"><ele>457.8</ele><time>2026-04-26T13:19:52.857Z</time></trkpt><trkpt lat="43.0511943" lon="11.8206587"><ele>459.4</ele><time>2026-04-26T13:19:53.856Z</time></trkpt><trkpt lat="43.0512857" lon="11.8207056"><ele>461.0</ele><time>2026-04-26T13:19:54.857Z</time></trkpt><trkpt lat="43.0513708" lon="11.820781"><ele>461.0</ele><time>2026-04-26T13:19:55.857Z</time></trkpt><trkpt lat="43.0514623" lon="11.8208602"><ele>461.0</ele><time>2026-04-26T13:19:56.857Z</time></trkpt><trkpt lat="43.0515798" lon="11.8209542"><ele>461.0</ele><time>2026-04-26T13:19:57.856Z</time></trkpt><trkpt lat="43.0516958" lon="11.8210628"><ele>461.0</ele><time>2026-04-26T13:19:58.857Z</time></trkpt><trkpt lat="43.0518068" lon="11.8211794"><ele>459.0</ele><time>2026-04-26T13:19:59.857Z</time></trkpt><trkpt lat="43.0519248" lon="11.8212961"><ele>457.0</ele><time>2026-04-26T13:20:00.857Z</time></trkpt><trkpt lat="43.0520462" lon="11.8214274"><ele>455.0</ele><time>2026-04-26T13:20:01.857Z</time></trkpt><trkpt lat="43.0521697" lon="11.8215523"><ele>455.0</ele><time>2026-04-26T13:20:02.856Z</time></trkpt><trkpt lat="43.0522938" lon="11.8216895"><ele>455.0</ele><time>2026-04-26T13:20:03.856Z</time></trkpt><trkpt lat="43.0524198" lon="11.8218186"><ele>455.0</ele><time>2026-04-26T13:20:04.857Z</time></trkpt><trkpt lat="43.0525426" lon="11.8219575"><ele>454.66666666666663</ele><time>2026-04-26T13:20:05.857Z</time></trkpt><trkpt lat="43.0526673" lon="11.8220995"><ele>454.33333333333337</ele><time>2026-04-26T13:20:06.857Z</time></trkpt><trkpt lat="43.0527892" lon="11.8222526"><ele>454.0</ele><time>2026-04-26T13:20:07.857Z</time></trkpt><trkpt lat="43.052908" lon="11.8224024"><ele>454.0</ele><time>2026-04-26T13:20:08.856Z</time></trkpt><trkpt lat="43.0530242" lon="11.8225514"><ele>454.0</ele><time>2026-04-26T13:20:09.856Z</time></trkpt><trkpt lat="43.0531328" lon="11.8227064"><ele>454.0</ele><time>2026-04-26T13:20:10.857Z</time></trkpt><trkpt lat="43.0532358" lon="11.8228518"><ele>454.0</ele><time>2026-04-26T13:20:11.857Z</time></trkpt><trkpt lat="43.0533391" lon="11.822973"><ele>454.0</ele><time>2026-04-26T13:20:12.857Z</time></trkpt><trkpt lat="43.0534483" lon="11.8230794"><ele>454.0</ele><time>2026-04-26T13:20:13.857Z</time></trkpt><trkpt lat="43.0535727" lon="11.8231759"><ele>454.0</ele><time>2026-04-26T13:20:14.856Z</time></trkpt><trkpt lat="43.0537079" lon="11.823241"><ele>454.0</ele><time>2026-04-26T13:20:15.856Z</time></trkpt><trkpt lat="43.053851" lon="11.82329"><ele>454.0</ele><time>2026-04-26T13:20:16.857Z</time></trkpt><trkpt lat="43.0539982" lon="11.8233043"><ele>454.0</ele><time>2026-04-26T13:20:17.857Z</time></trkpt><trkpt lat="43.0541464" lon="11.8232837"><ele>454.0</ele><time>2026-04-26T13:20:18.856Z</time></trkpt><trkpt lat="43.0542988" lon="11.8232717"><ele>456.0</ele><time>2026-04-26T13:20:19.857Z</time></trkpt><trkpt lat="43.0544545" lon="11.8232446"><ele>458.0</ele><time>2026-04-26T13:20:20.857Z</time></trkpt><trkpt lat="43.0545997" lon="11.823201"><ele>460.0</ele><time>2026-04-26T13:20:21.857Z</time></trkpt><trkpt lat="43.0547448" lon="11.8231312"><ele>460.0</ele><time>2026-04-26T13:20:22.857Z</time></trkpt><trkpt lat="43.0548781" lon="11.8230397"><ele>460.0</ele><time>2026-04-26T13:20:23.856Z</time></trkpt><trkpt lat="43.0550126" lon="11.8229526"><ele>460.0</ele><time>2026-04-26T13:20:24.857Z</time></trkpt><trkpt lat="43.0551361" lon="11.8228484"><ele>460.0</ele><time>2026-04-26T13:20:25.856Z</time></trkpt><trkpt lat="43.055245" lon="11.8227544"><ele>458.25</ele><time>2026-04-26T13:20:26.857Z</time></trkpt><trkpt lat="43.0553575" lon="11.8226701"><ele>456.5</ele><time>2026-04-26T13:20:27.857Z</time></trkpt><trkpt lat="43.0554674" lon="11.8225995"><ele>454.75</ele><time>2026-04-26T13:20:28.857Z</time></trkpt><trkpt lat="43.0555902" lon="11.8225545"><ele>453.0</ele><time>2026-04-26T13:20:29.857Z</time></trkpt><trkpt lat="43.0557205" lon="11.8225253"><ele>455.0</ele><time>2026-04-26T13:20:30.856Z</time></trkpt><trkpt lat="43.0558518" lon="11.8224953"><ele>457.0</ele><time>2026-04-26T13:20:31.857Z</time></trkpt><trkpt lat="43.0559758" lon="11.8224717"><ele>459.0</ele><time>2026-04-26T13:20:32.857Z</time></trkpt><trkpt lat="43.0560941" lon="11.8224442"><ele>461.0</ele><time>2026-04-26T13:20:33.857Z</time></trkpt><trkpt lat="43.056205" lon="11.8224253"><ele>461.0</ele><time>2026-04-26T13:20:34.857Z</time></trkpt><trkpt lat="43.0563063" lon="11.8224064"><ele>461.0</ele><time>2026-04-26T13:20:35.857Z</time></trkpt><trkpt lat="43.0564074" lon="11.8224027"><ele>461.0</ele><time>2026-04-26T13:20:36.857Z</time></trkpt><trkpt lat="43.0564926" lon="11.8224453"><ele>461.0</ele><time>2026-04-26T13:20:37.857Z</time></trkpt><trkpt lat="43.0565622" lon="11.822538"><ele>461.0</ele><time>2026-04-26T13:20:38.857Z</time></trkpt><trkpt lat="43.056623" lon="11.8226742"><ele>459.5</ele><time>2026-04-26T13:20:39.857Z</time></trkpt><trkpt lat="43.0566779" lon="11.8228354"><ele>458.0</ele><time>2026-04-26T13:20:40.857Z</time></trkpt><trkpt lat="43.0567421" lon="11.8230065"><ele>456.5</ele><time>2026-04-26T13:20:41.857Z</time></trkpt><trkpt lat="43.0568123" lon="11.8231874"><ele>455.0</ele><time>2026-04-26T13:20:42.857Z</time></trkpt><trkpt lat="43.0568858" lon="11.8233666"><ele>454.0</ele><time>2026-04-26T13:20:43.857Z</time></trkpt><trkpt lat="43.0569594" lon="11.8235561"><ele>453.0</ele><time>2026-04-26T13:20:44.857Z</time></trkpt><trkpt lat="43.0570387" lon="11.8237471"><ele>452.0</ele><time>2026-04-26T13:20:45.857Z</time></trkpt><trkpt lat="43.0571174" lon="11.8239469"><ele>452.0</ele><time>2026-04-26T13:20:46.857Z</time></trkpt><trkpt lat="43.0571967" lon="11.8241451"><ele>452.0</ele><time>2026-04-26T13:20:47.857Z</time></trkpt><trkpt lat="43.0572761" lon="11.824335"><ele>452.0</ele><time>2026-04-26T13:20:48.856Z</time></trkpt><trkpt lat="43.0573588" lon="11.8245111"><ele>452.0</ele><time>2026-04-26T13:20:49.857Z</time></trkpt><trkpt lat="43.0574512" lon="11.8246789"><ele>452.0</ele><time>2026-04-26T13:20:50.857Z</time></trkpt><trkpt lat="43.0575514" lon="11.8248278"><ele>452.0</ele><time>2026-04-26T13:20:51.857Z</time></trkpt><trkpt lat="43.0576634" lon="11.8249549"><ele>452.0</ele><time>2026-04-26T13:20:52.857Z</time></trkpt><trkpt lat="43.0577761" lon="11.8250574"><ele>451.99999999999994</ele><time>2026-04-26T13:20:53.857Z</time></trkpt><trkpt lat="43.0578841" lon="11.8251403"><ele>452.0</ele><time>2026-04-26T13:20:54.857Z</time></trkpt><trkpt lat="43.0579755" lon="11.8251939"><ele>452.0</ele><time>2026-04-26T13:20:55.857Z</time></trkpt><trkpt lat="43.058049" lon="11.8252131"><ele>452.0</ele><time>2026-04-26T13:20:56.857Z</time></trkpt><trkpt lat="43.05812" lon="11.8251977"><ele>451.99999999999994</ele><time>2026-04-26T13:20:57.857Z</time></trkpt><trkpt lat="43.0581732" lon="11.825125"><ele>452.0</ele><time>2026-04-26T13:20:58.857Z</time></trkpt><trkpt lat="43.0582173" lon="11.8250341"><ele>452.0</ele><time>2026-04-26T13:20:59.856Z</time></trkpt><trkpt lat="43.0582495" lon="11.824922"><ele>452.00000000000006</ele><time>2026-04-26T13:21:00.857Z</time></trkpt><trkpt lat="43.0582707" lon="11.8247892"><ele>452.00000000000006</ele><time>2026-04-26T13:21:01.857Z</time></trkpt><trkpt lat="43.0582819" lon="11.8246495"><ele>452.0</ele><time>2026-04-26T13:21:02.857Z</time></trkpt><trkpt lat="43.0582872" lon="11.8245026"><ele>452.0</ele><time>2026-04-26T13:21:03.857Z</time></trkpt><trkpt lat="43.0582831" lon="11.8243595"><ele>453.20000000000005</ele><time>2026-04-26T13:21:04.857Z</time></trkpt><trkpt lat="43.0582605" lon="11.8242169"><ele>454.40000000000003</ele><time>2026-04-26T13:21:05.856Z</time></trkpt><trkpt lat="43.0582121" lon="11.824083"><ele>455.59999999999997</ele><time>2026-04-26T13:21:06.857Z</time></trkpt><trkpt lat="43.0581262" lon="11.8239911"><ele>456.79999999999995</ele><time>2026-04-26T13:21:07.856Z</time></trkpt><trkpt lat="43.0580229" lon="11.8239346"><ele>458.0</ele><time>2026-04-26T13:21:08.857Z</time></trkpt><trkpt lat="43.057945" lon="11.8238657"><ele>458.0</ele><time>2026-04-26T13:21:09.857Z</time></trkpt><trkpt lat="43.0579053" lon="11.8237599"><ele>457.99999999999994</ele><time>2026-04-26T13:21:10.857Z</time></trkpt><trkpt lat="43.057915" lon="11.8236182"><ele>457.99999999999994</ele><time>2026-04-26T13:21:11.857Z</time></trkpt><trkpt lat="43.0579596" lon="11.8234852"><ele>458.0</ele><time>2026-04-26T13:21:12.856Z</time></trkpt><trkpt lat="43.058013" lon="11.823358"><ele>458.0</ele><time>2026-04-26T13:21:13.856Z</time></trkpt><trkpt lat="43.0580988" lon="11.8232726"><ele>460.0</ele><time>2026-04-26T13:21:14.857Z</time></trkpt><trkpt lat="43.0582232" lon="11.8232375"><ele>462.0</ele><time>2026-04-26T13:21:15.857Z</time></trkpt><trkpt lat="43.0583424" lon="11.8232358"><ele>464.0</ele><time>2026-04-26T13:21:16.857Z</time></trkpt><trkpt lat="43.05845" lon="11.8232289"><ele>466.0</ele><time>2026-04-26T13:21:17.857Z</time></trkpt><trkpt lat="43.0585441" lon="11.8231881"><ele>468.0</ele><time>2026-04-26T13:21:18.856Z</time></trkpt><trkpt lat="43.0586149" lon="11.8231089"><ele>470.0</ele><time>2026-04-26T13:21:19.857Z</time></trkpt><trkpt lat="43.0586474" lon="11.822997"><ele>472.0</ele><time>2026-04-26T13:21:20.857Z</time></trkpt><trkpt lat="43.0586309" lon="11.8228675"><ele>474.0</ele><time>2026-04-26T13:21:21.857Z</time></trkpt><trkpt lat="43.0585701" lon="11.8227682"><ele>476.0</ele><time>2026-04-26T13:21:22.857Z</time></trkpt><trkpt lat="43.0584659" lon="11.8226885"><ele>476.6</ele><time>2026-04-26T13:21:23.857Z</time></trkpt><trkpt lat="43.0583592" lon="11.8226189"><ele>477.20000000000005</ele><time>2026-04-26T13:21:24.857Z</time></trkpt><trkpt lat="43.0582651" lon="11.8225207"><ele>477.79999999999995</ele><time>2026-04-26T13:21:25.857Z</time></trkpt><trkpt lat="43.0582023" lon="11.8223966"><ele>478.4</ele><time>2026-04-26T13:21:26.857Z</time></trkpt><trkpt lat="43.0581804" lon="11.8222667"><ele>479.0</ele><time>2026-04-26T13:21:27.856Z</time></trkpt><trkpt lat="43.0582106" lon="11.8221375"><ele>480.25</ele><time>2026-04-26T13:21:28.856Z</time></trkpt><trkpt lat="43.058296" lon="11.8220398"><ele>481.5</ele><time>2026-04-26T13:21:29.857Z</time></trkpt><trkpt lat="43.0584176" lon="11.82196"><ele>482.75</ele><time>2026-04-26T13:21:30.857Z</time></trkpt><trkpt lat="43.0585409" lon="11.821906"><ele>484.0</ele><time>2026-04-26T13:21:31.857Z</time></trkpt><trkpt lat="43.0586544" lon="11.8218477"><ele>486.2</ele><time>2026-04-26T13:21:32.857Z</time></trkpt><trkpt lat="43.0587409" lon="11.8217402"><ele>488.4</ele><time>2026-04-26T13:21:33.857Z</time></trkpt><trkpt lat="43.0587662" lon="11.8215979"><ele>490.6</ele><time>2026-04-26T13:21:34.856Z</time></trkpt><trkpt lat="43.0587273" lon="11.8214658"><ele>492.8</ele><time>2026-04-26T13:21:35.857Z</time></trkpt><trkpt lat="43.0586358" lon="11.8213739"><ele>495.0</ele><time>2026-04-26T13:21:36.857Z</time></trkpt><trkpt lat="43.0585256" lon="11.8212956"><ele>495.0</ele><time>2026-04-26T13:21:37.856Z</time></trkpt><trkpt lat="43.0584346" lon="11.8212134"><ele>495.0</ele><time>2026-04-26T13:21:38.857Z</time></trkpt><trkpt lat="43.0583903" lon="11.8210841"><ele>495.0</ele><time>2026-04-26T13:21:39.857Z</time></trkpt><trkpt lat="43.0584147" lon="11.8209586"><ele>495.0</ele><time>2026-04-26T13:21:40.857Z</time></trkpt><trkpt lat="43.0585022" lon="11.8208722"><ele>495.0</ele><time>2026-04-26T13:21:41.857Z</time></trkpt><trkpt lat="43.0586071" lon="11.8208435"><ele>497.4</ele><time>2026-04-26T13:21:42.857Z</time></trkpt><trkpt lat="43.0587107" lon="11.8208222"><ele>499.8</ele><time>2026-04-26T13:21:43.857Z</time></trkpt><trkpt lat="43.0588061" lon="11.8207481"><ele>502.20000000000005</ele><time>2026-04-26T13:21:44.857Z</time></trkpt><trkpt lat="43.0588639" lon="11.8206223"><ele>504.6</ele><time>2026-04-26T13:21:45.857Z</time></trkpt><trkpt lat="43.0589107" lon="11.8204757"><ele>507.0</ele><time>2026-04-26T13:21:46.857Z</time></trkpt><trkpt lat="43.0589388" lon="11.8203084"><ele>508.25</ele><time>2026-04-26T13:21:47.857Z</time></trkpt><trkpt lat="43.0589544" lon="11.8201325"><ele>509.5</ele><time>2026-04-26T13:21:48.856Z</time></trkpt><trkpt lat="43.0589553" lon="11.8199383"><ele>510.75</ele><time>2026-04-26T13:21:49.857Z</time></trkpt><trkpt lat="43.058949" lon="11.8197328"><ele>512.0</ele><time>2026-04-26T13:21:50.857Z</time></trkpt><trkpt lat="43.0589331" lon="11.8195248"><ele>511.3333333333333</ele><time>2026-04-26T13:21:51.857Z</time></trkpt><trkpt lat="43.0589056" lon="11.819314"><ele>510.66666666666663</ele><time>2026-04-26T13:21:52.857Z</time></trkpt><trkpt lat="43.0588523" lon="11.8191086"><ele>510.0</ele><time>2026-04-26T13:21:53.857Z</time></trkpt><trkpt lat="43.0587699" lon="11.8189114"><ele>510.0</ele><time>2026-04-26T13:21:54.857Z</time></trkpt><trkpt lat="43.0586777" lon="11.8187156"><ele>510.0</ele><time>2026-04-26T13:21:55.857Z</time></trkpt><trkpt lat="43.0585884" lon="11.81851"><ele>510.0</ele><time>2026-04-26T13:21:56.856Z</time></trkpt><trkpt lat="43.0585087" lon="11.8182981"><ele>508.33333333333337</ele><time>2026-04-26T13:21:57.856Z</time></trkpt><trkpt lat="43.0584406" lon="11.8180769"><ele>506.6666666666667</ele><time>2026-04-26T13:21:58.857Z</time></trkpt><trkpt lat="43.0583732" lon="11.8178545"><ele>505.0</ele><time>2026-04-26T13:21:59.857Z</time></trkpt><trkpt lat="43.0583077" lon="11.8176335"><ele>510.6666666666667</ele><time>2026-04-26T13:22:00.857Z</time></trkpt><trkpt lat="43.0582595" lon="11.8174111"><ele>516.3333333333334</ele><time>2026-04-26T13:22:01.857Z</time></trkpt><trkpt lat="43.0582255" lon="11.8171907"><ele>522.0</ele><time>2026-04-26T13:22:02.857Z</time></trkpt><trkpt lat="43.0582104" lon="11.8169809"><ele>522.25</ele><time>2026-04-26T13:22:03.857Z</time></trkpt><trkpt lat="43.0582116" lon="11.8167788"><ele>522.5</ele><time>2026-04-26T13:22:04.857Z</time></trkpt><trkpt lat="43.0582414" lon="11.8165991"><ele>522.75</ele><time>2026-04-26T13:22:05.857Z</time></trkpt><trkpt lat="43.0583051" lon="11.8164219"><ele>523.0</ele><time>2026-04-26T13:22:06.856Z</time></trkpt><trkpt lat="43.0584108" lon="11.8162853"><ele>517.25</ele><time>2026-04-26T13:22:07.857Z</time></trkpt><trkpt lat="43.0585439" lon="11.8161963"><ele>511.5</ele><time>2026-04-26T13:22:08.857Z</time></trkpt><trkpt lat="43.0586839" lon="11.8161278"><ele>505.75</ele><time>2026-04-26T13:22:09.856Z</time></trkpt><trkpt lat="43.0588196" lon="11.8160606"><ele>500.0</ele><time>2026-04-26T13:22:10.856Z</time></trkpt><trkpt lat="43.05895" lon="11.8160141"><ele>500.0</ele><time>2026-04-26T13:22:11.856Z</time></trkpt><trkpt lat="43.0590917" lon="11.8160059"><ele>500.0</ele><time>2026-04-26T13:22:12.856Z</time></trkpt><trkpt lat="43.0592373" lon="11.8160698"><ele>500.0</ele><time>2026-04-26T13:22:13.856Z</time></trkpt><trkpt lat="43.0593647" lon="11.8162157"><ele>496.3333333333333</ele><time>2026-04-26T13:22:14.857Z</time></trkpt><trkpt lat="43.0594765" lon="11.8163883"><ele>492.66666666666663</ele><time>2026-04-26T13:22:15.857Z</time></trkpt><trkpt lat="43.0595705" lon="11.8165654"><ele>489.0</ele><time>2026-04-26T13:22:16.856Z</time></trkpt><trkpt lat="43.059648" lon="11.8167345"><ele>487.0</ele><time>2026-04-26T13:22:17.857Z</time></trkpt><trkpt lat="43.0597283" lon="11.816895"><ele>485.0</ele><time>2026-04-26T13:22:18.857Z</time></trkpt><trkpt lat="43.0598114" lon="11.8170484"><ele>483.0</ele><time>2026-04-26T13:22:19.856Z</time></trkpt><trkpt lat="43.0598987" lon="11.8171916"><ele>481.0</ele><time>2026-04-26T13:22:20.857Z</time></trkpt><trkpt lat="43.0600104" lon="11.8172918"><ele>480.0</ele><time>2026-04-26T13:22:21.857Z</time></trkpt><trkpt lat="43.0601581" lon="11.8173411"><ele>479.0</ele><time>2026-04-26T13:22:22.857Z</time></trkpt><trkpt lat="43.0603262" lon="11.8173384"><ele>478.0</ele><time>2026-04-26T13:22:23.857Z</time></trkpt><trkpt lat="43.0604993" lon="11.8172937"><ele>478.0</ele><time>2026-04-26T13:22:24.857Z</time></trkpt><trkpt lat="43.0606687" lon="11.8172536"><ele>478.0</ele><time>2026-04-26T13:22:25.856Z</time></trkpt><trkpt lat="43.0608573" lon="11.8172149"><ele>478.0</ele><time>2026-04-26T13:22:26.857Z</time></trkpt><trkpt lat="43.0610428" lon="11.8171792"><ele>478.0</ele><time>2026-04-26T13:22:27.856Z</time></trkpt><trkpt lat="43.0612353" lon="11.8171392"><ele>478.0</ele><time>2026-04-26T13:22:28.857Z</time></trkpt><trkpt lat="43.0614296" lon="11.8171029"><ele>478.0</ele><time>2026-04-26T13:22:29.856Z</time></trkpt><trkpt lat="43.0616212" lon="11.8170952"><ele>477.33333333333337</ele><time>2026-04-26T13:22:30.857Z</time></trkpt><trkpt lat="43.0618252" lon="11.8171182"><ele>476.66666666666663</ele><time>2026-04-26T13:22:31.856Z</time></trkpt><trkpt lat="43.0620195" lon="11.8171739"><ele>476.0</ele><time>2026-04-26T13:22:32.857Z</time></trkpt><trkpt lat="43.0622143" lon="11.8172386"><ele>476.0</ele><time>2026-04-26T13:22:33.857Z</time></trkpt><trkpt lat="43.0624099" lon="11.8173014"><ele>476.0</ele><time>2026-04-26T13:22:34.856Z</time></trkpt><trkpt lat="43.0626113" lon="11.8173802"><ele>476.0</ele><time>2026-04-26T13:22:35.856Z</time></trkpt><trkpt lat="43.062807" lon="11.8174754"><ele>477.3333333333333</ele><time>2026-04-26T13:22:36.856Z</time></trkpt><trkpt lat="43.0629966" lon="11.8175837"><ele>478.66666666666663</ele><time>2026-04-26T13:22:37.857Z</time></trkpt><trkpt lat="43.0631835" lon="11.8176995"><ele>480.0</ele><time>2026-04-26T13:22:38.856Z</time></trkpt><trkpt lat="43.063365" lon="11.8178173"><ele>477.0</ele><time>2026-04-26T13:22:39.857Z</time></trkpt><trkpt lat="43.0635347" lon="11.817936"><ele>474.0</ele><time>2026-04-26T13:22:40.856Z</time></trkpt><trkpt lat="43.0637036" lon="11.8180393"><ele>471.0</ele><time>2026-04-26T13:22:41.857Z</time></trkpt><trkpt lat="43.0638662" lon="11.8181101"><ele>471.0</ele><time>2026-04-26T13:22:42.857Z</time></trkpt><trkpt lat="43.0640356" lon="11.8181303"><ele>471.0</ele><time>2026-04-26T13:22:43.857Z</time></trkpt><trkpt lat="43.0642062" lon="11.818093"><ele>471.0</ele><time>2026-04-26T13:22:44.857Z</time></trkpt><trkpt lat="43.0643565" lon="11.8180225"><ele>475.0</ele><time>2026-04-26T13:22:45.857Z</time></trkpt><trkpt lat="43.0644997" lon="11.8179146"><ele>479.0</ele><time>2026-04-26T13:22:46.857Z</time></trkpt><trkpt lat="43.0646158" lon="11.8177498"><ele>483.0</ele><time>2026-04-26T13:22:47.857Z</time></trkpt><trkpt lat="43.0647084" lon="11.8175543"><ele>486.0</ele><time>2026-04-26T13:22:48.857Z</time></trkpt><trkpt lat="43.0647711" lon="11.8173273"><ele>489.0</ele><time>2026-04-26T13:22:49.857Z</time></trkpt><trkpt lat="43.0647971" lon="11.8170938"><ele>492.0</ele><time>2026-04-26T13:22:50.856Z</time></trkpt><trkpt lat="43.0647784" lon="11.816849"><ele>492.66666666666663</ele><time>2026-04-26T13:22:51.857Z</time></trkpt><trkpt lat="43.0647485" lon="11.8165989"><ele>493.3333333333333</ele><time>2026-04-26T13:22:52.856Z</time></trkpt><trkpt lat="43.0647154" lon="11.8163611"><ele>494.0</ele><time>2026-04-26T13:22:53.857Z</time></trkpt><trkpt lat="43.0646758" lon="11.8161293"><ele>493.3333333333333</ele><time>2026-04-26T13:22:54.857Z</time></trkpt><trkpt lat="43.0646471" lon="11.8159079"><ele>492.66666666666663</ele><time>2026-04-26T13:22:55.857Z</time></trkpt><trkpt lat="43.064634" lon="11.8156792"><ele>492.0</ele><time>2026-04-26T13:22:56.856Z</time></trkpt><trkpt lat="43.0646399" lon="11.8154421"><ele>492.0</ele><time>2026-04-26T13:22:57.856Z</time></trkpt><trkpt lat="43.0646792" lon="11.8152116"><ele>492.0</ele><time>2026-04-26T13:22:58.857Z</time></trkpt><trkpt lat="43.0647484" lon="11.814992"><ele>492.0</ele><time>2026-04-26T13:22:59.856Z</time></trkpt><trkpt lat="43.0648556" lon="11.8147889"><ele>488.66666666666663</ele><time>2026-04-26T13:23:00.857Z</time></trkpt><trkpt lat="43.0650042" lon="11.8146343"><ele>485.3333333333333</ele><time>2026-04-26T13:23:01.857Z</time></trkpt><trkpt lat="43.0651409" lon="11.8144887"><ele>482.0</ele><time>2026-04-26T13:23:02.857Z</time></trkpt><trkpt lat="43.0652635" lon="11.8143206"><ele>482.0</ele><time>2026-04-26T13:23:03.856Z</time></trkpt><trkpt lat="43.0653562" lon="11.8141251"><ele>482.0</ele><time>2026-04-26T13:23:04.857Z</time></trkpt><trkpt lat="43.0654157" lon="11.8139079"><ele>482.0</ele><time>2026-04-26T13:23:05.857Z</time></trkpt><trkpt lat="43.0654295" lon="11.8136642"><ele>482.66666666666663</ele><time>2026-04-26T13:23:06.857Z</time></trkpt><trkpt lat="43.0653997" lon="11.8134257"><ele>483.33333333333337</ele><time>2026-04-26T13:23:07.856Z</time></trkpt><trkpt lat="43.0653318" lon="11.8132251"><ele>484.0</ele><time>2026-04-26T13:23:08.857Z</time></trkpt><trkpt lat="43.0652387" lon="11.8130344"><ele>484.0</ele><time>2026-04-26T13:23:09.857Z</time></trkpt><trkpt lat="43.065125" lon="11.8128813"><ele>484.0</ele><time>2026-04-26T13:23:10.857Z</time></trkpt><trkpt lat="43.0650063" lon="11.8127383"><ele>484.0</ele><time>2026-04-26T13:23:11.857Z</time></trkpt><trkpt lat="43.0649103" lon="11.8125842"><ele>487.5</ele><time>2026-04-26T13:23:12.856Z</time></trkpt><trkpt lat="43.0648429" lon="11.8124075"><ele>491.0</ele><time>2026-04-26T13:23:13.857Z</time></trkpt><trkpt lat="43.064807" lon="11.8122172"><ele>494.5</ele><time>2026-04-26T13:23:14.857Z</time></trkpt><trkpt lat="43.0647986" lon="11.8120167"><ele>498.0</ele><time>2026-04-26T13:23:15.856Z</time></trkpt><trkpt lat="43.064828" lon="11.8118123"><ele>498.0</ele><time>2026-04-26T13:23:16.857Z</time></trkpt><trkpt lat="43.0649257" lon="11.8116167"><ele>498.0</ele><time>2026-04-26T13:23:17.857Z</time></trkpt><trkpt lat="43.065054" lon="11.8114548"><ele>498.0</ele><time>2026-04-26T13:23:18.857Z</time></trkpt><trkpt lat="43.0652051" lon="11.8113141"><ele>495.0</ele><time>2026-04-26T13:23:19.857Z</time></trkpt><trkpt lat="43.065364" lon="11.811162"><ele>492.0</ele><time>2026-04-26T13:23:20.857Z</time></trkpt><trkpt lat="43.0655234" lon="11.8110004"><ele>489.0</ele><time>2026-04-26T13:23:21.857Z</time></trkpt><trkpt lat="43.0656848" lon="11.8108347"><ele>488.66666666666663</ele><time>2026-04-26T13:23:22.856Z</time></trkpt><trkpt lat="43.0658469" lon="11.8106708"><ele>488.3333333333333</ele><time>2026-04-26T13:23:23.857Z</time></trkpt><trkpt lat="43.0660006" lon="11.8105121"><ele>488.0</ele><time>2026-04-26T13:23:24.857Z</time></trkpt><trkpt lat="43.0661465" lon="11.8103566"><ele>488.0</ele><time>2026-04-26T13:23:25.857Z</time></trkpt><trkpt lat="43.0662948" lon="11.810205"><ele>488.0</ele><time>2026-04-26T13:23:26.857Z</time></trkpt><trkpt lat="43.0664393" lon="11.8100543"><ele>488.0</ele><time>2026-04-26T13:23:27.857Z</time></trkpt><trkpt lat="43.0665839" lon="11.8099098"><ele>487.66666666666663</ele><time>2026-04-26T13:23:28.857Z</time></trkpt><trkpt lat="43.0667285" lon="11.8097783"><ele>487.33333333333337</ele><time>2026-04-26T13:23:29.857Z</time></trkpt><trkpt lat="43.0668685" lon="11.8096481"><ele>487.0</ele><time>2026-04-26T13:23:30.856Z</time></trkpt><trkpt lat="43.0670178" lon="11.809544"><ele>487.0</ele><time>2026-04-26T13:23:31.857Z</time></trkpt><trkpt lat="43.0671637" lon="11.8094597"><ele>487.0</ele><time>2026-04-26T13:23:32.856Z</time></trkpt><trkpt lat="43.0673081" lon="11.8093934"><ele>487.0</ele><time>2026-04-26T13:23:33.857Z</time></trkpt><trkpt lat="43.067429" lon="11.8093312"><ele>487.0</ele><time>2026-04-26T13:23:34.856Z</time></trkpt><trkpt lat="43.0675451" lon="11.8092774"><ele>487.6</ele><time>2026-04-26T13:23:35.857Z</time></trkpt><trkpt lat="43.0676566" lon="11.8092235"><ele>488.20000000000005</ele><time>2026-04-26T13:23:36.856Z</time></trkpt><trkpt lat="43.0677634" lon="11.8091745"><ele>488.8</ele><time>2026-04-26T13:23:37.857Z</time></trkpt><trkpt lat="43.0678629" lon="11.809126"><ele>489.4</ele><time>2026-04-26T13:23:38.857Z</time></trkpt><trkpt lat="43.067953" lon="11.8090733"><ele>490.0</ele><time>2026-04-26T13:23:39.856Z</time></trkpt><trkpt lat="43.0680268" lon="11.8090107"><ele>490.0</ele><time>2026-04-26T13:23:40.857Z</time></trkpt><trkpt lat="43.0681068" lon="11.8089331"><ele>490.0</ele><time>2026-04-26T13:23:41.857Z</time></trkpt><trkpt lat="43.0682065" lon="11.8088626"><ele>490.0</ele><time>2026-04-26T13:23:42.857Z</time></trkpt><trkpt lat="43.0683165" lon="11.8087916"><ele>490.0</ele><time>2026-04-26T13:23:43.857Z</time></trkpt><trkpt lat="43.0684372" lon="11.8087146"><ele>489.0</ele><time>2026-04-26T13:23:44.856Z</time></trkpt><trkpt lat="43.0685568" lon="11.808619"><ele>488.0</ele><time>2026-04-26T13:23:45.856Z</time></trkpt><trkpt lat="43.0686828" lon="11.8085207"><ele>487.0</ele><time>2026-04-26T13:23:46.857Z</time></trkpt><trkpt lat="43.0688146" lon="11.808413"><ele>486.0</ele><time>2026-04-26T13:23:47.856Z</time></trkpt><trkpt lat="43.0689443" lon="11.8083074"><ele>486.33333333333337</ele><time>2026-04-26T13:23:48.857Z</time></trkpt><trkpt lat="43.0690761" lon="11.8081949"><ele>486.6666666666667</ele><time>2026-04-26T13:23:49.857Z</time></trkpt><trkpt lat="43.069213" lon="11.8080793"><ele>487.0</ele><time>2026-04-26T13:23:50.857Z</time></trkpt><trkpt lat="43.0693548" lon="11.8079589"><ele>487.0</ele><time>2026-04-26T13:23:51.856Z</time></trkpt><trkpt lat="43.0694966" lon="11.8078359"><ele>487.0</ele><time>2026-04-26T13:23:52.857Z</time></trkpt><trkpt lat="43.0696404" lon="11.8077123"><ele>487.0</ele><time>2026-04-26T13:23:53.856Z</time></trkpt><trkpt lat="43.0697901" lon="11.8075908"><ele>486.0</ele><time>2026-04-26T13:23:54.856Z</time></trkpt><trkpt lat="43.0699407" lon="11.8074633"><ele>485.0</ele><time>2026-04-26T13:23:55.857Z</time></trkpt><trkpt lat="43.0700959" lon="11.8073451"><ele>484.0</ele><time>2026-04-26T13:23:56.857Z</time></trkpt><trkpt lat="43.0702439" lon="11.8072314"><ele>484.0</ele><time>2026-04-26T13:23:57.857Z</time></trkpt><trkpt lat="43.0703885" lon="11.8071277"><ele>484.0</ele><time>2026-04-26T13:23:58.856Z</time></trkpt><trkpt lat="43.0705229" lon="11.8070294"><ele>484.0</ele><time>2026-04-26T13:23:59.856Z</time></trkpt><trkpt lat="43.0706565" lon="11.8069334"><ele>484.33333333333337</ele><time>2026-04-26T13:24:00.856Z</time></trkpt><trkpt lat="43.0707935" lon="11.8068377"><ele>484.66666666666663</ele><time>2026-04-26T13:24:01.857Z</time></trkpt><trkpt lat="43.0709204" lon="11.8067232"><ele>485.0</ele><time>2026-04-26T13:24:02.857Z</time></trkpt><trkpt lat="43.0710407" lon="11.8065926"><ele>485.0</ele><time>2026-04-26T13:24:03.857Z</time></trkpt><trkpt lat="43.0711445" lon="11.8064257"><ele>485.0</ele><time>2026-04-26T13:24:04.856Z</time></trkpt><trkpt lat="43.0712396" lon="11.8062601"><ele>485.0</ele><time>2026-04-26T13:24:05.857Z</time></trkpt><trkpt lat="43.0713282" lon="11.8060849"><ele>486.0</ele><time>2026-04-26T13:24:06.856Z</time></trkpt><trkpt lat="43.0714105" lon="11.8059017"><ele>487.0</ele><time>2026-04-26T13:24:07.856Z</time></trkpt><trkpt lat="43.0714915" lon="11.8057229"><ele>488.0</ele><time>2026-04-26T13:24:08.857Z</time></trkpt><trkpt lat="43.0715642" lon="11.8055404"><ele>487.3333333333333</ele><time>2026-04-26T13:24:09.857Z</time></trkpt><trkpt lat="43.0716423" lon="11.8053429"><ele>486.66666666666663</ele><time>2026-04-26T13:24:10.857Z</time></trkpt><trkpt lat="43.0717161" lon="11.8051374"><ele>486.0</ele><time>2026-04-26T13:24:11.857Z</time></trkpt><trkpt lat="43.0717895" lon="11.804926"><ele>486.0</ele><time>2026-04-26T13:24:12.857Z</time></trkpt><trkpt lat="43.0718652" lon="11.804705"><ele>486.0</ele><time>2026-04-26T13:24:13.857Z</time></trkpt><trkpt lat="43.0719424" lon="11.8044794"><ele>486.0</ele><time>2026-04-26T13:24:14.857Z</time></trkpt><trkpt lat="43.0720201" lon="11.8042535"><ele>485.66666666666663</ele><time>2026-04-26T13:24:15.857Z</time></trkpt><trkpt lat="43.0720956" lon="11.804021"><ele>485.3333333333333</ele><time>2026-04-26T13:24:16.857Z</time></trkpt><trkpt lat="43.0721735" lon="11.8037841"><ele>485.0</ele><time>2026-04-26T13:24:17.857Z</time></trkpt><trkpt lat="43.0722454" lon="11.8035525"><ele>486.3333333333333</ele><time>2026-04-26T13:24:18.857Z</time></trkpt><trkpt lat="43.0723204" lon="11.803322"><ele>487.66666666666663</ele><time>2026-04-26T13:24:19.857Z</time></trkpt><trkpt lat="43.0723966" lon="11.803092"><ele>489.0</ele><time>2026-04-26T13:24:20.857Z</time></trkpt><trkpt lat="43.0724751" lon="11.8028593"><ele>485.0</ele><time>2026-04-26T13:24:21.857Z</time></trkpt><trkpt lat="43.0725571" lon="11.8026272"><ele>481.0</ele><time>2026-04-26T13:24:22.856Z</time></trkpt><trkpt lat="43.0726353" lon="11.802396"><ele>477.0</ele><time>2026-04-26T13:24:23.857Z</time></trkpt><trkpt lat="43.0727175" lon="11.8021626"><ele>477.0</ele><time>2026-04-26T13:24:24.856Z</time></trkpt><trkpt lat="43.0727936" lon="11.8019206"><ele>477.0</ele><time>2026-04-26T13:24:25.857Z</time></trkpt><trkpt lat="43.0728748" lon="11.8016736"><ele>477.0</ele><time>2026-04-26T13:24:26.857Z</time></trkpt><trkpt lat="43.0729493" lon="11.8014342"><ele>477.0</ele><time>2026-04-26T13:24:27.856Z</time></trkpt><trkpt lat="43.0730204" lon="11.8012044"><ele>477.0</ele><time>2026-04-26T13:24:28.857Z</time></trkpt><trkpt lat="43.0730927" lon="11.800987"><ele>477.0</ele><time>2026-04-26T13:24:29.857Z</time></trkpt><trkpt lat="43.0731592" lon="11.8007775"><ele>478.25</ele><time>2026-04-26T13:24:30.857Z</time></trkpt><trkpt lat="43.0732204" lon="11.8005822"><ele>479.5</ele><time>2026-04-26T13:24:31.856Z</time></trkpt><trkpt lat="43.0732815" lon="11.8004101"><ele>480.75</ele><time>2026-04-26T13:24:32.857Z</time></trkpt><trkpt lat="43.0733629" lon="11.8002559"><ele>482.0</ele><time>2026-04-26T13:24:33.857Z</time></trkpt><trkpt lat="43.0734803" lon="11.8001322"><ele>478.3333333333333</ele><time>2026-04-26T13:24:34.856Z</time></trkpt><trkpt lat="43.0736298" lon="11.8000447"><ele>474.66666666666663</ele><time>2026-04-26T13:24:35.857Z</time></trkpt><trkpt lat="43.0737834" lon="11.7999712"><ele>471.0</ele><time>2026-04-26T13:24:36.857Z</time></trkpt><trkpt lat="43.0739404" lon="11.7999062"><ele>471.0</ele><time>2026-04-26T13:24:37.856Z</time></trkpt><trkpt lat="43.0740964" lon="11.7998446"><ele>471.0</ele><time>2026-04-26T13:24:38.857Z</time></trkpt><trkpt lat="43.0742494" lon="11.7997858"><ele>471.0</ele><time>2026-04-26T13:24:39.857Z</time></trkpt><trkpt lat="43.0744087" lon="11.7997461"><ele>468.66666666666663</ele><time>2026-04-26T13:24:40.857Z</time></trkpt><trkpt lat="43.0745741" lon="11.79974"><ele>466.3333333333333</ele><time>2026-04-26T13:24:41.857Z</time></trkpt><trkpt lat="43.0747326" lon="11.7997944"><ele>464.0</ele><time>2026-04-26T13:24:42.857Z</time></trkpt><trkpt lat="43.074882" lon="11.7999056"><ele>464.66666666666663</ele><time>2026-04-26T13:24:43.857Z</time></trkpt><trkpt lat="43.0750022" lon="11.8000673"><ele>465.33333333333337</ele><time>2026-04-26T13:24:44.857Z</time></trkpt><trkpt lat="43.0750883" lon="11.8002693"><ele>466.0</ele><time>2026-04-26T13:24:45.857Z</time></trkpt><trkpt lat="43.0751634" lon="11.8004736"><ele>466.0</ele><time>2026-04-26T13:24:46.856Z</time></trkpt><trkpt lat="43.0752381" lon="11.8006596"><ele>466.0</ele><time>2026-04-26T13:24:47.856Z</time></trkpt><trkpt lat="43.0753124" lon="11.8008277"><ele>466.0</ele><time>2026-04-26T13:24:48.857Z</time></trkpt><trkpt lat="43.075399" lon="11.8009635"><ele>466.0</ele><time>2026-04-26T13:24:49.857Z</time></trkpt><trkpt lat="43.0754969" lon="11.8010398"><ele>465.20000000000005</ele><time>2026-04-26T13:24:50.857Z</time></trkpt><trkpt lat="43.0756018" lon="11.8010511"><ele>464.40000000000003</ele><time>2026-04-26T13:24:51.857Z</time></trkpt><trkpt lat="43.0757158" lon="11.8010033"><ele>463.6</ele><time>2026-04-26T13:24:52.857Z</time></trkpt><trkpt lat="43.0757792" lon="11.8008999"><ele>462.8</ele><time>2026-04-26T13:24:53.857Z</time></trkpt><trkpt lat="43.075813" lon="11.800745"><ele>462.0</ele><time>2026-04-26T13:24:54.856Z</time></trkpt><trkpt lat="43.0757979" lon="11.8005718"><ele>463.0</ele><time>2026-04-26T13:24:55.857Z</time></trkpt><trkpt lat="43.0757447" lon="11.800391"><ele>464.0</ele><time>2026-04-26T13:24:56.857Z</time></trkpt><trkpt lat="43.075689" lon="11.8002006"><ele>465.0</ele><time>2026-04-26T13:24:57.857Z</time></trkpt><trkpt lat="43.0756259" lon="11.8000036"><ele>466.0</ele><time>2026-04-26T13:24:58.857Z</time></trkpt><trkpt lat="43.0755591" lon="11.7997903"><ele>468.33333333333337</ele><time>2026-04-26T13:24:59.857Z</time></trkpt><trkpt lat="43.075488" lon="11.7995835"><ele>470.66666666666663</ele><time>2026-04-26T13:25:00.857Z</time></trkpt><trkpt lat="43.0754035" lon="11.7993691"><ele>473.0</ele><time>2026-04-26T13:25:01.857Z</time></trkpt><trkpt lat="43.0753103" lon="11.799154"><ele>475.66666666666663</ele><time>2026-04-26T13:25:02.857Z</time></trkpt><trkpt lat="43.0752042" lon="11.7989449"><ele>478.33333333333337</ele><time>2026-04-26T13:25:03.856Z</time></trkpt><trkpt lat="43.0750981" lon="11.7987356"><ele>481.0</ele><time>2026-04-26T13:25:04.857Z</time></trkpt><trkpt lat="43.0750011" lon="11.7985354"><ele>479.0</ele><time>2026-04-26T13:25:05.857Z</time></trkpt><trkpt lat="43.0749125" lon="11.7983386"><ele>477.0</ele><time>2026-04-26T13:25:06.856Z</time></trkpt><trkpt lat="43.0748356" lon="11.7981338"><ele>475.0</ele><time>2026-04-26T13:25:07.856Z</time></trkpt><trkpt lat="43.0747747" lon="11.7979153"><ele>475.0</ele><time>2026-04-26T13:25:08.857Z</time></trkpt><trkpt lat="43.0747381" lon="11.7976885"><ele>475.0</ele><time>2026-04-26T13:25:09.856Z</time></trkpt><trkpt lat="43.0747354" lon="11.7974459"><ele>475.0</ele><time>2026-04-26T13:25:10.857Z</time></trkpt><trkpt lat="43.0747566" lon="11.7971901"><ele>476.33333333333337</ele><time>2026-04-26T13:25:11.857Z</time></trkpt><trkpt lat="43.0748007" lon="11.7969345"><ele>477.66666666666663</ele><time>2026-04-26T13:25:12.857Z</time></trkpt><trkpt lat="43.0748532" lon="11.7967018"><ele>479.0</ele><time>2026-04-26T13:25:13.857Z</time></trkpt><trkpt lat="43.0749095" lon="11.7964783"><ele>488.3333333333333</ele><time>2026-04-26T13:25:14.857Z</time></trkpt><trkpt lat="43.0749744" lon="11.7962693"><ele>497.66666666666663</ele><time>2026-04-26T13:25:15.857Z</time></trkpt><trkpt lat="43.0750292" lon="11.7960646"><ele>507.0</ele><time>2026-04-26T13:25:16.856Z</time></trkpt><trkpt lat="43.0750729" lon="11.7958699"><ele>507.5</ele><time>2026-04-26T13:25:17.857Z</time></trkpt><trkpt lat="43.0751028" lon="11.7956822"><ele>508.0</ele><time>2026-04-26T13:25:18.857Z</time></trkpt><trkpt lat="43.0750915" lon="11.7954955"><ele>508.5</ele><time>2026-04-26T13:25:19.857Z</time></trkpt><trkpt lat="43.0750355" lon="11.7953123"><ele>509.0</ele><time>2026-04-26T13:25:20.857Z</time></trkpt><trkpt lat="43.0749268" lon="11.7951597"><ele>509.0</ele><time>2026-04-26T13:25:21.857Z</time></trkpt><trkpt lat="43.0747905" lon="11.7950369"><ele>509.0</ele><time>2026-04-26T13:25:22.857Z</time></trkpt><trkpt lat="43.0746243" lon="11.7949561"><ele>509.0</ele><time>2026-04-26T13:25:23.857Z</time></trkpt><trkpt lat="43.0744526" lon="11.7948993"><ele>509.0</ele><time>2026-04-26T13:25:24.857Z</time></trkpt><trkpt lat="43.0742766" lon="11.7948438"><ele>509.0</ele><time>2026-04-26T13:25:25.857Z</time></trkpt><trkpt lat="43.0741016" lon="11.7947892"><ele>509.0</ele><time>2026-04-26T13:25:26.856Z</time></trkpt><trkpt lat="43.0739376" lon="11.7947318"><ele>508.0</ele><time>2026-04-26T13:25:27.857Z</time></trkpt><trkpt lat="43.07378" lon="11.7946709"><ele>507.0</ele><time>2026-04-26T13:25:28.857Z</time></trkpt><trkpt lat="43.0736218" lon="11.7946086"><ele>506.0</ele><time>2026-04-26T13:25:29.857Z</time></trkpt><trkpt lat="43.0734636" lon="11.7945355"><ele>506.0</ele><time>2026-04-26T13:25:30.857Z</time></trkpt><trkpt lat="43.0733187" lon="11.7944102"><ele>506.0</ele><time>2026-04-26T13:25:31.856Z</time></trkpt><trkpt lat="43.0731844" lon="11.7942385"><ele>506.0</ele><time>2026-04-26T13:25:32.856Z</time></trkpt><trkpt lat="43.0730638" lon="11.7940464"><ele>506.0</ele><time>2026-04-26T13:25:33.857Z</time></trkpt><trkpt lat="43.0729493" lon="11.793865"><ele>506.0</ele><time>2026-04-26T13:25:34.857Z</time></trkpt><trkpt lat="43.0728379" lon="11.7936975"><ele>506.0</ele><time>2026-04-26T13:25:35.857Z</time></trkpt><trkpt lat="43.0727514" lon="11.7935057"><ele>509.66666666666663</ele><time>2026-04-26T13:25:36.857Z</time></trkpt><trkpt lat="43.0726831" lon="11.793301"><ele>513.3333333333334</ele><time>2026-04-26T13:25:37.856Z</time></trkpt><trkpt lat="43.0726379" lon="11.7930783"><ele>517.0</ele><time>2026-04-26T13:25:38.857Z</time></trkpt><trkpt lat="43.0726185" lon="11.792845"><ele>517.0</ele><time>2026-04-26T13:25:39.857Z</time></trkpt><trkpt lat="43.0726233" lon="11.7926213"><ele>517.0</ele><time>2026-04-26T13:25:40.857Z</time></trkpt><trkpt lat="43.0726697" lon="11.7924116"><ele>517.0</ele><time>2026-04-26T13:25:41.857Z</time></trkpt><trkpt lat="43.0727657" lon="11.7922248"><ele>517.0</ele><time>2026-04-26T13:25:42.856Z</time></trkpt><trkpt lat="43.0729028" lon="11.7920765"><ele>517.0</ele><time>2026-04-26T13:25:43.856Z</time></trkpt><trkpt lat="43.0730643" lon="11.79197"><ele>517.0</ele><time>2026-04-26T13:25:44.856Z</time></trkpt><trkpt lat="43.0732405" lon="11.7918915"><ele>519.6666666666667</ele><time>2026-04-26T13:25:45.855Z</time></trkpt><trkpt lat="43.0734221" lon="11.7918333"><ele>522.3333333333334</ele><time>2026-04-26T13:25:46.855Z</time></trkpt><trkpt lat="43.0736133" lon="11.7917813"><ele>525.0</ele><time>2026-04-26T13:25:47.856Z</time></trkpt><trkpt lat="43.073811" lon="11.7917232"><ele>525.0</ele><time>2026-04-26T13:25:48.856Z</time></trkpt><trkpt lat="43.0740015" lon="11.7916408"><ele>525.0</ele><time>2026-04-26T13:25:49.856Z</time></trkpt><trkpt lat="43.0741834" lon="11.7915326"><ele>525.0</ele><time>2026-04-26T13:25:50.856Z</time></trkpt><trkpt lat="43.0743585" lon="11.7914135"><ele>529.6666666666666</ele><time>2026-04-26T13:25:51.856Z</time></trkpt><trkpt lat="43.0745328" lon="11.7912953"><ele>534.3333333333333</ele><time>2026-04-26T13:25:52.856Z</time></trkpt><trkpt lat="43.0746943" lon="11.7911834"><ele>539.0</ele><time>2026-04-26T13:25:53.856Z</time></trkpt><trkpt lat="43.074843" lon="11.7910766"><ele>539.5</ele><time>2026-04-26T13:25:54.855Z</time></trkpt><trkpt lat="43.0749747" lon="11.790981"><ele>540.0</ele><time>2026-04-26T13:25:55.856Z</time></trkpt><trkpt lat="43.075091" lon="11.7908674"><ele>540.5</ele><time>2026-04-26T13:25:56.856Z</time></trkpt><trkpt lat="43.0751746" lon="11.7907312"><ele>541.0</ele><time>2026-04-26T13:25:57.855Z</time></trkpt><trkpt lat="43.0751993" lon="11.7905711"><ele>541.0</ele><time>2026-04-26T13:25:58.856Z</time></trkpt><trkpt lat="43.0751738" lon="11.7904002"><ele>541.0</ele><time>2026-04-26T13:25:59.856Z</time></trkpt><trkpt lat="43.0751074" lon="11.7902262"><ele>541.0</ele><time>2026-04-26T13:26:00.856Z</time></trkpt><trkpt lat="43.0750232" lon="11.7900545"><ele>541.0</ele><time>2026-04-26T13:26:01.856Z</time></trkpt><trkpt lat="43.0749337" lon="11.7898754"><ele>537.6666666666667</ele><time>2026-04-26T13:26:02.856Z</time></trkpt><trkpt lat="43.0748316" lon="11.7896997"><ele>534.3333333333334</ele><time>2026-04-26T13:26:03.855Z</time></trkpt><trkpt lat="43.0747147" lon="11.7895344"><ele>531.0</ele><time>2026-04-26T13:26:04.856Z</time></trkpt><trkpt lat="43.0745959" lon="11.7893776"><ele>533.5</ele><time>2026-04-26T13:26:05.855Z</time></trkpt><trkpt lat="43.0744888" lon="11.7892321"><ele>536.0</ele><time>2026-04-26T13:26:06.856Z</time></trkpt><trkpt lat="43.0744009" lon="11.7890829"><ele>538.5</ele><time>2026-04-26T13:26:07.856Z</time></trkpt><trkpt lat="43.0743319" lon="11.7889098"><ele>541.0</ele><time>2026-04-26T13:26:08.855Z</time></trkpt><trkpt lat="43.074299" lon="11.7887129"><ele>541.3333333333334</ele><time>2026-04-26T13:26:09.856Z</time></trkpt><trkpt lat="43.0743085" lon="11.788506"><ele>541.6666666666666</ele><time>2026-04-26T13:26:10.856Z</time></trkpt><trkpt lat="43.0743627" lon="11.7883028"><ele>542.0</ele><time>2026-04-26T13:26:11.856Z</time></trkpt><trkpt lat="43.0744449" lon="11.7881109"><ele>542.0</ele><time>2026-04-26T13:26:12.856Z</time></trkpt><trkpt lat="43.0745366" lon="11.7879245"><ele>542.0</ele><time>2026-04-26T13:26:13.855Z</time></trkpt><trkpt lat="43.0746327" lon="11.7877262"><ele>542.0</ele><time>2026-04-26T13:26:14.856Z</time></trkpt><trkpt lat="43.074739" lon="11.7875366"><ele>542.0</ele><time>2026-04-26T13:26:15.856Z</time></trkpt><trkpt lat="43.0748655" lon="11.7873765"><ele>542.0</ele><time>2026-04-26T13:26:16.855Z</time></trkpt><trkpt lat="43.0750062" lon="11.7872432"><ele>542.0</ele><time>2026-04-26T13:26:17.856Z</time></trkpt><trkpt lat="43.0751497" lon="11.787172"><ele>545.5</ele><time>2026-04-26T13:26:18.855Z</time></trkpt><trkpt lat="43.0752825" lon="11.7871072"><ele>549.0</ele><time>2026-04-26T13:26:19.855Z</time></trkpt><trkpt lat="43.0754015" lon="11.7870124"><ele>552.5</ele><time>2026-04-26T13:26:20.855Z</time></trkpt><trkpt lat="43.0755101" lon="11.7868662"><ele>556.0</ele><time>2026-04-26T13:26:21.855Z</time></trkpt><trkpt lat="43.0756085" lon="11.786691"><ele>555.3333333333334</ele><time>2026-04-26T13:26:22.856Z</time></trkpt><trkpt lat="43.0757066" lon="11.7865072"><ele>554.6666666666666</ele><time>2026-04-26T13:26:23.856Z</time></trkpt><trkpt lat="43.0758021" lon="11.7863225"><ele>554.0</ele><time>2026-04-26T13:26:24.856Z</time></trkpt><trkpt lat="43.0758996" lon="11.7861484"><ele>558.25</ele><time>2026-04-26T13:26:25.856Z</time></trkpt><trkpt lat="43.075999" lon="11.7859855"><ele>562.5</ele><time>2026-04-26T13:26:26.856Z</time></trkpt><trkpt lat="43.0760902" lon="11.7858259"><ele>566.75</ele><time>2026-04-26T13:26:27.855Z</time></trkpt><trkpt lat="43.0761715" lon="11.7856603"><ele>571.0</ele><time>2026-04-26T13:26:28.856Z</time></trkpt><trkpt lat="43.0762417" lon="11.7855013"><ele>571.0</ele><time>2026-04-26T13:26:29.856Z</time></trkpt><trkpt lat="43.0763113" lon="11.7853268"><ele>571.0</ele><time>2026-04-26T13:26:30.856Z</time></trkpt><trkpt lat="43.0763714" lon="11.7851441"><ele>571.0</ele><time>2026-04-26T13:26:31.856Z</time></trkpt><trkpt lat="43.0764243" lon="11.784952"><ele>571.0</ele><time>2026-04-26T13:26:32.856Z</time></trkpt><trkpt lat="43.0764778" lon="11.7847622"><ele>567.3333333333334</ele><time>2026-04-26T13:26:33.855Z</time></trkpt><trkpt lat="43.0765461" lon="11.7845683"><ele>563.6666666666666</ele><time>2026-04-26T13:26:34.856Z</time></trkpt><trkpt lat="43.0766231" lon="11.7843791"><ele>560.0</ele><time>2026-04-26T13:26:35.855Z</time></trkpt><trkpt lat="43.076702" lon="11.784196"><ele>560.0</ele><time>2026-04-26T13:26:36.855Z</time></trkpt><trkpt lat="43.0767868" lon="11.7840077"><ele>560.0</ele><time>2026-04-26T13:26:37.856Z</time></trkpt><trkpt lat="43.0768796" lon="11.7838275"><ele>560.0</ele><time>2026-04-26T13:26:38.856Z</time></trkpt><trkpt lat="43.076974" lon="11.7836732"><ele>560.0</ele><time>2026-04-26T13:26:39.856Z</time></trkpt><trkpt lat="43.07706" lon="11.783526"><ele>560.0</ele><time>2026-04-26T13:26:40.856Z</time></trkpt><trkpt lat="43.077139" lon="11.7833857"><ele>560.0</ele><time>2026-04-26T13:26:41.856Z</time></trkpt><trkpt lat="43.0772266" lon="11.7832541"><ele>560.0</ele><time>2026-04-26T13:26:42.856Z</time></trkpt><trkpt lat="43.0773081" lon="11.7831219"><ele>561.0</ele><time>2026-04-26T13:26:43.855Z</time></trkpt><trkpt lat="43.0773896" lon="11.7829905"><ele>562.0</ele><time>2026-04-26T13:26:44.856Z</time></trkpt><trkpt lat="43.0774783" lon="11.7828579"><ele>563.0</ele><time>2026-04-26T13:26:45.856Z</time></trkpt><trkpt lat="43.0775778" lon="11.7827342"><ele>564.0</ele><time>2026-04-26T13:26:46.855Z</time></trkpt><trkpt lat="43.0777004" lon="11.7826244"><ele>559.3333333333334</ele><time>2026-04-26T13:26:47.855Z</time></trkpt><trkpt lat="43.0778392" lon="11.7825462"><ele>554.6666666666667</ele><time>2026-04-26T13:26:48.856Z</time></trkpt><trkpt lat="43.077989" lon="11.7824807"><ele>550.0</ele><time>2026-04-26T13:26:49.855Z</time></trkpt><trkpt lat="43.0781378" lon="11.7824237"><ele>547.6666666666667</ele><time>2026-04-26T13:26:50.855Z</time></trkpt><trkpt lat="43.0782869" lon="11.7823687"><ele>545.3333333333334</ele><time>2026-04-26T13:26:51.855Z</time></trkpt><trkpt lat="43.0784361" lon="11.7823117"><ele>543.0</ele><time>2026-04-26T13:26:52.855Z</time></trkpt><trkpt lat="43.0785868" lon="11.7822555"><ele>543.0</ele><time>2026-04-26T13:26:53.855Z</time></trkpt><trkpt lat="43.0787503" lon="11.7821918"><ele>543.0</ele><time>2026-04-26T13:26:54.856Z</time></trkpt><trkpt lat="43.078939" lon="11.7821102"><ele>543.0</ele><time>2026-04-26T13:26:55.856Z</time></trkpt><trkpt lat="43.0791435" lon="11.7820233"><ele>544.0</ele><time>2026-04-26T13:26:56.855Z</time></trkpt><trkpt lat="43.0793496" lon="11.7819591"><ele>545.0</ele><time>2026-04-26T13:26:57.856Z</time></trkpt><trkpt lat="43.0795432" lon="11.7818997"><ele>546.0</ele><time>2026-04-26T13:26:58.855Z</time></trkpt><trkpt lat="43.0797284" lon="11.7818287"><ele>546.0</ele><time>2026-04-26T13:26:59.856Z</time></trkpt><trkpt lat="43.0799058" lon="11.7817513"><ele>546.0</ele><time>2026-04-26T13:27:00.856Z</time></trkpt><trkpt lat="43.0800794" lon="11.7816379"><ele>546.0</ele><time>2026-04-26T13:27:01.856Z</time></trkpt><trkpt lat="43.0802503" lon="11.781487"><ele>546.3333333333334</ele><time>2026-04-26T13:27:02.856Z</time></trkpt><trkpt lat="43.0804249" lon="11.7813298"><ele>546.6666666666667</ele><time>2026-04-26T13:27:03.856Z</time></trkpt><trkpt lat="43.0805891" lon="11.7811669"><ele>547.0</ele><time>2026-04-26T13:27:04.856Z</time></trkpt><trkpt lat="43.0807435" lon="11.7810004"><ele>544.0</ele><time>2026-04-26T13:27:05.855Z</time></trkpt><trkpt lat="43.0808907" lon="11.780839"><ele>541.0</ele><time>2026-04-26T13:27:06.856Z</time></trkpt><trkpt lat="43.081031" lon="11.7806808"><ele>538.0</ele><time>2026-04-26T13:27:07.856Z</time></trkpt><trkpt lat="43.0811619" lon="11.7805115"><ele>538.0</ele><time>2026-04-26T13:27:08.856Z</time></trkpt><trkpt lat="43.0812786" lon="11.780343"><ele>538.0</ele><time>2026-04-26T13:27:09.855Z</time></trkpt><trkpt lat="43.0813892" lon="11.7801694"><ele>538.0</ele><time>2026-04-26T13:27:10.856Z</time></trkpt><trkpt lat="43.0814947" lon="11.7800042"><ele>535.6666666666667</ele><time>2026-04-26T13:27:11.856Z</time></trkpt><trkpt lat="43.0815951" lon="11.7798387"><ele>533.3333333333334</ele><time>2026-04-26T13:27:12.856Z</time></trkpt><trkpt lat="43.0816938" lon="11.7796799"><ele>531.0</ele><time>2026-04-26T13:27:13.855Z</time></trkpt><trkpt lat="43.0818052" lon="11.7795346"><ele>531.0</ele><time>2026-04-26T13:27:14.856Z</time></trkpt><trkpt lat="43.081927" lon="11.7794037"><ele>531.0</ele><time>2026-04-26T13:27:15.855Z</time></trkpt><trkpt lat="43.0820608" lon="11.7792935"><ele>531.0</ele><time>2026-04-26T13:27:16.856Z</time></trkpt><trkpt lat="43.0822124" lon="11.7792044"><ele>531.0</ele><time>2026-04-26T13:27:17.856Z</time></trkpt><trkpt lat="43.0823688" lon="11.7791287"><ele>531.0</ele><time>2026-04-26T13:27:18.856Z</time></trkpt><trkpt lat="43.0825385" lon="11.7790669"><ele>531.0</ele><time>2026-04-26T13:27:19.856Z</time></trkpt><trkpt lat="43.0827129" lon="11.7790263"><ele>529.0</ele><time>2026-04-26T13:27:20.856Z</time></trkpt><trkpt lat="43.0828923" lon="11.7790072"><ele>527.0</ele><time>2026-04-26T13:27:21.856Z</time></trkpt><trkpt lat="43.083067" lon="11.7790016"><ele>525.0</ele><time>2026-04-26T13:27:22.856Z</time></trkpt><trkpt lat="43.0832345" lon="11.779017"><ele>523.0</ele><time>2026-04-26T13:27:23.856Z</time></trkpt><trkpt lat="43.0833951" lon="11.7790412"><ele>521.0</ele><time>2026-04-26T13:27:24.856Z</time></trkpt><trkpt lat="43.083556" lon="11.7790672"><ele>519.0</ele><time>2026-04-26T13:27:25.856Z</time></trkpt><trkpt lat="43.0837124" lon="11.7790804"><ele>519.0</ele><time>2026-04-26T13:27:26.856Z</time></trkpt><trkpt lat="43.0838649" lon="11.7790628"><ele>519.0</ele><time>2026-04-26T13:27:27.855Z</time></trkpt><trkpt lat="43.0840178" lon="11.7790066"><ele>519.0</ele><time>2026-04-26T13:27:28.855Z</time></trkpt><trkpt lat="43.0841625" lon="11.7789059"><ele>516.6666666666666</ele><time>2026-04-26T13:27:29.855Z</time></trkpt><trkpt lat="43.0842954" lon="11.7787651"><ele>514.3333333333333</ele><time>2026-04-26T13:27:30.856Z</time></trkpt><trkpt lat="43.0844333" lon="11.7786218"><ele>512.0</ele><time>2026-04-26T13:27:31.856Z</time></trkpt><trkpt lat="43.0845806" lon="11.7784797"><ele>512.3333333333333</ele><time>2026-04-26T13:27:32.855Z</time></trkpt><trkpt lat="43.0847251" lon="11.7783253"><ele>512.6666666666666</ele><time>2026-04-26T13:27:33.856Z</time></trkpt><trkpt lat="43.0848716" lon="11.7781864"><ele>513.0</ele><time>2026-04-26T13:27:34.855Z</time></trkpt><trkpt lat="43.0850271" lon="11.7780591"><ele>513.0</ele><time>2026-04-26T13:27:35.856Z</time></trkpt><trkpt lat="43.0851764" lon="11.7779465"><ele>513.0</ele><time>2026-04-26T13:27:36.856Z</time></trkpt><trkpt lat="43.0853314" lon="11.7778345"><ele>513.0</ele><time>2026-04-26T13:27:37.855Z</time></trkpt><trkpt lat="43.0854803" lon="11.7777295"><ele>511.0</ele><time>2026-04-26T13:27:38.856Z</time></trkpt><trkpt lat="43.0856231" lon="11.7776215"><ele>509.0</ele><time>2026-04-26T13:27:39.855Z</time></trkpt><trkpt lat="43.0857609" lon="11.7775197"><ele>507.0</ele><time>2026-04-26T13:27:40.856Z</time></trkpt><trkpt lat="43.0858926" lon="11.7773984"><ele>507.0</ele><time>2026-04-26T13:27:41.856Z</time></trkpt><trkpt lat="43.0860127" lon="11.7772637"><ele>507.0</ele><time>2026-04-26T13:27:42.856Z</time></trkpt><trkpt lat="43.0861279" lon="11.7771226"><ele>507.0</ele><time>2026-04-26T13:27:43.856Z</time></trkpt><trkpt lat="43.0862476" lon="11.7769865"><ele>507.0</ele><time>2026-04-26T13:27:44.856Z</time></trkpt><trkpt lat="43.086361" lon="11.7768577"><ele>507.0</ele><time>2026-04-26T13:27:45.856Z</time></trkpt><trkpt lat="43.0864733" lon="11.7767372"><ele>507.0</ele><time>2026-04-26T13:27:46.855Z</time></trkpt><trkpt lat="43.0865897" lon="11.7766264"><ele>507.0</ele><time>2026-04-26T13:27:47.855Z</time></trkpt><trkpt lat="43.0867097" lon="11.7765241"><ele>506.25</ele><time>2026-04-26T13:27:48.856Z</time></trkpt><trkpt lat="43.0868231" lon="11.7764278"><ele>505.5</ele><time>2026-04-26T13:27:49.855Z</time></trkpt><trkpt lat="43.0869321" lon="11.7763468"><ele>504.75</ele><time>2026-04-26T13:27:50.855Z</time></trkpt><trkpt lat="43.0870371" lon="11.7762687"><ele>504.0</ele><time>2026-04-26T13:27:51.856Z</time></trkpt><trkpt lat="43.0871318" lon="11.7762036"><ele>504.0</ele><time>2026-04-26T13:27:52.856Z</time></trkpt><trkpt lat="43.0872109" lon="11.7761656"><ele>504.0</ele><time>2026-04-26T13:27:53.856Z</time></trkpt><trkpt lat="43.0872852" lon="11.7761699"><ele>504.0</ele><time>2026-04-26T13:27:54.856Z</time></trkpt><trkpt lat="43.0873516" lon="11.7762157"><ele>504.0</ele><time>2026-04-26T13:27:55.856Z</time></trkpt><trkpt lat="43.0873943" lon="11.7762934"><ele>504.0</ele><time>2026-04-26T13:27:56.855Z</time></trkpt><trkpt lat="43.0874198" lon="11.7764155"><ele>504.0</ele><time>2026-04-26T13:27:57.856Z</time></trkpt><trkpt lat="43.087438" lon="11.7765573"><ele>505.75</ele><time>2026-04-26T13:27:58.856Z</time></trkpt><trkpt lat="43.0874562" lon="11.7767098"><ele>507.5</ele><time>2026-04-26T13:27:59.856Z</time></trkpt><trkpt lat="43.0874821" lon="11.776875"><ele>509.25</ele><time>2026-04-26T13:28:00.856Z</time></trkpt><trkpt lat="43.0875264" lon="11.777042"><ele>511.0</ele><time>2026-04-26T13:28:01.856Z</time></trkpt><trkpt lat="43.087574" lon="11.7772189"><ele>511.0</ele><time>2026-04-26T13:28:02.856Z</time></trkpt><trkpt lat="43.0876364" lon="11.7773883"><ele>511.0</ele><time>2026-04-26T13:28:03.856Z</time></trkpt><trkpt lat="43.0876996" lon="11.7775622"><ele>511.0</ele><time>2026-04-26T13:28:04.856Z</time></trkpt><trkpt lat="43.0877545" lon="11.7777261"><ele>511.0</ele><time>2026-04-26T13:28:05.855Z</time></trkpt><trkpt lat="43.0877909" lon="11.7778962"><ele>509.75</ele><time>2026-04-26T13:28:06.855Z</time></trkpt><trkpt lat="43.087821" lon="11.7780611"><ele>508.5</ele><time>2026-04-26T13:28:07.855Z</time></trkpt><trkpt lat="43.0878422" lon="11.7782222"><ele>507.25</ele><time>2026-04-26T13:28:08.855Z</time></trkpt><trkpt lat="43.0878614" lon="11.7783919"><ele>506.0</ele><time>2026-04-26T13:28:09.856Z</time></trkpt><trkpt lat="43.0878868" lon="11.7785614"><ele>504.25</ele><time>2026-04-26T13:28:10.856Z</time></trkpt><trkpt lat="43.08793" lon="11.7787317"><ele>502.5</ele><time>2026-04-26T13:28:11.856Z</time></trkpt><trkpt lat="43.0879956" lon="11.7788937"><ele>500.75</ele><time>2026-04-26T13:28:12.856Z</time></trkpt><trkpt lat="43.0880764" lon="11.7790512"><ele>499.0</ele><time>2026-04-26T13:28:13.855Z</time></trkpt><trkpt lat="43.0881689" lon="11.7791963"><ele>502.75</ele><time>2026-04-26T13:28:14.855Z</time></trkpt><trkpt lat="43.0882649" lon="11.7793285"><ele>506.5</ele><time>2026-04-26T13:28:15.855Z</time></trkpt><trkpt lat="43.0883673" lon="11.7794539"><ele>510.25</ele><time>2026-04-26T13:28:16.855Z</time></trkpt><trkpt lat="43.0884733" lon="11.7795909"><ele>514.0</ele><time>2026-04-26T13:28:17.856Z</time></trkpt><trkpt lat="43.0885843" lon="11.7797392"><ele>514.0</ele><time>2026-04-26T13:28:18.855Z</time></trkpt><trkpt lat="43.0886781" lon="11.7798892"><ele>514.0</ele><time>2026-04-26T13:28:19.855Z</time></trkpt><trkpt lat="43.0887674" lon="11.7800406"><ele>514.0</ele><time>2026-04-26T13:28:20.856Z</time></trkpt><trkpt lat="43.0888533" lon="11.780188"><ele>514.0</ele><time>2026-04-26T13:28:21.856Z</time></trkpt><trkpt lat="43.0889493" lon="11.7803284"><ele>511.25</ele><time>2026-04-26T13:28:22.856Z</time></trkpt><trkpt lat="43.0890404" lon="11.7804707"><ele>508.5</ele><time>2026-04-26T13:28:23.856Z</time></trkpt><trkpt lat="43.0891196" lon="11.780637"><ele>505.75</ele><time>2026-04-26T13:28:24.856Z</time></trkpt><trkpt lat="43.0891861" lon="11.780816"><ele>503.0</ele><time>2026-04-26T13:28:25.856Z</time></trkpt><trkpt lat="43.0892495" lon="11.7809953"><ele>507.5</ele><time>2026-04-26T13:28:26.855Z</time></trkpt><trkpt lat="43.0892992" lon="11.7811745"><ele>512.0</ele><time>2026-04-26T13:28:27.856Z</time></trkpt><trkpt lat="43.0893328" lon="11.7813488"><ele>516.5</ele><time>2026-04-26T13:28:28.856Z</time></trkpt><trkpt lat="43.0893504" lon="11.7815122"><ele>521.0</ele><time>2026-04-26T13:28:29.856Z</time></trkpt><trkpt lat="43.0893598" lon="11.7816753"><ele>521.0</ele><time>2026-04-26T13:28:30.856Z</time></trkpt><trkpt lat="43.0893614" lon="11.7818305"><ele>521.0</ele><time>2026-04-26T13:28:31.856Z</time></trkpt><trkpt lat="43.0893655" lon="11.7819729"><ele>521.0</ele><time>2026-04-26T13:28:32.856Z</time></trkpt><trkpt lat="43.0893806" lon="11.782108"><ele>521.0</ele><time>2026-04-26T13:28:33.856Z</time></trkpt><trkpt lat="43.0894081" lon="11.7822339"><ele>521.0</ele><time>2026-04-26T13:28:34.855Z</time></trkpt><trkpt lat="43.0894595" lon="11.7823394"><ele>517.8</ele><time>2026-04-26T13:28:35.856Z</time></trkpt><trkpt lat="43.0895221" lon="11.7824274"><ele>514.6</ele><time>2026-04-26T13:28:36.856Z</time></trkpt><trkpt lat="43.0896018" lon="11.7824845"><ele>511.4</ele><time>2026-04-26T13:28:37.856Z</time></trkpt><trkpt lat="43.0896926" lon="11.7825339"><ele>508.2</ele><time>2026-04-26T13:28:38.856Z</time></trkpt><trkpt lat="43.0897878" lon="11.7825682"><ele>505.0</ele><time>2026-04-26T13:28:39.856Z</time></trkpt><trkpt lat="43.0898918" lon="11.7825757"><ele>512.75</ele><time>2026-04-26T13:28:40.856Z</time></trkpt><trkpt lat="43.0899998" lon="11.7825816"><ele>520.5</ele><time>2026-04-26T13:28:41.856Z</time></trkpt><trkpt lat="43.0901134" lon="11.7825895"><ele>528.25</ele><time>2026-04-26T13:28:42.856Z</time></trkpt><trkpt lat="43.090232" lon="11.7826064"><ele>536.0</ele><time>2026-04-26T13:28:43.855Z</time></trkpt><trkpt lat="43.0903542" lon="11.7826493"><ele>532.75</ele><time>2026-04-26T13:28:44.856Z</time></trkpt><trkpt lat="43.0904724" lon="11.7827123"><ele>529.5</ele><time>2026-04-26T13:28:45.856Z</time></trkpt><trkpt lat="43.0905863" lon="11.7827849"><ele>526.25</ele><time>2026-04-26T13:28:46.856Z</time></trkpt><trkpt lat="43.0907005" lon="11.7828686"><ele>523.0</ele><time>2026-04-26T13:28:47.856Z</time></trkpt><trkpt lat="43.0908019" lon="11.7829585"><ele>523.0</ele><time>2026-04-26T13:28:48.856Z</time></trkpt><trkpt lat="43.0908956" lon="11.7830535"><ele>523.0</ele><time>2026-04-26T13:28:49.856Z</time></trkpt><trkpt lat="43.09099" lon="11.7831453"><ele>523.0</ele><time>2026-04-26T13:28:50.856Z</time></trkpt><trkpt lat="43.0910913" lon="11.7832323"><ele>523.0</ele><time>2026-04-26T13:28:51.856Z</time></trkpt><trkpt lat="43.0912034" lon="11.7832974"><ele>523.0</ele><time>2026-04-26T13:28:52.856Z</time></trkpt><trkpt lat="43.0913238" lon="11.7833498"><ele>523.0</ele><time>2026-04-26T13:28:53.856Z</time></trkpt><trkpt lat="43.0914515" lon="11.7833935"><ele>523.0</ele><time>2026-04-26T13:28:54.856Z</time></trkpt><trkpt lat="43.0915794" lon="11.783429"><ele>523.0</ele><time>2026-04-26T13:28:55.856Z</time></trkpt><trkpt lat="43.0917025" lon="11.7834759"><ele>523.0</ele><time>2026-04-26T13:28:56.856Z</time></trkpt><trkpt lat="43.0918318" lon="11.7835277"><ele>523.0</ele><time>2026-04-26T13:28:57.855Z</time></trkpt><trkpt lat="43.0919576" lon="11.7835976"><ele>523.0</ele><time>2026-04-26T13:28:58.856Z</time></trkpt><trkpt lat="43.0920835" lon="11.7836738"><ele>523.0</ele><time>2026-04-26T13:28:59.856Z</time></trkpt><trkpt lat="43.0922082" lon="11.7837541"><ele>523.0</ele><time>2026-04-26T13:29:00.856Z</time></trkpt><trkpt lat="43.0923327" lon="11.7838205"><ele>523.0</ele><time>2026-04-26T13:29:01.856Z</time></trkpt><trkpt lat="43.0924589" lon="11.7838823"><ele>523.0</ele><time>2026-04-26T13:29:02.856Z</time></trkpt><trkpt lat="43.092584" lon="11.7839406"><ele>523.0</ele><time>2026-04-26T13:29:03.856Z</time></trkpt><trkpt lat="43.0927069" lon="11.783987"><ele>524.0</ele><time>2026-04-26T13:29:04.856Z</time></trkpt><trkpt lat="43.0928359" lon="11.7840205"><ele>525.0</ele><time>2026-04-26T13:29:05.856Z</time></trkpt><trkpt lat="43.0929607" lon="11.7840308"><ele>526.0</ele><time>2026-04-26T13:29:06.856Z</time></trkpt><trkpt lat="43.093075" lon="11.7840027"><ele>527.0</ele><time>2026-04-26T13:29:07.856Z</time></trkpt><trkpt lat="43.0931841" lon="11.7839556"><ele>526.4</ele><time>2026-04-26T13:29:08.856Z</time></trkpt><trkpt lat="43.0932825" lon="11.7838919"><ele>525.8000000000001</ele><time>2026-04-26T13:29:09.856Z</time></trkpt><trkpt lat="43.0933715" lon="11.7838168"><ele>525.2</ele><time>2026-04-26T13:29:10.856Z</time></trkpt><trkpt lat="43.0934474" lon="11.7837293"><ele>524.6</ele><time>2026-04-26T13:29:11.855Z</time></trkpt><trkpt lat="43.0935192" lon="11.783637"><ele>524.0</ele><time>2026-04-26T13:29:12.856Z</time></trkpt><trkpt lat="43.093596" lon="11.7835472"><ele>528.1666666666666</ele><time>2026-04-26T13:29:13.856Z</time></trkpt><trkpt lat="43.0936634" lon="11.7834642"><ele>532.3333333333333</ele><time>2026-04-26T13:29:14.856Z</time></trkpt><trkpt lat="43.0937238" lon="11.7833903"><ele>536.5</ele><time>2026-04-26T13:29:15.856Z</time></trkpt><trkpt lat="43.0937847" lon="11.7833132"><ele>540.6666666666666</ele><time>2026-04-26T13:29:16.856Z</time></trkpt><trkpt lat="43.0938473" lon="11.7832515"><ele>544.8333333333334</ele><time>2026-04-26T13:29:17.856Z</time></trkpt><trkpt lat="43.0939242" lon="11.7832045"><ele>549.0</ele><time>2026-04-26T13:29:18.856Z</time></trkpt><trkpt lat="43.0940136" lon="11.7831826"><ele>546.2</ele><time>2026-04-26T13:29:19.856Z</time></trkpt><trkpt lat="43.0941088" lon="11.7832001"><ele>543.4</ele><time>2026-04-26T13:29:20.856Z</time></trkpt><trkpt lat="43.0942092" lon="11.7832407"><ele>540.6</ele><time>2026-04-26T13:29:21.856Z</time></trkpt><trkpt lat="43.094307" lon="11.7832936"><ele>537.8</ele><time>2026-04-26T13:29:22.856Z</time></trkpt><trkpt lat="43.0944025" lon="11.7833501"><ele>535.0</ele><time>2026-04-26T13:29:23.856Z</time></trkpt><trkpt lat="43.0945008" lon="11.7834007"><ele>535.0</ele><time>2026-04-26T13:29:24.856Z</time></trkpt><trkpt lat="43.0945945" lon="11.7834657"><ele>535.0</ele><time>2026-04-26T13:29:25.855Z</time></trkpt><trkpt lat="43.0946836" lon="11.7835417"><ele>535.0</ele><time>2026-04-26T13:29:26.856Z</time></trkpt><trkpt lat="43.0947673" lon="11.7836191"><ele>535.0</ele><time>2026-04-26T13:29:27.856Z</time></trkpt><trkpt lat="43.0948463" lon="11.7836938"><ele>535.0</ele><time>2026-04-26T13:29:28.856Z</time></trkpt><trkpt lat="43.0949189" lon="11.7837717"><ele>535.4</ele><time>2026-04-26T13:29:29.856Z</time></trkpt><trkpt lat="43.0949875" lon="11.7838663"><ele>535.8</ele><time>2026-04-26T13:29:30.855Z</time></trkpt><trkpt lat="43.0950418" lon="11.7839709"><ele>536.2</ele><time>2026-04-26T13:29:31.855Z</time></trkpt><trkpt lat="43.0950836" lon="11.7840893"><ele>536.6</ele><time>2026-04-26T13:29:32.856Z</time></trkpt><trkpt lat="43.0951126" lon="11.7842192"><ele>537.0</ele><time>2026-04-26T13:29:33.856Z</time></trkpt><trkpt lat="43.0951315" lon="11.7843519"><ele>536.0</ele><time>2026-04-26T13:29:34.855Z</time></trkpt><trkpt lat="43.0951418" lon="11.7844816"><ele>535.0</ele><time>2026-04-26T13:29:35.855Z</time></trkpt><trkpt lat="43.0951471" lon="11.7846221"><ele>534.0</ele><time>2026-04-26T13:29:36.856Z</time></trkpt><trkpt lat="43.0951521" lon="11.7847572"><ele>533.0</ele><time>2026-04-26T13:29:37.856Z</time></trkpt><trkpt lat="43.0951641" lon="11.7848853"><ele>532.0</ele><time>2026-04-26T13:29:38.856Z</time></trkpt><trkpt lat="43.0951858" lon="11.7850056"><ele>532.0</ele><time>2026-04-26T13:29:39.856Z</time></trkpt><trkpt lat="43.0952134" lon="11.7851227"><ele>532.0</ele><time>2026-04-26T13:29:40.856Z</time></trkpt><trkpt lat="43.0952579" lon="11.7852306"><ele>532.0</ele><time>2026-04-26T13:29:41.856Z</time></trkpt><trkpt lat="43.0953368" lon="11.785314"><ele>532.0</ele><time>2026-04-26T13:29:42.855Z</time></trkpt><trkpt lat="43.0954189" lon="11.7854143"><ele>532.0</ele><time>2026-04-26T13:29:43.856Z</time></trkpt><trkpt lat="43.0954938" lon="11.7855069"><ele>531.8000000000001</ele><time>2026-04-26T13:29:44.855Z</time></trkpt><trkpt lat="43.0955794" lon="11.7855982"><ele>531.6</ele><time>2026-04-26T13:29:45.856Z</time></trkpt><trkpt lat="43.0956652" lon="11.785682"><ele>531.4000000000001</ele><time>2026-04-26T13:29:46.856Z</time></trkpt><trkpt lat="43.0957559" lon="11.7857668"><ele>531.2</ele><time>2026-04-26T13:29:47.856Z</time></trkpt><trkpt lat="43.0958492" lon="11.7858461"><ele>531.0</ele><time>2026-04-26T13:29:48.856Z</time></trkpt><trkpt lat="43.0959384" lon="11.7859103"><ele>531.0</ele><time>2026-04-26T13:29:49.855Z</time></trkpt><trkpt lat="43.0960271" lon="11.7859892"><ele>531.0</ele><time>2026-04-26T13:29:50.856Z</time></trkpt><trkpt lat="43.0961145" lon="11.7860603"><ele>531.0</ele><time>2026-04-26T13:29:51.856Z</time></trkpt><trkpt lat="43.0961989" lon="11.7861318"><ele>531.0</ele><time>2026-04-26T13:29:52.856Z</time></trkpt><trkpt lat="43.0962858" lon="11.7862008"><ele>531.0</ele><time>2026-04-26T13:29:53.856Z</time></trkpt><trkpt lat="43.0963703" lon="11.7862664"><ele>528.2</ele><time>2026-04-26T13:29:54.856Z</time></trkpt><trkpt lat="43.0964509" lon="11.7863347"><ele>525.4000000000001</ele><time>2026-04-26T13:29:55.856Z</time></trkpt><trkpt lat="43.0965371" lon="11.7864013"><ele>522.6</ele><time>2026-04-26T13:29:56.855Z</time></trkpt><trkpt lat="43.0966234" lon="11.7864618"><ele>519.8000000000001</ele><time>2026-04-26T13:29:57.856Z</time></trkpt><trkpt lat="43.0967044" lon="11.7865265"><ele>517.0</ele><time>2026-04-26T13:29:58.856Z</time></trkpt><trkpt lat="43.0967848" lon="11.7865927"><ele>517.0</ele><time>2026-04-26T13:29:59.855Z</time></trkpt><trkpt lat="43.0968614" lon="11.7866488"><ele>517.0</ele><time>2026-04-26T13:30:00.856Z</time></trkpt><trkpt lat="43.0969398" lon="11.7867063"><ele>517.0</ele><time>2026-04-26T13:30:01.855Z</time></trkpt><trkpt lat="43.0970227" lon="11.7867469"><ele>517.0</ele><time>2026-04-26T13:30:02.855Z</time></trkpt><trkpt lat="43.0971111" lon="11.786779"><ele>517.0</ele><time>2026-04-26T13:30:03.856Z</time></trkpt><trkpt lat="43.0972071" lon="11.7867874"><ele>517.0</ele><time>2026-04-26T13:30:04.856Z</time></trkpt><trkpt lat="43.0973013" lon="11.7867886"><ele>517.0</ele><time>2026-04-26T13:30:05.856Z</time></trkpt><trkpt lat="43.0973933" lon="11.7867709"><ele>517.0</ele><time>2026-04-26T13:30:06.856Z</time></trkpt><trkpt lat="43.0974787" lon="11.786741"><ele>517.0</ele><time>2026-04-26T13:30:07.856Z</time></trkpt><trkpt lat="43.097561" lon="11.7866904"><ele>517.0</ele><time>2026-04-26T13:30:08.856Z</time></trkpt><trkpt lat="43.0976448" lon="11.7866295"><ele>517.0</ele><time>2026-04-26T13:30:09.856Z</time></trkpt><trkpt lat="43.0977275" lon="11.7865611"><ele>517.0</ele><time>2026-04-26T13:30:10.856Z</time></trkpt><trkpt lat="43.0977991" lon="11.786491"><ele>517.0</ele><time>2026-04-26T13:30:11.855Z</time></trkpt><trkpt lat="43.0978603" lon="11.7864172"><ele>517.0</ele><time>2026-04-26T13:30:12.856Z</time></trkpt><trkpt lat="43.0979127" lon="11.7863419"><ele>517.0</ele><time>2026-04-26T13:30:13.856Z</time></trkpt><trkpt lat="43.0979576" lon="11.786265"><ele>517.0</ele><time>2026-04-26T13:30:14.856Z</time></trkpt><trkpt lat="43.0979957" lon="11.7861821"><ele>517.0</ele><time>2026-04-26T13:30:15.855Z</time></trkpt><trkpt lat="43.0980153" lon="11.7860897"><ele>517.0</ele><time>2026-04-26T13:30:16.855Z</time></trkpt><trkpt lat="43.0980383" lon="11.7860063"><ele>517.0</ele><time>2026-04-26T13:30:17.856Z</time></trkpt><trkpt lat="43.0980657" lon="11.7858638"><ele>517.0</ele><time>2026-04-26T13:30:19.855Z</time></trkpt><trkpt lat="43.0980542" lon="11.7857615"><ele>517.0</ele><time>2026-04-26T13:30:23.856Z</time></trkpt><trkpt lat="43.0980413" lon="11.7856723"><ele>517.0</ele><time>2026-04-26T13:30:26.856Z</time></trkpt><trkpt lat="43.0980524" lon="11.7855798"><ele>517.5</ele><time>2026-04-26T13:30:28.856Z</time></trkpt><trkpt lat="43.0980607" lon="11.7854936"><ele>518.0</ele><time>2026-04-26T13:30:30.856Z</time></trkpt><trkpt lat="43.0980996" lon="11.7853781"><ele>518.5</ele><time>2026-04-26T13:30:33.856Z</time></trkpt><trkpt lat="43.098214" lon="11.7853556"><ele>519.0</ele><time>2026-04-26T13:30:35.855Z</time></trkpt><trkpt lat="43.0982853" lon="11.7853581"><ele>519.5</ele><time>2026-04-26T13:30:36.855Z</time></trkpt><trkpt lat="43.0983634" lon="11.7853611"><ele>520.0</ele><time>2026-04-26T13:30:37.856Z</time></trkpt><trkpt lat="43.0984465" lon="11.7853696"><ele>520.0</ele><time>2026-04-26T13:30:38.856Z</time></trkpt><trkpt lat="43.0985329" lon="11.7853701"><ele>520.0</ele><time>2026-04-26T13:30:39.856Z</time></trkpt><trkpt lat="43.0986248" lon="11.7853865"><ele>520.0</ele><time>2026-04-26T13:30:40.856Z</time></trkpt><trkpt lat="43.0987292" lon="11.7854039"><ele>520.0</ele><time>2026-04-26T13:30:41.856Z</time></trkpt><trkpt lat="43.0988441" lon="11.7854095"><ele>520.0</ele><time>2026-04-26T13:30:42.856Z</time></trkpt><trkpt lat="43.0989549" lon="11.7854118"><ele>520.0</ele><time>2026-04-26T13:30:43.856Z</time></trkpt><trkpt lat="43.0990748" lon="11.7854201"><ele>520.0</ele><time>2026-04-26T13:30:44.855Z</time></trkpt><trkpt lat="43.0992015" lon="11.785439"><ele>520.0</ele><time>2026-04-26T13:30:45.855Z</time></trkpt><trkpt lat="43.0993268" lon="11.7854636"><ele>520.0</ele><time>2026-04-26T13:30:46.856Z</time></trkpt><trkpt lat="43.0994606" lon="11.7854635"><ele>518.25</ele><time>2026-04-26T13:30:47.856Z</time></trkpt><trkpt lat="43.0995952" lon="11.7854744"><ele>516.5</ele><time>2026-04-26T13:30:48.856Z</time></trkpt><trkpt lat="43.0997223" lon="11.7854841"><ele>514.75</ele><time>2026-04-26T13:30:49.856Z</time></trkpt><trkpt lat="43.0998529" lon="11.7854874"><ele>513.0</ele><time>2026-04-26T13:30:50.856Z</time></trkpt><trkpt lat="43.0999845" lon="11.7854864"><ele>509.0</ele><time>2026-04-26T13:30:51.856Z</time></trkpt><trkpt lat="43.1001238" lon="11.7854957"><ele>505.0</ele><time>2026-04-26T13:30:52.856Z</time></trkpt><trkpt lat="43.1002629" lon="11.7855072"><ele>501.0</ele><time>2026-04-26T13:30:53.855Z</time></trkpt><trkpt lat="43.1004012" lon="11.7855182"><ele>497.0</ele><time>2026-04-26T13:30:54.856Z</time></trkpt><trkpt lat="43.1005384" lon="11.7855278"><ele>497.0</ele><time>2026-04-26T13:30:55.856Z</time></trkpt><trkpt lat="43.1006746" lon="11.7855423"><ele>497.0</ele><time>2026-04-26T13:30:56.856Z</time></trkpt><trkpt lat="43.1008115" lon="11.7855584"><ele>497.0</ele><time>2026-04-26T13:30:57.856Z</time></trkpt><trkpt lat="43.1009458" lon="11.7855665"><ele>497.0</ele><time>2026-04-26T13:30:58.856Z</time></trkpt><trkpt lat="43.1010783" lon="11.7855777"><ele>495.75</ele><time>2026-04-26T13:30:59.856Z</time></trkpt><trkpt lat="43.1012091" lon="11.7855876"><ele>494.5</ele><time>2026-04-26T13:31:00.856Z</time></trkpt><trkpt lat="43.1013413" lon="11.7855995"><ele>493.25</ele><time>2026-04-26T13:31:01.856Z</time></trkpt><trkpt lat="43.1014714" lon="11.7856126"><ele>492.0</ele><time>2026-04-26T13:31:02.856Z</time></trkpt><trkpt lat="43.1015996" lon="11.7856173"><ele>491.25</ele><time>2026-04-26T13:31:03.856Z</time></trkpt><trkpt lat="43.1017286" lon="11.7856295"><ele>490.5</ele><time>2026-04-26T13:31:04.855Z</time></trkpt><trkpt lat="43.1018512" lon="11.7856371"><ele>489.75</ele><time>2026-04-26T13:31:05.856Z</time></trkpt><trkpt lat="43.1019726" lon="11.7856471"><ele>489.0</ele><time>2026-04-26T13:31:06.856Z</time></trkpt><trkpt lat="43.1020938" lon="11.7856599"><ele>489.0</ele><time>2026-04-26T13:31:07.856Z</time></trkpt><trkpt lat="43.1022155" lon="11.7856752"><ele>489.0</ele><time>2026-04-26T13:31:08.856Z</time></trkpt><trkpt lat="43.1023407" lon="11.785684"><ele>489.0</ele><time>2026-04-26T13:31:09.855Z</time></trkpt><trkpt lat="43.1024678" lon="11.7856924"><ele>489.0</ele><time>2026-04-26T13:31:10.855Z</time></trkpt><trkpt lat="43.1025957" lon="11.7857055"><ele>488.25</ele><time>2026-04-26T13:31:11.855Z</time></trkpt><trkpt lat="43.1027255" lon="11.7857127"><ele>487.5</ele><time>2026-04-26T13:31:12.856Z</time></trkpt><trkpt lat="43.1028537" lon="11.7857345"><ele>486.75</ele><time>2026-04-26T13:31:13.855Z</time></trkpt><trkpt lat="43.1029798" lon="11.7857546"><ele>486.0</ele><time>2026-04-26T13:31:14.856Z</time></trkpt><trkpt lat="43.1031086" lon="11.7857617"><ele>486.0</ele><time>2026-04-26T13:31:15.856Z</time></trkpt><trkpt lat="43.1032367" lon="11.7857653"><ele>486.0</ele><time>2026-04-26T13:31:16.856Z</time></trkpt><trkpt lat="43.10336" lon="11.7857778"><ele>486.0</ele><time>2026-04-26T13:31:17.856Z</time></trkpt><trkpt lat="43.1034859" lon="11.7857899"><ele>486.0</ele><time>2026-04-26T13:31:18.856Z</time></trkpt><trkpt lat="43.1036088" lon="11.785802"><ele>485.75</ele><time>2026-04-26T13:31:19.856Z</time></trkpt><trkpt lat="43.1037341" lon="11.7858113"><ele>485.5</ele><time>2026-04-26T13:31:20.856Z</time></trkpt><trkpt lat="43.1038638" lon="11.7858209"><ele>485.25</ele><time>2026-04-26T13:31:21.856Z</time></trkpt><trkpt lat="43.1039929" lon="11.7858349"><ele>485.0</ele><time>2026-04-26T13:31:22.856Z</time></trkpt><trkpt lat="43.1041197" lon="11.7858396"><ele>485.0</ele><time>2026-04-26T13:31:23.855Z</time></trkpt><trkpt lat="43.104243" lon="11.7858557"><ele>485.0</ele><time>2026-04-26T13:31:24.856Z</time></trkpt><trkpt lat="43.1043631" lon="11.7858673"><ele>485.0</ele><time>2026-04-26T13:31:25.855Z</time></trkpt><trkpt lat="43.1044777" lon="11.7858716"><ele>485.0</ele><time>2026-04-26T13:31:26.855Z</time></trkpt><trkpt lat="43.1045931" lon="11.7858864"><ele>485.0</ele><time>2026-04-26T13:31:27.855Z</time></trkpt><trkpt lat="43.104709" lon="11.7859023"><ele>485.0</ele><time>2026-04-26T13:31:28.856Z</time></trkpt><trkpt lat="43.1048242" lon="11.7859266"><ele>485.0</ele><time>2026-04-26T13:31:29.856Z</time></trkpt><trkpt lat="43.1049384" lon="11.785952"><ele>485.0</ele><time>2026-04-26T13:31:30.856Z</time></trkpt><trkpt lat="43.1050647" lon="11.7859802"><ele>485.0</ele><time>2026-04-26T13:31:31.855Z</time></trkpt><trkpt lat="43.1051946" lon="11.7860142"><ele>485.0</ele><time>2026-04-26T13:31:32.855Z</time></trkpt><trkpt lat="43.1053106" lon="11.7860218"><ele>485.0</ele><time>2026-04-26T13:31:33.856Z</time></trkpt><trkpt lat="43.1054313" lon="11.7860322"><ele>485.0</ele><time>2026-04-26T13:31:34.856Z</time></trkpt><trkpt lat="43.1055546" lon="11.7860451"><ele>485.0</ele><time>2026-04-26T13:31:35.856Z</time></trkpt><trkpt lat="43.105686" lon="11.7860594"><ele>485.0</ele><time>2026-04-26T13:31:36.856Z</time></trkpt><trkpt lat="43.1058208" lon="11.7860727"><ele>485.0</ele><time>2026-04-26T13:31:37.856Z</time></trkpt><trkpt lat="43.1059524" lon="11.7860905"><ele>485.0</ele><time>2026-04-26T13:31:38.856Z</time></trkpt><trkpt lat="43.1060848" lon="11.7861021"><ele>485.0</ele><time>2026-04-26T13:31:39.855Z</time></trkpt><trkpt lat="43.1062189" lon="11.7861147"><ele>485.0</ele><time>2026-04-26T13:31:40.856Z</time></trkpt><trkpt lat="43.1063491" lon="11.7861225"><ele>485.0</ele><time>2026-04-26T13:31:41.856Z</time></trkpt><trkpt lat="43.1064701" lon="11.7861305"><ele>485.0</ele><time>2026-04-26T13:31:42.856Z</time></trkpt><trkpt lat="43.1065805" lon="11.786141"><ele>484.8</ele><time>2026-04-26T13:31:43.856Z</time></trkpt><trkpt lat="43.1066877" lon="11.7861586"><ele>484.6</ele><time>2026-04-26T13:31:44.856Z</time></trkpt><trkpt lat="43.1067882" lon="11.7861743"><ele>484.4</ele><time>2026-04-26T13:31:45.856Z</time></trkpt><trkpt lat="43.1068846" lon="11.786195"><ele>484.2</ele><time>2026-04-26T13:31:46.855Z</time></trkpt><trkpt lat="43.1069905" lon="11.7862214"><ele>484.0</ele><time>2026-04-26T13:31:47.856Z</time></trkpt><trkpt lat="43.1071034" lon="11.7862503"><ele>484.0</ele><time>2026-04-26T13:31:48.856Z</time></trkpt><trkpt lat="43.1072253" lon="11.7862878"><ele>484.0</ele><time>2026-04-26T13:31:49.856Z</time></trkpt><trkpt lat="43.1073586" lon="11.7863508"><ele>484.0</ele><time>2026-04-26T13:31:50.856Z</time></trkpt><trkpt lat="43.1074955" lon="11.7864294"><ele>484.0</ele><time>2026-04-26T13:31:51.855Z</time></trkpt><trkpt lat="43.1076362" lon="11.7865152"><ele>483.0</ele><time>2026-04-26T13:31:52.855Z</time></trkpt><trkpt lat="43.107784" lon="11.7866179"><ele>482.0</ele><time>2026-04-26T13:31:53.856Z</time></trkpt><trkpt lat="43.1079354" lon="11.7867177"><ele>481.0</ele><time>2026-04-26T13:31:54.856Z</time></trkpt><trkpt lat="43.1080841" lon="11.7868247"><ele>476.33333333333337</ele><time>2026-04-26T13:31:55.856Z</time></trkpt><trkpt lat="43.1082323" lon="11.7869321"><ele>471.66666666666663</ele><time>2026-04-26T13:31:56.856Z</time></trkpt><trkpt lat="43.1083802" lon="11.7870321"><ele>467.0</ele><time>2026-04-26T13:31:57.856Z</time></trkpt><trkpt lat="43.1085249" lon="11.787136"><ele>467.0</ele><time>2026-04-26T13:31:58.855Z</time></trkpt><trkpt lat="43.1086585" lon="11.7872423"><ele>467.0</ele><time>2026-04-26T13:31:59.856Z</time></trkpt><trkpt lat="43.1087826" lon="11.7873645"><ele>467.0</ele><time>2026-04-26T13:32:00.856Z</time></trkpt><trkpt lat="43.1088933" lon="11.787509"><ele>467.0</ele><time>2026-04-26T13:32:01.855Z</time></trkpt><trkpt lat="43.109" lon="11.7876687"><ele>467.0</ele><time>2026-04-26T13:32:02.856Z</time></trkpt><trkpt lat="43.1090907" lon="11.7878422"><ele>467.0</ele><time>2026-04-26T13:32:03.856Z</time></trkpt><trkpt lat="43.1091739" lon="11.7880116"><ele>466.25</ele><time>2026-04-26T13:32:04.856Z</time></trkpt><trkpt lat="43.1092581" lon="11.7881724"><ele>465.5</ele><time>2026-04-26T13:32:05.856Z</time></trkpt><trkpt lat="43.1093405" lon="11.7883269"><ele>464.75</ele><time>2026-04-26T13:32:06.856Z</time></trkpt><trkpt lat="43.109423" lon="11.788481"><ele>464.0</ele><time>2026-04-26T13:32:07.855Z</time></trkpt><trkpt lat="43.109505" lon="11.7886251"><ele>464.0</ele><time>2026-04-26T13:32:08.856Z</time></trkpt><trkpt lat="43.1095894" lon="11.7887589"><ele>464.0</ele><time>2026-04-26T13:32:09.856Z</time></trkpt><trkpt lat="43.1096723" lon="11.7888917"><ele>464.0</ele><time>2026-04-26T13:32:10.856Z</time></trkpt><trkpt lat="43.1097477" lon="11.7890152"><ele>464.0</ele><time>2026-04-26T13:32:11.856Z</time></trkpt><trkpt lat="43.1098217" lon="11.7891296"><ele>463.99999999999994</ele><time>2026-04-26T13:32:12.856Z</time></trkpt><trkpt lat="43.1098948" lon="11.7892321"><ele>464.0</ele><time>2026-04-26T13:32:13.856Z</time></trkpt><trkpt lat="43.1099577" lon="11.7893316"><ele>464.0</ele><time>2026-04-26T13:32:14.856Z</time></trkpt><trkpt lat="43.1100136" lon="11.7894135"><ele>464.0</ele><time>2026-04-26T13:32:15.855Z</time></trkpt><trkpt lat="43.11006" lon="11.7894903"><ele>463.99999999999994</ele><time>2026-04-26T13:32:16.856Z</time></trkpt><trkpt lat="43.1101185" lon="11.7895355"><ele>464.0</ele><time>2026-04-26T13:32:17.855Z</time></trkpt><trkpt lat="43.1101879" lon="11.7895574"><ele>464.79999999999995</ele><time>2026-04-26T13:32:18.855Z</time></trkpt><trkpt lat="43.1102695" lon="11.7895196"><ele>465.59999999999997</ele><time>2026-04-26T13:32:19.856Z</time></trkpt><trkpt lat="43.1103545" lon="11.7894557"><ele>466.4</ele><time>2026-04-26T13:32:20.855Z</time></trkpt><trkpt lat="43.1104539" lon="11.7893991"><ele>467.2</ele><time>2026-04-26T13:32:21.856Z</time></trkpt><trkpt lat="43.1105578" lon="11.78935"><ele>468.0</ele><time>2026-04-26T13:32:22.856Z</time></trkpt><trkpt lat="43.1106727" lon="11.7893017"><ele>467.75</ele><time>2026-04-26T13:32:23.856Z</time></trkpt><trkpt lat="43.11078" lon="11.7892525"><ele>467.5</ele><time>2026-04-26T13:32:24.856Z</time></trkpt><trkpt lat="43.1108775" lon="11.7891766"><ele>467.25</ele><time>2026-04-26T13:32:25.856Z</time></trkpt><trkpt lat="43.110978" lon="11.7891062"><ele>467.0</ele><time>2026-04-26T13:32:26.856Z</time></trkpt><trkpt lat="43.111081" lon="11.7890352"><ele>467.0</ele><time>2026-04-26T13:32:27.856Z</time></trkpt><trkpt lat="43.1111905" lon="11.7889663"><ele>467.0</ele><time>2026-04-26T13:32:28.856Z</time></trkpt><trkpt lat="43.1113046" lon="11.788891"><ele>467.0</ele><time>2026-04-26T13:32:29.856Z</time></trkpt><trkpt lat="43.1114216" lon="11.7888249"><ele>467.0</ele><time>2026-04-26T13:32:30.856Z</time></trkpt><trkpt lat="43.1115442" lon="11.7887647"><ele>466.0</ele><time>2026-04-26T13:32:31.856Z</time></trkpt><trkpt lat="43.1116694" lon="11.788705"><ele>465.0</ele><time>2026-04-26T13:32:32.856Z</time></trkpt><trkpt lat="43.1117974" lon="11.7886465"><ele>464.0</ele><time>2026-04-26T13:32:33.856Z</time></trkpt><trkpt lat="43.1119383" lon="11.7886307"><ele>463.0</ele><time>2026-04-26T13:32:34.855Z</time></trkpt><trkpt lat="43.1120748" lon="11.7886415"><ele>463.0</ele><time>2026-04-26T13:32:35.855Z</time></trkpt><trkpt lat="43.1122031" lon="11.7886919"><ele>463.0</ele><time>2026-04-26T13:32:36.856Z</time></trkpt><trkpt lat="43.112329" lon="11.7887483"><ele>463.0</ele><time>2026-04-26T13:32:37.856Z</time></trkpt><trkpt lat="43.1124513" lon="11.788812"><ele>463.0</ele><time>2026-04-26T13:32:38.855Z</time></trkpt><trkpt lat="43.112596" lon="11.7889058"><ele>457.0</ele><time>2026-04-26T13:32:39.856Z</time></trkpt><trkpt lat="43.1127436" lon="11.7890202"><ele>451.0</ele><time>2026-04-26T13:32:40.856Z</time></trkpt><trkpt lat="43.1128875" lon="11.7891447"><ele>445.0</ele><time>2026-04-26T13:32:41.856Z</time></trkpt><trkpt lat="43.1130267" lon="11.7893029"><ele>444.33333333333337</ele><time>2026-04-26T13:32:42.856Z</time></trkpt><trkpt lat="43.1131587" lon="11.7894383"><ele>443.66666666666663</ele><time>2026-04-26T13:32:43.856Z</time></trkpt><trkpt lat="43.1132715" lon="11.7895619"><ele>443.0</ele><time>2026-04-26T13:32:44.856Z</time></trkpt><trkpt lat="43.1133892" lon="11.7896717"><ele>438.75</ele><time>2026-04-26T13:32:45.856Z</time></trkpt><trkpt lat="43.1134957" lon="11.7897843"><ele>434.5</ele><time>2026-04-26T13:32:46.856Z</time></trkpt><trkpt lat="43.1135995" lon="11.7898918"><ele>430.25</ele><time>2026-04-26T13:32:47.856Z</time></trkpt><trkpt lat="43.1136987" lon="11.7899941"><ele>426.0</ele><time>2026-04-26T13:32:48.855Z</time></trkpt><trkpt lat="43.1138008" lon="11.7901007"><ele>425.6</ele><time>2026-04-26T13:32:49.856Z</time></trkpt><trkpt lat="43.1138966" lon="11.7901878"><ele>425.20000000000005</ele><time>2026-04-26T13:32:50.855Z</time></trkpt><trkpt lat="43.1139838" lon="11.7902547"><ele>424.79999999999995</ele><time>2026-04-26T13:32:51.856Z</time></trkpt><trkpt lat="43.1140445" lon="11.7902974"><ele>424.4</ele><time>2026-04-26T13:32:52.856Z</time></trkpt><trkpt lat="43.1141401" lon="11.7903348"><ele>424.0</ele><time>2026-04-26T13:32:54.856Z</time></trkpt><trkpt lat="43.1142333" lon="11.79035"><ele>422.4</ele><time>2026-04-26T13:32:56.856Z</time></trkpt><trkpt lat="43.114331" lon="11.7903879"><ele>420.79999999999995</ele><time>2026-04-26T13:32:58.856Z</time></trkpt><trkpt lat="43.1144312" lon="11.790412"><ele>419.20000000000005</ele><time>2026-04-26T13:33:00.856Z</time></trkpt><trkpt lat="43.1145351" lon="11.7904536"><ele>417.6</ele><time>2026-04-26T13:33:02.856Z</time></trkpt><trkpt lat="43.1146056" lon="11.7904649"><ele>416.0</ele><time>2026-04-26T13:33:03.855Z</time></trkpt><trkpt lat="43.1146955" lon="11.7904898"><ele>416.0</ele><time>2026-04-26T13:33:04.856Z</time></trkpt><trkpt lat="43.1148027" lon="11.790528"><ele>416.0</ele><time>2026-04-26T13:33:05.856Z</time></trkpt><trkpt lat="43.1149099" lon="11.7905886"><ele>416.0</ele><time>2026-04-26T13:33:06.856Z</time></trkpt><trkpt lat="43.1150241" lon="11.7906837"><ele>416.0</ele><time>2026-04-26T13:33:07.855Z</time></trkpt><trkpt lat="43.1151526" lon="11.7907988"><ele>413.3333333333333</ele><time>2026-04-26T13:33:08.856Z</time></trkpt><trkpt lat="43.1152874" lon="11.7908978"><ele>410.66666666666663</ele><time>2026-04-26T13:33:09.856Z</time></trkpt><trkpt lat="43.1154306" lon="11.7909757"><ele>408.0</ele><time>2026-04-26T13:33:10.856Z</time></trkpt><trkpt lat="43.1155755" lon="11.7910434"><ele>400.66666666666663</ele><time>2026-04-26T13:33:11.855Z</time></trkpt><trkpt lat="43.1157371" lon="11.7910923"><ele>393.3333333333333</ele><time>2026-04-26T13:33:12.856Z</time></trkpt><trkpt lat="43.1159091" lon="11.7911255"><ele>386.0</ele><time>2026-04-26T13:33:13.856Z</time></trkpt><trkpt lat="43.1160885" lon="11.7911497"><ele>386.0</ele><time>2026-04-26T13:33:14.856Z</time></trkpt><trkpt lat="43.1162641" lon="11.7911689"><ele>386.0</ele><time>2026-04-26T13:33:15.856Z</time></trkpt><trkpt lat="43.1164422" lon="11.7911829"><ele>386.0</ele><time>2026-04-26T13:33:16.856Z</time></trkpt><trkpt lat="43.116623" lon="11.7911973"><ele>385.0</ele><time>2026-04-26T13:33:17.856Z</time></trkpt><trkpt lat="43.1168075" lon="11.7912032"><ele>384.0</ele><time>2026-04-26T13:33:18.856Z</time></trkpt><trkpt lat="43.1169879" lon="11.7911943"><ele>383.0</ele><time>2026-04-26T13:33:19.856Z</time></trkpt><trkpt lat="43.1171564" lon="11.7911834"><ele>383.0</ele><time>2026-04-26T13:33:20.856Z</time></trkpt><trkpt lat="43.1173121" lon="11.791168"><ele>383.0</ele><time>2026-04-26T13:33:21.856Z</time></trkpt><trkpt lat="43.1174547" lon="11.7911389"><ele>383.0</ele><time>2026-04-26T13:33:22.856Z</time></trkpt><trkpt lat="43.1175936" lon="11.7911164"><ele>383.0</ele><time>2026-04-26T13:33:23.856Z</time></trkpt><trkpt lat="43.1177241" lon="11.7911157"><ele>382.0</ele><time>2026-04-26T13:33:24.856Z</time></trkpt><trkpt lat="43.1178625" lon="11.7911292"><ele>381.0</ele><time>2026-04-26T13:33:25.855Z</time></trkpt><trkpt lat="43.118005" lon="11.7911722"><ele>380.0</ele><time>2026-04-26T13:33:26.855Z</time></trkpt><trkpt lat="43.1181464" lon="11.7912467"><ele>379.0</ele><time>2026-04-26T13:33:27.856Z</time></trkpt><trkpt lat="43.1182812" lon="11.791358"><ele>375.66666666666663</ele><time>2026-04-26T13:33:28.856Z</time></trkpt><trkpt lat="43.1184207" lon="11.7915001"><ele>372.3333333333333</ele><time>2026-04-26T13:33:29.856Z</time></trkpt><trkpt lat="43.1185696" lon="11.7916537"><ele>369.0</ele><time>2026-04-26T13:33:30.856Z</time></trkpt><trkpt lat="43.1187143" lon="11.7918087"><ele>366.0</ele><time>2026-04-26T13:33:31.856Z</time></trkpt><trkpt lat="43.1188664" lon="11.791966"><ele>363.0</ele><time>2026-04-26T13:33:32.855Z</time></trkpt><trkpt lat="43.1190234" lon="11.7921247"><ele>360.0</ele><time>2026-04-26T13:33:33.856Z</time></trkpt><trkpt lat="43.1191802" lon="11.7922906"><ele>358.0</ele><time>2026-04-26T13:33:34.856Z</time></trkpt><trkpt lat="43.1193365" lon="11.7924562"><ele>356.0</ele><time>2026-04-26T13:33:35.856Z</time></trkpt><trkpt lat="43.1194953" lon="11.7926162"><ele>354.0</ele><time>2026-04-26T13:33:36.856Z</time></trkpt><trkpt lat="43.1196573" lon="11.7927673"><ele>350.6666666666667</ele><time>2026-04-26T13:33:37.855Z</time></trkpt><trkpt lat="43.1198269" lon="11.7928897"><ele>347.33333333333337</ele><time>2026-04-26T13:33:38.856Z</time></trkpt><trkpt lat="43.1200032" lon="11.7929968"><ele>344.0</ele><time>2026-04-26T13:33:39.856Z</time></trkpt><trkpt lat="43.1201777" lon="11.7930949"><ele>342.33333333333337</ele><time>2026-04-26T13:33:40.856Z</time></trkpt><trkpt lat="43.12035" lon="11.7931994"><ele>340.6666666666667</ele><time>2026-04-26T13:33:41.856Z</time></trkpt><trkpt lat="43.1205224" lon="11.7932985"><ele>339.0</ele><time>2026-04-26T13:33:42.856Z</time></trkpt><trkpt lat="43.1206953" lon="11.7933883"><ele>338.6666666666667</ele><time>2026-04-26T13:33:43.856Z</time></trkpt><trkpt lat="43.1208675" lon="11.7934532"><ele>338.33333333333337</ele><time>2026-04-26T13:33:44.856Z</time></trkpt><trkpt lat="43.1210445" lon="11.793498"><ele>338.0</ele><time>2026-04-26T13:33:45.855Z</time></trkpt><trkpt lat="43.1212301" lon="11.7935272"><ele>336.0</ele><time>2026-04-26T13:33:46.856Z</time></trkpt><trkpt lat="43.1214096" lon="11.7935535"><ele>334.0</ele><time>2026-04-26T13:33:47.855Z</time></trkpt><trkpt lat="43.1215976" lon="11.7935831"><ele>332.0</ele><time>2026-04-26T13:33:48.855Z</time></trkpt><trkpt lat="43.121786" lon="11.7936127"><ele>332.0</ele><time>2026-04-26T13:33:49.856Z</time></trkpt><trkpt lat="43.1219754" lon="11.7936356"><ele>332.0</ele><time>2026-04-26T13:33:50.856Z</time></trkpt><trkpt lat="43.1221641" lon="11.7936657"><ele>332.0</ele><time>2026-04-26T13:33:51.856Z</time></trkpt><trkpt lat="43.1223515" lon="11.7937113"><ele>329.0</ele><time>2026-04-26T13:33:52.856Z</time></trkpt><trkpt lat="43.1225419" lon="11.7937687"><ele>326.0</ele><time>2026-04-26T13:33:53.856Z</time></trkpt><trkpt lat="43.1227285" lon="11.7938229"><ele>323.0</ele><time>2026-04-26T13:33:54.856Z</time></trkpt><trkpt lat="43.1229245" lon="11.7938496"><ele>323.0</ele><time>2026-04-26T13:33:55.855Z</time></trkpt><trkpt lat="43.123129" lon="11.7938512"><ele>323.0</ele><time>2026-04-26T13:33:56.856Z</time></trkpt><trkpt lat="43.1233452" lon="11.7938444"><ele>323.0</ele><time>2026-04-26T13:33:57.856Z</time></trkpt><trkpt lat="43.1235642" lon="11.7938347"><ele>317.0</ele><time>2026-04-26T13:33:58.855Z</time></trkpt><trkpt lat="43.1237881" lon="11.7938206"><ele>311.0</ele><time>2026-04-26T13:33:59.856Z</time></trkpt><trkpt lat="43.1240137" lon="11.7938137"><ele>307.0</ele><time>2026-04-26T13:34:00.856Z</time></trkpt><trkpt lat="43.1242378" lon="11.7938086"><ele>303.0</ele><time>2026-04-26T13:34:01.856Z</time></trkpt><trkpt lat="43.1244549" lon="11.7938035"><ele>299.0</ele><time>2026-04-26T13:34:02.856Z</time></trkpt><trkpt lat="43.1246724" lon="11.793803"><ele>299.0</ele><time>2026-04-26T13:34:03.855Z</time></trkpt><trkpt lat="43.1248859" lon="11.7938158"><ele>299.0</ele><time>2026-04-26T13:34:04.855Z</time></trkpt><trkpt lat="43.1250868" lon="11.7938443"><ele>299.0</ele><time>2026-04-26T13:34:05.856Z</time></trkpt><trkpt lat="43.1252807" lon="11.793896"><ele>296.33333333333337</ele><time>2026-04-26T13:34:06.855Z</time></trkpt><trkpt lat="43.1254712" lon="11.7939669"><ele>293.6666666666667</ele><time>2026-04-26T13:34:07.856Z</time></trkpt><trkpt lat="43.1256608" lon="11.794016"><ele>291.0</ele><time>2026-04-26T13:34:08.856Z</time></trkpt><trkpt lat="43.1258497" lon="11.7940572"><ele>289.6666666666667</ele><time>2026-04-26T13:34:09.856Z</time></trkpt><trkpt lat="43.1260309" lon="11.794097"><ele>288.33333333333337</ele><time>2026-04-26T13:34:10.856Z</time></trkpt><trkpt lat="43.1262041" lon="11.7941537"><ele>287.0</ele><time>2026-04-26T13:34:11.856Z</time></trkpt><trkpt lat="43.1263623" lon="11.7942413"><ele>287.0</ele><time>2026-04-26T13:34:12.855Z</time></trkpt><trkpt lat="43.1265109" lon="11.7943517"><ele>287.0</ele><time>2026-04-26T13:34:13.856Z</time></trkpt><trkpt lat="43.1266546" lon="11.7944629"><ele>287.0</ele><time>2026-04-26T13:34:14.855Z</time></trkpt><trkpt lat="43.1267912" lon="11.7945682"><ele>286.33333333333337</ele><time>2026-04-26T13:34:15.856Z</time></trkpt><trkpt lat="43.1269315" lon="11.7946322"><ele>285.6666666666667</ele><time>2026-04-26T13:34:16.856Z</time></trkpt><trkpt lat="43.1270854" lon="11.7946507"><ele>285.0</ele><time>2026-04-26T13:34:17.855Z</time></trkpt><trkpt lat="43.1272383" lon="11.7946468"><ele>284.3333333333333</ele><time>2026-04-26T13:34:18.856Z</time></trkpt><trkpt lat="43.1274007" lon="11.7946103"><ele>283.66666666666663</ele><time>2026-04-26T13:34:19.856Z</time></trkpt><trkpt lat="43.1275646" lon="11.7945686"><ele>283.0</ele><time>2026-04-26T13:34:20.856Z</time></trkpt><trkpt lat="43.1277326" lon="11.7945227"><ele>283.0</ele><time>2026-04-26T13:34:21.855Z</time></trkpt><trkpt lat="43.1278976" lon="11.79446"><ele>283.0</ele><time>2026-04-26T13:34:22.855Z</time></trkpt><trkpt lat="43.1280571" lon="11.7943924"><ele>283.0</ele><time>2026-04-26T13:34:23.856Z</time></trkpt><trkpt lat="43.1282284" lon="11.7943179"><ele>282.3333333333333</ele><time>2026-04-26T13:34:24.855Z</time></trkpt><trkpt lat="43.1284024" lon="11.7942216"><ele>281.6666666666667</ele><time>2026-04-26T13:34:25.856Z</time></trkpt><trkpt lat="43.1285682" lon="11.7941287"><ele>281.0</ele><time>2026-04-26T13:34:26.855Z</time></trkpt><trkpt lat="43.1287368" lon="11.794039"><ele>281.0</ele><time>2026-04-26T13:34:27.856Z</time></trkpt><trkpt lat="43.1289081" lon="11.79397"><ele>281.0</ele><time>2026-04-26T13:34:28.856Z</time></trkpt><trkpt lat="43.1290898" lon="11.7939462"><ele>281.0</ele><time>2026-04-26T13:34:29.856Z</time></trkpt><trkpt lat="43.1292704" lon="11.7939511"><ele>281.6666666666667</ele><time>2026-04-26T13:34:30.855Z</time></trkpt><trkpt lat="43.1294374" lon="11.7939707"><ele>282.3333333333333</ele><time>2026-04-26T13:34:31.856Z</time></trkpt><trkpt lat="43.1295991" lon="11.793989"><ele>283.0</ele><time>2026-04-26T13:34:32.856Z</time></trkpt><trkpt lat="43.1297552" lon="11.7940117"><ele>283.0</ele><time>2026-04-26T13:34:33.856Z</time></trkpt><trkpt lat="43.1299003" lon="11.7940436"><ele>283.0</ele><time>2026-04-26T13:34:34.856Z</time></trkpt><trkpt lat="43.1300423" lon="11.7940708"><ele>283.0</ele><time>2026-04-26T13:34:35.855Z</time></trkpt><trkpt lat="43.1301776" lon="11.7941043"><ele>283.0</ele><time>2026-04-26T13:34:36.855Z</time></trkpt><trkpt lat="43.1303113" lon="11.7941355"><ele>283.0</ele><time>2026-04-26T13:34:37.856Z</time></trkpt><trkpt lat="43.1304435" lon="11.7941597"><ele>283.0</ele><time>2026-04-26T13:34:38.856Z</time></trkpt><trkpt lat="43.1305916" lon="11.7941858"><ele>283.0</ele><time>2026-04-26T13:34:39.856Z</time></trkpt><trkpt lat="43.1307566" lon="11.7942033"><ele>283.0</ele><time>2026-04-26T13:34:40.855Z</time></trkpt><trkpt lat="43.1309254" lon="11.7942183"><ele>283.0</ele><time>2026-04-26T13:34:41.856Z</time></trkpt><trkpt lat="43.1311053" lon="11.7942463"><ele>283.0</ele><time>2026-04-26T13:34:42.856Z</time></trkpt><trkpt lat="43.1312993" lon="11.7942832"><ele>283.0</ele><time>2026-04-26T13:34:43.855Z</time></trkpt><trkpt lat="43.1314917" lon="11.794325"><ele>283.0</ele><time>2026-04-26T13:34:44.856Z</time></trkpt><trkpt lat="43.1316796" lon="11.7943689"><ele>283.0</ele><time>2026-04-26T13:34:45.856Z</time></trkpt><trkpt lat="43.131865" lon="11.7944075"><ele>283.0</ele><time>2026-04-26T13:34:46.856Z</time></trkpt><trkpt lat="43.1320337" lon="11.7944417"><ele>283.0</ele><time>2026-04-26T13:34:47.856Z</time></trkpt><trkpt lat="43.1321919" lon="11.7944826"><ele>283.0</ele><time>2026-04-26T13:34:48.855Z</time></trkpt><trkpt lat="43.1323443" lon="11.7945206"><ele>283.0</ele><time>2026-04-26T13:34:49.856Z</time></trkpt><trkpt lat="43.1324959" lon="11.7945597"><ele>284.3333333333333</ele><time>2026-04-26T13:34:50.856Z</time></trkpt><trkpt lat="43.1326496" lon="11.7946132"><ele>285.6666666666667</ele><time>2026-04-26T13:34:51.855Z</time></trkpt><trkpt lat="43.1328054" lon="11.7946752"><ele>287.0</ele><time>2026-04-26T13:34:52.856Z</time></trkpt><trkpt lat="43.1329644" lon="11.7947294"><ele>287.0</ele><time>2026-04-26T13:34:53.856Z</time></trkpt><trkpt lat="43.1331279" lon="11.7947608"><ele>287.0</ele><time>2026-04-26T13:34:54.856Z</time></trkpt><trkpt lat="43.1332573" lon="11.794807"><ele>287.0</ele><time>2026-04-26T13:34:55.855Z</time></trkpt><trkpt lat="43.1334082" lon="11.7948473"><ele>289.75</ele><time>2026-04-26T13:34:56.856Z</time></trkpt><trkpt lat="43.1335604" lon="11.7948518"><ele>292.5</ele><time>2026-04-26T13:34:57.856Z</time></trkpt><trkpt lat="43.1336904" lon="11.7948293"><ele>295.25</ele><time>2026-04-26T13:34:58.856Z</time></trkpt><trkpt lat="43.1338199" lon="11.7947726"><ele>298.0</ele><time>2026-04-26T13:34:59.856Z</time></trkpt><trkpt lat="43.1339304" lon="11.7946976"><ele>298.0</ele><time>2026-04-26T13:35:00.855Z</time></trkpt><trkpt lat="43.1340332" lon="11.7946075"><ele>298.0</ele><time>2026-04-26T13:35:01.856Z</time></trkpt><trkpt lat="43.134134" lon="11.7945058"><ele>298.0</ele><time>2026-04-26T13:35:02.856Z</time></trkpt><trkpt lat="43.1342387" lon="11.7943745"><ele>298.0</ele><time>2026-04-26T13:35:03.856Z</time></trkpt><trkpt lat="43.1343572" lon="11.7942213"><ele>297.66666666666663</ele><time>2026-04-26T13:35:04.856Z</time></trkpt><trkpt lat="43.1345063" lon="11.7940703"><ele>297.3333333333333</ele><time>2026-04-26T13:35:05.856Z</time></trkpt><trkpt lat="43.134668" lon="11.7939376"><ele>297.0</ele><time>2026-04-26T13:35:06.856Z</time></trkpt><trkpt lat="43.134839" lon="11.7938067"><ele>297.6666666666667</ele><time>2026-04-26T13:35:07.856Z</time></trkpt><trkpt lat="43.1350071" lon="11.7936717"><ele>298.33333333333337</ele><time>2026-04-26T13:35:08.856Z</time></trkpt><trkpt lat="43.1351604" lon="11.7935414"><ele>299.0</ele><time>2026-04-26T13:35:09.855Z</time></trkpt><trkpt lat="43.1353056" lon="11.7934416"><ele>299.0</ele><time>2026-04-26T13:35:10.856Z</time></trkpt><trkpt lat="43.135436" lon="11.7933485"><ele>299.0</ele><time>2026-04-26T13:35:11.855Z</time></trkpt><trkpt lat="43.1355528" lon="11.7932622"><ele>299.0</ele><time>2026-04-26T13:35:12.856Z</time></trkpt><trkpt lat="43.1356588" lon="11.7931836"><ele>299.0</ele><time>2026-04-26T13:35:13.856Z</time></trkpt><trkpt lat="43.135753" lon="11.7931259"><ele>302.4</ele><time>2026-04-26T13:35:14.856Z</time></trkpt><trkpt lat="43.1358525" lon="11.7931031"><ele>305.79999999999995</ele><time>2026-04-26T13:35:15.856Z</time></trkpt><trkpt lat="43.1359527" lon="11.7931156"><ele>309.20000000000005</ele><time>2026-04-26T13:35:16.856Z</time></trkpt><trkpt lat="43.136048" lon="11.7931555"><ele>312.6</ele><time>2026-04-26T13:35:17.856Z</time></trkpt><trkpt lat="43.1361318" lon="11.7932337"><ele>316.0</ele><time>2026-04-26T13:35:18.855Z</time></trkpt><trkpt lat="43.1362035" lon="11.7933132"><ele>316.0</ele><time>2026-04-26T13:35:19.855Z</time></trkpt><trkpt lat="43.1362764" lon="11.7933964"><ele>316.0</ele><time>2026-04-26T13:35:20.856Z</time></trkpt><trkpt lat="43.1363678" lon="11.7934817"><ele>316.0</ele><time>2026-04-26T13:35:21.856Z</time></trkpt><trkpt lat="43.136465" lon="11.7935803"><ele>316.0</ele><time>2026-04-26T13:35:22.855Z</time></trkpt><trkpt lat="43.136577" lon="11.7936803"><ele>323.0</ele><time>2026-04-26T13:35:23.855Z</time></trkpt><trkpt lat="43.1367013" lon="11.7937906"><ele>330.0</ele><time>2026-04-26T13:35:24.855Z</time></trkpt><trkpt lat="43.1368377" lon="11.7939125"><ele>337.0</ele><time>2026-04-26T13:35:25.856Z</time></trkpt><trkpt lat="43.1369884" lon="11.794037"><ele>337.0</ele><time>2026-04-26T13:35:26.855Z</time></trkpt><trkpt lat="43.137155" lon="11.7941788"><ele>337.0</ele><time>2026-04-26T13:35:27.855Z</time></trkpt><trkpt lat="43.1373146" lon="11.7943303"><ele>337.0</ele><time>2026-04-26T13:35:28.856Z</time></trkpt><trkpt lat="43.137463" lon="11.7944856"><ele>335.25</ele><time>2026-04-26T13:35:29.856Z</time></trkpt><trkpt lat="43.1375971" lon="11.7946112"><ele>333.5</ele><time>2026-04-26T13:35:30.855Z</time></trkpt><trkpt lat="43.1377191" lon="11.7947185"><ele>331.75</ele><time>2026-04-26T13:35:31.855Z</time></trkpt><trkpt lat="43.1378317" lon="11.7948121"><ele>330.0</ele><time>2026-04-26T13:35:32.856Z</time></trkpt><trkpt lat="43.1379399" lon="11.7948785"><ele>330.0</ele><time>2026-04-26T13:35:33.856Z</time></trkpt><trkpt lat="43.1380466" lon="11.794909"><ele>330.0</ele><time>2026-04-26T13:35:34.856Z</time></trkpt><trkpt lat="43.1381554" lon="11.7949071"><ele>330.0</ele><time>2026-04-26T13:35:35.856Z</time></trkpt><trkpt lat="43.1382673" lon="11.7948748"><ele>330.0</ele><time>2026-04-26T13:35:36.856Z</time></trkpt><trkpt lat="43.1383808" lon="11.7948261"><ele>328.3333333333333</ele><time>2026-04-26T13:35:37.856Z</time></trkpt><trkpt lat="43.1384999" lon="11.7947515"><ele>326.66666666666663</ele><time>2026-04-26T13:35:38.855Z</time></trkpt><trkpt lat="43.1386363" lon="11.7946408"><ele>325.0</ele><time>2026-04-26T13:35:39.856Z</time></trkpt><trkpt lat="43.1387803" lon="11.794528"><ele>325.0</ele><time>2026-04-26T13:35:40.855Z</time></trkpt><trkpt lat="43.1389402" lon="11.7944114"><ele>325.0</ele><time>2026-04-26T13:35:41.855Z</time></trkpt><trkpt lat="43.1390994" lon="11.7942832"><ele>325.0</ele><time>2026-04-26T13:35:42.855Z</time></trkpt><trkpt lat="43.1392531" lon="11.7941442"><ele>328.0</ele><time>2026-04-26T13:35:43.856Z</time></trkpt><trkpt lat="43.1394042" lon="11.7939917"><ele>331.0</ele><time>2026-04-26T13:35:44.856Z</time></trkpt><trkpt lat="43.139556" lon="11.7938376"><ele>334.0</ele><time>2026-04-26T13:35:45.856Z</time></trkpt><trkpt lat="43.1397034" lon="11.7936769"><ele>334.0</ele><time>2026-04-26T13:35:46.856Z</time></trkpt><trkpt lat="43.1398423" lon="11.7935216"><ele>334.0</ele><time>2026-04-26T13:35:47.856Z</time></trkpt><trkpt lat="43.1399914" lon="11.7933683"><ele>334.0</ele><time>2026-04-26T13:35:48.855Z</time></trkpt><trkpt lat="43.1401418" lon="11.7932195"><ele>335.3333333333333</ele><time>2026-04-26T13:35:49.855Z</time></trkpt><trkpt lat="43.140295" lon="11.7930761"><ele>336.6666666666667</ele><time>2026-04-26T13:35:50.856Z</time></trkpt><trkpt lat="43.1404493" lon="11.7929312"><ele>338.0</ele><time>2026-04-26T13:35:51.856Z</time></trkpt><trkpt lat="43.1406049" lon="11.7927827"><ele>338.6666666666667</ele><time>2026-04-26T13:35:52.856Z</time></trkpt><trkpt lat="43.1407625" lon="11.7926392"><ele>339.3333333333333</ele><time>2026-04-26T13:35:53.856Z</time></trkpt><trkpt lat="43.1409312" lon="11.792498"><ele>340.0</ele><time>2026-04-26T13:35:54.855Z</time></trkpt><trkpt lat="43.1411187" lon="11.7923584"><ele>340.0</ele><time>2026-04-26T13:35:55.856Z</time></trkpt><trkpt lat="43.1413215" lon="11.792227"><ele>340.0</ele><time>2026-04-26T13:35:56.856Z</time></trkpt><trkpt lat="43.1415303" lon="11.7920938"><ele>339.66666666666663</ele><time>2026-04-26T13:35:57.855Z</time></trkpt><trkpt lat="43.1417295" lon="11.7919592"><ele>339.3333333333333</ele><time>2026-04-26T13:35:58.856Z</time></trkpt><trkpt lat="43.1419277" lon="11.7918229"><ele>339.0</ele><time>2026-04-26T13:35:59.856Z</time></trkpt><trkpt lat="43.1421202" lon="11.7916862"><ele>341.0</ele><time>2026-04-26T13:36:00.856Z</time></trkpt><trkpt lat="43.1423113" lon="11.7915541"><ele>343.0</ele><time>2026-04-26T13:36:01.855Z</time></trkpt><trkpt lat="43.1425081" lon="11.7914154"><ele>345.0</ele><time>2026-04-26T13:36:02.856Z</time></trkpt><trkpt lat="43.142706" lon="11.7912808"><ele>345.0</ele><time>2026-04-26T13:36:03.856Z</time></trkpt><trkpt lat="43.1429114" lon="11.7911491"><ele>345.0</ele><time>2026-04-26T13:36:04.856Z</time></trkpt><trkpt lat="43.1431171" lon="11.7910135"><ele>342.5</ele><time>2026-04-26T13:36:05.856Z</time></trkpt><trkpt lat="43.143323" lon="11.7908699"><ele>340.0</ele><time>2026-04-26T13:36:06.856Z</time></trkpt><trkpt lat="43.1435281" lon="11.7907327"><ele>340.0</ele><time>2026-04-26T13:36:07.855Z</time></trkpt><trkpt lat="43.1437243" lon="11.7906043"><ele>340.0</ele><time>2026-04-26T13:36:08.856Z</time></trkpt><trkpt lat="43.1439067" lon="11.7904813"><ele>340.0</ele><time>2026-04-26T13:36:09.856Z</time></trkpt><trkpt lat="43.1440887" lon="11.7903629"><ele>339.66666666666663</ele><time>2026-04-26T13:36:10.856Z</time></trkpt><trkpt lat="43.144267" lon="11.7902439"><ele>339.3333333333333</ele><time>2026-04-26T13:36:11.856Z</time></trkpt><trkpt lat="43.1444374" lon="11.790117"><ele>339.0</ele><time>2026-04-26T13:36:12.856Z</time></trkpt><trkpt lat="43.1445921" lon="11.7899704"><ele>339.0</ele><time>2026-04-26T13:36:13.856Z</time></trkpt><trkpt lat="43.1447166" lon="11.789791"><ele>339.0</ele><time>2026-04-26T13:36:14.856Z</time></trkpt><trkpt lat="43.1448118" lon="11.7895816"><ele>339.0</ele><time>2026-04-26T13:36:15.856Z</time></trkpt><trkpt lat="43.1448768" lon="11.7893466"><ele>339.6666666666667</ele><time>2026-04-26T13:36:16.856Z</time></trkpt><trkpt lat="43.1449111" lon="11.7890901"><ele>340.33333333333337</ele><time>2026-04-26T13:36:17.856Z</time></trkpt><trkpt lat="43.1449124" lon="11.7888293"><ele>341.0</ele><time>2026-04-26T13:36:18.856Z</time></trkpt><trkpt lat="43.1448928" lon="11.7885696"><ele>337.6666666666667</ele><time>2026-04-26T13:36:19.856Z</time></trkpt><trkpt lat="43.1448551" lon="11.7883222"><ele>334.3333333333333</ele><time>2026-04-26T13:36:20.856Z</time></trkpt><trkpt lat="43.1448306" lon="11.7880751"><ele>331.0</ele><time>2026-04-26T13:36:21.855Z</time></trkpt><trkpt lat="43.1448442" lon="11.7878261"><ele>336.3333333333333</ele><time>2026-04-26T13:36:22.856Z</time></trkpt><trkpt lat="43.1448907" lon="11.7875923"><ele>341.6666666666667</ele><time>2026-04-26T13:36:23.856Z</time></trkpt><trkpt lat="43.1449711" lon="11.787361"><ele>347.0</ele><time>2026-04-26T13:36:24.856Z</time></trkpt><trkpt lat="43.1450842" lon="11.7871391"><ele>347.0</ele><time>2026-04-26T13:36:25.855Z</time></trkpt><trkpt lat="43.1452077" lon="11.7869281"><ele>347.0</ele><time>2026-04-26T13:36:26.856Z</time></trkpt><trkpt lat="43.1453372" lon="11.7867182"><ele>347.0</ele><time>2026-04-26T13:36:27.855Z</time></trkpt><trkpt lat="43.1454701" lon="11.7865004"><ele>346.33333333333337</ele><time>2026-04-26T13:36:28.855Z</time></trkpt><trkpt lat="43.1456035" lon="11.7862722"><ele>345.6666666666667</ele><time>2026-04-26T13:36:29.855Z</time></trkpt><trkpt lat="43.1457386" lon="11.7860421"><ele>345.0</ele><time>2026-04-26T13:36:30.856Z</time></trkpt><trkpt lat="43.1458692" lon="11.7858099"><ele>346.6666666666667</ele><time>2026-04-26T13:36:31.856Z</time></trkpt><trkpt lat="43.1460039" lon="11.7855842"><ele>348.33333333333337</ele><time>2026-04-26T13:36:32.856Z</time></trkpt><trkpt lat="43.1461565" lon="11.7853667"><ele>350.0</ele><time>2026-04-26T13:36:33.856Z</time></trkpt><trkpt lat="43.1463301" lon="11.7851828"><ele>350.0</ele><time>2026-04-26T13:36:34.855Z</time></trkpt><trkpt lat="43.1465149" lon="11.7850126"><ele>350.0</ele><time>2026-04-26T13:36:35.856Z</time></trkpt><trkpt lat="43.1466937" lon="11.7848413"><ele>350.0</ele><time>2026-04-26T13:36:36.856Z</time></trkpt><trkpt lat="43.14686" lon="11.7846592"><ele>350.0</ele><time>2026-04-26T13:36:37.856Z</time></trkpt><trkpt lat="43.1469988" lon="11.784447"><ele>350.0</ele><time>2026-04-26T13:36:38.855Z</time></trkpt><trkpt lat="43.1471116" lon="11.7842251"><ele>350.0</ele><time>2026-04-26T13:36:39.856Z</time></trkpt><trkpt lat="43.147192" lon="11.7839921"><ele>350.6666666666667</ele><time>2026-04-26T13:36:40.856Z</time></trkpt><trkpt lat="43.1472504" lon="11.7837798"><ele>351.3333333333333</ele><time>2026-04-26T13:36:41.855Z</time></trkpt><trkpt lat="43.1473264" lon="11.7835665"><ele>352.0</ele><time>2026-04-26T13:36:42.856Z</time></trkpt><trkpt lat="43.1474254" lon="11.7833851"><ele>352.0</ele><time>2026-04-26T13:36:43.856Z</time></trkpt><trkpt lat="43.1475446" lon="11.7832422"><ele>352.0</ele><time>2026-04-26T13:36:44.856Z</time></trkpt><trkpt lat="43.1477004" lon="11.7831371"><ele>352.0</ele><time>2026-04-26T13:36:45.856Z</time></trkpt><trkpt lat="43.1478593" lon="11.783075"><ele>352.0</ele><time>2026-04-26T13:36:46.856Z</time></trkpt><trkpt lat="43.1480367" lon="11.7830898"><ele>352.0</ele><time>2026-04-26T13:36:47.856Z</time></trkpt><trkpt lat="43.1482249" lon="11.7831263"><ele>352.0</ele><time>2026-04-26T13:36:48.856Z</time></trkpt><trkpt lat="43.1484165" lon="11.7831723"><ele>352.0</ele><time>2026-04-26T13:36:49.855Z</time></trkpt><trkpt lat="43.1486202" lon="11.7832221"><ele>352.0</ele><time>2026-04-26T13:36:50.856Z</time></trkpt><trkpt lat="43.1488268" lon="11.7832787"><ele>352.0</ele><time>2026-04-26T13:36:51.855Z</time></trkpt><trkpt lat="43.149028" lon="11.7833393"><ele>349.66666666666663</ele><time>2026-04-26T13:36:52.856Z</time></trkpt><trkpt lat="43.14923" lon="11.7833991"><ele>347.3333333333333</ele><time>2026-04-26T13:36:53.856Z</time></trkpt><trkpt lat="43.1494352" lon="11.7834516"><ele>345.0</ele><time>2026-04-26T13:36:54.855Z</time></trkpt><trkpt lat="43.1496405" lon="11.783509"><ele>345.0</ele><time>2026-04-26T13:36:55.856Z</time></trkpt><trkpt lat="43.1498434" lon="11.7835542"><ele>345.0</ele><time>2026-04-26T13:36:56.856Z</time></trkpt><trkpt lat="43.1500506" lon="11.7835609"><ele>345.0</ele><time>2026-04-26T13:36:57.856Z</time></trkpt><trkpt lat="43.1502488" lon="11.7835218"><ele>343.6666666666667</ele><time>2026-04-26T13:36:58.856Z</time></trkpt><trkpt lat="43.1504339" lon="11.7834381"><ele>342.33333333333337</ele><time>2026-04-26T13:36:59.856Z</time></trkpt><trkpt lat="43.1506087" lon="11.7833093"><ele>341.0</ele><time>2026-04-26T13:37:00.856Z</time></trkpt><trkpt lat="43.150768" lon="11.7831329"><ele>341.0</ele><time>2026-04-26T13:37:01.856Z</time></trkpt><trkpt lat="43.1509011" lon="11.7829254"><ele>341.0</ele><time>2026-04-26T13:37:02.856Z</time></trkpt><trkpt lat="43.1510134" lon="11.7826859"><ele>341.0</ele><time>2026-04-26T13:37:03.856Z</time></trkpt><trkpt lat="43.1510917" lon="11.7824215"><ele>342.0</ele><time>2026-04-26T13:37:04.856Z</time></trkpt><trkpt lat="43.1511319" lon="11.7821384"><ele>343.0</ele><time>2026-04-26T13:37:05.856Z</time></trkpt><trkpt lat="43.1511336" lon="11.7818534"><ele>344.0</ele><time>2026-04-26T13:37:06.855Z</time></trkpt><trkpt lat="43.1511079" lon="11.7815651"><ele>344.33333333333337</ele><time>2026-04-26T13:37:07.856Z</time></trkpt><trkpt lat="43.1510577" lon="11.7812788"><ele>344.6666666666667</ele><time>2026-04-26T13:37:08.856Z</time></trkpt><trkpt lat="43.1510024" lon="11.7809915"><ele>345.0</ele><time>2026-04-26T13:37:09.856Z</time></trkpt><trkpt lat="43.1509564" lon="11.7807067"><ele>346.6666666666667</ele><time>2026-04-26T13:37:10.856Z</time></trkpt><trkpt lat="43.1509071" lon="11.7804215"><ele>348.33333333333337</ele><time>2026-04-26T13:37:11.856Z</time></trkpt><trkpt lat="43.1508608" lon="11.7801461"><ele>350.0</ele><time>2026-04-26T13:37:12.856Z</time></trkpt><trkpt lat="43.1508162" lon="11.7798771"><ele>352.0</ele><time>2026-04-26T13:37:13.855Z</time></trkpt><trkpt lat="43.150772" lon="11.7796122"><ele>354.0</ele><time>2026-04-26T13:37:14.856Z</time></trkpt><trkpt lat="43.1507472" lon="11.7793452"><ele>356.0</ele><time>2026-04-26T13:37:15.856Z</time></trkpt><trkpt lat="43.1507803" lon="11.7790847"><ele>357.6666666666667</ele><time>2026-04-26T13:37:16.856Z</time></trkpt><trkpt lat="43.1508596" lon="11.7788476"><ele>359.3333333333333</ele><time>2026-04-26T13:37:17.856Z</time></trkpt><trkpt lat="43.150982" lon="11.7786451"><ele>361.0</ele><time>2026-04-26T13:37:18.856Z</time></trkpt><trkpt lat="43.1511278" lon="11.7784595"><ele>361.3333333333333</ele><time>2026-04-26T13:37:19.855Z</time></trkpt><trkpt lat="43.1512829" lon="11.7782814"><ele>361.6666666666667</ele><time>2026-04-26T13:37:20.855Z</time></trkpt><trkpt lat="43.1514443" lon="11.7781099"><ele>362.0</ele><time>2026-04-26T13:37:21.856Z</time></trkpt><trkpt lat="43.1516209" lon="11.7779634"><ele>362.0</ele><time>2026-04-26T13:37:22.856Z</time></trkpt><trkpt lat="43.151801" lon="11.7778606"><ele>362.0</ele><time>2026-04-26T13:37:23.856Z</time></trkpt><trkpt lat="43.1519929" lon="11.7777851"><ele>362.0</ele><time>2026-04-26T13:37:24.855Z</time></trkpt><trkpt lat="43.1521812" lon="11.7777105"><ele>362.6666666666667</ele><time>2026-04-26T13:37:25.856Z</time></trkpt><trkpt lat="43.1523648" lon="11.7776349"><ele>363.3333333333333</ele><time>2026-04-26T13:37:26.856Z</time></trkpt><trkpt lat="43.1525344" lon="11.7775654"><ele>364.0</ele><time>2026-04-26T13:37:27.855Z</time></trkpt><trkpt lat="43.1526949" lon="11.777491"><ele>364.0</ele><time>2026-04-26T13:37:28.856Z</time></trkpt><trkpt lat="43.1528393" lon="11.7774264"><ele>364.0</ele><time>2026-04-26T13:37:29.856Z</time></trkpt><trkpt lat="43.1529507" lon="11.7773753"><ele>364.0</ele><time>2026-04-26T13:37:30.856Z</time></trkpt><trkpt lat="43.1530522" lon="11.7773356"><ele>364.0</ele><time>2026-04-26T13:37:31.855Z</time></trkpt><trkpt lat="43.1531394" lon="11.7773079"><ele>363.0</ele><time>2026-04-26T13:37:32.856Z</time></trkpt><trkpt lat="43.1532237" lon="11.7772848"><ele>362.0</ele><time>2026-04-26T13:37:33.856Z</time></trkpt><trkpt lat="43.153299" lon="11.7772709"><ele>361.0</ele><time>2026-04-26T13:37:34.856Z</time></trkpt><trkpt lat="43.1533719" lon="11.7772676"><ele>360.0</ele><time>2026-04-26T13:37:35.856Z</time></trkpt><trkpt lat="43.1534455" lon="11.7772584"><ele>359.0</ele><time>2026-04-26T13:37:36.855Z</time></trkpt><trkpt lat="43.1535172" lon="11.777222"><ele>358.0</ele><time>2026-04-26T13:37:37.856Z</time></trkpt><trkpt lat="43.1535863" lon="11.777165"><ele>358.0</ele><time>2026-04-26T13:37:38.856Z</time></trkpt><trkpt lat="43.1536451" lon="11.777102"><ele>358.0</ele><time>2026-04-26T13:37:39.856Z</time></trkpt><trkpt lat="43.1537117" lon="11.7770564"><ele>358.0</ele><time>2026-04-26T13:37:40.856Z</time></trkpt><trkpt lat="43.1537969" lon="11.77705"><ele>358.0</ele><time>2026-04-26T13:37:41.856Z</time></trkpt><trkpt lat="43.1538962" lon="11.7770844"><ele>358.0</ele><time>2026-04-26T13:37:42.856Z</time></trkpt><trkpt lat="43.1539922" lon="11.7771578"><ele>358.0</ele><time>2026-04-26T13:37:43.856Z</time></trkpt><trkpt lat="43.1540693" lon="11.7772391"><ele>357.5</ele><time>2026-04-26T13:37:44.855Z</time></trkpt><trkpt lat="43.1541295" lon="11.7773479"><ele>357.0</ele><time>2026-04-26T13:37:45.856Z</time></trkpt><trkpt lat="43.1541669" lon="11.7774531"><ele>356.5</ele><time>2026-04-26T13:37:46.856Z</time></trkpt><trkpt lat="43.1541941" lon="11.7775534"><ele>356.0</ele><time>2026-04-26T13:37:47.856Z</time></trkpt><trkpt lat="43.1542283" lon="11.777633"><ele>355.5</ele><time>2026-04-26T13:37:48.856Z</time></trkpt><trkpt lat="43.1542845" lon="11.7776849"><ele>355.0</ele><time>2026-04-26T13:37:49.855Z</time></trkpt><trkpt lat="43.154355" lon="11.7776981"><ele>355.0</ele><time>2026-04-26T13:37:50.856Z</time></trkpt><trkpt lat="43.1544217" lon="11.7776467"><ele>355.0</ele><time>2026-04-26T13:37:51.856Z</time></trkpt><trkpt lat="43.1544678" lon="11.7775313"><ele>355.0</ele><time>2026-04-26T13:37:52.855Z</time></trkpt><trkpt lat="43.1544981" lon="11.7773722"><ele>355.0</ele><time>2026-04-26T13:37:53.856Z</time></trkpt><trkpt lat="43.1545328" lon="11.7772268"><ele>355.0</ele><time>2026-04-26T13:37:54.856Z</time></trkpt><trkpt lat="43.1545731" lon="11.7770864"><ele>355.0</ele><time>2026-04-26T13:37:55.855Z</time></trkpt><trkpt lat="43.1546369" lon="11.7769433"><ele>355.0</ele><time>2026-04-26T13:37:56.856Z</time></trkpt><trkpt lat="43.1547344" lon="11.7768165"><ele>355.0</ele><time>2026-04-26T13:37:57.855Z</time></trkpt><trkpt lat="43.1548485" lon="11.7767039"><ele>355.0</ele><time>2026-04-26T13:37:58.856Z</time></trkpt><trkpt lat="43.1549761" lon="11.7766119"><ele>350.5</ele><time>2026-04-26T13:37:59.856Z</time></trkpt><trkpt lat="43.1551077" lon="11.7765388"><ele>346.0</ele><time>2026-04-26T13:38:00.856Z</time></trkpt><trkpt lat="43.1552412" lon="11.7764689"><ele>341.5</ele><time>2026-04-26T13:38:01.856Z</time></trkpt><trkpt lat="43.1553805" lon="11.7764219"><ele>337.0</ele><time>2026-04-26T13:38:02.856Z</time></trkpt><trkpt lat="43.1555211" lon="11.776392"><ele>337.0</ele><time>2026-04-26T13:38:03.856Z</time></trkpt><trkpt lat="43.1556657" lon="11.7763424"><ele>337.0</ele><time>2026-04-26T13:38:04.856Z</time></trkpt><trkpt lat="43.1558162" lon="11.7762668"><ele>337.0</ele><time>2026-04-26T13:38:05.856Z</time></trkpt><trkpt lat="43.1559785" lon="11.776157"><ele>334.0</ele><time>2026-04-26T13:38:06.856Z</time></trkpt><trkpt lat="43.1561434" lon="11.7760671"><ele>331.0</ele><time>2026-04-26T13:38:07.855Z</time></trkpt><trkpt lat="43.156305" lon="11.7759786"><ele>328.0</ele><time>2026-04-26T13:38:08.856Z</time></trkpt><trkpt lat="43.1564701" lon="11.7758855"><ele>324.0</ele><time>2026-04-26T13:38:09.856Z</time></trkpt><trkpt lat="43.1566258" lon="11.7757773"><ele>320.0</ele><time>2026-04-26T13:38:10.856Z</time></trkpt><trkpt lat="43.1567671" lon="11.7756475"><ele>316.0</ele><time>2026-04-26T13:38:11.855Z</time></trkpt><trkpt lat="43.1568965" lon="11.7755049"><ele>316.0</ele><time>2026-04-26T13:38:12.856Z</time></trkpt><trkpt lat="43.157025" lon="11.7753565"><ele>316.0</ele><time>2026-04-26T13:38:13.856Z</time></trkpt><trkpt lat="43.1571644" lon="11.7752215"><ele>316.0</ele><time>2026-04-26T13:38:14.855Z</time></trkpt><trkpt lat="43.1573101" lon="11.7751083"><ele>310.66666666666663</ele><time>2026-04-26T13:38:15.856Z</time></trkpt><trkpt lat="43.1574687" lon="11.7750126"><ele>305.3333333333333</ele><time>2026-04-26T13:38:16.856Z</time></trkpt><trkpt lat="43.1576298" lon="11.7749326"><ele>300.0</ele><time>2026-04-26T13:38:17.856Z</time></trkpt><trkpt lat="43.1577897" lon="11.7748484"><ele>300.0</ele><time>2026-04-26T13:38:18.855Z</time></trkpt><trkpt lat="43.1579455" lon="11.7747392"><ele>300.0</ele><time>2026-04-26T13:38:19.856Z</time></trkpt><trkpt lat="43.1580974" lon="11.7746041"><ele>300.0</ele><time>2026-04-26T13:38:20.856Z</time></trkpt><trkpt lat="43.1582414" lon="11.7744715"><ele>295.3333333333333</ele><time>2026-04-26T13:38:21.856Z</time></trkpt><trkpt lat="43.1583857" lon="11.7743346"><ele>290.66666666666663</ele><time>2026-04-26T13:38:22.856Z</time></trkpt><trkpt lat="43.1585294" lon="11.7742056"><ele>286.0</ele><time>2026-04-26T13:38:23.856Z</time></trkpt><trkpt lat="43.1586771" lon="11.7740829"><ele>286.0</ele><time>2026-04-26T13:38:24.855Z</time></trkpt><trkpt lat="43.1588337" lon="11.7739798"><ele>286.0</ele><time>2026-04-26T13:38:25.855Z</time></trkpt><trkpt lat="43.158996" lon="11.7738868"><ele>286.0</ele><time>2026-04-26T13:38:26.856Z</time></trkpt><trkpt lat="43.1591676" lon="11.7737969"><ele>284.0</ele><time>2026-04-26T13:38:27.856Z</time></trkpt><trkpt lat="43.1593398" lon="11.7737131"><ele>282.0</ele><time>2026-04-26T13:38:28.855Z</time></trkpt><trkpt lat="43.1595206" lon="11.7736336"><ele>280.0</ele><time>2026-04-26T13:38:29.856Z</time></trkpt><trkpt lat="43.1597066" lon="11.7735734"><ele>279.0</ele><time>2026-04-26T13:38:30.856Z</time></trkpt><trkpt lat="43.1598905" lon="11.7735331"><ele>278.0</ele><time>2026-04-26T13:38:31.856Z</time></trkpt><trkpt lat="43.1600663" lon="11.7734981"><ele>277.0</ele><time>2026-04-26T13:38:32.856Z</time></trkpt><trkpt lat="43.1602335" lon="11.7734477"><ele>277.0</ele><time>2026-04-26T13:38:33.856Z</time></trkpt><trkpt lat="43.1603928" lon="11.7733551"><ele>277.0</ele><time>2026-04-26T13:38:34.855Z</time></trkpt><trkpt lat="43.1605438" lon="11.773206"><ele>277.0</ele><time>2026-04-26T13:38:35.856Z</time></trkpt><trkpt lat="43.1606725" lon="11.7730254"><ele>276.66666666666663</ele><time>2026-04-26T13:38:36.856Z</time></trkpt><trkpt lat="43.1607965" lon="11.7728257"><ele>276.3333333333333</ele><time>2026-04-26T13:38:37.856Z</time></trkpt><trkpt lat="43.1609191" lon="11.7726251"><ele>276.0</ele><time>2026-04-26T13:38:38.856Z</time></trkpt><trkpt lat="43.1610305" lon="11.7724202"><ele>276.0</ele><time>2026-04-26T13:38:39.856Z</time></trkpt><trkpt lat="43.1611443" lon="11.7722175"><ele>276.0</ele><time>2026-04-26T13:38:40.856Z</time></trkpt><trkpt lat="43.1612566" lon="11.7720218"><ele>276.0</ele><time>2026-04-26T13:38:41.856Z</time></trkpt><trkpt lat="43.1613713" lon="11.7718309"><ele>277.0</ele><time>2026-04-26T13:38:42.856Z</time></trkpt><trkpt lat="43.1614895" lon="11.7716481"><ele>278.0</ele><time>2026-04-26T13:38:43.856Z</time></trkpt><trkpt lat="43.1616136" lon="11.7714814"><ele>279.0</ele><time>2026-04-26T13:38:44.856Z</time></trkpt><trkpt lat="43.1617289" lon="11.7713229"><ele>279.75</ele><time>2026-04-26T13:38:45.856Z</time></trkpt><trkpt lat="43.1618267" lon="11.7711913"><ele>280.5</ele><time>2026-04-26T13:38:46.856Z</time></trkpt><trkpt lat="43.1619313" lon="11.7710875"><ele>281.25</ele><time>2026-04-26T13:38:47.856Z</time></trkpt><trkpt lat="43.1620364" lon="11.7710438"><ele>282.0</ele><time>2026-04-26T13:38:48.855Z</time></trkpt><trkpt lat="43.1621531" lon="11.7710494"><ele>282.0</ele><time>2026-04-26T13:38:49.856Z</time></trkpt><trkpt lat="43.1622706" lon="11.7710823"><ele>282.0</ele><time>2026-04-26T13:38:50.856Z</time></trkpt><trkpt lat="43.1623831" lon="11.7711314"><ele>282.0</ele><time>2026-04-26T13:38:51.855Z</time></trkpt><trkpt lat="43.1624946" lon="11.771178"><ele>282.0</ele><time>2026-04-26T13:38:52.856Z</time></trkpt><trkpt lat="43.162614" lon="11.7712207"><ele>283.4</ele><time>2026-04-26T13:38:53.856Z</time></trkpt><trkpt lat="43.162731" lon="11.77124"><ele>284.79999999999995</ele><time>2026-04-26T13:38:54.856Z</time></trkpt><trkpt lat="43.162839" lon="11.7712538"><ele>286.2</ele><time>2026-04-26T13:38:55.856Z</time></trkpt><trkpt lat="43.1629461" lon="11.7712649"><ele>287.59999999999997</ele><time>2026-04-26T13:38:56.856Z</time></trkpt><trkpt lat="43.1630384" lon="11.7712939"><ele>289.0</ele><time>2026-04-26T13:38:57.856Z</time></trkpt><trkpt lat="43.1631339" lon="11.7713332"><ele>291.5</ele><time>2026-04-26T13:38:58.856Z</time></trkpt><trkpt lat="43.1632322" lon="11.7714039"><ele>294.0</ele><time>2026-04-26T13:38:59.856Z</time></trkpt><trkpt lat="43.1633288" lon="11.7714875"><ele>296.5</ele><time>2026-04-26T13:39:00.856Z</time></trkpt><trkpt lat="43.1634303" lon="11.7715787"><ele>299.0</ele><time>2026-04-26T13:39:01.856Z</time></trkpt><trkpt lat="43.1635375" lon="11.7716677"><ele>299.0</ele><time>2026-04-26T13:39:02.856Z</time></trkpt><trkpt lat="43.1636524" lon="11.7717537"><ele>299.0</ele><time>2026-04-26T13:39:03.855Z</time></trkpt><trkpt lat="43.1637788" lon="11.7718147"><ele>299.0</ele><time>2026-04-26T13:39:04.855Z</time></trkpt><trkpt lat="43.1639115" lon="11.7718426"><ele>299.0</ele><time>2026-04-26T13:39:05.856Z</time></trkpt><trkpt lat="43.1640449" lon="11.7718471"><ele>299.2</ele><time>2026-04-26T13:39:06.856Z</time></trkpt><trkpt lat="43.1641698" lon="11.7718257"><ele>299.4</ele><time>2026-04-26T13:39:07.856Z</time></trkpt><trkpt lat="43.1642739" lon="11.7717913"><ele>299.6</ele><time>2026-04-26T13:39:08.856Z</time></trkpt><trkpt lat="43.1643604" lon="11.7717577"><ele>299.8</ele><time>2026-04-26T13:39:09.856Z</time></trkpt><trkpt lat="43.1644477" lon="11.771732"><ele>300.0</ele><time>2026-04-26T13:39:10.855Z</time></trkpt><trkpt lat="43.1645343" lon="11.7717124"><ele>300.0</ele><time>2026-04-26T13:39:11.856Z</time></trkpt><trkpt lat="43.1646257" lon="11.7716949"><ele>300.0</ele><time>2026-04-26T13:39:12.856Z</time></trkpt><trkpt lat="43.1647299" lon="11.7717008"><ele>300.0</ele><time>2026-04-26T13:39:13.856Z</time></trkpt><trkpt lat="43.1648455" lon="11.7717329"><ele>300.0</ele><time>2026-04-26T13:39:14.855Z</time></trkpt><trkpt lat="43.1649686" lon="11.7717915"><ele>300.0</ele><time>2026-04-26T13:39:15.856Z</time></trkpt><trkpt lat="43.1650868" lon="11.7718868"><ele>298.25</ele><time>2026-04-26T13:39:16.856Z</time></trkpt><trkpt lat="43.1651933" lon="11.7720065"><ele>296.5</ele><time>2026-04-26T13:39:17.856Z</time></trkpt><trkpt lat="43.1652967" lon="11.7721344"><ele>294.75</ele><time>2026-04-26T13:39:18.856Z</time></trkpt><trkpt lat="43.1654016" lon="11.7722575"><ele>293.0</ele><time>2026-04-26T13:39:19.856Z</time></trkpt><trkpt lat="43.1655013" lon="11.7723698"><ele>293.0</ele><time>2026-04-26T13:39:20.856Z</time></trkpt><trkpt lat="43.1655976" lon="11.7724539"><ele>293.0</ele><time>2026-04-26T13:39:21.855Z</time></trkpt><trkpt lat="43.1656874" lon="11.7724991"><ele>293.0</ele><time>2026-04-26T13:39:22.856Z</time></trkpt><trkpt lat="43.1657781" lon="11.772514"><ele>293.0</ele><time>2026-04-26T13:39:23.856Z</time></trkpt><trkpt lat="43.165889" lon="11.772498"><ele>293.0</ele><time>2026-04-26T13:39:25.856Z</time></trkpt><trkpt lat="43.1659532" lon="11.7725028"><ele>294.0</ele><time>2026-04-26T13:39:27.856Z</time></trkpt><trkpt lat="43.1660071" lon="11.7725622"><ele>295.0</ele><time>2026-04-26T13:39:33.856Z</time></trkpt><trkpt lat="43.1661183" lon="11.7726847"><ele>296.0</ele><time>2026-04-26T13:39:35.856Z</time></trkpt><trkpt lat="43.1661813" lon="11.7727742"><ele>297.0</ele><time>2026-04-26T13:39:36.856Z</time></trkpt><trkpt lat="43.1662599" lon="11.7728562"><ele>298.0</ele><time>2026-04-26T13:39:37.856Z</time></trkpt><trkpt lat="43.1663507" lon="11.7729422"><ele>298.0</ele><time>2026-04-26T13:39:38.856Z</time></trkpt><trkpt lat="43.1664371" lon="11.7730381"><ele>298.0</ele><time>2026-04-26T13:39:39.855Z</time></trkpt><trkpt lat="43.1665279" lon="11.7731378"><ele>298.0</ele><time>2026-04-26T13:39:40.856Z</time></trkpt><trkpt lat="43.166615" lon="11.7732486"><ele>298.0</ele><time>2026-04-26T13:39:41.856Z</time></trkpt><trkpt lat="43.1667064" lon="11.7733592"><ele>299.5</ele><time>2026-04-26T13:39:42.856Z</time></trkpt><trkpt lat="43.1667946" lon="11.7734649"><ele>301.0</ele><time>2026-04-26T13:39:43.856Z</time></trkpt><trkpt lat="43.1668795" lon="11.7735734"><ele>302.5</ele><time>2026-04-26T13:39:44.856Z</time></trkpt><trkpt lat="43.166969" lon="11.7736784"><ele>304.0</ele><time>2026-04-26T13:39:45.856Z</time></trkpt><trkpt lat="43.1670587" lon="11.7737802"><ele>302.25</ele><time>2026-04-26T13:39:46.856Z</time></trkpt><trkpt lat="43.1671484" lon="11.7738834"><ele>300.5</ele><time>2026-04-26T13:39:47.856Z</time></trkpt><trkpt lat="43.1672397" lon="11.7739875"><ele>298.75</ele><time>2026-04-26T13:39:48.856Z</time></trkpt><trkpt lat="43.1673356" lon="11.7740931"><ele>297.0</ele><time>2026-04-26T13:39:49.855Z</time></trkpt><trkpt lat="43.1674368" lon="11.7742034"><ele>297.0</ele><time>2026-04-26T13:39:50.856Z</time></trkpt><trkpt lat="43.1675309" lon="11.7743093"><ele>297.0</ele><time>2026-04-26T13:39:51.855Z</time></trkpt><trkpt lat="43.1676275" lon="11.7744163"><ele>297.0</ele><time>2026-04-26T13:39:52.856Z</time></trkpt><trkpt lat="43.1677175" lon="11.7745265"><ele>297.0</ele><time>2026-04-26T13:39:53.855Z</time></trkpt><trkpt lat="43.1678113" lon="11.7746345"><ele>294.5</ele><time>2026-04-26T13:39:54.855Z</time></trkpt><trkpt lat="43.167901" lon="11.7747377"><ele>292.0</ele><time>2026-04-26T13:39:55.856Z</time></trkpt><trkpt lat="43.1679948" lon="11.7748356"><ele>289.5</ele><time>2026-04-26T13:39:56.856Z</time></trkpt><trkpt lat="43.1680816" lon="11.7749365"><ele>287.0</ele><time>2026-04-26T13:39:57.856Z</time></trkpt><trkpt lat="43.1681629" lon="11.7750469"><ele>287.1666666666667</ele><time>2026-04-26T13:39:58.856Z</time></trkpt><trkpt lat="43.1682345" lon="11.7751466"><ele>287.33333333333337</ele><time>2026-04-26T13:39:59.855Z</time></trkpt><trkpt lat="43.1683007" lon="11.7752149"><ele>287.5</ele><time>2026-04-26T13:40:00.856Z</time></trkpt><trkpt lat="43.1683788" lon="11.7752144"><ele>287.6666666666667</ele><time>2026-04-26T13:40:01.856Z</time></trkpt><trkpt lat="43.1684504" lon="11.7751845"><ele>287.8333333333333</ele><time>2026-04-26T13:40:02.856Z</time></trkpt><trkpt lat="43.1685133" lon="11.7751404"><ele>288.0</ele><time>2026-04-26T13:40:03.856Z</time></trkpt><trkpt lat="43.1686036" lon="11.7750509"><ele>288.0</ele><time>2026-04-26T13:40:05.856Z</time></trkpt><trkpt lat="43.1686954" lon="11.7749767"><ele>288.0</ele><time>2026-04-26T13:40:07.856Z</time></trkpt><trkpt lat="43.1687509" lon="11.7749259"><ele>288.0</ele><time>2026-04-26T13:40:08.855Z</time></trkpt><trkpt lat="43.1688034" lon="11.7748692"><ele>288.0</ele><time>2026-04-26T13:40:09.856Z</time></trkpt><trkpt lat="43.1688623" lon="11.7748111"><ele>288.0</ele><time>2026-04-26T13:40:10.856Z</time></trkpt><trkpt lat="43.1689468" lon="11.7747433"><ele>288.0</ele><time>2026-04-26T13:40:12.856Z</time></trkpt><trkpt lat="43.1690105" lon="11.774727"><ele>286.2</ele><time>2026-04-26T13:40:14.856Z</time></trkpt><trkpt lat="43.1690727" lon="11.7747027"><ele>284.4</ele><time>2026-04-26T13:40:15.856Z</time></trkpt><trkpt lat="43.1691723" lon="11.7746709"><ele>282.59999999999997</ele><time>2026-04-26T13:40:16.856Z</time></trkpt><trkpt lat="43.1692816" lon="11.7746379"><ele>280.8</ele><time>2026-04-26T13:40:17.856Z</time></trkpt><trkpt lat="43.1694096" lon="11.774601"><ele>279.0</ele><time>2026-04-26T13:40:18.856Z</time></trkpt><trkpt lat="43.1695468" lon="11.7745662"><ele>279.0</ele><time>2026-04-26T13:40:19.855Z</time></trkpt><trkpt lat="43.1696838" lon="11.7745407"><ele>279.0</ele><time>2026-04-26T13:40:20.855Z</time></trkpt><trkpt lat="43.1698088" lon="11.7745203"><ele>279.0</ele><time>2026-04-26T13:40:21.856Z</time></trkpt><trkpt lat="43.169929" lon="11.7745056"><ele>279.0</ele><time>2026-04-26T13:40:22.856Z</time></trkpt><trkpt lat="43.1700411" lon="11.7744859"><ele>278.0</ele><time>2026-04-26T13:40:23.856Z</time></trkpt><trkpt lat="43.1701566" lon="11.7744661"><ele>277.0</ele><time>2026-04-26T13:40:24.856Z</time></trkpt><trkpt lat="43.1702811" lon="11.7744406"><ele>276.0</ele><time>2026-04-26T13:40:25.856Z</time></trkpt><trkpt lat="43.1704108" lon="11.7744147"><ele>275.0</ele><time>2026-04-26T13:40:26.856Z</time></trkpt><trkpt lat="43.1705529" lon="11.7743854"><ele>274.33333333333337</ele><time>2026-04-26T13:40:27.856Z</time></trkpt><trkpt lat="43.1707024" lon="11.7743576"><ele>273.6666666666667</ele><time>2026-04-26T13:40:28.855Z</time></trkpt><trkpt lat="43.1708616" lon="11.774331"><ele>273.0</ele><time>2026-04-26T13:40:29.856Z</time></trkpt><trkpt lat="43.1710253" lon="11.774308"><ele>272.6666666666667</ele><time>2026-04-26T13:40:30.856Z</time></trkpt><trkpt lat="43.1711876" lon="11.7742747"><ele>272.33333333333337</ele><time>2026-04-26T13:40:31.856Z</time></trkpt><trkpt lat="43.1713444" lon="11.7742476"><ele>272.0</ele><time>2026-04-26T13:40:32.855Z</time></trkpt><trkpt lat="43.1714978" lon="11.7742211"><ele>272.75</ele><time>2026-04-26T13:40:33.856Z</time></trkpt><trkpt lat="43.1716454" lon="11.7741956"><ele>273.5</ele><time>2026-04-26T13:40:34.856Z</time></trkpt><trkpt lat="43.1717928" lon="11.7741725"><ele>274.25</ele><time>2026-04-26T13:40:35.856Z</time></trkpt><trkpt lat="43.171936" lon="11.7741521"><ele>275.0</ele><time>2026-04-26T13:40:36.856Z</time></trkpt><trkpt lat="43.1720746" lon="11.774132"><ele>275.0</ele><time>2026-04-26T13:40:37.856Z</time></trkpt><trkpt lat="43.1722156" lon="11.7741173"><ele>275.0</ele><time>2026-04-26T13:40:38.856Z</time></trkpt><trkpt lat="43.1723569" lon="11.7740955"><ele>275.0</ele><time>2026-04-26T13:40:39.856Z</time></trkpt><trkpt lat="43.1724939" lon="11.7740756"><ele>275.0</ele><time>2026-04-26T13:40:40.856Z</time></trkpt><trkpt lat="43.1726306" lon="11.7740541"><ele>276.25</ele><time>2026-04-26T13:40:41.856Z</time></trkpt><trkpt lat="43.1727691" lon="11.7740308"><ele>277.5</ele><time>2026-04-26T13:40:42.856Z</time></trkpt><trkpt lat="43.172905" lon="11.7740099"><ele>278.75</ele><time>2026-04-26T13:40:43.855Z</time></trkpt><trkpt lat="43.1730415" lon="11.7739852"><ele>280.0</ele><time>2026-04-26T13:40:44.856Z</time></trkpt><trkpt lat="43.1731855" lon="11.7739601"><ele>281.3333333333333</ele><time>2026-04-26T13:40:45.856Z</time></trkpt><trkpt lat="43.1733447" lon="11.773915"><ele>282.6666666666667</ele><time>2026-04-26T13:40:46.856Z</time></trkpt><trkpt lat="43.1735173" lon="11.7738711"><ele>284.0</ele><time>2026-04-26T13:40:47.856Z</time></trkpt><trkpt lat="43.1736979" lon="11.7738404"><ele>284.0</ele><time>2026-04-26T13:40:48.855Z</time></trkpt><trkpt lat="43.1738797" lon="11.773812"><ele>284.0</ele><time>2026-04-26T13:40:49.856Z</time></trkpt><trkpt lat="43.174064" lon="11.7737842"><ele>284.0</ele><time>2026-04-26T13:40:50.856Z</time></trkpt><trkpt lat="43.1742481" lon="11.7737423"><ele>285.33333333333337</ele><time>2026-04-26T13:40:51.856Z</time></trkpt><trkpt lat="43.1744291" lon="11.7736964"><ele>286.6666666666667</ele><time>2026-04-26T13:40:52.855Z</time></trkpt><trkpt lat="43.1746055" lon="11.773645"><ele>288.0</ele><time>2026-04-26T13:40:53.856Z</time></trkpt><trkpt lat="43.1747749" lon="11.7735839"><ele>288.0</ele><time>2026-04-26T13:40:54.856Z</time></trkpt><trkpt lat="43.1749434" lon="11.7735194"><ele>288.0</ele><time>2026-04-26T13:40:55.856Z</time></trkpt><trkpt lat="43.1751142" lon="11.7734535"><ele>288.0</ele><time>2026-04-26T13:40:56.855Z</time></trkpt><trkpt lat="43.1752829" lon="11.7733784"><ele>288.0</ele><time>2026-04-26T13:40:57.856Z</time></trkpt><trkpt lat="43.175451" lon="11.7733095"><ele>288.0</ele><time>2026-04-26T13:40:58.856Z</time></trkpt><trkpt lat="43.1756139" lon="11.7732396"><ele>288.0</ele><time>2026-04-26T13:40:59.856Z</time></trkpt><trkpt lat="43.175775" lon="11.77317"><ele>287.0</ele><time>2026-04-26T13:41:00.856Z</time></trkpt><trkpt lat="43.1759316" lon="11.7730961"><ele>286.0</ele><time>2026-04-26T13:41:01.855Z</time></trkpt><trkpt lat="43.1760832" lon="11.7730214"><ele>285.0</ele><time>2026-04-26T13:41:02.856Z</time></trkpt><trkpt lat="43.1762363" lon="11.7729476"><ele>285.0</ele><time>2026-04-26T13:41:03.856Z</time></trkpt><trkpt lat="43.176388" lon="11.7728801"><ele>285.0</ele><time>2026-04-26T13:41:04.856Z</time></trkpt><trkpt lat="43.1765368" lon="11.7728154"><ele>285.0</ele><time>2026-04-26T13:41:05.856Z</time></trkpt><trkpt lat="43.1766835" lon="11.7727519"><ele>282.0</ele><time>2026-04-26T13:41:06.856Z</time></trkpt><trkpt lat="43.17683" lon="11.7726864"><ele>279.0</ele><time>2026-04-26T13:41:07.855Z</time></trkpt><trkpt lat="43.1769724" lon="11.7726216"><ele>276.0</ele><time>2026-04-26T13:41:08.856Z</time></trkpt><trkpt lat="43.1771174" lon="11.7725542"><ele>276.0</ele><time>2026-04-26T13:41:09.856Z</time></trkpt><trkpt lat="43.1772595" lon="11.7724873"><ele>276.0</ele><time>2026-04-26T13:41:10.855Z</time></trkpt><trkpt lat="43.1774023" lon="11.7724178"><ele>276.0</ele><time>2026-04-26T13:41:11.856Z</time></trkpt><trkpt lat="43.1775457" lon="11.7723548"><ele>275.0</ele><time>2026-04-26T13:41:12.856Z</time></trkpt><trkpt lat="43.1776845" lon="11.7722963"><ele>274.0</ele><time>2026-04-26T13:41:13.856Z</time></trkpt><trkpt lat="43.1778152" lon="11.7722406"><ele>273.0</ele><time>2026-04-26T13:41:14.856Z</time></trkpt><trkpt lat="43.1779361" lon="11.7721822"><ele>272.0</ele><time>2026-04-26T13:41:15.856Z</time></trkpt><trkpt lat="43.1780675" lon="11.7721237"><ele>270.33333333333337</ele><time>2026-04-26T13:41:16.855Z</time></trkpt><trkpt lat="43.1782069" lon="11.7720595"><ele>268.6666666666667</ele><time>2026-04-26T13:41:17.856Z</time></trkpt><trkpt lat="43.1783607" lon="11.7719915"><ele>267.0</ele><time>2026-04-26T13:41:18.856Z</time></trkpt><trkpt lat="43.1785176" lon="11.7719177"><ele>268.6666666666667</ele><time>2026-04-26T13:41:19.856Z</time></trkpt><trkpt lat="43.1786814" lon="11.7718471"><ele>270.33333333333337</ele><time>2026-04-26T13:41:20.856Z</time></trkpt><trkpt lat="43.1788513" lon="11.7717747"><ele>272.0</ele><time>2026-04-26T13:41:21.856Z</time></trkpt><trkpt lat="43.1790189" lon="11.7717009"><ele>272.0</ele><time>2026-04-26T13:41:22.856Z</time></trkpt><trkpt lat="43.1791927" lon="11.7716192"><ele>272.0</ele><time>2026-04-26T13:41:23.856Z</time></trkpt><trkpt lat="43.1793711" lon="11.7715334"><ele>272.0</ele><time>2026-04-26T13:41:24.855Z</time></trkpt><trkpt lat="43.1795496" lon="11.7714509"><ele>272.0</ele><time>2026-04-26T13:41:25.855Z</time></trkpt><trkpt lat="43.1797308" lon="11.7713641"><ele>272.0</ele><time>2026-04-26T13:41:26.856Z</time></trkpt><trkpt lat="43.1799108" lon="11.7712789"><ele>272.0</ele><time>2026-04-26T13:41:27.856Z</time></trkpt><trkpt lat="43.1800889" lon="11.7711919"><ele>271.6666666666667</ele><time>2026-04-26T13:41:28.856Z</time></trkpt><trkpt lat="43.1802664" lon="11.7711067"><ele>271.3333333333333</ele><time>2026-04-26T13:41:29.856Z</time></trkpt><trkpt lat="43.1804453" lon="11.7710267"><ele>271.0</ele><time>2026-04-26T13:41:30.856Z</time></trkpt><trkpt lat="43.1806205" lon="11.7709439"><ele>270.66666666666663</ele><time>2026-04-26T13:41:31.856Z</time></trkpt><trkpt lat="43.1807962" lon="11.7708614"><ele>270.3333333333333</ele><time>2026-04-26T13:41:32.856Z</time></trkpt><trkpt lat="43.1809722" lon="11.7707767"><ele>270.0</ele><time>2026-04-26T13:41:33.855Z</time></trkpt><trkpt lat="43.1811551" lon="11.7706943"><ele>270.0</ele><time>2026-04-26T13:41:34.856Z</time></trkpt><trkpt lat="43.181337" lon="11.7706124"><ele>270.0</ele><time>2026-04-26T13:41:35.856Z</time></trkpt><trkpt lat="43.1815196" lon="11.7705247"><ele>270.0</ele><time>2026-04-26T13:41:36.856Z</time></trkpt><trkpt lat="43.1817079" lon="11.770438"><ele>268.6666666666667</ele><time>2026-04-26T13:41:37.856Z</time></trkpt><trkpt lat="43.1818923" lon="11.7703557"><ele>267.33333333333337</ele><time>2026-04-26T13:41:38.856Z</time></trkpt><trkpt lat="43.1820748" lon="11.7702734"><ele>266.0</ele><time>2026-04-26T13:41:39.855Z</time></trkpt><trkpt lat="43.1822553" lon="11.7701916"><ele>266.33333333333337</ele><time>2026-04-26T13:41:40.856Z</time></trkpt><trkpt lat="43.1824299" lon="11.7701129"><ele>266.6666666666667</ele><time>2026-04-26T13:41:41.856Z</time></trkpt><trkpt lat="43.1825989" lon="11.770039"><ele>267.0</ele><time>2026-04-26T13:41:42.856Z</time></trkpt><trkpt lat="43.1827587" lon="11.7699767"><ele>267.0</ele><time>2026-04-26T13:41:43.856Z</time></trkpt><trkpt lat="43.1829083" lon="11.7699196"><ele>267.0</ele><time>2026-04-26T13:41:44.856Z</time></trkpt><trkpt lat="43.1830498" lon="11.7698581"><ele>267.0</ele><time>2026-04-26T13:41:45.855Z</time></trkpt><trkpt lat="43.1831877" lon="11.7697896"><ele>266.3333333333333</ele><time>2026-04-26T13:41:46.856Z</time></trkpt><trkpt lat="43.1833275" lon="11.7696927"><ele>265.66666666666663</ele><time>2026-04-26T13:41:47.856Z</time></trkpt><trkpt lat="43.1834564" lon="11.7695472"><ele>265.0</ele><time>2026-04-26T13:41:48.856Z</time></trkpt><trkpt lat="43.1835718" lon="11.7693507"><ele>264.66666666666663</ele><time>2026-04-26T13:41:49.856Z</time></trkpt><trkpt lat="43.183674" lon="11.7691398"><ele>264.3333333333333</ele><time>2026-04-26T13:41:50.856Z</time></trkpt><trkpt lat="43.1837818" lon="11.7689242"><ele>264.0</ele><time>2026-04-26T13:41:51.855Z</time></trkpt><trkpt lat="43.1838899" lon="11.7687017"><ele>264.6666666666667</ele><time>2026-04-26T13:41:52.856Z</time></trkpt><trkpt lat="43.1839955" lon="11.7684796"><ele>265.33333333333337</ele><time>2026-04-26T13:41:53.856Z</time></trkpt><trkpt lat="43.1840977" lon="11.7682749"><ele>266.0</ele><time>2026-04-26T13:41:54.856Z</time></trkpt><trkpt lat="43.184195" lon="11.76808"><ele>266.0</ele><time>2026-04-26T13:41:55.856Z</time></trkpt><trkpt lat="43.184288" lon="11.7678921"><ele>266.0</ele><time>2026-04-26T13:41:56.856Z</time></trkpt><trkpt lat="43.1843819" lon="11.7677134"><ele>266.0</ele><time>2026-04-26T13:41:57.856Z</time></trkpt><trkpt lat="43.184469" lon="11.7675383"><ele>266.0</ele><time>2026-04-26T13:41:58.856Z</time></trkpt><trkpt lat="43.18455" lon="11.767366"><ele>266.0</ele><time>2026-04-26T13:41:59.855Z</time></trkpt><trkpt lat="43.1846305" lon="11.767205"><ele>266.0</ele><time>2026-04-26T13:42:00.856Z</time></trkpt><trkpt lat="43.1847054" lon="11.7670447"><ele>266.0</ele><time>2026-04-26T13:42:01.855Z</time></trkpt><trkpt lat="43.1847786" lon="11.766882"><ele>265.5</ele><time>2026-04-26T13:42:02.856Z</time></trkpt><trkpt lat="43.1848547" lon="11.7667314"><ele>265.0</ele><time>2026-04-26T13:42:03.856Z</time></trkpt><trkpt lat="43.1849306" lon="11.766579"><ele>264.5</ele><time>2026-04-26T13:42:04.856Z</time></trkpt><trkpt lat="43.1850093" lon="11.7664277"><ele>264.0</ele><time>2026-04-26T13:42:05.855Z</time></trkpt><trkpt lat="43.1850874" lon="11.7662648"><ele>264.0</ele><time>2026-04-26T13:42:06.856Z</time></trkpt><trkpt lat="43.1851751" lon="11.7660898"><ele>264.0</ele><time>2026-04-26T13:42:07.856Z</time></trkpt><trkpt lat="43.185267" lon="11.7659061"><ele>264.0</ele><time>2026-04-26T13:42:08.856Z</time></trkpt><trkpt lat="43.185367" lon="11.765714"><ele>264.0</ele><time>2026-04-26T13:42:09.855Z</time></trkpt><trkpt lat="43.1854737" lon="11.7655217"><ele>264.0</ele><time>2026-04-26T13:42:10.855Z</time></trkpt><trkpt lat="43.1855839" lon="11.7653257"><ele>264.0</ele><time>2026-04-26T13:42:11.856Z</time></trkpt><trkpt lat="43.1856938" lon="11.765117"><ele>263.6666666666667</ele><time>2026-04-26T13:42:12.856Z</time></trkpt><trkpt lat="43.1858093" lon="11.7649085"><ele>263.33333333333337</ele><time>2026-04-26T13:42:13.856Z</time></trkpt><trkpt lat="43.1859282" lon="11.7646947"><ele>263.0</ele><time>2026-04-26T13:42:14.856Z</time></trkpt><trkpt lat="43.1860482" lon="11.7644791"><ele>263.0</ele><time>2026-04-26T13:42:15.856Z</time></trkpt><trkpt lat="43.1861661" lon="11.7642609"><ele>263.0</ele><time>2026-04-26T13:42:16.856Z</time></trkpt><trkpt lat="43.1862841" lon="11.7640394"><ele>263.0</ele><time>2026-04-26T13:42:17.856Z</time></trkpt><trkpt lat="43.1863975" lon="11.7638144"><ele>263.0</ele><time>2026-04-26T13:42:18.856Z</time></trkpt><trkpt lat="43.1865146" lon="11.7635816"><ele>263.0</ele><time>2026-04-26T13:42:19.856Z</time></trkpt><trkpt lat="43.1866256" lon="11.7633548"><ele>263.0</ele><time>2026-04-26T13:42:20.856Z</time></trkpt><trkpt lat="43.1867425" lon="11.7631145"><ele>263.0</ele><time>2026-04-26T13:42:21.856Z</time></trkpt><trkpt lat="43.1868599" lon="11.7628762"><ele>263.0</ele><time>2026-04-26T13:42:22.856Z</time></trkpt><trkpt lat="43.1869795" lon="11.7626406"><ele>263.0</ele><time>2026-04-26T13:42:23.856Z</time></trkpt><trkpt lat="43.1870904" lon="11.7624151"><ele>263.0</ele><time>2026-04-26T13:42:24.856Z</time></trkpt><trkpt lat="43.1872012" lon="11.7621971"><ele>263.0</ele><time>2026-04-26T13:42:25.855Z</time></trkpt><trkpt lat="43.1873138" lon="11.7619892"><ele>263.0</ele><time>2026-04-26T13:42:26.856Z</time></trkpt><trkpt lat="43.1874163" lon="11.7617829"><ele>263.0</ele><time>2026-04-26T13:42:27.856Z</time></trkpt><trkpt lat="43.1875168" lon="11.7615707"><ele>263.0</ele><time>2026-04-26T13:42:28.856Z</time></trkpt><trkpt lat="43.1876175" lon="11.7613611"><ele>263.0</ele><time>2026-04-26T13:42:29.856Z</time></trkpt><trkpt lat="43.1877232" lon="11.7611596"><ele>264.0</ele><time>2026-04-26T13:42:30.856Z</time></trkpt><trkpt lat="43.187833" lon="11.7609554"><ele>265.0</ele><time>2026-04-26T13:42:31.856Z</time></trkpt><trkpt lat="43.1879441" lon="11.7607483"><ele>266.0</ele><time>2026-04-26T13:42:32.856Z</time></trkpt><trkpt lat="43.1880531" lon="11.7605434"><ele>266.0</ele><time>2026-04-26T13:42:33.855Z</time></trkpt><trkpt lat="43.1881637" lon="11.7603324"><ele>266.0</ele><time>2026-04-26T13:42:34.856Z</time></trkpt><trkpt lat="43.1882782" lon="11.7601241"><ele>266.0</ele><time>2026-04-26T13:42:35.855Z</time></trkpt><trkpt lat="43.1883891" lon="11.7599121"><ele>266.0</ele><time>2026-04-26T13:42:36.856Z</time></trkpt><trkpt lat="43.1884986" lon="11.7596955"><ele>266.0</ele><time>2026-04-26T13:42:37.855Z</time></trkpt><trkpt lat="43.1886105" lon="11.7594825"><ele>266.0</ele><time>2026-04-26T13:42:38.856Z</time></trkpt><trkpt lat="43.1887212" lon="11.7592733"><ele>266.0</ele><time>2026-04-26T13:42:39.856Z</time></trkpt><trkpt lat="43.1888296" lon="11.7590647"><ele>266.0</ele><time>2026-04-26T13:42:40.855Z</time></trkpt><trkpt lat="43.1889371" lon="11.7588576"><ele>266.0</ele><time>2026-04-26T13:42:41.856Z</time></trkpt><trkpt lat="43.1890457" lon="11.7586497"><ele>265.33333333333337</ele><time>2026-04-26T13:42:42.856Z</time></trkpt><trkpt lat="43.1891516" lon="11.7584465"><ele>264.6666666666667</ele><time>2026-04-26T13:42:43.855Z</time></trkpt><trkpt lat="43.1892565" lon="11.758246"><ele>264.0</ele><time>2026-04-26T13:42:44.856Z</time></trkpt><trkpt lat="43.189357" lon="11.7580624"><ele>264.0</ele><time>2026-04-26T13:42:45.856Z</time></trkpt><trkpt lat="43.1894578" lon="11.7578906"><ele>264.0</ele><time>2026-04-26T13:42:46.855Z</time></trkpt><trkpt lat="43.1895617" lon="11.7577346"><ele>264.0</ele><time>2026-04-26T13:42:47.856Z</time></trkpt><trkpt lat="43.1896703" lon="11.757613"><ele>264.0</ele><time>2026-04-26T13:42:48.855Z</time></trkpt><trkpt lat="43.1897965" lon="11.7575353"><ele>264.0</ele><time>2026-04-26T13:42:49.856Z</time></trkpt><trkpt lat="43.1899245" lon="11.7575084"><ele>264.0</ele><time>2026-04-26T13:42:50.856Z</time></trkpt><trkpt lat="43.1900716" lon="11.7575554"><ele>264.0</ele><time>2026-04-26T13:42:51.855Z</time></trkpt><trkpt lat="43.1902187" lon="11.7576525"><ele>263.6666666666667</ele><time>2026-04-26T13:42:52.856Z</time></trkpt><trkpt lat="43.1903647" lon="11.7577628"><ele>263.33333333333337</ele><time>2026-04-26T13:42:53.856Z</time></trkpt><trkpt lat="43.1905222" lon="11.7578687"><ele>263.0</ele><time>2026-04-26T13:42:54.856Z</time></trkpt><trkpt lat="43.1906857" lon="11.7579749"><ele>262.33333333333337</ele><time>2026-04-26T13:42:55.856Z</time></trkpt><trkpt lat="43.1908604" lon="11.7580936"><ele>261.6666666666667</ele><time>2026-04-26T13:42:56.856Z</time></trkpt><trkpt lat="43.1910497" lon="11.7582147"><ele>261.0</ele><time>2026-04-26T13:42:57.856Z</time></trkpt><trkpt lat="43.191246" lon="11.7583443"><ele>261.0</ele><time>2026-04-26T13:42:58.856Z</time></trkpt><trkpt lat="43.1914454" lon="11.7584752"><ele>261.0</ele><time>2026-04-26T13:42:59.856Z</time></trkpt><trkpt lat="43.1916443" lon="11.7586112"><ele>261.0</ele><time>2026-04-26T13:43:00.855Z</time></trkpt><trkpt lat="43.1918398" lon="11.7587515"><ele>261.0</ele><time>2026-04-26T13:43:01.855Z</time></trkpt><trkpt lat="43.1920365" lon="11.7588879"><ele>261.0</ele><time>2026-04-26T13:43:02.856Z</time></trkpt><trkpt lat="43.1922354" lon="11.7590232"><ele>261.0</ele><time>2026-04-26T13:43:03.855Z</time></trkpt><trkpt lat="43.192438" lon="11.759159"><ele>261.0</ele><time>2026-04-26T13:43:04.856Z</time></trkpt><trkpt lat="43.1926375" lon="11.7592924"><ele>261.0</ele><time>2026-04-26T13:43:05.856Z</time></trkpt><trkpt lat="43.1928354" lon="11.759427"><ele>261.0</ele><time>2026-04-26T13:43:06.855Z</time></trkpt><trkpt lat="43.1930383" lon="11.7595661"><ele>259.5</ele><time>2026-04-26T13:43:07.855Z</time></trkpt><trkpt lat="43.1932436" lon="11.7597027"><ele>258.0</ele><time>2026-04-26T13:43:08.856Z</time></trkpt><trkpt lat="43.1934608" lon="11.7598402"><ele>258.0</ele><time>2026-04-26T13:43:09.856Z</time></trkpt><trkpt lat="43.193686" lon="11.7599778"><ele>258.0</ele><time>2026-04-26T13:43:10.856Z</time></trkpt><trkpt lat="43.1939116" lon="11.7601227"><ele>257.5</ele><time>2026-04-26T13:43:11.856Z</time></trkpt><trkpt lat="43.1941386" lon="11.760283"><ele>257.0</ele><time>2026-04-26T13:43:12.856Z</time></trkpt><trkpt lat="43.1943669" lon="11.7604512"><ele>257.0</ele><time>2026-04-26T13:43:13.856Z</time></trkpt><trkpt lat="43.1945918" lon="11.7606136"><ele>257.0</ele><time>2026-04-26T13:43:14.856Z</time></trkpt><trkpt lat="43.1948116" lon="11.7607647"><ele>257.5</ele><time>2026-04-26T13:43:15.855Z</time></trkpt><trkpt lat="43.1950286" lon="11.7609139"><ele>258.0</ele><time>2026-04-26T13:43:16.856Z</time></trkpt><trkpt lat="43.1952303" lon="11.7610606"><ele>258.0</ele><time>2026-04-26T13:43:17.856Z</time></trkpt><trkpt lat="43.1954153" lon="11.761196"><ele>258.0</ele><time>2026-04-26T13:43:18.856Z</time></trkpt><trkpt lat="43.1955955" lon="11.7613072"><ele>258.0</ele><time>2026-04-26T13:43:19.856Z</time></trkpt><trkpt lat="43.1957794" lon="11.7613927"><ele>258.0</ele><time>2026-04-26T13:43:20.856Z</time></trkpt><trkpt lat="43.195967" lon="11.7614291"><ele>258.0</ele><time>2026-04-26T13:43:21.855Z</time></trkpt><trkpt lat="43.1961557" lon="11.7614285"><ele>258.0</ele><time>2026-04-26T13:43:22.856Z</time></trkpt><trkpt lat="43.1963506" lon="11.7613843"><ele>259.0</ele><time>2026-04-26T13:43:23.856Z</time></trkpt><trkpt lat="43.1965437" lon="11.7613026"><ele>260.0</ele><time>2026-04-26T13:43:24.856Z</time></trkpt><trkpt lat="43.1967407" lon="11.7612035"><ele>261.0</ele><time>2026-04-26T13:43:25.856Z</time></trkpt><trkpt lat="43.1969334" lon="11.7611054"><ele>261.3333333333333</ele><time>2026-04-26T13:43:26.856Z</time></trkpt><trkpt lat="43.1971249" lon="11.7609993"><ele>261.66666666666663</ele><time>2026-04-26T13:43:27.856Z</time></trkpt><trkpt lat="43.1973212" lon="11.7608957"><ele>262.0</ele><time>2026-04-26T13:43:28.855Z</time></trkpt><trkpt lat="43.197508" lon="11.7607923"><ele>262.0</ele><time>2026-04-26T13:43:29.856Z</time></trkpt><trkpt lat="43.1976998" lon="11.7606928"><ele>262.0</ele><time>2026-04-26T13:43:30.856Z</time></trkpt><trkpt lat="43.1978832" lon="11.7606321"><ele>262.0</ele><time>2026-04-26T13:43:31.856Z</time></trkpt><trkpt lat="43.1980738" lon="11.760616"><ele>262.0</ele><time>2026-04-26T13:43:32.855Z</time></trkpt><trkpt lat="43.1982657" lon="11.7606314"><ele>262.0</ele><time>2026-04-26T13:43:33.856Z</time></trkpt><trkpt lat="43.1984545" lon="11.760682"><ele>262.0</ele><time>2026-04-26T13:43:34.856Z</time></trkpt><trkpt lat="43.1986384" lon="11.7607634"><ele>262.0</ele><time>2026-04-26T13:43:35.856Z</time></trkpt><trkpt lat="43.1988249" lon="11.7608678"><ele>262.0</ele><time>2026-04-26T13:43:36.856Z</time></trkpt><trkpt lat="43.198999" lon="11.7609977"><ele>262.0</ele><time>2026-04-26T13:43:37.855Z</time></trkpt><trkpt lat="43.1991659" lon="11.7611382"><ele>260.3333333333333</ele><time>2026-04-26T13:43:38.856Z</time></trkpt><trkpt lat="43.1993342" lon="11.7612795"><ele>258.6666666666667</ele><time>2026-04-26T13:43:39.855Z</time></trkpt><trkpt lat="43.1995025" lon="11.7614207"><ele>257.0</ele><time>2026-04-26T13:43:40.856Z</time></trkpt><trkpt lat="43.1996731" lon="11.7615777"><ele>257.0</ele><time>2026-04-26T13:43:41.856Z</time></trkpt><trkpt lat="43.1998208" lon="11.7617639"><ele>257.0</ele><time>2026-04-26T13:43:42.856Z</time></trkpt><trkpt lat="43.1999516" lon="11.7619597"><ele>257.0</ele><time>2026-04-26T13:43:43.856Z</time></trkpt><trkpt lat="43.2000729" lon="11.7621595"><ele>257.0</ele><time>2026-04-26T13:43:44.856Z</time></trkpt><trkpt lat="43.2002084" lon="11.7623641"><ele>257.0</ele><time>2026-04-26T13:43:45.855Z</time></trkpt><trkpt lat="43.2003499" lon="11.7625768"><ele>257.0</ele><time>2026-04-26T13:43:46.855Z</time></trkpt><trkpt lat="43.2004963" lon="11.762802"><ele>256.5</ele><time>2026-04-26T13:43:47.856Z</time></trkpt><trkpt lat="43.2006458" lon="11.7630374"><ele>256.0</ele><time>2026-04-26T13:43:48.856Z</time></trkpt><trkpt lat="43.2008089" lon="11.7632778"><ele>256.0</ele><time>2026-04-26T13:43:49.856Z</time></trkpt><trkpt lat="43.2009816" lon="11.7635166"><ele>256.0</ele><time>2026-04-26T13:43:50.855Z</time></trkpt><trkpt lat="43.2011606" lon="11.7637368"><ele>256.5</ele><time>2026-04-26T13:43:51.855Z</time></trkpt><trkpt lat="43.2013429" lon="11.7639508"><ele>257.0</ele><time>2026-04-26T13:43:52.856Z</time></trkpt><trkpt lat="43.2015362" lon="11.7641728"><ele>255.5</ele><time>2026-04-26T13:43:53.856Z</time></trkpt><trkpt lat="43.201735" lon="11.7644023"><ele>254.0</ele><time>2026-04-26T13:43:54.855Z</time></trkpt><trkpt lat="43.2019305" lon="11.7646466"><ele>254.0</ele><time>2026-04-26T13:43:55.856Z</time></trkpt><trkpt lat="43.2021269" lon="11.7648746"><ele>254.0</ele><time>2026-04-26T13:43:56.856Z</time></trkpt><trkpt lat="43.2023255" lon="11.7650773"><ele>255.5</ele><time>2026-04-26T13:43:57.855Z</time></trkpt><trkpt lat="43.2025257" lon="11.7652609"><ele>257.0</ele><time>2026-04-26T13:43:58.856Z</time></trkpt><trkpt lat="43.202713" lon="11.765429"><ele>257.0</ele><time>2026-04-26T13:43:59.856Z</time></trkpt><trkpt lat="43.2028884" lon="11.7655835"><ele>257.0</ele><time>2026-04-26T13:44:00.856Z</time></trkpt><trkpt lat="43.2030484" lon="11.7657253"><ele>257.0</ele><time>2026-04-26T13:44:01.856Z</time></trkpt><trkpt lat="43.2032028" lon="11.765844"><ele>256.6666666666667</ele><time>2026-04-26T13:44:02.855Z</time></trkpt><trkpt lat="43.2033609" lon="11.7659201"><ele>256.3333333333333</ele><time>2026-04-26T13:44:03.856Z</time></trkpt><trkpt lat="43.2035228" lon="11.7659556"><ele>256.0</ele><time>2026-04-26T13:44:04.856Z</time></trkpt><trkpt lat="43.2036909" lon="11.7659554"><ele>256.0</ele><time>2026-04-26T13:44:05.856Z</time></trkpt><trkpt lat="43.2038661" lon="11.7659408"><ele>256.0</ele><time>2026-04-26T13:44:06.856Z</time></trkpt><trkpt lat="43.2040446" lon="11.7659176"><ele>256.0</ele><time>2026-04-26T13:44:07.856Z</time></trkpt><trkpt lat="43.2042249" lon="11.765892"><ele>255.66666666666666</ele><time>2026-04-26T13:44:08.855Z</time></trkpt><trkpt lat="43.2044075" lon="11.7658651"><ele>255.33333333333331</ele><time>2026-04-26T13:44:09.855Z</time></trkpt><trkpt lat="43.2045856" lon="11.7658309"><ele>255.0</ele><time>2026-04-26T13:44:10.856Z</time></trkpt><trkpt lat="43.204759" lon="11.7657701"><ele>255.33333333333331</ele><time>2026-04-26T13:44:11.856Z</time></trkpt><trkpt lat="43.2049216" lon="11.7656699"><ele>255.66666666666666</ele><time>2026-04-26T13:44:12.856Z</time></trkpt><trkpt lat="43.2050799" lon="11.7655174"><ele>256.0</ele><time>2026-04-26T13:44:13.856Z</time></trkpt><trkpt lat="43.2052228" lon="11.7653182"><ele>255.66666666666666</ele><time>2026-04-26T13:44:14.855Z</time></trkpt><trkpt lat="43.2053585" lon="11.7651005"><ele>255.33333333333331</ele><time>2026-04-26T13:44:15.855Z</time></trkpt><trkpt lat="43.2054891" lon="11.7648667"><ele>255.0</ele><time>2026-04-26T13:44:16.856Z</time></trkpt><trkpt lat="43.2056189" lon="11.7646271"><ele>255.33333333333331</ele><time>2026-04-26T13:44:17.856Z</time></trkpt><trkpt lat="43.2057508" lon="11.764381"><ele>255.66666666666666</ele><time>2026-04-26T13:44:18.855Z</time></trkpt><trkpt lat="43.2058855" lon="11.7641333"><ele>256.0</ele><time>2026-04-26T13:44:19.856Z</time></trkpt><trkpt lat="43.2060224" lon="11.763876"><ele>256.0</ele><time>2026-04-26T13:44:20.856Z</time></trkpt><trkpt lat="43.2061604" lon="11.7636191"><ele>256.0</ele><time>2026-04-26T13:44:21.856Z</time></trkpt><trkpt lat="43.2062978" lon="11.7633585"><ele>256.0</ele><time>2026-04-26T13:44:22.856Z</time></trkpt><trkpt lat="43.2064313" lon="11.7631047"><ele>256.0</ele><time>2026-04-26T13:44:23.856Z</time></trkpt><trkpt lat="43.206559" lon="11.7628626"><ele>256.0</ele><time>2026-04-26T13:44:24.856Z</time></trkpt><trkpt lat="43.2066868" lon="11.7626299"><ele>256.0</ele><time>2026-04-26T13:44:25.856Z</time></trkpt><trkpt lat="43.2068108" lon="11.7624023"><ele>256.0</ele><time>2026-04-26T13:44:26.856Z</time></trkpt><trkpt lat="43.206937" lon="11.7621897"><ele>256.0</ele><time>2026-04-26T13:44:27.856Z</time></trkpt><trkpt lat="43.2070766" lon="11.762001"><ele>256.0</ele><time>2026-04-26T13:44:28.855Z</time></trkpt><trkpt lat="43.2072281" lon="11.7618734"><ele>256.0</ele><time>2026-04-26T13:44:29.856Z</time></trkpt><trkpt lat="43.2073809" lon="11.7617821"><ele>256.0</ele><time>2026-04-26T13:44:30.855Z</time></trkpt><trkpt lat="43.2075467" lon="11.7617381"><ele>256.66666666666663</ele><time>2026-04-26T13:44:31.856Z</time></trkpt><trkpt lat="43.2077209" lon="11.7617432"><ele>257.3333333333333</ele><time>2026-04-26T13:44:32.856Z</time></trkpt><trkpt lat="43.2079022" lon="11.7617712"><ele>258.0</ele><time>2026-04-26T13:44:33.855Z</time></trkpt><trkpt lat="43.2080957" lon="11.7618102"><ele>257.6666666666667</ele><time>2026-04-26T13:44:34.856Z</time></trkpt><trkpt lat="43.2082985" lon="11.7618438"><ele>257.33333333333337</ele><time>2026-04-26T13:44:35.855Z</time></trkpt><trkpt lat="43.2085088" lon="11.7618774"><ele>257.0</ele><time>2026-04-26T13:44:36.855Z</time></trkpt><trkpt lat="43.208723" lon="11.7619044"><ele>257.33333333333337</ele><time>2026-04-26T13:44:37.855Z</time></trkpt><trkpt lat="43.2089396" lon="11.7619243"><ele>257.6666666666667</ele><time>2026-04-26T13:44:38.856Z</time></trkpt><trkpt lat="43.2091635" lon="11.7619438"><ele>258.0</ele><time>2026-04-26T13:44:39.855Z</time></trkpt><trkpt lat="43.2093874" lon="11.761958"><ele>258.0</ele><time>2026-04-26T13:44:40.855Z</time></trkpt><trkpt lat="43.2096046" lon="11.7619713"><ele>258.0</ele><time>2026-04-26T13:44:41.856Z</time></trkpt><trkpt lat="43.2098139" lon="11.7619832"><ele>258.0</ele><time>2026-04-26T13:44:42.856Z</time></trkpt><trkpt lat="43.2100131" lon="11.7619844"><ele>257.6666666666667</ele><time>2026-04-26T13:44:43.855Z</time></trkpt><trkpt lat="43.2102082" lon="11.7619837"><ele>257.33333333333337</ele><time>2026-04-26T13:44:44.855Z</time></trkpt><trkpt lat="43.2104013" lon="11.761982"><ele>257.0</ele><time>2026-04-26T13:44:45.855Z</time></trkpt><trkpt lat="43.210591" lon="11.7619797"><ele>257.0</ele><time>2026-04-26T13:44:46.856Z</time></trkpt><trkpt lat="43.2107811" lon="11.7619775"><ele>257.0</ele><time>2026-04-26T13:44:47.856Z</time></trkpt><trkpt lat="43.2109717" lon="11.7619761"><ele>257.0</ele><time>2026-04-26T13:44:48.856Z</time></trkpt><trkpt lat="43.2111641" lon="11.7619757"><ele>257.0</ele><time>2026-04-26T13:44:49.856Z</time></trkpt><trkpt lat="43.2113588" lon="11.7619732"><ele>257.0</ele><time>2026-04-26T13:44:50.856Z</time></trkpt><trkpt lat="43.2115546" lon="11.7619816"><ele>257.0</ele><time>2026-04-26T13:44:51.856Z</time></trkpt><trkpt lat="43.2117514" lon="11.7620078"><ele>257.33333333333337</ele><time>2026-04-26T13:44:52.856Z</time></trkpt><trkpt lat="43.2119526" lon="11.7620432"><ele>257.6666666666667</ele><time>2026-04-26T13:44:53.856Z</time></trkpt><trkpt lat="43.212158" lon="11.762082"><ele>258.0</ele><time>2026-04-26T13:44:54.856Z</time></trkpt><trkpt lat="43.2123676" lon="11.7621242"><ele>258.6666666666667</ele><time>2026-04-26T13:44:55.856Z</time></trkpt><trkpt lat="43.212579" lon="11.7621634"><ele>259.33333333333337</ele><time>2026-04-26T13:44:56.856Z</time></trkpt><trkpt lat="43.2127859" lon="11.7621993"><ele>260.0</ele><time>2026-04-26T13:44:57.856Z</time></trkpt><trkpt lat="43.2129964" lon="11.762215"><ele>259.33333333333337</ele><time>2026-04-26T13:44:58.856Z</time></trkpt><trkpt lat="43.2132123" lon="11.7622125"><ele>258.6666666666667</ele><time>2026-04-26T13:44:59.856Z</time></trkpt><trkpt lat="43.2134261" lon="11.7621922"><ele>258.0</ele><time>2026-04-26T13:45:00.856Z</time></trkpt><trkpt lat="43.2136429" lon="11.7621564"><ele>258.0</ele><time>2026-04-26T13:45:01.856Z</time></trkpt><trkpt lat="43.2138577" lon="11.7621012"><ele>258.0</ele><time>2026-04-26T13:45:02.856Z</time></trkpt><trkpt lat="43.2140694" lon="11.762034"><ele>258.0</ele><time>2026-04-26T13:45:03.856Z</time></trkpt><trkpt lat="43.2142743" lon="11.7619429"><ele>257.6666666666667</ele><time>2026-04-26T13:45:04.856Z</time></trkpt><trkpt lat="43.2144694" lon="11.7618456"><ele>257.33333333333337</ele><time>2026-04-26T13:45:05.856Z</time></trkpt><trkpt lat="43.2146628" lon="11.7617322"><ele>257.0</ele><time>2026-04-26T13:45:06.856Z</time></trkpt><trkpt lat="43.214853" lon="11.7615952"><ele>256.5</ele><time>2026-04-26T13:45:07.856Z</time></trkpt><trkpt lat="43.2150404" lon="11.7614244"><ele>256.0</ele><time>2026-04-26T13:45:08.855Z</time></trkpt><trkpt lat="43.2152182" lon="11.7612337"><ele>256.5</ele><time>2026-04-26T13:45:09.856Z</time></trkpt><trkpt lat="43.2153925" lon="11.7610302"><ele>257.0</ele><time>2026-04-26T13:45:10.856Z</time></trkpt><trkpt lat="43.2155767" lon="11.7608322"><ele>256.5</ele><time>2026-04-26T13:45:11.856Z</time></trkpt><trkpt lat="43.2157654" lon="11.7606362"><ele>256.0</ele><time>2026-04-26T13:45:12.855Z</time></trkpt><trkpt lat="43.2159549" lon="11.7604436"><ele>256.0</ele><time>2026-04-26T13:45:13.856Z</time></trkpt><trkpt lat="43.2161446" lon="11.7602521"><ele>256.0</ele><time>2026-04-26T13:45:14.855Z</time></trkpt><trkpt lat="43.2163275" lon="11.7600629"><ele>255.5</ele><time>2026-04-26T13:45:15.856Z</time></trkpt><trkpt lat="43.2165077" lon="11.7598744"><ele>255.0</ele><time>2026-04-26T13:45:16.856Z</time></trkpt><trkpt lat="43.216689" lon="11.7596894"><ele>255.0</ele><time>2026-04-26T13:45:17.855Z</time></trkpt><trkpt lat="43.2168668" lon="11.7595048"><ele>255.0</ele><time>2026-04-26T13:45:18.855Z</time></trkpt><trkpt lat="43.2170302" lon="11.7593231"><ele>255.0</ele><time>2026-04-26T13:45:19.855Z</time></trkpt><trkpt lat="43.2171816" lon="11.7591533"><ele>255.66666666666669</ele><time>2026-04-26T13:45:20.856Z</time></trkpt><trkpt lat="43.2173278" lon="11.7589969"><ele>256.33333333333337</ele><time>2026-04-26T13:45:21.856Z</time></trkpt><trkpt lat="43.2174606" lon="11.7588565"><ele>257.0</ele><time>2026-04-26T13:45:22.855Z</time></trkpt><trkpt lat="43.217594" lon="11.7587266"><ele>257.0</ele><time>2026-04-26T13:45:23.856Z</time></trkpt><trkpt lat="43.2177281" lon="11.7586088"><ele>257.0</ele><time>2026-04-26T13:45:24.856Z</time></trkpt><trkpt lat="43.2178636" lon="11.7584907"><ele>257.0</ele><time>2026-04-26T13:45:25.855Z</time></trkpt><trkpt lat="43.218002" lon="11.7583877"><ele>257.0</ele><time>2026-04-26T13:45:26.856Z</time></trkpt><trkpt lat="43.2181449" lon="11.7582979"><ele>257.0</ele><time>2026-04-26T13:45:27.856Z</time></trkpt><trkpt lat="43.2182927" lon="11.7582161"><ele>257.0</ele><time>2026-04-26T13:45:28.856Z</time></trkpt><trkpt lat="43.2184477" lon="11.7581414"><ele>257.33333333333337</ele><time>2026-04-26T13:45:29.855Z</time></trkpt><trkpt lat="43.2186065" lon="11.7580641"><ele>257.6666666666667</ele><time>2026-04-26T13:45:30.856Z</time></trkpt><trkpt lat="43.218776" lon="11.7579705"><ele>258.0</ele><time>2026-04-26T13:45:31.856Z</time></trkpt><trkpt lat="43.2189623" lon="11.7578769"><ele>257.6666666666667</ele><time>2026-04-26T13:45:32.856Z</time></trkpt><trkpt lat="43.2191599" lon="11.7577819"><ele>257.33333333333337</ele><time>2026-04-26T13:45:33.856Z</time></trkpt><trkpt lat="43.2193611" lon="11.7576938"><ele>257.0</ele><time>2026-04-26T13:45:34.856Z</time></trkpt><trkpt lat="43.2195603" lon="11.7576137"><ele>256.6666666666667</ele><time>2026-04-26T13:45:35.856Z</time></trkpt><trkpt lat="43.2197595" lon="11.7575308"><ele>256.3333333333333</ele><time>2026-04-26T13:45:36.855Z</time></trkpt><trkpt lat="43.2199561" lon="11.7574428"><ele>256.0</ele><time>2026-04-26T13:45:37.855Z</time></trkpt><trkpt lat="43.2201433" lon="11.757352"><ele>256.0</ele><time>2026-04-26T13:45:38.856Z</time></trkpt><trkpt lat="43.220318" lon="11.7572704"><ele>256.0</ele><time>2026-04-26T13:45:39.856Z</time></trkpt><trkpt lat="43.2204847" lon="11.7571952"><ele>256.0</ele><time>2026-04-26T13:45:40.856Z</time></trkpt><trkpt lat="43.2206361" lon="11.7571201"><ele>256.2</ele><time>2026-04-26T13:45:41.855Z</time></trkpt><trkpt lat="43.2207752" lon="11.7570508"><ele>256.40000000000003</ele><time>2026-04-26T13:45:42.856Z</time></trkpt><trkpt lat="43.2208954" lon="11.7569969"><ele>256.6</ele><time>2026-04-26T13:45:43.856Z</time></trkpt><trkpt lat="43.2209905" lon="11.7569689"><ele>256.8</ele><time>2026-04-26T13:45:44.856Z</time></trkpt><trkpt lat="43.2210674" lon="11.7569575"><ele>257.0</ele><time>2026-04-26T13:45:45.856Z</time></trkpt><trkpt lat="43.2211318" lon="11.7569596"><ele>257.0</ele><time>2026-04-26T13:45:46.855Z</time></trkpt><trkpt lat="43.2212068" lon="11.7569985"><ele>257.0</ele><time>2026-04-26T13:45:47.856Z</time></trkpt><trkpt lat="43.2212901" lon="11.7570405"><ele>257.0</ele><time>2026-04-26T13:45:48.856Z</time></trkpt><trkpt lat="43.2213896" lon="11.7570793"><ele>257.0</ele><time>2026-04-26T13:45:49.856Z</time></trkpt><trkpt lat="43.2214985" lon="11.7570934"><ele>257.0</ele><time>2026-04-26T13:45:50.855Z</time></trkpt><trkpt lat="43.2216076" lon="11.7570483"><ele>257.0</ele><time>2026-04-26T13:45:51.856Z</time></trkpt><trkpt lat="43.2217012" lon="11.7569621"><ele>257.0</ele><time>2026-04-26T13:45:52.856Z</time></trkpt><trkpt lat="43.2217662" lon="11.7568478"><ele>257.0</ele><time>2026-04-26T13:45:53.856Z</time></trkpt><trkpt lat="43.2217864" lon="11.7567246"><ele>257.0</ele><time>2026-04-26T13:45:54.855Z</time></trkpt><trkpt lat="43.2217855" lon="11.7565838"><ele>257.0</ele><time>2026-04-26T13:45:55.856Z</time></trkpt><trkpt lat="43.2217617" lon="11.7564304"><ele>257.5</ele><time>2026-04-26T13:45:56.856Z</time></trkpt><trkpt lat="43.2217251" lon="11.7562712"><ele>258.0</ele><time>2026-04-26T13:45:57.856Z</time></trkpt><trkpt lat="43.2216608" lon="11.7561061"><ele>258.5</ele><time>2026-04-26T13:45:58.856Z</time></trkpt><trkpt lat="43.2215873" lon="11.7559386"><ele>259.0</ele><time>2026-04-26T13:45:59.856Z</time></trkpt><trkpt lat="43.2215075" lon="11.7557676"><ele>258.75</ele><time>2026-04-26T13:46:00.856Z</time></trkpt><trkpt lat="43.2214321" lon="11.7556022"><ele>258.5</ele><time>2026-04-26T13:46:01.856Z</time></trkpt><trkpt lat="43.2213552" lon="11.7554449"><ele>258.25</ele><time>2026-04-26T13:46:02.855Z</time></trkpt><trkpt lat="43.2212812" lon="11.7552977"><ele>258.0</ele><time>2026-04-26T13:46:03.855Z</time></trkpt><trkpt lat="43.2212103" lon="11.755167"><ele>258.0</ele><time>2026-04-26T13:46:04.856Z</time></trkpt><trkpt lat="43.2211467" lon="11.7550391"><ele>258.0</ele><time>2026-04-26T13:46:05.856Z</time></trkpt><trkpt lat="43.2210939" lon="11.7549198"><ele>258.0</ele><time>2026-04-26T13:46:06.855Z</time></trkpt><trkpt lat="43.2210572" lon="11.7547928"><ele>258.0</ele><time>2026-04-26T13:46:07.856Z</time></trkpt><trkpt lat="43.2210498" lon="11.7546551"><ele>258.0</ele><time>2026-04-26T13:46:08.855Z</time></trkpt><trkpt lat="43.2210882" lon="11.7545158"><ele>258.0</ele><time>2026-04-26T13:46:09.855Z</time></trkpt><trkpt lat="43.2211708" lon="11.7544063"><ele>258.0</ele><time>2026-04-26T13:46:10.856Z</time></trkpt><trkpt lat="43.2212811" lon="11.7543167"><ele>258.0</ele><time>2026-04-26T13:46:11.856Z</time></trkpt><trkpt lat="43.221422" lon="11.7542533"><ele>258.0</ele><time>2026-04-26T13:46:12.856Z</time></trkpt><trkpt lat="43.2215792" lon="11.7541862"><ele>257.3333333333333</ele><time>2026-04-26T13:46:13.856Z</time></trkpt><trkpt lat="43.2217431" lon="11.7541146"><ele>256.66666666666663</ele><time>2026-04-26T13:46:14.855Z</time></trkpt><trkpt lat="43.2219043" lon="11.7540373"><ele>256.0</ele><time>2026-04-26T13:46:15.856Z</time></trkpt><trkpt lat="43.2220647" lon="11.7539551"><ele>256.0</ele><time>2026-04-26T13:46:16.856Z</time></trkpt><trkpt lat="43.2222262" lon="11.7538722"><ele>256.0</ele><time>2026-04-26T13:46:17.856Z</time></trkpt><trkpt lat="43.2223869" lon="11.7537912"><ele>256.0</ele><time>2026-04-26T13:46:18.856Z</time></trkpt><trkpt lat="43.2225474" lon="11.7537149"><ele>256.66666666666663</ele><time>2026-04-26T13:46:19.856Z</time></trkpt><trkpt lat="43.2227047" lon="11.7536385"><ele>257.3333333333333</ele><time>2026-04-26T13:46:20.855Z</time></trkpt><trkpt lat="43.2228615" lon="11.7535717"><ele>258.0</ele><time>2026-04-26T13:46:21.856Z</time></trkpt><trkpt lat="43.2230025" lon="11.7535273"><ele>258.0</ele><time>2026-04-26T13:46:22.855Z</time></trkpt><trkpt lat="43.2231198" lon="11.7534847"><ele>258.0</ele><time>2026-04-26T13:46:23.856Z</time></trkpt><trkpt lat="43.2232255" lon="11.7534427"><ele>258.0</ele><time>2026-04-26T13:46:24.856Z</time></trkpt><trkpt lat="43.2233262" lon="11.7534295"><ele>258.0</ele><time>2026-04-26T13:46:25.856Z</time></trkpt><trkpt lat="43.2234329" lon="11.7534391"><ele>258.0</ele><time>2026-04-26T13:46:26.856Z</time></trkpt><trkpt lat="43.2235305" lon="11.7534826"><ele>258.0</ele><time>2026-04-26T13:46:27.855Z</time></trkpt><trkpt lat="43.2236173" lon="11.7535433"><ele>258.0</ele><time>2026-04-26T13:46:28.856Z</time></trkpt><trkpt lat="43.2236986" lon="11.7535699"><ele>258.0</ele><time>2026-04-26T13:46:29.856Z</time></trkpt><trkpt lat="43.2237913" lon="11.7535076"><ele>258.0</ele><time>2026-04-26T13:46:30.856Z</time></trkpt><trkpt lat="43.2238602" lon="11.7533946"><ele>258.0</ele><time>2026-04-26T13:46:31.855Z</time></trkpt><trkpt lat="43.2239253" lon="11.7532684"><ele>257.75</ele><time>2026-04-26T13:46:32.856Z</time></trkpt><trkpt lat="43.224022" lon="11.7531367"><ele>257.5</ele><time>2026-04-26T13:46:33.855Z</time></trkpt><trkpt lat="43.2241361" lon="11.7530137"><ele>257.25</ele><time>2026-04-26T13:46:34.856Z</time></trkpt><trkpt lat="43.2242659" lon="11.7529073"><ele>257.0</ele><time>2026-04-26T13:46:35.856Z</time></trkpt><trkpt lat="43.2244193" lon="11.7528209"><ele>257.0</ele><time>2026-04-26T13:46:36.855Z</time></trkpt><trkpt lat="43.2245858" lon="11.7527482"><ele>257.0</ele><time>2026-04-26T13:46:37.856Z</time></trkpt><trkpt lat="43.2247546" lon="11.7526715"><ele>257.0</ele><time>2026-04-26T13:46:38.856Z</time></trkpt><trkpt lat="43.22493" lon="11.752589"><ele>257.6666666666667</ele><time>2026-04-26T13:46:39.856Z</time></trkpt><trkpt lat="43.2251148" lon="11.7524981"><ele>258.3333333333333</ele><time>2026-04-26T13:46:40.856Z</time></trkpt><trkpt lat="43.2253063" lon="11.7523995"><ele>259.0</ele><time>2026-04-26T13:46:41.856Z</time></trkpt><trkpt lat="43.225505" lon="11.7523047"><ele>259.0</ele><time>2026-04-26T13:46:42.856Z</time></trkpt><trkpt lat="43.2257073" lon="11.7522097"><ele>259.0</ele><time>2026-04-26T13:46:43.856Z</time></trkpt><trkpt lat="43.2259079" lon="11.7521153"><ele>259.0</ele><time>2026-04-26T13:46:44.856Z</time></trkpt><trkpt lat="43.2261094" lon="11.752018"><ele>259.0</ele><time>2026-04-26T13:46:45.855Z</time></trkpt><trkpt lat="43.2263097" lon="11.7519191"><ele>259.0</ele><time>2026-04-26T13:46:46.855Z</time></trkpt><trkpt lat="43.2265133" lon="11.7518192"><ele>259.0</ele><time>2026-04-26T13:46:47.856Z</time></trkpt><trkpt lat="43.2267197" lon="11.7517189"><ele>259.0</ele><time>2026-04-26T13:46:48.855Z</time></trkpt><trkpt lat="43.2269267" lon="11.7516235"><ele>259.0</ele><time>2026-04-26T13:46:49.855Z</time></trkpt><trkpt lat="43.2271359" lon="11.7515279"><ele>259.0</ele><time>2026-04-26T13:46:50.855Z</time></trkpt><trkpt lat="43.2273484" lon="11.7514277"><ele>258.0</ele><time>2026-04-26T13:46:51.855Z</time></trkpt><trkpt lat="43.2275603" lon="11.7513249"><ele>257.0</ele><time>2026-04-26T13:46:52.856Z</time></trkpt><trkpt lat="43.2277724" lon="11.7512169"><ele>257.0</ele><time>2026-04-26T13:46:53.856Z</time></trkpt><trkpt lat="43.2279822" lon="11.7511071"><ele>257.0</ele><time>2026-04-26T13:46:54.856Z</time></trkpt><trkpt lat="43.2281966" lon="11.7509998"><ele>257.0</ele><time>2026-04-26T13:46:55.855Z</time></trkpt><trkpt lat="43.2284097" lon="11.7508921"><ele>257.0</ele><time>2026-04-26T13:46:56.855Z</time></trkpt><trkpt lat="43.2286276" lon="11.7507861"><ele>257.0</ele><time>2026-04-26T13:46:57.856Z</time></trkpt><trkpt lat="43.228845" lon="11.7506791"><ele>257.0</ele><time>2026-04-26T13:46:58.856Z</time></trkpt><trkpt lat="43.2290609" lon="11.7505731"><ele>257.5</ele><time>2026-04-26T13:46:59.856Z</time></trkpt><trkpt lat="43.2292799" lon="11.750469"><ele>258.0</ele><time>2026-04-26T13:47:00.856Z</time></trkpt><trkpt lat="43.2294976" lon="11.7503598"><ele>258.0</ele><time>2026-04-26T13:47:01.856Z</time></trkpt><trkpt lat="43.2297143" lon="11.7502465"><ele>258.0</ele><time>2026-04-26T13:47:02.856Z</time></trkpt><trkpt lat="43.2299277" lon="11.7501355"><ele>259.0</ele><time>2026-04-26T13:47:03.856Z</time></trkpt><trkpt lat="43.2301395" lon="11.750027"><ele>260.0</ele><time>2026-04-26T13:47:04.856Z</time></trkpt><trkpt lat="43.2303477" lon="11.7499151"><ele>260.0</ele><time>2026-04-26T13:47:05.856Z</time></trkpt><trkpt lat="43.2305533" lon="11.7498026"><ele>260.0</ele><time>2026-04-26T13:47:06.856Z</time></trkpt><trkpt lat="43.230754" lon="11.7496944"><ele>260.0</ele><time>2026-04-26T13:47:07.856Z</time></trkpt><trkpt lat="43.2309481" lon="11.7495937"><ele>260.0</ele><time>2026-04-26T13:47:08.856Z</time></trkpt><trkpt lat="43.2311361" lon="11.7494975"><ele>260.0</ele><time>2026-04-26T13:47:09.856Z</time></trkpt><trkpt lat="43.2313074" lon="11.7494088"><ele>260.0</ele><time>2026-04-26T13:47:10.855Z</time></trkpt><trkpt lat="43.2314722" lon="11.7493286"><ele>260.0</ele><time>2026-04-26T13:47:11.856Z</time></trkpt><trkpt lat="43.231626" lon="11.7492495"><ele>260.0</ele><time>2026-04-26T13:47:12.856Z</time></trkpt><trkpt lat="43.2317598" lon="11.7491693"><ele>260.0</ele><time>2026-04-26T13:47:13.856Z</time></trkpt><trkpt lat="43.2318695" lon="11.7490574"><ele>260.0</ele><time>2026-04-26T13:47:14.856Z</time></trkpt><trkpt lat="43.231929" lon="11.7489238"><ele>260.0</ele><time>2026-04-26T13:47:15.856Z</time></trkpt><trkpt lat="43.2319566" lon="11.7487958"><ele>260.0</ele><time>2026-04-26T13:47:16.856Z</time></trkpt><trkpt lat="43.2319826" lon="11.7487023"><ele>260.0</ele><time>2026-04-26T13:47:17.855Z</time></trkpt><trkpt lat="43.2320627" lon="11.7486154"><ele>260.0</ele><time>2026-04-26T13:47:19.855Z</time></trkpt><trkpt lat="43.2321321" lon="11.7486047"><ele>260.0</ele><time>2026-04-26T13:47:20.855Z</time></trkpt><trkpt lat="43.232215" lon="11.7486305"><ele>260.0</ele><time>2026-04-26T13:47:21.855Z</time></trkpt><trkpt lat="43.2323086" lon="11.7486754"><ele>260.5</ele><time>2026-04-26T13:47:22.854Z</time></trkpt><trkpt lat="43.2324156" lon="11.7487303"><ele>261.0</ele><time>2026-04-26T13:47:23.854Z</time></trkpt><trkpt lat="43.2325424" lon="11.7487846"><ele>261.5</ele><time>2026-04-26T13:47:24.854Z</time></trkpt><trkpt lat="43.2326778" lon="11.7488387"><ele>262.0</ele><time>2026-04-26T13:47:25.855Z</time></trkpt><trkpt lat="43.2328228" lon="11.7489088"><ele>262.0</ele><time>2026-04-26T13:47:26.855Z</time></trkpt><trkpt lat="43.2329849" lon="11.7489861"><ele>262.0</ele><time>2026-04-26T13:47:27.855Z</time></trkpt><trkpt lat="43.233149" lon="11.7490595"><ele>262.0</ele><time>2026-04-26T13:47:28.855Z</time></trkpt><trkpt lat="43.2333042" lon="11.7491288"><ele>262.0</ele><time>2026-04-26T13:47:29.855Z</time></trkpt><trkpt lat="43.2334484" lon="11.7492217"><ele>262.0</ele><time>2026-04-26T13:47:30.855Z</time></trkpt><trkpt lat="43.2335767" lon="11.7493564"><ele>262.0</ele><time>2026-04-26T13:47:31.855Z</time></trkpt><trkpt lat="43.2336913" lon="11.749512"><ele>261.66666666666663</ele><time>2026-04-26T13:47:32.855Z</time></trkpt><trkpt lat="43.2338005" lon="11.7496698"><ele>261.3333333333333</ele><time>2026-04-26T13:47:33.855Z</time></trkpt><trkpt lat="43.2339247" lon="11.7498069"><ele>261.0</ele><time>2026-04-26T13:47:34.855Z</time></trkpt><trkpt lat="43.2340735" lon="11.7499063"><ele>261.0</ele><time>2026-04-26T13:47:35.855Z</time></trkpt><trkpt lat="43.2342472" lon="11.7499814"><ele>261.0</ele><time>2026-04-26T13:47:36.855Z</time></trkpt><trkpt lat="43.2344308" lon="11.7500314"><ele>261.0</ele><time>2026-04-26T13:47:37.854Z</time></trkpt><trkpt lat="43.2346321" lon="11.7500801"><ele>261.0</ele><time>2026-04-26T13:47:38.854Z</time></trkpt><trkpt lat="43.2348341" lon="11.7501283"><ele>261.0</ele><time>2026-04-26T13:47:39.855Z</time></trkpt><trkpt lat="43.2350346" lon="11.7501766"><ele>261.0</ele><time>2026-04-26T13:47:40.855Z</time></trkpt><trkpt lat="43.2352369" lon="11.750235"><ele>261.0</ele><time>2026-04-26T13:47:41.855Z</time></trkpt><trkpt lat="43.235439" lon="11.7502881"><ele>261.0</ele><time>2026-04-26T13:47:42.855Z</time></trkpt><trkpt lat="43.2356238" lon="11.7503451"><ele>261.0</ele><time>2026-04-26T13:47:43.855Z</time></trkpt><trkpt lat="43.2357994" lon="11.7503983"><ele>261.0</ele><time>2026-04-26T13:47:44.854Z</time></trkpt><trkpt lat="43.2359592" lon="11.7504497"><ele>261.0</ele><time>2026-04-26T13:47:45.854Z</time></trkpt><trkpt lat="43.2361084" lon="11.7504842"><ele>261.0</ele><time>2026-04-26T13:47:46.855Z</time></trkpt><trkpt lat="43.2362363" lon="11.7504585"><ele>261.0</ele><time>2026-04-26T13:47:47.855Z</time></trkpt><trkpt lat="43.2363781" lon="11.7503652"><ele>262.6666666666667</ele><time>2026-04-26T13:47:48.855Z</time></trkpt><trkpt lat="43.2365016" lon="11.7502311"><ele>264.33333333333337</ele><time>2026-04-26T13:47:49.855Z</time></trkpt><trkpt lat="43.2366137" lon="11.7500673"><ele>266.0</ele><time>2026-04-26T13:47:50.855Z</time></trkpt><trkpt lat="43.2367404" lon="11.7499191"><ele>266.0</ele><time>2026-04-26T13:47:51.855Z</time></trkpt><trkpt lat="43.2368835" lon="11.7497759"><ele>266.0</ele><time>2026-04-26T13:47:52.855Z</time></trkpt><trkpt lat="43.2370448" lon="11.7496461"><ele>266.0</ele><time>2026-04-26T13:47:53.855Z</time></trkpt><trkpt lat="43.2372002" lon="11.7495202"><ele>267.0</ele><time>2026-04-26T13:47:54.855Z</time></trkpt><trkpt lat="43.2373651" lon="11.7494043"><ele>268.0</ele><time>2026-04-26T13:47:55.855Z</time></trkpt><trkpt lat="43.2375338" lon="11.7493003"><ele>269.0</ele><time>2026-04-26T13:47:56.854Z</time></trkpt><trkpt lat="43.2376955" lon="11.7491955"><ele>269.0</ele><time>2026-04-26T13:47:57.855Z</time></trkpt><trkpt lat="43.2378486" lon="11.7490823"><ele>269.0</ele><time>2026-04-26T13:47:58.854Z</time></trkpt><trkpt lat="43.2380007" lon="11.7489611"><ele>269.0</ele><time>2026-04-26T13:47:59.855Z</time></trkpt><trkpt lat="43.2381494" lon="11.7488318"><ele>269.6666666666667</ele><time>2026-04-26T13:48:00.855Z</time></trkpt><trkpt lat="43.2382982" lon="11.7487015"><ele>270.3333333333333</ele><time>2026-04-26T13:48:01.855Z</time></trkpt><trkpt lat="43.2384478" lon="11.7485696"><ele>271.0</ele><time>2026-04-26T13:48:02.854Z</time></trkpt><trkpt lat="43.2385967" lon="11.7484365"><ele>270.66666666666663</ele><time>2026-04-26T13:48:03.855Z</time></trkpt><trkpt lat="43.2387522" lon="11.748306"><ele>270.3333333333333</ele><time>2026-04-26T13:48:04.855Z</time></trkpt><trkpt lat="43.2389147" lon="11.7481943"><ele>270.0</ele><time>2026-04-26T13:48:05.854Z</time></trkpt><trkpt lat="43.2390826" lon="11.7480923"><ele>270.0</ele><time>2026-04-26T13:48:06.855Z</time></trkpt><trkpt lat="43.239256" lon="11.7479841"><ele>270.0</ele><time>2026-04-26T13:48:07.855Z</time></trkpt><trkpt lat="43.239434" lon="11.747877"><ele>270.0</ele><time>2026-04-26T13:48:08.854Z</time></trkpt><trkpt lat="43.239617" lon="11.7477662"><ele>268.6666666666667</ele><time>2026-04-26T13:48:09.855Z</time></trkpt><trkpt lat="43.2398032" lon="11.7476483"><ele>267.33333333333337</ele><time>2026-04-26T13:48:10.855Z</time></trkpt><trkpt lat="43.2399895" lon="11.747531"><ele>266.0</ele><time>2026-04-26T13:48:11.854Z</time></trkpt><trkpt lat="43.2401805" lon="11.7474148"><ele>266.0</ele><time>2026-04-26T13:48:12.855Z</time></trkpt><trkpt lat="43.2403701" lon="11.7473003"><ele>266.0</ele><time>2026-04-26T13:48:13.855Z</time></trkpt><trkpt lat="43.2405577" lon="11.7471984"><ele>266.0</ele><time>2026-04-26T13:48:14.855Z</time></trkpt><trkpt lat="43.2407482" lon="11.7470956"><ele>265.6666666666667</ele><time>2026-04-26T13:48:15.854Z</time></trkpt><trkpt lat="43.2409409" lon="11.7469972"><ele>265.3333333333333</ele><time>2026-04-26T13:48:16.854Z</time></trkpt><trkpt lat="43.2411338" lon="11.7468952"><ele>265.0</ele><time>2026-04-26T13:48:17.855Z</time></trkpt><trkpt lat="43.2413232" lon="11.7467915"><ele>264.66666666666663</ele><time>2026-04-26T13:48:18.854Z</time></trkpt><trkpt lat="43.2415138" lon="11.7466921"><ele>264.3333333333333</ele><time>2026-04-26T13:48:19.855Z</time></trkpt><trkpt lat="43.2417104" lon="11.7465956"><ele>264.0</ele><time>2026-04-26T13:48:20.855Z</time></trkpt><trkpt lat="43.2419114" lon="11.7465062"><ele>264.0</ele><time>2026-04-26T13:48:21.855Z</time></trkpt><trkpt lat="43.2421171" lon="11.7464303"><ele>264.0</ele><time>2026-04-26T13:48:22.855Z</time></trkpt><trkpt lat="43.2423256" lon="11.7463662"><ele>264.0</ele><time>2026-04-26T13:48:23.854Z</time></trkpt><trkpt lat="43.2425319" lon="11.7463064"><ele>265.0</ele><time>2026-04-26T13:48:24.855Z</time></trkpt><trkpt lat="43.2427335" lon="11.7462363"><ele>266.0</ele><time>2026-04-26T13:48:25.854Z</time></trkpt><trkpt lat="43.2429368" lon="11.7461604"><ele>267.0</ele><time>2026-04-26T13:48:26.855Z</time></trkpt><trkpt lat="43.2431374" lon="11.7460816"><ele>266.6666666666667</ele><time>2026-04-26T13:48:27.855Z</time></trkpt><trkpt lat="43.2433363" lon="11.745999"><ele>266.33333333333337</ele><time>2026-04-26T13:48:28.855Z</time></trkpt><trkpt lat="43.2435324" lon="11.7459133"><ele>266.0</ele><time>2026-04-26T13:48:29.855Z</time></trkpt><trkpt lat="43.2437322" lon="11.7458367"><ele>266.0</ele><time>2026-04-26T13:48:30.854Z</time></trkpt><trkpt lat="43.2439316" lon="11.7457704"><ele>266.0</ele><time>2026-04-26T13:48:31.855Z</time></trkpt><trkpt lat="43.2441326" lon="11.7457143"><ele>266.0</ele><time>2026-04-26T13:48:32.855Z</time></trkpt><trkpt lat="43.2443267" lon="11.745674"><ele>266.0</ele><time>2026-04-26T13:48:33.855Z</time></trkpt><trkpt lat="43.2445118" lon="11.7456529"><ele>266.0</ele><time>2026-04-26T13:48:34.854Z</time></trkpt><trkpt lat="43.2446975" lon="11.7456387"><ele>266.0</ele><time>2026-04-26T13:48:35.855Z</time></trkpt><trkpt lat="43.2448773" lon="11.7456291"><ele>265.6666666666667</ele><time>2026-04-26T13:48:36.855Z</time></trkpt><trkpt lat="43.2450573" lon="11.7456181"><ele>265.3333333333333</ele><time>2026-04-26T13:48:37.855Z</time></trkpt><trkpt lat="43.245236" lon="11.7456099"><ele>265.0</ele><time>2026-04-26T13:48:38.855Z</time></trkpt><trkpt lat="43.2454122" lon="11.7455969"><ele>265.0</ele><time>2026-04-26T13:48:39.855Z</time></trkpt><trkpt lat="43.2455795" lon="11.7455851"><ele>265.0</ele><time>2026-04-26T13:48:40.855Z</time></trkpt><trkpt lat="43.2457398" lon="11.7455664"><ele>265.0</ele><time>2026-04-26T13:48:41.854Z</time></trkpt><trkpt lat="43.2458999" lon="11.7455123"><ele>265.3333333333333</ele><time>2026-04-26T13:48:42.855Z</time></trkpt><trkpt lat="43.2460552" lon="11.7454116"><ele>265.6666666666667</ele><time>2026-04-26T13:48:43.855Z</time></trkpt><trkpt lat="43.2462093" lon="11.745267"><ele>266.0</ele><time>2026-04-26T13:48:44.855Z</time></trkpt><trkpt lat="43.2463641" lon="11.7451211"><ele>266.0</ele><time>2026-04-26T13:48:45.855Z</time></trkpt><trkpt lat="43.2465237" lon="11.744975"><ele>266.0</ele><time>2026-04-26T13:48:46.855Z</time></trkpt><trkpt lat="43.24668" lon="11.7448182"><ele>266.0</ele><time>2026-04-26T13:48:47.855Z</time></trkpt><trkpt lat="43.2468377" lon="11.7446573"><ele>266.0</ele><time>2026-04-26T13:48:48.854Z</time></trkpt><trkpt lat="43.2469975" lon="11.744496"><ele>266.0</ele><time>2026-04-26T13:48:49.855Z</time></trkpt><trkpt lat="43.2471568" lon="11.7443314"><ele>266.0</ele><time>2026-04-26T13:48:50.855Z</time></trkpt><trkpt lat="43.2473132" lon="11.7441616"><ele>265.33333333333337</ele><time>2026-04-26T13:48:51.855Z</time></trkpt><trkpt lat="43.2474742" lon="11.7439829"><ele>264.6666666666667</ele><time>2026-04-26T13:48:52.854Z</time></trkpt><trkpt lat="43.2476406" lon="11.7438078"><ele>264.0</ele><time>2026-04-26T13:48:53.854Z</time></trkpt><trkpt lat="43.247813" lon="11.7436488"><ele>264.3333333333333</ele><time>2026-04-26T13:48:54.855Z</time></trkpt><trkpt lat="43.2479798" lon="11.743517"><ele>264.66666666666663</ele><time>2026-04-26T13:48:55.855Z</time></trkpt><trkpt lat="43.2481503" lon="11.7434115"><ele>265.0</ele><time>2026-04-26T13:48:56.855Z</time></trkpt><trkpt lat="43.2483343" lon="11.7433565"><ele>265.0</ele><time>2026-04-26T13:48:57.855Z</time></trkpt><trkpt lat="43.2485221" lon="11.7433128"><ele>265.0</ele><time>2026-04-26T13:48:58.855Z</time></trkpt><trkpt lat="43.2487109" lon="11.7432768"><ele>265.0</ele><time>2026-04-26T13:48:59.855Z</time></trkpt><trkpt lat="43.248901" lon="11.7432442"><ele>265.3333333333333</ele><time>2026-04-26T13:49:00.855Z</time></trkpt><trkpt lat="43.2490932" lon="11.7432209"><ele>265.6666666666667</ele><time>2026-04-26T13:49:01.855Z</time></trkpt><trkpt lat="43.2492849" lon="11.74322"><ele>266.0</ele><time>2026-04-26T13:49:02.855Z</time></trkpt><trkpt lat="43.2494729" lon="11.7432301"><ele>266.0</ele><time>2026-04-26T13:49:03.855Z</time></trkpt><trkpt lat="43.2496594" lon="11.7432457"><ele>266.0</ele><time>2026-04-26T13:49:04.855Z</time></trkpt><trkpt lat="43.249846" lon="11.7432654"><ele>266.0</ele><time>2026-04-26T13:49:05.855Z</time></trkpt><trkpt lat="43.2500282" lon="11.7432924"><ele>267.33333333333337</ele><time>2026-04-26T13:49:06.854Z</time></trkpt><trkpt lat="43.2502058" lon="11.7433282"><ele>268.6666666666667</ele><time>2026-04-26T13:49:07.855Z</time></trkpt><trkpt lat="43.2503805" lon="11.7433629"><ele>270.0</ele><time>2026-04-26T13:49:08.855Z</time></trkpt><trkpt lat="43.2505594" lon="11.7433774"><ele>270.0</ele><time>2026-04-26T13:49:09.854Z</time></trkpt><trkpt lat="43.2507422" lon="11.7433629"><ele>270.0</ele><time>2026-04-26T13:49:10.855Z</time></trkpt><trkpt lat="43.2509227" lon="11.7433323"><ele>270.0</ele><time>2026-04-26T13:49:11.855Z</time></trkpt><trkpt lat="43.2511059" lon="11.743278"><ele>270.0</ele><time>2026-04-26T13:49:12.855Z</time></trkpt><trkpt lat="43.2512891" lon="11.743226"><ele>270.0</ele><time>2026-04-26T13:49:13.855Z</time></trkpt><trkpt lat="43.2514697" lon="11.7431796"><ele>270.0</ele><time>2026-04-26T13:49:14.855Z</time></trkpt><trkpt lat="43.2516465" lon="11.743134"><ele>269.3333333333333</ele><time>2026-04-26T13:49:15.855Z</time></trkpt><trkpt lat="43.2518213" lon="11.7431177"><ele>268.66666666666663</ele><time>2026-04-26T13:49:16.854Z</time></trkpt><trkpt lat="43.2520021" lon="11.7431296"><ele>268.0</ele><time>2026-04-26T13:49:17.855Z</time></trkpt><trkpt lat="43.2521764" lon="11.7431689"><ele>268.3333333333333</ele><time>2026-04-26T13:49:18.854Z</time></trkpt><trkpt lat="43.2523433" lon="11.7432291"><ele>268.6666666666667</ele><time>2026-04-26T13:49:19.855Z</time></trkpt><trkpt lat="43.2524939" lon="11.7433146"><ele>269.0</ele><time>2026-04-26T13:49:20.855Z</time></trkpt><trkpt lat="43.2526237" lon="11.7434487"><ele>270.33333333333337</ele><time>2026-04-26T13:49:21.854Z</time></trkpt><trkpt lat="43.2527254" lon="11.7436289"><ele>271.6666666666667</ele><time>2026-04-26T13:49:22.854Z</time></trkpt><trkpt lat="43.2527925" lon="11.7438413"><ele>273.0</ele><time>2026-04-26T13:49:23.854Z</time></trkpt><trkpt lat="43.2528621" lon="11.7440678"><ele>273.0</ele><time>2026-04-26T13:49:24.855Z</time></trkpt><trkpt lat="43.2529327" lon="11.7442868"><ele>273.0</ele><time>2026-04-26T13:49:25.855Z</time></trkpt><trkpt lat="43.253001" lon="11.744506"><ele>273.0</ele><time>2026-04-26T13:49:26.855Z</time></trkpt><trkpt lat="43.2530763" lon="11.7447205"><ele>272.3333333333333</ele><time>2026-04-26T13:49:27.855Z</time></trkpt><trkpt lat="43.2531507" lon="11.7449327"><ele>271.66666666666663</ele><time>2026-04-26T13:49:28.854Z</time></trkpt><trkpt lat="43.2532269" lon="11.745146"><ele>271.0</ele><time>2026-04-26T13:49:29.855Z</time></trkpt><trkpt lat="43.2533089" lon="11.7453503"><ele>271.0</ele><time>2026-04-26T13:49:30.854Z</time></trkpt><trkpt lat="43.2534025" lon="11.7455538"><ele>271.0</ele><time>2026-04-26T13:49:31.855Z</time></trkpt><trkpt lat="43.253508" lon="11.7457471"><ele>271.0</ele><time>2026-04-26T13:49:32.855Z</time></trkpt><trkpt lat="43.253635" lon="11.7459192"><ele>271.0</ele><time>2026-04-26T13:49:33.855Z</time></trkpt><trkpt lat="43.2537847" lon="11.7460583"><ele>271.0</ele><time>2026-04-26T13:49:34.854Z</time></trkpt><trkpt lat="43.2539565" lon="11.7461818"><ele>271.0</ele><time>2026-04-26T13:49:35.854Z</time></trkpt><trkpt lat="43.2541246" lon="11.7463067"><ele>271.0</ele><time>2026-04-26T13:49:36.854Z</time></trkpt><trkpt lat="43.2542969" lon="11.7464371"><ele>271.0</ele><time>2026-04-26T13:49:37.855Z</time></trkpt><trkpt lat="43.2544604" lon="11.7465719"><ele>271.0</ele><time>2026-04-26T13:49:38.855Z</time></trkpt><trkpt lat="43.2546273" lon="11.7467064"><ele>270.66666666666663</ele><time>2026-04-26T13:49:39.855Z</time></trkpt><trkpt lat="43.2547934" lon="11.746845"><ele>270.3333333333333</ele><time>2026-04-26T13:49:40.855Z</time></trkpt><trkpt lat="43.2549624" lon="11.7469868"><ele>270.0</ele><time>2026-04-26T13:49:41.855Z</time></trkpt><trkpt lat="43.2551298" lon="11.7471277"><ele>271.3333333333333</ele><time>2026-04-26T13:49:42.855Z</time></trkpt><trkpt lat="43.2552971" lon="11.7472643"><ele>272.66666666666663</ele><time>2026-04-26T13:49:43.854Z</time></trkpt><trkpt lat="43.2554678" lon="11.747402"><ele>274.0</ele><time>2026-04-26T13:49:44.855Z</time></trkpt><trkpt lat="43.255634" lon="11.7475364"><ele>274.0</ele><time>2026-04-26T13:49:45.855Z</time></trkpt><trkpt lat="43.2557929" lon="11.7476819"><ele>274.0</ele><time>2026-04-26T13:49:46.854Z</time></trkpt><trkpt lat="43.2559482" lon="11.7478402"><ele>274.0</ele><time>2026-04-26T13:49:47.855Z</time></trkpt><trkpt lat="43.2560996" lon="11.7480068"><ele>274.3333333333333</ele><time>2026-04-26T13:49:48.854Z</time></trkpt><trkpt lat="43.2562601" lon="11.7481515"><ele>274.6666666666667</ele><time>2026-04-26T13:49:49.855Z</time></trkpt><trkpt lat="43.2564331" lon="11.7482645"><ele>275.0</ele><time>2026-04-26T13:49:50.855Z</time></trkpt><trkpt lat="43.2566203" lon="11.7483533"><ele>275.0</ele><time>2026-04-26T13:49:51.855Z</time></trkpt><trkpt lat="43.256809" lon="11.7484255"><ele>275.0</ele><time>2026-04-26T13:49:52.855Z</time></trkpt><trkpt lat="43.2569995" lon="11.7485013"><ele>275.0</ele><time>2026-04-26T13:49:53.855Z</time></trkpt><trkpt lat="43.2571959" lon="11.7485752"><ele>275.6666666666667</ele><time>2026-04-26T13:49:54.854Z</time></trkpt><trkpt lat="43.2573927" lon="11.7486527"><ele>276.3333333333333</ele><time>2026-04-26T13:49:55.854Z</time></trkpt><trkpt lat="43.2575837" lon="11.7487428"><ele>277.0</ele><time>2026-04-26T13:49:56.854Z</time></trkpt><trkpt lat="43.2577749" lon="11.7488343"><ele>277.0</ele><time>2026-04-26T13:49:57.855Z</time></trkpt><trkpt lat="43.2579671" lon="11.7489285"><ele>277.0</ele><time>2026-04-26T13:49:58.855Z</time></trkpt><trkpt lat="43.2581542" lon="11.7490274"><ele>277.0</ele><time>2026-04-26T13:49:59.854Z</time></trkpt><trkpt lat="43.2583339" lon="11.7491465"><ele>276.66666666666663</ele><time>2026-04-26T13:50:00.855Z</time></trkpt><trkpt lat="43.2585042" lon="11.7492864"><ele>276.3333333333333</ele><time>2026-04-26T13:50:01.855Z</time></trkpt><trkpt lat="43.2586641" lon="11.7494406"><ele>276.0</ele><time>2026-04-26T13:50:02.855Z</time></trkpt><trkpt lat="43.2588226" lon="11.7495965"><ele>276.3333333333333</ele><time>2026-04-26T13:50:03.855Z</time></trkpt><trkpt lat="43.2589834" lon="11.7497432"><ele>276.66666666666663</ele><time>2026-04-26T13:50:04.855Z</time></trkpt><trkpt lat="43.2591388" lon="11.7498872"><ele>277.0</ele><time>2026-04-26T13:50:05.854Z</time></trkpt><trkpt lat="43.2592912" lon="11.7500219"><ele>277.0</ele><time>2026-04-26T13:50:06.855Z</time></trkpt><trkpt lat="43.2594375" lon="11.7501616"><ele>277.0</ele><time>2026-04-26T13:50:07.855Z</time></trkpt><trkpt lat="43.2595774" lon="11.7502975"><ele>277.0</ele><time>2026-04-26T13:50:08.855Z</time></trkpt><trkpt lat="43.2597125" lon="11.7504364"><ele>277.66666666666663</ele><time>2026-04-26T13:50:09.854Z</time></trkpt><trkpt lat="43.2598479" lon="11.7505657"><ele>278.3333333333333</ele><time>2026-04-26T13:50:10.855Z</time></trkpt><trkpt lat="43.2599815" lon="11.7506929"><ele>279.0</ele><time>2026-04-26T13:50:11.854Z</time></trkpt><trkpt lat="43.2601115" lon="11.7508156"><ele>279.0</ele><time>2026-04-26T13:50:12.854Z</time></trkpt><trkpt lat="43.2602464" lon="11.7509162"><ele>279.0</ele><time>2026-04-26T13:50:13.855Z</time></trkpt><trkpt lat="43.2603917" lon="11.7509744"><ele>279.0</ele><time>2026-04-26T13:50:14.855Z</time></trkpt><trkpt lat="43.2605445" lon="11.7509902"><ele>279.0</ele><time>2026-04-26T13:50:15.855Z</time></trkpt><trkpt lat="43.2607051" lon="11.7509889"><ele>279.0</ele><time>2026-04-26T13:50:16.854Z</time></trkpt><trkpt lat="43.2608628" lon="11.7509924"><ele>279.0</ele><time>2026-04-26T13:50:17.855Z</time></trkpt><trkpt lat="43.2610229" lon="11.7510029"><ele>279.0</ele><time>2026-04-26T13:50:18.855Z</time></trkpt><trkpt lat="43.2611843" lon="11.7510231"><ele>279.0</ele><time>2026-04-26T13:50:19.855Z</time></trkpt><trkpt lat="43.2613513" lon="11.7510371"><ele>279.0</ele><time>2026-04-26T13:50:20.854Z</time></trkpt><trkpt lat="43.2615194" lon="11.7510488"><ele>280.6666666666667</ele><time>2026-04-26T13:50:21.855Z</time></trkpt><trkpt lat="43.2616916" lon="11.751061"><ele>282.33333333333337</ele><time>2026-04-26T13:50:22.855Z</time></trkpt><trkpt lat="43.2618651" lon="11.7510634"><ele>284.0</ele><time>2026-04-26T13:50:23.855Z</time></trkpt><trkpt lat="43.2620466" lon="11.7510713"><ele>284.0</ele><time>2026-04-26T13:50:24.854Z</time></trkpt><trkpt lat="43.2622275" lon="11.7510774"><ele>284.0</ele><time>2026-04-26T13:50:25.855Z</time></trkpt><trkpt lat="43.2624106" lon="11.7510862"><ele>284.0</ele><time>2026-04-26T13:50:26.855Z</time></trkpt><trkpt lat="43.2625927" lon="11.7510924"><ele>286.33333333333337</ele><time>2026-04-26T13:50:27.855Z</time></trkpt><trkpt lat="43.2627731" lon="11.7510988"><ele>288.6666666666667</ele><time>2026-04-26T13:50:28.855Z</time></trkpt><trkpt lat="43.2629532" lon="11.7511132"><ele>291.0</ele><time>2026-04-26T13:50:29.855Z</time></trkpt><trkpt lat="43.2631332" lon="11.7511297"><ele>291.6666666666667</ele><time>2026-04-26T13:50:30.855Z</time></trkpt><trkpt lat="43.2633132" lon="11.7511377"><ele>292.33333333333337</ele><time>2026-04-26T13:50:31.854Z</time></trkpt><trkpt lat="43.2634853" lon="11.7511459"><ele>293.0</ele><time>2026-04-26T13:50:32.855Z</time></trkpt><trkpt lat="43.2636492" lon="11.7511388"><ele>293.0</ele><time>2026-04-26T13:50:33.855Z</time></trkpt><trkpt lat="43.263802" lon="11.7511155"><ele>293.0</ele><time>2026-04-26T13:50:34.854Z</time></trkpt><trkpt lat="43.2639451" lon="11.7510798"><ele>293.0</ele><time>2026-04-26T13:50:35.855Z</time></trkpt><trkpt lat="43.264089" lon="11.7510245"><ele>293.0</ele><time>2026-04-26T13:50:36.854Z</time></trkpt><trkpt lat="43.2642342" lon="11.7509517"><ele>294.0</ele><time>2026-04-26T13:50:37.854Z</time></trkpt><trkpt lat="43.264378" lon="11.7508637"><ele>295.0</ele><time>2026-04-26T13:50:38.855Z</time></trkpt><trkpt lat="43.2645231" lon="11.7507696"><ele>296.0</ele><time>2026-04-26T13:50:39.854Z</time></trkpt><trkpt lat="43.2646728" lon="11.7506757"><ele>298.33333333333337</ele><time>2026-04-26T13:50:40.855Z</time></trkpt><trkpt lat="43.2648223" lon="11.7505893"><ele>300.6666666666667</ele><time>2026-04-26T13:50:41.855Z</time></trkpt><trkpt lat="43.2649761" lon="11.7505167"><ele>303.0</ele><time>2026-04-26T13:50:42.855Z</time></trkpt><trkpt lat="43.2651397" lon="11.7504729"><ele>303.0</ele><time>2026-04-26T13:50:43.855Z</time></trkpt><trkpt lat="43.2653088" lon="11.7504419"><ele>303.0</ele><time>2026-04-26T13:50:44.855Z</time></trkpt><trkpt lat="43.2654841" lon="11.7504279"><ele>303.0</ele><time>2026-04-26T13:50:45.855Z</time></trkpt><trkpt lat="43.2656692" lon="11.750418"><ele>304.6666666666667</ele><time>2026-04-26T13:50:46.855Z</time></trkpt><trkpt lat="43.2658645" lon="11.7504084"><ele>306.33333333333337</ele><time>2026-04-26T13:50:47.855Z</time></trkpt><trkpt lat="43.2660532" lon="11.7503978"><ele>308.0</ele><time>2026-04-26T13:50:48.854Z</time></trkpt><trkpt lat="43.2662518" lon="11.7503735"><ele>309.0</ele><time>2026-04-26T13:50:49.855Z</time></trkpt><trkpt lat="43.2664511" lon="11.7503536"><ele>310.0</ele><time>2026-04-26T13:50:50.854Z</time></trkpt><trkpt lat="43.2666505" lon="11.7503302"><ele>311.0</ele><time>2026-04-26T13:50:51.855Z</time></trkpt><trkpt lat="43.2668565" lon="11.7503091"><ele>311.0</ele><time>2026-04-26T13:50:52.854Z</time></trkpt><trkpt lat="43.267061" lon="11.7502907"><ele>311.0</ele><time>2026-04-26T13:50:53.854Z</time></trkpt><trkpt lat="43.2672667" lon="11.7502698"><ele>311.0</ele><time>2026-04-26T13:50:54.855Z</time></trkpt><trkpt lat="43.2674698" lon="11.7502543"><ele>310.6666666666667</ele><time>2026-04-26T13:50:55.855Z</time></trkpt><trkpt lat="43.2676706" lon="11.7502358"><ele>310.3333333333333</ele><time>2026-04-26T13:50:56.855Z</time></trkpt><trkpt lat="43.2678746" lon="11.7502184"><ele>310.0</ele><time>2026-04-26T13:50:57.855Z</time></trkpt><trkpt lat="43.2680786" lon="11.7501937"><ele>311.3333333333333</ele><time>2026-04-26T13:50:58.855Z</time></trkpt><trkpt lat="43.2682837" lon="11.7501712"><ele>312.6666666666667</ele><time>2026-04-26T13:50:59.855Z</time></trkpt><trkpt lat="43.2684851" lon="11.7501519"><ele>314.0</ele><time>2026-04-26T13:51:00.855Z</time></trkpt><trkpt lat="43.2686785" lon="11.7501361"><ele>314.0</ele><time>2026-04-26T13:51:01.855Z</time></trkpt><trkpt lat="43.2688679" lon="11.7501196"><ele>314.0</ele><time>2026-04-26T13:51:02.854Z</time></trkpt><trkpt lat="43.2690477" lon="11.7501119"><ele>314.0</ele><time>2026-04-26T13:51:03.855Z</time></trkpt><trkpt lat="43.269223" lon="11.7501322"><ele>315.0</ele><time>2026-04-26T13:51:04.855Z</time></trkpt><trkpt lat="43.269381" lon="11.7501811"><ele>316.0</ele><time>2026-04-26T13:51:05.855Z</time></trkpt><trkpt lat="43.269519" lon="11.7502665"><ele>317.0</ele><time>2026-04-26T13:51:06.855Z</time></trkpt><trkpt lat="43.2696551" lon="11.7503464"><ele>318.75</ele><time>2026-04-26T13:51:07.855Z</time></trkpt><trkpt lat="43.2697814" lon="11.7504426"><ele>320.5</ele><time>2026-04-26T13:51:08.854Z</time></trkpt><trkpt lat="43.2699023" lon="11.750532"><ele>322.25</ele><time>2026-04-26T13:51:09.855Z</time></trkpt><trkpt lat="43.2700179" lon="11.7506348"><ele>324.0</ele><time>2026-04-26T13:51:10.855Z</time></trkpt><trkpt lat="43.2701378" lon="11.7507258"><ele>324.0</ele><time>2026-04-26T13:51:11.855Z</time></trkpt><trkpt lat="43.2702513" lon="11.7508159"><ele>324.0</ele><time>2026-04-26T13:51:12.854Z</time></trkpt><trkpt lat="43.2703474" lon="11.7508992"><ele>324.0</ele><time>2026-04-26T13:51:13.855Z</time></trkpt><trkpt lat="43.270441" lon="11.7509504"><ele>324.0</ele><time>2026-04-26T13:51:14.855Z</time></trkpt><trkpt lat="43.2705325" lon="11.750971"><ele>324.0</ele><time>2026-04-26T13:51:15.855Z</time></trkpt><trkpt lat="43.2706137" lon="11.750917"><ele>324.0</ele><time>2026-04-26T13:51:16.854Z</time></trkpt><trkpt lat="43.270661" lon="11.7508329"><ele>324.0</ele><time>2026-04-26T13:51:17.855Z</time></trkpt><trkpt lat="43.27067" lon="11.7507182"><ele>324.0</ele><time>2026-04-26T13:51:18.855Z</time></trkpt><trkpt lat="43.2706387" lon="11.7506026"><ele>324.0</ele><time>2026-04-26T13:51:19.855Z</time></trkpt><trkpt lat="43.2705913" lon="11.7504849"><ele>324.0</ele><time>2026-04-26T13:51:20.854Z</time></trkpt><trkpt lat="43.2705328" lon="11.750357"><ele>324.0</ele><time>2026-04-26T13:51:21.855Z</time></trkpt><trkpt lat="43.2704685" lon="11.7502347"><ele>324.0</ele><time>2026-04-26T13:51:22.855Z</time></trkpt><trkpt lat="43.2703959" lon="11.7501134"><ele>324.0</ele><time>2026-04-26T13:51:23.855Z</time></trkpt><trkpt lat="43.2703214" lon="11.7499923"><ele>324.0</ele><time>2026-04-26T13:51:24.855Z</time></trkpt><trkpt lat="43.2702621" lon="11.7498566"><ele>325.25</ele><time>2026-04-26T13:51:25.855Z</time></trkpt><trkpt lat="43.2702118" lon="11.7497086"><ele>326.5</ele><time>2026-04-26T13:51:26.855Z</time></trkpt><trkpt lat="43.2701683" lon="11.7495561"><ele>327.75</ele><time>2026-04-26T13:51:27.855Z</time></trkpt><trkpt lat="43.2701322" lon="11.7493956"><ele>329.0</ele><time>2026-04-26T13:51:28.854Z</time></trkpt><trkpt lat="43.2701095" lon="11.7492417"><ele>329.79999999999995</ele><time>2026-04-26T13:51:29.855Z</time></trkpt><trkpt lat="43.2700887" lon="11.7490878"><ele>330.59999999999997</ele><time>2026-04-26T13:51:30.855Z</time></trkpt><trkpt lat="43.2700741" lon="11.7489316"><ele>331.4</ele><time>2026-04-26T13:51:31.855Z</time></trkpt><trkpt lat="43.2700716" lon="11.7487791"><ele>332.2</ele><time>2026-04-26T13:51:32.855Z</time></trkpt><trkpt lat="43.2700864" lon="11.7486552"><ele>333.0</ele><time>2026-04-26T13:51:33.854Z</time></trkpt><trkpt lat="43.2701346" lon="11.7485584"><ele>334.4</ele><time>2026-04-26T13:51:34.855Z</time></trkpt><trkpt lat="43.2702175" lon="11.7484932"><ele>335.79999999999995</ele><time>2026-04-26T13:51:35.855Z</time></trkpt><trkpt lat="43.2703143" lon="11.7484472"><ele>337.2</ele><time>2026-04-26T13:51:36.855Z</time></trkpt><trkpt lat="43.2704187" lon="11.7484169"><ele>338.6</ele><time>2026-04-26T13:51:37.854Z</time></trkpt><trkpt lat="43.2705196" lon="11.7483932"><ele>340.0</ele><time>2026-04-26T13:51:38.855Z</time></trkpt><trkpt lat="43.2706291" lon="11.7483761"><ele>341.0</ele><time>2026-04-26T13:51:39.855Z</time></trkpt><trkpt lat="43.2707366" lon="11.748353"><ele>342.0</ele><time>2026-04-26T13:51:40.855Z</time></trkpt><trkpt lat="43.2708437" lon="11.7483067"><ele>343.0</ele><time>2026-04-26T13:51:41.855Z</time></trkpt><trkpt lat="43.2709465" lon="11.7482331"><ele>344.0</ele><time>2026-04-26T13:51:42.855Z</time></trkpt><trkpt lat="43.271043" lon="11.7481319"><ele>344.0</ele><time>2026-04-26T13:51:43.855Z</time></trkpt><trkpt lat="43.2711322" lon="11.748005"><ele>344.0</ele><time>2026-04-26T13:51:44.855Z</time></trkpt><trkpt lat="43.2711911" lon="11.747856"><ele>344.0</ele><time>2026-04-26T13:51:45.854Z</time></trkpt><trkpt lat="43.2712156" lon="11.7476856"><ele>344.0</ele><time>2026-04-26T13:51:46.854Z</time></trkpt><trkpt lat="43.2711873" lon="11.7475323"><ele>345.25</ele><time>2026-04-26T13:51:47.855Z</time></trkpt><trkpt lat="43.2711098" lon="11.7474203"><ele>346.5</ele><time>2026-04-26T13:51:48.855Z</time></trkpt><trkpt lat="43.2710239" lon="11.7473142"><ele>347.75</ele><time>2026-04-26T13:51:49.854Z</time></trkpt><trkpt lat="43.2709319" lon="11.7472132"><ele>349.0</ele><time>2026-04-26T13:51:50.855Z</time></trkpt><trkpt lat="43.270856" lon="11.7471145"><ele>349.0</ele><time>2026-04-26T13:51:51.855Z</time></trkpt><trkpt lat="43.2707915" lon="11.7470179"><ele>349.0</ele><time>2026-04-26T13:51:52.855Z</time></trkpt><trkpt lat="43.2707461" lon="11.7469214"><ele>349.0</ele><time>2026-04-26T13:51:53.854Z</time></trkpt><trkpt lat="43.2707223" lon="11.7468243"><ele>349.0</ele><time>2026-04-26T13:51:54.855Z</time></trkpt><trkpt lat="43.2707211" lon="11.7467208"><ele>349.0</ele><time>2026-04-26T13:51:55.855Z</time></trkpt><trkpt lat="43.2707506" lon="11.7466366"><ele>349.0</ele><time>2026-04-26T13:51:56.855Z</time></trkpt><trkpt lat="43.2708017" lon="11.7465745"><ele>349.8333333333333</ele><time>2026-04-26T13:51:57.855Z</time></trkpt><trkpt lat="43.2708717" lon="11.7465341"><ele>350.66666666666663</ele><time>2026-04-26T13:51:58.855Z</time></trkpt><trkpt lat="43.2709531" lon="11.746516"><ele>351.5</ele><time>2026-04-26T13:51:59.854Z</time></trkpt><trkpt lat="43.271038" lon="11.746517"><ele>352.3333333333333</ele><time>2026-04-26T13:52:00.854Z</time></trkpt><trkpt lat="43.2711341" lon="11.7465293"><ele>353.1666666666667</ele><time>2026-04-26T13:52:01.855Z</time></trkpt><trkpt lat="43.2712362" lon="11.7465443"><ele>354.0</ele><time>2026-04-26T13:52:02.854Z</time></trkpt><trkpt lat="43.2713442" lon="11.7465599"><ele>355.2</ele><time>2026-04-26T13:52:03.855Z</time></trkpt><trkpt lat="43.2714473" lon="11.746577"><ele>356.4</ele><time>2026-04-26T13:52:04.855Z</time></trkpt><trkpt lat="43.2715484" lon="11.7465984"><ele>357.6</ele><time>2026-04-26T13:52:05.855Z</time></trkpt><trkpt lat="43.2716577" lon="11.7466299"><ele>358.8</ele><time>2026-04-26T13:52:06.855Z</time></trkpt><trkpt lat="43.2717625" lon="11.746676"><ele>360.0</ele><time>2026-04-26T13:52:07.855Z</time></trkpt><trkpt lat="43.2718607" lon="11.7467317"><ele>360.0</ele><time>2026-04-26T13:52:08.855Z</time></trkpt><trkpt lat="43.2719555" lon="11.7468139"><ele>360.0</ele><time>2026-04-26T13:52:09.855Z</time></trkpt><trkpt lat="43.2720329" lon="11.74692"><ele>360.0</ele><time>2026-04-26T13:52:10.855Z</time></trkpt><trkpt lat="43.2721039" lon="11.7470241"><ele>360.0</ele><time>2026-04-26T13:52:11.855Z</time></trkpt><trkpt lat="43.2721689" lon="11.7471283"><ele>360.0</ele><time>2026-04-26T13:52:12.855Z</time></trkpt><trkpt lat="43.272241" lon="11.7472173"><ele>360.4</ele><time>2026-04-26T13:52:13.854Z</time></trkpt><trkpt lat="43.2723266" lon="11.7472913"><ele>360.8</ele><time>2026-04-26T13:52:14.854Z</time></trkpt><trkpt lat="43.272423" lon="11.7473275"><ele>361.20000000000005</ele><time>2026-04-26T13:52:15.855Z</time></trkpt><trkpt lat="43.2725279" lon="11.7473386"><ele>361.6</ele><time>2026-04-26T13:52:16.854Z</time></trkpt><trkpt lat="43.2726278" lon="11.7473361"><ele>362.0</ele><time>2026-04-26T13:52:17.855Z</time></trkpt><trkpt lat="43.2727143" lon="11.7473279"><ele>362.0</ele><time>2026-04-26T13:52:18.854Z</time></trkpt><trkpt lat="43.2727932" lon="11.7473255"><ele>362.0</ele><time>2026-04-26T13:52:19.855Z</time></trkpt><trkpt lat="43.2728682" lon="11.7473304"><ele>362.0</ele><time>2026-04-26T13:52:20.855Z</time></trkpt><trkpt lat="43.2729354" lon="11.7473359"><ele>362.0</ele><time>2026-04-26T13:52:21.855Z</time></trkpt><trkpt lat="43.2730314" lon="11.747339"><ele>362.0</ele><time>2026-04-26T13:52:23.855Z</time></trkpt><trkpt lat="43.2730758" lon="11.747267"><ele>362.0</ele><time>2026-04-26T13:52:25.855Z</time></trkpt><trkpt lat="43.2730162" lon="11.747137"><ele>362.0</ele><time>2026-04-26T13:52:27.855Z</time></trkpt><trkpt lat="43.2729487" lon="11.7470754"><ele>362.0</ele><time>2026-04-26T13:52:28.855Z</time></trkpt><trkpt lat="43.2728839" lon="11.7470131"><ele>362.0</ele><time>2026-04-26T13:52:29.854Z</time></trkpt><trkpt lat="43.2728228" lon="11.746942"><ele>362.0</ele><time>2026-04-26T13:52:30.855Z</time></trkpt><trkpt lat="43.272755" lon="11.7468718"><ele>362.0</ele><time>2026-04-26T13:52:31.855Z</time></trkpt><trkpt lat="43.2726838" lon="11.7468027"><ele>362.0</ele><time>2026-04-26T13:52:32.855Z</time></trkpt><trkpt lat="43.2726181" lon="11.7467317"><ele>363.83333333333337</ele><time>2026-04-26T13:52:33.855Z</time></trkpt><trkpt lat="43.2725523" lon="11.7466535"><ele>365.6666666666667</ele><time>2026-04-26T13:52:34.855Z</time></trkpt><trkpt lat="43.2724968" lon="11.7465631"><ele>367.5</ele><time>2026-04-26T13:52:35.855Z</time></trkpt><trkpt lat="43.2724519" lon="11.7464647"><ele>369.3333333333333</ele><time>2026-04-26T13:52:36.854Z</time></trkpt><trkpt lat="43.2724232" lon="11.7463673"><ele>371.16666666666663</ele><time>2026-04-26T13:52:37.854Z</time></trkpt><trkpt lat="43.2724" lon="11.7462749"><ele>373.0</ele><time>2026-04-26T13:52:38.854Z</time></trkpt><trkpt lat="43.2723783" lon="11.7461871"><ele>373.0</ele><time>2026-04-26T13:52:39.855Z</time></trkpt><trkpt lat="43.2723571" lon="11.7461012"><ele>373.0</ele><time>2026-04-26T13:52:40.855Z</time></trkpt><trkpt lat="43.272339" lon="11.7460161"><ele>373.0</ele><time>2026-04-26T13:52:41.855Z</time></trkpt><trkpt lat="43.27231" lon="11.745866"><ele>373.0</ele><time>2026-04-26T13:52:43.855Z</time></trkpt><trkpt lat="43.2722831" lon="11.745695"><ele>373.0</ele><time>2026-04-26T13:52:45.855Z</time></trkpt><trkpt lat="43.2722626" lon="11.7455892"><ele>373.42857142857144</ele><time>2026-04-26T13:52:46.855Z</time></trkpt><trkpt lat="43.2722406" lon="11.7454899"><ele>373.8571428571429</ele><time>2026-04-26T13:52:47.855Z</time></trkpt><trkpt lat="43.2722236" lon="11.7453901"><ele>374.2857142857143</ele><time>2026-04-26T13:52:48.855Z</time></trkpt><trkpt lat="43.2722003" lon="11.7452958"><ele>374.7142857142857</ele><time>2026-04-26T13:52:49.854Z</time></trkpt><trkpt lat="43.2721719" lon="11.7452153"><ele>375.1428571428571</ele><time>2026-04-26T13:52:50.855Z</time></trkpt><trkpt lat="43.2721484" lon="11.7451207"><ele>375.57142857142856</ele><time>2026-04-26T13:52:51.854Z</time></trkpt><trkpt lat="43.2721375" lon="11.7450146"><ele>376.0</ele><time>2026-04-26T13:52:52.855Z</time></trkpt><trkpt lat="43.2721408" lon="11.7449128"><ele>376.0</ele><time>2026-04-26T13:52:53.855Z</time></trkpt><trkpt lat="43.2721501" lon="11.7448231"><ele>376.0</ele><time>2026-04-26T13:52:54.854Z</time></trkpt><trkpt lat="43.2721497" lon="11.7446819"><ele>376.0</ele><time>2026-04-26T13:52:56.854Z</time></trkpt><trkpt lat="43.2721449" lon="11.7445786"><ele>376.0</ele><time>2026-04-26T13:52:58.855Z</time></trkpt><trkpt lat="43.2721443" lon="11.7444675"><ele>376.0</ele><time>2026-04-26T13:53:01.855Z</time></trkpt><trkpt lat="43.2721734" lon="11.7443876"><ele>376.0</ele><time>2026-04-26T13:53:04.855Z</time></trkpt><trkpt lat="43.27226" lon="11.7443811"><ele>377.4</ele><time>2026-04-26T13:53:06.855Z</time></trkpt><trkpt lat="43.2723873" lon="11.7444268"><ele>378.8</ele><time>2026-04-26T13:53:08.855Z</time></trkpt><trkpt lat="43.2724599" lon="11.744447"><ele>380.2</ele><time>2026-04-26T13:53:09.855Z</time></trkpt><trkpt lat="43.2725409" lon="11.7444493"><ele>381.59999999999997</ele><time>2026-04-26T13:53:10.854Z</time></trkpt><trkpt lat="43.27261" lon="11.7444359"><ele>383.0</ele><time>2026-04-26T13:53:11.855Z</time></trkpt><trkpt lat="43.2727282" lon="11.7443641"><ele>383.0</ele><time>2026-04-26T13:53:13.854Z</time></trkpt><trkpt lat="43.2727854" lon="11.7443205"><ele>383.0</ele><time>2026-04-26T13:53:14.855Z</time></trkpt><trkpt lat="43.272846" lon="11.7442864"><ele>383.0</ele><time>2026-04-26T13:53:15.854Z</time></trkpt><trkpt lat="43.2729093" lon="11.7442543"><ele>383.0</ele><time>2026-04-26T13:53:16.854Z</time></trkpt><trkpt lat="43.272968" lon="11.7442123"><ele>383.0</ele><time>2026-04-26T13:53:17.855Z</time></trkpt><trkpt lat="43.2730253" lon="11.7441731"><ele>383.0</ele><time>2026-04-26T13:53:18.854Z</time></trkpt><trkpt lat="43.2730878" lon="11.7441325"><ele>383.0</ele><time>2026-04-26T13:53:19.854Z</time></trkpt><trkpt lat="43.2731551" lon="11.7440902"><ele>383.6666666666667</ele><time>2026-04-26T13:53:20.855Z</time></trkpt><trkpt lat="43.2732208" lon="11.7440398"><ele>384.33333333333337</ele><time>2026-04-26T13:53:21.855Z</time></trkpt><trkpt lat="43.273288" lon="11.743991"><ele>385.0</ele><time>2026-04-26T13:53:22.855Z</time></trkpt><trkpt lat="43.2733958" lon="11.7439259"><ele>385.6666666666667</ele><time>2026-04-26T13:53:24.855Z</time></trkpt><trkpt lat="43.2734725" lon="11.743866"><ele>386.3333333333333</ele><time>2026-04-26T13:53:26.855Z</time></trkpt><trkpt lat="43.2735351" lon="11.743821"><ele>387.0</ele><time>2026-04-26T13:53:28.855Z</time></trkpt><trkpt lat="43.2735932" lon="11.7437855"><ele>387.0</ele><time>2026-04-26T13:53:30.855Z</time></trkpt><trkpt lat="43.2736725" lon="11.7437558"><ele>387.0</ele><time>2026-04-26T13:53:33.855Z</time></trkpt><trkpt lat="43.2737311" lon="11.7436857"><ele>387.0</ele><time>2026-04-26T13:54:08.855Z</time></trkpt><trkpt lat="43.2737833" lon="11.7436368"><ele>387.0</ele><time>2026-04-26T13:54:09.854Z</time></trkpt><trkpt lat="43.2738503" lon="11.7435856"><ele>387.0</ele><time>2026-04-26T13:54:10.855Z</time></trkpt><trkpt lat="43.273928" lon="11.7435372"><ele>387.0</ele><time>2026-04-26T13:54:11.855Z</time></trkpt><trkpt lat="43.274013" lon="11.7435038"><ele>387.0</ele><time>2026-04-26T13:54:12.855Z</time></trkpt><trkpt lat="43.2741079" lon="11.7434865"><ele>387.0</ele><time>2026-04-26T13:54:13.855Z</time></trkpt><trkpt lat="43.2742043" lon="11.7434775"><ele>387.0</ele><time>2026-04-26T13:54:14.854Z</time></trkpt><trkpt lat="43.2742999" lon="11.7434984"><ele>387.0</ele><time>2026-04-26T13:54:15.855Z</time></trkpt><trkpt lat="43.2744226" lon="11.7435464"><ele>387.0</ele><time>2026-04-26T13:54:16.855Z</time></trkpt><trkpt lat="43.2745537" lon="11.7436187"><ele>387.0</ele><time>2026-04-26T13:54:17.855Z</time></trkpt><trkpt lat="43.2746842" lon="11.7437015"><ele>387.0</ele><time>2026-04-26T13:54:18.855Z</time></trkpt><trkpt lat="43.2748226" lon="11.7437821"><ele>387.0</ele><time>2026-04-26T13:54:19.855Z</time></trkpt><trkpt lat="43.2749589" lon="11.7438655"><ele>387.0</ele><time>2026-04-26T13:54:20.854Z</time></trkpt><trkpt lat="43.2751071" lon="11.743957"><ele>384.3333333333333</ele><time>2026-04-26T13:54:21.854Z</time></trkpt><trkpt lat="43.2752674" lon="11.7440412"><ele>381.66666666666663</ele><time>2026-04-26T13:54:22.854Z</time></trkpt><trkpt lat="43.2754354" lon="11.7441246"><ele>379.0</ele><time>2026-04-26T13:54:23.855Z</time></trkpt><trkpt lat="43.2756021" lon="11.7442082"><ele>377.0</ele><time>2026-04-26T13:54:24.854Z</time></trkpt><trkpt lat="43.2757755" lon="11.744289"><ele>375.0</ele><time>2026-04-26T13:54:25.854Z</time></trkpt><trkpt lat="43.2759527" lon="11.7443854"><ele>373.0</ele><time>2026-04-26T13:54:26.855Z</time></trkpt><trkpt lat="43.2761249" lon="11.7444781"><ele>371.0</ele><time>2026-04-26T13:54:27.855Z</time></trkpt><trkpt lat="43.2762949" lon="11.7445702"><ele>369.0</ele><time>2026-04-26T13:54:28.854Z</time></trkpt><trkpt lat="43.2764659" lon="11.7446739"><ele>367.0</ele><time>2026-04-26T13:54:29.855Z</time></trkpt><trkpt lat="43.2766275" lon="11.7447763"><ele>363.0</ele><time>2026-04-26T13:54:30.855Z</time></trkpt><trkpt lat="43.2767975" lon="11.7448783"><ele>359.0</ele><time>2026-04-26T13:54:31.854Z</time></trkpt><trkpt lat="43.2769589" lon="11.745004"><ele>355.0</ele><time>2026-04-26T13:54:32.855Z</time></trkpt><trkpt lat="43.2771214" lon="11.7451398"><ele>351.3333333333333</ele><time>2026-04-26T13:54:33.855Z</time></trkpt><trkpt lat="43.2772858" lon="11.7452836"><ele>347.6666666666667</ele><time>2026-04-26T13:54:34.855Z</time></trkpt><trkpt lat="43.2774482" lon="11.7454201"><ele>344.0</ele><time>2026-04-26T13:54:35.854Z</time></trkpt><trkpt lat="43.2776109" lon="11.7455488"><ele>344.0</ele><time>2026-04-26T13:54:36.854Z</time></trkpt><trkpt lat="43.2777671" lon="11.7456801"><ele>344.0</ele><time>2026-04-26T13:54:37.855Z</time></trkpt><trkpt lat="43.2779152" lon="11.7458277"><ele>344.0</ele><time>2026-04-26T13:54:38.855Z</time></trkpt><trkpt lat="43.2780518" lon="11.7459925"><ele>341.6666666666667</ele><time>2026-04-26T13:54:39.854Z</time></trkpt><trkpt lat="43.2781809" lon="11.7461686"><ele>339.3333333333333</ele><time>2026-04-26T13:54:40.855Z</time></trkpt><trkpt lat="43.2783072" lon="11.7463593"><ele>337.0</ele><time>2026-04-26T13:54:41.854Z</time></trkpt><trkpt lat="43.2784284" lon="11.7465611"><ele>337.0</ele><time>2026-04-26T13:54:42.855Z</time></trkpt><trkpt lat="43.2785421" lon="11.7467835"><ele>337.0</ele><time>2026-04-26T13:54:43.855Z</time></trkpt><trkpt lat="43.2786495" lon="11.747007"><ele>337.0</ele><time>2026-04-26T13:54:44.855Z</time></trkpt><trkpt lat="43.2787545" lon="11.747233"><ele>334.3333333333333</ele><time>2026-04-26T13:54:45.855Z</time></trkpt><trkpt lat="43.2788575" lon="11.7474509"><ele>331.6666666666667</ele><time>2026-04-26T13:54:46.855Z</time></trkpt><trkpt lat="43.2789599" lon="11.7476612"><ele>329.0</ele><time>2026-04-26T13:54:47.854Z</time></trkpt><trkpt lat="43.2790516" lon="11.7478681"><ele>325.0</ele><time>2026-04-26T13:54:48.855Z</time></trkpt><trkpt lat="43.2791246" lon="11.7480787"><ele>321.0</ele><time>2026-04-26T13:54:49.855Z</time></trkpt><trkpt lat="43.2791811" lon="11.7482927"><ele>317.0</ele><time>2026-04-26T13:54:50.855Z</time></trkpt><trkpt lat="43.279227" lon="11.7484984"><ele>315.75</ele><time>2026-04-26T13:54:51.854Z</time></trkpt><trkpt lat="43.2792694" lon="11.7486893"><ele>314.5</ele><time>2026-04-26T13:54:52.855Z</time></trkpt><trkpt lat="43.2793344" lon="11.7488576"><ele>313.25</ele><time>2026-04-26T13:54:53.854Z</time></trkpt><trkpt lat="43.2794332" lon="11.7489835"><ele>312.0</ele><time>2026-04-26T13:54:54.855Z</time></trkpt><trkpt lat="43.279548" lon="11.7490778"><ele>312.0</ele><time>2026-04-26T13:54:55.855Z</time></trkpt><trkpt lat="43.2796839" lon="11.7491135"><ele>312.0</ele><time>2026-04-26T13:54:56.855Z</time></trkpt><trkpt lat="43.2798124" lon="11.7491101"><ele>312.0</ele><time>2026-04-26T13:54:57.855Z</time></trkpt><trkpt lat="43.2799513" lon="11.7490302"><ele>312.0</ele><time>2026-04-26T13:54:58.855Z</time></trkpt><trkpt lat="43.2800561" lon="11.7489028"><ele>312.25</ele><time>2026-04-26T13:54:59.855Z</time></trkpt><trkpt lat="43.2801133" lon="11.748735"><ele>312.5</ele><time>2026-04-26T13:55:00.855Z</time></trkpt><trkpt lat="43.2801367" lon="11.7485509"><ele>312.75</ele><time>2026-04-26T13:55:01.855Z</time></trkpt><trkpt lat="43.2801133" lon="11.7483661"><ele>313.0</ele><time>2026-04-26T13:55:02.855Z</time></trkpt><trkpt lat="43.2800678" lon="11.7481762"><ele>312.5</ele><time>2026-04-26T13:55:03.855Z</time></trkpt><trkpt lat="43.2800313" lon="11.7479852"><ele>312.0</ele><time>2026-04-26T13:55:04.855Z</time></trkpt><trkpt lat="43.2800151" lon="11.7477872"><ele>311.5</ele><time>2026-04-26T13:55:05.855Z</time></trkpt><trkpt lat="43.280022" lon="11.7475946"><ele>311.0</ele><time>2026-04-26T13:55:06.855Z</time></trkpt><trkpt lat="43.2800504" lon="11.7474051"><ele>310.75</ele><time>2026-04-26T13:55:07.854Z</time></trkpt><trkpt lat="43.2801028" lon="11.7472287"><ele>310.5</ele><time>2026-04-26T13:55:08.855Z</time></trkpt><trkpt lat="43.2801949" lon="11.7470709"><ele>310.25</ele><time>2026-04-26T13:55:09.855Z</time></trkpt><trkpt lat="43.2803169" lon="11.7469369"><ele>310.0</ele><time>2026-04-26T13:55:10.855Z</time></trkpt><trkpt lat="43.280462" lon="11.7468479"><ele>310.25</ele><time>2026-04-26T13:55:11.854Z</time></trkpt><trkpt lat="43.2806095" lon="11.7467832"><ele>310.5</ele><time>2026-04-26T13:55:12.855Z</time></trkpt><trkpt lat="43.2807552" lon="11.7467556"><ele>310.75</ele><time>2026-04-26T13:55:13.855Z</time></trkpt><trkpt lat="43.2808986" lon="11.7467665"><ele>311.0</ele><time>2026-04-26T13:55:14.855Z</time></trkpt><trkpt lat="43.2810368" lon="11.7468484"><ele>306.33333333333337</ele><time>2026-04-26T13:55:15.855Z</time></trkpt><trkpt lat="43.2811666" lon="11.746979"><ele>301.6666666666667</ele><time>2026-04-26T13:55:16.855Z</time></trkpt><trkpt lat="43.2812704" lon="11.7471534"><ele>297.0</ele><time>2026-04-26T13:55:17.855Z</time></trkpt><trkpt lat="43.2813322" lon="11.7473624"><ele>297.0</ele><time>2026-04-26T13:55:18.854Z</time></trkpt><trkpt lat="43.2813919" lon="11.7475947"><ele>297.0</ele><time>2026-04-26T13:55:19.854Z</time></trkpt><trkpt lat="43.2814438" lon="11.7478285"><ele>297.0</ele><time>2026-04-26T13:55:20.854Z</time></trkpt><trkpt lat="43.2814977" lon="11.7480532"><ele>296.0</ele><time>2026-04-26T13:55:21.855Z</time></trkpt><trkpt lat="43.2815462" lon="11.7482786"><ele>295.0</ele><time>2026-04-26T13:55:22.855Z</time></trkpt><trkpt lat="43.2816024" lon="11.7485008"><ele>294.0</ele><time>2026-04-26T13:55:23.855Z</time></trkpt><trkpt lat="43.2816844" lon="11.7486994"><ele>292.0</ele><time>2026-04-26T13:55:24.855Z</time></trkpt><trkpt lat="43.2817959" lon="11.7488867"><ele>290.0</ele><time>2026-04-26T13:55:25.854Z</time></trkpt><trkpt lat="43.2819257" lon="11.749038"><ele>288.0</ele><time>2026-04-26T13:55:26.855Z</time></trkpt><trkpt lat="43.282076" lon="11.7491625"><ele>288.0</ele><time>2026-04-26T13:55:27.855Z</time></trkpt><trkpt lat="43.2822493" lon="11.7492473"><ele>288.0</ele><time>2026-04-26T13:55:28.854Z</time></trkpt><trkpt lat="43.2824276" lon="11.7492794"><ele>288.0</ele><time>2026-04-26T13:55:29.855Z</time></trkpt><trkpt lat="43.2826067" lon="11.7492623"><ele>286.6666666666667</ele><time>2026-04-26T13:55:30.855Z</time></trkpt><trkpt lat="43.2827839" lon="11.7491988"><ele>285.33333333333337</ele><time>2026-04-26T13:55:31.855Z</time></trkpt><trkpt lat="43.2829573" lon="11.7491013"><ele>284.0</ele><time>2026-04-26T13:55:32.854Z</time></trkpt><trkpt lat="43.2831382" lon="11.7489794"><ele>280.6666666666667</ele><time>2026-04-26T13:55:33.855Z</time></trkpt><trkpt lat="43.2833211" lon="11.7488445"><ele>277.3333333333333</ele><time>2026-04-26T13:55:34.855Z</time></trkpt><trkpt lat="43.2835075" lon="11.7487044"><ele>274.0</ele><time>2026-04-26T13:55:35.855Z</time></trkpt><trkpt lat="43.2837012" lon="11.7485685"><ele>275.3333333333333</ele><time>2026-04-26T13:55:36.854Z</time></trkpt><trkpt lat="43.2838991" lon="11.7484318"><ele>276.6666666666667</ele><time>2026-04-26T13:55:37.854Z</time></trkpt><trkpt lat="43.2840878" lon="11.7482957"><ele>278.0</ele><time>2026-04-26T13:55:38.855Z</time></trkpt><trkpt lat="43.2842731" lon="11.7481608"><ele>275.0</ele><time>2026-04-26T13:55:39.855Z</time></trkpt><trkpt lat="43.2844514" lon="11.7480316"><ele>272.0</ele><time>2026-04-26T13:55:40.855Z</time></trkpt><trkpt lat="43.2846244" lon="11.747912"><ele>269.0</ele><time>2026-04-26T13:55:41.855Z</time></trkpt><trkpt lat="43.2847938" lon="11.7478114"><ele>268.33333333333337</ele><time>2026-04-26T13:55:42.855Z</time></trkpt><trkpt lat="43.2849772" lon="11.7477819"><ele>267.6666666666667</ele><time>2026-04-26T13:55:43.855Z</time></trkpt><trkpt lat="43.2851639" lon="11.7478006"><ele>267.0</ele><time>2026-04-26T13:55:44.855Z</time></trkpt><trkpt lat="43.2853532" lon="11.747866"><ele>267.0</ele><time>2026-04-26T13:55:45.855Z</time></trkpt><trkpt lat="43.2855355" lon="11.7479602"><ele>267.0</ele><time>2026-04-26T13:55:46.855Z</time></trkpt><trkpt lat="43.2857065" lon="11.7480626"><ele>267.0</ele><time>2026-04-26T13:55:47.855Z</time></trkpt><trkpt lat="43.2858866" lon="11.7481531"><ele>267.0</ele><time>2026-04-26T13:55:48.855Z</time></trkpt><trkpt lat="43.2860647" lon="11.7482284"><ele>267.0</ele><time>2026-04-26T13:55:49.854Z</time></trkpt><trkpt lat="43.286251" lon="11.7482556"><ele>267.0</ele><time>2026-04-26T13:55:50.855Z</time></trkpt><trkpt lat="43.2864483" lon="11.7482277"><ele>267.6666666666667</ele><time>2026-04-26T13:55:51.855Z</time></trkpt><trkpt lat="43.2866391" lon="11.7481632"><ele>268.33333333333337</ele><time>2026-04-26T13:55:52.855Z</time></trkpt><trkpt lat="43.2868377" lon="11.7480844"><ele>269.0</ele><time>2026-04-26T13:55:53.855Z</time></trkpt><trkpt lat="43.2870458" lon="11.7480149"><ele>269.0</ele><time>2026-04-26T13:55:54.855Z</time></trkpt><trkpt lat="43.2872575" lon="11.7479447"><ele>269.0</ele><time>2026-04-26T13:55:55.855Z</time></trkpt><trkpt lat="43.2874725" lon="11.7478697"><ele>269.0</ele><time>2026-04-26T13:55:56.855Z</time></trkpt><trkpt lat="43.2876876" lon="11.7477809"><ele>269.5</ele><time>2026-04-26T13:55:57.855Z</time></trkpt><trkpt lat="43.2878991" lon="11.7476803"><ele>270.0</ele><time>2026-04-26T13:55:58.855Z</time></trkpt><trkpt lat="43.2881138" lon="11.7475701"><ele>271.5</ele><time>2026-04-26T13:55:59.855Z</time></trkpt><trkpt lat="43.288331" lon="11.7474614"><ele>273.0</ele><time>2026-04-26T13:56:00.855Z</time></trkpt><trkpt lat="43.2885517" lon="11.7473567"><ele>273.0</ele><time>2026-04-26T13:56:01.855Z</time></trkpt><trkpt lat="43.2887763" lon="11.7472595"><ele>273.0</ele><time>2026-04-26T13:56:02.855Z</time></trkpt><trkpt lat="43.2889993" lon="11.7471583"><ele>276.0</ele><time>2026-04-26T13:56:03.854Z</time></trkpt><trkpt lat="43.2892141" lon="11.747046"><ele>279.0</ele><time>2026-04-26T13:56:04.855Z</time></trkpt><trkpt lat="43.2894244" lon="11.7469236"><ele>279.0</ele><time>2026-04-26T13:56:05.855Z</time></trkpt><trkpt lat="43.289623" lon="11.7467771"><ele>279.0</ele><time>2026-04-26T13:56:06.855Z</time></trkpt><trkpt lat="43.2898071" lon="11.7466005"><ele>281.3333333333333</ele><time>2026-04-26T13:56:07.855Z</time></trkpt><trkpt lat="43.2899822" lon="11.7464201"><ele>283.66666666666663</ele><time>2026-04-26T13:56:08.855Z</time></trkpt><trkpt lat="43.2901527" lon="11.7462428"><ele>286.0</ele><time>2026-04-26T13:56:09.854Z</time></trkpt><trkpt lat="43.2903184" lon="11.7460713"><ele>286.66666666666663</ele><time>2026-04-26T13:56:10.855Z</time></trkpt><trkpt lat="43.290486" lon="11.7459146"><ele>287.3333333333333</ele><time>2026-04-26T13:56:11.855Z</time></trkpt><trkpt lat="43.29065" lon="11.7457648"><ele>288.0</ele><time>2026-04-26T13:56:12.855Z</time></trkpt><trkpt lat="43.2908285" lon="11.7456364"><ele>289.0</ele><time>2026-04-26T13:56:13.855Z</time></trkpt><trkpt lat="43.2910226" lon="11.7455296"><ele>290.0</ele><time>2026-04-26T13:56:14.854Z</time></trkpt><trkpt lat="43.2912201" lon="11.7454305"><ele>291.0</ele><time>2026-04-26T13:56:15.855Z</time></trkpt><trkpt lat="43.2914268" lon="11.7453222"><ele>290.0</ele><time>2026-04-26T13:56:16.854Z</time></trkpt><trkpt lat="43.2916436" lon="11.7452125"><ele>289.0</ele><time>2026-04-26T13:56:17.855Z</time></trkpt><trkpt lat="43.2918551" lon="11.7451017"><ele>289.0</ele><time>2026-04-26T13:56:18.854Z</time></trkpt><trkpt lat="43.2920717" lon="11.7450092"><ele>289.0</ele><time>2026-04-26T13:56:19.855Z</time></trkpt><trkpt lat="43.2922936" lon="11.7449393"><ele>285.5</ele><time>2026-04-26T13:56:20.854Z</time></trkpt><trkpt lat="43.2925212" lon="11.744908"><ele>282.0</ele><time>2026-04-26T13:56:21.855Z</time></trkpt><trkpt lat="43.2927481" lon="11.7448884"><ele>282.0</ele><time>2026-04-26T13:56:22.855Z</time></trkpt><trkpt lat="43.2929705" lon="11.7448854"><ele>282.0</ele><time>2026-04-26T13:56:23.855Z</time></trkpt><trkpt lat="43.2931837" lon="11.7448788"><ele>282.0</ele><time>2026-04-26T13:56:24.855Z</time></trkpt><trkpt lat="43.2933871" lon="11.7448675"><ele>281.6666666666667</ele><time>2026-04-26T13:56:25.854Z</time></trkpt><trkpt lat="43.2935891" lon="11.7448311"><ele>281.33333333333337</ele><time>2026-04-26T13:56:26.855Z</time></trkpt><trkpt lat="43.2937885" lon="11.7447675"><ele>281.0</ele><time>2026-04-26T13:56:27.855Z</time></trkpt><trkpt lat="43.2939844" lon="11.7446786"><ele>281.0</ele><time>2026-04-26T13:56:28.854Z</time></trkpt><trkpt lat="43.2941758" lon="11.7445746"><ele>281.0</ele><time>2026-04-26T13:56:29.855Z</time></trkpt><trkpt lat="43.2943713" lon="11.7444594"><ele>281.0</ele><time>2026-04-26T13:56:30.855Z</time></trkpt><trkpt lat="43.2945726" lon="11.7443392"><ele>278.0</ele><time>2026-04-26T13:56:31.855Z</time></trkpt><trkpt lat="43.294781" lon="11.7442139"><ele>275.0</ele><time>2026-04-26T13:56:32.855Z</time></trkpt><trkpt lat="43.2949968" lon="11.7440877"><ele>275.0</ele><time>2026-04-26T13:56:33.855Z</time></trkpt><trkpt lat="43.2952139" lon="11.7439595"><ele>275.0</ele><time>2026-04-26T13:56:34.855Z</time></trkpt><trkpt lat="43.2954283" lon="11.7438298"><ele>273.5</ele><time>2026-04-26T13:56:35.855Z</time></trkpt><trkpt lat="43.2956402" lon="11.743698"><ele>272.0</ele><time>2026-04-26T13:56:36.855Z</time></trkpt><trkpt lat="43.2958448" lon="11.7435732"><ele>271.6666666666667</ele><time>2026-04-26T13:56:37.854Z</time></trkpt><trkpt lat="43.2960443" lon="11.7434537"><ele>271.3333333333333</ele><time>2026-04-26T13:56:38.854Z</time></trkpt><trkpt lat="43.2962479" lon="11.7433567"><ele>271.0</ele><time>2026-04-26T13:56:39.854Z</time></trkpt><trkpt lat="43.2964661" lon="11.7432952"><ele>271.0</ele><time>2026-04-26T13:56:40.855Z</time></trkpt><trkpt lat="43.2966895" lon="11.7432658"><ele>271.0</ele><time>2026-04-26T13:56:41.855Z</time></trkpt><trkpt lat="43.2969131" lon="11.7432691"><ele>271.0</ele><time>2026-04-26T13:56:42.855Z</time></trkpt><trkpt lat="43.297127" lon="11.7432851"><ele>270.66666666666663</ele><time>2026-04-26T13:56:43.855Z</time></trkpt><trkpt lat="43.297334" lon="11.7432919"><ele>270.3333333333333</ele><time>2026-04-26T13:56:44.855Z</time></trkpt><trkpt lat="43.2975391" lon="11.7432694"><ele>270.0</ele><time>2026-04-26T13:56:45.854Z</time></trkpt><trkpt lat="43.2977434" lon="11.743216"><ele>270.0</ele><time>2026-04-26T13:56:46.854Z</time></trkpt><trkpt lat="43.2979469" lon="11.7431247"><ele>270.0</ele><time>2026-04-26T13:56:47.855Z</time></trkpt><trkpt lat="43.2981473" lon="11.7430086"><ele>270.0</ele><time>2026-04-26T13:56:48.855Z</time></trkpt><trkpt lat="43.2983431" lon="11.7428757"><ele>269.3333333333333</ele><time>2026-04-26T13:56:49.855Z</time></trkpt><trkpt lat="43.2985451" lon="11.742752"><ele>268.66666666666663</ele><time>2026-04-26T13:56:50.855Z</time></trkpt><trkpt lat="43.2987515" lon="11.7426568"><ele>268.0</ele><time>2026-04-26T13:56:51.854Z</time></trkpt><trkpt lat="43.2989666" lon="11.7425893"><ele>270.0</ele><time>2026-04-26T13:56:52.855Z</time></trkpt><trkpt lat="43.2991838" lon="11.7425414"><ele>272.0</ele><time>2026-04-26T13:56:53.855Z</time></trkpt><trkpt lat="43.2994127" lon="11.7425203"><ele>274.0</ele><time>2026-04-26T13:56:54.854Z</time></trkpt><trkpt lat="43.2996456" lon="11.7425245"><ele>272.0</ele><time>2026-04-26T13:56:55.854Z</time></trkpt><trkpt lat="43.2998806" lon="11.7425642"><ele>270.0</ele><time>2026-04-26T13:56:56.855Z</time></trkpt><trkpt lat="43.300109" lon="11.742612"><ele>270.0</ele><time>2026-04-26T13:56:57.854Z</time></trkpt><trkpt lat="43.3003377" lon="11.742666"><ele>270.0</ele><time>2026-04-26T13:56:58.855Z</time></trkpt><trkpt lat="43.3005673" lon="11.7427125"><ele>272.0</ele><time>2026-04-26T13:56:59.855Z</time></trkpt><trkpt lat="43.300792" lon="11.7427619"><ele>274.0</ele><time>2026-04-26T13:57:00.855Z</time></trkpt><trkpt lat="43.3010176" lon="11.7428166"><ele>274.0</ele><time>2026-04-26T13:57:01.855Z</time></trkpt><trkpt lat="43.3012368" lon="11.7428696"><ele>274.0</ele><time>2026-04-26T13:57:02.855Z</time></trkpt><trkpt lat="43.3014512" lon="11.7429333"><ele>274.0</ele><time>2026-04-26T13:57:03.855Z</time></trkpt><trkpt lat="43.301664" lon="11.7430166"><ele>278.0</ele><time>2026-04-26T13:57:04.855Z</time></trkpt><trkpt lat="43.3018814" lon="11.7431126"><ele>282.0</ele><time>2026-04-26T13:57:05.855Z</time></trkpt><trkpt lat="43.3020946" lon="11.7432341"><ele>285.5</ele><time>2026-04-26T13:57:06.854Z</time></trkpt><trkpt lat="43.3023072" lon="11.743369"><ele>289.0</ele><time>2026-04-26T13:57:07.855Z</time></trkpt><trkpt lat="43.3025092" lon="11.7435182"><ele>288.0</ele><time>2026-04-26T13:57:08.854Z</time></trkpt><trkpt lat="43.3027019" lon="11.7436675"><ele>287.0</ele><time>2026-04-26T13:57:09.855Z</time></trkpt><trkpt lat="43.3028969" lon="11.7438055"><ele>286.0</ele><time>2026-04-26T13:57:10.855Z</time></trkpt><trkpt lat="43.3030942" lon="11.7439221"><ele>288.3333333333333</ele><time>2026-04-26T13:57:11.855Z</time></trkpt><trkpt lat="43.3032904" lon="11.7440162"><ele>290.6666666666667</ele><time>2026-04-26T13:57:12.855Z</time></trkpt><trkpt lat="43.3034877" lon="11.7440818"><ele>293.0</ele><time>2026-04-26T13:57:13.855Z</time></trkpt><trkpt lat="43.303686" lon="11.7441206"><ele>293.0</ele><time>2026-04-26T13:57:14.854Z</time></trkpt><trkpt lat="43.3038918" lon="11.7441139"><ele>293.0</ele><time>2026-04-26T13:57:15.855Z</time></trkpt><trkpt lat="43.3040992" lon="11.7440683"><ele>293.0</ele><time>2026-04-26T13:57:16.854Z</time></trkpt><trkpt lat="43.3043086" lon="11.744016"><ele>293.6666666666667</ele><time>2026-04-26T13:57:17.855Z</time></trkpt><trkpt lat="43.3045207" lon="11.7439678"><ele>294.3333333333333</ele><time>2026-04-26T13:57:18.855Z</time></trkpt><trkpt lat="43.3047375" lon="11.7439201"><ele>295.0</ele><time>2026-04-26T13:57:19.855Z</time></trkpt><trkpt lat="43.3049546" lon="11.7438743"><ele>293.3333333333333</ele><time>2026-04-26T13:57:20.854Z</time></trkpt><trkpt lat="43.3051679" lon="11.7438308"><ele>291.6666666666667</ele><time>2026-04-26T13:57:21.855Z</time></trkpt><trkpt lat="43.3053811" lon="11.7437802"><ele>290.0</ele><time>2026-04-26T13:57:22.855Z</time></trkpt><trkpt lat="43.3055854" lon="11.7437287"><ele>286.6666666666667</ele><time>2026-04-26T13:57:23.855Z</time></trkpt><trkpt lat="43.3057932" lon="11.7436697"><ele>283.3333333333333</ele><time>2026-04-26T13:57:24.855Z</time></trkpt><trkpt lat="43.3059949" lon="11.7436614"><ele>280.0</ele><time>2026-04-26T13:57:25.854Z</time></trkpt><trkpt lat="43.3062041" lon="11.7436945"><ele>277.66666666666663</ele><time>2026-04-26T13:57:26.855Z</time></trkpt><trkpt lat="43.3064132" lon="11.7437518"><ele>275.3333333333333</ele><time>2026-04-26T13:57:27.854Z</time></trkpt><trkpt lat="43.3066256" lon="11.7438145"><ele>273.0</ele><time>2026-04-26T13:57:28.855Z</time></trkpt><trkpt lat="43.3068424" lon="11.743892"><ele>273.0</ele><time>2026-04-26T13:57:29.855Z</time></trkpt><trkpt lat="43.3070609" lon="11.7439826"><ele>273.0</ele><time>2026-04-26T13:57:30.855Z</time></trkpt><trkpt lat="43.3072776" lon="11.7441016"><ele>272.0</ele><time>2026-04-26T13:57:31.854Z</time></trkpt><trkpt lat="43.3074766" lon="11.7442523"><ele>271.0</ele><time>2026-04-26T13:57:32.854Z</time></trkpt><trkpt lat="43.3076549" lon="11.7444307"><ele>270.0</ele><time>2026-04-26T13:57:33.855Z</time></trkpt><trkpt lat="43.3078152" lon="11.7446116"><ele>269.6666666666667</ele><time>2026-04-26T13:57:34.855Z</time></trkpt><trkpt lat="43.3079749" lon="11.7447762"><ele>269.33333333333337</ele><time>2026-04-26T13:57:35.855Z</time></trkpt><trkpt lat="43.3081375" lon="11.7449259"><ele>269.0</ele><time>2026-04-26T13:57:36.855Z</time></trkpt><trkpt lat="43.3082987" lon="11.7450565"><ele>269.0</ele><time>2026-04-26T13:57:37.855Z</time></trkpt><trkpt lat="43.3084674" lon="11.7451651"><ele>269.0</ele><time>2026-04-26T13:57:38.855Z</time></trkpt><trkpt lat="43.3086416" lon="11.7452504"><ele>269.0</ele><time>2026-04-26T13:57:39.855Z</time></trkpt><trkpt lat="43.3088112" lon="11.7453138"><ele>266.6666666666667</ele><time>2026-04-26T13:57:40.855Z</time></trkpt><trkpt lat="43.3089841" lon="11.7453544"><ele>264.3333333333333</ele><time>2026-04-26T13:57:41.854Z</time></trkpt><trkpt lat="43.3091621" lon="11.7453586"><ele>262.0</ele><time>2026-04-26T13:57:42.855Z</time></trkpt><trkpt lat="43.3093545" lon="11.7453232"><ele>262.0</ele><time>2026-04-26T13:57:43.855Z</time></trkpt><trkpt lat="43.309541" lon="11.7452528"><ele>262.0</ele><time>2026-04-26T13:57:44.855Z</time></trkpt><trkpt lat="43.3097304" lon="11.7451593"><ele>262.0</ele><time>2026-04-26T13:57:45.854Z</time></trkpt><trkpt lat="43.3099196" lon="11.7450447"><ele>262.66666666666663</ele><time>2026-04-26T13:57:46.855Z</time></trkpt><trkpt lat="43.3101037" lon="11.7448976"><ele>263.3333333333333</ele><time>2026-04-26T13:57:47.855Z</time></trkpt><trkpt lat="43.3102834" lon="11.7447282"><ele>264.0</ele><time>2026-04-26T13:57:48.855Z</time></trkpt><trkpt lat="43.3104658" lon="11.7445664"><ele>264.0</ele><time>2026-04-26T13:57:49.855Z</time></trkpt><trkpt lat="43.3106581" lon="11.7444332"><ele>264.0</ele><time>2026-04-26T13:57:50.855Z</time></trkpt><trkpt lat="43.3108716" lon="11.7443323"><ele>264.0</ele><time>2026-04-26T13:57:51.855Z</time></trkpt><trkpt lat="43.3110862" lon="11.7442528"><ele>264.0</ele><time>2026-04-26T13:57:52.855Z</time></trkpt><trkpt lat="43.3113064" lon="11.7441984"><ele>264.0</ele><time>2026-04-26T13:57:53.854Z</time></trkpt><trkpt lat="43.3115382" lon="11.7441711"><ele>262.5</ele><time>2026-04-26T13:57:54.855Z</time></trkpt><trkpt lat="43.311767" lon="11.7441709"><ele>261.0</ele><time>2026-04-26T13:57:55.855Z</time></trkpt><trkpt lat="43.3119984" lon="11.7441935"><ele>261.0</ele><time>2026-04-26T13:57:56.855Z</time></trkpt><trkpt lat="43.3122283" lon="11.7442201"><ele>261.0</ele><time>2026-04-26T13:57:57.855Z</time></trkpt><trkpt lat="43.3124644" lon="11.7442506"><ele>261.0</ele><time>2026-04-26T13:57:58.855Z</time></trkpt><trkpt lat="43.3127024" lon="11.7442813"><ele>261.0</ele><time>2026-04-26T13:57:59.854Z</time></trkpt><trkpt lat="43.312938" lon="11.7443097"><ele>261.5</ele><time>2026-04-26T13:58:00.854Z</time></trkpt><trkpt lat="43.3131721" lon="11.7443404"><ele>262.0</ele><time>2026-04-26T13:58:01.855Z</time></trkpt><trkpt lat="43.3134038" lon="11.74437"><ele>262.0</ele><time>2026-04-26T13:58:02.855Z</time></trkpt><trkpt lat="43.3136327" lon="11.7444006"><ele>262.0</ele><time>2026-04-26T13:58:03.854Z</time></trkpt><trkpt lat="43.3138571" lon="11.7444299"><ele>261.3333333333333</ele><time>2026-04-26T13:58:04.854Z</time></trkpt><trkpt lat="43.3140805" lon="11.7444555"><ele>260.6666666666667</ele><time>2026-04-26T13:58:05.855Z</time></trkpt><trkpt lat="43.314304" lon="11.7444866"><ele>260.0</ele><time>2026-04-26T13:58:06.855Z</time></trkpt><trkpt lat="43.3145203" lon="11.7445153"><ele>260.0</ele><time>2026-04-26T13:58:07.855Z</time></trkpt><trkpt lat="43.3147286" lon="11.7445404"><ele>260.0</ele><time>2026-04-26T13:58:08.854Z</time></trkpt><trkpt lat="43.3149289" lon="11.7445445"><ele>260.0</ele><time>2026-04-26T13:58:09.855Z</time></trkpt><trkpt lat="43.3151259" lon="11.7445065"><ele>260.0</ele><time>2026-04-26T13:58:10.854Z</time></trkpt><trkpt lat="43.3153108" lon="11.7444401"><ele>260.0</ele><time>2026-04-26T13:58:11.854Z</time></trkpt><trkpt lat="43.3154986" lon="11.7443299"><ele>260.0</ele><time>2026-04-26T13:58:12.855Z</time></trkpt><trkpt lat="43.3156691" lon="11.744182"><ele>260.33333333333337</ele><time>2026-04-26T13:58:13.854Z</time></trkpt><trkpt lat="43.3158329" lon="11.743999"><ele>260.6666666666667</ele><time>2026-04-26T13:58:14.854Z</time></trkpt><trkpt lat="43.3159847" lon="11.743784"><ele>261.0</ele><time>2026-04-26T13:58:15.855Z</time></trkpt><trkpt lat="43.3161233" lon="11.7435355"><ele>262.5</ele><time>2026-04-26T13:58:16.855Z</time></trkpt><trkpt lat="43.3162598" lon="11.7432753"><ele>264.0</ele><time>2026-04-26T13:58:17.854Z</time></trkpt><trkpt lat="43.3163971" lon="11.7430135"><ele>263.5</ele><time>2026-04-26T13:58:18.855Z</time></trkpt><trkpt lat="43.3165362" lon="11.742755"><ele>263.0</ele><time>2026-04-26T13:58:19.855Z</time></trkpt><trkpt lat="43.3166767" lon="11.74249"><ele>263.0</ele><time>2026-04-26T13:58:20.855Z</time></trkpt><trkpt lat="43.3168176" lon="11.7422228"><ele>263.0</ele><time>2026-04-26T13:58:21.855Z</time></trkpt><trkpt lat="43.3169629" lon="11.7419555"><ele>263.0</ele><time>2026-04-26T13:58:22.855Z</time></trkpt><trkpt lat="43.3171126" lon="11.7416896"><ele>263.0</ele><time>2026-04-26T13:58:23.855Z</time></trkpt><trkpt lat="43.317266" lon="11.7414214"><ele>263.0</ele><time>2026-04-26T13:58:24.855Z</time></trkpt><trkpt lat="43.3174146" lon="11.7411467"><ele>263.0</ele><time>2026-04-26T13:58:25.855Z</time></trkpt><trkpt lat="43.3175644" lon="11.7408737"><ele>264.5</ele><time>2026-04-26T13:58:26.854Z</time></trkpt><trkpt lat="43.3177189" lon="11.7406024"><ele>266.0</ele><time>2026-04-26T13:58:27.855Z</time></trkpt><trkpt lat="43.3178808" lon="11.7403404"><ele>264.5</ele><time>2026-04-26T13:58:28.855Z</time></trkpt><trkpt lat="43.3180589" lon="11.7400953"><ele>263.0</ele><time>2026-04-26T13:58:29.854Z</time></trkpt><trkpt lat="43.3182511" lon="11.7398652"><ele>263.0</ele><time>2026-04-26T13:58:30.854Z</time></trkpt><trkpt lat="43.3184468" lon="11.7396571"><ele>263.0</ele><time>2026-04-26T13:58:31.855Z</time></trkpt><trkpt lat="43.3186521" lon="11.7394685"><ele>263.0</ele><time>2026-04-26T13:58:32.854Z</time></trkpt><trkpt lat="43.3188677" lon="11.7393125"><ele>263.0</ele><time>2026-04-26T13:58:33.855Z</time></trkpt><trkpt lat="43.3190897" lon="11.7391708"><ele>263.0</ele><time>2026-04-26T13:58:34.855Z</time></trkpt><trkpt lat="43.3193137" lon="11.7390322"><ele>263.0</ele><time>2026-04-26T13:58:35.854Z</time></trkpt><trkpt lat="43.3195375" lon="11.738897"><ele>263.0</ele><time>2026-04-26T13:58:36.855Z</time></trkpt><trkpt lat="43.3197572" lon="11.7387562"><ele>263.0</ele><time>2026-04-26T13:58:37.855Z</time></trkpt><trkpt lat="43.3199705" lon="11.7386167"><ele>263.6666666666667</ele><time>2026-04-26T13:58:38.855Z</time></trkpt><trkpt lat="43.3201756" lon="11.738484"><ele>264.3333333333333</ele><time>2026-04-26T13:58:39.854Z</time></trkpt><trkpt lat="43.3203733" lon="11.7383488"><ele>265.0</ele><time>2026-04-26T13:58:40.855Z</time></trkpt><trkpt lat="43.320558" lon="11.7381947"><ele>264.66666666666663</ele><time>2026-04-26T13:58:41.854Z</time></trkpt><trkpt lat="43.320724" lon="11.7380138"><ele>264.3333333333333</ele><time>2026-04-26T13:58:42.855Z</time></trkpt><trkpt lat="43.3208694" lon="11.7377988"><ele>264.0</ele><time>2026-04-26T13:58:43.855Z</time></trkpt><trkpt lat="43.3210059" lon="11.7375577"><ele>264.6666666666667</ele><time>2026-04-26T13:58:44.855Z</time></trkpt><trkpt lat="43.3211329" lon="11.7373211"><ele>265.33333333333337</ele><time>2026-04-26T13:58:45.855Z</time></trkpt><trkpt lat="43.3212586" lon="11.7370934"><ele>266.0</ele><time>2026-04-26T13:58:46.854Z</time></trkpt><trkpt lat="43.3213972" lon="11.7368872"><ele>265.6666666666667</ele><time>2026-04-26T13:58:47.855Z</time></trkpt><trkpt lat="43.3215482" lon="11.7367114"><ele>265.3333333333333</ele><time>2026-04-26T13:58:48.854Z</time></trkpt><trkpt lat="43.3217056" lon="11.7365707"><ele>265.0</ele><time>2026-04-26T13:58:49.855Z</time></trkpt><trkpt lat="43.32187" lon="11.7364667"><ele>265.0</ele><time>2026-04-26T13:58:50.854Z</time></trkpt><trkpt lat="43.3220448" lon="11.7363722"><ele>265.0</ele><time>2026-04-26T13:58:51.854Z</time></trkpt><trkpt lat="43.3222345" lon="11.7362778"><ele>265.0</ele><time>2026-04-26T13:58:52.855Z</time></trkpt><trkpt lat="43.3224234" lon="11.7361759"><ele>265.0</ele><time>2026-04-26T13:58:53.855Z</time></trkpt><trkpt lat="43.3226165" lon="11.7360697"><ele>265.0</ele><time>2026-04-26T13:58:54.855Z</time></trkpt><trkpt lat="43.3228152" lon="11.7359647"><ele>265.0</ele><time>2026-04-26T13:58:55.855Z</time></trkpt><trkpt lat="43.3230169" lon="11.7358574"><ele>265.3333333333333</ele><time>2026-04-26T13:58:56.855Z</time></trkpt><trkpt lat="43.3232202" lon="11.7357527"><ele>265.6666666666667</ele><time>2026-04-26T13:58:57.855Z</time></trkpt><trkpt lat="43.3234148" lon="11.7356507"><ele>266.0</ele><time>2026-04-26T13:58:58.855Z</time></trkpt><trkpt lat="43.3236031" lon="11.7355495"><ele>266.0</ele><time>2026-04-26T13:58:59.855Z</time></trkpt><trkpt lat="43.3237753" lon="11.7354558"><ele>266.0</ele><time>2026-04-26T13:59:00.855Z</time></trkpt><trkpt lat="43.3239377" lon="11.7353714"><ele>266.0</ele><time>2026-04-26T13:59:01.855Z</time></trkpt><trkpt lat="43.3240943" lon="11.7353008"><ele>265.33333333333337</ele><time>2026-04-26T13:59:02.855Z</time></trkpt><trkpt lat="43.3242411" lon="11.7352326"><ele>264.6666666666667</ele><time>2026-04-26T13:59:03.855Z</time></trkpt><trkpt lat="43.3243928" lon="11.7351667"><ele>264.0</ele><time>2026-04-26T13:59:04.854Z</time></trkpt><trkpt lat="43.3245523" lon="11.7351212"><ele>264.3333333333333</ele><time>2026-04-26T13:59:05.855Z</time></trkpt><trkpt lat="43.3247136" lon="11.7350807"><ele>264.66666666666663</ele><time>2026-04-26T13:59:06.855Z</time></trkpt><trkpt lat="43.3248786" lon="11.7350446"><ele>265.0</ele><time>2026-04-26T13:59:07.854Z</time></trkpt><trkpt lat="43.3250461" lon="11.7350046"><ele>265.0</ele><time>2026-04-26T13:59:08.854Z</time></trkpt><trkpt lat="43.3252154" lon="11.7349669"><ele>265.0</ele><time>2026-04-26T13:59:09.855Z</time></trkpt><trkpt lat="43.325385" lon="11.7349199"><ele>265.0</ele><time>2026-04-26T13:59:10.854Z</time></trkpt><trkpt lat="43.3255574" lon="11.7348567"><ele>265.0</ele><time>2026-04-26T13:59:11.855Z</time></trkpt><trkpt lat="43.3257238" lon="11.7347752"><ele>265.0</ele><time>2026-04-26T13:59:12.855Z</time></trkpt><trkpt lat="43.3258916" lon="11.7346822"><ele>265.0</ele><time>2026-04-26T13:59:13.854Z</time></trkpt><trkpt lat="43.3260505" lon="11.734582"><ele>265.0</ele><time>2026-04-26T13:59:14.855Z</time></trkpt><trkpt lat="43.3262002" lon="11.7344795"><ele>265.0</ele><time>2026-04-26T13:59:15.855Z</time></trkpt><trkpt lat="43.3263439" lon="11.7343815"><ele>265.0</ele><time>2026-04-26T13:59:16.855Z</time></trkpt><trkpt lat="43.3264858" lon="11.734284"><ele>265.0</ele><time>2026-04-26T13:59:17.854Z</time></trkpt><trkpt lat="43.3266295" lon="11.7341951"><ele>265.0</ele><time>2026-04-26T13:59:18.855Z</time></trkpt><trkpt lat="43.3267742" lon="11.7341196"><ele>265.0</ele><time>2026-04-26T13:59:19.855Z</time></trkpt><trkpt lat="43.3269252" lon="11.7340754"><ele>265.0</ele><time>2026-04-26T13:59:20.854Z</time></trkpt><trkpt lat="43.3270833" lon="11.7340558"><ele>265.0</ele><time>2026-04-26T13:59:21.854Z</time></trkpt><trkpt lat="43.327245" lon="11.7340506"><ele>265.0</ele><time>2026-04-26T13:59:22.854Z</time></trkpt><trkpt lat="43.3274037" lon="11.7340459"><ele>265.0</ele><time>2026-04-26T13:59:23.854Z</time></trkpt><trkpt lat="43.3275628" lon="11.7340097"><ele>265.0</ele><time>2026-04-26T13:59:24.855Z</time></trkpt><trkpt lat="43.3277173" lon="11.7339457"><ele>265.0</ele><time>2026-04-26T13:59:25.855Z</time></trkpt><trkpt lat="43.3278632" lon="11.7338461"><ele>265.0</ele><time>2026-04-26T13:59:26.855Z</time></trkpt><trkpt lat="43.3280044" lon="11.7337258"><ele>265.0</ele><time>2026-04-26T13:59:27.855Z</time></trkpt><trkpt lat="43.3281431" lon="11.7336107"><ele>265.0</ele><time>2026-04-26T13:59:28.854Z</time></trkpt><trkpt lat="43.3282812" lon="11.7334731"><ele>265.0</ele><time>2026-04-26T13:59:29.855Z</time></trkpt><trkpt lat="43.3284022" lon="11.7333262"><ele>265.0</ele><time>2026-04-26T13:59:30.855Z</time></trkpt><trkpt lat="43.328512" lon="11.7331759"><ele>265.0</ele><time>2026-04-26T13:59:31.855Z</time></trkpt><trkpt lat="43.3286164" lon="11.7330304"><ele>265.0</ele><time>2026-04-26T13:59:32.855Z</time></trkpt><trkpt lat="43.3287207" lon="11.7328778"><ele>265.0</ele><time>2026-04-26T13:59:33.854Z</time></trkpt><trkpt lat="43.3288256" lon="11.7327252"><ele>265.0</ele><time>2026-04-26T13:59:34.855Z</time></trkpt><trkpt lat="43.3289327" lon="11.7325635"><ele>265.3333333333333</ele><time>2026-04-26T13:59:35.855Z</time></trkpt><trkpt lat="43.3290435" lon="11.7324117"><ele>265.6666666666667</ele><time>2026-04-26T13:59:36.855Z</time></trkpt><trkpt lat="43.3291549" lon="11.7322491"><ele>266.0</ele><time>2026-04-26T13:59:37.855Z</time></trkpt><trkpt lat="43.3292632" lon="11.7320911"><ele>266.0</ele><time>2026-04-26T13:59:38.855Z</time></trkpt><trkpt lat="43.329361" lon="11.7319411"><ele>266.0</ele><time>2026-04-26T13:59:39.855Z</time></trkpt><trkpt lat="43.3294545" lon="11.7318076"><ele>266.0</ele><time>2026-04-26T13:59:40.854Z</time></trkpt><trkpt lat="43.3295339" lon="11.7316898"><ele>266.0</ele><time>2026-04-26T13:59:41.855Z</time></trkpt><trkpt lat="43.329603" lon="11.7315777"><ele>266.40000000000003</ele><time>2026-04-26T13:59:42.854Z</time></trkpt><trkpt lat="43.3296651" lon="11.7314852"><ele>266.8</ele><time>2026-04-26T13:59:43.855Z</time></trkpt><trkpt lat="43.3297385" lon="11.7314094"><ele>267.20000000000005</ele><time>2026-04-26T13:59:44.855Z</time></trkpt><trkpt lat="43.3298172" lon="11.731352"><ele>267.6</ele><time>2026-04-26T13:59:45.855Z</time></trkpt><trkpt lat="43.3299132" lon="11.7312979"><ele>268.0</ele><time>2026-04-26T13:59:46.855Z</time></trkpt><trkpt lat="43.3300191" lon="11.7312386"><ele>268.0</ele><time>2026-04-26T13:59:47.855Z</time></trkpt><trkpt lat="43.3301415" lon="11.7311825"><ele>268.0</ele><time>2026-04-26T13:59:48.854Z</time></trkpt><trkpt lat="43.3302661" lon="11.7311213"><ele>268.0</ele><time>2026-04-26T13:59:49.855Z</time></trkpt><trkpt lat="43.3303969" lon="11.7310628"><ele>268.0</ele><time>2026-04-26T13:59:50.855Z</time></trkpt><trkpt lat="43.3305244" lon="11.73102"><ele>267.66666666666663</ele><time>2026-04-26T13:59:51.855Z</time></trkpt><trkpt lat="43.3306269" lon="11.7310102"><ele>267.3333333333333</ele><time>2026-04-26T13:59:52.854Z</time></trkpt><trkpt lat="43.3307" lon="11.7310432"><ele>267.0</ele><time>2026-04-26T13:59:53.855Z</time></trkpt><trkpt lat="43.3307646" lon="11.7311137"><ele>266.6666666666667</ele><time>2026-04-26T13:59:54.855Z</time></trkpt><trkpt lat="43.330811" lon="11.7311891"><ele>266.33333333333337</ele><time>2026-04-26T13:59:55.855Z</time></trkpt><trkpt lat="43.3308666" lon="11.7312765"><ele>266.0</ele><time>2026-04-26T13:59:57.855Z</time></trkpt><trkpt lat="43.3309344" lon="11.731313"><ele>266.0</ele><time>2026-04-26T14:00:02.855Z</time></trkpt><trkpt lat="43.3310449" lon="11.7312819"><ele>266.0</ele><time>2026-04-26T14:00:04.855Z</time></trkpt><trkpt lat="43.3311418" lon="11.7312397"><ele>266.0</ele><time>2026-04-26T14:00:05.855Z</time></trkpt><trkpt lat="43.3312281" lon="11.73118"><ele>266.0</ele><time>2026-04-26T14:00:06.854Z</time></trkpt><trkpt lat="43.3313386" lon="11.7311071"><ele>266.0</ele><time>2026-04-26T14:00:07.855Z</time></trkpt><trkpt lat="43.3314551" lon="11.7310312"><ele>267.0</ele><time>2026-04-26T14:00:08.855Z</time></trkpt><trkpt lat="43.3315815" lon="11.730959"><ele>268.0</ele><time>2026-04-26T14:00:09.855Z</time></trkpt><trkpt lat="43.3317118" lon="11.7308873"><ele>269.0</ele><time>2026-04-26T14:00:10.854Z</time></trkpt><trkpt lat="43.3318401" lon="11.7308027"><ele>270.0</ele><time>2026-04-26T14:00:11.854Z</time></trkpt><trkpt lat="43.3319648" lon="11.7306974"><ele>270.0</ele><time>2026-04-26T14:00:12.854Z</time></trkpt><trkpt lat="43.3320866" lon="11.7305678"><ele>270.0</ele><time>2026-04-26T14:00:13.855Z</time></trkpt><trkpt lat="43.3322062" lon="11.7304118"><ele>270.0</ele><time>2026-04-26T14:00:14.855Z</time></trkpt><trkpt lat="43.3323202" lon="11.7302463"><ele>269.3333333333333</ele><time>2026-04-26T14:00:15.855Z</time></trkpt><trkpt lat="43.3324426" lon="11.7300791"><ele>268.66666666666663</ele><time>2026-04-26T14:00:16.855Z</time></trkpt><trkpt lat="43.3325628" lon="11.7299078"><ele>268.0</ele><time>2026-04-26T14:00:17.854Z</time></trkpt><trkpt lat="43.3326877" lon="11.7297443"><ele>268.0</ele><time>2026-04-26T14:00:18.855Z</time></trkpt><trkpt lat="43.3328099" lon="11.7295724"><ele>268.0</ele><time>2026-04-26T14:00:19.855Z</time></trkpt><trkpt lat="43.3329376" lon="11.7293973"><ele>268.0</ele><time>2026-04-26T14:00:20.855Z</time></trkpt><trkpt lat="43.3330608" lon="11.7292227"><ele>268.0</ele><time>2026-04-26T14:00:21.855Z</time></trkpt><trkpt lat="43.3331844" lon="11.729046"><ele>268.0</ele><time>2026-04-26T14:00:22.855Z</time></trkpt><trkpt lat="43.3333064" lon="11.7288742"><ele>268.0</ele><time>2026-04-26T14:00:23.854Z</time></trkpt><trkpt lat="43.3334284" lon="11.7286901"><ele>269.0</ele><time>2026-04-26T14:00:24.855Z</time></trkpt><trkpt lat="43.3335477" lon="11.728503"><ele>270.0</ele><time>2026-04-26T14:00:25.854Z</time></trkpt><trkpt lat="43.3336632" lon="11.7283239"><ele>271.0</ele><time>2026-04-26T14:00:26.855Z</time></trkpt><trkpt lat="43.3337819" lon="11.7281467"><ele>271.0</ele><time>2026-04-26T14:00:27.855Z</time></trkpt><trkpt lat="43.3339017" lon="11.7279748"><ele>271.0</ele><time>2026-04-26T14:00:28.855Z</time></trkpt><trkpt lat="43.3340283" lon="11.7278124"><ele>271.0</ele><time>2026-04-26T14:00:29.854Z</time></trkpt><trkpt lat="43.3341638" lon="11.7276669"><ele>271.0</ele><time>2026-04-26T14:00:30.855Z</time></trkpt><trkpt lat="43.3343065" lon="11.7275423"><ele>271.0</ele><time>2026-04-26T14:00:31.854Z</time></trkpt><trkpt lat="43.3344533" lon="11.7274367"><ele>271.0</ele><time>2026-04-26T14:00:32.855Z</time></trkpt><trkpt lat="43.3346128" lon="11.7273377"><ele>270.0</ele><time>2026-04-26T14:00:33.855Z</time></trkpt><trkpt lat="43.3347679" lon="11.7272252"><ele>269.0</ele><time>2026-04-26T14:00:34.855Z</time></trkpt><trkpt lat="43.3349234" lon="11.7271247"><ele>268.0</ele><time>2026-04-26T14:00:35.855Z</time></trkpt><trkpt lat="43.3350836" lon="11.7270274"><ele>268.0</ele><time>2026-04-26T14:00:36.854Z</time></trkpt><trkpt lat="43.3352352" lon="11.7269282"><ele>268.0</ele><time>2026-04-26T14:00:37.854Z</time></trkpt><trkpt lat="43.3353808" lon="11.7268279"><ele>268.0</ele><time>2026-04-26T14:00:38.854Z</time></trkpt><trkpt lat="43.3355013" lon="11.7267187"><ele>268.25</ele><time>2026-04-26T14:00:39.855Z</time></trkpt><trkpt lat="43.3355867" lon="11.7266005"><ele>268.5</ele><time>2026-04-26T14:00:40.855Z</time></trkpt><trkpt lat="43.3356674" lon="11.7264937"><ele>268.75</ele><time>2026-04-26T14:00:41.855Z</time></trkpt><trkpt lat="43.3357161" lon="11.726375"><ele>269.0</ele><time>2026-04-26T14:00:42.854Z</time></trkpt><trkpt lat="43.3357844" lon="11.7262293"><ele>269.0</ele><time>2026-04-26T14:00:44.855Z</time></trkpt><trkpt lat="43.3358414" lon="11.7261314"><ele>269.0</ele><time>2026-04-26T14:00:46.855Z</time></trkpt><trkpt lat="43.3358895" lon="11.7260699"><ele>269.0</ele><time>2026-04-26T14:00:49.854Z</time></trkpt><trkpt lat="43.3360125" lon="11.7260057"><ele>269.0</ele><time>2026-04-26T14:00:52.855Z</time></trkpt><trkpt lat="43.3360976" lon="11.7259714"><ele>269.0</ele><time>2026-04-26T14:00:53.855Z</time></trkpt><trkpt lat="43.3361972" lon="11.7259524"><ele>269.25</ele><time>2026-04-26T14:00:54.855Z</time></trkpt><trkpt lat="43.3363014" lon="11.7259294"><ele>269.5</ele><time>2026-04-26T14:00:55.855Z</time></trkpt><trkpt lat="43.3364154" lon="11.7259082"><ele>269.75</ele><time>2026-04-26T14:00:56.854Z</time></trkpt><trkpt lat="43.3365327" lon="11.7258853"><ele>270.0</ele><time>2026-04-26T14:00:57.855Z</time></trkpt><trkpt lat="43.3366452" lon="11.7258477"><ele>270.2</ele><time>2026-04-26T14:00:58.855Z</time></trkpt><trkpt lat="43.3367469" lon="11.7258236"><ele>270.4</ele><time>2026-04-26T14:00:59.855Z</time></trkpt><trkpt lat="43.3368459" lon="11.7258057"><ele>270.6</ele><time>2026-04-26T14:01:00.854Z</time></trkpt><trkpt lat="43.3369428" lon="11.7257823"><ele>270.8</ele><time>2026-04-26T14:01:01.855Z</time></trkpt><trkpt lat="43.3370516" lon="11.7257707"><ele>271.0</ele><time>2026-04-26T14:01:02.855Z</time></trkpt><trkpt lat="43.3371815" lon="11.7257774"><ele>270.75</ele><time>2026-04-26T14:01:03.855Z</time></trkpt><trkpt lat="43.3373168" lon="11.7257872"><ele>270.5</ele><time>2026-04-26T14:01:04.855Z</time></trkpt><trkpt lat="43.3374503" lon="11.7257994"><ele>270.25</ele><time>2026-04-26T14:01:05.854Z</time></trkpt><trkpt lat="43.337601" lon="11.7258074"><ele>270.0</ele><time>2026-04-26T14:01:06.855Z</time></trkpt><trkpt lat="43.3377494" lon="11.725813"><ele>270.0</ele><time>2026-04-26T14:01:07.855Z</time></trkpt><trkpt lat="43.3379124" lon="11.7258331"><ele>270.0</ele><time>2026-04-26T14:01:08.855Z</time></trkpt><trkpt lat="43.3380651" lon="11.7258511"><ele>270.0</ele><time>2026-04-26T14:01:09.855Z</time></trkpt><trkpt lat="43.3382249" lon="11.7258777"><ele>270.0</ele><time>2026-04-26T14:01:10.855Z</time></trkpt><trkpt lat="43.3383869" lon="11.725915"><ele>270.0</ele><time>2026-04-26T14:01:11.855Z</time></trkpt><trkpt lat="43.3385371" lon="11.7259515"><ele>270.0</ele><time>2026-04-26T14:01:12.855Z</time></trkpt><trkpt lat="43.3386783" lon="11.725981"><ele>270.0</ele><time>2026-04-26T14:01:13.855Z</time></trkpt><trkpt lat="43.3388209" lon="11.7260068"><ele>270.0</ele><time>2026-04-26T14:01:14.854Z</time></trkpt><trkpt lat="43.3389611" lon="11.7260126"><ele>270.0</ele><time>2026-04-26T14:01:15.855Z</time></trkpt><trkpt lat="43.339102" lon="11.7259965"><ele>270.0</ele><time>2026-04-26T14:01:16.855Z</time></trkpt><trkpt lat="43.3392417" lon="11.7259417"><ele>270.0</ele><time>2026-04-26T14:01:17.855Z</time></trkpt><trkpt lat="43.3393816" lon="11.7258406"><ele>270.0</ele><time>2026-04-26T14:01:18.855Z</time></trkpt><trkpt lat="43.3395235" lon="11.7257111"><ele>270.0</ele><time>2026-04-26T14:01:19.855Z</time></trkpt><trkpt lat="43.3396665" lon="11.7255801"><ele>269.6666666666667</ele><time>2026-04-26T14:01:20.855Z</time></trkpt><trkpt lat="43.3398161" lon="11.7254505"><ele>269.33333333333337</ele><time>2026-04-26T14:01:21.854Z</time></trkpt><trkpt lat="43.3399812" lon="11.7253147"><ele>269.0</ele><time>2026-04-26T14:01:22.855Z</time></trkpt><trkpt lat="43.3401392" lon="11.7251753"><ele>269.0</ele><time>2026-04-26T14:01:23.855Z</time></trkpt><trkpt lat="43.3402905" lon="11.7250396"><ele>269.0</ele><time>2026-04-26T14:01:24.855Z</time></trkpt><trkpt lat="43.3404374" lon="11.7249082"><ele>269.0</ele><time>2026-04-26T14:01:25.854Z</time></trkpt><trkpt lat="43.3405741" lon="11.7247826"><ele>268.0</ele><time>2026-04-26T14:01:26.854Z</time></trkpt><trkpt lat="43.3407075" lon="11.7246575"><ele>267.0</ele><time>2026-04-26T14:01:27.855Z</time></trkpt><trkpt lat="43.3408443" lon="11.7245262"><ele>266.0</ele><time>2026-04-26T14:01:28.855Z</time></trkpt><trkpt lat="43.3409923" lon="11.7243976"><ele>266.33333333333337</ele><time>2026-04-26T14:01:29.855Z</time></trkpt><trkpt lat="43.3411454" lon="11.7242669"><ele>266.6666666666667</ele><time>2026-04-26T14:01:30.855Z</time></trkpt><trkpt lat="43.3413031" lon="11.724124"><ele>267.0</ele><time>2026-04-26T14:01:31.855Z</time></trkpt><trkpt lat="43.3414682" lon="11.7239796"><ele>267.0</ele><time>2026-04-26T14:01:32.855Z</time></trkpt><trkpt lat="43.3416314" lon="11.7238377"><ele>267.0</ele><time>2026-04-26T14:01:33.854Z</time></trkpt><trkpt lat="43.3417935" lon="11.7236914"><ele>267.0</ele><time>2026-04-26T14:01:34.854Z</time></trkpt><trkpt lat="43.3419598" lon="11.7235397"><ele>267.3333333333333</ele><time>2026-04-26T14:01:35.854Z</time></trkpt><trkpt lat="43.3421254" lon="11.7233905"><ele>267.66666666666663</ele><time>2026-04-26T14:01:36.855Z</time></trkpt><trkpt lat="43.3422921" lon="11.7232416"><ele>268.0</ele><time>2026-04-26T14:01:37.855Z</time></trkpt><trkpt lat="43.3424579" lon="11.7230961"><ele>268.0</ele><time>2026-04-26T14:01:38.855Z</time></trkpt><trkpt lat="43.3426177" lon="11.7229541"><ele>268.0</ele><time>2026-04-26T14:01:39.855Z</time></trkpt><trkpt lat="43.3427699" lon="11.7228231"><ele>268.0</ele><time>2026-04-26T14:01:40.854Z</time></trkpt><trkpt lat="43.3429185" lon="11.7227055"><ele>268.0</ele><time>2026-04-26T14:01:41.855Z</time></trkpt><trkpt lat="43.3430834" lon="11.7226223"><ele>268.0</ele><time>2026-04-26T14:01:42.854Z</time></trkpt><trkpt lat="43.3432619" lon="11.7225704"><ele>268.0</ele><time>2026-04-26T14:01:43.855Z</time></trkpt><trkpt lat="43.34345" lon="11.722553"><ele>268.0</ele><time>2026-04-26T14:01:44.854Z</time></trkpt><trkpt lat="43.3436436" lon="11.7225638"><ele>268.0</ele><time>2026-04-26T14:01:45.855Z</time></trkpt><trkpt lat="43.3438496" lon="11.7225988"><ele>268.0</ele><time>2026-04-26T14:01:46.854Z</time></trkpt><trkpt lat="43.3440495" lon="11.7226342"><ele>268.0</ele><time>2026-04-26T14:01:47.854Z</time></trkpt><trkpt lat="43.3442652" lon="11.7226705"><ele>268.0</ele><time>2026-04-26T14:01:48.855Z</time></trkpt><trkpt lat="43.3444792" lon="11.7227053"><ele>268.0</ele><time>2026-04-26T14:01:49.855Z</time></trkpt><trkpt lat="43.344701" lon="11.7227416"><ele>267.5</ele><time>2026-04-26T14:01:50.855Z</time></trkpt><trkpt lat="43.3449254" lon="11.7227786"><ele>267.0</ele><time>2026-04-26T14:01:51.855Z</time></trkpt><trkpt lat="43.3451511" lon="11.7228128"><ele>267.0</ele><time>2026-04-26T14:01:52.855Z</time></trkpt><trkpt lat="43.3453763" lon="11.7228455"><ele>267.0</ele><time>2026-04-26T14:01:53.854Z</time></trkpt><trkpt lat="43.3455979" lon="11.7228775"><ele>267.0</ele><time>2026-04-26T14:01:54.855Z</time></trkpt><trkpt lat="43.3458155" lon="11.722915"><ele>267.0</ele><time>2026-04-26T14:01:55.855Z</time></trkpt><trkpt lat="43.3460296" lon="11.7229491"><ele>267.0</ele><time>2026-04-26T14:01:56.855Z</time></trkpt><trkpt lat="43.3462416" lon="11.7229839"><ele>267.0</ele><time>2026-04-26T14:01:57.855Z</time></trkpt><trkpt lat="43.346451" lon="11.7230196"><ele>267.0</ele><time>2026-04-26T14:01:58.854Z</time></trkpt><trkpt lat="43.3466505" lon="11.7230485"><ele>267.0</ele><time>2026-04-26T14:01:59.855Z</time></trkpt><trkpt lat="43.3468395" lon="11.7230704"><ele>267.0</ele><time>2026-04-26T14:02:00.854Z</time></trkpt><trkpt lat="43.3470187" lon="11.7230545"><ele>267.0</ele><time>2026-04-26T14:02:01.854Z</time></trkpt><trkpt lat="43.3471936" lon="11.7229733"><ele>267.0</ele><time>2026-04-26T14:02:02.855Z</time></trkpt><trkpt lat="43.3473572" lon="11.722843"><ele>267.0</ele><time>2026-04-26T14:02:03.855Z</time></trkpt><trkpt lat="43.3475062" lon="11.7226755"><ele>267.6666666666667</ele><time>2026-04-26T14:02:04.855Z</time></trkpt><trkpt lat="43.3476415" lon="11.7224793"><ele>268.33333333333337</ele><time>2026-04-26T14:02:05.855Z</time></trkpt><trkpt lat="43.3477722" lon="11.7222683"><ele>269.0</ele><time>2026-04-26T14:02:06.855Z</time></trkpt><trkpt lat="43.3479099" lon="11.7220546"><ele>268.33333333333337</ele><time>2026-04-26T14:02:07.855Z</time></trkpt><trkpt lat="43.348052" lon="11.7218429"><ele>267.6666666666667</ele><time>2026-04-26T14:02:08.854Z</time></trkpt><trkpt lat="43.3481967" lon="11.7216237"><ele>267.0</ele><time>2026-04-26T14:02:09.855Z</time></trkpt><trkpt lat="43.3483304" lon="11.7213913"><ele>267.0</ele><time>2026-04-26T14:02:10.855Z</time></trkpt><trkpt lat="43.3484452" lon="11.7211448"><ele>267.0</ele><time>2026-04-26T14:02:11.855Z</time></trkpt><trkpt lat="43.3485473" lon="11.7208965"><ele>267.0</ele><time>2026-04-26T14:02:12.855Z</time></trkpt><trkpt lat="43.3486413" lon="11.7206377"><ele>267.3333333333333</ele><time>2026-04-26T14:02:13.855Z</time></trkpt><trkpt lat="43.3487251" lon="11.7203696"><ele>267.66666666666663</ele><time>2026-04-26T14:02:14.855Z</time></trkpt><trkpt lat="43.3487918" lon="11.7200842"><ele>268.0</ele><time>2026-04-26T14:02:15.854Z</time></trkpt><trkpt lat="43.348846" lon="11.7197925"><ele>268.5</ele><time>2026-04-26T14:02:16.855Z</time></trkpt><trkpt lat="43.348898" lon="11.7194839"><ele>269.0</ele><time>2026-04-26T14:02:17.855Z</time></trkpt><trkpt lat="43.3489547" lon="11.7191709"><ele>268.0</ele><time>2026-04-26T14:02:18.855Z</time></trkpt><trkpt lat="43.3490132" lon="11.718876"><ele>267.0</ele><time>2026-04-26T14:02:19.855Z</time></trkpt><trkpt lat="43.3490783" lon="11.7185751"><ele>267.0</ele><time>2026-04-26T14:02:20.855Z</time></trkpt><trkpt lat="43.3491591" lon="11.7182789"><ele>267.0</ele><time>2026-04-26T14:02:21.855Z</time></trkpt><trkpt lat="43.3492419" lon="11.7179875"><ele>267.6666666666667</ele><time>2026-04-26T14:02:22.855Z</time></trkpt><trkpt lat="43.349327" lon="11.7177034"><ele>268.33333333333337</ele><time>2026-04-26T14:02:23.855Z</time></trkpt><trkpt lat="43.3494086" lon="11.7174373"><ele>269.0</ele><time>2026-04-26T14:02:24.854Z</time></trkpt><trkpt lat="43.3494866" lon="11.7171871"><ele>269.0</ele><time>2026-04-26T14:02:25.854Z</time></trkpt><trkpt lat="43.3495701" lon="11.7169593"><ele>269.0</ele><time>2026-04-26T14:02:26.855Z</time></trkpt><trkpt lat="43.3496769" lon="11.7167739"><ele>269.0</ele><time>2026-04-26T14:02:27.854Z</time></trkpt><trkpt lat="43.3498198" lon="11.7166243"><ele>269.0</ele><time>2026-04-26T14:02:28.855Z</time></trkpt><trkpt lat="43.3499844" lon="11.7164968"><ele>269.0</ele><time>2026-04-26T14:02:29.854Z</time></trkpt><trkpt lat="43.3501601" lon="11.7164092"><ele>269.0</ele><time>2026-04-26T14:02:30.855Z</time></trkpt><trkpt lat="43.3503463" lon="11.716356"><ele>269.0</ele><time>2026-04-26T14:02:31.855Z</time></trkpt><trkpt lat="43.3505321" lon="11.7163073"><ele>269.0</ele><time>2026-04-26T14:02:32.855Z</time></trkpt><trkpt lat="43.3507128" lon="11.7162454"><ele>269.0</ele><time>2026-04-26T14:02:33.855Z</time></trkpt><trkpt lat="43.3508818" lon="11.7161437"><ele>269.0</ele><time>2026-04-26T14:02:34.855Z</time></trkpt><trkpt lat="43.3510302" lon="11.7159879"><ele>269.0</ele><time>2026-04-26T14:02:35.855Z</time></trkpt><trkpt lat="43.3511542" lon="11.7157933"><ele>269.0</ele><time>2026-04-26T14:02:36.855Z</time></trkpt><trkpt lat="43.3512357" lon="11.7155408"><ele>269.0</ele><time>2026-04-26T14:02:37.855Z</time></trkpt><trkpt lat="43.3512983" lon="11.715282"><ele>269.0</ele><time>2026-04-26T14:02:38.855Z</time></trkpt><trkpt lat="43.3513286" lon="11.7150062"><ele>269.0</ele><time>2026-04-26T14:02:39.855Z</time></trkpt><trkpt lat="43.3513423" lon="11.714713"><ele>269.33333333333337</ele><time>2026-04-26T14:02:40.855Z</time></trkpt><trkpt lat="43.3513635" lon="11.7144118"><ele>269.6666666666667</ele><time>2026-04-26T14:02:41.855Z</time></trkpt><trkpt lat="43.351369" lon="11.7140989"><ele>270.0</ele><time>2026-04-26T14:02:42.854Z</time></trkpt><trkpt lat="43.351385" lon="11.7137906"><ele>270.0</ele><time>2026-04-26T14:02:43.855Z</time></trkpt><trkpt lat="43.3513982" lon="11.7134692"><ele>270.0</ele><time>2026-04-26T14:02:44.855Z</time></trkpt><trkpt lat="43.351418" lon="11.7131422"><ele>270.0</ele><time>2026-04-26T14:02:45.854Z</time></trkpt><trkpt lat="43.3514296" lon="11.7128148"><ele>270.0</ele><time>2026-04-26T14:02:46.855Z</time></trkpt><trkpt lat="43.3514436" lon="11.7124832"><ele>270.0</ele><time>2026-04-26T14:02:47.855Z</time></trkpt><trkpt lat="43.3514565" lon="11.7121501"><ele>270.0</ele><time>2026-04-26T14:02:48.855Z</time></trkpt><trkpt lat="43.3514773" lon="11.7118167"><ele>270.0</ele><time>2026-04-26T14:02:49.855Z</time></trkpt><trkpt lat="43.3514942" lon="11.711478"><ele>270.0</ele><time>2026-04-26T14:02:50.855Z</time></trkpt><trkpt lat="43.3515054" lon="11.7111466"><ele>270.5</ele><time>2026-04-26T14:02:51.855Z</time></trkpt><trkpt lat="43.3515163" lon="11.7108131"><ele>271.0</ele><time>2026-04-26T14:02:52.855Z</time></trkpt><trkpt lat="43.3515287" lon="11.7104845"><ele>272.0</ele><time>2026-04-26T14:02:53.855Z</time></trkpt><trkpt lat="43.3515363" lon="11.7101526"><ele>273.0</ele><time>2026-04-26T14:02:54.855Z</time></trkpt><trkpt lat="43.35155" lon="11.7098212"><ele>273.0</ele><time>2026-04-26T14:02:55.854Z</time></trkpt><trkpt lat="43.3515635" lon="11.7094905"><ele>273.0</ele><time>2026-04-26T14:02:56.855Z</time></trkpt><trkpt lat="43.3515792" lon="11.7091634"><ele>273.0</ele><time>2026-04-26T14:02:57.855Z</time></trkpt><trkpt lat="43.3515903" lon="11.7088378"><ele>273.0</ele><time>2026-04-26T14:02:58.855Z</time></trkpt><trkpt lat="43.3516045" lon="11.7085362"><ele>273.6666666666667</ele><time>2026-04-26T14:02:59.855Z</time></trkpt><trkpt lat="43.3516185" lon="11.7082536"><ele>274.33333333333337</ele><time>2026-04-26T14:03:00.854Z</time></trkpt><trkpt lat="43.3516133" lon="11.707981"><ele>275.0</ele><time>2026-04-26T14:03:01.855Z</time></trkpt><trkpt lat="43.3515871" lon="11.7077211"><ele>275.0</ele><time>2026-04-26T14:03:02.855Z</time></trkpt><trkpt lat="43.351544" lon="11.7074511"><ele>275.0</ele><time>2026-04-26T14:03:03.855Z</time></trkpt><trkpt lat="43.3514929" lon="11.7071772"><ele>275.0</ele><time>2026-04-26T14:03:04.855Z</time></trkpt><trkpt lat="43.3514509" lon="11.7068964"><ele>275.0</ele><time>2026-04-26T14:03:05.855Z</time></trkpt><trkpt lat="43.3514275" lon="11.7065991"><ele>275.0</ele><time>2026-04-26T14:03:06.854Z</time></trkpt><trkpt lat="43.3514175" lon="11.7062912"><ele>275.0</ele><time>2026-04-26T14:03:07.854Z</time></trkpt><trkpt lat="43.3514305" lon="11.7059778"><ele>275.6666666666667</ele><time>2026-04-26T14:03:08.855Z</time></trkpt><trkpt lat="43.3514543" lon="11.7056744"><ele>276.3333333333333</ele><time>2026-04-26T14:03:09.855Z</time></trkpt><trkpt lat="43.3514819" lon="11.7053657"><ele>277.0</ele><time>2026-04-26T14:03:10.855Z</time></trkpt><trkpt lat="43.3515051" lon="11.7050622"><ele>277.0</ele><time>2026-04-26T14:03:11.855Z</time></trkpt><trkpt lat="43.3515247" lon="11.7047617"><ele>277.0</ele><time>2026-04-26T14:03:12.854Z</time></trkpt><trkpt lat="43.3515473" lon="11.7044644"><ele>277.0</ele><time>2026-04-26T14:03:13.854Z</time></trkpt><trkpt lat="43.3515684" lon="11.7041838"><ele>277.0</ele><time>2026-04-26T14:03:14.855Z</time></trkpt><trkpt lat="43.3515925" lon="11.7039199"><ele>277.0</ele><time>2026-04-26T14:03:15.855Z</time></trkpt><trkpt lat="43.3516344" lon="11.7036717"><ele>277.0</ele><time>2026-04-26T14:03:16.855Z</time></trkpt><trkpt lat="43.3517091" lon="11.7034362"><ele>277.3333333333333</ele><time>2026-04-26T14:03:17.855Z</time></trkpt><trkpt lat="43.3518199" lon="11.7032182"><ele>277.6666666666667</ele><time>2026-04-26T14:03:18.855Z</time></trkpt><trkpt lat="43.3519553" lon="11.7030168"><ele>278.0</ele><time>2026-04-26T14:03:19.855Z</time></trkpt><trkpt lat="43.3521069" lon="11.7028313"><ele>278.33333333333337</ele><time>2026-04-26T14:03:20.855Z</time></trkpt><trkpt lat="43.3522696" lon="11.7026409"><ele>278.6666666666667</ele><time>2026-04-26T14:03:21.854Z</time></trkpt><trkpt lat="43.3524325" lon="11.7024533"><ele>279.0</ele><time>2026-04-26T14:03:22.855Z</time></trkpt><trkpt lat="43.3525932" lon="11.7022677"><ele>279.0</ele><time>2026-04-26T14:03:23.855Z</time></trkpt><trkpt lat="43.3527487" lon="11.7020746"><ele>279.0</ele><time>2026-04-26T14:03:24.855Z</time></trkpt><trkpt lat="43.3528966" lon="11.7018739"><ele>279.0</ele><time>2026-04-26T14:03:25.854Z</time></trkpt><trkpt lat="43.3530272" lon="11.7016599"><ele>278.3333333333333</ele><time>2026-04-26T14:03:26.855Z</time></trkpt><trkpt lat="43.3531423" lon="11.7014242"><ele>277.66666666666663</ele><time>2026-04-26T14:03:27.855Z</time></trkpt><trkpt lat="43.3532465" lon="11.7011725"><ele>277.0</ele><time>2026-04-26T14:03:28.855Z</time></trkpt><trkpt lat="43.3533502" lon="11.7009123"><ele>277.0</ele><time>2026-04-26T14:03:29.855Z</time></trkpt><trkpt lat="43.3534584" lon="11.700648"><ele>277.0</ele><time>2026-04-26T14:03:30.855Z</time></trkpt><trkpt lat="43.3535649" lon="11.7003902"><ele>277.0</ele><time>2026-04-26T14:03:31.855Z</time></trkpt><trkpt lat="43.3536728" lon="11.7001378"><ele>277.3333333333333</ele><time>2026-04-26T14:03:32.855Z</time></trkpt><trkpt lat="43.353776" lon="11.6998876"><ele>277.6666666666667</ele><time>2026-04-26T14:03:33.855Z</time></trkpt><trkpt lat="43.3538813" lon="11.699642"><ele>278.0</ele><time>2026-04-26T14:03:34.854Z</time></trkpt><trkpt lat="43.3539804" lon="11.6994042"><ele>278.0</ele><time>2026-04-26T14:03:35.855Z</time></trkpt><trkpt lat="43.3540704" lon="11.6991763"><ele>278.0</ele><time>2026-04-26T14:03:36.854Z</time></trkpt><trkpt lat="43.3541593" lon="11.6989604"><ele>278.0</ele><time>2026-04-26T14:03:37.855Z</time></trkpt><trkpt lat="43.3542523" lon="11.698778"><ele>278.0</ele><time>2026-04-26T14:03:38.855Z</time></trkpt><trkpt lat="43.3543603" lon="11.6986373"><ele>278.0</ele><time>2026-04-26T14:03:39.854Z</time></trkpt><trkpt lat="43.3544777" lon="11.6985358"><ele>278.0</ele><time>2026-04-26T14:03:40.855Z</time></trkpt><trkpt lat="43.3546011" lon="11.698451"><ele>278.0</ele><time>2026-04-26T14:03:41.855Z</time></trkpt><trkpt lat="43.3547322" lon="11.6983782"><ele>277.6666666666667</ele><time>2026-04-26T14:03:42.855Z</time></trkpt><trkpt lat="43.3548733" lon="11.6983118"><ele>277.3333333333333</ele><time>2026-04-26T14:03:43.855Z</time></trkpt><trkpt lat="43.3550237" lon="11.6982479"><ele>277.0</ele><time>2026-04-26T14:03:44.855Z</time></trkpt><trkpt lat="43.3551903" lon="11.698175"><ele>277.0</ele><time>2026-04-26T14:03:45.854Z</time></trkpt><trkpt lat="43.3553688" lon="11.6981038"><ele>277.0</ele><time>2026-04-26T14:03:46.855Z</time></trkpt><trkpt lat="43.3555634" lon="11.6980257"><ele>277.0</ele><time>2026-04-26T14:03:47.854Z</time></trkpt><trkpt lat="43.3557612" lon="11.6979532"><ele>277.0</ele><time>2026-04-26T14:03:48.855Z</time></trkpt><trkpt lat="43.3559614" lon="11.6978744"><ele>277.0</ele><time>2026-04-26T14:03:49.855Z</time></trkpt><trkpt lat="43.3561601" lon="11.697792"><ele>277.0</ele><time>2026-04-26T14:03:50.854Z</time></trkpt><trkpt lat="43.3563635" lon="11.6977065"><ele>279.66666666666663</ele><time>2026-04-26T14:03:51.854Z</time></trkpt><trkpt lat="43.3565717" lon="11.6976221"><ele>282.3333333333333</ele><time>2026-04-26T14:03:52.854Z</time></trkpt><trkpt lat="43.356782" lon="11.6975403"><ele>285.0</ele><time>2026-04-26T14:03:53.854Z</time></trkpt><trkpt lat="43.3569933" lon="11.6974577"><ele>285.0</ele><time>2026-04-26T14:03:54.854Z</time></trkpt><trkpt lat="43.3571944" lon="11.6973736"><ele>285.0</ele><time>2026-04-26T14:03:55.854Z</time></trkpt><trkpt lat="43.3573858" lon="11.6973034"><ele>285.0</ele><time>2026-04-26T14:03:56.854Z</time></trkpt><trkpt lat="43.3575749" lon="11.697247"><ele>283.0</ele><time>2026-04-26T14:03:57.854Z</time></trkpt><trkpt lat="43.3577593" lon="11.6972236"><ele>281.0</ele><time>2026-04-26T14:03:58.854Z</time></trkpt><trkpt lat="43.3579472" lon="11.6972025"><ele>279.0</ele><time>2026-04-26T14:03:59.854Z</time></trkpt><trkpt lat="43.3581262" lon="11.6971396"><ele>278.3333333333333</ele><time>2026-04-26T14:04:00.854Z</time></trkpt><trkpt lat="43.3583028" lon="11.6970589"><ele>277.66666666666663</ele><time>2026-04-26T14:04:01.854Z</time></trkpt><trkpt lat="43.3584718" lon="11.6969595"><ele>277.0</ele><time>2026-04-26T14:04:02.854Z</time></trkpt><trkpt lat="43.3586278" lon="11.6968068"><ele>277.66666666666663</ele><time>2026-04-26T14:04:03.854Z</time></trkpt><trkpt lat="43.3587818" lon="11.6966376"><ele>278.3333333333333</ele><time>2026-04-26T14:04:04.854Z</time></trkpt><trkpt lat="43.3589393" lon="11.6964699"><ele>279.0</ele><time>2026-04-26T14:04:05.853Z</time></trkpt><trkpt lat="43.3591044" lon="11.6962996"><ele>279.0</ele><time>2026-04-26T14:04:06.854Z</time></trkpt><trkpt lat="43.3592689" lon="11.696116"><ele>279.0</ele><time>2026-04-26T14:04:07.854Z</time></trkpt><trkpt lat="43.3594293" lon="11.6959443"><ele>279.0</ele><time>2026-04-26T14:04:08.854Z</time></trkpt><trkpt lat="43.359598" lon="11.6957641"><ele>278.6666666666667</ele><time>2026-04-26T14:04:09.853Z</time></trkpt><trkpt lat="43.3597624" lon="11.6955842"><ele>278.33333333333337</ele><time>2026-04-26T14:04:10.853Z</time></trkpt><trkpt lat="43.3599236" lon="11.6954122"><ele>278.0</ele><time>2026-04-26T14:04:11.853Z</time></trkpt><trkpt lat="43.3600861" lon="11.695233"><ele>278.0</ele><time>2026-04-26T14:04:12.853Z</time></trkpt><trkpt lat="43.3602508" lon="11.6950562"><ele>278.0</ele><time>2026-04-26T14:04:13.853Z</time></trkpt><trkpt lat="43.3604199" lon="11.6948734"><ele>278.0</ele><time>2026-04-26T14:04:14.854Z</time></trkpt><trkpt lat="43.3605875" lon="11.6946961"><ele>278.0</ele><time>2026-04-26T14:04:15.854Z</time></trkpt><trkpt lat="43.3607552" lon="11.6945176"><ele>278.0</ele><time>2026-04-26T14:04:16.853Z</time></trkpt><trkpt lat="43.3609242" lon="11.6943415"><ele>278.0</ele><time>2026-04-26T14:04:17.853Z</time></trkpt><trkpt lat="43.3610849" lon="11.6941701"><ele>278.6666666666667</ele><time>2026-04-26T14:04:18.853Z</time></trkpt><trkpt lat="43.3612358" lon="11.6940066"><ele>279.3333333333333</ele><time>2026-04-26T14:04:19.854Z</time></trkpt><trkpt lat="43.3613551" lon="11.6938245"><ele>280.0</ele><time>2026-04-26T14:04:20.853Z</time></trkpt><trkpt lat="43.3614561" lon="11.6936234"><ele>280.3333333333333</ele><time>2026-04-26T14:04:21.854Z</time></trkpt><trkpt lat="43.3615427" lon="11.6934044"><ele>280.6666666666667</ele><time>2026-04-26T14:04:22.854Z</time></trkpt><trkpt lat="43.3615926" lon="11.6931258"><ele>281.0</ele><time>2026-04-26T14:04:23.854Z</time></trkpt><trkpt lat="43.3616406" lon="11.6928592"><ele>281.6666666666667</ele><time>2026-04-26T14:04:24.854Z</time></trkpt><trkpt lat="43.3616776" lon="11.6925853"><ele>282.3333333333333</ele><time>2026-04-26T14:04:25.854Z</time></trkpt><trkpt lat="43.3617334" lon="11.6923179"><ele>283.0</ele><time>2026-04-26T14:04:26.854Z</time></trkpt><trkpt lat="43.3617895" lon="11.6920436"><ele>284.66666666666663</ele><time>2026-04-26T14:04:27.854Z</time></trkpt><trkpt lat="43.3618437" lon="11.6917662"><ele>286.3333333333333</ele><time>2026-04-26T14:04:28.853Z</time></trkpt><trkpt lat="43.3618973" lon="11.6914769"><ele>288.0</ele><time>2026-04-26T14:04:29.854Z</time></trkpt><trkpt lat="43.3619519" lon="11.6911964"><ele>289.6666666666667</ele><time>2026-04-26T14:04:30.854Z</time></trkpt><trkpt lat="43.3620102" lon="11.6909169"><ele>291.33333333333337</ele><time>2026-04-26T14:04:31.854Z</time></trkpt><trkpt lat="43.3620645" lon="11.6906554"><ele>293.0</ele><time>2026-04-26T14:04:32.853Z</time></trkpt><trkpt lat="43.3621154" lon="11.6904112"><ele>292.6666666666667</ele><time>2026-04-26T14:04:33.854Z</time></trkpt><trkpt lat="43.3621627" lon="11.6901943"><ele>292.3333333333333</ele><time>2026-04-26T14:04:34.854Z</time></trkpt><trkpt lat="43.3622051" lon="11.6899961"><ele>292.0</ele><time>2026-04-26T14:04:35.853Z</time></trkpt><trkpt lat="43.3622578" lon="11.6898095"><ele>291.0</ele><time>2026-04-26T14:04:36.854Z</time></trkpt><trkpt lat="43.3623308" lon="11.6896452"><ele>290.0</ele><time>2026-04-26T14:04:37.854Z</time></trkpt><trkpt lat="43.362433" lon="11.6895108"><ele>289.0</ele><time>2026-04-26T14:04:38.854Z</time></trkpt><trkpt lat="43.3625647" lon="11.6894027"><ele>288.0</ele><time>2026-04-26T14:04:39.853Z</time></trkpt><trkpt lat="43.362711" lon="11.6893464"><ele>288.0</ele><time>2026-04-26T14:04:40.854Z</time></trkpt><trkpt lat="43.362879" lon="11.6893535"><ele>288.0</ele><time>2026-04-26T14:04:41.853Z</time></trkpt><trkpt lat="43.3630397" lon="11.689403"><ele>288.0</ele><time>2026-04-26T14:04:42.854Z</time></trkpt><trkpt lat="43.363191" lon="11.6894621"><ele>288.3333333333333</ele><time>2026-04-26T14:04:43.854Z</time></trkpt><trkpt lat="43.363347" lon="11.6894544"><ele>288.66666666666663</ele><time>2026-04-26T14:04:44.854Z</time></trkpt><trkpt lat="43.3635067" lon="11.6893857"><ele>289.0</ele><time>2026-04-26T14:04:45.854Z</time></trkpt><trkpt lat="43.3636418" lon="11.6892737"><ele>289.0</ele><time>2026-04-26T14:04:46.853Z</time></trkpt><trkpt lat="43.3637559" lon="11.6891128"><ele>289.0</ele><time>2026-04-26T14:04:47.853Z</time></trkpt><trkpt lat="43.3638602" lon="11.6889225"><ele>289.0</ele><time>2026-04-26T14:04:48.854Z</time></trkpt><trkpt lat="43.3639581" lon="11.6887174"><ele>287.3333333333333</ele><time>2026-04-26T14:04:49.853Z</time></trkpt><trkpt lat="43.3640575" lon="11.6884953"><ele>285.6666666666667</ele><time>2026-04-26T14:04:50.854Z</time></trkpt><trkpt lat="43.3641683" lon="11.6882655"><ele>284.0</ele><time>2026-04-26T14:04:51.854Z</time></trkpt><trkpt lat="43.3642807" lon="11.6880367"><ele>284.0</ele><time>2026-04-26T14:04:52.853Z</time></trkpt><trkpt lat="43.3644079" lon="11.6878208"><ele>284.0</ele><time>2026-04-26T14:04:53.853Z</time></trkpt><trkpt lat="43.364561" lon="11.6876289"><ele>284.0</ele><time>2026-04-26T14:04:54.853Z</time></trkpt><trkpt lat="43.3647141" lon="11.6874358"><ele>284.0</ele><time>2026-04-26T14:04:55.854Z</time></trkpt><trkpt lat="43.3648685" lon="11.6872338"><ele>284.0</ele><time>2026-04-26T14:04:56.854Z</time></trkpt><trkpt lat="43.3650204" lon="11.6870394"><ele>284.0</ele><time>2026-04-26T14:04:57.854Z</time></trkpt><trkpt lat="43.3651889" lon="11.686854"><ele>283.6666666666667</ele><time>2026-04-26T14:04:58.853Z</time></trkpt><trkpt lat="43.3653722" lon="11.6866985"><ele>283.3333333333333</ele><time>2026-04-26T14:04:59.854Z</time></trkpt><trkpt lat="43.3655625" lon="11.6865594"><ele>283.0</ele><time>2026-04-26T14:05:00.854Z</time></trkpt><trkpt lat="43.3657542" lon="11.6864373"><ele>283.0</ele><time>2026-04-26T14:05:01.853Z</time></trkpt><trkpt lat="43.3659425" lon="11.6863141"><ele>283.0</ele><time>2026-04-26T14:05:02.854Z</time></trkpt><trkpt lat="43.3661275" lon="11.6861922"><ele>283.0</ele><time>2026-04-26T14:05:03.854Z</time></trkpt><trkpt lat="43.3663063" lon="11.6860703"><ele>284.0</ele><time>2026-04-26T14:05:04.854Z</time></trkpt><trkpt lat="43.3664739" lon="11.685944"><ele>285.0</ele><time>2026-04-26T14:05:05.854Z</time></trkpt><trkpt lat="43.3666273" lon="11.685807"><ele>286.0</ele><time>2026-04-26T14:05:06.854Z</time></trkpt><trkpt lat="43.3667613" lon="11.6856395"><ele>286.0</ele><time>2026-04-26T14:05:07.854Z</time></trkpt><trkpt lat="43.3668555" lon="11.6854329"><ele>286.0</ele><time>2026-04-26T14:05:08.853Z</time></trkpt><trkpt lat="43.3669062" lon="11.6852209"><ele>286.0</ele><time>2026-04-26T14:05:09.854Z</time></trkpt><trkpt lat="43.3669321" lon="11.685012"><ele>289.0</ele><time>2026-04-26T14:05:10.854Z</time></trkpt><trkpt lat="43.3669359" lon="11.6847975"><ele>292.0</ele><time>2026-04-26T14:05:11.854Z</time></trkpt><trkpt lat="43.3668943" lon="11.684587"><ele>295.0</ele><time>2026-04-26T14:05:12.854Z</time></trkpt><trkpt lat="43.3668196" lon="11.6843957"><ele>295.3333333333333</ele><time>2026-04-26T14:05:13.854Z</time></trkpt><trkpt lat="43.3667469" lon="11.6842021"><ele>295.6666666666667</ele><time>2026-04-26T14:05:14.854Z</time></trkpt><trkpt lat="43.3666663" lon="11.6840038"><ele>296.0</ele><time>2026-04-26T14:05:15.853Z</time></trkpt><trkpt lat="43.3665842" lon="11.6838067"><ele>294.0</ele><time>2026-04-26T14:05:16.854Z</time></trkpt><trkpt lat="43.3665099" lon="11.6835954"><ele>292.0</ele><time>2026-04-26T14:05:17.853Z</time></trkpt><trkpt lat="43.366448" lon="11.6833871"><ele>290.0</ele><time>2026-04-26T14:05:18.854Z</time></trkpt><trkpt lat="43.3663959" lon="11.6831781"><ele>289.6666666666667</ele><time>2026-04-26T14:05:19.853Z</time></trkpt><trkpt lat="43.3663612" lon="11.6829517"><ele>289.3333333333333</ele><time>2026-04-26T14:05:20.854Z</time></trkpt><trkpt lat="43.3663645" lon="11.6827375"><ele>289.0</ele><time>2026-04-26T14:05:21.854Z</time></trkpt><trkpt lat="43.3663926" lon="11.6825216"><ele>289.0</ele><time>2026-04-26T14:05:22.854Z</time></trkpt><trkpt lat="43.3664673" lon="11.6823192"><ele>289.0</ele><time>2026-04-26T14:05:23.853Z</time></trkpt><trkpt lat="43.36658" lon="11.6821408"><ele>289.0</ele><time>2026-04-26T14:05:24.853Z</time></trkpt><trkpt lat="43.3667026" lon="11.6819604"><ele>291.66666666666663</ele><time>2026-04-26T14:05:25.854Z</time></trkpt><trkpt lat="43.3668443" lon="11.6817967"><ele>294.3333333333333</ele><time>2026-04-26T14:05:26.854Z</time></trkpt><trkpt lat="43.3669949" lon="11.6816323"><ele>297.0</ele><time>2026-04-26T14:05:27.854Z</time></trkpt><trkpt lat="43.3671528" lon="11.6814573"><ele>297.6666666666667</ele><time>2026-04-26T14:05:28.854Z</time></trkpt><trkpt lat="43.3673054" lon="11.6812859"><ele>298.33333333333337</ele><time>2026-04-26T14:05:29.853Z</time></trkpt><trkpt lat="43.3674575" lon="11.6811234"><ele>299.0</ele><time>2026-04-26T14:05:30.854Z</time></trkpt><trkpt lat="43.3676107" lon="11.6809607"><ele>299.0</ele><time>2026-04-26T14:05:31.853Z</time></trkpt><trkpt lat="43.367756" lon="11.6807973"><ele>299.0</ele><time>2026-04-26T14:05:32.854Z</time></trkpt><trkpt lat="43.3678857" lon="11.6806188"><ele>299.0</ele><time>2026-04-26T14:05:33.854Z</time></trkpt><trkpt lat="43.3680055" lon="11.6804173"><ele>297.0</ele><time>2026-04-26T14:05:34.854Z</time></trkpt><trkpt lat="43.3681067" lon="11.6801996"><ele>295.0</ele><time>2026-04-26T14:05:35.854Z</time></trkpt><trkpt lat="43.368194" lon="11.6799655"><ele>293.0</ele><time>2026-04-26T14:05:36.853Z</time></trkpt><trkpt lat="43.3682631" lon="11.6797302"><ele>293.0</ele><time>2026-04-26T14:05:37.854Z</time></trkpt><trkpt lat="43.3683303" lon="11.6794896"><ele>293.0</ele><time>2026-04-26T14:05:38.853Z</time></trkpt><trkpt lat="43.3683953" lon="11.67925"><ele>293.0</ele><time>2026-04-26T14:05:39.853Z</time></trkpt><trkpt lat="43.368448" lon="11.6790086"><ele>295.0</ele><time>2026-04-26T14:05:40.854Z</time></trkpt><trkpt lat="43.3684748" lon="11.678753"><ele>297.0</ele><time>2026-04-26T14:05:41.854Z</time></trkpt><trkpt lat="43.3684601" lon="11.6784974"><ele>299.0</ele><time>2026-04-26T14:05:42.854Z</time></trkpt><trkpt lat="43.3684306" lon="11.678241"><ele>299.33333333333337</ele><time>2026-04-26T14:05:43.854Z</time></trkpt><trkpt lat="43.368405" lon="11.6779856"><ele>299.6666666666667</ele><time>2026-04-26T14:05:44.853Z</time></trkpt><trkpt lat="43.3683607" lon="11.677727"><ele>300.0</ele><time>2026-04-26T14:05:45.854Z</time></trkpt><trkpt lat="43.3683153" lon="11.6774629"><ele>300.0</ele><time>2026-04-26T14:05:46.854Z</time></trkpt><trkpt lat="43.3682792" lon="11.6772062"><ele>300.0</ele><time>2026-04-26T14:05:47.854Z</time></trkpt><trkpt lat="43.368243" lon="11.6769622"><ele>300.0</ele><time>2026-04-26T14:05:48.854Z</time></trkpt><trkpt lat="43.368221" lon="11.6767135"><ele>299.6666666666667</ele><time>2026-04-26T14:05:49.854Z</time></trkpt><trkpt lat="43.3682328" lon="11.6764693"><ele>299.33333333333337</ele><time>2026-04-26T14:05:50.854Z</time></trkpt><trkpt lat="43.368275" lon="11.6762326"><ele>299.0</ele><time>2026-04-26T14:05:51.854Z</time></trkpt><trkpt lat="43.3683455" lon="11.6760099"><ele>300.0</ele><time>2026-04-26T14:05:52.854Z</time></trkpt><trkpt lat="43.368413" lon="11.6758093"><ele>301.0</ele><time>2026-04-26T14:05:53.854Z</time></trkpt><trkpt lat="43.3685068" lon="11.6756156"><ele>302.0</ele><time>2026-04-26T14:05:54.854Z</time></trkpt><trkpt lat="43.3686099" lon="11.6754309"><ele>300.0</ele><time>2026-04-26T14:05:55.854Z</time></trkpt><trkpt lat="43.3687144" lon="11.6752375"><ele>298.0</ele><time>2026-04-26T14:05:56.854Z</time></trkpt><trkpt lat="43.3688329" lon="11.6750446"><ele>296.0</ele><time>2026-04-26T14:05:57.854Z</time></trkpt><trkpt lat="43.3689546" lon="11.6748539"><ele>296.0</ele><time>2026-04-26T14:05:58.853Z</time></trkpt><trkpt lat="43.3690735" lon="11.6746599"><ele>296.0</ele><time>2026-04-26T14:05:59.853Z</time></trkpt><trkpt lat="43.369191" lon="11.6744592"><ele>296.0</ele><time>2026-04-26T14:06:00.854Z</time></trkpt><trkpt lat="43.3693068" lon="11.674255"><ele>299.33333333333337</ele><time>2026-04-26T14:06:01.854Z</time></trkpt><trkpt lat="43.3694258" lon="11.6740561"><ele>302.6666666666667</ele><time>2026-04-26T14:06:02.853Z</time></trkpt><trkpt lat="43.3695418" lon="11.6738564"><ele>306.0</ele><time>2026-04-26T14:06:03.854Z</time></trkpt><trkpt lat="43.3696583" lon="11.673665"><ele>302.0</ele><time>2026-04-26T14:06:04.854Z</time></trkpt><trkpt lat="43.3697622" lon="11.6734838"><ele>298.0</ele><time>2026-04-26T14:06:05.854Z</time></trkpt><trkpt lat="43.369851" lon="11.6733142"><ele>294.0</ele><time>2026-04-26T14:06:06.854Z</time></trkpt><trkpt lat="43.3699313" lon="11.6731432"><ele>294.0</ele><time>2026-04-26T14:06:07.854Z</time></trkpt><trkpt lat="43.3699918" lon="11.6729497"><ele>294.0</ele><time>2026-04-26T14:06:08.853Z</time></trkpt><trkpt lat="43.370039" lon="11.6727464"><ele>294.0</ele><time>2026-04-26T14:06:09.853Z</time></trkpt><trkpt lat="43.3700705" lon="11.6725317"><ele>294.0</ele><time>2026-04-26T14:06:10.854Z</time></trkpt><trkpt lat="43.3700959" lon="11.6723082"><ele>294.0</ele><time>2026-04-26T14:06:11.854Z</time></trkpt><trkpt lat="43.3701226" lon="11.6720827"><ele>294.0</ele><time>2026-04-26T14:06:12.854Z</time></trkpt><trkpt lat="43.3701396" lon="11.671856"><ele>296.6666666666667</ele><time>2026-04-26T14:06:13.854Z</time></trkpt><trkpt lat="43.3701551" lon="11.6716272"><ele>299.33333333333337</ele><time>2026-04-26T14:06:14.854Z</time></trkpt><trkpt lat="43.3701593" lon="11.6713807"><ele>302.0</ele><time>2026-04-26T14:06:15.854Z</time></trkpt><trkpt lat="43.3701294" lon="11.6711533"><ele>302.0</ele><time>2026-04-26T14:06:16.854Z</time></trkpt><trkpt lat="43.3700761" lon="11.6709564"><ele>302.0</ele><time>2026-04-26T14:06:17.854Z</time></trkpt><trkpt lat="43.3699938" lon="11.6707524"><ele>302.0</ele><time>2026-04-26T14:06:18.853Z</time></trkpt><trkpt lat="43.3698807" lon="11.6705705"><ele>302.0</ele><time>2026-04-26T14:06:19.854Z</time></trkpt><trkpt lat="43.3697615" lon="11.6704059"><ele>302.0</ele><time>2026-04-26T14:06:20.854Z</time></trkpt><trkpt lat="43.369636" lon="11.6702568"><ele>302.0</ele><time>2026-04-26T14:06:21.854Z</time></trkpt><trkpt lat="43.3695053" lon="11.6701344"><ele>303.0</ele><time>2026-04-26T14:06:22.854Z</time></trkpt><trkpt lat="43.369361" lon="11.6700396"><ele>304.0</ele><time>2026-04-26T14:06:23.853Z</time></trkpt><trkpt lat="43.3692114" lon="11.6699541"><ele>305.0</ele><time>2026-04-26T14:06:24.854Z</time></trkpt><trkpt lat="43.3690636" lon="11.6698765"><ele>305.0</ele><time>2026-04-26T14:06:25.854Z</time></trkpt><trkpt lat="43.3689264" lon="11.6698063"><ele>305.0</ele><time>2026-04-26T14:06:26.853Z</time></trkpt><trkpt lat="43.3688115" lon="11.6697089"><ele>305.0</ele><time>2026-04-26T14:06:27.854Z</time></trkpt><trkpt lat="43.3687334" lon="11.6695893"><ele>305.0</ele><time>2026-04-26T14:06:28.854Z</time></trkpt><trkpt lat="43.3686909" lon="11.6694535"><ele>306.75</ele><time>2026-04-26T14:06:29.854Z</time></trkpt><trkpt lat="43.3686708" lon="11.6693036"><ele>308.5</ele><time>2026-04-26T14:06:30.854Z</time></trkpt><trkpt lat="43.3686611" lon="11.6691188"><ele>310.25</ele><time>2026-04-26T14:06:31.853Z</time></trkpt><trkpt lat="43.3686941" lon="11.6689423"><ele>312.0</ele><time>2026-04-26T14:06:32.854Z</time></trkpt><trkpt lat="43.3687488" lon="11.6687648"><ele>309.75</ele><time>2026-04-26T14:06:33.853Z</time></trkpt><trkpt lat="43.3688051" lon="11.668584"><ele>307.5</ele><time>2026-04-26T14:06:34.854Z</time></trkpt><trkpt lat="43.3688643" lon="11.6684003"><ele>305.25</ele><time>2026-04-26T14:06:35.853Z</time></trkpt><trkpt lat="43.3689194" lon="11.6682128"><ele>303.0</ele><time>2026-04-26T14:06:36.853Z</time></trkpt><trkpt lat="43.3689458" lon="11.6680171"><ele>303.0</ele><time>2026-04-26T14:06:37.854Z</time></trkpt><trkpt lat="43.3689617" lon="11.6678054"><ele>303.0</ele><time>2026-04-26T14:06:38.854Z</time></trkpt><trkpt lat="43.3689587" lon="11.6675813"><ele>303.0</ele><time>2026-04-26T14:06:39.854Z</time></trkpt><trkpt lat="43.3689429" lon="11.6673536"><ele>303.3333333333333</ele><time>2026-04-26T14:06:40.854Z</time></trkpt><trkpt lat="43.3689392" lon="11.6671152"><ele>303.66666666666663</ele><time>2026-04-26T14:06:41.854Z</time></trkpt><trkpt lat="43.3689536" lon="11.6668774"><ele>304.0</ele><time>2026-04-26T14:06:42.854Z</time></trkpt><trkpt lat="43.3689791" lon="11.6666376"><ele>304.66666666666663</ele><time>2026-04-26T14:06:43.853Z</time></trkpt><trkpt lat="43.3690191" lon="11.6663938"><ele>305.3333333333333</ele><time>2026-04-26T14:06:44.854Z</time></trkpt><trkpt lat="43.3690775" lon="11.6661638"><ele>306.0</ele><time>2026-04-26T14:06:45.853Z</time></trkpt><trkpt lat="43.3691577" lon="11.6659361"><ele>307.6666666666667</ele><time>2026-04-26T14:06:46.853Z</time></trkpt><trkpt lat="43.3692361" lon="11.6657095"><ele>309.33333333333337</ele><time>2026-04-26T14:06:47.853Z</time></trkpt><trkpt lat="43.3693159" lon="11.6654867"><ele>311.0</ele><time>2026-04-26T14:06:48.854Z</time></trkpt><trkpt lat="43.3693888" lon="11.6652536"><ele>316.0</ele><time>2026-04-26T14:06:49.854Z</time></trkpt><trkpt lat="43.3694621" lon="11.6650222"><ele>321.0</ele><time>2026-04-26T14:06:50.854Z</time></trkpt><trkpt lat="43.3695292" lon="11.6648049"><ele>326.0</ele><time>2026-04-26T14:06:51.854Z</time></trkpt><trkpt lat="43.3695794" lon="11.6645714"><ele>328.0</ele><time>2026-04-26T14:06:52.854Z</time></trkpt><trkpt lat="43.3696046" lon="11.6643333"><ele>330.0</ele><time>2026-04-26T14:06:53.853Z</time></trkpt><trkpt lat="43.3696027" lon="11.6640974"><ele>332.0</ele><time>2026-04-26T14:06:54.854Z</time></trkpt><trkpt lat="43.3695856" lon="11.6638601"><ele>332.0</ele><time>2026-04-26T14:06:55.854Z</time></trkpt><trkpt lat="43.3695562" lon="11.6636151"><ele>332.0</ele><time>2026-04-26T14:06:56.854Z</time></trkpt><trkpt lat="43.3695168" lon="11.6633577"><ele>332.0</ele><time>2026-04-26T14:06:57.854Z</time></trkpt><trkpt lat="43.369472" lon="11.6631079"><ele>332.0</ele><time>2026-04-26T14:06:58.854Z</time></trkpt><trkpt lat="43.3694244" lon="11.6628553"><ele>332.0</ele><time>2026-04-26T14:06:59.854Z</time></trkpt><trkpt lat="43.3693867" lon="11.6626079"><ele>332.0</ele><time>2026-04-26T14:07:00.854Z</time></trkpt><trkpt lat="43.3693582" lon="11.6623663"><ele>330.0</ele><time>2026-04-26T14:07:01.854Z</time></trkpt><trkpt lat="43.36934" lon="11.6621283"><ele>328.0</ele><time>2026-04-26T14:07:02.853Z</time></trkpt><trkpt lat="43.3693214" lon="11.6618872"><ele>326.0</ele><time>2026-04-26T14:07:03.854Z</time></trkpt><trkpt lat="43.3693136" lon="11.6616619"><ele>326.0</ele><time>2026-04-26T14:07:04.853Z</time></trkpt><trkpt lat="43.3693051" lon="11.6614363"><ele>326.0</ele><time>2026-04-26T14:07:05.854Z</time></trkpt><trkpt lat="43.3693099" lon="11.6612177"><ele>326.0</ele><time>2026-04-26T14:07:06.854Z</time></trkpt><trkpt lat="43.3693425" lon="11.6609999"><ele>329.33333333333337</ele><time>2026-04-26T14:07:07.854Z</time></trkpt><trkpt lat="43.3694031" lon="11.6607848"><ele>332.6666666666667</ele><time>2026-04-26T14:07:08.854Z</time></trkpt><trkpt lat="43.3694893" lon="11.6605827"><ele>336.0</ele><time>2026-04-26T14:07:09.854Z</time></trkpt><trkpt lat="43.3695787" lon="11.6603761"><ele>340.6666666666667</ele><time>2026-04-26T14:07:10.854Z</time></trkpt><trkpt lat="43.3696705" lon="11.6601654"><ele>345.33333333333337</ele><time>2026-04-26T14:07:11.854Z</time></trkpt><trkpt lat="43.3697658" lon="11.6599617"><ele>350.0</ele><time>2026-04-26T14:07:12.853Z</time></trkpt><trkpt lat="43.3698538" lon="11.659755"><ele>344.33333333333337</ele><time>2026-04-26T14:07:13.854Z</time></trkpt><trkpt lat="43.3699598" lon="11.6595723"><ele>338.6666666666667</ele><time>2026-04-26T14:07:14.853Z</time></trkpt><trkpt lat="43.3700972" lon="11.6594232"><ele>333.0</ele><time>2026-04-26T14:07:15.854Z</time></trkpt><trkpt lat="43.370249" lon="11.6592893"><ele>333.0</ele><time>2026-04-26T14:07:16.854Z</time></trkpt><trkpt lat="43.370397" lon="11.6591605"><ele>333.0</ele><time>2026-04-26T14:07:17.854Z</time></trkpt><trkpt lat="43.3705513" lon="11.6590268"><ele>333.0</ele><time>2026-04-26T14:07:18.854Z</time></trkpt><trkpt lat="43.370683" lon="11.6588671"><ele>333.0</ele><time>2026-04-26T14:07:19.854Z</time></trkpt><trkpt lat="43.3707878" lon="11.6586962"><ele>333.0</ele><time>2026-04-26T14:07:20.854Z</time></trkpt><trkpt lat="43.3708876" lon="11.6585424"><ele>333.0</ele><time>2026-04-26T14:07:21.854Z</time></trkpt><trkpt lat="43.3709909" lon="11.6584042"><ele>333.0</ele><time>2026-04-26T14:07:22.854Z</time></trkpt><trkpt lat="43.3711021" lon="11.6582836"><ele>333.0</ele><time>2026-04-26T14:07:23.854Z</time></trkpt><trkpt lat="43.3712116" lon="11.6581766"><ele>333.0</ele><time>2026-04-26T14:07:24.854Z</time></trkpt><trkpt lat="43.3713172" lon="11.6580885"><ele>333.0</ele><time>2026-04-26T14:07:25.854Z</time></trkpt><trkpt lat="43.3714193" lon="11.6580331"><ele>330.8333333333333</ele><time>2026-04-26T14:07:26.853Z</time></trkpt><trkpt lat="43.3715097" lon="11.6580421"><ele>328.6666666666667</ele><time>2026-04-26T14:07:27.854Z</time></trkpt><trkpt lat="43.3715885" lon="11.6580854"><ele>326.5</ele><time>2026-04-26T14:07:28.854Z</time></trkpt><trkpt lat="43.3716585" lon="11.6581199"><ele>324.33333333333337</ele><time>2026-04-26T14:07:29.854Z</time></trkpt><trkpt lat="43.3717559" lon="11.6581853"><ele>322.1666666666667</ele><time>2026-04-26T14:07:31.854Z</time></trkpt><trkpt lat="43.3718214" lon="11.6582104"><ele>320.0</ele><time>2026-04-26T14:07:33.854Z</time></trkpt><trkpt lat="43.3718837" lon="11.6581657"><ele>320.0</ele><time>2026-04-26T14:07:36.854Z</time></trkpt><trkpt lat="43.3719337" lon="11.6580808"><ele>320.0</ele><time>2026-04-26T14:07:39.854Z</time></trkpt><trkpt lat="43.3719801" lon="11.6580067"><ele>320.0</ele><time>2026-04-26T14:16:47.853Z</time></trkpt><trkpt lat="43.3719418" lon="11.6579363"><ele>320.0</ele><time>2026-04-26T14:16:53.854Z</time></trkpt><trkpt lat="43.3719268" lon="11.6580383"><ele>320.0</ele><time>2026-04-26T14:17:00.854Z</time></trkpt><trkpt lat="43.3718688" lon="11.6581182"><ele>320.0</ele><time>2026-04-26T14:17:19.853Z</time></trkpt><trkpt lat="43.3718594" lon="11.6582242"><ele>320.0</ele><time>2026-04-26T14:17:22.853Z</time></trkpt><trkpt lat="43.3719623" lon="11.6582981"><ele>320.0</ele><time>2026-04-26T14:17:24.854Z</time></trkpt><trkpt lat="43.3720298" lon="11.6583373"><ele>320.0</ele><time>2026-04-26T14:17:25.854Z</time></trkpt><trkpt lat="43.3721042" lon="11.6583754"><ele>320.0</ele><time>2026-04-26T14:17:26.854Z</time></trkpt><trkpt lat="43.3721963" lon="11.6584129"><ele>320.0</ele><time>2026-04-26T14:17:27.853Z</time></trkpt><trkpt lat="43.372299" lon="11.6584637"><ele>321.0</ele><time>2026-04-26T14:17:28.854Z</time></trkpt><trkpt lat="43.372403" lon="11.6585121"><ele>322.0</ele><time>2026-04-26T14:17:29.854Z</time></trkpt><trkpt lat="43.3725299" lon="11.6585599"><ele>323.0</ele><time>2026-04-26T14:17:30.853Z</time></trkpt><trkpt lat="43.3726545" lon="11.6585747"><ele>324.0</ele><time>2026-04-26T14:17:31.854Z</time></trkpt><trkpt lat="43.3727834" lon="11.6585376"><ele>324.0</ele><time>2026-04-26T14:17:32.854Z</time></trkpt><trkpt lat="43.3729057" lon="11.6584481"><ele>324.0</ele><time>2026-04-26T14:17:33.854Z</time></trkpt><trkpt lat="43.3730094" lon="11.6583178"><ele>324.0</ele><time>2026-04-26T14:17:34.854Z</time></trkpt><trkpt lat="43.3731117" lon="11.6581681"><ele>324.0</ele><time>2026-04-26T14:17:35.853Z</time></trkpt><trkpt lat="43.3732111" lon="11.6580125"><ele>324.6666666666667</ele><time>2026-04-26T14:17:36.854Z</time></trkpt><trkpt lat="43.373311" lon="11.6578577"><ele>325.33333333333337</ele><time>2026-04-26T14:17:37.854Z</time></trkpt><trkpt lat="43.3734227" lon="11.6577186"><ele>326.0</ele><time>2026-04-26T14:17:38.854Z</time></trkpt><trkpt lat="43.3735612" lon="11.6576008"><ele>326.33333333333337</ele><time>2026-04-26T14:17:39.854Z</time></trkpt><trkpt lat="43.3737104" lon="11.6575139"><ele>326.6666666666667</ele><time>2026-04-26T14:17:40.854Z</time></trkpt><trkpt lat="43.3738659" lon="11.6574133"><ele>327.0</ele><time>2026-04-26T14:17:41.854Z</time></trkpt><trkpt lat="43.374013" lon="11.6572875"><ele>327.0</ele><time>2026-04-26T14:17:42.854Z</time></trkpt><trkpt lat="43.3741546" lon="11.6571388"><ele>327.0</ele><time>2026-04-26T14:17:43.854Z</time></trkpt><trkpt lat="43.374308" lon="11.6570138"><ele>327.0</ele><time>2026-04-26T14:17:44.854Z</time></trkpt><trkpt lat="43.37449" lon="11.6569404"><ele>329.6666666666667</ele><time>2026-04-26T14:17:45.854Z</time></trkpt><trkpt lat="43.3746733" lon="11.6568926"><ele>332.33333333333337</ele><time>2026-04-26T14:17:46.854Z</time></trkpt><trkpt lat="43.374843" lon="11.6568284"><ele>335.0</ele><time>2026-04-26T14:17:47.854Z</time></trkpt><trkpt lat="43.3750091" lon="11.6567279"><ele>335.0</ele><time>2026-04-26T14:17:48.854Z</time></trkpt><trkpt lat="43.3751761" lon="11.6566066"><ele>335.0</ele><time>2026-04-26T14:17:49.853Z</time></trkpt><trkpt lat="43.3753334" lon="11.6564711"><ele>335.0</ele><time>2026-04-26T14:17:50.854Z</time></trkpt><trkpt lat="43.3754886" lon="11.6563246"><ele>333.6666666666667</ele><time>2026-04-26T14:17:51.853Z</time></trkpt><trkpt lat="43.375643" lon="11.6561662"><ele>332.3333333333333</ele><time>2026-04-26T14:17:52.853Z</time></trkpt><trkpt lat="43.3757883" lon="11.6560013"><ele>331.0</ele><time>2026-04-26T14:17:53.854Z</time></trkpt><trkpt lat="43.3759301" lon="11.6558173"><ele>334.0</ele><time>2026-04-26T14:17:54.853Z</time></trkpt><trkpt lat="43.3760844" lon="11.6556438"><ele>337.0</ele><time>2026-04-26T14:17:55.854Z</time></trkpt><trkpt lat="43.3762386" lon="11.6554762"><ele>340.0</ele><time>2026-04-26T14:17:56.854Z</time></trkpt><trkpt lat="43.3763909" lon="11.6553215"><ele>342.0</ele><time>2026-04-26T14:17:57.854Z</time></trkpt><trkpt lat="43.3765408" lon="11.6551643"><ele>344.0</ele><time>2026-04-26T14:17:58.854Z</time></trkpt><trkpt lat="43.3766931" lon="11.6550139"><ele>346.0</ele><time>2026-04-26T14:17:59.853Z</time></trkpt><trkpt lat="43.3768458" lon="11.6548578"><ele>346.0</ele><time>2026-04-26T14:18:00.854Z</time></trkpt><trkpt lat="43.3770003" lon="11.6547049"><ele>346.0</ele><time>2026-04-26T14:18:01.854Z</time></trkpt><trkpt lat="43.3771426" lon="11.6545472"><ele>346.0</ele><time>2026-04-26T14:18:02.854Z</time></trkpt><trkpt lat="43.3772662" lon="11.6543699"><ele>343.3333333333333</ele><time>2026-04-26T14:18:03.854Z</time></trkpt><trkpt lat="43.3773711" lon="11.6541783"><ele>340.6666666666667</ele><time>2026-04-26T14:18:04.853Z</time></trkpt><trkpt lat="43.377469" lon="11.6539991"><ele>338.0</ele><time>2026-04-26T14:18:05.854Z</time></trkpt><trkpt lat="43.3775899" lon="11.6538556"><ele>338.0</ele><time>2026-04-26T14:18:06.854Z</time></trkpt><trkpt lat="43.377717" lon="11.6537602"><ele>338.0</ele><time>2026-04-26T14:18:07.853Z</time></trkpt><trkpt lat="43.37786" lon="11.6536872"><ele>338.0</ele><time>2026-04-26T14:18:08.854Z</time></trkpt><trkpt lat="43.3780111" lon="11.6536616"><ele>336.33333333333337</ele><time>2026-04-26T14:18:09.854Z</time></trkpt><trkpt lat="43.3781747" lon="11.6536628"><ele>334.6666666666667</ele><time>2026-04-26T14:18:10.854Z</time></trkpt><trkpt lat="43.3783455" lon="11.6536929"><ele>333.0</ele><time>2026-04-26T14:18:11.853Z</time></trkpt><trkpt lat="43.3785216" lon="11.6537595"><ele>333.0</ele><time>2026-04-26T14:18:12.853Z</time></trkpt><trkpt lat="43.3786898" lon="11.6538521"><ele>333.0</ele><time>2026-04-26T14:18:13.854Z</time></trkpt><trkpt lat="43.3788663" lon="11.6539552"><ele>333.0</ele><time>2026-04-26T14:18:14.854Z</time></trkpt><trkpt lat="43.3790352" lon="11.6540804"><ele>335.0</ele><time>2026-04-26T14:18:15.854Z</time></trkpt><trkpt lat="43.3792047" lon="11.654216"><ele>337.0</ele><time>2026-04-26T14:18:16.854Z</time></trkpt><trkpt lat="43.3793742" lon="11.6543627"><ele>339.0</ele><time>2026-04-26T14:18:17.854Z</time></trkpt><trkpt lat="43.3795399" lon="11.6545167"><ele>343.0</ele><time>2026-04-26T14:18:18.854Z</time></trkpt><trkpt lat="43.3797079" lon="11.6546769"><ele>347.0</ele><time>2026-04-26T14:18:19.854Z</time></trkpt><trkpt lat="43.3798767" lon="11.6548375"><ele>351.0</ele><time>2026-04-26T14:18:20.854Z</time></trkpt><trkpt lat="43.380047" lon="11.6549955"><ele>351.0</ele><time>2026-04-26T14:18:21.853Z</time></trkpt><trkpt lat="43.3802129" lon="11.6551545"><ele>351.0</ele><time>2026-04-26T14:18:22.854Z</time></trkpt><trkpt lat="43.38037" lon="11.6553112"><ele>351.0</ele><time>2026-04-26T14:18:23.853Z</time></trkpt><trkpt lat="43.3805138" lon="11.6554648"><ele>351.0</ele><time>2026-04-26T14:18:24.854Z</time></trkpt><trkpt lat="43.3806478" lon="11.6556039"><ele>351.0</ele><time>2026-04-26T14:18:25.854Z</time></trkpt><trkpt lat="43.3807785" lon="11.6557189"><ele>351.0</ele><time>2026-04-26T14:18:26.854Z</time></trkpt><trkpt lat="43.3809239" lon="11.6557871"><ele>351.0</ele><time>2026-04-26T14:18:27.854Z</time></trkpt><trkpt lat="43.3810935" lon="11.6558204"><ele>351.0</ele><time>2026-04-26T14:18:28.854Z</time></trkpt><trkpt lat="43.3812665" lon="11.6558537"><ele>351.0</ele><time>2026-04-26T14:18:29.853Z</time></trkpt><trkpt lat="43.3814247" lon="11.6559058"><ele>356.3333333333333</ele><time>2026-04-26T14:18:30.854Z</time></trkpt><trkpt lat="43.3815761" lon="11.6559934"><ele>361.66666666666663</ele><time>2026-04-26T14:18:31.853Z</time></trkpt><trkpt lat="43.3817165" lon="11.6560683"><ele>367.0</ele><time>2026-04-26T14:18:32.854Z</time></trkpt><trkpt lat="43.381862" lon="11.6561151"><ele>367.0</ele><time>2026-04-26T14:18:33.854Z</time></trkpt><trkpt lat="43.382028" lon="11.6560951"><ele>367.0</ele><time>2026-04-26T14:18:34.853Z</time></trkpt><trkpt lat="43.3821946" lon="11.6560572"><ele>367.0</ele><time>2026-04-26T14:18:35.854Z</time></trkpt><trkpt lat="43.3823686" lon="11.6560241"><ele>367.3333333333333</ele><time>2026-04-26T14:18:36.854Z</time></trkpt><trkpt lat="43.3825443" lon="11.6559933"><ele>367.6666666666667</ele><time>2026-04-26T14:18:37.853Z</time></trkpt><trkpt lat="43.3827187" lon="11.6559687"><ele>368.0</ele><time>2026-04-26T14:18:38.853Z</time></trkpt><trkpt lat="43.3828819" lon="11.6559651"><ele>366.0</ele><time>2026-04-26T14:18:39.854Z</time></trkpt><trkpt lat="43.383032" lon="11.6559954"><ele>364.0</ele><time>2026-04-26T14:18:40.853Z</time></trkpt><trkpt lat="43.3831509" lon="11.6560411"><ele>362.0</ele><time>2026-04-26T14:18:41.853Z</time></trkpt><trkpt lat="43.3832552" lon="11.6560356"><ele>360.0</ele><time>2026-04-26T14:18:42.854Z</time></trkpt><trkpt lat="43.3833299" lon="11.6559662"><ele>360.0</ele><time>2026-04-26T14:18:43.854Z</time></trkpt><trkpt lat="43.3833714" lon="11.65583"><ele>360.0</ele><time>2026-04-26T14:18:44.854Z</time></trkpt><trkpt lat="43.3833733" lon="11.6556796"><ele>360.0</ele><time>2026-04-26T14:18:45.854Z</time></trkpt><trkpt lat="43.3833746" lon="11.6555196"><ele>360.0</ele><time>2026-04-26T14:18:46.854Z</time></trkpt><trkpt lat="43.3834424" lon="11.6553796"><ele>365.0</ele><time>2026-04-26T14:18:47.854Z</time></trkpt><trkpt lat="43.3835547" lon="11.6552586"><ele>370.0</ele><time>2026-04-26T14:18:48.853Z</time></trkpt><trkpt lat="43.3836862" lon="11.6551541"><ele>375.0</ele><time>2026-04-26T14:18:49.854Z</time></trkpt><trkpt lat="43.3838187" lon="11.6550328"><ele>373.25</ele><time>2026-04-26T14:18:50.853Z</time></trkpt><trkpt lat="43.3839421" lon="11.6549009"><ele>371.5</ele><time>2026-04-26T14:18:51.854Z</time></trkpt><trkpt lat="43.3840657" lon="11.6547807"><ele>369.75</ele><time>2026-04-26T14:18:52.854Z</time></trkpt><trkpt lat="43.3841775" lon="11.6546834"><ele>368.0</ele><time>2026-04-26T14:18:53.854Z</time></trkpt><trkpt lat="43.3842748" lon="11.6546441"><ele>368.0</ele><time>2026-04-26T14:18:54.854Z</time></trkpt><trkpt lat="43.3843768" lon="11.6546684"><ele>368.0</ele><time>2026-04-26T14:18:55.854Z</time></trkpt><trkpt lat="43.3844581" lon="11.6547494"><ele>368.0</ele><time>2026-04-26T14:18:56.854Z</time></trkpt><trkpt lat="43.3845235" lon="11.6548757"><ele>368.0</ele><time>2026-04-26T14:18:57.854Z</time></trkpt><trkpt lat="43.384589" lon="11.6550278"><ele>368.0</ele><time>2026-04-26T14:18:58.854Z</time></trkpt><trkpt lat="43.3846552" lon="11.6551887"><ele>369.75</ele><time>2026-04-26T14:18:59.854Z</time></trkpt><trkpt lat="43.3847283" lon="11.6553599"><ele>371.5</ele><time>2026-04-26T14:19:00.854Z</time></trkpt><trkpt lat="43.384813" lon="11.6555265"><ele>373.25</ele><time>2026-04-26T14:19:01.853Z</time></trkpt><trkpt lat="43.3848979" lon="11.6556889"><ele>375.0</ele><time>2026-04-26T14:19:02.854Z</time></trkpt><trkpt lat="43.3849989" lon="11.6558264"><ele>375.0</ele><time>2026-04-26T14:19:03.854Z</time></trkpt><trkpt lat="43.3851284" lon="11.6559116"><ele>375.0</ele><time>2026-04-26T14:19:04.854Z</time></trkpt><trkpt lat="43.3852819" lon="11.6559434"><ele>375.0</ele><time>2026-04-26T14:19:05.854Z</time></trkpt><trkpt lat="43.3854556" lon="11.6559401"><ele>378.0</ele><time>2026-04-26T14:19:06.854Z</time></trkpt><trkpt lat="43.3856264" lon="11.6559459"><ele>381.0</ele><time>2026-04-26T14:19:07.854Z</time></trkpt><trkpt lat="43.3858119" lon="11.6559524"><ele>384.0</ele><time>2026-04-26T14:19:08.854Z</time></trkpt><trkpt lat="43.385991" lon="11.6559694"><ele>384.0</ele><time>2026-04-26T14:19:09.853Z</time></trkpt><trkpt lat="43.3861707" lon="11.6559807"><ele>384.0</ele><time>2026-04-26T14:19:10.854Z</time></trkpt><trkpt lat="43.3863383" lon="11.6559776"><ele>384.0</ele><time>2026-04-26T14:19:11.854Z</time></trkpt><trkpt lat="43.3865025" lon="11.6559396"><ele>386.0</ele><time>2026-04-26T14:19:12.853Z</time></trkpt><trkpt lat="43.3866596" lon="11.655878"><ele>388.0</ele><time>2026-04-26T14:19:13.854Z</time></trkpt><trkpt lat="43.3868046" lon="11.6558577"><ele>390.0</ele><time>2026-04-26T14:19:14.853Z</time></trkpt><trkpt lat="43.386942" lon="11.6559011"><ele>390.0</ele><time>2026-04-26T14:19:15.853Z</time></trkpt><trkpt lat="43.3870855" lon="11.6559984"><ele>390.0</ele><time>2026-04-26T14:19:16.854Z</time></trkpt><trkpt lat="43.3872293" lon="11.6560913"><ele>390.0</ele><time>2026-04-26T14:19:17.854Z</time></trkpt><trkpt lat="43.3873738" lon="11.6561802"><ele>388.25</ele><time>2026-04-26T14:19:18.854Z</time></trkpt><trkpt lat="43.3875098" lon="11.6562465"><ele>386.5</ele><time>2026-04-26T14:19:19.854Z</time></trkpt><trkpt lat="43.3876505" lon="11.6562641"><ele>384.75</ele><time>2026-04-26T14:19:20.854Z</time></trkpt><trkpt lat="43.3878002" lon="11.6562303"><ele>383.0</ele><time>2026-04-26T14:19:21.854Z</time></trkpt><trkpt lat="43.3879498" lon="11.6561729"><ele>387.33333333333337</ele><time>2026-04-26T14:19:22.854Z</time></trkpt><trkpt lat="43.3880885" lon="11.6560911"><ele>391.6666666666667</ele><time>2026-04-26T14:19:23.854Z</time></trkpt><trkpt lat="43.388212" lon="11.6559681"><ele>396.0</ele><time>2026-04-26T14:19:24.854Z</time></trkpt><trkpt lat="43.3883163" lon="11.6558217"><ele>396.0</ele><time>2026-04-26T14:19:25.854Z</time></trkpt><trkpt lat="43.3883948" lon="11.6556374"><ele>396.0</ele><time>2026-04-26T14:19:26.854Z</time></trkpt><trkpt lat="43.3884516" lon="11.6554487"><ele>396.0</ele><time>2026-04-26T14:19:27.854Z</time></trkpt><trkpt lat="43.3884961" lon="11.6552832"><ele>396.0</ele><time>2026-04-26T14:19:28.854Z</time></trkpt><trkpt lat="43.388555" lon="11.6551545"><ele>396.4</ele><time>2026-04-26T14:19:29.854Z</time></trkpt><trkpt lat="43.3886258" lon="11.6550531"><ele>396.8</ele><time>2026-04-26T14:19:30.854Z</time></trkpt><trkpt lat="43.3887024" lon="11.6550114"><ele>397.2</ele><time>2026-04-26T14:19:31.853Z</time></trkpt><trkpt lat="43.3887745" lon="11.6550461"><ele>397.59999999999997</ele><time>2026-04-26T14:19:32.854Z</time></trkpt><trkpt lat="43.3888289" lon="11.6551333"><ele>398.0</ele><time>2026-04-26T14:19:33.854Z</time></trkpt><trkpt lat="43.3888669" lon="11.6552884"><ele>398.0</ele><time>2026-04-26T14:19:34.854Z</time></trkpt><trkpt lat="43.3889015" lon="11.6554425"><ele>398.0</ele><time>2026-04-26T14:19:35.853Z</time></trkpt><trkpt lat="43.3889687" lon="11.6555694"><ele>398.0</ele><time>2026-04-26T14:19:36.854Z</time></trkpt><trkpt lat="43.3890645" lon="11.6556541"><ele>398.0</ele><time>2026-04-26T14:19:37.854Z</time></trkpt><trkpt lat="43.3891944" lon="11.6556794"><ele>398.0</ele><time>2026-04-26T14:19:38.854Z</time></trkpt><trkpt lat="43.3893229" lon="11.6556468"><ele>398.0</ele><time>2026-04-26T14:19:39.853Z</time></trkpt><trkpt lat="43.3894687" lon="11.6555928"><ele>398.0</ele><time>2026-04-26T14:19:40.854Z</time></trkpt><trkpt lat="43.3896195" lon="11.655515"><ele>398.0</ele><time>2026-04-26T14:19:41.853Z</time></trkpt><trkpt lat="43.3897757" lon="11.6554073"><ele>402.66666666666663</ele><time>2026-04-26T14:19:42.854Z</time></trkpt><trkpt lat="43.3899279" lon="11.6552731"><ele>407.33333333333337</ele><time>2026-04-26T14:19:43.853Z</time></trkpt><trkpt lat="43.3900806" lon="11.6551408"><ele>412.0</ele><time>2026-04-26T14:19:44.854Z</time></trkpt><trkpt lat="43.3902315" lon="11.6550154"><ele>412.0</ele><time>2026-04-26T14:19:45.853Z</time></trkpt><trkpt lat="43.3903842" lon="11.6549112"><ele>412.0</ele><time>2026-04-26T14:19:46.853Z</time></trkpt><trkpt lat="43.3905462" lon="11.6548484"><ele>412.0</ele><time>2026-04-26T14:19:47.854Z</time></trkpt><trkpt lat="43.3907258" lon="11.654852"><ele>411.6666666666667</ele><time>2026-04-26T14:19:48.853Z</time></trkpt><trkpt lat="43.3909052" lon="11.6548879"><ele>411.33333333333337</ele><time>2026-04-26T14:19:49.854Z</time></trkpt><trkpt lat="43.3910854" lon="11.6549237"><ele>411.0</ele><time>2026-04-26T14:19:50.854Z</time></trkpt><trkpt lat="43.3912732" lon="11.6549311"><ele>412.66666666666663</ele><time>2026-04-26T14:19:51.854Z</time></trkpt><trkpt lat="43.3914702" lon="11.654921"><ele>414.3333333333333</ele><time>2026-04-26T14:19:52.854Z</time></trkpt><trkpt lat="43.3916741" lon="11.654899"><ele>416.0</ele><time>2026-04-26T14:19:53.854Z</time></trkpt><trkpt lat="43.3918709" lon="11.654878"><ele>416.0</ele><time>2026-04-26T14:19:54.854Z</time></trkpt><trkpt lat="43.3920589" lon="11.6548712"><ele>416.0</ele><time>2026-04-26T14:19:55.854Z</time></trkpt><trkpt lat="43.3922324" lon="11.654889"><ele>416.0</ele><time>2026-04-26T14:19:56.854Z</time></trkpt><trkpt lat="43.3924039" lon="11.6549442"><ele>415.3333333333333</ele><time>2026-04-26T14:19:57.854Z</time></trkpt><trkpt lat="43.3925655" lon="11.6550499"><ele>414.66666666666663</ele><time>2026-04-26T14:19:58.854Z</time></trkpt><trkpt lat="43.392719" lon="11.6552001"><ele>414.0</ele><time>2026-04-26T14:19:59.854Z</time></trkpt><trkpt lat="43.3928646" lon="11.6553453"><ele>414.0</ele><time>2026-04-26T14:20:00.854Z</time></trkpt><trkpt lat="43.3929998" lon="11.6554849"><ele>414.0</ele><time>2026-04-26T14:20:01.854Z</time></trkpt><trkpt lat="43.3931123" lon="11.6556122"><ele>414.0</ele><time>2026-04-26T14:20:02.854Z</time></trkpt><trkpt lat="43.3932299" lon="11.655685"><ele>414.0</ele><time>2026-04-26T14:20:03.853Z</time></trkpt><trkpt lat="43.3933586" lon="11.6557031"><ele>417.0</ele><time>2026-04-26T14:20:04.854Z</time></trkpt><trkpt lat="43.3934972" lon="11.6556366"><ele>420.0</ele><time>2026-04-26T14:20:05.854Z</time></trkpt><trkpt lat="43.3936168" lon="11.6555154"><ele>423.0</ele><time>2026-04-26T14:20:06.854Z</time></trkpt><trkpt lat="43.3937348" lon="11.6553541"><ele>423.66666666666663</ele><time>2026-04-26T14:20:07.854Z</time></trkpt><trkpt lat="43.3938523" lon="11.6551873"><ele>424.3333333333333</ele><time>2026-04-26T14:20:08.853Z</time></trkpt><trkpt lat="43.3939649" lon="11.6550009"><ele>425.0</ele><time>2026-04-26T14:20:09.854Z</time></trkpt><trkpt lat="43.3940516" lon="11.6547852"><ele>425.0</ele><time>2026-04-26T14:20:10.853Z</time></trkpt><trkpt lat="43.3941026" lon="11.6545452"><ele>425.0</ele><time>2026-04-26T14:20:11.854Z</time></trkpt><trkpt lat="43.3941328" lon="11.6542871"><ele>425.0</ele><time>2026-04-26T14:20:12.853Z</time></trkpt><trkpt lat="43.3941454" lon="11.6540201"><ele>429.0</ele><time>2026-04-26T14:20:13.854Z</time></trkpt><trkpt lat="43.3941554" lon="11.6537621"><ele>433.0</ele><time>2026-04-26T14:20:14.854Z</time></trkpt><trkpt lat="43.3941625" lon="11.6535292"><ele>437.0</ele><time>2026-04-26T14:20:15.854Z</time></trkpt><trkpt lat="43.3941991" lon="11.6533372"><ele>438.0</ele><time>2026-04-26T14:20:16.853Z</time></trkpt><trkpt lat="43.3942725" lon="11.6531524"><ele>439.0</ele><time>2026-04-26T14:20:17.854Z</time></trkpt><trkpt lat="43.3943848" lon="11.6530041"><ele>440.0</ele><time>2026-04-26T14:20:18.854Z</time></trkpt><trkpt lat="43.3945062" lon="11.6528968"><ele>440.75</ele><time>2026-04-26T14:20:19.854Z</time></trkpt><trkpt lat="43.3946117" lon="11.6527665"><ele>441.5</ele><time>2026-04-26T14:20:20.854Z</time></trkpt><trkpt lat="43.394642" lon="11.6525696"><ele>442.25</ele><time>2026-04-26T14:20:21.854Z</time></trkpt><trkpt lat="43.3946583" lon="11.6523537"><ele>443.0</ele><time>2026-04-26T14:20:22.854Z</time></trkpt><trkpt lat="43.3946902" lon="11.6521439"><ele>443.0</ele><time>2026-04-26T14:20:23.853Z</time></trkpt><trkpt lat="43.3947742" lon="11.6519585"><ele>443.0</ele><time>2026-04-26T14:20:24.854Z</time></trkpt><trkpt lat="43.3948837" lon="11.6518568"><ele>443.0</ele><time>2026-04-26T14:20:25.854Z</time></trkpt><trkpt lat="43.3950263" lon="11.651867"><ele>443.0</ele><time>2026-04-26T14:20:26.854Z</time></trkpt><trkpt lat="43.3951586" lon="11.6519191"><ele>443.0</ele><time>2026-04-26T14:20:27.854Z</time></trkpt><trkpt lat="43.3952996" lon="11.6520098"><ele>443.0</ele><time>2026-04-26T14:20:28.853Z</time></trkpt><trkpt lat="43.3954586" lon="11.6521091"><ele>443.0</ele><time>2026-04-26T14:20:29.853Z</time></trkpt><trkpt lat="43.3956207" lon="11.6522262"><ele>444.66666666666663</ele><time>2026-04-26T14:20:30.854Z</time></trkpt><trkpt lat="43.3957777" lon="11.6523735"><ele>446.33333333333337</ele><time>2026-04-26T14:20:31.854Z</time></trkpt><trkpt lat="43.3959095" lon="11.6525425"><ele>448.0</ele><time>2026-04-26T14:20:32.853Z</time></trkpt><trkpt lat="43.3960267" lon="11.6527109"><ele>448.33333333333337</ele><time>2026-04-26T14:20:33.854Z</time></trkpt><trkpt lat="43.3961585" lon="11.6528459"><ele>448.66666666666663</ele><time>2026-04-26T14:20:34.853Z</time></trkpt><trkpt lat="43.3963099" lon="11.6528933"><ele>449.0</ele><time>2026-04-26T14:20:35.853Z</time></trkpt><trkpt lat="43.3964818" lon="11.6528976"><ele>449.0</ele><time>2026-04-26T14:20:36.853Z</time></trkpt><trkpt lat="43.39667" lon="11.6528901"><ele>449.0</ele><time>2026-04-26T14:20:37.854Z</time></trkpt><trkpt lat="43.3968494" lon="11.6528815"><ele>449.0</ele><time>2026-04-26T14:20:38.853Z</time></trkpt><trkpt lat="43.3970373" lon="11.6528724"><ele>451.0</ele><time>2026-04-26T14:20:39.853Z</time></trkpt><trkpt lat="43.397231" lon="11.6528676"><ele>453.0</ele><time>2026-04-26T14:20:40.853Z</time></trkpt><trkpt lat="43.3974125" lon="11.6528841"><ele>455.0</ele><time>2026-04-26T14:20:41.853Z</time></trkpt><trkpt lat="43.3975848" lon="11.6529391"><ele>455.0</ele><time>2026-04-26T14:20:42.853Z</time></trkpt><trkpt lat="43.3977527" lon="11.6530333"><ele>455.0</ele><time>2026-04-26T14:20:43.853Z</time></trkpt><trkpt lat="43.397889" lon="11.6531856"><ele>455.0</ele><time>2026-04-26T14:20:44.853Z</time></trkpt><trkpt lat="43.397991" lon="11.6533571"><ele>454.75</ele><time>2026-04-26T14:20:45.853Z</time></trkpt><trkpt lat="43.3980835" lon="11.6535098"><ele>454.5</ele><time>2026-04-26T14:20:46.853Z</time></trkpt><trkpt lat="43.3981875" lon="11.6535995"><ele>454.25</ele><time>2026-04-26T14:20:47.853Z</time></trkpt><trkpt lat="43.3983261" lon="11.653647"><ele>454.0</ele><time>2026-04-26T14:20:48.853Z</time></trkpt><trkpt lat="43.398469" lon="11.6536517"><ele>458.0</ele><time>2026-04-26T14:20:49.853Z</time></trkpt><trkpt lat="43.3986383" lon="11.6535991"><ele>462.0</ele><time>2026-04-26T14:20:50.853Z</time></trkpt><trkpt lat="43.3988129" lon="11.6535505"><ele>466.0</ele><time>2026-04-26T14:20:51.853Z</time></trkpt><trkpt lat="43.3989949" lon="11.6535114"><ele>468.0</ele><time>2026-04-26T14:20:52.853Z</time></trkpt><trkpt lat="43.3991753" lon="11.6535037"><ele>470.0</ele><time>2026-04-26T14:20:53.853Z</time></trkpt><trkpt lat="43.3993484" lon="11.6535363"><ele>472.0</ele><time>2026-04-26T14:20:54.853Z</time></trkpt><trkpt lat="43.3995142" lon="11.6536198"><ele>470.25</ele><time>2026-04-26T14:20:55.853Z</time></trkpt><trkpt lat="43.3996544" lon="11.6537237"><ele>468.5</ele><time>2026-04-26T14:20:56.852Z</time></trkpt><trkpt lat="43.3997786" lon="11.6538253"><ele>466.75</ele><time>2026-04-26T14:20:57.853Z</time></trkpt><trkpt lat="43.3999012" lon="11.6538845"><ele>465.0</ele><time>2026-04-26T14:20:58.853Z</time></trkpt><trkpt lat="43.4000097" lon="11.6539003"><ele>465.0</ele><time>2026-04-26T14:20:59.853Z</time></trkpt><trkpt lat="43.4001145" lon="11.6538252"><ele>465.0</ele><time>2026-04-26T14:21:00.853Z</time></trkpt><trkpt lat="43.4001723" lon="11.6537054"><ele>465.0</ele><time>2026-04-26T14:21:01.853Z</time></trkpt><trkpt lat="43.4002048" lon="11.6535331"><ele>465.0</ele><time>2026-04-26T14:21:02.853Z</time></trkpt><trkpt lat="43.4002172" lon="11.6533373"><ele>463.25</ele><time>2026-04-26T14:21:03.853Z</time></trkpt><trkpt lat="43.4002511" lon="11.6531587"><ele>461.5</ele><time>2026-04-26T14:21:04.853Z</time></trkpt><trkpt lat="43.4003138" lon="11.6529985"><ele>459.75</ele><time>2026-04-26T14:21:05.852Z</time></trkpt><trkpt lat="43.4004158" lon="11.65287"><ele>458.0</ele><time>2026-04-26T14:21:06.853Z</time></trkpt><trkpt lat="43.4005413" lon="11.6527897"><ele>460.3333333333333</ele><time>2026-04-26T14:21:07.853Z</time></trkpt><trkpt lat="43.400698" lon="11.6527628"><ele>462.66666666666663</ele><time>2026-04-26T14:21:08.853Z</time></trkpt><trkpt lat="43.4008611" lon="11.6527515"><ele>465.0</ele><time>2026-04-26T14:21:09.853Z</time></trkpt><trkpt lat="43.4010395" lon="11.6527374"><ele>465.0</ele><time>2026-04-26T14:21:10.853Z</time></trkpt><trkpt lat="43.4012148" lon="11.6527089"><ele>465.0</ele><time>2026-04-26T14:21:11.853Z</time></trkpt><trkpt lat="43.4013809" lon="11.6526801"><ele>465.0</ele><time>2026-04-26T14:21:12.852Z</time></trkpt><trkpt lat="43.4015391" lon="11.6526546"><ele>465.33333333333337</ele><time>2026-04-26T14:21:13.853Z</time></trkpt><trkpt lat="43.4016866" lon="11.6526315"><ele>465.6666666666667</ele><time>2026-04-26T14:21:14.852Z</time></trkpt><trkpt lat="43.401834" lon="11.652608"><ele>466.0</ele><time>2026-04-26T14:21:15.853Z</time></trkpt><trkpt lat="43.4019868" lon="11.652572"><ele>466.0</ele><time>2026-04-26T14:21:16.852Z</time></trkpt><trkpt lat="43.4021318" lon="11.6525123"><ele>466.0</ele><time>2026-04-26T14:21:17.853Z</time></trkpt><trkpt lat="43.4022796" lon="11.6524308"><ele>466.0</ele><time>2026-04-26T14:21:18.853Z</time></trkpt><trkpt lat="43.4024245" lon="11.6523443"><ele>466.33333333333337</ele><time>2026-04-26T14:21:19.853Z</time></trkpt><trkpt lat="43.4025658" lon="11.6522583"><ele>466.66666666666663</ele><time>2026-04-26T14:21:20.853Z</time></trkpt><trkpt lat="43.4027069" lon="11.6521745"><ele>467.0</ele><time>2026-04-26T14:21:21.852Z</time></trkpt><trkpt lat="43.4028478" lon="11.6520897"><ele>467.0</ele><time>2026-04-26T14:21:22.853Z</time></trkpt><trkpt lat="43.4029893" lon="11.6519968"><ele>467.0</ele><time>2026-04-26T14:21:23.853Z</time></trkpt><trkpt lat="43.4031397" lon="11.6519133"><ele>467.0</ele><time>2026-04-26T14:21:24.852Z</time></trkpt><trkpt lat="43.4033049" lon="11.6518424"><ele>467.3333333333333</ele><time>2026-04-26T14:21:25.853Z</time></trkpt><trkpt lat="43.4034762" lon="11.6517703"><ele>467.66666666666663</ele><time>2026-04-26T14:21:26.853Z</time></trkpt><trkpt lat="43.4036598" lon="11.6516791"><ele>468.0</ele><time>2026-04-26T14:21:27.853Z</time></trkpt><trkpt lat="43.4038435" lon="11.6516017"><ele>468.66666666666663</ele><time>2026-04-26T14:21:28.853Z</time></trkpt><trkpt lat="43.4040249" lon="11.6515189"><ele>469.3333333333333</ele><time>2026-04-26T14:21:29.853Z</time></trkpt><trkpt lat="43.4042114" lon="11.65143"><ele>470.0</ele><time>2026-04-26T14:21:30.853Z</time></trkpt><trkpt lat="43.4043855" lon="11.6513201"><ele>470.0</ele><time>2026-04-26T14:21:31.853Z</time></trkpt><trkpt lat="43.404552" lon="11.6511853"><ele>470.0</ele><time>2026-04-26T14:21:32.852Z</time></trkpt><trkpt lat="43.4047101" lon="11.6510296"><ele>470.0</ele><time>2026-04-26T14:21:33.853Z</time></trkpt><trkpt lat="43.4048656" lon="11.6508872"><ele>467.3333333333333</ele><time>2026-04-26T14:21:34.853Z</time></trkpt><trkpt lat="43.4050209" lon="11.6507596"><ele>464.66666666666663</ele><time>2026-04-26T14:21:35.853Z</time></trkpt><trkpt lat="43.4051855" lon="11.6506596"><ele>462.0</ele><time>2026-04-26T14:21:36.853Z</time></trkpt><trkpt lat="43.4053633" lon="11.650574"><ele>462.66666666666663</ele><time>2026-04-26T14:21:37.853Z</time></trkpt><trkpt lat="43.4055386" lon="11.6505045"><ele>463.3333333333333</ele><time>2026-04-26T14:21:38.853Z</time></trkpt><trkpt lat="43.4057149" lon="11.650439"><ele>464.0</ele><time>2026-04-26T14:21:39.853Z</time></trkpt><trkpt lat="43.4058844" lon="11.6503747"><ele>464.0</ele><time>2026-04-26T14:21:40.853Z</time></trkpt><trkpt lat="43.4060464" lon="11.6503137"><ele>464.0</ele><time>2026-04-26T14:21:41.853Z</time></trkpt><trkpt lat="43.4062089" lon="11.6502705"><ele>464.0</ele><time>2026-04-26T14:21:42.852Z</time></trkpt><trkpt lat="43.4063666" lon="11.6502756"><ele>461.0</ele><time>2026-04-26T14:21:43.852Z</time></trkpt><trkpt lat="43.4065327" lon="11.6503237"><ele>458.0</ele><time>2026-04-26T14:21:44.853Z</time></trkpt><trkpt lat="43.4066992" lon="11.6503842"><ele>455.0</ele><time>2026-04-26T14:21:45.853Z</time></trkpt><trkpt lat="43.4068564" lon="11.6504505"><ele>455.0</ele><time>2026-04-26T14:21:46.853Z</time></trkpt><trkpt lat="43.4070089" lon="11.6505031"><ele>455.0</ele><time>2026-04-26T14:21:47.852Z</time></trkpt><trkpt lat="43.4071719" lon="11.6505066"><ele>455.0</ele><time>2026-04-26T14:21:48.852Z</time></trkpt><trkpt lat="43.4073281" lon="11.6504546"><ele>453.0</ele><time>2026-04-26T14:21:49.853Z</time></trkpt><trkpt lat="43.4074852" lon="11.6503499"><ele>451.0</ele><time>2026-04-26T14:21:50.852Z</time></trkpt><trkpt lat="43.4076308" lon="11.6502228"><ele>449.0</ele><time>2026-04-26T14:21:51.853Z</time></trkpt><trkpt lat="43.4077646" lon="11.650106"><ele>445.5</ele><time>2026-04-26T14:21:52.853Z</time></trkpt><trkpt lat="43.4078926" lon="11.6500075"><ele>442.0</ele><time>2026-04-26T14:21:53.853Z</time></trkpt><trkpt lat="43.4080231" lon="11.6499254"><ele>438.5</ele><time>2026-04-26T14:21:54.853Z</time></trkpt><trkpt lat="43.408147" lon="11.6499061"><ele>435.0</ele><time>2026-04-26T14:21:55.852Z</time></trkpt><trkpt lat="43.4082752" lon="11.649944"><ele>435.0</ele><time>2026-04-26T14:21:56.853Z</time></trkpt><trkpt lat="43.4084084" lon="11.6499981"><ele>435.0</ele><time>2026-04-26T14:21:57.853Z</time></trkpt><trkpt lat="43.4085473" lon="11.650061"><ele>435.0</ele><time>2026-04-26T14:21:58.853Z</time></trkpt><trkpt lat="43.4086852" lon="11.6501472"><ele>435.0</ele><time>2026-04-26T14:21:59.853Z</time></trkpt><trkpt lat="43.4088407" lon="11.6502228"><ele>436.25</ele><time>2026-04-26T14:22:00.853Z</time></trkpt><trkpt lat="43.4089707" lon="11.6502986"><ele>437.5</ele><time>2026-04-26T14:22:01.853Z</time></trkpt><trkpt lat="43.4090816" lon="11.6503396"><ele>438.75</ele><time>2026-04-26T14:22:02.853Z</time></trkpt><trkpt lat="43.4092113" lon="11.6503232"><ele>440.0</ele><time>2026-04-26T14:22:03.852Z</time></trkpt><trkpt lat="43.4093139" lon="11.650224"><ele>437.0</ele><time>2026-04-26T14:22:04.852Z</time></trkpt><trkpt lat="43.4093959" lon="11.6500658"><ele>434.0</ele><time>2026-04-26T14:22:05.853Z</time></trkpt><trkpt lat="43.409431" lon="11.649869"><ele>431.0</ele><time>2026-04-26T14:22:06.853Z</time></trkpt><trkpt lat="43.4094648" lon="11.6496548"><ele>428.0</ele><time>2026-04-26T14:22:07.853Z</time></trkpt><trkpt lat="43.4094917" lon="11.6494255"><ele>424.75</ele><time>2026-04-26T14:22:08.853Z</time></trkpt><trkpt lat="43.4095032" lon="11.6492109"><ele>421.5</ele><time>2026-04-26T14:22:09.853Z</time></trkpt><trkpt lat="43.4095208" lon="11.6490097"><ele>418.25</ele><time>2026-04-26T14:22:10.853Z</time></trkpt><trkpt lat="43.4095689" lon="11.6488283"><ele>415.0</ele><time>2026-04-26T14:22:11.853Z</time></trkpt><trkpt lat="43.409648" lon="11.6486737"><ele>414.0</ele><time>2026-04-26T14:22:12.853Z</time></trkpt><trkpt lat="43.4097743" lon="11.6485634"><ele>413.0</ele><time>2026-04-26T14:22:13.853Z</time></trkpt><trkpt lat="43.4099362" lon="11.6484945"><ele>412.0</ele><time>2026-04-26T14:22:14.853Z</time></trkpt><trkpt lat="43.4101075" lon="11.6484296"><ele>412.0</ele><time>2026-04-26T14:22:15.853Z</time></trkpt><trkpt lat="43.4102797" lon="11.6483422"><ele>412.0</ele><time>2026-04-26T14:22:16.852Z</time></trkpt><trkpt lat="43.4104646" lon="11.6482595"><ele>412.0</ele><time>2026-04-26T14:22:17.853Z</time></trkpt><trkpt lat="43.4106464" lon="11.6481512"><ele>415.33333333333337</ele><time>2026-04-26T14:22:18.852Z</time></trkpt><trkpt lat="43.4108264" lon="11.6480126"><ele>418.66666666666663</ele><time>2026-04-26T14:22:19.852Z</time></trkpt><trkpt lat="43.4110069" lon="11.6478519"><ele>422.0</ele><time>2026-04-26T14:22:20.853Z</time></trkpt><trkpt lat="43.4111761" lon="11.6476802"><ele>419.3333333333333</ele><time>2026-04-26T14:22:21.853Z</time></trkpt><trkpt lat="43.4113494" lon="11.6474952"><ele>416.66666666666663</ele><time>2026-04-26T14:22:22.853Z</time></trkpt><trkpt lat="43.4115117" lon="11.6473079"><ele>414.0</ele><time>2026-04-26T14:22:23.853Z</time></trkpt><trkpt lat="43.4116716" lon="11.6471353"><ele>414.0</ele><time>2026-04-26T14:22:24.853Z</time></trkpt><trkpt lat="43.4118259" lon="11.6469909"><ele>414.0</ele><time>2026-04-26T14:22:25.853Z</time></trkpt><trkpt lat="43.4119817" lon="11.6469013"><ele>414.0</ele><time>2026-04-26T14:22:26.853Z</time></trkpt><trkpt lat="43.4121368" lon="11.6468524"><ele>408.0</ele><time>2026-04-26T14:22:27.853Z</time></trkpt><trkpt lat="43.4122951" lon="11.6468746"><ele>402.0</ele><time>2026-04-26T14:22:28.853Z</time></trkpt><trkpt lat="43.4124497" lon="11.6468942"><ele>396.0</ele><time>2026-04-26T14:22:29.853Z</time></trkpt><trkpt lat="43.4125916" lon="11.6468733"><ele>396.0</ele><time>2026-04-26T14:22:30.853Z</time></trkpt><trkpt lat="43.4127266" lon="11.6468076"><ele>396.0</ele><time>2026-04-26T14:22:31.853Z</time></trkpt><trkpt lat="43.4128464" lon="11.6467414"><ele>396.0</ele><time>2026-04-26T14:22:32.852Z</time></trkpt><trkpt lat="43.4129725" lon="11.6466952"><ele>396.0</ele><time>2026-04-26T14:22:33.853Z</time></trkpt><trkpt lat="43.4130941" lon="11.6467596"><ele>394.5</ele><time>2026-04-26T14:22:34.853Z</time></trkpt><trkpt lat="43.4131634" lon="11.6468929"><ele>393.0</ele><time>2026-04-26T14:22:35.853Z</time></trkpt><trkpt lat="43.4131839" lon="11.6470701"><ele>391.5</ele><time>2026-04-26T14:22:36.853Z</time></trkpt><trkpt lat="43.4131911" lon="11.647259"><ele>390.0</ele><time>2026-04-26T14:22:37.852Z</time></trkpt><trkpt lat="43.4131727" lon="11.6474487"><ele>390.0</ele><time>2026-04-26T14:22:38.853Z</time></trkpt><trkpt lat="43.413133" lon="11.6476499"><ele>390.0</ele><time>2026-04-26T14:22:39.853Z</time></trkpt><trkpt lat="43.4130699" lon="11.6478401"><ele>390.0</ele><time>2026-04-26T14:22:40.852Z</time></trkpt><trkpt lat="43.4130006" lon="11.6480385"><ele>398.0</ele><time>2026-04-26T14:22:41.853Z</time></trkpt><trkpt lat="43.4129288" lon="11.6482508"><ele>406.0</ele><time>2026-04-26T14:22:42.853Z</time></trkpt><trkpt lat="43.4128839" lon="11.6484599"><ele>414.0</ele><time>2026-04-26T14:22:43.852Z</time></trkpt><trkpt lat="43.412871" lon="11.6486822"><ele>414.0</ele><time>2026-04-26T14:22:44.853Z</time></trkpt><trkpt lat="43.4128765" lon="11.6488934"><ele>414.0</ele><time>2026-04-26T14:22:45.853Z</time></trkpt><trkpt lat="43.4128741" lon="11.6490865"><ele>414.0</ele><time>2026-04-26T14:22:46.852Z</time></trkpt><trkpt lat="43.4128736" lon="11.6492625"><ele>414.0</ele><time>2026-04-26T14:22:47.853Z</time></trkpt><trkpt lat="43.4128782" lon="11.6494108"><ele>413.5</ele><time>2026-04-26T14:22:48.852Z</time></trkpt><trkpt lat="43.4128918" lon="11.6495556"><ele>413.0</ele><time>2026-04-26T14:22:49.853Z</time></trkpt><trkpt lat="43.412936" lon="11.6496568"><ele>412.5</ele><time>2026-04-26T14:22:50.853Z</time></trkpt><trkpt lat="43.4130893" lon="11.6496529"><ele>412.0</ele><time>2026-04-26T14:22:51.853Z</time></trkpt><trkpt lat="43.4132424" lon="11.6495458"><ele>405.33333333333337</ele><time>2026-04-26T14:22:52.853Z</time></trkpt><trkpt lat="43.4133986" lon="11.6494509"><ele>398.66666666666663</ele><time>2026-04-26T14:22:53.853Z</time></trkpt><trkpt lat="43.4135384" lon="11.6493482"><ele>392.0</ele><time>2026-04-26T14:22:54.853Z</time></trkpt><trkpt lat="43.4136894" lon="11.6492611"><ele>393.0</ele><time>2026-04-26T14:22:55.853Z</time></trkpt><trkpt lat="43.4138499" lon="11.6491913"><ele>394.0</ele><time>2026-04-26T14:22:56.853Z</time></trkpt><trkpt lat="43.4140028" lon="11.6491185"><ele>395.0</ele><time>2026-04-26T14:22:57.853Z</time></trkpt><trkpt lat="43.4141498" lon="11.6490187"><ele>395.0</ele><time>2026-04-26T14:22:58.853Z</time></trkpt><trkpt lat="43.4142807" lon="11.6489012"><ele>395.0</ele><time>2026-04-26T14:22:59.853Z</time></trkpt><trkpt lat="43.4144" lon="11.6487652"><ele>395.0</ele><time>2026-04-26T14:23:00.853Z</time></trkpt><trkpt lat="43.4145002" lon="11.6486416"><ele>395.0</ele><time>2026-04-26T14:23:01.853Z</time></trkpt><trkpt lat="43.4146303" lon="11.648594"><ele>396.75</ele><time>2026-04-26T14:23:02.852Z</time></trkpt><trkpt lat="43.4147732" lon="11.6486032"><ele>398.5</ele><time>2026-04-26T14:23:03.853Z</time></trkpt><trkpt lat="43.4149011" lon="11.648654"><ele>400.25</ele><time>2026-04-26T14:23:04.853Z</time></trkpt><trkpt lat="43.4150061" lon="11.6487152"><ele>402.0</ele><time>2026-04-26T14:23:05.852Z</time></trkpt><trkpt lat="43.415121" lon="11.6487193"><ele>397.75</ele><time>2026-04-26T14:23:06.853Z</time></trkpt><trkpt lat="43.4152004" lon="11.6486164"><ele>393.5</ele><time>2026-04-26T14:23:07.852Z</time></trkpt><trkpt lat="43.415235" lon="11.648473"><ele>389.25</ele><time>2026-04-26T14:23:08.853Z</time></trkpt><trkpt lat="43.4152093" lon="11.6483157"><ele>385.0</ele><time>2026-04-26T14:23:09.853Z</time></trkpt><trkpt lat="43.4151395" lon="11.6481592"><ele>385.0</ele><time>2026-04-26T14:23:10.853Z</time></trkpt><trkpt lat="43.415083" lon="11.647972"><ele>385.0</ele><time>2026-04-26T14:23:11.853Z</time></trkpt><trkpt lat="43.4150544" lon="11.6477594"><ele>385.0</ele><time>2026-04-26T14:23:12.852Z</time></trkpt><trkpt lat="43.4150349" lon="11.64753"><ele>382.6666666666667</ele><time>2026-04-26T14:23:13.853Z</time></trkpt><trkpt lat="43.4150222" lon="11.6472968"><ele>380.33333333333337</ele><time>2026-04-26T14:23:14.852Z</time></trkpt><trkpt lat="43.4150055" lon="11.6470675"><ele>378.0</ele><time>2026-04-26T14:23:15.852Z</time></trkpt><trkpt lat="43.4149928" lon="11.6468535"><ele>377.0</ele><time>2026-04-26T14:23:16.853Z</time></trkpt><trkpt lat="43.4149889" lon="11.6466462"><ele>376.0</ele><time>2026-04-26T14:23:17.853Z</time></trkpt><trkpt lat="43.4150197" lon="11.6464678"><ele>375.0</ele><time>2026-04-26T14:23:18.853Z</time></trkpt><trkpt lat="43.4150794" lon="11.6463267"><ele>374.0</ele><time>2026-04-26T14:23:19.852Z</time></trkpt><trkpt lat="43.4151709" lon="11.6462296"><ele>374.0</ele><time>2026-04-26T14:23:20.853Z</time></trkpt><trkpt lat="43.4152953" lon="11.6461954"><ele>374.0</ele><time>2026-04-26T14:23:21.853Z</time></trkpt><trkpt lat="43.4154262" lon="11.6462103"><ele>374.0</ele><time>2026-04-26T14:23:22.853Z</time></trkpt><trkpt lat="43.4155631" lon="11.6462759"><ele>374.0</ele><time>2026-04-26T14:23:23.852Z</time></trkpt><trkpt lat="43.4156619" lon="11.646375"><ele>375.5</ele><time>2026-04-26T14:23:24.853Z</time></trkpt><trkpt lat="43.4157451" lon="11.6464869"><ele>377.0</ele><time>2026-04-26T14:23:25.852Z</time></trkpt><trkpt lat="43.4158437" lon="11.6465473"><ele>378.5</ele><time>2026-04-26T14:23:26.852Z</time></trkpt><trkpt lat="43.4159587" lon="11.6465322"><ele>380.0</ele><time>2026-04-26T14:23:27.853Z</time></trkpt><trkpt lat="43.4160739" lon="11.6464298"><ele>380.0</ele><time>2026-04-26T14:23:28.853Z</time></trkpt><trkpt lat="43.4161728" lon="11.6463074"><ele>380.0</ele><time>2026-04-26T14:23:29.852Z</time></trkpt><trkpt lat="43.4162677" lon="11.6461878"><ele>380.0</ele><time>2026-04-26T14:23:30.853Z</time></trkpt><trkpt lat="43.4163457" lon="11.6460507"><ele>380.0</ele><time>2026-04-26T14:23:31.853Z</time></trkpt><trkpt lat="43.41639" lon="11.6458682"><ele>378.75</ele><time>2026-04-26T14:23:32.853Z</time></trkpt><trkpt lat="43.4164189" lon="11.6456719"><ele>377.5</ele><time>2026-04-26T14:23:33.852Z</time></trkpt><trkpt lat="43.4164608" lon="11.6454873"><ele>376.25</ele><time>2026-04-26T14:23:34.853Z</time></trkpt><trkpt lat="43.4165353" lon="11.6453125"><ele>375.0</ele><time>2026-04-26T14:23:35.853Z</time></trkpt><trkpt lat="43.4166027" lon="11.6451437"><ele>371.75</ele><time>2026-04-26T14:23:36.852Z</time></trkpt><trkpt lat="43.4166678" lon="11.6449876"><ele>368.5</ele><time>2026-04-26T14:23:37.853Z</time></trkpt><trkpt lat="43.416751" lon="11.6448475"><ele>365.25</ele><time>2026-04-26T14:23:38.853Z</time></trkpt><trkpt lat="43.416846" lon="11.6447617"><ele>362.0</ele><time>2026-04-26T14:23:39.853Z</time></trkpt><trkpt lat="43.4169884" lon="11.6447495"><ele>362.0</ele><time>2026-04-26T14:23:40.852Z</time></trkpt><trkpt lat="43.4171137" lon="11.6447879"><ele>362.0</ele><time>2026-04-26T14:23:41.853Z</time></trkpt><trkpt lat="43.4172264" lon="11.6448667"><ele>362.0</ele><time>2026-04-26T14:23:42.853Z</time></trkpt><trkpt lat="43.4173299" lon="11.6449181"><ele>362.0</ele><time>2026-04-26T14:23:43.853Z</time></trkpt><trkpt lat="43.41743" lon="11.6449165"><ele>363.20000000000005</ele><time>2026-04-26T14:23:44.853Z</time></trkpt><trkpt lat="43.4175213" lon="11.6448343"><ele>364.4</ele><time>2026-04-26T14:23:45.853Z</time></trkpt><trkpt lat="43.4175599" lon="11.644699"><ele>365.6</ele><time>2026-04-26T14:23:46.853Z</time></trkpt><trkpt lat="43.4175593" lon="11.6445433"><ele>366.79999999999995</ele><time>2026-04-26T14:23:47.853Z</time></trkpt><trkpt lat="43.4175499" lon="11.6443919"><ele>368.0</ele><time>2026-04-26T14:23:48.853Z</time></trkpt><trkpt lat="43.4175531" lon="11.6442489"><ele>364.5</ele><time>2026-04-26T14:23:49.853Z</time></trkpt><trkpt lat="43.4175835" lon="11.6441013"><ele>361.0</ele><time>2026-04-26T14:23:50.852Z</time></trkpt><trkpt lat="43.4176426" lon="11.6439402"><ele>357.5</ele><time>2026-04-26T14:23:51.853Z</time></trkpt><trkpt lat="43.4177164" lon="11.6438082"><ele>354.0</ele><time>2026-04-26T14:23:52.853Z</time></trkpt><trkpt lat="43.4178126" lon="11.6437284"><ele>354.0</ele><time>2026-04-26T14:23:53.852Z</time></trkpt><trkpt lat="43.4179268" lon="11.6437006"><ele>354.0</ele><time>2026-04-26T14:23:54.853Z</time></trkpt><trkpt lat="43.4180586" lon="11.6437565"><ele>354.0</ele><time>2026-04-26T14:23:55.853Z</time></trkpt><trkpt lat="43.4181664" lon="11.6438563"><ele>354.0</ele><time>2026-04-26T14:23:56.852Z</time></trkpt><trkpt lat="43.4182516" lon="11.6439903"><ele>354.6</ele><time>2026-04-26T14:23:57.852Z</time></trkpt><trkpt lat="43.4183097" lon="11.6441232"><ele>355.2</ele><time>2026-04-26T14:23:58.853Z</time></trkpt><trkpt lat="43.4183762" lon="11.6442199"><ele>355.8</ele><time>2026-04-26T14:23:59.852Z</time></trkpt><trkpt lat="43.4184695" lon="11.6442744"><ele>356.40000000000003</ele><time>2026-04-26T14:24:00.853Z</time></trkpt><trkpt lat="43.4185862" lon="11.6442479"><ele>357.0</ele><time>2026-04-26T14:24:01.853Z</time></trkpt><trkpt lat="43.4186804" lon="11.6441593"><ele>357.0</ele><time>2026-04-26T14:24:02.853Z</time></trkpt><trkpt lat="43.4187563" lon="11.6440122"><ele>357.0</ele><time>2026-04-26T14:24:03.853Z</time></trkpt><trkpt lat="43.4187984" lon="11.6438323"><ele>357.0</ele><time>2026-04-26T14:24:04.853Z</time></trkpt><trkpt lat="43.4188141" lon="11.6436416"><ele>357.0</ele><time>2026-04-26T14:24:05.853Z</time></trkpt><trkpt lat="43.4188245" lon="11.643454"><ele>354.75</ele><time>2026-04-26T14:24:06.852Z</time></trkpt><trkpt lat="43.4188488" lon="11.6432846"><ele>352.5</ele><time>2026-04-26T14:24:07.853Z</time></trkpt><trkpt lat="43.4188861" lon="11.6431322"><ele>350.25</ele><time>2026-04-26T14:24:08.853Z</time></trkpt><trkpt lat="43.4189554" lon="11.6429992"><ele>348.0</ele><time>2026-04-26T14:24:09.853Z</time></trkpt><trkpt lat="43.4190636" lon="11.6428891"><ele>348.0</ele><time>2026-04-26T14:24:10.853Z</time></trkpt><trkpt lat="43.4191879" lon="11.6427993"><ele>348.0</ele><time>2026-04-26T14:24:11.853Z</time></trkpt><trkpt lat="43.419312" lon="11.6427266"><ele>348.0</ele><time>2026-04-26T14:24:12.852Z</time></trkpt><trkpt lat="43.4194335" lon="11.642684"><ele>348.0</ele><time>2026-04-26T14:24:13.853Z</time></trkpt><trkpt lat="43.4195515" lon="11.642679"><ele>348.5</ele><time>2026-04-26T14:24:14.853Z</time></trkpt><trkpt lat="43.41968" lon="11.6427177"><ele>349.0</ele><time>2026-04-26T14:24:15.853Z</time></trkpt><trkpt lat="43.4197916" lon="11.642776"><ele>349.5</ele><time>2026-04-26T14:24:16.853Z</time></trkpt><trkpt lat="43.4198934" lon="11.6428276"><ele>350.0</ele><time>2026-04-26T14:24:17.853Z</time></trkpt><trkpt lat="43.4199858" lon="11.6428418"><ele>347.4</ele><time>2026-04-26T14:24:18.853Z</time></trkpt><trkpt lat="43.4200693" lon="11.6427531"><ele>344.8</ele><time>2026-04-26T14:24:19.852Z</time></trkpt><trkpt lat="43.4201224" lon="11.6426275"><ele>342.20000000000005</ele><time>2026-04-26T14:24:20.852Z</time></trkpt><trkpt lat="43.4201457" lon="11.6424835"><ele>339.6</ele><time>2026-04-26T14:24:21.853Z</time></trkpt><trkpt lat="43.4201908" lon="11.6423649"><ele>337.0</ele><time>2026-04-26T14:24:22.852Z</time></trkpt><trkpt lat="43.4202702" lon="11.6422723"><ele>337.0</ele><time>2026-04-26T14:24:23.853Z</time></trkpt><trkpt lat="43.4203907" lon="11.6422419"><ele>337.0</ele><time>2026-04-26T14:24:24.853Z</time></trkpt><trkpt lat="43.4204994" lon="11.642206"><ele>337.0</ele><time>2026-04-26T14:24:25.852Z</time></trkpt><trkpt lat="43.4205723" lon="11.6421244"><ele>337.0</ele><time>2026-04-26T14:24:26.853Z</time></trkpt><trkpt lat="43.4206196" lon="11.6419907"><ele>337.0</ele><time>2026-04-26T14:24:27.853Z</time></trkpt><trkpt lat="43.4206148" lon="11.6418354"><ele>338.5</ele><time>2026-04-26T14:24:28.852Z</time></trkpt><trkpt lat="43.4205662" lon="11.6416772"><ele>340.0</ele><time>2026-04-26T14:24:29.852Z</time></trkpt><trkpt lat="43.4204982" lon="11.6415417"><ele>341.5</ele><time>2026-04-26T14:24:30.853Z</time></trkpt><trkpt lat="43.4204312" lon="11.6414205"><ele>343.0</ele><time>2026-04-26T14:24:31.853Z</time></trkpt><trkpt lat="43.4203692" lon="11.6413028"><ele>339.59999999999997</ele><time>2026-04-26T14:24:32.852Z</time></trkpt><trkpt lat="43.4203143" lon="11.6411721"><ele>336.2</ele><time>2026-04-26T14:24:33.853Z</time></trkpt><trkpt lat="43.4202949" lon="11.6410237"><ele>332.8</ele><time>2026-04-26T14:24:34.852Z</time></trkpt><trkpt lat="43.4203075" lon="11.640879"><ele>329.4</ele><time>2026-04-26T14:24:35.853Z</time></trkpt><trkpt lat="43.4203485" lon="11.6407283"><ele>326.0</ele><time>2026-04-26T14:24:36.853Z</time></trkpt><trkpt lat="43.4204397" lon="11.6405694"><ele>325.75</ele><time>2026-04-26T14:24:37.853Z</time></trkpt><trkpt lat="43.420534" lon="11.6404069"><ele>325.5</ele><time>2026-04-26T14:24:38.853Z</time></trkpt><trkpt lat="43.4206282" lon="11.6402443"><ele>325.25</ele><time>2026-04-26T14:24:39.852Z</time></trkpt><trkpt lat="43.4207119" lon="11.6400873"><ele>325.0</ele><time>2026-04-26T14:24:40.852Z</time></trkpt><trkpt lat="43.4207849" lon="11.6399333"><ele>325.0</ele><time>2026-04-26T14:24:41.853Z</time></trkpt><trkpt lat="43.4208647" lon="11.6397888"><ele>325.0</ele><time>2026-04-26T14:24:42.853Z</time></trkpt><trkpt lat="43.4209468" lon="11.6396826"><ele>325.0</ele><time>2026-04-26T14:24:43.852Z</time></trkpt><trkpt lat="43.4210721" lon="11.6396418"><ele>325.0</ele><time>2026-04-26T14:24:44.852Z</time></trkpt><trkpt lat="43.4212065" lon="11.6396628"><ele>325.0</ele><time>2026-04-26T14:24:45.852Z</time></trkpt><trkpt lat="43.4213262" lon="11.6396786"><ele>325.0</ele><time>2026-04-26T14:24:46.853Z</time></trkpt><trkpt lat="43.4214398" lon="11.6396731"><ele>325.0</ele><time>2026-04-26T14:24:47.853Z</time></trkpt><trkpt lat="43.4215325" lon="11.6396115"><ele>325.0</ele><time>2026-04-26T14:24:48.853Z</time></trkpt><trkpt lat="43.4215963" lon="11.6394993"><ele>325.0</ele><time>2026-04-26T14:24:49.853Z</time></trkpt><trkpt lat="43.4216126" lon="11.6393767"><ele>325.0</ele><time>2026-04-26T14:24:50.853Z</time></trkpt><trkpt lat="43.4215758" lon="11.6392376"><ele>325.0</ele><time>2026-04-26T14:24:51.853Z</time></trkpt><trkpt lat="43.4215269" lon="11.6391029"><ele>325.0</ele><time>2026-04-26T14:24:52.852Z</time></trkpt><trkpt lat="43.4214906" lon="11.6389826"><ele>325.0</ele><time>2026-04-26T14:24:53.853Z</time></trkpt><trkpt lat="43.4214593" lon="11.638864"><ele>325.0</ele><time>2026-04-26T14:24:54.853Z</time></trkpt><trkpt lat="43.4214434" lon="11.6387352"><ele>323.6</ele><time>2026-04-26T14:24:55.853Z</time></trkpt><trkpt lat="43.4214461" lon="11.6386085"><ele>322.2</ele><time>2026-04-26T14:24:56.853Z</time></trkpt><trkpt lat="43.4214765" lon="11.6384749"><ele>320.8</ele><time>2026-04-26T14:24:57.852Z</time></trkpt><trkpt lat="43.4215402" lon="11.6383474"><ele>319.4</ele><time>2026-04-26T14:24:58.853Z</time></trkpt><trkpt lat="43.4216235" lon="11.6382279"><ele>318.0</ele><time>2026-04-26T14:24:59.853Z</time></trkpt><trkpt lat="43.421708" lon="11.6381286"><ele>318.0</ele><time>2026-04-26T14:25:00.853Z</time></trkpt><trkpt lat="43.4217894" lon="11.6380338"><ele>318.0</ele><time>2026-04-26T14:25:01.853Z</time></trkpt><trkpt lat="43.4218623" lon="11.6379518"><ele>318.0</ele><time>2026-04-26T14:25:02.853Z</time></trkpt><trkpt lat="43.4219304" lon="11.6378774"><ele>318.0</ele><time>2026-04-26T14:25:03.853Z</time></trkpt><trkpt lat="43.4220047" lon="11.637806"><ele>318.0</ele><time>2026-04-26T14:25:04.853Z</time></trkpt><trkpt lat="43.4220957" lon="11.6377398"><ele>316.0</ele><time>2026-04-26T14:25:05.853Z</time></trkpt><trkpt lat="43.4222273" lon="11.6376732"><ele>314.0</ele><time>2026-04-26T14:25:06.853Z</time></trkpt><trkpt lat="43.4223812" lon="11.6376205"><ele>312.0</ele><time>2026-04-26T14:25:07.852Z</time></trkpt><trkpt lat="43.4225421" lon="11.6375729"><ele>312.0</ele><time>2026-04-26T14:25:08.853Z</time></trkpt><trkpt lat="43.4227039" lon="11.6375286"><ele>312.0</ele><time>2026-04-26T14:25:09.853Z</time></trkpt><trkpt lat="43.4228593" lon="11.637481"><ele>312.0</ele><time>2026-04-26T14:25:10.853Z</time></trkpt><trkpt lat="43.4229999" lon="11.6374375"><ele>312.25</ele><time>2026-04-26T14:25:11.853Z</time></trkpt><trkpt lat="43.4231297" lon="11.6374168"><ele>312.5</ele><time>2026-04-26T14:25:12.852Z</time></trkpt><trkpt lat="43.4232499" lon="11.637415"><ele>312.75</ele><time>2026-04-26T14:25:13.852Z</time></trkpt><trkpt lat="43.4233606" lon="11.6373845"><ele>313.0</ele><time>2026-04-26T14:25:14.852Z</time></trkpt><trkpt lat="43.4234701" lon="11.6372917"><ele>313.0</ele><time>2026-04-26T14:25:15.853Z</time></trkpt><trkpt lat="43.4235404" lon="11.6371447"><ele>313.0</ele><time>2026-04-26T14:25:16.853Z</time></trkpt><trkpt lat="43.4235698" lon="11.6369544"><ele>313.0</ele><time>2026-04-26T14:25:17.852Z</time></trkpt><trkpt lat="43.4236" lon="11.6367377"><ele>313.0</ele><time>2026-04-26T14:25:18.853Z</time></trkpt><trkpt lat="43.4236255" lon="11.6365181"><ele>310.3333333333333</ele><time>2026-04-26T14:25:19.853Z</time></trkpt><trkpt lat="43.4236336" lon="11.6362923"><ele>307.6666666666667</ele><time>2026-04-26T14:25:20.852Z</time></trkpt><trkpt lat="43.4235697" lon="11.6360839"><ele>305.0</ele><time>2026-04-26T14:25:21.853Z</time></trkpt><trkpt lat="43.4235063" lon="11.6358977"><ele>303.0</ele><time>2026-04-26T14:25:22.852Z</time></trkpt><trkpt lat="43.4234467" lon="11.6357105"><ele>301.0</ele><time>2026-04-26T14:25:23.853Z</time></trkpt><trkpt lat="43.4234092" lon="11.6355058"><ele>299.0</ele><time>2026-04-26T14:25:24.853Z</time></trkpt><trkpt lat="43.4234478" lon="11.6352963"><ele>298.33333333333337</ele><time>2026-04-26T14:25:25.852Z</time></trkpt><trkpt lat="43.4235157" lon="11.635092"><ele>297.6666666666667</ele><time>2026-04-26T14:25:26.853Z</time></trkpt><trkpt lat="43.4235919" lon="11.6348707"><ele>297.0</ele><time>2026-04-26T14:25:27.853Z</time></trkpt><trkpt lat="43.4236573" lon="11.6346433"><ele>298.0</ele><time>2026-04-26T14:25:28.853Z</time></trkpt><trkpt lat="43.423719" lon="11.6344083"><ele>299.0</ele><time>2026-04-26T14:25:29.852Z</time></trkpt><trkpt lat="43.4237719" lon="11.6341826"><ele>300.0</ele><time>2026-04-26T14:25:30.853Z</time></trkpt><trkpt lat="43.4238185" lon="11.6339694"><ele>300.0</ele><time>2026-04-26T14:25:31.852Z</time></trkpt><trkpt lat="43.423887" lon="11.6337921"><ele>300.0</ele><time>2026-04-26T14:25:32.853Z</time></trkpt><trkpt lat="43.4240104" lon="11.6336664"><ele>300.0</ele><time>2026-04-26T14:25:33.853Z</time></trkpt><trkpt lat="43.4241515" lon="11.6335701"><ele>296.3333333333333</ele><time>2026-04-26T14:25:34.853Z</time></trkpt><trkpt lat="43.4243165" lon="11.6335342"><ele>292.66666666666663</ele><time>2026-04-26T14:25:35.853Z</time></trkpt><trkpt lat="43.4244845" lon="11.6335278"><ele>289.0</ele><time>2026-04-26T14:25:36.853Z</time></trkpt><trkpt lat="43.4246384" lon="11.6335331"><ele>290.0</ele><time>2026-04-26T14:25:37.852Z</time></trkpt><trkpt lat="43.4247788" lon="11.6335389"><ele>291.0</ele><time>2026-04-26T14:25:38.853Z</time></trkpt><trkpt lat="43.4248958" lon="11.6335294"><ele>292.0</ele><time>2026-04-26T14:25:39.852Z</time></trkpt><trkpt lat="43.4249968" lon="11.6334642"><ele>293.0</ele><time>2026-04-26T14:25:40.853Z</time></trkpt><trkpt lat="43.4250572" lon="11.633333"><ele>293.0</ele><time>2026-04-26T14:25:41.853Z</time></trkpt><trkpt lat="43.4250511" lon="11.6331702"><ele>293.0</ele><time>2026-04-26T14:25:42.853Z</time></trkpt><trkpt lat="43.4250145" lon="11.6330046"><ele>293.0</ele><time>2026-04-26T14:25:43.853Z</time></trkpt><trkpt lat="43.4249716" lon="11.632814"><ele>293.0</ele><time>2026-04-26T14:25:44.853Z</time></trkpt><trkpt lat="43.4249415" lon="11.6326292"><ele>292.25</ele><time>2026-04-26T14:25:45.853Z</time></trkpt><trkpt lat="43.4249283" lon="11.6324382"><ele>291.5</ele><time>2026-04-26T14:25:46.853Z</time></trkpt><trkpt lat="43.424936" lon="11.6322336"><ele>290.75</ele><time>2026-04-26T14:25:47.853Z</time></trkpt><trkpt lat="43.4249679" lon="11.6320321"><ele>290.0</ele><time>2026-04-26T14:25:48.852Z</time></trkpt><trkpt lat="43.4250134" lon="11.6318137"><ele>288.33333333333337</ele><time>2026-04-26T14:25:49.853Z</time></trkpt><trkpt lat="43.425064" lon="11.6316026"><ele>286.6666666666667</ele><time>2026-04-26T14:25:50.853Z</time></trkpt><trkpt lat="43.4251142" lon="11.6313932"><ele>285.0</ele><time>2026-04-26T14:25:51.852Z</time></trkpt><trkpt lat="43.4251692" lon="11.6311883"><ele>282.6666666666667</ele><time>2026-04-26T14:25:52.853Z</time></trkpt><trkpt lat="43.4252322" lon="11.6309961"><ele>280.33333333333337</ele><time>2026-04-26T14:25:53.853Z</time></trkpt><trkpt lat="43.4253085" lon="11.6308219"><ele>278.0</ele><time>2026-04-26T14:25:54.853Z</time></trkpt><trkpt lat="43.4254003" lon="11.6306581"><ele>277.33333333333337</ele><time>2026-04-26T14:25:55.852Z</time></trkpt><trkpt lat="43.4255112" lon="11.6305088"><ele>276.6666666666667</ele><time>2026-04-26T14:25:56.853Z</time></trkpt><trkpt lat="43.4256394" lon="11.630393"><ele>276.0</ele><time>2026-04-26T14:25:57.853Z</time></trkpt><trkpt lat="43.4257788" lon="11.6302926"><ele>276.0</ele><time>2026-04-26T14:25:58.853Z</time></trkpt><trkpt lat="43.4259352" lon="11.6302287"><ele>276.0</ele><time>2026-04-26T14:25:59.852Z</time></trkpt><trkpt lat="43.4260831" lon="11.6301825"><ele>276.0</ele><time>2026-04-26T14:26:00.853Z</time></trkpt><trkpt lat="43.4262393" lon="11.6301805"><ele>275.5</ele><time>2026-04-26T14:26:01.852Z</time></trkpt><trkpt lat="43.4263926" lon="11.630217"><ele>275.0</ele><time>2026-04-26T14:26:02.853Z</time></trkpt><trkpt lat="43.4265361" lon="11.6302889"><ele>274.5</ele><time>2026-04-26T14:26:03.852Z</time></trkpt><trkpt lat="43.4266578" lon="11.6303554"><ele>274.0</ele><time>2026-04-26T14:26:04.853Z</time></trkpt><trkpt lat="43.4267741" lon="11.6303641"><ele>274.0</ele><time>2026-04-26T14:26:05.853Z</time></trkpt><trkpt lat="43.4269098" lon="11.6302895"><ele>274.0</ele><time>2026-04-26T14:26:06.852Z</time></trkpt><trkpt lat="43.4269595" lon="11.6301581"><ele>274.0</ele><time>2026-04-26T14:26:07.852Z</time></trkpt><trkpt lat="43.4269837" lon="11.6299815"><ele>274.0</ele><time>2026-04-26T14:26:08.853Z</time></trkpt><trkpt lat="43.4269446" lon="11.6297891"><ele>274.0</ele><time>2026-04-26T14:26:09.853Z</time></trkpt><trkpt lat="43.4268972" lon="11.6295924"><ele>274.0</ele><time>2026-04-26T14:26:10.853Z</time></trkpt><trkpt lat="43.4268507" lon="11.6294231"><ele>274.0</ele><time>2026-04-26T14:26:11.853Z</time></trkpt><trkpt lat="43.4268099" lon="11.6292528"><ele>274.0</ele><time>2026-04-26T14:26:12.853Z</time></trkpt><trkpt lat="43.4267902" lon="11.629073"><ele>271.66666666666663</ele><time>2026-04-26T14:26:13.852Z</time></trkpt><trkpt lat="43.4268109" lon="11.6288858"><ele>269.3333333333333</ele><time>2026-04-26T14:26:14.852Z</time></trkpt><trkpt lat="43.4268724" lon="11.6286998"><ele>267.0</ele><time>2026-04-26T14:26:15.853Z</time></trkpt><trkpt lat="43.4269534" lon="11.6285"><ele>264.6666666666667</ele><time>2026-04-26T14:26:16.853Z</time></trkpt><trkpt lat="43.4270126" lon="11.6282946"><ele>262.33333333333337</ele><time>2026-04-26T14:26:17.852Z</time></trkpt><trkpt lat="43.427051" lon="11.6280844"><ele>260.0</ele><time>2026-04-26T14:26:18.853Z</time></trkpt><trkpt lat="43.4270894" lon="11.6278678"><ele>258.6666666666667</ele><time>2026-04-26T14:26:19.853Z</time></trkpt><trkpt lat="43.4271262" lon="11.6276642"><ele>257.3333333333333</ele><time>2026-04-26T14:26:20.853Z</time></trkpt><trkpt lat="43.4271654" lon="11.627464"><ele>256.0</ele><time>2026-04-26T14:26:21.853Z</time></trkpt><trkpt lat="43.4272174" lon="11.6272653"><ele>257.3333333333333</ele><time>2026-04-26T14:26:22.853Z</time></trkpt><trkpt lat="43.4273029" lon="11.6270703"><ele>258.6666666666667</ele><time>2026-04-26T14:26:23.853Z</time></trkpt><trkpt lat="43.427397" lon="11.6268756"><ele>260.0</ele><time>2026-04-26T14:26:24.852Z</time></trkpt><trkpt lat="43.4274973" lon="11.6266872"><ele>260.0</ele><time>2026-04-26T14:26:25.853Z</time></trkpt><trkpt lat="43.4275945" lon="11.6265069"><ele>260.0</ele><time>2026-04-26T14:26:26.853Z</time></trkpt><trkpt lat="43.4276916" lon="11.6263325"><ele>260.0</ele><time>2026-04-26T14:26:27.852Z</time></trkpt><trkpt lat="43.4277964" lon="11.6261584"><ele>259.6666666666667</ele><time>2026-04-26T14:26:28.852Z</time></trkpt><trkpt lat="43.4279081" lon="11.6259952"><ele>259.3333333333333</ele><time>2026-04-26T14:26:29.853Z</time></trkpt><trkpt lat="43.4280326" lon="11.6258457"><ele>259.0</ele><time>2026-04-26T14:26:30.853Z</time></trkpt><trkpt lat="43.4281611" lon="11.6257076"><ele>259.0</ele><time>2026-04-26T14:26:31.853Z</time></trkpt><trkpt lat="43.4282933" lon="11.6255761"><ele>259.0</ele><time>2026-04-26T14:26:32.853Z</time></trkpt><trkpt lat="43.4284108" lon="11.6254356"><ele>259.0</ele><time>2026-04-26T14:26:33.853Z</time></trkpt><trkpt lat="43.4285084" lon="11.6252584"><ele>257.0</ele><time>2026-04-26T14:26:34.853Z</time></trkpt><trkpt lat="43.4285711" lon="11.625038"><ele>255.0</ele><time>2026-04-26T14:26:35.853Z</time></trkpt><trkpt lat="43.4286175" lon="11.6248023"><ele>253.0</ele><time>2026-04-26T14:26:36.852Z</time></trkpt><trkpt lat="43.428662" lon="11.6245619"><ele>252.33333333333331</ele><time>2026-04-26T14:26:37.853Z</time></trkpt><trkpt lat="43.4287027" lon="11.6243081"><ele>251.66666666666669</ele><time>2026-04-26T14:26:38.853Z</time></trkpt><trkpt lat="43.4287511" lon="11.6240554"><ele>251.0</ele><time>2026-04-26T14:26:39.853Z</time></trkpt><trkpt lat="43.4287993" lon="11.6237967"><ele>252.66666666666669</ele><time>2026-04-26T14:26:40.853Z</time></trkpt><trkpt lat="43.4288497" lon="11.623544"><ele>254.33333333333331</ele><time>2026-04-26T14:26:41.853Z</time></trkpt><trkpt lat="43.4289091" lon="11.6233016"><ele>256.0</ele><time>2026-04-26T14:26:42.853Z</time></trkpt><trkpt lat="43.4289886" lon="11.6230758"><ele>256.0</ele><time>2026-04-26T14:26:43.852Z</time></trkpt><trkpt lat="43.4290978" lon="11.6228737"><ele>256.0</ele><time>2026-04-26T14:26:44.853Z</time></trkpt><trkpt lat="43.4292239" lon="11.6226907"><ele>256.0</ele><time>2026-04-26T14:26:45.853Z</time></trkpt><trkpt lat="43.4293651" lon="11.6225149"><ele>255.33333333333331</ele><time>2026-04-26T14:26:46.852Z</time></trkpt><trkpt lat="43.4295117" lon="11.6223457"><ele>254.66666666666669</ele><time>2026-04-26T14:26:47.853Z</time></trkpt><trkpt lat="43.4296657" lon="11.6221833"><ele>254.0</ele><time>2026-04-26T14:26:48.853Z</time></trkpt><trkpt lat="43.4298278" lon="11.6220219"><ele>254.33333333333334</ele><time>2026-04-26T14:26:49.853Z</time></trkpt><trkpt lat="43.4299945" lon="11.6218626"><ele>254.66666666666669</ele><time>2026-04-26T14:26:50.853Z</time></trkpt><trkpt lat="43.4301603" lon="11.6216947"><ele>255.0</ele><time>2026-04-26T14:26:51.853Z</time></trkpt><trkpt lat="43.4303304" lon="11.6215231"><ele>255.33333333333331</ele><time>2026-04-26T14:26:52.853Z</time></trkpt><trkpt lat="43.4305128" lon="11.6213477"><ele>255.66666666666666</ele><time>2026-04-26T14:26:53.853Z</time></trkpt><trkpt lat="43.4306924" lon="11.6211696"><ele>256.0</ele><time>2026-04-26T14:26:54.853Z</time></trkpt><trkpt lat="43.4308645" lon="11.621003"><ele>253.33333333333331</ele><time>2026-04-26T14:26:55.853Z</time></trkpt><trkpt lat="43.4310289" lon="11.6208477"><ele>250.66666666666669</ele><time>2026-04-26T14:26:56.852Z</time></trkpt><trkpt lat="43.4312075" lon="11.6207219"><ele>248.0</ele><time>2026-04-26T14:26:57.853Z</time></trkpt><trkpt lat="43.4313951" lon="11.6206352"><ele>248.0</ele><time>2026-04-26T14:26:58.853Z</time></trkpt><trkpt lat="43.431592" lon="11.62058"><ele>248.0</ele><time>2026-04-26T14:26:59.852Z</time></trkpt><trkpt lat="43.4317962" lon="11.6205376"><ele>248.0</ele><time>2026-04-26T14:27:00.853Z</time></trkpt><trkpt lat="43.432003" lon="11.6205114"><ele>248.33333333333334</ele><time>2026-04-26T14:27:01.853Z</time></trkpt><trkpt lat="43.4322077" lon="11.6204826"><ele>248.66666666666669</ele><time>2026-04-26T14:27:02.853Z</time></trkpt><trkpt lat="43.4324057" lon="11.6204701"><ele>249.0</ele><time>2026-04-26T14:27:03.853Z</time></trkpt><trkpt lat="43.4325935" lon="11.6204473"><ele>249.0</ele><time>2026-04-26T14:27:04.853Z</time></trkpt><trkpt lat="43.4327702" lon="11.6203951"><ele>249.0</ele><time>2026-04-26T14:27:05.853Z</time></trkpt><trkpt lat="43.432937" lon="11.6203"><ele>249.0</ele><time>2026-04-26T14:27:06.852Z</time></trkpt><trkpt lat="43.4331016" lon="11.6201637"><ele>247.33333333333331</ele><time>2026-04-26T14:27:07.852Z</time></trkpt><trkpt lat="43.4332651" lon="11.620037"><ele>245.66666666666666</ele><time>2026-04-26T14:27:08.853Z</time></trkpt><trkpt lat="43.4334454" lon="11.6199501"><ele>244.0</ele><time>2026-04-26T14:27:09.853Z</time></trkpt><trkpt lat="43.4336322" lon="11.6198897"><ele>243.66666666666666</ele><time>2026-04-26T14:27:10.853Z</time></trkpt><trkpt lat="43.4338184" lon="11.6198236"><ele>243.33333333333331</ele><time>2026-04-26T14:27:11.852Z</time></trkpt><trkpt lat="43.433996" lon="11.6197208"><ele>243.0</ele><time>2026-04-26T14:27:12.852Z</time></trkpt><trkpt lat="43.4341627" lon="11.6195794"><ele>241.66666666666669</ele><time>2026-04-26T14:27:13.852Z</time></trkpt><trkpt lat="43.43432" lon="11.6194212"><ele>240.33333333333334</ele><time>2026-04-26T14:27:14.853Z</time></trkpt><trkpt lat="43.4344674" lon="11.6192659"><ele>239.0</ele><time>2026-04-26T14:27:15.852Z</time></trkpt><trkpt lat="43.4346061" lon="11.6191093"><ele>237.66666666666669</ele><time>2026-04-26T14:27:16.853Z</time></trkpt><trkpt lat="43.434738" lon="11.6189592"><ele>236.33333333333331</ele><time>2026-04-26T14:27:17.852Z</time></trkpt><trkpt lat="43.4348591" lon="11.6188186"><ele>235.0</ele><time>2026-04-26T14:27:18.853Z</time></trkpt><trkpt lat="43.4349807" lon="11.6186894"><ele>234.25</ele><time>2026-04-26T14:27:19.853Z</time></trkpt><trkpt lat="43.4350953" lon="11.6185693"><ele>233.5</ele><time>2026-04-26T14:27:20.853Z</time></trkpt><trkpt lat="43.4352054" lon="11.6184644"><ele>232.75</ele><time>2026-04-26T14:27:21.853Z</time></trkpt><trkpt lat="43.4353133" lon="11.6183803"><ele>232.0</ele><time>2026-04-26T14:27:22.853Z</time></trkpt><trkpt lat="43.435423" lon="11.6183051"><ele>232.0</ele><time>2026-04-26T14:27:23.853Z</time></trkpt><trkpt lat="43.4355319" lon="11.6182463"><ele>232.0</ele><time>2026-04-26T14:27:24.852Z</time></trkpt><trkpt lat="43.4356374" lon="11.6181909"><ele>232.0</ele><time>2026-04-26T14:27:25.853Z</time></trkpt><trkpt lat="43.4357391" lon="11.6181437"><ele>232.0</ele><time>2026-04-26T14:27:26.852Z</time></trkpt><trkpt lat="43.4358433" lon="11.6180989"><ele>232.0</ele><time>2026-04-26T14:27:27.853Z</time></trkpt><trkpt lat="43.4359534" lon="11.618064"><ele>232.0</ele><time>2026-04-26T14:27:28.853Z</time></trkpt><trkpt lat="43.4360714" lon="11.6180635"><ele>232.0</ele><time>2026-04-26T14:27:29.853Z</time></trkpt><trkpt lat="43.4362019" lon="11.6181454"><ele>232.0</ele><time>2026-04-26T14:27:30.853Z</time></trkpt><trkpt lat="43.4363324" lon="11.6182417"><ele>232.0</ele><time>2026-04-26T14:27:31.853Z</time></trkpt><trkpt lat="43.4364706" lon="11.6183421"><ele>231.33333333333331</ele><time>2026-04-26T14:27:32.853Z</time></trkpt><trkpt lat="43.4366321" lon="11.6184483"><ele>230.66666666666669</ele><time>2026-04-26T14:27:33.853Z</time></trkpt><trkpt lat="43.4367943" lon="11.6185619"><ele>230.0</ele><time>2026-04-26T14:27:34.853Z</time></trkpt><trkpt lat="43.4369567" lon="11.6186776"><ele>231.33333333333334</ele><time>2026-04-26T14:27:35.853Z</time></trkpt><trkpt lat="43.4371165" lon="11.6187907"><ele>232.66666666666669</ele><time>2026-04-26T14:27:36.852Z</time></trkpt><trkpt lat="43.4372795" lon="11.6189049"><ele>234.0</ele><time>2026-04-26T14:27:37.853Z</time></trkpt><trkpt lat="43.4374396" lon="11.6190197"><ele>234.0</ele><time>2026-04-26T14:27:38.853Z</time></trkpt><trkpt lat="43.4376034" lon="11.6191288"><ele>234.0</ele><time>2026-04-26T14:27:39.853Z</time></trkpt><trkpt lat="43.4377714" lon="11.6192169"><ele>234.0</ele><time>2026-04-26T14:27:40.852Z</time></trkpt><trkpt lat="43.4379425" lon="11.6192692"><ele>234.0</ele><time>2026-04-26T14:27:41.853Z</time></trkpt><trkpt lat="43.4381127" lon="11.6192979"><ele>234.0</ele><time>2026-04-26T14:27:42.853Z</time></trkpt><trkpt lat="43.438281" lon="11.619303"><ele>234.0</ele><time>2026-04-26T14:27:43.853Z</time></trkpt><trkpt lat="43.4384541" lon="11.6192839"><ele>234.0</ele><time>2026-04-26T14:27:44.853Z</time></trkpt><trkpt lat="43.4386288" lon="11.619271"><ele>234.0</ele><time>2026-04-26T14:27:45.852Z</time></trkpt><trkpt lat="43.4388058" lon="11.6192515"><ele>234.0</ele><time>2026-04-26T14:27:46.853Z</time></trkpt><trkpt lat="43.4389793" lon="11.6192331"><ele>235.0</ele><time>2026-04-26T14:27:47.853Z</time></trkpt><trkpt lat="43.4391538" lon="11.6192094"><ele>236.0</ele><time>2026-04-26T14:27:48.853Z</time></trkpt><trkpt lat="43.4393192" lon="11.6191871"><ele>237.0</ele><time>2026-04-26T14:27:49.853Z</time></trkpt><trkpt lat="43.439483" lon="11.6191653"><ele>237.0</ele><time>2026-04-26T14:27:50.853Z</time></trkpt><trkpt lat="43.4396342" lon="11.6191457"><ele>237.0</ele><time>2026-04-26T14:27:51.853Z</time></trkpt><trkpt lat="43.4397786" lon="11.6191402"><ele>237.0</ele><time>2026-04-26T14:27:52.853Z</time></trkpt><trkpt lat="43.4399153" lon="11.6191732"><ele>237.0</ele><time>2026-04-26T14:27:53.852Z</time></trkpt><trkpt lat="43.4400345" lon="11.6192568"><ele>237.0</ele><time>2026-04-26T14:27:54.852Z</time></trkpt><trkpt lat="43.440131" lon="11.6193881"><ele>237.0</ele><time>2026-04-26T14:27:55.853Z</time></trkpt><trkpt lat="43.4402036" lon="11.6195501"><ele>237.0</ele><time>2026-04-26T14:27:56.853Z</time></trkpt><trkpt lat="43.4402573" lon="11.6197282"><ele>237.0</ele><time>2026-04-26T14:27:57.853Z</time></trkpt><trkpt lat="43.4403064" lon="11.6199154"><ele>237.0</ele><time>2026-04-26T14:27:58.853Z</time></trkpt><trkpt lat="43.4403586" lon="11.6201102"><ele>237.0</ele><time>2026-04-26T14:27:59.853Z</time></trkpt><trkpt lat="43.4404136" lon="11.6203121"><ele>237.0</ele><time>2026-04-26T14:28:00.853Z</time></trkpt><trkpt lat="43.4404712" lon="11.6205092"><ele>237.0</ele><time>2026-04-26T14:28:01.853Z</time></trkpt><trkpt lat="43.4405264" lon="11.6206977"><ele>237.0</ele><time>2026-04-26T14:28:02.853Z</time></trkpt><trkpt lat="43.4405904" lon="11.6208841"><ele>237.0</ele><time>2026-04-26T14:28:03.852Z</time></trkpt><trkpt lat="43.4406669" lon="11.6210604"><ele>237.0</ele><time>2026-04-26T14:28:04.853Z</time></trkpt><trkpt lat="43.44076" lon="11.6212264"><ele>237.33333333333331</ele><time>2026-04-26T14:28:05.853Z</time></trkpt><trkpt lat="43.4408627" lon="11.6213842"><ele>237.66666666666666</ele><time>2026-04-26T14:28:06.853Z</time></trkpt><trkpt lat="43.4409676" lon="11.6215428"><ele>238.0</ele><time>2026-04-26T14:28:07.853Z</time></trkpt><trkpt lat="43.441072" lon="11.6217014"><ele>238.0</ele><time>2026-04-26T14:28:08.853Z</time></trkpt><trkpt lat="43.4411735" lon="11.6218541"><ele>238.0</ele><time>2026-04-26T14:28:09.853Z</time></trkpt><trkpt lat="43.4412743" lon="11.6220031"><ele>238.0</ele><time>2026-04-26T14:28:10.853Z</time></trkpt><trkpt lat="43.4413905" lon="11.6221217"><ele>238.0</ele><time>2026-04-26T14:28:11.853Z</time></trkpt><trkpt lat="43.4415315" lon="11.6221994"><ele>236.33333333333331</ele><time>2026-04-26T14:28:12.853Z</time></trkpt><trkpt lat="43.4416923" lon="11.6222389"><ele>234.66666666666669</ele><time>2026-04-26T14:28:13.852Z</time></trkpt><trkpt lat="43.4418557" lon="11.622257"><ele>233.0</ele><time>2026-04-26T14:28:14.853Z</time></trkpt><trkpt lat="43.4420119" lon="11.6222702"><ele>232.66666666666669</ele><time>2026-04-26T14:28:15.853Z</time></trkpt><trkpt lat="43.4421609" lon="11.6222736"><ele>232.33333333333331</ele><time>2026-04-26T14:28:16.852Z</time></trkpt><trkpt lat="43.442313" lon="11.6222657"><ele>232.0</ele><time>2026-04-26T14:28:17.853Z</time></trkpt><trkpt lat="43.4424706" lon="11.6222443"><ele>232.0</ele><time>2026-04-26T14:28:18.853Z</time></trkpt><trkpt lat="43.4426242" lon="11.6222218"><ele>232.0</ele><time>2026-04-26T14:28:19.853Z</time></trkpt><trkpt lat="43.4427737" lon="11.6221946"><ele>232.0</ele><time>2026-04-26T14:28:20.853Z</time></trkpt><trkpt lat="43.4429193" lon="11.6221697"><ele>232.75</ele><time>2026-04-26T14:28:21.853Z</time></trkpt><trkpt lat="43.4430616" lon="11.6221447"><ele>233.5</ele><time>2026-04-26T14:28:22.853Z</time></trkpt><trkpt lat="43.4431997" lon="11.6221143"><ele>234.25</ele><time>2026-04-26T14:28:23.853Z</time></trkpt><trkpt lat="43.4433339" lon="11.6220728"><ele>235.0</ele><time>2026-04-26T14:28:24.853Z</time></trkpt><trkpt lat="43.4434644" lon="11.6219902"><ele>234.5</ele><time>2026-04-26T14:28:25.853Z</time></trkpt><trkpt lat="43.4435732" lon="11.6218858"><ele>234.0</ele><time>2026-04-26T14:28:26.852Z</time></trkpt><trkpt lat="43.4436845" lon="11.6217682"><ele>233.5</ele><time>2026-04-26T14:28:27.853Z</time></trkpt><trkpt lat="43.4437897" lon="11.6216577"><ele>233.0</ele><time>2026-04-26T14:28:28.853Z</time></trkpt><trkpt lat="43.4438917" lon="11.6215552"><ele>234.25</ele><time>2026-04-26T14:28:29.853Z</time></trkpt><trkpt lat="43.4439917" lon="11.6214529"><ele>235.5</ele><time>2026-04-26T14:28:30.853Z</time></trkpt><trkpt lat="43.4440903" lon="11.6213552"><ele>236.75</ele><time>2026-04-26T14:28:31.853Z</time></trkpt><trkpt lat="43.4441926" lon="11.6212489"><ele>238.0</ele><time>2026-04-26T14:28:32.853Z</time></trkpt><trkpt lat="43.4442886" lon="11.6211372"><ele>238.25</ele><time>2026-04-26T14:28:33.853Z</time></trkpt><trkpt lat="43.4443899" lon="11.6210282"><ele>238.5</ele><time>2026-04-26T14:28:34.853Z</time></trkpt><trkpt lat="43.4445051" lon="11.6209159"><ele>238.75</ele><time>2026-04-26T14:28:35.853Z</time></trkpt><trkpt lat="43.4446222" lon="11.6207951"><ele>239.0</ele><time>2026-04-26T14:28:36.853Z</time></trkpt><trkpt lat="43.4447448" lon="11.6206709"><ele>240.33333333333334</ele><time>2026-04-26T14:28:37.853Z</time></trkpt><trkpt lat="43.444873" lon="11.6205439"><ele>241.66666666666669</ele><time>2026-04-26T14:28:38.853Z</time></trkpt><trkpt lat="43.4450055" lon="11.6204118"><ele>243.0</ele><time>2026-04-26T14:28:39.853Z</time></trkpt><trkpt lat="43.4451415" lon="11.6202768"><ele>243.0</ele><time>2026-04-26T14:28:40.853Z</time></trkpt><trkpt lat="43.4452759" lon="11.6201333"><ele>243.0</ele><time>2026-04-26T14:28:41.853Z</time></trkpt><trkpt lat="43.44542" lon="11.6199869"><ele>243.0</ele><time>2026-04-26T14:28:42.852Z</time></trkpt><trkpt lat="43.4455636" lon="11.6198407"><ele>244.0</ele><time>2026-04-26T14:28:43.852Z</time></trkpt><trkpt lat="43.4457008" lon="11.6197071"><ele>245.0</ele><time>2026-04-26T14:28:44.853Z</time></trkpt><trkpt lat="43.4458322" lon="11.6195916"><ele>246.0</ele><time>2026-04-26T14:28:45.853Z</time></trkpt><trkpt lat="43.4459453" lon="11.6194828"><ele>244.5</ele><time>2026-04-26T14:28:46.853Z</time></trkpt><trkpt lat="43.4460545" lon="11.6193688"><ele>243.0</ele><time>2026-04-26T14:28:47.853Z</time></trkpt><trkpt lat="43.4461607" lon="11.6192608"><ele>241.5</ele><time>2026-04-26T14:28:48.853Z</time></trkpt><trkpt lat="43.4462641" lon="11.6191487"><ele>240.0</ele><time>2026-04-26T14:28:49.853Z</time></trkpt><trkpt lat="43.4463648" lon="11.6190465"><ele>240.0</ele><time>2026-04-26T14:28:50.852Z</time></trkpt><trkpt lat="43.4464719" lon="11.6189415"><ele>240.0</ele><time>2026-04-26T14:28:51.853Z</time></trkpt><trkpt lat="43.4465849" lon="11.6188332"><ele>240.0</ele><time>2026-04-26T14:28:52.852Z</time></trkpt><trkpt lat="43.4466988" lon="11.6187219"><ele>240.0</ele><time>2026-04-26T14:28:53.853Z</time></trkpt><trkpt lat="43.4468154" lon="11.6186043"><ele>239.33333333333331</ele><time>2026-04-26T14:28:54.852Z</time></trkpt><trkpt lat="43.4469436" lon="11.6184712"><ele>238.66666666666666</ele><time>2026-04-26T14:28:55.853Z</time></trkpt><trkpt lat="43.4470828" lon="11.6183268"><ele>238.0</ele><time>2026-04-26T14:28:56.853Z</time></trkpt><trkpt lat="43.4472216" lon="11.6181795"><ele>237.66666666666666</ele><time>2026-04-26T14:28:57.853Z</time></trkpt><trkpt lat="43.447378" lon="11.6180257"><ele>237.33333333333331</ele><time>2026-04-26T14:28:58.853Z</time></trkpt><trkpt lat="43.4475445" lon="11.617864"><ele>237.0</ele><time>2026-04-26T14:28:59.853Z</time></trkpt><trkpt lat="43.4477165" lon="11.6177014"><ele>236.66666666666669</ele><time>2026-04-26T14:29:00.852Z</time></trkpt><trkpt lat="43.4478968" lon="11.6175289"><ele>236.33333333333334</ele><time>2026-04-26T14:29:01.853Z</time></trkpt><trkpt lat="43.4480763" lon="11.61735"><ele>236.0</ele><time>2026-04-26T14:29:02.853Z</time></trkpt><trkpt lat="43.4482592" lon="11.6171722"><ele>236.0</ele><time>2026-04-26T14:29:03.853Z</time></trkpt><trkpt lat="43.4484447" lon="11.6169863"><ele>236.0</ele><time>2026-04-26T14:29:04.853Z</time></trkpt><trkpt lat="43.4486291" lon="11.6168051"><ele>235.5</ele><time>2026-04-26T14:29:05.853Z</time></trkpt><trkpt lat="43.4488201" lon="11.6166348"><ele>235.0</ele><time>2026-04-26T14:29:06.853Z</time></trkpt><trkpt lat="43.4490241" lon="11.6164897"><ele>235.0</ele><time>2026-04-26T14:29:07.853Z</time></trkpt><trkpt lat="43.4492412" lon="11.6163661"><ele>235.0</ele><time>2026-04-26T14:29:08.853Z</time></trkpt><trkpt lat="43.4494648" lon="11.6162445"><ele>233.5</ele><time>2026-04-26T14:29:09.853Z</time></trkpt><trkpt lat="43.4496939" lon="11.6161309"><ele>232.0</ele><time>2026-04-26T14:29:10.853Z</time></trkpt><trkpt lat="43.4499229" lon="11.6160157"><ele>232.0</ele><time>2026-04-26T14:29:11.853Z</time></trkpt><trkpt lat="43.4501535" lon="11.6159009"><ele>232.0</ele><time>2026-04-26T14:29:12.853Z</time></trkpt><trkpt lat="43.4503889" lon="11.6157852"><ele>233.5</ele><time>2026-04-26T14:29:13.853Z</time></trkpt><trkpt lat="43.450622" lon="11.6156664"><ele>235.0</ele><time>2026-04-26T14:29:14.853Z</time></trkpt><trkpt lat="43.4508545" lon="11.61554"><ele>235.0</ele><time>2026-04-26T14:29:15.853Z</time></trkpt><trkpt lat="43.4510952" lon="11.6154143"><ele>235.0</ele><time>2026-04-26T14:29:16.853Z</time></trkpt><trkpt lat="43.4513303" lon="11.6152945"><ele>233.0</ele><time>2026-04-26T14:29:17.853Z</time></trkpt><trkpt lat="43.4515647" lon="11.6151769"><ele>231.0</ele><time>2026-04-26T14:29:18.853Z</time></trkpt><trkpt lat="43.4517952" lon="11.6150578"><ele>231.0</ele><time>2026-04-26T14:29:19.853Z</time></trkpt><trkpt lat="43.4520235" lon="11.6149445"><ele>231.0</ele><time>2026-04-26T14:29:20.853Z</time></trkpt><trkpt lat="43.4522439" lon="11.6148324"><ele>232.0</ele><time>2026-04-26T14:29:21.853Z</time></trkpt><trkpt lat="43.4524579" lon="11.6147234"><ele>233.0</ele><time>2026-04-26T14:29:22.852Z</time></trkpt><trkpt lat="43.4526574" lon="11.6146192"><ele>234.0</ele><time>2026-04-26T14:29:23.853Z</time></trkpt><trkpt lat="43.4528514" lon="11.6145198"><ele>232.66666666666669</ele><time>2026-04-26T14:29:24.853Z</time></trkpt><trkpt lat="43.4530361" lon="11.6144264"><ele>231.33333333333334</ele><time>2026-04-26T14:29:25.853Z</time></trkpt><trkpt lat="43.4532116" lon="11.6143629"><ele>230.0</ele><time>2026-04-26T14:29:26.853Z</time></trkpt><trkpt lat="43.4533846" lon="11.6143377"><ele>230.0</ele><time>2026-04-26T14:29:27.853Z</time></trkpt><trkpt lat="43.4535726" lon="11.6143599"><ele>230.0</ele><time>2026-04-26T14:29:28.852Z</time></trkpt><trkpt lat="43.453754" lon="11.6144106"><ele>230.0</ele><time>2026-04-26T14:29:29.853Z</time></trkpt><trkpt lat="43.4539176" lon="11.6144699"><ele>230.0</ele><time>2026-04-26T14:29:30.853Z</time></trkpt><trkpt lat="43.4540677" lon="11.6145502"><ele>230.0</ele><time>2026-04-26T14:29:31.853Z</time></trkpt><trkpt lat="43.454199" lon="11.6146667"><ele>230.0</ele><time>2026-04-26T14:29:32.853Z</time></trkpt><trkpt lat="43.4543092" lon="11.6148262"><ele>230.0</ele><time>2026-04-26T14:29:33.853Z</time></trkpt><trkpt lat="43.4543907" lon="11.61502"><ele>230.0</ele><time>2026-04-26T14:29:34.853Z</time></trkpt><trkpt lat="43.4544753" lon="11.6152064"><ele>230.0</ele><time>2026-04-26T14:29:35.853Z</time></trkpt><trkpt lat="43.4545744" lon="11.6153816"><ele>230.0</ele><time>2026-04-26T14:29:36.853Z</time></trkpt><trkpt lat="43.4546911" lon="11.6155181"><ele>230.0</ele><time>2026-04-26T14:29:37.853Z</time></trkpt><trkpt lat="43.4548264" lon="11.6156122"><ele>230.0</ele><time>2026-04-26T14:29:38.853Z</time></trkpt><trkpt lat="43.4549703" lon="11.6156836"><ele>230.0</ele><time>2026-04-26T14:29:39.853Z</time></trkpt><trkpt lat="43.4551335" lon="11.6157256"><ele>230.0</ele><time>2026-04-26T14:29:40.853Z</time></trkpt><trkpt lat="43.4553199" lon="11.6157167"><ele>230.0</ele><time>2026-04-26T14:29:41.853Z</time></trkpt><trkpt lat="43.4555069" lon="11.6156775"><ele>231.0</ele><time>2026-04-26T14:29:42.853Z</time></trkpt><trkpt lat="43.4556775" lon="11.6156226"><ele>232.0</ele><time>2026-04-26T14:29:43.853Z</time></trkpt><trkpt lat="43.4558366" lon="11.615562"><ele>233.0</ele><time>2026-04-26T14:29:44.852Z</time></trkpt><trkpt lat="43.4559954" lon="11.6155168"><ele>233.0</ele><time>2026-04-26T14:29:45.853Z</time></trkpt><trkpt lat="43.4561574" lon="11.6154757"><ele>233.0</ele><time>2026-04-26T14:29:46.853Z</time></trkpt><trkpt lat="43.4563084" lon="11.6154307"><ele>233.0</ele><time>2026-04-26T14:29:47.853Z</time></trkpt><trkpt lat="43.4564582" lon="11.6153838"><ele>232.66666666666669</ele><time>2026-04-26T14:29:48.853Z</time></trkpt><trkpt lat="43.4566079" lon="11.6153227"><ele>232.33333333333331</ele><time>2026-04-26T14:29:49.853Z</time></trkpt><trkpt lat="43.4567506" lon="11.6152364"><ele>232.0</ele><time>2026-04-26T14:29:50.852Z</time></trkpt><trkpt lat="43.4568855" lon="11.6151132"><ele>232.0</ele><time>2026-04-26T14:29:51.853Z</time></trkpt><trkpt lat="43.4570173" lon="11.6149673"><ele>232.0</ele><time>2026-04-26T14:29:52.853Z</time></trkpt><trkpt lat="43.4571351" lon="11.6148152"><ele>232.0</ele><time>2026-04-26T14:29:53.852Z</time></trkpt><trkpt lat="43.4572457" lon="11.6146589"><ele>231.66666666666666</ele><time>2026-04-26T14:29:54.853Z</time></trkpt><trkpt lat="43.4573466" lon="11.614482"><ele>231.33333333333331</ele><time>2026-04-26T14:29:55.853Z</time></trkpt><trkpt lat="43.4574411" lon="11.6142929"><ele>231.0</ele><time>2026-04-26T14:29:56.853Z</time></trkpt><trkpt lat="43.4575303" lon="11.6140986"><ele>231.0</ele><time>2026-04-26T14:29:57.853Z</time></trkpt><trkpt lat="43.4576262" lon="11.6138992"><ele>231.0</ele><time>2026-04-26T14:29:58.852Z</time></trkpt><trkpt lat="43.4577248" lon="11.6137049"><ele>231.0</ele><time>2026-04-26T14:29:59.853Z</time></trkpt><trkpt lat="43.4578602" lon="11.6135197"><ele>231.0</ele><time>2026-04-26T14:30:00.852Z</time></trkpt><trkpt lat="43.4580158" lon="11.6133359"><ele>231.0</ele><time>2026-04-26T14:30:01.853Z</time></trkpt><trkpt lat="43.4581743" lon="11.6131732"><ele>231.0</ele><time>2026-04-26T14:30:02.853Z</time></trkpt><trkpt lat="43.458337" lon="11.6130235"><ele>231.0</ele><time>2026-04-26T14:30:03.853Z</time></trkpt><trkpt lat="43.4584912" lon="11.612864"><ele>231.0</ele><time>2026-04-26T14:30:04.853Z</time></trkpt><trkpt lat="43.4586545" lon="11.6127091"><ele>231.0</ele><time>2026-04-26T14:30:05.853Z</time></trkpt><trkpt lat="43.4588244" lon="11.6125947"><ele>230.0</ele><time>2026-04-26T14:30:06.853Z</time></trkpt><trkpt lat="43.4589845" lon="11.6124952"><ele>229.0</ele><time>2026-04-26T14:30:07.853Z</time></trkpt><trkpt lat="43.4591428" lon="11.6124275"><ele>228.0</ele><time>2026-04-26T14:30:08.853Z</time></trkpt><trkpt lat="43.459308" lon="11.6123898"><ele>228.0</ele><time>2026-04-26T14:30:09.852Z</time></trkpt><trkpt lat="43.4594877" lon="11.6124195"><ele>228.0</ele><time>2026-04-26T14:30:10.853Z</time></trkpt><trkpt lat="43.4596516" lon="11.6124739"><ele>228.0</ele><time>2026-04-26T14:30:11.853Z</time></trkpt><trkpt lat="43.4597992" lon="11.6125571"><ele>229.0</ele><time>2026-04-26T14:30:12.853Z</time></trkpt><trkpt lat="43.4599352" lon="11.6127165"><ele>230.0</ele><time>2026-04-26T14:30:13.852Z</time></trkpt><trkpt lat="43.460042" lon="11.6129057"><ele>231.0</ele><time>2026-04-26T14:30:14.853Z</time></trkpt><trkpt lat="43.4601231" lon="11.6131035"><ele>231.0</ele><time>2026-04-26T14:30:15.853Z</time></trkpt><trkpt lat="43.4602012" lon="11.6133089"><ele>231.0</ele><time>2026-04-26T14:30:16.853Z</time></trkpt><trkpt lat="43.4603109" lon="11.6134871"><ele>231.0</ele><time>2026-04-26T14:30:17.852Z</time></trkpt><trkpt lat="43.4604556" lon="11.6136502"><ele>230.66666666666669</ele><time>2026-04-26T14:30:18.853Z</time></trkpt><trkpt lat="43.4606152" lon="11.6137836"><ele>230.33333333333334</ele><time>2026-04-26T14:30:19.853Z</time></trkpt><trkpt lat="43.460775" lon="11.6139061"><ele>230.0</ele><time>2026-04-26T14:30:20.853Z</time></trkpt><trkpt lat="43.4609315" lon="11.6140123"><ele>230.0</ele><time>2026-04-26T14:30:21.853Z</time></trkpt><trkpt lat="43.4610778" lon="11.6141136"><ele>230.0</ele><time>2026-04-26T14:30:22.852Z</time></trkpt><trkpt lat="43.4612111" lon="11.6142041"><ele>230.0</ele><time>2026-04-26T14:30:23.853Z</time></trkpt><trkpt lat="43.4613236" lon="11.6142671"><ele>230.0</ele><time>2026-04-26T14:30:24.852Z</time></trkpt><trkpt lat="43.4614315" lon="11.6142771"><ele>228.25</ele><time>2026-04-26T14:30:25.853Z</time></trkpt><trkpt lat="43.4615563" lon="11.6142344"><ele>226.5</ele><time>2026-04-26T14:30:26.853Z</time></trkpt><trkpt lat="43.4616729" lon="11.6141509"><ele>224.75</ele><time>2026-04-26T14:30:27.852Z</time></trkpt><trkpt lat="43.4617922" lon="11.6140415"><ele>223.0</ele><time>2026-04-26T14:30:28.852Z</time></trkpt><trkpt lat="43.4619018" lon="11.6139375"><ele>223.0</ele><time>2026-04-26T14:30:29.853Z</time></trkpt><trkpt lat="43.4620197" lon="11.613834"><ele>223.0</ele><time>2026-04-26T14:30:30.853Z</time></trkpt><trkpt lat="43.4621452" lon="11.6137209"><ele>223.0</ele><time>2026-04-26T14:30:31.853Z</time></trkpt><trkpt lat="43.4622863" lon="11.6136205"><ele>223.0</ele><time>2026-04-26T14:30:32.853Z</time></trkpt><trkpt lat="43.4624451" lon="11.6135335"><ele>222.33333333333331</ele><time>2026-04-26T14:30:33.852Z</time></trkpt><trkpt lat="43.4626293" lon="11.6134644"><ele>221.66666666666669</ele><time>2026-04-26T14:30:34.853Z</time></trkpt><trkpt lat="43.4628273" lon="11.613405"><ele>221.0</ele><time>2026-04-26T14:30:35.853Z</time></trkpt><trkpt lat="43.4630351" lon="11.6133519"><ele>222.33333333333334</ele><time>2026-04-26T14:30:36.853Z</time></trkpt><trkpt lat="43.463253" lon="11.6133135"><ele>223.66666666666669</ele><time>2026-04-26T14:30:37.852Z</time></trkpt><trkpt lat="43.4634759" lon="11.613269"><ele>225.0</ele><time>2026-04-26T14:30:38.853Z</time></trkpt><trkpt lat="43.4636963" lon="11.6132181"><ele>226.66666666666669</ele><time>2026-04-26T14:30:39.853Z</time></trkpt><trkpt lat="43.4639124" lon="11.613163"><ele>228.33333333333334</ele><time>2026-04-26T14:30:40.853Z</time></trkpt><trkpt lat="43.4641277" lon="11.6131108"><ele>230.0</ele><time>2026-04-26T14:30:41.853Z</time></trkpt><trkpt lat="43.46434" lon="11.6130551"><ele>230.0</ele><time>2026-04-26T14:30:42.852Z</time></trkpt><trkpt lat="43.4645511" lon="11.6129979"><ele>230.0</ele><time>2026-04-26T14:30:43.853Z</time></trkpt><trkpt lat="43.4647567" lon="11.6129415"><ele>230.0</ele><time>2026-04-26T14:30:44.853Z</time></trkpt><trkpt lat="43.4649695" lon="11.6128818"><ele>232.5</ele><time>2026-04-26T14:30:45.853Z</time></trkpt><trkpt lat="43.465191" lon="11.6128265"><ele>235.0</ele><time>2026-04-26T14:30:46.853Z</time></trkpt><trkpt lat="43.46542" lon="11.6127647"><ele>235.0</ele><time>2026-04-26T14:30:47.853Z</time></trkpt><trkpt lat="43.4656549" lon="11.6127074"><ele>235.0</ele><time>2026-04-26T14:30:48.852Z</time></trkpt><trkpt lat="43.4658846" lon="11.6126571"><ele>235.0</ele><time>2026-04-26T14:30:49.853Z</time></trkpt><trkpt lat="43.4661011" lon="11.6126087"><ele>235.0</ele><time>2026-04-26T14:30:50.853Z</time></trkpt><trkpt lat="43.4663104" lon="11.6125565"><ele>235.0</ele><time>2026-04-26T14:30:51.852Z</time></trkpt><trkpt lat="43.4665062" lon="11.6125055"><ele>234.33333333333331</ele><time>2026-04-26T14:30:52.853Z</time></trkpt><trkpt lat="43.4666929" lon="11.612463"><ele>233.66666666666669</ele><time>2026-04-26T14:30:53.853Z</time></trkpt><trkpt lat="43.4668736" lon="11.6124328"><ele>233.0</ele><time>2026-04-26T14:30:54.853Z</time></trkpt><trkpt lat="43.4670535" lon="11.6124257"><ele>233.33333333333334</ele><time>2026-04-26T14:30:55.853Z</time></trkpt><trkpt lat="43.4672257" lon="11.6124395"><ele>233.66666666666669</ele><time>2026-04-26T14:30:56.853Z</time></trkpt><trkpt lat="43.4673908" lon="11.6124711"><ele>234.0</ele><time>2026-04-26T14:30:57.852Z</time></trkpt><trkpt lat="43.4675426" lon="11.6125264"><ele>234.0</ele><time>2026-04-26T14:30:58.853Z</time></trkpt><trkpt lat="43.4676875" lon="11.6126011"><ele>234.0</ele><time>2026-04-26T14:30:59.852Z</time></trkpt><trkpt lat="43.4678265" lon="11.6126855"><ele>234.0</ele><time>2026-04-26T14:31:00.853Z</time></trkpt><trkpt lat="43.4679547" lon="11.612791"><ele>234.0</ele><time>2026-04-26T14:31:01.853Z</time></trkpt><trkpt lat="43.4680778" lon="11.6129102"><ele>234.0</ele><time>2026-04-26T14:31:02.852Z</time></trkpt><trkpt lat="43.4681953" lon="11.6130266"><ele>234.0</ele><time>2026-04-26T14:31:03.853Z</time></trkpt><trkpt lat="43.4683126" lon="11.6131517"><ele>234.0</ele><time>2026-04-26T14:31:04.853Z</time></trkpt><trkpt lat="43.4684297" lon="11.6132714"><ele>234.0</ele><time>2026-04-26T14:31:05.853Z</time></trkpt><trkpt lat="43.4685456" lon="11.6133894"><ele>234.0</ele><time>2026-04-26T14:31:06.852Z</time></trkpt><trkpt lat="43.4686594" lon="11.6135026"><ele>234.0</ele><time>2026-04-26T14:31:07.852Z</time></trkpt><trkpt lat="43.4687712" lon="11.6136109"><ele>234.0</ele><time>2026-04-26T14:31:08.853Z</time></trkpt><trkpt lat="43.4688838" lon="11.613724"><ele>236.0</ele><time>2026-04-26T14:31:09.853Z</time></trkpt><trkpt lat="43.4690066" lon="11.6138445"><ele>238.0</ele><time>2026-04-26T14:31:10.852Z</time></trkpt><trkpt lat="43.4691466" lon="11.613981"><ele>240.0</ele><time>2026-04-26T14:31:11.853Z</time></trkpt><trkpt lat="43.4692952" lon="11.6141219"><ele>240.0</ele><time>2026-04-26T14:31:12.853Z</time></trkpt><trkpt lat="43.4694397" lon="11.6142758"><ele>240.0</ele><time>2026-04-26T14:31:13.853Z</time></trkpt><trkpt lat="43.469575" lon="11.6144239"><ele>240.0</ele><time>2026-04-26T14:31:14.853Z</time></trkpt><trkpt lat="43.4697042" lon="11.6145652"><ele>241.0</ele><time>2026-04-26T14:31:15.853Z</time></trkpt><trkpt lat="43.4698308" lon="11.6146941"><ele>242.0</ele><time>2026-04-26T14:31:16.853Z</time></trkpt><trkpt lat="43.4699608" lon="11.6148005"><ele>243.0</ele><time>2026-04-26T14:31:17.852Z</time></trkpt><trkpt lat="43.4700992" lon="11.6148891"><ele>243.0</ele><time>2026-04-26T14:31:18.853Z</time></trkpt><trkpt lat="43.4702514" lon="11.6149496"><ele>243.0</ele><time>2026-04-26T14:31:19.853Z</time></trkpt><trkpt lat="43.4704215" lon="11.6149828"><ele>243.0</ele><time>2026-04-26T14:31:20.852Z</time></trkpt><trkpt lat="43.4706146" lon="11.6149873"><ele>244.66666666666669</ele><time>2026-04-26T14:31:21.853Z</time></trkpt><trkpt lat="43.4708189" lon="11.6149678"><ele>246.33333333333334</ele><time>2026-04-26T14:31:22.853Z</time></trkpt><trkpt lat="43.4710093" lon="11.6149534"><ele>248.0</ele><time>2026-04-26T14:31:23.852Z</time></trkpt><trkpt lat="43.4711832" lon="11.6149473"><ele>249.0</ele><time>2026-04-26T14:31:24.853Z</time></trkpt><trkpt lat="43.4713404" lon="11.6149735"><ele>250.0</ele><time>2026-04-26T14:31:25.853Z</time></trkpt><trkpt lat="43.4714863" lon="11.6150097"><ele>251.0</ele><time>2026-04-26T14:31:26.852Z</time></trkpt><trkpt lat="43.4716227" lon="11.6150654"><ele>252.0</ele><time>2026-04-26T14:31:27.853Z</time></trkpt><trkpt lat="43.471748" lon="11.6151453"><ele>252.0</ele><time>2026-04-26T14:31:28.853Z</time></trkpt><trkpt lat="43.4718651" lon="11.6152424"><ele>252.0</ele><time>2026-04-26T14:31:29.853Z</time></trkpt><trkpt lat="43.4719825" lon="11.6153489"><ele>252.0</ele><time>2026-04-26T14:31:30.853Z</time></trkpt><trkpt lat="43.4721048" lon="11.6154549"><ele>252.0</ele><time>2026-04-26T14:31:31.852Z</time></trkpt><trkpt lat="43.4722476" lon="11.6155642"><ele>251.66666666666669</ele><time>2026-04-26T14:31:32.852Z</time></trkpt><trkpt lat="43.4724069" lon="11.6156759"><ele>251.33333333333334</ele><time>2026-04-26T14:31:33.853Z</time></trkpt><trkpt lat="43.4725668" lon="11.6157998"><ele>251.0</ele><time>2026-04-26T14:31:34.853Z</time></trkpt><trkpt lat="43.4727444" lon="11.6159173"><ele>251.0</ele><time>2026-04-26T14:31:35.852Z</time></trkpt><trkpt lat="43.4729238" lon="11.6160278"><ele>251.0</ele><time>2026-04-26T14:31:36.852Z</time></trkpt><trkpt lat="43.4731081" lon="11.6161348"><ele>251.0</ele><time>2026-04-26T14:31:37.853Z</time></trkpt><trkpt lat="43.4732916" lon="11.6162424"><ele>250.0</ele><time>2026-04-26T14:31:38.852Z</time></trkpt><trkpt lat="43.473479" lon="11.6163547"><ele>249.0</ele><time>2026-04-26T14:31:39.853Z</time></trkpt><trkpt lat="43.4736719" lon="11.616467"><ele>248.0</ele><time>2026-04-26T14:31:40.853Z</time></trkpt><trkpt lat="43.4738726" lon="11.6165885"><ele>246.33333333333334</ele><time>2026-04-26T14:31:41.852Z</time></trkpt><trkpt lat="43.474074" lon="11.6167112"><ele>244.66666666666669</ele><time>2026-04-26T14:31:42.853Z</time></trkpt><trkpt lat="43.4742782" lon="11.6168328"><ele>243.0</ele><time>2026-04-26T14:31:43.853Z</time></trkpt><trkpt lat="43.4744818" lon="11.6169575"><ele>241.66666666666669</ele><time>2026-04-26T14:31:44.853Z</time></trkpt><trkpt lat="43.4746827" lon="11.6170782"><ele>240.33333333333334</ele><time>2026-04-26T14:31:45.853Z</time></trkpt><trkpt lat="43.4748789" lon="11.6171911"><ele>239.0</ele><time>2026-04-26T14:31:46.853Z</time></trkpt><trkpt lat="43.475066" lon="11.6172965"><ele>239.0</ele><time>2026-04-26T14:31:47.853Z</time></trkpt><trkpt lat="43.4752468" lon="11.6174046"><ele>239.0</ele><time>2026-04-26T14:31:48.853Z</time></trkpt><trkpt lat="43.4754164" lon="11.6175144"><ele>239.0</ele><time>2026-04-26T14:31:49.853Z</time></trkpt><trkpt lat="43.4755865" lon="11.6176221"><ele>240.33333333333334</ele><time>2026-04-26T14:31:50.853Z</time></trkpt><trkpt lat="43.4757505" lon="11.6177251"><ele>241.66666666666669</ele><time>2026-04-26T14:31:51.852Z</time></trkpt><trkpt lat="43.4759147" lon="11.6178303"><ele>243.0</ele><time>2026-04-26T14:31:52.852Z</time></trkpt><trkpt lat="43.4760784" lon="11.6179247"><ele>239.33333333333331</ele><time>2026-04-26T14:31:53.852Z</time></trkpt><trkpt lat="43.4762364" lon="11.6180142"><ele>235.66666666666666</ele><time>2026-04-26T14:31:54.853Z</time></trkpt><trkpt lat="43.4763857" lon="11.6181071"><ele>232.0</ele><time>2026-04-26T14:31:55.853Z</time></trkpt><trkpt lat="43.4765307" lon="11.6182012"><ele>231.66666666666666</ele><time>2026-04-26T14:31:56.853Z</time></trkpt><trkpt lat="43.4766707" lon="11.6183059"><ele>231.33333333333331</ele><time>2026-04-26T14:31:57.853Z</time></trkpt><trkpt lat="43.4768023" lon="11.6184328"><ele>231.0</ele><time>2026-04-26T14:31:58.853Z</time></trkpt><trkpt lat="43.4769211" lon="11.618576"><ele>231.66666666666669</ele><time>2026-04-26T14:31:59.853Z</time></trkpt><trkpt lat="43.4770244" lon="11.6187392"><ele>232.33333333333334</ele><time>2026-04-26T14:32:00.853Z</time></trkpt><trkpt lat="43.4771149" lon="11.6189202"><ele>233.0</ele><time>2026-04-26T14:32:01.853Z</time></trkpt><trkpt lat="43.4771897" lon="11.6191213"><ele>233.0</ele><time>2026-04-26T14:32:02.853Z</time></trkpt><trkpt lat="43.4772614" lon="11.6193445"><ele>233.0</ele><time>2026-04-26T14:32:03.853Z</time></trkpt><trkpt lat="43.4773348" lon="11.6195873"><ele>233.0</ele><time>2026-04-26T14:32:04.853Z</time></trkpt><trkpt lat="43.4774115" lon="11.619844"><ele>231.0</ele><time>2026-04-26T14:32:05.853Z</time></trkpt><trkpt lat="43.4774756" lon="11.6201169"><ele>229.0</ele><time>2026-04-26T14:32:06.852Z</time></trkpt><trkpt lat="43.47754" lon="11.6203784"><ele>227.0</ele><time>2026-04-26T14:32:07.852Z</time></trkpt><trkpt lat="43.4775986" lon="11.6206324"><ele>225.66666666666669</ele><time>2026-04-26T14:32:08.853Z</time></trkpt><trkpt lat="43.4776606" lon="11.6208734"><ele>224.33333333333331</ele><time>2026-04-26T14:32:09.853Z</time></trkpt><trkpt lat="43.4777202" lon="11.621107"><ele>223.0</ele><time>2026-04-26T14:32:10.853Z</time></trkpt><trkpt lat="43.4777766" lon="11.6213266"><ele>222.25</ele><time>2026-04-26T14:32:11.853Z</time></trkpt><trkpt lat="43.4778282" lon="11.6215345"><ele>221.5</ele><time>2026-04-26T14:32:12.852Z</time></trkpt><trkpt lat="43.4778861" lon="11.6217215"><ele>220.75</ele><time>2026-04-26T14:32:13.853Z</time></trkpt><trkpt lat="43.4779574" lon="11.6218886"><ele>220.0</ele><time>2026-04-26T14:32:14.853Z</time></trkpt><trkpt lat="43.4780435" lon="11.6220369"><ele>216.75</ele><time>2026-04-26T14:32:15.852Z</time></trkpt><trkpt lat="43.4781297" lon="11.6221516"><ele>213.5</ele><time>2026-04-26T14:32:16.853Z</time></trkpt><trkpt lat="43.4782338" lon="11.6222397"><ele>210.25</ele><time>2026-04-26T14:32:17.852Z</time></trkpt><trkpt lat="43.4783528" lon="11.6222956"><ele>207.0</ele><time>2026-04-26T14:32:18.853Z</time></trkpt><trkpt lat="43.4784731" lon="11.6223141"><ele>207.0</ele><time>2026-04-26T14:32:19.853Z</time></trkpt><trkpt lat="43.4785975" lon="11.6223156"><ele>207.0</ele><time>2026-04-26T14:32:20.853Z</time></trkpt><trkpt lat="43.4787121" lon="11.6223108"><ele>207.0</ele><time>2026-04-26T14:32:21.852Z</time></trkpt><trkpt lat="43.4788229" lon="11.6223052"><ele>207.0</ele><time>2026-04-26T14:32:22.852Z</time></trkpt><trkpt lat="43.478935" lon="11.6222941"><ele>204.5</ele><time>2026-04-26T14:32:23.852Z</time></trkpt><trkpt lat="43.4790529" lon="11.6222595"><ele>202.0</ele><time>2026-04-26T14:32:24.853Z</time></trkpt><trkpt lat="43.4791759" lon="11.6222017"><ele>199.5</ele><time>2026-04-26T14:32:25.853Z</time></trkpt><trkpt lat="43.4793001" lon="11.6221174"><ele>197.0</ele><time>2026-04-26T14:32:26.853Z</time></trkpt><trkpt lat="43.4794368" lon="11.6220102"><ele>197.66666666666669</ele><time>2026-04-26T14:32:27.853Z</time></trkpt><trkpt lat="43.4795855" lon="11.6219089"><ele>198.33333333333331</ele><time>2026-04-26T14:32:28.853Z</time></trkpt><trkpt lat="43.4797192" lon="11.6218026"><ele>199.0</ele><time>2026-04-26T14:32:29.853Z</time></trkpt><trkpt lat="43.4798463" lon="11.6216999"><ele>199.0</ele><time>2026-04-26T14:32:30.852Z</time></trkpt><trkpt lat="43.4799681" lon="11.6216024"><ele>199.0</ele><time>2026-04-26T14:32:31.853Z</time></trkpt><trkpt lat="43.4800812" lon="11.6215074"><ele>199.0</ele><time>2026-04-26T14:32:32.853Z</time></trkpt><trkpt lat="43.4801902" lon="11.6214165"><ele>199.0</ele><time>2026-04-26T14:32:33.853Z</time></trkpt><trkpt lat="43.4802872" lon="11.6213212"><ele>199.0</ele><time>2026-04-26T14:32:34.853Z</time></trkpt><trkpt lat="43.4803806" lon="11.6212241"><ele>199.0</ele><time>2026-04-26T14:32:35.853Z</time></trkpt><trkpt lat="43.4804773" lon="11.6211258"><ele>199.0</ele><time>2026-04-26T14:32:36.853Z</time></trkpt><trkpt lat="43.4805786" lon="11.6210332"><ele>199.0</ele><time>2026-04-26T14:32:37.853Z</time></trkpt><trkpt lat="43.4806774" lon="11.6209358"><ele>197.6</ele><time>2026-04-26T14:32:38.853Z</time></trkpt><trkpt lat="43.4807645" lon="11.6208561"><ele>196.2</ele><time>2026-04-26T14:32:39.853Z</time></trkpt><trkpt lat="43.4808528" lon="11.6207837"><ele>194.79999999999998</ele><time>2026-04-26T14:32:40.853Z</time></trkpt><trkpt lat="43.4809481" lon="11.6207232"><ele>193.39999999999998</ele><time>2026-04-26T14:32:41.853Z</time></trkpt><trkpt lat="43.4810406" lon="11.6206479"><ele>192.0</ele><time>2026-04-26T14:32:42.853Z</time></trkpt><trkpt lat="43.4811222" lon="11.620554"><ele>192.0</ele><time>2026-04-26T14:32:43.853Z</time></trkpt><trkpt lat="43.4811831" lon="11.6204308"><ele>192.0</ele><time>2026-04-26T14:32:44.853Z</time></trkpt><trkpt lat="43.4812296" lon="11.6203059"><ele>192.0</ele><time>2026-04-26T14:32:45.852Z</time></trkpt><trkpt lat="43.4812727" lon="11.6201657"><ele>192.0</ele><time>2026-04-26T14:32:46.852Z</time></trkpt><trkpt lat="43.48131" lon="11.6200097"><ele>192.0</ele><time>2026-04-26T14:32:47.853Z</time></trkpt><trkpt lat="43.4813466" lon="11.6198486"><ele>190.75</ele><time>2026-04-26T14:32:48.853Z</time></trkpt><trkpt lat="43.4813861" lon="11.6196895"><ele>189.5</ele><time>2026-04-26T14:32:49.853Z</time></trkpt><trkpt lat="43.4814311" lon="11.6195405"><ele>188.25</ele><time>2026-04-26T14:32:50.853Z</time></trkpt><trkpt lat="43.4814848" lon="11.6194025"><ele>187.0</ele><time>2026-04-26T14:32:51.853Z</time></trkpt><trkpt lat="43.4815478" lon="11.619279"><ele>187.0</ele><time>2026-04-26T14:32:52.853Z</time></trkpt><trkpt lat="43.4816271" lon="11.619169"><ele>187.0</ele><time>2026-04-26T14:32:53.853Z</time></trkpt><trkpt lat="43.4817138" lon="11.6190731"><ele>187.0</ele><time>2026-04-26T14:32:54.852Z</time></trkpt><trkpt lat="43.4818013" lon="11.6189912"><ele>187.0</ele><time>2026-04-26T14:32:55.852Z</time></trkpt><trkpt lat="43.481894" lon="11.6189301"><ele>187.0</ele><time>2026-04-26T14:32:56.853Z</time></trkpt><trkpt lat="43.4819918" lon="11.6188575"><ele>187.0</ele><time>2026-04-26T14:32:57.853Z</time></trkpt><trkpt lat="43.4820896" lon="11.6187858"><ele>187.0</ele><time>2026-04-26T14:32:58.853Z</time></trkpt><trkpt lat="43.482189" lon="11.6187129"><ele>187.0</ele><time>2026-04-26T14:32:59.852Z</time></trkpt><trkpt lat="43.4822948" lon="11.6186403"><ele>187.0</ele><time>2026-04-26T14:33:00.853Z</time></trkpt><trkpt lat="43.4824097" lon="11.6185669"><ele>186.25</ele><time>2026-04-26T14:33:01.852Z</time></trkpt><trkpt lat="43.4825198" lon="11.6185002"><ele>185.5</ele><time>2026-04-26T14:33:02.853Z</time></trkpt><trkpt lat="43.4826273" lon="11.6184434"><ele>184.75</ele><time>2026-04-26T14:33:03.853Z</time></trkpt><trkpt lat="43.4827372" lon="11.6184008"><ele>184.0</ele><time>2026-04-26T14:33:04.853Z</time></trkpt><trkpt lat="43.4828504" lon="11.6183768"><ele>183.0</ele><time>2026-04-26T14:33:05.853Z</time></trkpt><trkpt lat="43.4829707" lon="11.6183775"><ele>182.0</ele><time>2026-04-26T14:33:06.853Z</time></trkpt><trkpt lat="43.4830964" lon="11.6184127"><ele>181.0</ele><time>2026-04-26T14:33:07.853Z</time></trkpt><trkpt lat="43.483215" lon="11.6184917"><ele>180.0</ele><time>2026-04-26T14:33:08.853Z</time></trkpt><trkpt lat="43.4833213" lon="11.6185812"><ele>178.25</ele><time>2026-04-26T14:33:09.853Z</time></trkpt><trkpt lat="43.4834168" lon="11.6186865"><ele>176.5</ele><time>2026-04-26T14:33:10.852Z</time></trkpt><trkpt lat="43.4834996" lon="11.6188029"><ele>174.75</ele><time>2026-04-26T14:33:11.852Z</time></trkpt><trkpt lat="43.4835981" lon="11.6189157"><ele>173.0</ele><time>2026-04-26T14:33:12.853Z</time></trkpt><trkpt lat="43.4836951" lon="11.6190347"><ele>173.0</ele><time>2026-04-26T14:33:13.853Z</time></trkpt><trkpt lat="43.4838012" lon="11.6191637"><ele>173.0</ele><time>2026-04-26T14:33:14.853Z</time></trkpt><trkpt lat="43.4839104" lon="11.6193018"><ele>173.0</ele><time>2026-04-26T14:33:15.853Z</time></trkpt><trkpt lat="43.4840333" lon="11.619446"><ele>174.0</ele><time>2026-04-26T14:33:16.853Z</time></trkpt><trkpt lat="43.484173" lon="11.6195952"><ele>175.0</ele><time>2026-04-26T14:33:17.853Z</time></trkpt><trkpt lat="43.4843272" lon="11.6197667"><ele>176.0</ele><time>2026-04-26T14:33:18.852Z</time></trkpt><trkpt lat="43.4844701" lon="11.619949"><ele>176.0</ele><time>2026-04-26T14:33:19.853Z</time></trkpt><trkpt lat="43.4845999" lon="11.6201302"><ele>176.0</ele><time>2026-04-26T14:33:20.853Z</time></trkpt><trkpt lat="43.4847204" lon="11.6202872"><ele>176.0</ele><time>2026-04-26T14:33:21.853Z</time></trkpt><trkpt lat="43.48483" lon="11.6204323"><ele>176.0</ele><time>2026-04-26T14:33:22.852Z</time></trkpt><trkpt lat="43.4849388" lon="11.6205716"><ele>176.0</ele><time>2026-04-26T14:33:23.852Z</time></trkpt><trkpt lat="43.4850384" lon="11.6207018"><ele>176.0</ele><time>2026-04-26T14:33:24.853Z</time></trkpt><trkpt lat="43.485137" lon="11.6208192"><ele>176.0</ele><time>2026-04-26T14:33:25.853Z</time></trkpt><trkpt lat="43.4852382" lon="11.6209446"><ele>176.0</ele><time>2026-04-26T14:33:26.853Z</time></trkpt><trkpt lat="43.4853353" lon="11.621071"><ele>176.0</ele><time>2026-04-26T14:33:27.853Z</time></trkpt><trkpt lat="43.4854316" lon="11.6211961"><ele>176.0</ele><time>2026-04-26T14:33:28.853Z</time></trkpt><trkpt lat="43.4855244" lon="11.621321"><ele>176.0</ele><time>2026-04-26T14:33:29.853Z</time></trkpt><trkpt lat="43.4856195" lon="11.6214425"><ele>176.5</ele><time>2026-04-26T14:33:30.853Z</time></trkpt><trkpt lat="43.4857147" lon="11.6215621"><ele>177.0</ele><time>2026-04-26T14:33:31.853Z</time></trkpt><trkpt lat="43.4858112" lon="11.6216786"><ele>177.5</ele><time>2026-04-26T14:33:32.852Z</time></trkpt><trkpt lat="43.4859106" lon="11.6217754"><ele>178.0</ele><time>2026-04-26T14:33:33.853Z</time></trkpt><trkpt lat="43.4860363" lon="11.6218471"><ele>178.0</ele><time>2026-04-26T14:33:34.853Z</time></trkpt><trkpt lat="43.4861988" lon="11.6219029"><ele>178.0</ele><time>2026-04-26T14:33:35.853Z</time></trkpt><trkpt lat="43.4863647" lon="11.6219765"><ele>178.0</ele><time>2026-04-26T14:33:36.853Z</time></trkpt><trkpt lat="43.4865452" lon="11.6220456"><ele>182.66666666666669</ele><time>2026-04-26T14:33:37.853Z</time></trkpt><trkpt lat="43.486728" lon="11.6221145"><ele>187.33333333333334</ele><time>2026-04-26T14:33:38.852Z</time></trkpt><trkpt lat="43.4869053" lon="11.6221816"><ele>192.0</ele><time>2026-04-26T14:33:39.852Z</time></trkpt><trkpt lat="43.4870772" lon="11.622249"><ele>190.66666666666666</ele><time>2026-04-26T14:33:40.853Z</time></trkpt><trkpt lat="43.4872337" lon="11.6223146"><ele>189.33333333333331</ele><time>2026-04-26T14:33:41.853Z</time></trkpt><trkpt lat="43.4873857" lon="11.6223616"><ele>188.0</ele><time>2026-04-26T14:33:42.853Z</time></trkpt><trkpt lat="43.487554" lon="11.6223721"><ele>188.0</ele><time>2026-04-26T14:33:43.853Z</time></trkpt><trkpt lat="43.4877428" lon="11.6223207"><ele>188.0</ele><time>2026-04-26T14:33:44.853Z</time></trkpt><trkpt lat="43.4879258" lon="11.6222163"><ele>188.0</ele><time>2026-04-26T14:33:45.853Z</time></trkpt><trkpt lat="43.4881013" lon="11.6221183"><ele>190.33333333333331</ele><time>2026-04-26T14:33:46.853Z</time></trkpt><trkpt lat="43.4882708" lon="11.6220256"><ele>192.66666666666666</ele><time>2026-04-26T14:33:47.852Z</time></trkpt><trkpt lat="43.4884391" lon="11.6219383"><ele>195.0</ele><time>2026-04-26T14:33:48.853Z</time></trkpt><trkpt lat="43.4885935" lon="11.6218548"><ele>192.75</ele><time>2026-04-26T14:33:49.852Z</time></trkpt><trkpt lat="43.4887365" lon="11.6217784"><ele>190.5</ele><time>2026-04-26T14:33:50.853Z</time></trkpt><trkpt lat="43.4888637" lon="11.621704"><ele>188.25</ele><time>2026-04-26T14:33:51.853Z</time></trkpt><trkpt lat="43.4889816" lon="11.621631"><ele>186.0</ele><time>2026-04-26T14:33:52.853Z</time></trkpt><trkpt lat="43.4890851" lon="11.6215539"><ele>186.0</ele><time>2026-04-26T14:33:53.853Z</time></trkpt><trkpt lat="43.489176" lon="11.6214464"><ele>186.0</ele><time>2026-04-26T14:33:54.853Z</time></trkpt><trkpt lat="43.4892609" lon="11.6213283"><ele>186.0</ele><time>2026-04-26T14:33:55.853Z</time></trkpt><trkpt lat="43.4893389" lon="11.6211975"><ele>186.0</ele><time>2026-04-26T14:33:56.852Z</time></trkpt><trkpt lat="43.4893993" lon="11.6210467"><ele>183.0</ele><time>2026-04-26T14:33:57.852Z</time></trkpt><trkpt lat="43.4894262" lon="11.6208865"><ele>180.0</ele><time>2026-04-26T14:33:58.852Z</time></trkpt><trkpt lat="43.4894389" lon="11.6207154"><ele>177.0</ele><time>2026-04-26T14:33:59.853Z</time></trkpt><trkpt lat="43.4894447" lon="11.6205341"><ele>174.0</ele><time>2026-04-26T14:34:00.852Z</time></trkpt><trkpt lat="43.4894455" lon="11.6203441"><ele>173.0</ele><time>2026-04-26T14:34:01.853Z</time></trkpt><trkpt lat="43.4894403" lon="11.6201454"><ele>172.0</ele><time>2026-04-26T14:34:02.852Z</time></trkpt><trkpt lat="43.4894405" lon="11.6199506"><ele>171.0</ele><time>2026-04-26T14:34:03.853Z</time></trkpt><trkpt lat="43.4894363" lon="11.6197587"><ele>170.0</ele><time>2026-04-26T14:34:04.853Z</time></trkpt><trkpt lat="43.4894368" lon="11.6195656"><ele>169.5</ele><time>2026-04-26T14:34:05.853Z</time></trkpt><trkpt lat="43.4894354" lon="11.6193843"><ele>169.0</ele><time>2026-04-26T14:34:06.852Z</time></trkpt><trkpt lat="43.4894329" lon="11.6192012"><ele>168.5</ele><time>2026-04-26T14:34:07.852Z</time></trkpt><trkpt lat="43.4894339" lon="11.6190262"><ele>168.0</ele><time>2026-04-26T14:34:08.852Z</time></trkpt><trkpt lat="43.4894489" lon="11.6188609"><ele>168.0</ele><time>2026-04-26T14:34:09.853Z</time></trkpt><trkpt lat="43.4894877" lon="11.6187136"><ele>168.0</ele><time>2026-04-26T14:34:10.852Z</time></trkpt><trkpt lat="43.4895577" lon="11.6185815"><ele>168.0</ele><time>2026-04-26T14:34:11.853Z</time></trkpt><trkpt lat="43.4896527" lon="11.6184777"><ele>168.0</ele><time>2026-04-26T14:34:12.853Z</time></trkpt><trkpt lat="43.4897704" lon="11.6183975"><ele>167.75</ele><time>2026-04-26T14:34:13.853Z</time></trkpt><trkpt lat="43.4898911" lon="11.6183327"><ele>167.5</ele><time>2026-04-26T14:34:14.853Z</time></trkpt><trkpt lat="43.4900304" lon="11.6182898"><ele>167.25</ele><time>2026-04-26T14:34:15.853Z</time></trkpt><trkpt lat="43.4901703" lon="11.6182607"><ele>167.0</ele><time>2026-04-26T14:34:16.852Z</time></trkpt><trkpt lat="43.490315" lon="11.6182511"><ele>166.25</ele><time>2026-04-26T14:34:17.853Z</time></trkpt><trkpt lat="43.4904557" lon="11.6182675"><ele>165.5</ele><time>2026-04-26T14:34:18.853Z</time></trkpt><trkpt lat="43.4905871" lon="11.618301"><ele>164.75</ele><time>2026-04-26T14:34:19.852Z</time></trkpt><trkpt lat="43.4907069" lon="11.6183437"><ele>164.0</ele><time>2026-04-26T14:34:20.853Z</time></trkpt><trkpt lat="43.4908243" lon="11.6183989"><ele>164.0</ele><time>2026-04-26T14:34:21.853Z</time></trkpt><trkpt lat="43.4909288" lon="11.6184566"><ele>164.0</ele><time>2026-04-26T14:34:22.853Z</time></trkpt><trkpt lat="43.4910354" lon="11.6185036"><ele>164.0</ele><time>2026-04-26T14:34:23.853Z</time></trkpt><trkpt lat="43.4911429" lon="11.618538"><ele>164.0</ele><time>2026-04-26T14:34:24.853Z</time></trkpt><trkpt lat="43.4912531" lon="11.6185338"><ele>164.0</ele><time>2026-04-26T14:34:25.853Z</time></trkpt><trkpt lat="43.4913747" lon="11.6185225"><ele>164.39999999999998</ele><time>2026-04-26T14:34:26.853Z</time></trkpt><trkpt lat="43.4914913" lon="11.6185092"><ele>164.8</ele><time>2026-04-26T14:34:27.853Z</time></trkpt><trkpt lat="43.4915998" lon="11.6184869"><ele>165.2</ele><time>2026-04-26T14:34:28.853Z</time></trkpt><trkpt lat="43.4917034" lon="11.6184625"><ele>165.60000000000002</ele><time>2026-04-26T14:34:29.852Z</time></trkpt><trkpt lat="43.4917913" lon="11.6184412"><ele>166.0</ele><time>2026-04-26T14:34:30.853Z</time></trkpt><trkpt lat="43.4918667" lon="11.6184333"><ele>166.0</ele><time>2026-04-26T14:34:31.852Z</time></trkpt><trkpt lat="43.4919426" lon="11.6184319"><ele>166.0</ele><time>2026-04-26T14:34:32.853Z</time></trkpt><trkpt lat="43.4920097" lon="11.6184588"><ele>166.0</ele><time>2026-04-26T14:34:33.852Z</time></trkpt><trkpt lat="43.4920636" lon="11.6185204"><ele>166.0</ele><time>2026-04-26T14:34:34.853Z</time></trkpt><trkpt lat="43.4921045" lon="11.6186002"><ele>166.0</ele><time>2026-04-26T14:34:35.853Z</time></trkpt><trkpt lat="43.4921159" lon="11.618709"><ele>166.0</ele><time>2026-04-26T14:34:36.853Z</time></trkpt><trkpt lat="43.4920944" lon="11.6188285"><ele>168.60000000000002</ele><time>2026-04-26T14:34:37.853Z</time></trkpt><trkpt lat="43.49204" lon="11.6189197"><ele>171.2</ele><time>2026-04-26T14:34:38.852Z</time></trkpt><trkpt lat="43.4919478" lon="11.618975"><ele>173.8</ele><time>2026-04-26T14:34:39.853Z</time></trkpt><trkpt lat="43.4918536" lon="11.6190057"><ele>176.39999999999998</ele><time>2026-04-26T14:34:40.852Z</time></trkpt><trkpt lat="43.491762" lon="11.61902"><ele>179.0</ele><time>2026-04-26T14:34:41.853Z</time></trkpt><trkpt lat="43.4916746" lon="11.6190346"><ele>179.00000000000003</ele><time>2026-04-26T14:34:42.853Z</time></trkpt><trkpt lat="43.4915877" lon="11.6190477"><ele>179.0</ele><time>2026-04-26T14:34:43.852Z</time></trkpt><trkpt lat="43.4915053" lon="11.6190623"><ele>179.0</ele><time>2026-04-26T14:34:44.853Z</time></trkpt><trkpt lat="43.4914348" lon="11.6190601"><ele>179.0</ele><time>2026-04-26T14:34:45.853Z</time></trkpt><trkpt lat="43.491366" lon="11.6190371"><ele>179.0</ele><time>2026-04-26T14:34:46.853Z</time></trkpt><trkpt lat="43.4913078" lon="11.6189922"><ele>179.00000000000003</ele><time>2026-04-26T14:34:47.852Z</time></trkpt><trkpt lat="43.491278" lon="11.6189057"><ele>179.0</ele><time>2026-04-26T14:34:48.853Z</time></trkpt><trkpt lat="43.4912589" lon="11.6188067"><ele>179.0</ele><time>2026-04-26T14:34:49.853Z</time></trkpt><trkpt lat="43.4912732" lon="11.6186872"><ele>179.0</ele><time>2026-04-26T14:34:50.852Z</time></trkpt><trkpt lat="43.491312" lon="11.6185667"><ele>179.0</ele><time>2026-04-26T14:34:51.853Z</time></trkpt><trkpt lat="43.4913776" lon="11.6184452"><ele>179.0</ele><time>2026-04-26T14:34:52.852Z</time></trkpt><trkpt lat="43.4914454" lon="11.6183356"><ele>179.0</ele><time>2026-04-26T14:34:53.853Z</time></trkpt><trkpt lat="43.4915146" lon="11.6182035"><ele>174.66666666666666</ele><time>2026-04-26T14:34:54.853Z</time></trkpt><trkpt lat="43.4915907" lon="11.6180458"><ele>170.33333333333334</ele><time>2026-04-26T14:34:55.852Z</time></trkpt><trkpt lat="43.4916852" lon="11.6178645"><ele>166.0</ele><time>2026-04-26T14:34:56.853Z</time></trkpt><trkpt lat="43.4917935" lon="11.6176767"><ele>164.0</ele><time>2026-04-26T14:34:57.853Z</time></trkpt><trkpt lat="43.4919136" lon="11.6174746"><ele>162.0</ele><time>2026-04-26T14:34:58.853Z</time></trkpt><trkpt lat="43.4920385" lon="11.6172682"><ele>160.0</ele><time>2026-04-26T14:34:59.853Z</time></trkpt><trkpt lat="43.4921657" lon="11.6170632"><ele>161.66666666666669</ele><time>2026-04-26T14:35:00.852Z</time></trkpt><trkpt lat="43.4922917" lon="11.6168742"><ele>163.33333333333334</ele><time>2026-04-26T14:35:01.853Z</time></trkpt><trkpt lat="43.4924333" lon="11.6167091"><ele>165.0</ele><time>2026-04-26T14:35:02.852Z</time></trkpt><trkpt lat="43.4925759" lon="11.616567"><ele>165.0</ele><time>2026-04-26T14:35:03.853Z</time></trkpt><trkpt lat="43.4927217" lon="11.6164484"><ele>165.0</ele><time>2026-04-26T14:35:04.853Z</time></trkpt><trkpt lat="43.4928582" lon="11.6163517"><ele>165.0</ele><time>2026-04-26T14:35:05.853Z</time></trkpt><trkpt lat="43.4929871" lon="11.6162877"><ele>164.8</ele><time>2026-04-26T14:35:06.853Z</time></trkpt><trkpt lat="43.4931097" lon="11.6162648"><ele>164.6</ele><time>2026-04-26T14:35:07.852Z</time></trkpt><trkpt lat="43.4932212" lon="11.6162704"><ele>164.39999999999998</ele><time>2026-04-26T14:35:08.852Z</time></trkpt><trkpt lat="43.493328" lon="11.6162546"><ele>164.2</ele><time>2026-04-26T14:35:09.852Z</time></trkpt><trkpt lat="43.4934228" lon="11.6161974"><ele>164.0</ele><time>2026-04-26T14:35:10.853Z</time></trkpt><trkpt lat="43.4935153" lon="11.6160854"><ele>164.0</ele><time>2026-04-26T14:35:11.853Z</time></trkpt><trkpt lat="43.4936047" lon="11.6159403"><ele>164.0</ele><time>2026-04-26T14:35:12.853Z</time></trkpt><trkpt lat="43.4937254" lon="11.6158047"><ele>164.0</ele><time>2026-04-26T14:35:13.853Z</time></trkpt><trkpt lat="43.4938659" lon="11.6156934"><ele>163.0</ele><time>2026-04-26T14:35:14.853Z</time></trkpt><trkpt lat="43.4940227" lon="11.615592"><ele>162.0</ele><time>2026-04-26T14:35:15.853Z</time></trkpt><trkpt lat="43.494179" lon="11.6154889"><ele>161.0</ele><time>2026-04-26T14:35:16.853Z</time></trkpt><trkpt lat="43.4943427" lon="11.6153859"><ele>161.33333333333331</ele><time>2026-04-26T14:35:17.853Z</time></trkpt><trkpt lat="43.4945125" lon="11.6152786"><ele>161.66666666666666</ele><time>2026-04-26T14:35:18.853Z</time></trkpt><trkpt lat="43.4946874" lon="11.6151687"><ele>162.0</ele><time>2026-04-26T14:35:19.853Z</time></trkpt><trkpt lat="43.4948704" lon="11.6150652"><ele>161.33333333333334</ele><time>2026-04-26T14:35:20.853Z</time></trkpt><trkpt lat="43.495061" lon="11.6149766"><ele>160.66666666666669</ele><time>2026-04-26T14:35:21.853Z</time></trkpt><trkpt lat="43.4952628" lon="11.6149139"><ele>160.0</ele><time>2026-04-26T14:35:22.853Z</time></trkpt><trkpt lat="43.4954741" lon="11.6148683"><ele>159.33333333333334</ele><time>2026-04-26T14:35:23.853Z</time></trkpt><trkpt lat="43.4956975" lon="11.6148451"><ele>158.66666666666666</ele><time>2026-04-26T14:35:24.853Z</time></trkpt><trkpt lat="43.4959192" lon="11.6148456"><ele>158.0</ele><time>2026-04-26T14:35:25.852Z</time></trkpt><trkpt lat="43.496144" lon="11.614853"><ele>158.0</ele><time>2026-04-26T14:35:26.853Z</time></trkpt><trkpt lat="43.4963654" lon="11.6148399"><ele>158.0</ele><time>2026-04-26T14:35:27.853Z</time></trkpt><trkpt lat="43.4965853" lon="11.6147831"><ele>158.0</ele><time>2026-04-26T14:35:28.853Z</time></trkpt><trkpt lat="43.4967989" lon="11.6146979"><ele>158.0</ele><time>2026-04-26T14:35:29.853Z</time></trkpt><trkpt lat="43.4970102" lon="11.6145878"><ele>158.0</ele><time>2026-04-26T14:35:30.853Z</time></trkpt><trkpt lat="43.4972173" lon="11.6144545"><ele>160.5</ele><time>2026-04-26T14:35:31.853Z</time></trkpt><trkpt lat="43.4974201" lon="11.6143031"><ele>163.0</ele><time>2026-04-26T14:35:32.853Z</time></trkpt><trkpt lat="43.4976197" lon="11.6141369"><ele>163.0</ele><time>2026-04-26T14:35:33.853Z</time></trkpt><trkpt lat="43.4978239" lon="11.6139707"><ele>163.0</ele><time>2026-04-26T14:35:34.853Z</time></trkpt><trkpt lat="43.49803" lon="11.6138062"><ele>162.5</ele><time>2026-04-26T14:35:35.853Z</time></trkpt><trkpt lat="43.498235" lon="11.6136376"><ele>162.0</ele><time>2026-04-26T14:35:36.853Z</time></trkpt><trkpt lat="43.4984414" lon="11.6134656"><ele>162.0</ele><time>2026-04-26T14:35:37.853Z</time></trkpt><trkpt lat="43.498647" lon="11.6132896"><ele>162.0</ele><time>2026-04-26T14:35:38.853Z</time></trkpt><trkpt lat="43.498855" lon="11.6131223"><ele>160.0</ele><time>2026-04-26T14:35:39.853Z</time></trkpt><trkpt lat="43.4990622" lon="11.61295"><ele>158.0</ele><time>2026-04-26T14:35:40.853Z</time></trkpt><trkpt lat="43.4992755" lon="11.6127786"><ele>158.0</ele><time>2026-04-26T14:35:41.852Z</time></trkpt><trkpt lat="43.4994882" lon="11.6125994"><ele>158.0</ele><time>2026-04-26T14:35:42.853Z</time></trkpt><trkpt lat="43.4997049" lon="11.612421"><ele>156.0</ele><time>2026-04-26T14:35:43.852Z</time></trkpt><trkpt lat="43.4999234" lon="11.6122398"><ele>154.0</ele><time>2026-04-26T14:35:44.852Z</time></trkpt><trkpt lat="43.5001483" lon="11.6120596"><ele>153.5</ele><time>2026-04-26T14:35:45.852Z</time></trkpt><trkpt lat="43.5003677" lon="11.6118756"><ele>153.0</ele><time>2026-04-26T14:35:46.852Z</time></trkpt><trkpt lat="43.5005869" lon="11.6116884"><ele>153.0</ele><time>2026-04-26T14:35:47.852Z</time></trkpt><trkpt lat="43.5008022" lon="11.6115027"><ele>153.0</ele><time>2026-04-26T14:35:48.853Z</time></trkpt><trkpt lat="43.5010107" lon="11.6113137"><ele>152.5</ele><time>2026-04-26T14:35:49.853Z</time></trkpt><trkpt lat="43.5012109" lon="11.611126"><ele>152.0</ele><time>2026-04-26T14:35:50.853Z</time></trkpt><trkpt lat="43.501403" lon="11.610944"><ele>152.0</ele><time>2026-04-26T14:35:51.853Z</time></trkpt><trkpt lat="43.5015811" lon="11.6107709"><ele>152.0</ele><time>2026-04-26T14:35:52.853Z</time></trkpt><trkpt lat="43.5017535" lon="11.610606"><ele>152.0</ele><time>2026-04-26T14:35:53.853Z</time></trkpt><trkpt lat="43.501916" lon="11.6104552"><ele>152.0</ele><time>2026-04-26T14:35:54.853Z</time></trkpt><trkpt lat="43.5020733" lon="11.6103159"><ele>152.0</ele><time>2026-04-26T14:35:55.853Z</time></trkpt><trkpt lat="43.5022352" lon="11.6101844"><ele>152.0</ele><time>2026-04-26T14:35:56.853Z</time></trkpt><trkpt lat="43.5023956" lon="11.6100835"><ele>152.0</ele><time>2026-04-26T14:35:57.853Z</time></trkpt><trkpt lat="43.5025464" lon="11.6100493"><ele>152.0</ele><time>2026-04-26T14:35:58.853Z</time></trkpt><trkpt lat="43.5027038" lon="11.6100347"><ele>152.0</ele><time>2026-04-26T14:35:59.853Z</time></trkpt><trkpt lat="43.5028597" lon="11.6100494"><ele>151.5</ele><time>2026-04-26T14:36:00.853Z</time></trkpt><trkpt lat="43.5030083" lon="11.6100897"><ele>151.0</ele><time>2026-04-26T14:36:01.853Z</time></trkpt><trkpt lat="43.503147" lon="11.6101426"><ele>150.5</ele><time>2026-04-26T14:36:02.853Z</time></trkpt><trkpt lat="43.5032745" lon="11.6102106"><ele>150.0</ele><time>2026-04-26T14:36:03.852Z</time></trkpt><trkpt lat="43.5033834" lon="11.6102902"><ele>150.0</ele><time>2026-04-26T14:36:04.853Z</time></trkpt><trkpt lat="43.5034769" lon="11.6103845"><ele>150.0</ele><time>2026-04-26T14:36:05.852Z</time></trkpt><trkpt lat="43.5035392" lon="11.6105079"><ele>150.0</ele><time>2026-04-26T14:36:06.853Z</time></trkpt><trkpt lat="43.5035709" lon="11.6106723"><ele>150.0</ele><time>2026-04-26T14:36:07.853Z</time></trkpt><trkpt lat="43.503569" lon="11.6108362"><ele>150.0</ele><time>2026-04-26T14:36:08.853Z</time></trkpt><trkpt lat="43.5035513" lon="11.6110128"><ele>150.0</ele><time>2026-04-26T14:36:09.853Z</time></trkpt><trkpt lat="43.5035379" lon="11.611178"><ele>150.0</ele><time>2026-04-26T14:36:10.853Z</time></trkpt><trkpt lat="43.5035273" lon="11.6113247"><ele>150.0</ele><time>2026-04-26T14:36:11.852Z</time></trkpt><trkpt lat="43.5035282" lon="11.6114621"><ele>149.8</ele><time>2026-04-26T14:36:12.853Z</time></trkpt><trkpt lat="43.5035572" lon="11.6115776"><ele>149.6</ele><time>2026-04-26T14:36:13.853Z</time></trkpt><trkpt lat="43.5036145" lon="11.6116748"><ele>149.4</ele><time>2026-04-26T14:36:14.853Z</time></trkpt><trkpt lat="43.503702" lon="11.6117281"><ele>149.2</ele><time>2026-04-26T14:36:15.852Z</time></trkpt><trkpt lat="43.503816" lon="11.6117574"><ele>149.0</ele><time>2026-04-26T14:36:16.853Z</time></trkpt><trkpt lat="43.5039406" lon="11.6118022"><ele>149.66666666666666</ele><time>2026-04-26T14:36:17.853Z</time></trkpt><trkpt lat="43.5040614" lon="11.611903"><ele>150.33333333333334</ele><time>2026-04-26T14:36:18.853Z</time></trkpt><trkpt lat="43.5041786" lon="11.6120276"><ele>151.0</ele><time>2026-04-26T14:36:19.852Z</time></trkpt><trkpt lat="43.5043099" lon="11.6121653"><ele>151.33333333333334</ele><time>2026-04-26T14:36:20.852Z</time></trkpt><trkpt lat="43.5044568" lon="11.6122885"><ele>151.66666666666666</ele><time>2026-04-26T14:36:21.853Z</time></trkpt><trkpt lat="43.504615" lon="11.6123917"><ele>152.0</ele><time>2026-04-26T14:36:22.853Z</time></trkpt><trkpt lat="43.504779" lon="11.6124741"><ele>151.33333333333331</ele><time>2026-04-26T14:36:23.853Z</time></trkpt><trkpt lat="43.5049547" lon="11.6125083"><ele>150.66666666666666</ele><time>2026-04-26T14:36:24.853Z</time></trkpt><trkpt lat="43.5051498" lon="11.6125094"><ele>150.0</ele><time>2026-04-26T14:36:25.853Z</time></trkpt><trkpt lat="43.5053531" lon="11.6124614"><ele>149.66666666666666</ele><time>2026-04-26T14:36:26.853Z</time></trkpt><trkpt lat="43.5055492" lon="11.6123589"><ele>149.33333333333331</ele><time>2026-04-26T14:36:27.853Z</time></trkpt><trkpt lat="43.5057146" lon="11.612196"><ele>149.0</ele><time>2026-04-26T14:36:28.853Z</time></trkpt><trkpt lat="43.5058653" lon="11.6119933"><ele>148.66666666666666</ele><time>2026-04-26T14:36:29.852Z</time></trkpt><trkpt lat="43.5060139" lon="11.6117788"><ele>148.33333333333334</ele><time>2026-04-26T14:36:30.853Z</time></trkpt><trkpt lat="43.5061609" lon="11.6115496"><ele>148.0</ele><time>2026-04-26T14:36:31.853Z</time></trkpt><trkpt lat="43.5063166" lon="11.6113104"><ele>148.5</ele><time>2026-04-26T14:36:32.853Z</time></trkpt><trkpt lat="43.5064666" lon="11.6110764"><ele>149.0</ele><time>2026-04-26T14:36:33.852Z</time></trkpt><trkpt lat="43.5066224" lon="11.6108378"><ele>149.0</ele><time>2026-04-26T14:36:34.853Z</time></trkpt><trkpt lat="43.5067802" lon="11.610601"><ele>149.0</ele><time>2026-04-26T14:36:35.853Z</time></trkpt><trkpt lat="43.5069326" lon="11.6103593"><ele>148.0</ele><time>2026-04-26T14:36:36.852Z</time></trkpt><trkpt lat="43.5070836" lon="11.6101165"><ele>147.0</ele><time>2026-04-26T14:36:37.853Z</time></trkpt><trkpt lat="43.5072427" lon="11.6098778"><ele>147.0</ele><time>2026-04-26T14:36:38.853Z</time></trkpt><trkpt lat="43.5074112" lon="11.6096481"><ele>147.0</ele><time>2026-04-26T14:36:39.853Z</time></trkpt><trkpt lat="43.5075878" lon="11.6094277"><ele>147.0</ele><time>2026-04-26T14:36:40.853Z</time></trkpt><trkpt lat="43.5077734" lon="11.6092267"><ele>147.0</ele><time>2026-04-26T14:36:41.853Z</time></trkpt><trkpt lat="43.5079639" lon="11.6090444"><ele>147.0</ele><time>2026-04-26T14:36:42.853Z</time></trkpt><trkpt lat="43.5081666" lon="11.6088745"><ele>147.0</ele><time>2026-04-26T14:36:43.853Z</time></trkpt><trkpt lat="43.508382" lon="11.6087217"><ele>149.0</ele><time>2026-04-26T14:36:44.853Z</time></trkpt><trkpt lat="43.5086021" lon="11.6085812"><ele>151.0</ele><time>2026-04-26T14:36:45.853Z</time></trkpt><trkpt lat="43.5088207" lon="11.608441"><ele>151.5</ele><time>2026-04-26T14:36:46.852Z</time></trkpt><trkpt lat="43.5090338" lon="11.6083068"><ele>152.0</ele><time>2026-04-26T14:36:47.853Z</time></trkpt><trkpt lat="43.5092445" lon="11.6081762"><ele>152.0</ele><time>2026-04-26T14:36:48.853Z</time></trkpt><trkpt lat="43.5094515" lon="11.6080467"><ele>152.0</ele><time>2026-04-26T14:36:49.853Z</time></trkpt><trkpt lat="43.5096472" lon="11.6079208"><ele>152.0</ele><time>2026-04-26T14:36:50.852Z</time></trkpt><trkpt lat="43.5098324" lon="11.6078008"><ele>151.0</ele><time>2026-04-26T14:36:51.853Z</time></trkpt><trkpt lat="43.5100116" lon="11.6076924"><ele>150.0</ele><time>2026-04-26T14:36:52.852Z</time></trkpt><trkpt lat="43.5101988" lon="11.6075839"><ele>149.0</ele><time>2026-04-26T14:36:53.853Z</time></trkpt><trkpt lat="43.5103857" lon="11.6074674"><ele>148.33333333333331</ele><time>2026-04-26T14:36:54.852Z</time></trkpt><trkpt lat="43.5105805" lon="11.6073484"><ele>147.66666666666666</ele><time>2026-04-26T14:36:55.853Z</time></trkpt><trkpt lat="43.5107819" lon="11.6072216"><ele>147.0</ele><time>2026-04-26T14:36:56.853Z</time></trkpt><trkpt lat="43.5109768" lon="11.6071003"><ele>147.33333333333334</ele><time>2026-04-26T14:36:57.853Z</time></trkpt><trkpt lat="43.5111592" lon="11.6069859"><ele>147.66666666666669</ele><time>2026-04-26T14:36:58.853Z</time></trkpt><trkpt lat="43.511345" lon="11.606865"><ele>148.0</ele><time>2026-04-26T14:36:59.853Z</time></trkpt><trkpt lat="43.5115371" lon="11.6067247"><ele>148.0</ele><time>2026-04-26T14:37:00.853Z</time></trkpt><trkpt lat="43.5117296" lon="11.6065624"><ele>148.0</ele><time>2026-04-26T14:37:01.853Z</time></trkpt><trkpt lat="43.5119314" lon="11.6063918"><ele>148.0</ele><time>2026-04-26T14:37:02.853Z</time></trkpt><trkpt lat="43.5121349" lon="11.6062057"><ele>148.0</ele><time>2026-04-26T14:37:03.853Z</time></trkpt><trkpt lat="43.5123308" lon="11.6059892"><ele>147.5</ele><time>2026-04-26T14:37:04.853Z</time></trkpt><trkpt lat="43.5125208" lon="11.6057525"><ele>147.0</ele><time>2026-04-26T14:37:05.853Z</time></trkpt><trkpt lat="43.5127053" lon="11.6054994"><ele>146.5</ele><time>2026-04-26T14:37:06.853Z</time></trkpt><trkpt lat="43.5128776" lon="11.6052302"><ele>146.0</ele><time>2026-04-26T14:37:07.852Z</time></trkpt><trkpt lat="43.513042" lon="11.604954"><ele>146.0</ele><time>2026-04-26T14:37:08.853Z</time></trkpt><trkpt lat="43.513188" lon="11.6046757"><ele>146.0</ele><time>2026-04-26T14:37:09.853Z</time></trkpt><trkpt lat="43.5133257" lon="11.6043982"><ele>145.5</ele><time>2026-04-26T14:37:10.853Z</time></trkpt><trkpt lat="43.5134592" lon="11.6041217"><ele>145.0</ele><time>2026-04-26T14:37:11.852Z</time></trkpt><trkpt lat="43.5135882" lon="11.6038452"><ele>146.0</ele><time>2026-04-26T14:37:12.853Z</time></trkpt><trkpt lat="43.5137209" lon="11.6035643"><ele>147.0</ele><time>2026-04-26T14:37:13.852Z</time></trkpt><trkpt lat="43.5138565" lon="11.6032908"><ele>147.0</ele><time>2026-04-26T14:37:14.853Z</time></trkpt><trkpt lat="43.5139914" lon="11.603027"><ele>147.0</ele><time>2026-04-26T14:37:15.853Z</time></trkpt><trkpt lat="43.5141322" lon="11.6027711"><ele>147.0</ele><time>2026-04-26T14:37:16.852Z</time></trkpt><trkpt lat="43.5142735" lon="11.6025263"><ele>147.0</ele><time>2026-04-26T14:37:17.853Z</time></trkpt><trkpt lat="43.5144283" lon="11.6023071"><ele>147.0</ele><time>2026-04-26T14:37:18.853Z</time></trkpt><trkpt lat="43.5145898" lon="11.6021096"><ele>146.33333333333334</ele><time>2026-04-26T14:37:19.853Z</time></trkpt><trkpt lat="43.5147501" lon="11.6019388"><ele>145.66666666666669</ele><time>2026-04-26T14:37:20.853Z</time></trkpt><trkpt lat="43.514915" lon="11.6017722"><ele>145.0</ele><time>2026-04-26T14:37:21.853Z</time></trkpt><trkpt lat="43.5150869" lon="11.6016202"><ele>145.0</ele><time>2026-04-26T14:37:22.853Z</time></trkpt><trkpt lat="43.5152666" lon="11.6014979"><ele>145.0</ele><time>2026-04-26T14:37:23.852Z</time></trkpt><trkpt lat="43.5154411" lon="11.6013936"><ele>145.0</ele><time>2026-04-26T14:37:24.853Z</time></trkpt><trkpt lat="43.5156025" lon="11.6013044"><ele>145.0</ele><time>2026-04-26T14:37:25.853Z</time></trkpt><trkpt lat="43.5157423" lon="11.6012253"><ele>145.0</ele><time>2026-04-26T14:37:26.853Z</time></trkpt><trkpt lat="43.5158786" lon="11.6011525"><ele>145.0</ele><time>2026-04-26T14:37:27.852Z</time></trkpt><trkpt lat="43.5159944" lon="11.6010842"><ele>145.0</ele><time>2026-04-26T14:37:28.852Z</time></trkpt><trkpt lat="43.5161016" lon="11.6010178"><ele>145.0</ele><time>2026-04-26T14:37:29.853Z</time></trkpt><trkpt lat="43.516199" lon="11.6009795"><ele>145.0</ele><time>2026-04-26T14:37:30.852Z</time></trkpt><trkpt lat="43.5163015" lon="11.6009626"><ele>145.0</ele><time>2026-04-26T14:37:31.852Z</time></trkpt><trkpt lat="43.5164021" lon="11.6009484"><ele>145.0</ele><time>2026-04-26T14:37:32.852Z</time></trkpt><trkpt lat="43.5164927" lon="11.6009362"><ele>145.0</ele><time>2026-04-26T14:37:33.853Z</time></trkpt><trkpt lat="43.5165668" lon="11.600888"><ele>145.2</ele><time>2026-04-26T14:37:34.852Z</time></trkpt><trkpt lat="43.5166313" lon="11.6008008"><ele>145.4</ele><time>2026-04-26T14:37:35.853Z</time></trkpt><trkpt lat="43.516689" lon="11.6006821"><ele>145.6</ele><time>2026-04-26T14:37:36.853Z</time></trkpt><trkpt lat="43.5167489" lon="11.6005435"><ele>145.8</ele><time>2026-04-26T14:37:37.853Z</time></trkpt><trkpt lat="43.5168357" lon="11.6004093"><ele>146.0</ele><time>2026-04-26T14:37:38.853Z</time></trkpt><trkpt lat="43.5169344" lon="11.6002683"><ele>146.0</ele><time>2026-04-26T14:37:39.853Z</time></trkpt><trkpt lat="43.5170646" lon="11.6001316"><ele>146.0</ele><time>2026-04-26T14:37:40.853Z</time></trkpt><trkpt lat="43.5172012" lon="11.5999776"><ele>146.0</ele><time>2026-04-26T14:37:41.852Z</time></trkpt><trkpt lat="43.5173149" lon="11.599783"><ele>146.0</ele><time>2026-04-26T14:37:42.852Z</time></trkpt><trkpt lat="43.5174192" lon="11.5995531"><ele>146.0</ele><time>2026-04-26T14:37:43.852Z</time></trkpt><trkpt lat="43.5174961" lon="11.5993"><ele>146.0</ele><time>2026-04-26T14:37:44.853Z</time></trkpt><trkpt lat="43.5175394" lon="11.5990275"><ele>145.66666666666666</ele><time>2026-04-26T14:37:45.852Z</time></trkpt><trkpt lat="43.5175682" lon="11.5987463"><ele>145.33333333333334</ele><time>2026-04-26T14:37:46.853Z</time></trkpt><trkpt lat="43.5175919" lon="11.5984616"><ele>145.0</ele><time>2026-04-26T14:37:47.852Z</time></trkpt><trkpt lat="43.517619" lon="11.5981556"><ele>145.0</ele><time>2026-04-26T14:37:48.852Z</time></trkpt><trkpt lat="43.5176634" lon="11.5978503"><ele>145.0</ele><time>2026-04-26T14:37:49.853Z</time></trkpt><trkpt lat="43.517725" lon="11.5975456"><ele>145.0</ele><time>2026-04-26T14:37:50.853Z</time></trkpt><trkpt lat="43.5178042" lon="11.5972483"><ele>145.0</ele><time>2026-04-26T14:37:51.853Z</time></trkpt><trkpt lat="43.5179032" lon="11.5969584"><ele>144.0</ele><time>2026-04-26T14:37:52.853Z</time></trkpt><trkpt lat="43.5180302" lon="11.596679"><ele>143.0</ele><time>2026-04-26T14:37:53.852Z</time></trkpt><trkpt lat="43.5181718" lon="11.5964139"><ele>143.5</ele><time>2026-04-26T14:37:54.852Z</time></trkpt><trkpt lat="43.5183342" lon="11.5961674"><ele>144.0</ele><time>2026-04-26T14:37:55.853Z</time></trkpt><trkpt lat="43.5185088" lon="11.5959299"><ele>144.0</ele><time>2026-04-26T14:37:56.853Z</time></trkpt><trkpt lat="43.5186946" lon="11.5957073"><ele>144.0</ele><time>2026-04-26T14:37:57.853Z</time></trkpt><trkpt lat="43.5188907" lon="11.5954926"><ele>143.5</ele><time>2026-04-26T14:37:58.853Z</time></trkpt><trkpt lat="43.5190896" lon="11.5952804"><ele>143.0</ele><time>2026-04-26T14:37:59.853Z</time></trkpt><trkpt lat="43.5192905" lon="11.5950724"><ele>143.0</ele><time>2026-04-26T14:38:00.852Z</time></trkpt><trkpt lat="43.5194934" lon="11.5948644"><ele>143.0</ele><time>2026-04-26T14:38:01.853Z</time></trkpt><trkpt lat="43.5196957" lon="11.5946515"><ele>143.5</ele><time>2026-04-26T14:38:02.852Z</time></trkpt><trkpt lat="43.5199012" lon="11.5944404"><ele>144.0</ele><time>2026-04-26T14:38:03.853Z</time></trkpt><trkpt lat="43.5201074" lon="11.5942197"><ele>144.0</ele><time>2026-04-26T14:38:04.853Z</time></trkpt><trkpt lat="43.520313" lon="11.5939946"><ele>144.0</ele><time>2026-04-26T14:38:05.853Z</time></trkpt><trkpt lat="43.520518" lon="11.5937754"><ele>143.0</ele><time>2026-04-26T14:38:06.852Z</time></trkpt><trkpt lat="43.5207239" lon="11.5935633"><ele>142.0</ele><time>2026-04-26T14:38:07.853Z</time></trkpt><trkpt lat="43.5209303" lon="11.5933526"><ele>142.0</ele><time>2026-04-26T14:38:08.853Z</time></trkpt><trkpt lat="43.5211406" lon="11.5931432"><ele>142.0</ele><time>2026-04-26T14:38:09.853Z</time></trkpt><trkpt lat="43.5213489" lon="11.5929301"><ele>142.0</ele><time>2026-04-26T14:38:10.853Z</time></trkpt><trkpt lat="43.521551" lon="11.5927232"><ele>142.0</ele><time>2026-04-26T14:38:11.853Z</time></trkpt><trkpt lat="43.5217559" lon="11.5925038"><ele>142.0</ele><time>2026-04-26T14:38:12.853Z</time></trkpt><trkpt lat="43.5219574" lon="11.5922862"><ele>142.0</ele><time>2026-04-26T14:38:13.853Z</time></trkpt><trkpt lat="43.5221542" lon="11.5920651"><ele>143.0</ele><time>2026-04-26T14:38:14.853Z</time></trkpt><trkpt lat="43.5223555" lon="11.5918416"><ele>144.0</ele><time>2026-04-26T14:38:15.853Z</time></trkpt><trkpt lat="43.5225493" lon="11.5916153"><ele>144.0</ele><time>2026-04-26T14:38:16.852Z</time></trkpt><trkpt lat="43.5227319" lon="11.5913958"><ele>144.0</ele><time>2026-04-26T14:38:17.853Z</time></trkpt><trkpt lat="43.522903" lon="11.5911932"><ele>144.0</ele><time>2026-04-26T14:38:18.853Z</time></trkpt><trkpt lat="43.5230559" lon="11.5910075"><ele>144.0</ele><time>2026-04-26T14:38:19.853Z</time></trkpt><trkpt lat="43.5231835" lon="11.5908309"><ele>144.0</ele><time>2026-04-26T14:38:20.853Z</time></trkpt><trkpt lat="43.5232986" lon="11.5906715"><ele>144.0</ele><time>2026-04-26T14:38:21.853Z</time></trkpt><trkpt lat="43.5234006" lon="11.5905294"><ele>144.0</ele><time>2026-04-26T14:38:22.853Z</time></trkpt><trkpt lat="43.523501" lon="11.5904159"><ele>144.0</ele><time>2026-04-26T14:38:23.853Z</time></trkpt><trkpt lat="43.5236085" lon="11.5903322"><ele>144.0</ele><time>2026-04-26T14:38:24.853Z</time></trkpt><trkpt lat="43.5237497" lon="11.5902702"><ele>143.66666666666666</ele><time>2026-04-26T14:38:25.852Z</time></trkpt><trkpt lat="43.5238908" lon="11.5902642"><ele>143.33333333333331</ele><time>2026-04-26T14:38:26.852Z</time></trkpt><trkpt lat="43.5240588" lon="11.5902812"><ele>143.0</ele><time>2026-04-26T14:38:27.853Z</time></trkpt><trkpt lat="43.5242033" lon="11.5903866"><ele>143.0</ele><time>2026-04-26T14:38:28.853Z</time></trkpt><trkpt lat="43.5243481" lon="11.5905343"><ele>143.0</ele><time>2026-04-26T14:38:29.853Z</time></trkpt><trkpt lat="43.5244977" lon="11.590697"><ele>143.0</ele><time>2026-04-26T14:38:30.852Z</time></trkpt><trkpt lat="43.5246486" lon="11.5908823"><ele>142.66666666666666</ele><time>2026-04-26T14:38:31.853Z</time></trkpt><trkpt lat="43.5248056" lon="11.591058"><ele>142.33333333333334</ele><time>2026-04-26T14:38:32.853Z</time></trkpt><trkpt lat="43.5249728" lon="11.5912365"><ele>142.0</ele><time>2026-04-26T14:38:33.852Z</time></trkpt><trkpt lat="43.5251415" lon="11.5914183"><ele>142.0</ele><time>2026-04-26T14:38:34.853Z</time></trkpt><trkpt lat="43.5253104" lon="11.5916019"><ele>142.0</ele><time>2026-04-26T14:38:35.853Z</time></trkpt><trkpt lat="43.5254805" lon="11.5917856"><ele>142.0</ele><time>2026-04-26T14:38:36.853Z</time></trkpt><trkpt lat="43.525652" lon="11.5919691"><ele>142.66666666666669</ele><time>2026-04-26T14:38:37.853Z</time></trkpt><trkpt lat="43.52582" lon="11.5921613"><ele>143.33333333333334</ele><time>2026-04-26T14:38:38.853Z</time></trkpt><trkpt lat="43.5259874" lon="11.592344"><ele>144.0</ele><time>2026-04-26T14:38:39.853Z</time></trkpt><trkpt lat="43.526144" lon="11.5925201"><ele>144.33333333333334</ele><time>2026-04-26T14:38:40.853Z</time></trkpt><trkpt lat="43.5262991" lon="11.5926846"><ele>144.66666666666669</ele><time>2026-04-26T14:38:41.853Z</time></trkpt><trkpt lat="43.5264442" lon="11.59284"><ele>145.0</ele><time>2026-04-26T14:38:42.852Z</time></trkpt><trkpt lat="43.5265791" lon="11.5929995"><ele>145.0</ele><time>2026-04-26T14:38:43.853Z</time></trkpt><trkpt lat="43.5267129" lon="11.5931469"><ele>145.0</ele><time>2026-04-26T14:38:44.853Z</time></trkpt><trkpt lat="43.52683" lon="11.5932767"><ele>145.0</ele><time>2026-04-26T14:38:45.853Z</time></trkpt><trkpt lat="43.5269448" lon="11.5933931"><ele>145.0</ele><time>2026-04-26T14:38:46.853Z</time></trkpt><trkpt lat="43.5270549" lon="11.5935032"><ele>145.0</ele><time>2026-04-26T14:38:47.853Z</time></trkpt><trkpt lat="43.5271479" lon="11.5935964"><ele>145.0</ele><time>2026-04-26T14:38:48.852Z</time></trkpt><trkpt lat="43.5272481" lon="11.5936699"><ele>145.0</ele><time>2026-04-26T14:38:49.853Z</time></trkpt><trkpt lat="43.527353" lon="11.5937064"><ele>145.2</ele><time>2026-04-26T14:38:50.853Z</time></trkpt><trkpt lat="43.5274623" lon="11.5937233"><ele>145.4</ele><time>2026-04-26T14:38:51.853Z</time></trkpt><trkpt lat="43.5275742" lon="11.5937089"><ele>145.6</ele><time>2026-04-26T14:38:52.852Z</time></trkpt><trkpt lat="43.5276805" lon="11.5936661"><ele>145.8</ele><time>2026-04-26T14:38:53.852Z</time></trkpt><trkpt lat="43.5277824" lon="11.5935885"><ele>146.0</ele><time>2026-04-26T14:38:54.852Z</time></trkpt><trkpt lat="43.5278781" lon="11.5934859"><ele>147.75</ele><time>2026-04-26T14:38:55.852Z</time></trkpt><trkpt lat="43.5279617" lon="11.5933567"><ele>149.5</ele><time>2026-04-26T14:38:56.852Z</time></trkpt><trkpt lat="43.5280349" lon="11.5931918"><ele>151.25</ele><time>2026-04-26T14:38:57.853Z</time></trkpt><trkpt lat="43.5280803" lon="11.5930044"><ele>153.0</ele><time>2026-04-26T14:38:58.853Z</time></trkpt><trkpt lat="43.5281152" lon="11.5928112"><ele>153.0</ele><time>2026-04-26T14:38:59.853Z</time></trkpt><trkpt lat="43.5281491" lon="11.5926079"><ele>153.0</ele><time>2026-04-26T14:39:00.853Z</time></trkpt><trkpt lat="43.5281844" lon="11.5923928"><ele>153.0</ele><time>2026-04-26T14:39:01.853Z</time></trkpt><trkpt lat="43.5282224" lon="11.5921672"><ele>151.0</ele><time>2026-04-26T14:39:02.852Z</time></trkpt><trkpt lat="43.5282637" lon="11.5919314"><ele>149.0</ele><time>2026-04-26T14:39:03.853Z</time></trkpt><trkpt lat="43.5283144" lon="11.5916911"><ele>147.0</ele><time>2026-04-26T14:39:04.853Z</time></trkpt><trkpt lat="43.5283766" lon="11.5914519"><ele>147.0</ele><time>2026-04-26T14:39:05.853Z</time></trkpt><trkpt lat="43.528461" lon="11.5912145"><ele>147.0</ele><time>2026-04-26T14:39:06.853Z</time></trkpt><trkpt lat="43.5285589" lon="11.5909788"><ele>147.0</ele><time>2026-04-26T14:39:07.853Z</time></trkpt><trkpt lat="43.5286783" lon="11.5907521"><ele>147.0</ele><time>2026-04-26T14:39:08.853Z</time></trkpt><trkpt lat="43.5287967" lon="11.5905343"><ele>147.0</ele><time>2026-04-26T14:39:09.853Z</time></trkpt><trkpt lat="43.5289091" lon="11.5903345"><ele>147.0</ele><time>2026-04-26T14:39:10.853Z</time></trkpt><trkpt lat="43.5290164" lon="11.5901439"><ele>146.33333333333334</ele><time>2026-04-26T14:39:11.852Z</time></trkpt><trkpt lat="43.5291227" lon="11.5899757"><ele>145.66666666666669</ele><time>2026-04-26T14:39:12.853Z</time></trkpt><trkpt lat="43.5292214" lon="11.5897977"><ele>145.0</ele><time>2026-04-26T14:39:13.853Z</time></trkpt><trkpt lat="43.5293205" lon="11.5896164"><ele>145.0</ele><time>2026-04-26T14:39:14.852Z</time></trkpt><trkpt lat="43.5294077" lon="11.5894372"><ele>145.0</ele><time>2026-04-26T14:39:15.852Z</time></trkpt><trkpt lat="43.529492" lon="11.5892649"><ele>145.0</ele><time>2026-04-26T14:39:16.853Z</time></trkpt><trkpt lat="43.5295759" lon="11.5891001"><ele>145.0</ele><time>2026-04-26T14:39:17.853Z</time></trkpt><trkpt lat="43.5296587" lon="11.5889335"><ele>145.0</ele><time>2026-04-26T14:39:18.852Z</time></trkpt><trkpt lat="43.5297439" lon="11.5887446"><ele>145.0</ele><time>2026-04-26T14:39:19.853Z</time></trkpt><trkpt lat="43.5298458" lon="11.5885469"><ele>145.0</ele><time>2026-04-26T14:39:20.853Z</time></trkpt><trkpt lat="43.5299648" lon="11.58834"><ele>145.0</ele><time>2026-04-26T14:39:21.852Z</time></trkpt><trkpt lat="43.5300918" lon="11.5881291"><ele>145.0</ele><time>2026-04-26T14:39:22.853Z</time></trkpt><trkpt lat="43.5302226" lon="11.587899"><ele>145.0</ele><time>2026-04-26T14:39:23.853Z</time></trkpt><trkpt lat="43.5303549" lon="11.5876602"><ele>145.0</ele><time>2026-04-26T14:39:24.852Z</time></trkpt><trkpt lat="43.5304924" lon="11.5874124"><ele>145.0</ele><time>2026-04-26T14:39:25.852Z</time></trkpt><trkpt lat="43.5306295" lon="11.5871654"><ele>144.0</ele><time>2026-04-26T14:39:26.853Z</time></trkpt><trkpt lat="43.5307683" lon="11.5869098"><ele>143.0</ele><time>2026-04-26T14:39:27.853Z</time></trkpt><trkpt lat="43.530917" lon="11.5866472"><ele>143.0</ele><time>2026-04-26T14:39:28.852Z</time></trkpt><trkpt lat="43.5310726" lon="11.5863841"><ele>143.0</ele><time>2026-04-26T14:39:29.853Z</time></trkpt><trkpt lat="43.5312278" lon="11.5861198"><ele>143.0</ele><time>2026-04-26T14:39:30.853Z</time></trkpt><trkpt lat="43.5313786" lon="11.5858471"><ele>143.0</ele><time>2026-04-26T14:39:31.853Z</time></trkpt><trkpt lat="43.5315336" lon="11.5855715"><ele>143.5</ele><time>2026-04-26T14:39:32.853Z</time></trkpt><trkpt lat="43.5316906" lon="11.5852907"><ele>144.0</ele><time>2026-04-26T14:39:33.853Z</time></trkpt><trkpt lat="43.5318478" lon="11.5850119"><ele>144.0</ele><time>2026-04-26T14:39:34.853Z</time></trkpt><trkpt lat="43.5320037" lon="11.5847286"><ele>144.0</ele><time>2026-04-26T14:39:35.853Z</time></trkpt><trkpt lat="43.5321583" lon="11.5844419"><ele>143.5</ele><time>2026-04-26T14:39:36.852Z</time></trkpt><trkpt lat="43.5323136" lon="11.5841578"><ele>143.0</ele><time>2026-04-26T14:39:37.852Z</time></trkpt><trkpt lat="43.5324705" lon="11.5838728"><ele>143.0</ele><time>2026-04-26T14:39:38.853Z</time></trkpt><trkpt lat="43.5326249" lon="11.5835864"><ele>143.0</ele><time>2026-04-26T14:39:39.852Z</time></trkpt><trkpt lat="43.532781" lon="11.5833001"><ele>143.0</ele><time>2026-04-26T14:39:40.853Z</time></trkpt><trkpt lat="43.5329336" lon="11.5830158"><ele>143.0</ele><time>2026-04-26T14:39:41.853Z</time></trkpt><trkpt lat="43.5330848" lon="11.5827294"><ele>143.0</ele><time>2026-04-26T14:39:42.853Z</time></trkpt><trkpt lat="43.5332314" lon="11.5824345"><ele>143.0</ele><time>2026-04-26T14:39:43.853Z</time></trkpt><trkpt lat="43.5333755" lon="11.5821428"><ele>142.0</ele><time>2026-04-26T14:39:44.853Z</time></trkpt><trkpt lat="43.5335206" lon="11.5818557"><ele>141.0</ele><time>2026-04-26T14:39:45.853Z</time></trkpt><trkpt lat="43.5336709" lon="11.5815747"><ele>142.0</ele><time>2026-04-26T14:39:46.853Z</time></trkpt><trkpt lat="43.5338298" lon="11.5812929"><ele>143.0</ele><time>2026-04-26T14:39:47.853Z</time></trkpt><trkpt lat="43.533986" lon="11.5810149"><ele>143.0</ele><time>2026-04-26T14:39:48.853Z</time></trkpt><trkpt lat="43.5341467" lon="11.5807378"><ele>143.0</ele><time>2026-04-26T14:39:49.853Z</time></trkpt><trkpt lat="43.5343125" lon="11.5804718"><ele>143.0</ele><time>2026-04-26T14:39:50.853Z</time></trkpt><trkpt lat="43.534483" lon="11.5802032"><ele>143.0</ele><time>2026-04-26T14:39:51.853Z</time></trkpt><trkpt lat="43.5346526" lon="11.57993"><ele>143.0</ele><time>2026-04-26T14:39:52.852Z</time></trkpt><trkpt lat="43.5348179" lon="11.5796495"><ele>143.0</ele><time>2026-04-26T14:39:53.853Z</time></trkpt><trkpt lat="43.5349811" lon="11.5793656"><ele>142.0</ele><time>2026-04-26T14:39:54.853Z</time></trkpt><trkpt lat="43.5351469" lon="11.5790778"><ele>141.0</ele><time>2026-04-26T14:39:55.853Z</time></trkpt><trkpt lat="43.5353079" lon="11.5787871"><ele>141.0</ele><time>2026-04-26T14:39:56.852Z</time></trkpt><trkpt lat="43.5354697" lon="11.5784975"><ele>141.0</ele><time>2026-04-26T14:39:57.852Z</time></trkpt><trkpt lat="43.5356316" lon="11.5782082"><ele>141.0</ele><time>2026-04-26T14:39:58.853Z</time></trkpt><trkpt lat="43.5357916" lon="11.577912"><ele>141.0</ele><time>2026-04-26T14:39:59.852Z</time></trkpt><trkpt lat="43.5359532" lon="11.5776238"><ele>141.0</ele><time>2026-04-26T14:40:00.852Z</time></trkpt><trkpt lat="43.536124" lon="11.5773274"><ele>141.0</ele><time>2026-04-26T14:40:01.853Z</time></trkpt><trkpt lat="43.5362816" lon="11.5770379"><ele>141.5</ele><time>2026-04-26T14:40:02.853Z</time></trkpt><trkpt lat="43.5364354" lon="11.576748"><ele>142.0</ele><time>2026-04-26T14:40:03.853Z</time></trkpt><trkpt lat="43.5365934" lon="11.5764569"><ele>141.5</ele><time>2026-04-26T14:40:04.853Z</time></trkpt><trkpt lat="43.5367458" lon="11.5761606"><ele>141.0</ele><time>2026-04-26T14:40:05.853Z</time></trkpt><trkpt lat="43.5369013" lon="11.5758682"><ele>141.0</ele><time>2026-04-26T14:40:06.853Z</time></trkpt><trkpt lat="43.5370622" lon="11.575579"><ele>141.0</ele><time>2026-04-26T14:40:07.853Z</time></trkpt><trkpt lat="43.5372225" lon="11.5752885"><ele>141.0</ele><time>2026-04-26T14:40:08.853Z</time></trkpt><trkpt lat="43.5373763" lon="11.5749965"><ele>141.0</ele><time>2026-04-26T14:40:09.852Z</time></trkpt><trkpt lat="43.5375284" lon="11.5747048"><ele>142.0</ele><time>2026-04-26T14:40:10.853Z</time></trkpt><trkpt lat="43.5376863" lon="11.5744173"><ele>143.0</ele><time>2026-04-26T14:40:11.853Z</time></trkpt><trkpt lat="43.5378437" lon="11.5741336"><ele>143.5</ele><time>2026-04-26T14:40:12.852Z</time></trkpt><trkpt lat="43.5380035" lon="11.5738498"><ele>144.0</ele><time>2026-04-26T14:40:13.852Z</time></trkpt><trkpt lat="43.5381601" lon="11.573568"><ele>143.0</ele><time>2026-04-26T14:40:14.853Z</time></trkpt><trkpt lat="43.5383166" lon="11.5732829"><ele>142.0</ele><time>2026-04-26T14:40:15.853Z</time></trkpt><trkpt lat="43.5384761" lon="11.5730087"><ele>142.0</ele><time>2026-04-26T14:40:16.853Z</time></trkpt><trkpt lat="43.538633" lon="11.5727295"><ele>142.0</ele><time>2026-04-26T14:40:17.853Z</time></trkpt><trkpt lat="43.5387922" lon="11.5724534"><ele>142.5</ele><time>2026-04-26T14:40:18.853Z</time></trkpt><trkpt lat="43.5389511" lon="11.5721869"><ele>143.0</ele><time>2026-04-26T14:40:19.853Z</time></trkpt><trkpt lat="43.5390998" lon="11.5719441"><ele>141.66666666666666</ele><time>2026-04-26T14:40:20.853Z</time></trkpt><trkpt lat="43.5392408" lon="11.5717158"><ele>140.33333333333334</ele><time>2026-04-26T14:40:21.853Z</time></trkpt><trkpt lat="43.5393794" lon="11.5714987"><ele>139.0</ele><time>2026-04-26T14:40:22.853Z</time></trkpt><trkpt lat="43.5395158" lon="11.5713032"><ele>139.66666666666669</ele><time>2026-04-26T14:40:23.853Z</time></trkpt><trkpt lat="43.5396469" lon="11.5711254"><ele>140.33333333333334</ele><time>2026-04-26T14:40:24.853Z</time></trkpt><trkpt lat="43.5397724" lon="11.5709629"><ele>141.0</ele><time>2026-04-26T14:40:25.853Z</time></trkpt><trkpt lat="43.5398845" lon="11.5708213"><ele>141.0</ele><time>2026-04-26T14:40:26.853Z</time></trkpt><trkpt lat="43.540002" lon="11.5707215"><ele>141.0</ele><time>2026-04-26T14:40:27.853Z</time></trkpt><trkpt lat="43.5401444" lon="11.5706551"><ele>141.0</ele><time>2026-04-26T14:40:28.852Z</time></trkpt><trkpt lat="43.5402921" lon="11.5706248"><ele>141.0</ele><time>2026-04-26T14:40:29.852Z</time></trkpt><trkpt lat="43.5404629" lon="11.5706259"><ele>141.33333333333334</ele><time>2026-04-26T14:40:30.852Z</time></trkpt><trkpt lat="43.5406327" lon="11.5706345"><ele>141.66666666666669</ele><time>2026-04-26T14:40:31.852Z</time></trkpt><trkpt lat="43.5407977" lon="11.5706764"><ele>142.0</ele><time>2026-04-26T14:40:32.852Z</time></trkpt><trkpt lat="43.5409715" lon="11.5707192"><ele>142.0</ele><time>2026-04-26T14:40:33.852Z</time></trkpt><trkpt lat="43.5411518" lon="11.5707659"><ele>142.0</ele><time>2026-04-26T14:40:34.852Z</time></trkpt><trkpt lat="43.5413213" lon="11.5708065"><ele>142.0</ele><time>2026-04-26T14:40:35.852Z</time></trkpt><trkpt lat="43.5414807" lon="11.5708459"><ele>141.0</ele><time>2026-04-26T14:40:36.852Z</time></trkpt><trkpt lat="43.5416355" lon="11.5708835"><ele>140.0</ele><time>2026-04-26T14:40:37.851Z</time></trkpt><trkpt lat="43.5417833" lon="11.5709168"><ele>139.0</ele><time>2026-04-26T14:40:38.852Z</time></trkpt><trkpt lat="43.5419279" lon="11.5709527"><ele>139.5</ele><time>2026-04-26T14:40:39.851Z</time></trkpt><trkpt lat="43.5420624" lon="11.5709865"><ele>140.0</ele><time>2026-04-26T14:40:40.851Z</time></trkpt><trkpt lat="43.5421873" lon="11.5710205"><ele>140.5</ele><time>2026-04-26T14:40:41.852Z</time></trkpt><trkpt lat="43.5423033" lon="11.5710417"><ele>141.0</ele><time>2026-04-26T14:40:42.851Z</time></trkpt><trkpt lat="43.542415" lon="11.5710631"><ele>141.0</ele><time>2026-04-26T14:40:43.851Z</time></trkpt><trkpt lat="43.5425348" lon="11.5710794"><ele>141.0</ele><time>2026-04-26T14:40:44.852Z</time></trkpt><trkpt lat="43.5426573" lon="11.5710983"><ele>141.0</ele><time>2026-04-26T14:40:45.852Z</time></trkpt><trkpt lat="43.5427948" lon="11.5711246"><ele>141.0</ele><time>2026-04-26T14:40:46.852Z</time></trkpt><trkpt lat="43.5429306" lon="11.5711707"><ele>140.5</ele><time>2026-04-26T14:40:47.852Z</time></trkpt><trkpt lat="43.5430691" lon="11.5712139"><ele>140.0</ele><time>2026-04-26T14:40:48.852Z</time></trkpt><trkpt lat="43.5432083" lon="11.5712508"><ele>139.5</ele><time>2026-04-26T14:40:49.851Z</time></trkpt><trkpt lat="43.5433427" lon="11.5712871"><ele>139.0</ele><time>2026-04-26T14:40:50.852Z</time></trkpt><trkpt lat="43.5434618" lon="11.5713188"><ele>139.0</ele><time>2026-04-26T14:40:51.852Z</time></trkpt><trkpt lat="43.5435784" lon="11.5713488"><ele>139.0</ele><time>2026-04-26T14:40:52.852Z</time></trkpt><trkpt lat="43.5436911" lon="11.5713773"><ele>139.0</ele><time>2026-04-26T14:40:53.852Z</time></trkpt><trkpt lat="43.5437901" lon="11.5714062"><ele>139.0</ele><time>2026-04-26T14:40:54.851Z</time></trkpt><trkpt lat="43.5438852" lon="11.5714299"><ele>139.0</ele><time>2026-04-26T14:40:55.852Z</time></trkpt><trkpt lat="43.5439749" lon="11.5714454"><ele>139.33333333333334</ele><time>2026-04-26T14:40:56.851Z</time></trkpt><trkpt lat="43.54405" lon="11.5714579"><ele>139.66666666666669</ele><time>2026-04-26T14:40:57.852Z</time></trkpt><trkpt lat="43.5441136" lon="11.5714661"><ele>140.0</ele><time>2026-04-26T14:40:58.852Z</time></trkpt><trkpt lat="43.5442365" lon="11.5715086"><ele>140.33333333333334</ele><time>2026-04-26T14:41:00.852Z</time></trkpt><trkpt lat="43.5443055" lon="11.5715498"><ele>140.66666666666666</ele><time>2026-04-26T14:41:01.852Z</time></trkpt><trkpt lat="43.5443738" lon="11.5716195"><ele>141.0</ele><time>2026-04-26T14:41:02.852Z</time></trkpt><trkpt lat="43.5444308" lon="11.5717183"><ele>141.0</ele><time>2026-04-26T14:41:03.852Z</time></trkpt><trkpt lat="43.5444993" lon="11.5718383"><ele>141.0</ele><time>2026-04-26T14:41:04.852Z</time></trkpt><trkpt lat="43.5445727" lon="11.5719609"><ele>141.0</ele><time>2026-04-26T14:41:05.852Z</time></trkpt><trkpt lat="43.5446573" lon="11.5721033"><ele>141.0</ele><time>2026-04-26T14:41:06.851Z</time></trkpt><trkpt lat="43.5447518" lon="11.5722565"><ele>143.33333333333334</ele><time>2026-04-26T14:41:07.852Z</time></trkpt><trkpt lat="43.5448429" lon="11.572419"><ele>145.66666666666669</ele><time>2026-04-26T14:41:08.851Z</time></trkpt><trkpt lat="43.5449402" lon="11.5726019"><ele>148.0</ele><time>2026-04-26T14:41:09.852Z</time></trkpt><trkpt lat="43.54505" lon="11.5727871"><ele>147.0</ele><time>2026-04-26T14:41:10.852Z</time></trkpt><trkpt lat="43.5451564" lon="11.5729598"><ele>146.0</ele><time>2026-04-26T14:41:11.852Z</time></trkpt><trkpt lat="43.5452441" lon="11.5731256"><ele>145.0</ele><time>2026-04-26T14:41:12.851Z</time></trkpt><trkpt lat="43.5453298" lon="11.5732841"><ele>144.0</ele><time>2026-04-26T14:41:13.852Z</time></trkpt><trkpt lat="43.5454166" lon="11.5734177"><ele>143.0</ele><time>2026-04-26T14:41:14.852Z</time></trkpt><trkpt lat="43.5455144" lon="11.5735306"><ele>142.0</ele><time>2026-04-26T14:41:15.852Z</time></trkpt><trkpt lat="43.545617" lon="11.5735821"><ele>141.0</ele><time>2026-04-26T14:41:16.852Z</time></trkpt><trkpt lat="43.5457214" lon="11.573584"><ele>141.0</ele><time>2026-04-26T14:41:17.852Z</time></trkpt><trkpt lat="43.5458187" lon="11.5735392"><ele>141.0</ele><time>2026-04-26T14:41:18.852Z</time></trkpt><trkpt lat="43.545898" lon="11.5734251"><ele>141.0</ele><time>2026-04-26T14:41:19.852Z</time></trkpt><trkpt lat="43.5459654" lon="11.5732709"><ele>141.0</ele><time>2026-04-26T14:41:20.851Z</time></trkpt><trkpt lat="43.5460271" lon="11.5730852"><ele>141.0</ele><time>2026-04-26T14:41:21.852Z</time></trkpt><trkpt lat="43.5460936" lon="11.5728799"><ele>141.0</ele><time>2026-04-26T14:41:22.852Z</time></trkpt><trkpt lat="43.5461561" lon="11.5726509"><ele>141.0</ele><time>2026-04-26T14:41:23.852Z</time></trkpt><trkpt lat="43.5462089" lon="11.5724174"><ele>141.0</ele><time>2026-04-26T14:41:24.852Z</time></trkpt><trkpt lat="43.5462503" lon="11.5721817"><ele>141.0</ele><time>2026-04-26T14:41:25.852Z</time></trkpt><trkpt lat="43.5462808" lon="11.5719401"><ele>141.0</ele><time>2026-04-26T14:41:26.851Z</time></trkpt><trkpt lat="43.5463035" lon="11.5716984"><ele>141.0</ele><time>2026-04-26T14:41:27.852Z</time></trkpt><trkpt lat="43.5463184" lon="11.5714582"><ele>141.0</ele><time>2026-04-26T14:41:28.852Z</time></trkpt><trkpt lat="43.5463333" lon="11.5712173"><ele>141.0</ele><time>2026-04-26T14:41:29.852Z</time></trkpt><trkpt lat="43.546347" lon="11.5709649"><ele>141.33333333333334</ele><time>2026-04-26T14:41:30.851Z</time></trkpt><trkpt lat="43.5463738" lon="11.5707127"><ele>141.66666666666669</ele><time>2026-04-26T14:41:31.852Z</time></trkpt><trkpt lat="43.5464192" lon="11.5704634"><ele>142.0</ele><time>2026-04-26T14:41:32.852Z</time></trkpt><trkpt lat="43.546486" lon="11.5702112"><ele>142.0</ele><time>2026-04-26T14:41:33.852Z</time></trkpt><trkpt lat="43.5465648" lon="11.5699694"><ele>142.0</ele><time>2026-04-26T14:41:34.852Z</time></trkpt><trkpt lat="43.5466567" lon="11.5697435"><ele>142.0</ele><time>2026-04-26T14:41:35.852Z</time></trkpt><trkpt lat="43.5467445" lon="11.5695181"><ele>141.33333333333334</ele><time>2026-04-26T14:41:36.852Z</time></trkpt><trkpt lat="43.5468321" lon="11.5692866"><ele>140.66666666666666</ele><time>2026-04-26T14:41:37.852Z</time></trkpt><trkpt lat="43.5469199" lon="11.5690556"><ele>140.0</ele><time>2026-04-26T14:41:38.852Z</time></trkpt><trkpt lat="43.547012" lon="11.5688259"><ele>140.33333333333331</ele><time>2026-04-26T14:41:39.852Z</time></trkpt><trkpt lat="43.5471002" lon="11.5685966"><ele>140.66666666666666</ele><time>2026-04-26T14:41:40.851Z</time></trkpt><trkpt lat="43.5471956" lon="11.5683695"><ele>141.0</ele><time>2026-04-26T14:41:41.852Z</time></trkpt><trkpt lat="43.5472819" lon="11.5681399"><ele>141.0</ele><time>2026-04-26T14:41:42.851Z</time></trkpt><trkpt lat="43.5473694" lon="11.5679084"><ele>141.0</ele><time>2026-04-26T14:41:43.851Z</time></trkpt><trkpt lat="43.5474536" lon="11.5676739"><ele>141.0</ele><time>2026-04-26T14:41:44.852Z</time></trkpt><trkpt lat="43.5475403" lon="11.5674383"><ele>141.0</ele><time>2026-04-26T14:41:45.852Z</time></trkpt><trkpt lat="43.5476278" lon="11.5672052"><ele>141.0</ele><time>2026-04-26T14:41:46.852Z</time></trkpt><trkpt lat="43.5477186" lon="11.5669675"><ele>141.0</ele><time>2026-04-26T14:41:47.852Z</time></trkpt><trkpt lat="43.5478147" lon="11.5667313"><ele>141.0</ele><time>2026-04-26T14:41:48.852Z</time></trkpt><trkpt lat="43.5479119" lon="11.5664924"><ele>141.0</ele><time>2026-04-26T14:41:49.852Z</time></trkpt><trkpt lat="43.5480085" lon="11.566256"><ele>141.0</ele><time>2026-04-26T14:41:50.852Z</time></trkpt><trkpt lat="43.5480987" lon="11.5660199"><ele>141.0</ele><time>2026-04-26T14:41:51.852Z</time></trkpt><trkpt lat="43.5481913" lon="11.5657731"><ele>141.0</ele><time>2026-04-26T14:41:52.852Z</time></trkpt><trkpt lat="43.5482826" lon="11.5655345"><ele>141.0</ele><time>2026-04-26T14:41:53.851Z</time></trkpt><trkpt lat="43.5483732" lon="11.5652997"><ele>140.66666666666666</ele><time>2026-04-26T14:41:54.852Z</time></trkpt><trkpt lat="43.5484617" lon="11.565065"><ele>140.33333333333331</ele><time>2026-04-26T14:41:55.852Z</time></trkpt><trkpt lat="43.5485504" lon="11.5648359"><ele>140.0</ele><time>2026-04-26T14:41:56.852Z</time></trkpt><trkpt lat="43.5486385" lon="11.5646092"><ele>140.33333333333331</ele><time>2026-04-26T14:41:57.852Z</time></trkpt><trkpt lat="43.5487269" lon="11.5643837"><ele>140.66666666666666</ele><time>2026-04-26T14:41:58.852Z</time></trkpt><trkpt lat="43.5488189" lon="11.5641569"><ele>141.0</ele><time>2026-04-26T14:41:59.852Z</time></trkpt><trkpt lat="43.5489074" lon="11.563929"><ele>141.0</ele><time>2026-04-26T14:42:00.852Z</time></trkpt><trkpt lat="43.5489942" lon="11.5636995"><ele>141.0</ele><time>2026-04-26T14:42:01.852Z</time></trkpt><trkpt lat="43.5490773" lon="11.5634801"><ele>141.0</ele><time>2026-04-26T14:42:02.852Z</time></trkpt><trkpt lat="43.5491637" lon="11.5632848"><ele>140.75</ele><time>2026-04-26T14:42:03.852Z</time></trkpt><trkpt lat="43.5492453" lon="11.5631071"><ele>140.5</ele><time>2026-04-26T14:42:04.852Z</time></trkpt><trkpt lat="43.5493086" lon="11.5629251"><ele>140.25</ele><time>2026-04-26T14:42:05.852Z</time></trkpt><trkpt lat="43.5493769" lon="11.5627529"><ele>140.0</ele><time>2026-04-26T14:42:06.852Z</time></trkpt><trkpt lat="43.5494344" lon="11.5625688"><ele>140.33333333333331</ele><time>2026-04-26T14:42:07.852Z</time></trkpt><trkpt lat="43.5494959" lon="11.5623685"><ele>140.66666666666666</ele><time>2026-04-26T14:42:08.852Z</time></trkpt><trkpt lat="43.5495656" lon="11.5621583"><ele>141.0</ele><time>2026-04-26T14:42:09.852Z</time></trkpt><trkpt lat="43.5496467" lon="11.561938"><ele>141.0</ele><time>2026-04-26T14:42:10.852Z</time></trkpt><trkpt lat="43.549729" lon="11.5617104"><ele>141.0</ele><time>2026-04-26T14:42:11.852Z</time></trkpt><trkpt lat="43.549801" lon="11.5614781"><ele>141.0</ele><time>2026-04-26T14:42:12.852Z</time></trkpt><trkpt lat="43.5498709" lon="11.561237"><ele>140.66666666666666</ele><time>2026-04-26T14:42:13.852Z</time></trkpt><trkpt lat="43.5499425" lon="11.5609956"><ele>140.33333333333331</ele><time>2026-04-26T14:42:14.852Z</time></trkpt><trkpt lat="43.5500139" lon="11.5607448"><ele>140.0</ele><time>2026-04-26T14:42:15.852Z</time></trkpt><trkpt lat="43.5500802" lon="11.5605146"><ele>140.0</ele><time>2026-04-26T14:42:16.851Z</time></trkpt><trkpt lat="43.5501504" lon="11.5603084"><ele>140.0</ele><time>2026-04-26T14:42:17.851Z</time></trkpt><trkpt lat="43.5502126" lon="11.5600995"><ele>140.0</ele><time>2026-04-26T14:42:18.852Z</time></trkpt><trkpt lat="43.5502658" lon="11.559893"><ele>140.0</ele><time>2026-04-26T14:42:19.852Z</time></trkpt><trkpt lat="43.5503228" lon="11.5597116"><ele>140.0</ele><time>2026-04-26T14:42:20.852Z</time></trkpt><trkpt lat="43.5503747" lon="11.5595386"><ele>140.0</ele><time>2026-04-26T14:42:21.852Z</time></trkpt><trkpt lat="43.5504181" lon="11.5593752"><ele>140.0</ele><time>2026-04-26T14:42:22.852Z</time></trkpt><trkpt lat="43.5504648" lon="11.559237"><ele>140.16666666666666</ele><time>2026-04-26T14:42:23.851Z</time></trkpt><trkpt lat="43.5505078" lon="11.5591235"><ele>140.33333333333331</ele><time>2026-04-26T14:42:24.851Z</time></trkpt><trkpt lat="43.5505418" lon="11.5590407"><ele>140.5</ele><time>2026-04-26T14:42:25.851Z</time></trkpt><trkpt lat="43.5506002" lon="11.5589331"><ele>140.66666666666666</ele><time>2026-04-26T14:42:27.852Z</time></trkpt><trkpt lat="43.5506488" lon="11.558852"><ele>140.83333333333334</ele><time>2026-04-26T14:42:29.851Z</time></trkpt><trkpt lat="43.5507366" lon="11.558796"><ele>141.0</ele><time>2026-04-26T14:42:31.852Z</time></trkpt><trkpt lat="43.5508106" lon="11.5587833"><ele>141.0</ele><time>2026-04-26T14:42:32.852Z</time></trkpt><trkpt lat="43.5508857" lon="11.5587466"><ele>141.0</ele><time>2026-04-26T14:42:33.852Z</time></trkpt><trkpt lat="43.5509538" lon="11.5586897"><ele>141.0</ele><time>2026-04-26T14:42:34.852Z</time></trkpt><trkpt lat="43.5509994" lon="11.5585811"><ele>141.0</ele><time>2026-04-26T14:42:35.852Z</time></trkpt><trkpt lat="43.5510538" lon="11.5584706"><ele>141.0</ele><time>2026-04-26T14:42:36.852Z</time></trkpt><trkpt lat="43.5511145" lon="11.5583598"><ele>141.0</ele><time>2026-04-26T14:42:37.852Z</time></trkpt><trkpt lat="43.5511838" lon="11.5582411"><ele>140.75</ele><time>2026-04-26T14:42:38.852Z</time></trkpt><trkpt lat="43.5512585" lon="11.5581233"><ele>140.5</ele><time>2026-04-26T14:42:39.852Z</time></trkpt><trkpt lat="43.5513373" lon="11.5579854"><ele>140.25</ele><time>2026-04-26T14:42:40.852Z</time></trkpt><trkpt lat="43.5514168" lon="11.5578448"><ele>140.0</ele><time>2026-04-26T14:42:41.851Z</time></trkpt><trkpt lat="43.551477" lon="11.5577022"><ele>140.0</ele><time>2026-04-26T14:42:42.852Z</time></trkpt><trkpt lat="43.5515304" lon="11.5575672"><ele>140.0</ele><time>2026-04-26T14:42:43.851Z</time></trkpt><trkpt lat="43.5515681" lon="11.5574338"><ele>140.0</ele><time>2026-04-26T14:42:44.852Z</time></trkpt><trkpt lat="43.5515947" lon="11.5572968"><ele>140.0</ele><time>2026-04-26T14:42:45.852Z</time></trkpt><trkpt lat="43.5516036" lon="11.5571444"><ele>140.0</ele><time>2026-04-26T14:42:46.852Z</time></trkpt><trkpt lat="43.5515824" lon="11.5569766"><ele>140.0</ele><time>2026-04-26T14:42:47.852Z</time></trkpt><trkpt lat="43.5515304" lon="11.5567883"><ele>140.0</ele><time>2026-04-26T14:42:48.852Z</time></trkpt><trkpt lat="43.5514684" lon="11.5566085"><ele>140.0</ele><time>2026-04-26T14:42:49.852Z</time></trkpt><trkpt lat="43.5513877" lon="11.5564281"><ele>140.0</ele><time>2026-04-26T14:42:50.852Z</time></trkpt><trkpt lat="43.5513125" lon="11.5562348"><ele>139.66666666666666</ele><time>2026-04-26T14:42:51.852Z</time></trkpt><trkpt lat="43.5512483" lon="11.5560156"><ele>139.33333333333334</ele><time>2026-04-26T14:42:52.852Z</time></trkpt><trkpt lat="43.5512182" lon="11.5557858"><ele>139.0</ele><time>2026-04-26T14:42:53.852Z</time></trkpt><trkpt lat="43.5512251" lon="11.5555492"><ele>139.33333333333334</ele><time>2026-04-26T14:42:54.852Z</time></trkpt><trkpt lat="43.5512606" lon="11.5553078"><ele>139.66666666666666</ele><time>2026-04-26T14:42:55.852Z</time></trkpt><trkpt lat="43.5513115" lon="11.5550625"><ele>140.0</ele><time>2026-04-26T14:42:56.852Z</time></trkpt><trkpt lat="43.551371" lon="11.5548274"><ele>140.0</ele><time>2026-04-26T14:42:57.852Z</time></trkpt><trkpt lat="43.5514265" lon="11.5545933"><ele>140.0</ele><time>2026-04-26T14:42:58.852Z</time></trkpt><trkpt lat="43.5514869" lon="11.5543554"><ele>140.0</ele><time>2026-04-26T14:42:59.852Z</time></trkpt><trkpt lat="43.5515506" lon="11.5541172"><ele>140.0</ele><time>2026-04-26T14:43:00.851Z</time></trkpt><trkpt lat="43.5516255" lon="11.5538877"><ele>140.0</ele><time>2026-04-26T14:43:01.851Z</time></trkpt><trkpt lat="43.5517119" lon="11.5536651"><ele>140.0</ele><time>2026-04-26T14:43:02.851Z</time></trkpt><trkpt lat="43.5518084" lon="11.5534658"><ele>139.33333333333331</ele><time>2026-04-26T14:43:03.852Z</time></trkpt><trkpt lat="43.5519208" lon="11.5532796"><ele>138.66666666666666</ele><time>2026-04-26T14:43:04.851Z</time></trkpt><trkpt lat="43.5520281" lon="11.5531154"><ele>138.0</ele><time>2026-04-26T14:43:05.851Z</time></trkpt><trkpt lat="43.5521401" lon="11.5529527"><ele>137.66666666666666</ele><time>2026-04-26T14:43:06.852Z</time></trkpt><trkpt lat="43.5522543" lon="11.5527912"><ele>137.33333333333331</ele><time>2026-04-26T14:43:07.851Z</time></trkpt><trkpt lat="43.5523696" lon="11.5526289"><ele>137.0</ele><time>2026-04-26T14:43:08.852Z</time></trkpt><trkpt lat="43.5524765" lon="11.5524681"><ele>137.0</ele><time>2026-04-26T14:43:09.852Z</time></trkpt><trkpt lat="43.5525786" lon="11.5523193"><ele>137.0</ele><time>2026-04-26T14:43:10.851Z</time></trkpt><trkpt lat="43.552677" lon="11.5521676"><ele>137.0</ele><time>2026-04-26T14:43:11.851Z</time></trkpt><trkpt lat="43.5527785" lon="11.5520182"><ele>137.0</ele><time>2026-04-26T14:43:12.852Z</time></trkpt><trkpt lat="43.5528816" lon="11.5518678"><ele>137.33333333333331</ele><time>2026-04-26T14:43:13.851Z</time></trkpt><trkpt lat="43.5529816" lon="11.5517141"><ele>137.66666666666666</ele><time>2026-04-26T14:43:14.852Z</time></trkpt><trkpt lat="43.5530823" lon="11.5515535"><ele>138.0</ele><time>2026-04-26T14:43:15.852Z</time></trkpt><trkpt lat="43.5531864" lon="11.5513862"><ele>138.0</ele><time>2026-04-26T14:43:16.852Z</time></trkpt><trkpt lat="43.5532958" lon="11.5512226"><ele>138.0</ele><time>2026-04-26T14:43:17.851Z</time></trkpt><trkpt lat="43.5533981" lon="11.5510554"><ele>138.0</ele><time>2026-04-26T14:43:18.852Z</time></trkpt><trkpt lat="43.5534984" lon="11.5508889"><ele>137.33333333333334</ele><time>2026-04-26T14:43:19.852Z</time></trkpt><trkpt lat="43.5535957" lon="11.5507159"><ele>136.66666666666669</ele><time>2026-04-26T14:43:20.852Z</time></trkpt><trkpt lat="43.5536944" lon="11.5505433"><ele>136.0</ele><time>2026-04-26T14:43:21.852Z</time></trkpt><trkpt lat="43.5537916" lon="11.5503709"><ele>136.0</ele><time>2026-04-26T14:43:22.852Z</time></trkpt><trkpt lat="43.5538878" lon="11.5502001"><ele>136.0</ele><time>2026-04-26T14:43:23.852Z</time></trkpt><trkpt lat="43.5539828" lon="11.5500296"><ele>136.0</ele><time>2026-04-26T14:43:24.852Z</time></trkpt><trkpt lat="43.5540818" lon="11.5498589"><ele>136.0</ele><time>2026-04-26T14:43:25.851Z</time></trkpt><trkpt lat="43.5541806" lon="11.5496865"><ele>136.0</ele><time>2026-04-26T14:43:26.852Z</time></trkpt><trkpt lat="43.5542804" lon="11.5495152"><ele>136.0</ele><time>2026-04-26T14:43:27.852Z</time></trkpt><trkpt lat="43.5543816" lon="11.5493448"><ele>135.33333333333334</ele><time>2026-04-26T14:43:28.851Z</time></trkpt><trkpt lat="43.5544775" lon="11.5491524"><ele>134.66666666666666</ele><time>2026-04-26T14:43:29.852Z</time></trkpt><trkpt lat="43.5545818" lon="11.5489638"><ele>134.0</ele><time>2026-04-26T14:43:30.852Z</time></trkpt><trkpt lat="43.5546856" lon="11.5487812"><ele>135.0</ele><time>2026-04-26T14:43:31.852Z</time></trkpt><trkpt lat="43.5547982" lon="11.5485796"><ele>136.0</ele><time>2026-04-26T14:43:32.852Z</time></trkpt><trkpt lat="43.5549064" lon="11.5483895"><ele>137.0</ele><time>2026-04-26T14:43:33.852Z</time></trkpt><trkpt lat="43.5550148" lon="11.5482026"><ele>137.0</ele><time>2026-04-26T14:43:34.852Z</time></trkpt><trkpt lat="43.55512" lon="11.5479998"><ele>137.0</ele><time>2026-04-26T14:43:35.852Z</time></trkpt><trkpt lat="43.5552176" lon="11.5477983"><ele>137.0</ele><time>2026-04-26T14:43:36.852Z</time></trkpt><trkpt lat="43.5553278" lon="11.5475991"><ele>139.0</ele><time>2026-04-26T14:43:37.852Z</time></trkpt><trkpt lat="43.5554395" lon="11.5473965"><ele>141.0</ele><time>2026-04-26T14:43:38.852Z</time></trkpt><trkpt lat="43.5555549" lon="11.5471983"><ele>143.0</ele><time>2026-04-26T14:43:39.851Z</time></trkpt><trkpt lat="43.5556658" lon="11.5469995"><ele>143.0</ele><time>2026-04-26T14:43:40.851Z</time></trkpt><trkpt lat="43.5557765" lon="11.5467984"><ele>143.0</ele><time>2026-04-26T14:43:41.852Z</time></trkpt><trkpt lat="43.5558895" lon="11.5466009"><ele>143.0</ele><time>2026-04-26T14:43:42.851Z</time></trkpt><trkpt lat="43.555998" lon="11.5464098"><ele>143.0</ele><time>2026-04-26T14:43:43.852Z</time></trkpt><trkpt lat="43.5561025" lon="11.5462303"><ele>143.0</ele><time>2026-04-26T14:43:44.852Z</time></trkpt><trkpt lat="43.5562028" lon="11.5460585"><ele>143.0</ele><time>2026-04-26T14:43:45.852Z</time></trkpt><trkpt lat="43.5562995" lon="11.5458871"><ele>144.0</ele><time>2026-04-26T14:43:46.852Z</time></trkpt><trkpt lat="43.5563914" lon="11.5457213"><ele>145.0</ele><time>2026-04-26T14:43:47.853Z</time></trkpt><trkpt lat="43.5564858" lon="11.5455617"><ele>146.0</ele><time>2026-04-26T14:43:48.852Z</time></trkpt><trkpt lat="43.5565797" lon="11.5454016"><ele>144.75</ele><time>2026-04-26T14:43:49.852Z</time></trkpt><trkpt lat="43.5566736" lon="11.5452533"><ele>143.5</ele><time>2026-04-26T14:43:50.852Z</time></trkpt><trkpt lat="43.5567789" lon="11.5451076"><ele>142.25</ele><time>2026-04-26T14:43:51.853Z</time></trkpt><trkpt lat="43.5568913" lon="11.5449567"><ele>141.0</ele><time>2026-04-26T14:43:52.853Z</time></trkpt><trkpt lat="43.5570104" lon="11.544798"><ele>140.66666666666666</ele><time>2026-04-26T14:43:53.852Z</time></trkpt><trkpt lat="43.5571297" lon="11.5446454"><ele>140.33333333333331</ele><time>2026-04-26T14:43:54.853Z</time></trkpt><trkpt lat="43.5572443" lon="11.5445023"><ele>140.0</ele><time>2026-04-26T14:43:55.853Z</time></trkpt><trkpt lat="43.5573548" lon="11.5443594"><ele>140.0</ele><time>2026-04-26T14:43:56.853Z</time></trkpt><trkpt lat="43.5574629" lon="11.5442136"><ele>140.0</ele><time>2026-04-26T14:43:57.853Z</time></trkpt><trkpt lat="43.557569" lon="11.544068"><ele>140.0</ele><time>2026-04-26T14:43:58.853Z</time></trkpt><trkpt lat="43.5576785" lon="11.5439255"><ele>140.0</ele><time>2026-04-26T14:43:59.852Z</time></trkpt><trkpt lat="43.5577913" lon="11.5437856"><ele>140.0</ele><time>2026-04-26T14:44:00.853Z</time></trkpt><trkpt lat="43.5579007" lon="11.5436435"><ele>140.0</ele><time>2026-04-26T14:44:01.853Z</time></trkpt><trkpt lat="43.5580063" lon="11.5435107"><ele>140.0</ele><time>2026-04-26T14:44:02.853Z</time></trkpt><trkpt lat="43.5581078" lon="11.5433892"><ele>139.25</ele><time>2026-04-26T14:44:03.853Z</time></trkpt><trkpt lat="43.5582114" lon="11.5432802"><ele>138.5</ele><time>2026-04-26T14:44:04.853Z</time></trkpt><trkpt lat="43.5583191" lon="11.5431797"><ele>137.75</ele><time>2026-04-26T14:44:05.853Z</time></trkpt><trkpt lat="43.5584299" lon="11.5430738"><ele>137.0</ele><time>2026-04-26T14:44:06.853Z</time></trkpt><trkpt lat="43.558545" lon="11.5429862"><ele>137.0</ele><time>2026-04-26T14:44:07.852Z</time></trkpt><trkpt lat="43.5586682" lon="11.5429045"><ele>137.0</ele><time>2026-04-26T14:44:08.853Z</time></trkpt><trkpt lat="43.5588025" lon="11.5428295"><ele>137.0</ele><time>2026-04-26T14:44:09.853Z</time></trkpt><trkpt lat="43.5589461" lon="11.5427575"><ele>137.0</ele><time>2026-04-26T14:44:10.852Z</time></trkpt><trkpt lat="43.5590977" lon="11.542708"><ele>137.0</ele><time>2026-04-26T14:44:11.853Z</time></trkpt><trkpt lat="43.5592605" lon="11.5426593"><ele>137.0</ele><time>2026-04-26T14:44:12.852Z</time></trkpt><trkpt lat="43.5594298" lon="11.5426201"><ele>137.0</ele><time>2026-04-26T14:44:13.853Z</time></trkpt><trkpt lat="43.5596066" lon="11.5425902"><ele>136.33333333333331</ele><time>2026-04-26T14:44:14.852Z</time></trkpt><trkpt lat="43.5598071" lon="11.5425715"><ele>135.66666666666666</ele><time>2026-04-26T14:44:15.852Z</time></trkpt><trkpt lat="43.560021" lon="11.5425721"><ele>135.0</ele><time>2026-04-26T14:44:16.852Z</time></trkpt><trkpt lat="43.5602371" lon="11.5425819"><ele>134.5</ele><time>2026-04-26T14:44:17.853Z</time></trkpt><trkpt lat="43.5604635" lon="11.5425871"><ele>134.0</ele><time>2026-04-26T14:44:18.853Z</time></trkpt><trkpt lat="43.5606902" lon="11.5426021"><ele>134.0</ele><time>2026-04-26T14:44:19.853Z</time></trkpt><trkpt lat="43.5609187" lon="11.5426251"><ele>134.0</ele><time>2026-04-26T14:44:20.852Z</time></trkpt><trkpt lat="43.5611491" lon="11.5426545"><ele>134.5</ele><time>2026-04-26T14:44:21.853Z</time></trkpt><trkpt lat="43.5613809" lon="11.542688"><ele>135.0</ele><time>2026-04-26T14:44:22.853Z</time></trkpt><trkpt lat="43.5616084" lon="11.5427193"><ele>135.0</ele><time>2026-04-26T14:44:23.853Z</time></trkpt><trkpt lat="43.5618202" lon="11.5427526"><ele>135.0</ele><time>2026-04-26T14:44:24.853Z</time></trkpt><trkpt lat="43.5620255" lon="11.5427823"><ele>135.0</ele><time>2026-04-26T14:44:25.853Z</time></trkpt><trkpt lat="43.5622203" lon="11.5428189"><ele>135.0</ele><time>2026-04-26T14:44:26.853Z</time></trkpt><trkpt lat="43.562407" lon="11.5428543"><ele>135.0</ele><time>2026-04-26T14:44:27.853Z</time></trkpt><trkpt lat="43.5625893" lon="11.542888"><ele>135.0</ele><time>2026-04-26T14:44:28.852Z</time></trkpt><trkpt lat="43.562757" lon="11.5429227"><ele>135.5</ele><time>2026-04-26T14:44:29.853Z</time></trkpt><trkpt lat="43.562913" lon="11.5429647"><ele>136.0</ele><time>2026-04-26T14:44:30.852Z</time></trkpt><trkpt lat="43.5630427" lon="11.5430142"><ele>136.5</ele><time>2026-04-26T14:44:31.852Z</time></trkpt><trkpt lat="43.5631647" lon="11.5430717"><ele>137.0</ele><time>2026-04-26T14:44:32.853Z</time></trkpt><trkpt lat="43.5632651" lon="11.5431543"><ele>137.0</ele><time>2026-04-26T14:44:33.853Z</time></trkpt><trkpt lat="43.5633639" lon="11.5432335"><ele>137.0</ele><time>2026-04-26T14:44:34.853Z</time></trkpt><trkpt lat="43.5634617" lon="11.5432671"><ele>137.0</ele><time>2026-04-26T14:44:35.853Z</time></trkpt><trkpt lat="43.563587" lon="11.543254"><ele>137.0</ele><time>2026-04-26T14:44:36.853Z</time></trkpt><trkpt lat="43.5636929" lon="11.5431787"><ele>137.0</ele><time>2026-04-26T14:44:37.853Z</time></trkpt><trkpt lat="43.5638114" lon="11.5430937"><ele>137.0</ele><time>2026-04-26T14:44:38.853Z</time></trkpt><trkpt lat="43.5639543" lon="11.5430336"><ele>137.0</ele><time>2026-04-26T14:44:39.853Z</time></trkpt><trkpt lat="43.5641161" lon="11.5430314"><ele>137.0</ele><time>2026-04-26T14:44:40.853Z</time></trkpt><trkpt lat="43.5642915" lon="11.5430376"><ele>137.0</ele><time>2026-04-26T14:44:41.853Z</time></trkpt><trkpt lat="43.5644715" lon="11.543041"><ele>137.0</ele><time>2026-04-26T14:44:42.853Z</time></trkpt><trkpt lat="43.5646468" lon="11.5430449"><ele>137.0</ele><time>2026-04-26T14:44:43.853Z</time></trkpt><trkpt lat="43.5648376" lon="11.5430559"><ele>137.33333333333331</ele><time>2026-04-26T14:44:44.853Z</time></trkpt><trkpt lat="43.5650378" lon="11.5430715"><ele>137.66666666666666</ele><time>2026-04-26T14:44:45.853Z</time></trkpt><trkpt lat="43.5652451" lon="11.5430939"><ele>138.0</ele><time>2026-04-26T14:44:46.852Z</time></trkpt><trkpt lat="43.5654543" lon="11.5431185"><ele>139.66666666666666</ele><time>2026-04-26T14:44:47.853Z</time></trkpt><trkpt lat="43.5656638" lon="11.543153"><ele>141.33333333333331</ele><time>2026-04-26T14:44:48.853Z</time></trkpt><trkpt lat="43.565876" lon="11.543183"><ele>143.0</ele><time>2026-04-26T14:44:49.853Z</time></trkpt><trkpt lat="43.5660899" lon="11.5432105"><ele>143.66666666666666</ele><time>2026-04-26T14:44:50.853Z</time></trkpt><trkpt lat="43.5663084" lon="11.5432362"><ele>144.33333333333334</ele><time>2026-04-26T14:44:51.853Z</time></trkpt><trkpt lat="43.5665311" lon="11.5432614"><ele>145.0</ele><time>2026-04-26T14:44:52.853Z</time></trkpt><trkpt lat="43.5667585" lon="11.5432857"><ele>145.0</ele><time>2026-04-26T14:44:53.853Z</time></trkpt><trkpt lat="43.566992" lon="11.5433012"><ele>145.0</ele><time>2026-04-26T14:44:54.852Z</time></trkpt><trkpt lat="43.5672284" lon="11.543315"><ele>143.0</ele><time>2026-04-26T14:44:55.852Z</time></trkpt><trkpt lat="43.5674721" lon="11.5433182"><ele>141.0</ele><time>2026-04-26T14:44:56.853Z</time></trkpt><trkpt lat="43.5677109" lon="11.5432908"><ele>139.5</ele><time>2026-04-26T14:44:57.853Z</time></trkpt><trkpt lat="43.5679476" lon="11.5432433"><ele>138.0</ele><time>2026-04-26T14:44:58.853Z</time></trkpt><trkpt lat="43.5681805" lon="11.5431772"><ele>138.0</ele><time>2026-04-26T14:44:59.853Z</time></trkpt><trkpt lat="43.5684162" lon="11.5431101"><ele>138.0</ele><time>2026-04-26T14:45:00.853Z</time></trkpt><trkpt lat="43.5686465" lon="11.5430437"><ele>138.0</ele><time>2026-04-26T14:45:01.852Z</time></trkpt><trkpt lat="43.5688816" lon="11.5429795"><ele>138.0</ele><time>2026-04-26T14:45:02.853Z</time></trkpt><trkpt lat="43.5691176" lon="11.5429714"><ele>138.0</ele><time>2026-04-26T14:45:03.852Z</time></trkpt><trkpt lat="43.5693425" lon="11.543021"><ele>138.0</ele><time>2026-04-26T14:45:04.852Z</time></trkpt><trkpt lat="43.5695496" lon="11.5430907"><ele>138.0</ele><time>2026-04-26T14:45:05.853Z</time></trkpt><trkpt lat="43.5697443" lon="11.5431742"><ele>137.33333333333334</ele><time>2026-04-26T14:45:06.853Z</time></trkpt><trkpt lat="43.5699286" lon="11.5432263"><ele>136.66666666666669</ele><time>2026-04-26T14:45:07.852Z</time></trkpt><trkpt lat="43.570108" lon="11.543208"><ele>136.0</ele><time>2026-04-26T14:45:08.853Z</time></trkpt><trkpt lat="43.5702813" lon="11.5431473"><ele>136.0</ele><time>2026-04-26T14:45:09.852Z</time></trkpt><trkpt lat="43.5704556" lon="11.5430284"><ele>136.0</ele><time>2026-04-26T14:45:10.852Z</time></trkpt><trkpt lat="43.5706221" lon="11.5428685"><ele>136.0</ele><time>2026-04-26T14:45:11.852Z</time></trkpt><trkpt lat="43.5707865" lon="11.5426884"><ele>136.33333333333334</ele><time>2026-04-26T14:45:12.853Z</time></trkpt><trkpt lat="43.5709538" lon="11.5424901"><ele>136.66666666666666</ele><time>2026-04-26T14:45:13.853Z</time></trkpt><trkpt lat="43.5711286" lon="11.5423057"><ele>137.0</ele><time>2026-04-26T14:45:14.853Z</time></trkpt><trkpt lat="43.5713179" lon="11.5421299"><ele>137.0</ele><time>2026-04-26T14:45:15.852Z</time></trkpt><trkpt lat="43.5715125" lon="11.5419511"><ele>137.0</ele><time>2026-04-26T14:45:16.852Z</time></trkpt><trkpt lat="43.57171" lon="11.5417758"><ele>137.0</ele><time>2026-04-26T14:45:17.853Z</time></trkpt><trkpt lat="43.5719103" lon="11.5416006"><ele>137.0</ele><time>2026-04-26T14:45:18.852Z</time></trkpt><trkpt lat="43.5721027" lon="11.5414017"><ele>136.0</ele><time>2026-04-26T14:45:19.853Z</time></trkpt><trkpt lat="43.5722859" lon="11.5411843"><ele>135.0</ele><time>2026-04-26T14:45:20.853Z</time></trkpt><trkpt lat="43.5724558" lon="11.5409483"><ele>135.0</ele><time>2026-04-26T14:45:21.853Z</time></trkpt><trkpt lat="43.5726171" lon="11.5406962"><ele>135.0</ele><time>2026-04-26T14:45:22.853Z</time></trkpt><trkpt lat="43.5727739" lon="11.540436"><ele>135.0</ele><time>2026-04-26T14:45:23.853Z</time></trkpt><trkpt lat="43.5729394" lon="11.54018"><ele>135.0</ele><time>2026-04-26T14:45:24.852Z</time></trkpt><trkpt lat="43.5731088" lon="11.5399322"><ele>135.0</ele><time>2026-04-26T14:45:25.853Z</time></trkpt><trkpt lat="43.5732889" lon="11.5396977"><ele>135.0</ele><time>2026-04-26T14:45:26.852Z</time></trkpt><trkpt lat="43.5734731" lon="11.5394725"><ele>135.0</ele><time>2026-04-26T14:45:27.853Z</time></trkpt><trkpt lat="43.5736612" lon="11.53925"><ele>135.0</ele><time>2026-04-26T14:45:28.853Z</time></trkpt><trkpt lat="43.5738503" lon="11.5390233"><ele>135.5</ele><time>2026-04-26T14:45:29.853Z</time></trkpt><trkpt lat="43.5740359" lon="11.5387926"><ele>136.0</ele><time>2026-04-26T14:45:30.852Z</time></trkpt><trkpt lat="43.5742258" lon="11.5385648"><ele>136.0</ele><time>2026-04-26T14:45:31.852Z</time></trkpt><trkpt lat="43.5744165" lon="11.5383377"><ele>136.0</ele><time>2026-04-26T14:45:32.853Z</time></trkpt><trkpt lat="43.5746108" lon="11.5381121"><ele>137.5</ele><time>2026-04-26T14:45:33.852Z</time></trkpt><trkpt lat="43.5748056" lon="11.5378874"><ele>139.0</ele><time>2026-04-26T14:45:34.853Z</time></trkpt><trkpt lat="43.5749978" lon="11.5376614"><ele>139.0</ele><time>2026-04-26T14:45:35.853Z</time></trkpt><trkpt lat="43.5751917" lon="11.5374328"><ele>139.0</ele><time>2026-04-26T14:45:36.853Z</time></trkpt><trkpt lat="43.5753881" lon="11.5372067"><ele>139.0</ele><time>2026-04-26T14:45:37.853Z</time></trkpt><trkpt lat="43.5755799" lon="11.5369819"><ele>139.0</ele><time>2026-04-26T14:45:38.853Z</time></trkpt><trkpt lat="43.5757668" lon="11.5367629"><ele>139.0</ele><time>2026-04-26T14:45:39.853Z</time></trkpt><trkpt lat="43.5759469" lon="11.5365492"><ele>139.0</ele><time>2026-04-26T14:45:40.852Z</time></trkpt><trkpt lat="43.5761219" lon="11.5363458"><ele>137.66666666666669</ele><time>2026-04-26T14:45:41.853Z</time></trkpt><trkpt lat="43.57629" lon="11.5361538"><ele>136.33333333333334</ele><time>2026-04-26T14:45:42.852Z</time></trkpt><trkpt lat="43.5764464" lon="11.5359729"><ele>135.0</ele><time>2026-04-26T14:45:43.853Z</time></trkpt><trkpt lat="43.5765946" lon="11.5358048"><ele>135.0</ele><time>2026-04-26T14:45:44.853Z</time></trkpt><trkpt lat="43.5767369" lon="11.5356365"><ele>135.0</ele><time>2026-04-26T14:45:45.853Z</time></trkpt><trkpt lat="43.5768714" lon="11.5354757"><ele>135.0</ele><time>2026-04-26T14:45:46.852Z</time></trkpt><trkpt lat="43.5770048" lon="11.535324"><ele>135.33333333333334</ele><time>2026-04-26T14:45:47.852Z</time></trkpt><trkpt lat="43.57713" lon="11.5351707"><ele>135.66666666666669</ele><time>2026-04-26T14:45:48.853Z</time></trkpt><trkpt lat="43.5772502" lon="11.5350213"><ele>136.0</ele><time>2026-04-26T14:45:49.852Z</time></trkpt><trkpt lat="43.5773632" lon="11.534889"><ele>136.0</ele><time>2026-04-26T14:45:50.853Z</time></trkpt><trkpt lat="43.5774681" lon="11.5347799"><ele>136.0</ele><time>2026-04-26T14:45:51.853Z</time></trkpt><trkpt lat="43.5775724" lon="11.534709"><ele>136.0</ele><time>2026-04-26T14:45:52.853Z</time></trkpt><trkpt lat="43.577682" lon="11.534665"><ele>136.0</ele><time>2026-04-26T14:45:53.853Z</time></trkpt><trkpt lat="43.5777872" lon="11.5346514"><ele>136.2</ele><time>2026-04-26T14:45:54.853Z</time></trkpt><trkpt lat="43.5778848" lon="11.5346297"><ele>136.39999999999998</ele><time>2026-04-26T14:45:55.853Z</time></trkpt><trkpt lat="43.5779617" lon="11.534559"><ele>136.6</ele><time>2026-04-26T14:45:56.852Z</time></trkpt><trkpt lat="43.5780154" lon="11.534437"><ele>136.79999999999998</ele><time>2026-04-26T14:45:57.852Z</time></trkpt><trkpt lat="43.5780233" lon="11.5342594"><ele>137.0</ele><time>2026-04-26T14:45:58.853Z</time></trkpt><trkpt lat="43.578017" lon="11.5340857"><ele>137.0</ele><time>2026-04-26T14:45:59.853Z</time></trkpt><trkpt lat="43.5780304" lon="11.533878"><ele>137.0</ele><time>2026-04-26T14:46:00.853Z</time></trkpt><trkpt lat="43.5780884" lon="11.5336779"><ele>137.0</ele><time>2026-04-26T14:46:01.853Z</time></trkpt><trkpt lat="43.5781703" lon="11.533487"><ele>135.66666666666666</ele><time>2026-04-26T14:46:02.853Z</time></trkpt><trkpt lat="43.5782615" lon="11.5332812"><ele>134.33333333333334</ele><time>2026-04-26T14:46:03.852Z</time></trkpt><trkpt lat="43.5783624" lon="11.5330645"><ele>133.0</ele><time>2026-04-26T14:46:04.853Z</time></trkpt><trkpt lat="43.5784743" lon="11.5328477"><ele>133.0</ele><time>2026-04-26T14:46:05.852Z</time></trkpt><trkpt lat="43.5785943" lon="11.5326213"><ele>133.0</ele><time>2026-04-26T14:46:06.853Z</time></trkpt><trkpt lat="43.5787142" lon="11.5323919"><ele>133.0</ele><time>2026-04-26T14:46:07.852Z</time></trkpt><trkpt lat="43.5788394" lon="11.5321448"><ele>132.0</ele><time>2026-04-26T14:46:08.853Z</time></trkpt><trkpt lat="43.5789752" lon="11.5318962"><ele>131.0</ele><time>2026-04-26T14:46:09.853Z</time></trkpt><trkpt lat="43.5791103" lon="11.531644"><ele>131.0</ele><time>2026-04-26T14:46:10.853Z</time></trkpt><trkpt lat="43.5792466" lon="11.5313879"><ele>131.0</ele><time>2026-04-26T14:46:11.853Z</time></trkpt><trkpt lat="43.5793894" lon="11.5311239"><ele>130.0</ele><time>2026-04-26T14:46:12.853Z</time></trkpt><trkpt lat="43.5795334" lon="11.5308587"><ele>129.0</ele><time>2026-04-26T14:46:13.853Z</time></trkpt><trkpt lat="43.579684" lon="11.5305933"><ele>129.0</ele><time>2026-04-26T14:46:14.852Z</time></trkpt><trkpt lat="43.5798511" lon="11.5303452"><ele>129.0</ele><time>2026-04-26T14:46:15.852Z</time></trkpt><trkpt lat="43.5800373" lon="11.5301217"><ele>129.0</ele><time>2026-04-26T14:46:16.852Z</time></trkpt><trkpt lat="43.5802402" lon="11.5299334"><ele>129.0</ele><time>2026-04-26T14:46:17.853Z</time></trkpt><trkpt lat="43.5804418" lon="11.5297669"><ele>129.0</ele><time>2026-04-26T14:46:18.853Z</time></trkpt><trkpt lat="43.5806301" lon="11.5295794"><ele>129.0</ele><time>2026-04-26T14:46:19.853Z</time></trkpt><trkpt lat="43.5807798" lon="11.5293386"><ele>129.0</ele><time>2026-04-26T14:46:20.853Z</time></trkpt><trkpt lat="43.5809145" lon="11.5290752"><ele>129.0</ele><time>2026-04-26T14:46:21.853Z</time></trkpt><trkpt lat="43.5810122" lon="11.528807"><ele>129.66666666666666</ele><time>2026-04-26T14:46:22.853Z</time></trkpt><trkpt lat="43.5810967" lon="11.5285539"><ele>130.33333333333331</ele><time>2026-04-26T14:46:23.852Z</time></trkpt><trkpt lat="43.5811903" lon="11.5283023"><ele>131.0</ele><time>2026-04-26T14:46:24.852Z</time></trkpt><trkpt lat="43.5812792" lon="11.5280393"><ele>132.0</ele><time>2026-04-26T14:46:25.852Z</time></trkpt><trkpt lat="43.5813766" lon="11.527766"><ele>133.0</ele><time>2026-04-26T14:46:26.852Z</time></trkpt><trkpt lat="43.581482" lon="11.5274893"><ele>134.0</ele><time>2026-04-26T14:46:27.853Z</time></trkpt><trkpt lat="43.5815926" lon="11.52721"><ele>133.5</ele><time>2026-04-26T14:46:28.852Z</time></trkpt><trkpt lat="43.5817074" lon="11.5269263"><ele>133.0</ele><time>2026-04-26T14:46:29.853Z</time></trkpt><trkpt lat="43.5818294" lon="11.5266449"><ele>133.0</ele><time>2026-04-26T14:46:30.853Z</time></trkpt><trkpt lat="43.581963" lon="11.5263674"><ele>133.0</ele><time>2026-04-26T14:46:31.853Z</time></trkpt><trkpt lat="43.5821" lon="11.5260919"><ele>134.0</ele><time>2026-04-26T14:46:32.852Z</time></trkpt><trkpt lat="43.582244" lon="11.5258195"><ele>135.0</ele><time>2026-04-26T14:46:33.853Z</time></trkpt><trkpt lat="43.5823957" lon="11.5255497"><ele>133.5</ele><time>2026-04-26T14:46:34.853Z</time></trkpt><trkpt lat="43.5825483" lon="11.525278"><ele>132.0</ele><time>2026-04-26T14:46:35.853Z</time></trkpt><trkpt lat="43.5827089" lon="11.525005"><ele>132.5</ele><time>2026-04-26T14:46:36.853Z</time></trkpt><trkpt lat="43.5828786" lon="11.5247381"><ele>133.0</ele><time>2026-04-26T14:46:37.853Z</time></trkpt><trkpt lat="43.5830477" lon="11.5244743"><ele>133.0</ele><time>2026-04-26T14:46:38.853Z</time></trkpt><trkpt lat="43.5832229" lon="11.52422"><ele>133.0</ele><time>2026-04-26T14:46:39.853Z</time></trkpt><trkpt lat="43.5834077" lon="11.5239697"><ele>133.0</ele><time>2026-04-26T14:46:40.853Z</time></trkpt><trkpt lat="43.5835922" lon="11.5237224"><ele>133.0</ele><time>2026-04-26T14:46:41.853Z</time></trkpt><trkpt lat="43.5837744" lon="11.5234633"><ele>134.0</ele><time>2026-04-26T14:46:42.853Z</time></trkpt><trkpt lat="43.5839536" lon="11.5232039"><ele>135.0</ele><time>2026-04-26T14:46:43.853Z</time></trkpt><trkpt lat="43.5841336" lon="11.5229464"><ele>133.0</ele><time>2026-04-26T14:46:44.853Z</time></trkpt><trkpt lat="43.5843119" lon="11.5226865"><ele>131.0</ele><time>2026-04-26T14:46:45.853Z</time></trkpt><trkpt lat="43.5844926" lon="11.5224279"><ele>131.5</ele><time>2026-04-26T14:46:46.853Z</time></trkpt><trkpt lat="43.5846708" lon="11.5221703"><ele>132.0</ele><time>2026-04-26T14:46:47.852Z</time></trkpt><trkpt lat="43.5848513" lon="11.5219161"><ele>132.0</ele><time>2026-04-26T14:46:48.853Z</time></trkpt><trkpt lat="43.5850329" lon="11.5216618"><ele>132.0</ele><time>2026-04-26T14:46:49.853Z</time></trkpt><trkpt lat="43.5852154" lon="11.5214072"><ele>133.0</ele><time>2026-04-26T14:46:50.853Z</time></trkpt><trkpt lat="43.5853957" lon="11.5211477"><ele>134.0</ele><time>2026-04-26T14:46:51.853Z</time></trkpt><trkpt lat="43.5855755" lon="11.520891"><ele>134.0</ele><time>2026-04-26T14:46:52.853Z</time></trkpt><trkpt lat="43.5857554" lon="11.5206355"><ele>134.0</ele><time>2026-04-26T14:46:53.852Z</time></trkpt><trkpt lat="43.585937" lon="11.5203821"><ele>133.0</ele><time>2026-04-26T14:46:54.852Z</time></trkpt><trkpt lat="43.5861176" lon="11.5201283"><ele>132.0</ele><time>2026-04-26T14:46:55.852Z</time></trkpt><trkpt lat="43.5862955" lon="11.5198757"><ele>132.0</ele><time>2026-04-26T14:46:56.853Z</time></trkpt><trkpt lat="43.5864694" lon="11.5196244"><ele>132.0</ele><time>2026-04-26T14:46:57.853Z</time></trkpt><trkpt lat="43.5866468" lon="11.5193754"><ele>131.0</ele><time>2026-04-26T14:46:58.853Z</time></trkpt><trkpt lat="43.5868245" lon="11.5191193"><ele>130.0</ele><time>2026-04-26T14:46:59.853Z</time></trkpt><trkpt lat="43.5870035" lon="11.5188668"><ele>130.5</ele><time>2026-04-26T14:47:00.853Z</time></trkpt><trkpt lat="43.5871799" lon="11.5186136"><ele>131.0</ele><time>2026-04-26T14:47:01.852Z</time></trkpt><trkpt lat="43.5873598" lon="11.5183604"><ele>131.0</ele><time>2026-04-26T14:47:02.852Z</time></trkpt><trkpt lat="43.5875409" lon="11.5181056"><ele>131.0</ele><time>2026-04-26T14:47:03.853Z</time></trkpt><trkpt lat="43.587722" lon="11.5178464"><ele>132.0</ele><time>2026-04-26T14:47:04.853Z</time></trkpt><trkpt lat="43.5879006" lon="11.5175889"><ele>133.0</ele><time>2026-04-26T14:47:05.853Z</time></trkpt><trkpt lat="43.5880801" lon="11.5173304"><ele>133.0</ele><time>2026-04-26T14:47:06.852Z</time></trkpt><trkpt lat="43.5882608" lon="11.5170761"><ele>133.0</ele><time>2026-04-26T14:47:07.853Z</time></trkpt><trkpt lat="43.588443" lon="11.5168227"><ele>132.5</ele><time>2026-04-26T14:47:08.853Z</time></trkpt><trkpt lat="43.5886235" lon="11.5165675"><ele>132.0</ele><time>2026-04-26T14:47:09.853Z</time></trkpt><trkpt lat="43.5888034" lon="11.516315"><ele>133.0</ele><time>2026-04-26T14:47:10.852Z</time></trkpt><trkpt lat="43.5889846" lon="11.5160594"><ele>134.0</ele><time>2026-04-26T14:47:11.853Z</time></trkpt><trkpt lat="43.5891728" lon="11.5158165"><ele>134.0</ele><time>2026-04-26T14:47:12.852Z</time></trkpt><trkpt lat="43.5893712" lon="11.5155963"><ele>134.0</ele><time>2026-04-26T14:47:13.852Z</time></trkpt><trkpt lat="43.5895813" lon="11.5154031"><ele>133.0</ele><time>2026-04-26T14:47:14.853Z</time></trkpt><trkpt lat="43.5898018" lon="11.5152549"><ele>132.0</ele><time>2026-04-26T14:47:15.853Z</time></trkpt><trkpt lat="43.5900278" lon="11.5151489"><ele>132.0</ele><time>2026-04-26T14:47:16.853Z</time></trkpt><trkpt lat="43.590261" lon="11.5151097"><ele>132.0</ele><time>2026-04-26T14:47:17.853Z</time></trkpt><trkpt lat="43.5904939" lon="11.5151211"><ele>131.5</ele><time>2026-04-26T14:47:18.853Z</time></trkpt><trkpt lat="43.5907275" lon="11.515179"><ele>131.0</ele><time>2026-04-26T14:47:19.852Z</time></trkpt><trkpt lat="43.5909526" lon="11.5152934"><ele>132.33333333333331</ele><time>2026-04-26T14:47:20.853Z</time></trkpt><trkpt lat="43.5911551" lon="11.5154389"><ele>133.66666666666666</ele><time>2026-04-26T14:47:21.853Z</time></trkpt><trkpt lat="43.5913309" lon="11.5155999"><ele>135.0</ele><time>2026-04-26T14:47:22.853Z</time></trkpt><trkpt lat="43.5914879" lon="11.5157763"><ele>135.0</ele><time>2026-04-26T14:47:23.852Z</time></trkpt><trkpt lat="43.5916376" lon="11.5159451"><ele>135.0</ele><time>2026-04-26T14:47:24.853Z</time></trkpt><trkpt lat="43.5917689" lon="11.5160944"><ele>135.0</ele><time>2026-04-26T14:47:25.853Z</time></trkpt><trkpt lat="43.5918834" lon="11.516231"><ele>135.0</ele><time>2026-04-26T14:47:26.853Z</time></trkpt><trkpt lat="43.5919792" lon="11.5163588"><ele>135.0</ele><time>2026-04-26T14:47:27.853Z</time></trkpt><trkpt lat="43.5920497" lon="11.5164796"><ele>135.0</ele><time>2026-04-26T14:47:28.853Z</time></trkpt><trkpt lat="43.5921424" lon="11.5165567"><ele>135.0</ele><time>2026-04-26T14:47:29.852Z</time></trkpt><trkpt lat="43.5922359" lon="11.5165835"><ele>135.0</ele><time>2026-04-26T14:47:30.853Z</time></trkpt><trkpt lat="43.5923342" lon="11.5166002"><ele>134.6</ele><time>2026-04-26T14:47:31.853Z</time></trkpt><trkpt lat="43.592433" lon="11.5166193"><ele>134.2</ele><time>2026-04-26T14:47:32.853Z</time></trkpt><trkpt lat="43.5925335" lon="11.516642"><ele>133.8</ele><time>2026-04-26T14:47:33.853Z</time></trkpt><trkpt lat="43.592635" lon="11.5166557"><ele>133.4</ele><time>2026-04-26T14:47:34.853Z</time></trkpt><trkpt lat="43.5927378" lon="11.5166558"><ele>133.0</ele><time>2026-04-26T14:47:35.853Z</time></trkpt><trkpt lat="43.5928412" lon="11.5166145"><ele>132.8</ele><time>2026-04-26T14:47:36.853Z</time></trkpt><trkpt lat="43.5929356" lon="11.5165458"><ele>132.60000000000002</ele><time>2026-04-26T14:47:37.853Z</time></trkpt><trkpt lat="43.593018" lon="11.5164593"><ele>132.39999999999998</ele><time>2026-04-26T14:47:38.852Z</time></trkpt><trkpt lat="43.5930898" lon="11.5163835"><ele>132.2</ele><time>2026-04-26T14:47:39.853Z</time></trkpt><trkpt lat="43.5931794" lon="11.5163263"><ele>132.0</ele><time>2026-04-26T14:47:40.853Z</time></trkpt><trkpt lat="43.5932723" lon="11.516305"><ele>132.0</ele><time>2026-04-26T14:47:41.853Z</time></trkpt><trkpt lat="43.5933744" lon="11.5163176"><ele>132.0</ele><time>2026-04-26T14:47:42.852Z</time></trkpt><trkpt lat="43.5934803" lon="11.5163648"><ele>132.0</ele><time>2026-04-26T14:47:43.852Z</time></trkpt><trkpt lat="43.5935898" lon="11.5164397"><ele>132.0</ele><time>2026-04-26T14:47:44.853Z</time></trkpt><trkpt lat="43.5937016" lon="11.516517"><ele>132.5</ele><time>2026-04-26T14:47:45.853Z</time></trkpt><trkpt lat="43.5938182" lon="11.5165983"><ele>133.0</ele><time>2026-04-26T14:47:46.853Z</time></trkpt><trkpt lat="43.5939359" lon="11.5166714"><ele>133.5</ele><time>2026-04-26T14:47:47.852Z</time></trkpt><trkpt lat="43.5940547" lon="11.5167176"><ele>134.0</ele><time>2026-04-26T14:47:48.853Z</time></trkpt><trkpt lat="43.5941745" lon="11.516753"><ele>134.0</ele><time>2026-04-26T14:47:49.852Z</time></trkpt><trkpt lat="43.5942965" lon="11.5167837"><ele>134.0</ele><time>2026-04-26T14:47:50.853Z</time></trkpt><trkpt lat="43.5944239" lon="11.5167788"><ele>134.0</ele><time>2026-04-26T14:47:51.853Z</time></trkpt><trkpt lat="43.5945526" lon="11.5167705"><ele>134.0</ele><time>2026-04-26T14:47:52.853Z</time></trkpt><trkpt lat="43.5946737" lon="11.5167562"><ele>134.6</ele><time>2026-04-26T14:47:53.853Z</time></trkpt><trkpt lat="43.594788" lon="11.5167384"><ele>135.2</ele><time>2026-04-26T14:47:54.853Z</time></trkpt><trkpt lat="43.5948948" lon="11.5167223"><ele>135.79999999999998</ele><time>2026-04-26T14:47:55.853Z</time></trkpt><trkpt lat="43.5949946" lon="11.5167066"><ele>136.4</ele><time>2026-04-26T14:47:56.853Z</time></trkpt><trkpt lat="43.595091" lon="11.5166918"><ele>137.0</ele><time>2026-04-26T14:47:57.853Z</time></trkpt><trkpt lat="43.5951871" lon="11.5166817"><ele>137.0</ele><time>2026-04-26T14:47:58.852Z</time></trkpt><trkpt lat="43.5952859" lon="11.5166772"><ele>137.0</ele><time>2026-04-26T14:47:59.852Z</time></trkpt><trkpt lat="43.5953876" lon="11.5166696"><ele>137.0</ele><time>2026-04-26T14:48:00.853Z</time></trkpt><trkpt lat="43.5954907" lon="11.5166599"><ele>137.0</ele><time>2026-04-26T14:48:01.852Z</time></trkpt><trkpt lat="43.5955996" lon="11.5166516"><ele>137.0</ele><time>2026-04-26T14:48:02.853Z</time></trkpt><trkpt lat="43.5957157" lon="11.5166406"><ele>137.5</ele><time>2026-04-26T14:48:03.853Z</time></trkpt><trkpt lat="43.595831" lon="11.5166102"><ele>138.0</ele><time>2026-04-26T14:48:04.853Z</time></trkpt><trkpt lat="43.5959446" lon="11.5165743"><ele>138.5</ele><time>2026-04-26T14:48:05.852Z</time></trkpt><trkpt lat="43.5960553" lon="11.5165216"><ele>139.0</ele><time>2026-04-26T14:48:06.852Z</time></trkpt><trkpt lat="43.5961719" lon="11.5164559"><ele>139.0</ele><time>2026-04-26T14:48:07.853Z</time></trkpt><trkpt lat="43.5962898" lon="11.516389"><ele>139.0</ele><time>2026-04-26T14:48:08.852Z</time></trkpt><trkpt lat="43.5964066" lon="11.5163266"><ele>139.0</ele><time>2026-04-26T14:48:09.853Z</time></trkpt><trkpt lat="43.5965129" lon="11.5162507"><ele>139.0</ele><time>2026-04-26T14:48:10.852Z</time></trkpt><trkpt lat="43.5966268" lon="11.5161727"><ele>139.0</ele><time>2026-04-26T14:48:11.853Z</time></trkpt><trkpt lat="43.596738" lon="11.5160894"><ele>139.0</ele><time>2026-04-26T14:48:12.852Z</time></trkpt><trkpt lat="43.5968512" lon="11.51599"><ele>139.0</ele><time>2026-04-26T14:48:13.853Z</time></trkpt><trkpt lat="43.5969635" lon="11.5158807"><ele>139.0</ele><time>2026-04-26T14:48:14.852Z</time></trkpt><trkpt lat="43.59708" lon="11.5157577"><ele>139.0</ele><time>2026-04-26T14:48:15.852Z</time></trkpt><trkpt lat="43.5972105" lon="11.5156255"><ele>139.0</ele><time>2026-04-26T14:48:16.853Z</time></trkpt><trkpt lat="43.597363" lon="11.5154783"><ele>139.0</ele><time>2026-04-26T14:48:17.853Z</time></trkpt><trkpt lat="43.5975193" lon="11.5153265"><ele>138.0</ele><time>2026-04-26T14:48:18.852Z</time></trkpt><trkpt lat="43.5976858" lon="11.5151876"><ele>137.0</ele><time>2026-04-26T14:48:19.853Z</time></trkpt><trkpt lat="43.5978457" lon="11.5150474"><ele>136.0</ele><time>2026-04-26T14:48:20.853Z</time></trkpt><trkpt lat="43.5979887" lon="11.514909"><ele>136.0</ele><time>2026-04-26T14:48:21.853Z</time></trkpt><trkpt lat="43.5981223" lon="11.5147736"><ele>136.0</ele><time>2026-04-26T14:48:22.852Z</time></trkpt><trkpt lat="43.5982492" lon="11.514648"><ele>136.0</ele><time>2026-04-26T14:48:23.852Z</time></trkpt><trkpt lat="43.5983725" lon="11.5145235"><ele>136.25</ele><time>2026-04-26T14:48:24.853Z</time></trkpt><trkpt lat="43.5984915" lon="11.5144051"><ele>136.5</ele><time>2026-04-26T14:48:25.853Z</time></trkpt><trkpt lat="43.5986076" lon="11.5143035"><ele>136.75</ele><time>2026-04-26T14:48:26.853Z</time></trkpt><trkpt lat="43.5987301" lon="11.5142218"><ele>137.0</ele><time>2026-04-26T14:48:27.853Z</time></trkpt><trkpt lat="43.5988557" lon="11.5141486"><ele>137.0</ele><time>2026-04-26T14:48:28.853Z</time></trkpt><trkpt lat="43.5989851" lon="11.5140797"><ele>137.0</ele><time>2026-04-26T14:48:29.853Z</time></trkpt><trkpt lat="43.5991073" lon="11.5139693"><ele>137.0</ele><time>2026-04-26T14:48:30.852Z</time></trkpt><trkpt lat="43.5992407" lon="11.5138316"><ele>136.33333333333331</ele><time>2026-04-26T14:48:31.853Z</time></trkpt><trkpt lat="43.5993913" lon="11.5136852"><ele>135.66666666666666</ele><time>2026-04-26T14:48:32.852Z</time></trkpt><trkpt lat="43.5995554" lon="11.5135391"><ele>135.0</ele><time>2026-04-26T14:48:33.853Z</time></trkpt><trkpt lat="43.5997271" lon="11.5133861"><ele>135.0</ele><time>2026-04-26T14:48:34.853Z</time></trkpt><trkpt lat="43.5998941" lon="11.5132297"><ele>135.0</ele><time>2026-04-26T14:48:35.853Z</time></trkpt><trkpt lat="43.6000607" lon="11.5130628"><ele>135.0</ele><time>2026-04-26T14:48:36.852Z</time></trkpt><trkpt lat="43.6002309" lon="11.5128941"><ele>134.66666666666666</ele><time>2026-04-26T14:48:37.852Z</time></trkpt><trkpt lat="43.6003976" lon="11.5127183"><ele>134.33333333333331</ele><time>2026-04-26T14:48:38.853Z</time></trkpt><trkpt lat="43.6005606" lon="11.5125406"><ele>134.0</ele><time>2026-04-26T14:48:39.853Z</time></trkpt><trkpt lat="43.6007192" lon="11.5123573"><ele>134.0</ele><time>2026-04-26T14:48:40.853Z</time></trkpt><trkpt lat="43.6008653" lon="11.512161"><ele>134.0</ele><time>2026-04-26T14:48:41.853Z</time></trkpt><trkpt lat="43.6010055" lon="11.511971"><ele>134.0</ele><time>2026-04-26T14:48:42.852Z</time></trkpt><trkpt lat="43.6011455" lon="11.5117856"><ele>133.33333333333331</ele><time>2026-04-26T14:48:43.853Z</time></trkpt><trkpt lat="43.6012998" lon="11.5116184"><ele>132.66666666666666</ele><time>2026-04-26T14:48:44.853Z</time></trkpt><trkpt lat="43.6014665" lon="11.5114744"><ele>132.0</ele><time>2026-04-26T14:48:45.852Z</time></trkpt><trkpt lat="43.6016419" lon="11.5113478"><ele>131.66666666666666</ele><time>2026-04-26T14:48:46.852Z</time></trkpt><trkpt lat="43.6018098" lon="11.5112078"><ele>131.33333333333331</ele><time>2026-04-26T14:48:47.853Z</time></trkpt><trkpt lat="43.6019724" lon="11.5110783"><ele>131.0</ele><time>2026-04-26T14:48:48.853Z</time></trkpt><trkpt lat="43.6021305" lon="11.510954"><ele>131.0</ele><time>2026-04-26T14:48:49.853Z</time></trkpt><trkpt lat="43.6022806" lon="11.5108431"><ele>131.0</ele><time>2026-04-26T14:48:50.852Z</time></trkpt><trkpt lat="43.6024204" lon="11.5107426"><ele>131.0</ele><time>2026-04-26T14:48:51.853Z</time></trkpt><trkpt lat="43.6025529" lon="11.5106382"><ele>131.0</ele><time>2026-04-26T14:48:52.852Z</time></trkpt><trkpt lat="43.6026786" lon="11.510538"><ele>131.0</ele><time>2026-04-26T14:48:53.853Z</time></trkpt><trkpt lat="43.6027912" lon="11.5104096"><ele>131.0</ele><time>2026-04-26T14:48:54.852Z</time></trkpt><trkpt lat="43.6028844" lon="11.5102573"><ele>131.0</ele><time>2026-04-26T14:48:55.853Z</time></trkpt><trkpt lat="43.6029685" lon="11.5100765"><ele>130.66666666666666</ele><time>2026-04-26T14:48:56.852Z</time></trkpt><trkpt lat="43.6030566" lon="11.5098742"><ele>130.33333333333334</ele><time>2026-04-26T14:48:57.852Z</time></trkpt><trkpt lat="43.6031449" lon="11.5096575"><ele>130.0</ele><time>2026-04-26T14:48:58.853Z</time></trkpt><trkpt lat="43.6032449" lon="11.5094416"><ele>130.0</ele><time>2026-04-26T14:48:59.853Z</time></trkpt><trkpt lat="43.603361" lon="11.5092361"><ele>130.0</ele><time>2026-04-26T14:49:00.853Z</time></trkpt><trkpt lat="43.6034881" lon="11.5090472"><ele>130.0</ele><time>2026-04-26T14:49:01.853Z</time></trkpt><trkpt lat="43.6036184" lon="11.5088778"><ele>130.66666666666669</ele><time>2026-04-26T14:49:02.853Z</time></trkpt><trkpt lat="43.6037458" lon="11.5087047"><ele>131.33333333333334</ele><time>2026-04-26T14:49:03.853Z</time></trkpt><trkpt lat="43.6038607" lon="11.5085012"><ele>132.0</ele><time>2026-04-26T14:49:04.853Z</time></trkpt><trkpt lat="43.6039476" lon="11.5082694"><ele>132.0</ele><time>2026-04-26T14:49:05.853Z</time></trkpt><trkpt lat="43.6040201" lon="11.5080226"><ele>132.0</ele><time>2026-04-26T14:49:06.853Z</time></trkpt><trkpt lat="43.6040825" lon="11.507784"><ele>132.0</ele><time>2026-04-26T14:49:07.852Z</time></trkpt><trkpt lat="43.6041366" lon="11.5075279"><ele>131.66666666666666</ele><time>2026-04-26T14:49:08.853Z</time></trkpt><trkpt lat="43.6041837" lon="11.5072689"><ele>131.33333333333331</ele><time>2026-04-26T14:49:09.853Z</time></trkpt><trkpt lat="43.6042325" lon="11.5070053"><ele>131.0</ele><time>2026-04-26T14:49:10.853Z</time></trkpt><trkpt lat="43.6042848" lon="11.5067591"><ele>130.0</ele><time>2026-04-26T14:49:11.853Z</time></trkpt><trkpt lat="43.6043425" lon="11.5065286"><ele>129.0</ele><time>2026-04-26T14:49:12.853Z</time></trkpt><trkpt lat="43.6044139" lon="11.5063036"><ele>128.0</ele><time>2026-04-26T14:49:13.852Z</time></trkpt><trkpt lat="43.604505" lon="11.506113"><ele>130.33333333333331</ele><time>2026-04-26T14:49:14.852Z</time></trkpt><trkpt lat="43.6046251" lon="11.5059421"><ele>132.66666666666666</ele><time>2026-04-26T14:49:15.853Z</time></trkpt><trkpt lat="43.6047549" lon="11.5057697"><ele>135.0</ele><time>2026-04-26T14:49:16.853Z</time></trkpt><trkpt lat="43.604883" lon="11.5055843"><ele>132.66666666666666</ele><time>2026-04-26T14:49:17.853Z</time></trkpt><trkpt lat="43.60501" lon="11.5053878"><ele>130.33333333333331</ele><time>2026-04-26T14:49:18.853Z</time></trkpt><trkpt lat="43.6051428" lon="11.5051971"><ele>128.0</ele><time>2026-04-26T14:49:19.852Z</time></trkpt><trkpt lat="43.6052869" lon="11.505015"><ele>129.0</ele><time>2026-04-26T14:49:20.853Z</time></trkpt><trkpt lat="43.6054271" lon="11.5048358"><ele>130.0</ele><time>2026-04-26T14:49:21.853Z</time></trkpt><trkpt lat="43.6055653" lon="11.5046577"><ele>131.0</ele><time>2026-04-26T14:49:22.853Z</time></trkpt><trkpt lat="43.6057013" lon="11.5044915"><ele>131.0</ele><time>2026-04-26T14:49:23.852Z</time></trkpt><trkpt lat="43.6058397" lon="11.5043336"><ele>131.0</ele><time>2026-04-26T14:49:24.853Z</time></trkpt><trkpt lat="43.6059815" lon="11.5041906"><ele>131.0</ele><time>2026-04-26T14:49:25.853Z</time></trkpt><trkpt lat="43.6061348" lon="11.5040578"><ele>130.33333333333331</ele><time>2026-04-26T14:49:26.853Z</time></trkpt><trkpt lat="43.6062891" lon="11.5039288"><ele>129.66666666666666</ele><time>2026-04-26T14:49:27.853Z</time></trkpt><trkpt lat="43.6064421" lon="11.5037986"><ele>129.0</ele><time>2026-04-26T14:49:28.852Z</time></trkpt><trkpt lat="43.6065869" lon="11.5036811"><ele>129.0</ele><time>2026-04-26T14:49:29.852Z</time></trkpt><trkpt lat="43.6067358" lon="11.5035874"><ele>129.0</ele><time>2026-04-26T14:49:30.852Z</time></trkpt><trkpt lat="43.6069018" lon="11.5035351"><ele>129.0</ele><time>2026-04-26T14:49:31.853Z</time></trkpt><trkpt lat="43.6070806" lon="11.5035097"><ele>129.33333333333334</ele><time>2026-04-26T14:49:32.853Z</time></trkpt><trkpt lat="43.6072606" lon="11.5034895"><ele>129.66666666666669</ele><time>2026-04-26T14:49:33.852Z</time></trkpt><trkpt lat="43.6074277" lon="11.5034747"><ele>130.0</ele><time>2026-04-26T14:49:34.853Z</time></trkpt><trkpt lat="43.6075888" lon="11.5034679"><ele>130.0</ele><time>2026-04-26T14:49:35.852Z</time></trkpt><trkpt lat="43.6077445" lon="11.5034564"><ele>130.0</ele><time>2026-04-26T14:49:36.853Z</time></trkpt><trkpt lat="43.6079015" lon="11.5034231"><ele>130.0</ele><time>2026-04-26T14:49:37.853Z</time></trkpt><trkpt lat="43.6080556" lon="11.5033381"><ele>129.0</ele><time>2026-04-26T14:49:38.853Z</time></trkpt><trkpt lat="43.6082135" lon="11.5032142"><ele>128.0</ele><time>2026-04-26T14:49:39.852Z</time></trkpt><trkpt lat="43.608374" lon="11.5030794"><ele>127.0</ele><time>2026-04-26T14:49:40.852Z</time></trkpt><trkpt lat="43.608545" lon="11.5029349"><ele>127.0</ele><time>2026-04-26T14:49:41.853Z</time></trkpt><trkpt lat="43.6087175" lon="11.5027855"><ele>127.0</ele><time>2026-04-26T14:49:42.853Z</time></trkpt><trkpt lat="43.6088735" lon="11.5026228"><ele>127.0</ele><time>2026-04-26T14:49:43.853Z</time></trkpt><trkpt lat="43.6090211" lon="11.5024367"><ele>127.0</ele><time>2026-04-26T14:49:44.853Z</time></trkpt><trkpt lat="43.6091767" lon="11.5022594"><ele>127.0</ele><time>2026-04-26T14:49:45.853Z</time></trkpt><trkpt lat="43.6093533" lon="11.5021115"><ele>127.0</ele><time>2026-04-26T14:49:46.853Z</time></trkpt><trkpt lat="43.6095518" lon="11.5019975"><ele>126.5</ele><time>2026-04-26T14:49:47.853Z</time></trkpt><trkpt lat="43.6097642" lon="11.5019044"><ele>126.0</ele><time>2026-04-26T14:49:48.852Z</time></trkpt><trkpt lat="43.6099819" lon="11.5018062"><ele>126.0</ele><time>2026-04-26T14:49:49.853Z</time></trkpt><trkpt lat="43.6101999" lon="11.5016982"><ele>126.0</ele><time>2026-04-26T14:49:50.852Z</time></trkpt><trkpt lat="43.6104198" lon="11.501591"><ele>126.5</ele><time>2026-04-26T14:49:51.853Z</time></trkpt><trkpt lat="43.6106436" lon="11.5014801"><ele>127.0</ele><time>2026-04-26T14:49:52.853Z</time></trkpt><trkpt lat="43.610866" lon="11.5013724"><ele>127.0</ele><time>2026-04-26T14:49:53.852Z</time></trkpt><trkpt lat="43.6110878" lon="11.5012595"><ele>127.0</ele><time>2026-04-26T14:49:54.852Z</time></trkpt><trkpt lat="43.6113092" lon="11.5011583"><ele>125.5</ele><time>2026-04-26T14:49:55.852Z</time></trkpt><trkpt lat="43.6115278" lon="11.5010693"><ele>124.0</ele><time>2026-04-26T14:49:56.853Z</time></trkpt><trkpt lat="43.6117528" lon="11.5009949"><ele>124.0</ele><time>2026-04-26T14:49:57.853Z</time></trkpt><trkpt lat="43.6119801" lon="11.500924"><ele>124.0</ele><time>2026-04-26T14:49:58.853Z</time></trkpt><trkpt lat="43.6121984" lon="11.5008587"><ele>125.0</ele><time>2026-04-26T14:49:59.852Z</time></trkpt><trkpt lat="43.6124205" lon="11.5007917"><ele>126.0</ele><time>2026-04-26T14:50:00.853Z</time></trkpt><trkpt lat="43.6126418" lon="11.5007272"><ele>126.0</ele><time>2026-04-26T14:50:01.853Z</time></trkpt><trkpt lat="43.6128566" lon="11.500667"><ele>126.0</ele><time>2026-04-26T14:50:02.853Z</time></trkpt><trkpt lat="43.6130638" lon="11.5006068"><ele>126.0</ele><time>2026-04-26T14:50:03.852Z</time></trkpt><trkpt lat="43.6132681" lon="11.5005539"><ele>126.0</ele><time>2026-04-26T14:50:04.853Z</time></trkpt><trkpt lat="43.6134652" lon="11.5004991"><ele>126.0</ele><time>2026-04-26T14:50:05.853Z</time></trkpt><trkpt lat="43.6136468" lon="11.5004437"><ele>126.0</ele><time>2026-04-26T14:50:06.853Z</time></trkpt><trkpt lat="43.6138208" lon="11.5003619"><ele>125.33333333333334</ele><time>2026-04-26T14:50:07.852Z</time></trkpt><trkpt lat="43.6139923" lon="11.5002793"><ele>124.66666666666667</ele><time>2026-04-26T14:50:08.853Z</time></trkpt><trkpt lat="43.6141658" lon="11.5001918"><ele>124.0</ele><time>2026-04-26T14:50:09.853Z</time></trkpt><trkpt lat="43.6143354" lon="11.5001073"><ele>124.33333333333334</ele><time>2026-04-26T14:50:10.853Z</time></trkpt><trkpt lat="43.6144981" lon="11.500034"><ele>124.66666666666666</ele><time>2026-04-26T14:50:11.853Z</time></trkpt><trkpt lat="43.6146429" lon="11.4999522"><ele>125.0</ele><time>2026-04-26T14:50:12.853Z</time></trkpt><trkpt lat="43.6147719" lon="11.4998687"><ele>125.0</ele><time>2026-04-26T14:50:13.853Z</time></trkpt><trkpt lat="43.6148733" lon="11.4998"><ele>125.0</ele><time>2026-04-26T14:50:14.853Z</time></trkpt><trkpt lat="43.6149597" lon="11.4997472"><ele>125.0</ele><time>2026-04-26T14:50:15.853Z</time></trkpt><trkpt lat="43.6150303" lon="11.4997135"><ele>125.0</ele><time>2026-04-26T14:50:16.853Z</time></trkpt><trkpt lat="43.6151148" lon="11.4996635"><ele>125.0</ele><time>2026-04-26T14:50:18.852Z</time></trkpt><trkpt lat="43.6151854" lon="11.4996153"><ele>125.0</ele><time>2026-04-26T14:50:20.853Z</time></trkpt><trkpt lat="43.6152808" lon="11.4995693"><ele>125.0</ele><time>2026-04-26T14:50:22.853Z</time></trkpt><trkpt lat="43.6154274" lon="11.4995066"><ele>125.0</ele><time>2026-04-26T14:50:24.852Z</time></trkpt><trkpt lat="43.6155073" lon="11.4994373"><ele>125.0</ele><time>2026-04-26T14:50:25.853Z</time></trkpt><trkpt lat="43.6155734" lon="11.499349"><ele>125.0</ele><time>2026-04-26T14:50:26.852Z</time></trkpt><trkpt lat="43.6156487" lon="11.4992425"><ele>125.0</ele><time>2026-04-26T14:50:27.853Z</time></trkpt><trkpt lat="43.6157413" lon="11.4991256"><ele>125.0</ele><time>2026-04-26T14:50:28.853Z</time></trkpt><trkpt lat="43.6158446" lon="11.4990007"><ele>125.0</ele><time>2026-04-26T14:50:29.852Z</time></trkpt><trkpt lat="43.6159533" lon="11.4988661"><ele>125.0</ele><time>2026-04-26T14:50:30.853Z</time></trkpt><trkpt lat="43.616073" lon="11.4987267"><ele>125.0</ele><time>2026-04-26T14:50:31.852Z</time></trkpt><trkpt lat="43.6162016" lon="11.4985779"><ele>125.0</ele><time>2026-04-26T14:50:32.852Z</time></trkpt><trkpt lat="43.616329" lon="11.4984257"><ele>125.0</ele><time>2026-04-26T14:50:33.853Z</time></trkpt><trkpt lat="43.6164593" lon="11.4982686"><ele>125.0</ele><time>2026-04-26T14:50:34.852Z</time></trkpt><trkpt lat="43.616594" lon="11.4981154"><ele>125.0</ele><time>2026-04-26T14:50:35.853Z</time></trkpt><trkpt lat="43.6167292" lon="11.497967"><ele>125.0</ele><time>2026-04-26T14:50:36.853Z</time></trkpt><trkpt lat="43.6168635" lon="11.4978119"><ele>125.33333333333333</ele><time>2026-04-26T14:50:37.853Z</time></trkpt><trkpt lat="43.6169975" lon="11.49765"><ele>125.66666666666666</ele><time>2026-04-26T14:50:38.852Z</time></trkpt><trkpt lat="43.6171302" lon="11.4974848"><ele>126.0</ele><time>2026-04-26T14:50:39.852Z</time></trkpt><trkpt lat="43.6172625" lon="11.497322"><ele>126.0</ele><time>2026-04-26T14:50:40.853Z</time></trkpt><trkpt lat="43.6173993" lon="11.497166"><ele>126.0</ele><time>2026-04-26T14:50:41.853Z</time></trkpt><trkpt lat="43.6175348" lon="11.4970182"><ele>126.0</ele><time>2026-04-26T14:50:42.852Z</time></trkpt><trkpt lat="43.6176741" lon="11.4968881"><ele>125.66666666666666</ele><time>2026-04-26T14:50:43.853Z</time></trkpt><trkpt lat="43.6178109" lon="11.4967703"><ele>125.33333333333333</ele><time>2026-04-26T14:50:44.853Z</time></trkpt><trkpt lat="43.6179441" lon="11.4966697"><ele>125.0</ele><time>2026-04-26T14:50:45.853Z</time></trkpt><trkpt lat="43.6180757" lon="11.4966012"><ele>125.0</ele><time>2026-04-26T14:50:46.853Z</time></trkpt><trkpt lat="43.6182028" lon="11.4965363"><ele>125.0</ele><time>2026-04-26T14:50:47.853Z</time></trkpt><trkpt lat="43.6183339" lon="11.4964786"><ele>125.0</ele><time>2026-04-26T14:50:48.852Z</time></trkpt><trkpt lat="43.6184723" lon="11.4964395"><ele>125.0</ele><time>2026-04-26T14:50:49.852Z</time></trkpt><trkpt lat="43.6186094" lon="11.496404"><ele>126.25</ele><time>2026-04-26T14:50:50.853Z</time></trkpt><trkpt lat="43.6187459" lon="11.4963756"><ele>127.5</ele><time>2026-04-26T14:50:51.853Z</time></trkpt><trkpt lat="43.6188859" lon="11.4963612"><ele>128.75</ele><time>2026-04-26T14:50:52.853Z</time></trkpt><trkpt lat="43.6190216" lon="11.4963485"><ele>130.0</ele><time>2026-04-26T14:50:53.853Z</time></trkpt><trkpt lat="43.6191496" lon="11.4963427"><ele>130.0</ele><time>2026-04-26T14:50:54.853Z</time></trkpt><trkpt lat="43.619278" lon="11.4963257"><ele>130.0</ele><time>2026-04-26T14:50:55.853Z</time></trkpt><trkpt lat="43.6194094" lon="11.4963051"><ele>130.0</ele><time>2026-04-26T14:50:56.853Z</time></trkpt><trkpt lat="43.6195358" lon="11.4962895"><ele>130.0</ele><time>2026-04-26T14:50:57.853Z</time></trkpt><trkpt lat="43.6196528" lon="11.4962762"><ele>129.8</ele><time>2026-04-26T14:50:58.853Z</time></trkpt><trkpt lat="43.619767" lon="11.4962651"><ele>129.6</ele><time>2026-04-26T14:50:59.853Z</time></trkpt><trkpt lat="43.6198791" lon="11.4962528"><ele>129.4</ele><time>2026-04-26T14:51:00.853Z</time></trkpt><trkpt lat="43.6199868" lon="11.4962356"><ele>129.2</ele><time>2026-04-26T14:51:01.853Z</time></trkpt><trkpt lat="43.6200948" lon="11.496221"><ele>129.0</ele><time>2026-04-26T14:51:02.853Z</time></trkpt><trkpt lat="43.6201996" lon="11.4962112"><ele>128.2</ele><time>2026-04-26T14:51:03.853Z</time></trkpt><trkpt lat="43.6203034" lon="11.4962033"><ele>127.4</ele><time>2026-04-26T14:51:04.852Z</time></trkpt><trkpt lat="43.6204026" lon="11.4961949"><ele>126.6</ele><time>2026-04-26T14:51:05.853Z</time></trkpt><trkpt lat="43.6205061" lon="11.4961814"><ele>125.8</ele><time>2026-04-26T14:51:06.853Z</time></trkpt><trkpt lat="43.6206091" lon="11.4961707"><ele>125.0</ele><time>2026-04-26T14:51:07.853Z</time></trkpt><trkpt lat="43.6207108" lon="11.4961477"><ele>125.0</ele><time>2026-04-26T14:51:08.853Z</time></trkpt><trkpt lat="43.6208145" lon="11.4961151"><ele>125.0</ele><time>2026-04-26T14:51:09.853Z</time></trkpt><trkpt lat="43.6209246" lon="11.4960717"><ele>125.0</ele><time>2026-04-26T14:51:10.853Z</time></trkpt><trkpt lat="43.6210327" lon="11.4960173"><ele>125.0</ele><time>2026-04-26T14:51:11.852Z</time></trkpt><trkpt lat="43.6211512" lon="11.4959474"><ele>125.5</ele><time>2026-04-26T14:51:12.853Z</time></trkpt><trkpt lat="43.6212684" lon="11.4958659"><ele>126.0</ele><time>2026-04-26T14:51:13.853Z</time></trkpt><trkpt lat="43.6213985" lon="11.4957909"><ele>126.5</ele><time>2026-04-26T14:51:14.852Z</time></trkpt><trkpt lat="43.6215255" lon="11.495699"><ele>127.0</ele><time>2026-04-26T14:51:15.853Z</time></trkpt><trkpt lat="43.6216578" lon="11.4956036"><ele>127.0</ele><time>2026-04-26T14:51:16.853Z</time></trkpt><trkpt lat="43.6217966" lon="11.4955095"><ele>127.0</ele><time>2026-04-26T14:51:17.852Z</time></trkpt><trkpt lat="43.621936" lon="11.4954046"><ele>127.0</ele><time>2026-04-26T14:51:18.853Z</time></trkpt><trkpt lat="43.6220656" lon="11.4952786"><ele>127.0</ele><time>2026-04-26T14:51:19.853Z</time></trkpt><trkpt lat="43.622192" lon="11.4951335"><ele>127.0</ele><time>2026-04-26T14:51:20.852Z</time></trkpt><trkpt lat="43.6223064" lon="11.4949824"><ele>127.0</ele><time>2026-04-26T14:51:21.853Z</time></trkpt><trkpt lat="43.6223996" lon="11.494803"><ele>127.0</ele><time>2026-04-26T14:51:22.852Z</time></trkpt><trkpt lat="43.6224773" lon="11.4945947"><ele>127.0</ele><time>2026-04-26T14:51:23.852Z</time></trkpt><trkpt lat="43.6225537" lon="11.4943801"><ele>127.0</ele><time>2026-04-26T14:51:24.853Z</time></trkpt><trkpt lat="43.6226112" lon="11.4941442"><ele>125.66666666666667</ele><time>2026-04-26T14:51:25.853Z</time></trkpt><trkpt lat="43.6226571" lon="11.4938834"><ele>124.33333333333334</ele><time>2026-04-26T14:51:26.852Z</time></trkpt><trkpt lat="43.6226782" lon="11.4935984"><ele>123.0</ele><time>2026-04-26T14:51:27.852Z</time></trkpt><trkpt lat="43.6226864" lon="11.493299"><ele>123.0</ele><time>2026-04-26T14:51:28.853Z</time></trkpt><trkpt lat="43.6226679" lon="11.4929944"><ele>123.0</ele><time>2026-04-26T14:51:29.853Z</time></trkpt><trkpt lat="43.6226374" lon="11.4926916"><ele>123.0</ele><time>2026-04-26T14:51:30.853Z</time></trkpt><trkpt lat="43.6225766" lon="11.4923896"><ele>123.0</ele><time>2026-04-26T14:51:31.852Z</time></trkpt><trkpt lat="43.622509" lon="11.4920984"><ele>123.0</ele><time>2026-04-26T14:51:32.853Z</time></trkpt><trkpt lat="43.6224372" lon="11.4918141"><ele>123.0</ele><time>2026-04-26T14:51:33.852Z</time></trkpt><trkpt lat="43.6223682" lon="11.4915356"><ele>123.0</ele><time>2026-04-26T14:51:34.852Z</time></trkpt><trkpt lat="43.6223013" lon="11.4912611"><ele>123.0</ele><time>2026-04-26T14:51:35.853Z</time></trkpt><trkpt lat="43.6222314" lon="11.4909892"><ele>123.0</ele><time>2026-04-26T14:51:36.853Z</time></trkpt><trkpt lat="43.6221617" lon="11.4907124"><ele>123.0</ele><time>2026-04-26T14:51:37.852Z</time></trkpt><trkpt lat="43.6220887" lon="11.4904325"><ele>123.0</ele><time>2026-04-26T14:51:38.853Z</time></trkpt><trkpt lat="43.6220198" lon="11.4901531"><ele>123.0</ele><time>2026-04-26T14:51:39.852Z</time></trkpt><trkpt lat="43.6219602" lon="11.4898954"><ele>123.0</ele><time>2026-04-26T14:51:40.853Z</time></trkpt><trkpt lat="43.6219037" lon="11.4896482"><ele>123.0</ele><time>2026-04-26T14:51:41.853Z</time></trkpt><trkpt lat="43.6218515" lon="11.4894271"><ele>123.0</ele><time>2026-04-26T14:51:42.853Z</time></trkpt><trkpt lat="43.6218072" lon="11.4892218"><ele>123.0</ele><time>2026-04-26T14:51:43.852Z</time></trkpt><trkpt lat="43.6217602" lon="11.4890289"><ele>123.0</ele><time>2026-04-26T14:51:44.853Z</time></trkpt><trkpt lat="43.6217143" lon="11.4888443"><ele>123.0</ele><time>2026-04-26T14:51:45.853Z</time></trkpt><trkpt lat="43.6216779" lon="11.4886653"><ele>123.0</ele><time>2026-04-26T14:51:46.853Z</time></trkpt><trkpt lat="43.6216547" lon="11.4884915"><ele>123.0</ele><time>2026-04-26T14:51:47.853Z</time></trkpt><trkpt lat="43.6216314" lon="11.4883192"><ele>123.0</ele><time>2026-04-26T14:51:48.853Z</time></trkpt><trkpt lat="43.6216141" lon="11.4881593"><ele>123.0</ele><time>2026-04-26T14:51:49.853Z</time></trkpt><trkpt lat="43.6216052" lon="11.4879966"><ele>123.0</ele><time>2026-04-26T14:51:50.852Z</time></trkpt><trkpt lat="43.6215983" lon="11.4878441"><ele>123.5</ele><time>2026-04-26T14:51:51.853Z</time></trkpt><trkpt lat="43.6215984" lon="11.4876885"><ele>124.0</ele><time>2026-04-26T14:51:52.853Z</time></trkpt><trkpt lat="43.6216082" lon="11.4875299"><ele>124.5</ele><time>2026-04-26T14:51:53.853Z</time></trkpt><trkpt lat="43.6216299" lon="11.4873817"><ele>125.0</ele><time>2026-04-26T14:51:54.853Z</time></trkpt><trkpt lat="43.6216547" lon="11.4872248"><ele>124.75</ele><time>2026-04-26T14:51:55.853Z</time></trkpt><trkpt lat="43.6216881" lon="11.4870598"><ele>124.5</ele><time>2026-04-26T14:51:56.853Z</time></trkpt><trkpt lat="43.6217337" lon="11.4868826"><ele>124.25</ele><time>2026-04-26T14:51:57.853Z</time></trkpt><trkpt lat="43.6217924" lon="11.4867001"><ele>124.0</ele><time>2026-04-26T14:51:58.853Z</time></trkpt><trkpt lat="43.6218779" lon="11.4865254"><ele>124.0</ele><time>2026-04-26T14:51:59.853Z</time></trkpt><trkpt lat="43.6219702" lon="11.4863538"><ele>124.0</ele><time>2026-04-26T14:52:00.853Z</time></trkpt><trkpt lat="43.6220627" lon="11.486172"><ele>124.0</ele><time>2026-04-26T14:52:01.853Z</time></trkpt><trkpt lat="43.6221562" lon="11.4859692"><ele>124.33333333333334</ele><time>2026-04-26T14:52:02.852Z</time></trkpt><trkpt lat="43.62226" lon="11.4857613"><ele>124.66666666666666</ele><time>2026-04-26T14:52:03.853Z</time></trkpt><trkpt lat="43.6223739" lon="11.4855542"><ele>125.0</ele><time>2026-04-26T14:52:04.852Z</time></trkpt><trkpt lat="43.6224814" lon="11.485348"><ele>124.33333333333333</ele><time>2026-04-26T14:52:05.853Z</time></trkpt><trkpt lat="43.6225876" lon="11.4851358"><ele>123.66666666666666</ele><time>2026-04-26T14:52:06.852Z</time></trkpt><trkpt lat="43.6226906" lon="11.4849274"><ele>123.0</ele><time>2026-04-26T14:52:07.852Z</time></trkpt><trkpt lat="43.6227912" lon="11.4847289"><ele>123.33333333333334</ele><time>2026-04-26T14:52:08.853Z</time></trkpt><trkpt lat="43.6228862" lon="11.4845386"><ele>123.66666666666667</ele><time>2026-04-26T14:52:09.853Z</time></trkpt><trkpt lat="43.6229743" lon="11.4843563"><ele>124.0</ele><time>2026-04-26T14:52:10.853Z</time></trkpt><trkpt lat="43.6230679" lon="11.4841717"><ele>124.0</ele><time>2026-04-26T14:52:11.853Z</time></trkpt><trkpt lat="43.6231527" lon="11.4839888"><ele>124.0</ele><time>2026-04-26T14:52:12.853Z</time></trkpt><trkpt lat="43.6232394" lon="11.4838106"><ele>124.0</ele><time>2026-04-26T14:52:13.852Z</time></trkpt><trkpt lat="43.6233239" lon="11.4836318"><ele>124.0</ele><time>2026-04-26T14:52:14.852Z</time></trkpt><trkpt lat="43.6234071" lon="11.4834668"><ele>124.0</ele><time>2026-04-26T14:52:15.853Z</time></trkpt><trkpt lat="43.6234909" lon="11.4832989"><ele>124.0</ele><time>2026-04-26T14:52:16.852Z</time></trkpt><trkpt lat="43.6235673" lon="11.4831493"><ele>124.0</ele><time>2026-04-26T14:52:17.852Z</time></trkpt><trkpt lat="43.6236362" lon="11.4830075"><ele>124.4</ele><time>2026-04-26T14:52:18.852Z</time></trkpt><trkpt lat="43.6237024" lon="11.4828628"><ele>124.80000000000001</ele><time>2026-04-26T14:52:19.853Z</time></trkpt><trkpt lat="43.6237671" lon="11.4827307"><ele>125.19999999999999</ele><time>2026-04-26T14:52:20.853Z</time></trkpt><trkpt lat="43.6238256" lon="11.4826071"><ele>125.6</ele><time>2026-04-26T14:52:21.852Z</time></trkpt><trkpt lat="43.6238782" lon="11.4824877"><ele>126.0</ele><time>2026-04-26T14:52:22.852Z</time></trkpt><trkpt lat="43.6239244" lon="11.4823723"><ele>126.0</ele><time>2026-04-26T14:52:23.853Z</time></trkpt><trkpt lat="43.6239587" lon="11.4822651"><ele>126.0</ele><time>2026-04-26T14:52:24.853Z</time></trkpt><trkpt lat="43.6239919" lon="11.4821697"><ele>126.0</ele><time>2026-04-26T14:52:25.853Z</time></trkpt><trkpt lat="43.6240509" lon="11.4820755"><ele>126.0</ele><time>2026-04-26T14:52:27.853Z</time></trkpt><trkpt lat="43.6241264" lon="11.4819837"><ele>126.0</ele><time>2026-04-26T14:52:30.853Z</time></trkpt><trkpt lat="43.6241821" lon="11.481925"><ele>126.0</ele><time>2026-04-26T14:52:31.852Z</time></trkpt><trkpt lat="43.6242135" lon="11.4818403"><ele>126.33333333333333</ele><time>2026-04-26T14:52:32.852Z</time></trkpt><trkpt lat="43.6242137" lon="11.4817514"><ele>126.66666666666666</ele><time>2026-04-26T14:52:33.853Z</time></trkpt><trkpt lat="43.6241821" lon="11.4816634"><ele>127.0</ele><time>2026-04-26T14:52:34.852Z</time></trkpt><trkpt lat="43.6241256" lon="11.481602"><ele>127.33333333333333</ele><time>2026-04-26T14:52:35.853Z</time></trkpt><trkpt lat="43.6240466" lon="11.4815639"><ele>127.66666666666666</ele><time>2026-04-26T14:52:36.853Z</time></trkpt><trkpt lat="43.6239759" lon="11.4814976"><ele>128.0</ele><time>2026-04-26T14:52:37.853Z</time></trkpt><trkpt lat="43.6239059" lon="11.4814052"><ele>128.0</ele><time>2026-04-26T14:52:38.852Z</time></trkpt><trkpt lat="43.6238442" lon="11.4812865"><ele>128.0</ele><time>2026-04-26T14:52:39.853Z</time></trkpt><trkpt lat="43.6237782" lon="11.4811591"><ele>128.0</ele><time>2026-04-26T14:52:40.853Z</time></trkpt><trkpt lat="43.6237108" lon="11.4810286"><ele>128.0</ele><time>2026-04-26T14:52:41.853Z</time></trkpt><trkpt lat="43.6236501" lon="11.4809218"><ele>128.0</ele><time>2026-04-26T14:52:42.853Z</time></trkpt><trkpt lat="43.623589" lon="11.4808196"><ele>127.16666666666666</ele><time>2026-04-26T14:52:43.852Z</time></trkpt><trkpt lat="43.6235485" lon="11.4807271"><ele>126.33333333333333</ele><time>2026-04-26T14:52:44.853Z</time></trkpt><trkpt lat="43.6235003" lon="11.4806335"><ele>125.5</ele><time>2026-04-26T14:52:45.853Z</time></trkpt><trkpt lat="43.623436" lon="11.4805587"><ele>124.66666666666666</ele><time>2026-04-26T14:52:46.853Z</time></trkpt><trkpt lat="43.6233827" lon="11.4804841"><ele>123.83333333333333</ele><time>2026-04-26T14:52:47.853Z</time></trkpt><trkpt lat="43.6233338" lon="11.4804092"><ele>123.0</ele><time>2026-04-26T14:52:48.852Z</time></trkpt><trkpt lat="43.6232799" lon="11.4803247"><ele>122.5</ele><time>2026-04-26T14:52:49.853Z</time></trkpt><trkpt lat="43.6232247" lon="11.480245"><ele>122.0</ele><time>2026-04-26T14:52:50.853Z</time></trkpt><trkpt lat="43.6231712" lon="11.4801596"><ele>121.5</ele><time>2026-04-26T14:52:51.853Z</time></trkpt><trkpt lat="43.6231191" lon="11.4800636"><ele>121.0</ele><time>2026-04-26T14:52:52.853Z</time></trkpt><trkpt lat="43.623062" lon="11.4799663"><ele>120.5</ele><time>2026-04-26T14:52:53.853Z</time></trkpt><trkpt lat="43.6230091" lon="11.4798636"><ele>120.0</ele><time>2026-04-26T14:52:54.853Z</time></trkpt><trkpt lat="43.6229534" lon="11.4797688"><ele>120.0</ele><time>2026-04-26T14:52:55.852Z</time></trkpt><trkpt lat="43.6228979" lon="11.4796749"><ele>120.0</ele><time>2026-04-26T14:52:56.852Z</time></trkpt><trkpt lat="43.6228491" lon="11.4795875"><ele>120.0</ele><time>2026-04-26T14:52:57.852Z</time></trkpt><trkpt lat="43.6228012" lon="11.4794995"><ele>120.0</ele><time>2026-04-26T14:52:58.852Z</time></trkpt><trkpt lat="43.6227514" lon="11.4794175"><ele>120.0</ele><time>2026-04-26T14:52:59.853Z</time></trkpt><trkpt lat="43.6227036" lon="11.4793377"><ele>120.0</ele><time>2026-04-26T14:53:00.852Z</time></trkpt><trkpt lat="43.6226637" lon="11.4792614"><ele>120.4</ele><time>2026-04-26T14:53:01.853Z</time></trkpt><trkpt lat="43.6226205" lon="11.4791961"><ele>120.8</ele><time>2026-04-26T14:53:02.853Z</time></trkpt><trkpt lat="43.622549" lon="11.4790739"><ele>121.19999999999999</ele><time>2026-04-26T14:53:04.853Z</time></trkpt><trkpt lat="43.6224892" lon="11.4789462"><ele>121.6</ele><time>2026-04-26T14:53:06.851Z</time></trkpt><trkpt lat="43.6224888" lon="11.4787804"><ele>122.0</ele><time>2026-04-26T14:53:08.852Z</time></trkpt><trkpt lat="43.6225122" lon="11.4786854"><ele>122.19999999999999</ele><time>2026-04-26T14:53:09.851Z</time></trkpt><trkpt lat="43.6225413" lon="11.4785918"><ele>122.39999999999999</ele><time>2026-04-26T14:53:10.852Z</time></trkpt><trkpt lat="43.6225787" lon="11.478489"><ele>122.60000000000001</ele><time>2026-04-26T14:53:11.852Z</time></trkpt><trkpt lat="43.6226304" lon="11.478386"><ele>122.80000000000001</ele><time>2026-04-26T14:53:12.852Z</time></trkpt><trkpt lat="43.6227028" lon="11.4782893"><ele>123.0</ele><time>2026-04-26T14:53:13.852Z</time></trkpt><trkpt lat="43.6227905" lon="11.4781886"><ele>123.0</ele><time>2026-04-26T14:53:14.852Z</time></trkpt><trkpt lat="43.6228903" lon="11.47808"><ele>123.0</ele><time>2026-04-26T14:53:15.852Z</time></trkpt><trkpt lat="43.6229935" lon="11.4779478"><ele>123.0</ele><time>2026-04-26T14:53:16.852Z</time></trkpt><trkpt lat="43.6231238" lon="11.4777936"><ele>123.0</ele><time>2026-04-26T14:53:17.852Z</time></trkpt><trkpt lat="43.6232586" lon="11.4776412"><ele>123.0</ele><time>2026-04-26T14:53:18.851Z</time></trkpt><trkpt lat="43.6233976" lon="11.4774868"><ele>123.0</ele><time>2026-04-26T14:53:19.852Z</time></trkpt><trkpt lat="43.623542" lon="11.477327"><ele>123.0</ele><time>2026-04-26T14:53:20.851Z</time></trkpt><trkpt lat="43.6236871" lon="11.4771441"><ele>122.66666666666666</ele><time>2026-04-26T14:53:21.852Z</time></trkpt><trkpt lat="43.623825" lon="11.4769545"><ele>122.33333333333333</ele><time>2026-04-26T14:53:22.852Z</time></trkpt><trkpt lat="43.623956" lon="11.4767514"><ele>122.0</ele><time>2026-04-26T14:53:23.852Z</time></trkpt><trkpt lat="43.6240879" lon="11.4765385"><ele>122.0</ele><time>2026-04-26T14:53:24.852Z</time></trkpt><trkpt lat="43.624217" lon="11.4763174"><ele>122.0</ele><time>2026-04-26T14:53:25.851Z</time></trkpt><trkpt lat="43.6243427" lon="11.4760899"><ele>122.0</ele><time>2026-04-26T14:53:26.852Z</time></trkpt><trkpt lat="43.6244679" lon="11.4758463"><ele>122.33333333333333</ele><time>2026-04-26T14:53:27.852Z</time></trkpt><trkpt lat="43.6245884" lon="11.475595"><ele>122.66666666666666</ele><time>2026-04-26T14:53:28.851Z</time></trkpt><trkpt lat="43.6247076" lon="11.4753428"><ele>123.0</ele><time>2026-04-26T14:53:29.851Z</time></trkpt><trkpt lat="43.6248258" lon="11.4750963"><ele>123.0</ele><time>2026-04-26T14:53:30.852Z</time></trkpt><trkpt lat="43.6249409" lon="11.4748513"><ele>123.0</ele><time>2026-04-26T14:53:31.852Z</time></trkpt><trkpt lat="43.6250497" lon="11.47462"><ele>123.0</ele><time>2026-04-26T14:53:32.852Z</time></trkpt><trkpt lat="43.6251551" lon="11.4743917"><ele>123.0</ele><time>2026-04-26T14:53:33.852Z</time></trkpt><trkpt lat="43.6252582" lon="11.4741634"><ele>123.0</ele><time>2026-04-26T14:53:34.852Z</time></trkpt><trkpt lat="43.6253623" lon="11.4739273"><ele>123.0</ele><time>2026-04-26T14:53:35.851Z</time></trkpt><trkpt lat="43.6254628" lon="11.4737073"><ele>123.0</ele><time>2026-04-26T14:53:36.852Z</time></trkpt><trkpt lat="43.6255614" lon="11.4735042"><ele>123.0</ele><time>2026-04-26T14:53:37.852Z</time></trkpt><trkpt lat="43.625657" lon="11.4733096"><ele>123.0</ele><time>2026-04-26T14:53:38.852Z</time></trkpt><trkpt lat="43.6257505" lon="11.4731284"><ele>123.0</ele><time>2026-04-26T14:53:39.852Z</time></trkpt><trkpt lat="43.6258405" lon="11.4729502"><ele>123.0</ele><time>2026-04-26T14:53:40.852Z</time></trkpt><trkpt lat="43.6259188" lon="11.4727773"><ele>123.0</ele><time>2026-04-26T14:53:41.851Z</time></trkpt><trkpt lat="43.6259962" lon="11.4726106"><ele>123.0</ele><time>2026-04-26T14:53:42.852Z</time></trkpt><trkpt lat="43.6260739" lon="11.4724487"><ele>122.75</ele><time>2026-04-26T14:53:43.851Z</time></trkpt><trkpt lat="43.6261435" lon="11.4722804"><ele>122.5</ele><time>2026-04-26T14:53:44.852Z</time></trkpt><trkpt lat="43.6262096" lon="11.4720971"><ele>122.25</ele><time>2026-04-26T14:53:45.852Z</time></trkpt><trkpt lat="43.6262671" lon="11.4719006"><ele>122.0</ele><time>2026-04-26T14:53:46.852Z</time></trkpt><trkpt lat="43.6263093" lon="11.4716979"><ele>122.0</ele><time>2026-04-26T14:53:47.852Z</time></trkpt><trkpt lat="43.6263422" lon="11.4714868"><ele>122.0</ele><time>2026-04-26T14:53:48.852Z</time></trkpt><trkpt lat="43.6263649" lon="11.471279"><ele>122.0</ele><time>2026-04-26T14:53:49.852Z</time></trkpt><trkpt lat="43.6263773" lon="11.4710707"><ele>122.0</ele><time>2026-04-26T14:53:50.852Z</time></trkpt><trkpt lat="43.6263698" lon="11.4708577"><ele>122.0</ele><time>2026-04-26T14:53:51.852Z</time></trkpt><trkpt lat="43.6263528" lon="11.4706498"><ele>122.0</ele><time>2026-04-26T14:53:52.852Z</time></trkpt><trkpt lat="43.6263188" lon="11.4704467"><ele>121.75</ele><time>2026-04-26T14:53:53.852Z</time></trkpt><trkpt lat="43.6262854" lon="11.4702565"><ele>121.5</ele><time>2026-04-26T14:53:54.852Z</time></trkpt><trkpt lat="43.626246" lon="11.4700757"><ele>121.25</ele><time>2026-04-26T14:53:55.852Z</time></trkpt><trkpt lat="43.6261994" lon="11.4698987"><ele>121.0</ele><time>2026-04-26T14:53:56.852Z</time></trkpt><trkpt lat="43.626148" lon="11.4697218"><ele>120.75</ele><time>2026-04-26T14:53:57.852Z</time></trkpt><trkpt lat="43.6261051" lon="11.4695399"><ele>120.5</ele><time>2026-04-26T14:53:58.852Z</time></trkpt><trkpt lat="43.6260554" lon="11.469368"><ele>120.25</ele><time>2026-04-26T14:53:59.852Z</time></trkpt><trkpt lat="43.6259995" lon="11.4691979"><ele>120.0</ele><time>2026-04-26T14:54:00.852Z</time></trkpt><trkpt lat="43.6259474" lon="11.4690219"><ele>120.0</ele><time>2026-04-26T14:54:01.852Z</time></trkpt><trkpt lat="43.6259124" lon="11.4688457"><ele>120.0</ele><time>2026-04-26T14:54:02.852Z</time></trkpt><trkpt lat="43.6258885" lon="11.4686771"><ele>120.0</ele><time>2026-04-26T14:54:03.852Z</time></trkpt><trkpt lat="43.6258751" lon="11.4685399"><ele>120.0</ele><time>2026-04-26T14:54:04.852Z</time></trkpt><trkpt lat="43.6258704" lon="11.4684181"><ele>120.0</ele><time>2026-04-26T14:54:05.852Z</time></trkpt><trkpt lat="43.625865" lon="11.4683197"><ele>120.2</ele><time>2026-04-26T14:54:06.852Z</time></trkpt><trkpt lat="43.6258842" lon="11.4681602"><ele>120.4</ele><time>2026-04-26T14:54:08.852Z</time></trkpt><trkpt lat="43.625952" lon="11.4680233"><ele>120.6</ele><time>2026-04-26T14:54:10.852Z</time></trkpt><trkpt lat="43.6260348" lon="11.4678873"><ele>120.8</ele><time>2026-04-26T14:54:12.852Z</time></trkpt><trkpt lat="43.6260672" lon="11.4677893"><ele>121.0</ele><time>2026-04-26T14:54:13.852Z</time></trkpt><trkpt lat="43.626088" lon="11.4676675"><ele>121.25</ele><time>2026-04-26T14:54:14.852Z</time></trkpt><trkpt lat="43.6261199" lon="11.4675216"><ele>121.5</ele><time>2026-04-26T14:54:15.852Z</time></trkpt><trkpt lat="43.6261879" lon="11.4673964"><ele>121.75</ele><time>2026-04-26T14:54:16.852Z</time></trkpt><trkpt lat="43.6262938" lon="11.4672571"><ele>122.0</ele><time>2026-04-26T14:54:17.851Z</time></trkpt><trkpt lat="43.6263995" lon="11.4671392"><ele>121.5</ele><time>2026-04-26T14:54:18.852Z</time></trkpt><trkpt lat="43.6265026" lon="11.467018"><ele>121.0</ele><time>2026-04-26T14:54:19.852Z</time></trkpt><trkpt lat="43.626602" lon="11.4669035"><ele>120.5</ele><time>2026-04-26T14:54:20.852Z</time></trkpt><trkpt lat="43.6266992" lon="11.4667904"><ele>120.0</ele><time>2026-04-26T14:54:21.852Z</time></trkpt><trkpt lat="43.6267993" lon="11.4666794"><ele>120.0</ele><time>2026-04-26T14:54:22.851Z</time></trkpt><trkpt lat="43.6269127" lon="11.4665546"><ele>120.0</ele><time>2026-04-26T14:54:23.852Z</time></trkpt><trkpt lat="43.6270357" lon="11.4664276"><ele>120.0</ele><time>2026-04-26T14:54:24.852Z</time></trkpt><trkpt lat="43.6271779" lon="11.4662973"><ele>121.0</ele><time>2026-04-26T14:54:25.852Z</time></trkpt><trkpt lat="43.627325" lon="11.4661688"><ele>122.0</ele><time>2026-04-26T14:54:26.851Z</time></trkpt><trkpt lat="43.6274697" lon="11.4660366"><ele>123.0</ele><time>2026-04-26T14:54:27.852Z</time></trkpt><trkpt lat="43.6276131" lon="11.4659017"><ele>123.0</ele><time>2026-04-26T14:54:28.852Z</time></trkpt><trkpt lat="43.627769" lon="11.4657634"><ele>123.0</ele><time>2026-04-26T14:54:29.851Z</time></trkpt><trkpt lat="43.627931" lon="11.4656275"><ele>123.0</ele><time>2026-04-26T14:54:30.852Z</time></trkpt><trkpt lat="43.6280873" lon="11.465499"><ele>122.33333333333334</ele><time>2026-04-26T14:54:31.851Z</time></trkpt><trkpt lat="43.6282443" lon="11.4653667"><ele>121.66666666666667</ele><time>2026-04-26T14:54:32.852Z</time></trkpt><trkpt lat="43.6283933" lon="11.4652383"><ele>121.0</ele><time>2026-04-26T14:54:33.851Z</time></trkpt><trkpt lat="43.6285405" lon="11.4651102"><ele>120.66666666666667</ele><time>2026-04-26T14:54:34.852Z</time></trkpt><trkpt lat="43.6286731" lon="11.4649892"><ele>120.33333333333334</ele><time>2026-04-26T14:54:35.851Z</time></trkpt><trkpt lat="43.6288043" lon="11.4648707"><ele>120.0</ele><time>2026-04-26T14:54:36.852Z</time></trkpt><trkpt lat="43.6289276" lon="11.4647676"><ele>120.0</ele><time>2026-04-26T14:54:37.852Z</time></trkpt><trkpt lat="43.6290265" lon="11.4646822"><ele>120.0</ele><time>2026-04-26T14:54:38.852Z</time></trkpt><trkpt lat="43.6291044" lon="11.4646194"><ele>120.0</ele><time>2026-04-26T14:54:39.852Z</time></trkpt><trkpt lat="43.6291824" lon="11.4645864"><ele>120.0</ele><time>2026-04-26T14:54:40.852Z</time></trkpt><trkpt lat="43.629258" lon="11.4645872"><ele>120.0</ele><time>2026-04-26T14:54:41.852Z</time></trkpt><trkpt lat="43.6293237" lon="11.4646082"><ele>120.0</ele><time>2026-04-26T14:54:42.852Z</time></trkpt><trkpt lat="43.6293914" lon="11.4646218"><ele>120.16666666666667</ele><time>2026-04-26T14:54:43.852Z</time></trkpt><trkpt lat="43.6294588" lon="11.4646084"><ele>120.33333333333334</ele><time>2026-04-26T14:54:44.852Z</time></trkpt><trkpt lat="43.6295248" lon="11.4645328"><ele>120.5</ele><time>2026-04-26T14:54:45.852Z</time></trkpt><trkpt lat="43.6295647" lon="11.4644397"><ele>120.66666666666667</ele><time>2026-04-26T14:54:46.852Z</time></trkpt><trkpt lat="43.6296003" lon="11.4643193"><ele>120.83333333333334</ele><time>2026-04-26T14:54:47.852Z</time></trkpt><trkpt lat="43.6296332" lon="11.4641957"><ele>121.0</ele><time>2026-04-26T14:54:48.852Z</time></trkpt><trkpt lat="43.6296862" lon="11.4640717"><ele>121.0</ele><time>2026-04-26T14:54:49.852Z</time></trkpt><trkpt lat="43.6297662" lon="11.4639527"><ele>121.0</ele><time>2026-04-26T14:54:50.852Z</time></trkpt><trkpt lat="43.6298605" lon="11.463843"><ele>121.0</ele><time>2026-04-26T14:54:51.852Z</time></trkpt><trkpt lat="43.6299699" lon="11.4637291"><ele>121.0</ele><time>2026-04-26T14:54:52.851Z</time></trkpt><trkpt lat="43.6301062" lon="11.4636004"><ele>121.0</ele><time>2026-04-26T14:54:53.852Z</time></trkpt><trkpt lat="43.6302538" lon="11.4634743"><ele>121.0</ele><time>2026-04-26T14:54:54.852Z</time></trkpt><trkpt lat="43.6304008" lon="11.4633385"><ele>121.0</ele><time>2026-04-26T14:54:55.852Z</time></trkpt><trkpt lat="43.6305486" lon="11.463203"><ele>121.0</ele><time>2026-04-26T14:54:56.852Z</time></trkpt><trkpt lat="43.6306945" lon="11.4630651"><ele>121.0</ele><time>2026-04-26T14:54:57.852Z</time></trkpt><trkpt lat="43.6308462" lon="11.4629284"><ele>121.0</ele><time>2026-04-26T14:54:58.852Z</time></trkpt><trkpt lat="43.6309934" lon="11.4627868"><ele>121.0</ele><time>2026-04-26T14:54:59.851Z</time></trkpt><trkpt lat="43.6311408" lon="11.4626461"><ele>121.0</ele><time>2026-04-26T14:55:00.851Z</time></trkpt><trkpt lat="43.6312864" lon="11.4625135"><ele>121.0</ele><time>2026-04-26T14:55:01.852Z</time></trkpt><trkpt lat="43.6314267" lon="11.4623849"><ele>121.0</ele><time>2026-04-26T14:55:02.852Z</time></trkpt><trkpt lat="43.6315705" lon="11.462259"><ele>121.0</ele><time>2026-04-26T14:55:03.852Z</time></trkpt><trkpt lat="43.6317131" lon="11.4621336"><ele>121.0</ele><time>2026-04-26T14:55:04.852Z</time></trkpt><trkpt lat="43.6318573" lon="11.4619978"><ele>121.0</ele><time>2026-04-26T14:55:05.852Z</time></trkpt><trkpt lat="43.6320062" lon="11.4618641"><ele>121.0</ele><time>2026-04-26T14:55:06.852Z</time></trkpt><trkpt lat="43.6321533" lon="11.4617286"><ele>121.0</ele><time>2026-04-26T14:55:07.852Z</time></trkpt><trkpt lat="43.6322988" lon="11.4615949"><ele>121.0</ele><time>2026-04-26T14:55:08.852Z</time></trkpt><trkpt lat="43.6324462" lon="11.4614603"><ele>121.0</ele><time>2026-04-26T14:55:09.852Z</time></trkpt><trkpt lat="43.6325873" lon="11.4613257"><ele>121.0</ele><time>2026-04-26T14:55:10.851Z</time></trkpt><trkpt lat="43.6327235" lon="11.4612028"><ele>121.0</ele><time>2026-04-26T14:55:11.852Z</time></trkpt><trkpt lat="43.6328602" lon="11.4610743"><ele>121.0</ele><time>2026-04-26T14:55:12.852Z</time></trkpt><trkpt lat="43.6329853" lon="11.4609585"><ele>121.0</ele><time>2026-04-26T14:55:13.852Z</time></trkpt><trkpt lat="43.6331057" lon="11.4608478"><ele>121.0</ele><time>2026-04-26T14:55:14.852Z</time></trkpt><trkpt lat="43.6332306" lon="11.4607343"><ele>121.0</ele><time>2026-04-26T14:55:15.852Z</time></trkpt><trkpt lat="43.6333511" lon="11.4606235"><ele>121.0</ele><time>2026-04-26T14:55:16.852Z</time></trkpt><trkpt lat="43.6334693" lon="11.4605187"><ele>121.0</ele><time>2026-04-26T14:55:17.852Z</time></trkpt><trkpt lat="43.6335844" lon="11.4604164"><ele>120.66666666666667</ele><time>2026-04-26T14:55:18.852Z</time></trkpt><trkpt lat="43.6337106" lon="11.460304"><ele>120.33333333333334</ele><time>2026-04-26T14:55:19.851Z</time></trkpt><trkpt lat="43.6338403" lon="11.4601776"><ele>120.0</ele><time>2026-04-26T14:55:20.851Z</time></trkpt><trkpt lat="43.6339824" lon="11.4600325"><ele>120.0</ele><time>2026-04-26T14:55:21.852Z</time></trkpt><trkpt lat="43.6341339" lon="11.4599027"><ele>120.0</ele><time>2026-04-26T14:55:22.852Z</time></trkpt><trkpt lat="43.6342823" lon="11.4597839"><ele>120.0</ele><time>2026-04-26T14:55:23.852Z</time></trkpt><trkpt lat="43.6344224" lon="11.4596675"><ele>120.0</ele><time>2026-04-26T14:55:24.852Z</time></trkpt><trkpt lat="43.6345451" lon="11.4595577"><ele>120.0</ele><time>2026-04-26T14:55:25.852Z</time></trkpt><trkpt lat="43.6346706" lon="11.4594445"><ele>120.0</ele><time>2026-04-26T14:55:26.852Z</time></trkpt><trkpt lat="43.6347857" lon="11.4593506"><ele>120.0</ele><time>2026-04-26T14:55:27.852Z</time></trkpt><trkpt lat="43.6348932" lon="11.4592538"><ele>120.0</ele><time>2026-04-26T14:55:28.852Z</time></trkpt><trkpt lat="43.6349949" lon="11.45916"><ele>120.0</ele><time>2026-04-26T14:55:29.852Z</time></trkpt><trkpt lat="43.6350929" lon="11.4590665"><ele>120.0</ele><time>2026-04-26T14:55:30.852Z</time></trkpt><trkpt lat="43.6351893" lon="11.4589752"><ele>120.0</ele><time>2026-04-26T14:55:31.851Z</time></trkpt><trkpt lat="43.6352792" lon="11.4588903"><ele>120.0</ele><time>2026-04-26T14:55:32.852Z</time></trkpt><trkpt lat="43.6353591" lon="11.4588016"><ele>120.0</ele><time>2026-04-26T14:55:33.852Z</time></trkpt><trkpt lat="43.6354231" lon="11.4587184"><ele>120.0</ele><time>2026-04-26T14:55:34.852Z</time></trkpt><trkpt lat="43.6354987" lon="11.4586139"><ele>120.0</ele><time>2026-04-26T14:55:36.852Z</time></trkpt><trkpt lat="43.6355537" lon="11.4584706"><ele>120.0</ele><time>2026-04-26T14:55:40.852Z</time></trkpt><trkpt lat="43.6356009" lon="11.4583548"><ele>120.0</ele><time>2026-04-26T14:55:43.852Z</time></trkpt><trkpt lat="43.6356402" lon="11.4582241"><ele>120.0</ele><time>2026-04-26T14:55:45.851Z</time></trkpt><trkpt lat="43.635657" lon="11.4581389"><ele>120.0</ele><time>2026-04-26T14:55:46.852Z</time></trkpt><trkpt lat="43.635687" lon="11.4580491"><ele>120.0</ele><time>2026-04-26T14:55:47.851Z</time></trkpt><trkpt lat="43.6357228" lon="11.4579557"><ele>120.0</ele><time>2026-04-26T14:55:48.851Z</time></trkpt><trkpt lat="43.6357517" lon="11.457874"><ele>120.0</ele><time>2026-04-26T14:55:49.852Z</time></trkpt><trkpt lat="43.6358127" lon="11.4577359"><ele>120.0</ele><time>2026-04-26T14:55:51.852Z</time></trkpt><trkpt lat="43.6358787" lon="11.457599"><ele>120.0</ele><time>2026-04-26T14:55:53.852Z</time></trkpt><trkpt lat="43.6359314" lon="11.4574924"><ele>120.0</ele><time>2026-04-26T14:55:55.852Z</time></trkpt><trkpt lat="43.6359865" lon="11.4574039"><ele>120.0</ele><time>2026-04-26T14:55:57.852Z</time></trkpt><trkpt lat="43.636067" lon="11.4573141"><ele>120.0</ele><time>2026-04-26T14:55:59.852Z</time></trkpt><trkpt lat="43.6361243" lon="11.4572579"><ele>120.0</ele><time>2026-04-26T14:56:00.852Z</time></trkpt><trkpt lat="43.6361927" lon="11.4571954"><ele>120.0</ele><time>2026-04-26T14:56:01.852Z</time></trkpt><trkpt lat="43.6362735" lon="11.4571284"><ele>120.0</ele><time>2026-04-26T14:56:02.851Z</time></trkpt><trkpt lat="43.6363598" lon="11.457045"><ele>120.0</ele><time>2026-04-26T14:56:03.852Z</time></trkpt><trkpt lat="43.6364614" lon="11.4569505"><ele>120.0</ele><time>2026-04-26T14:56:04.852Z</time></trkpt><trkpt lat="43.6365594" lon="11.4568556"><ele>120.0</ele><time>2026-04-26T14:56:05.852Z</time></trkpt><trkpt lat="43.6366666" lon="11.456751"><ele>120.0</ele><time>2026-04-26T14:56:06.852Z</time></trkpt><trkpt lat="43.6367847" lon="11.4566421"><ele>120.0</ele><time>2026-04-26T14:56:07.851Z</time></trkpt><trkpt lat="43.6369029" lon="11.4565343"><ele>120.0</ele><time>2026-04-26T14:56:08.852Z</time></trkpt><trkpt lat="43.6370169" lon="11.4564316"><ele>120.0</ele><time>2026-04-26T14:56:09.852Z</time></trkpt><trkpt lat="43.6371223" lon="11.456334"><ele>120.0</ele><time>2026-04-26T14:56:10.852Z</time></trkpt><trkpt lat="43.63723" lon="11.4562418"><ele>120.0</ele><time>2026-04-26T14:56:11.852Z</time></trkpt><trkpt lat="43.6373343" lon="11.4561431"><ele>120.0</ele><time>2026-04-26T14:56:12.851Z</time></trkpt><trkpt lat="43.6374409" lon="11.4560488"><ele>120.0</ele><time>2026-04-26T14:56:13.852Z</time></trkpt><trkpt lat="43.6375521" lon="11.4559489"><ele>120.0</ele><time>2026-04-26T14:56:14.852Z</time></trkpt><trkpt lat="43.6376651" lon="11.4558424"><ele>120.0</ele><time>2026-04-26T14:56:15.852Z</time></trkpt><trkpt lat="43.6377871" lon="11.4557263"><ele>120.0</ele><time>2026-04-26T14:56:16.852Z</time></trkpt><trkpt lat="43.6379107" lon="11.4555995"><ele>120.0</ele><time>2026-04-26T14:56:17.851Z</time></trkpt><trkpt lat="43.6380453" lon="11.4554657"><ele>120.0</ele><time>2026-04-26T14:56:18.852Z</time></trkpt><trkpt lat="43.6381963" lon="11.4553169"><ele>120.0</ele><time>2026-04-26T14:56:19.852Z</time></trkpt><trkpt lat="43.6383622" lon="11.4551628"><ele>120.0</ele><time>2026-04-26T14:56:20.852Z</time></trkpt><trkpt lat="43.6385355" lon="11.4550089"><ele>120.0</ele><time>2026-04-26T14:56:21.851Z</time></trkpt><trkpt lat="43.6387185" lon="11.4548602"><ele>120.0</ele><time>2026-04-26T14:56:22.852Z</time></trkpt><trkpt lat="43.6389042" lon="11.454707"><ele>120.33333333333334</ele><time>2026-04-26T14:56:23.852Z</time></trkpt><trkpt lat="43.6390816" lon="11.454546"><ele>120.66666666666667</ele><time>2026-04-26T14:56:24.852Z</time></trkpt><trkpt lat="43.6392637" lon="11.4543976"><ele>121.0</ele><time>2026-04-26T14:56:25.852Z</time></trkpt><trkpt lat="43.6394448" lon="11.4542511"><ele>121.0</ele><time>2026-04-26T14:56:26.852Z</time></trkpt><trkpt lat="43.6396147" lon="11.454086"><ele>121.0</ele><time>2026-04-26T14:56:27.852Z</time></trkpt><trkpt lat="43.639785" lon="11.4539208"><ele>121.0</ele><time>2026-04-26T14:56:28.852Z</time></trkpt><trkpt lat="43.6399485" lon="11.4537596"><ele>121.0</ele><time>2026-04-26T14:56:29.852Z</time></trkpt><trkpt lat="43.6401097" lon="11.4535948"><ele>121.0</ele><time>2026-04-26T14:56:30.852Z</time></trkpt><trkpt lat="43.6402623" lon="11.4534451"><ele>121.0</ele><time>2026-04-26T14:56:31.852Z</time></trkpt><trkpt lat="43.6404054" lon="11.4533032"><ele>121.0</ele><time>2026-04-26T14:56:32.851Z</time></trkpt><trkpt lat="43.6405413" lon="11.453164"><ele>121.0</ele><time>2026-04-26T14:56:33.851Z</time></trkpt><trkpt lat="43.6406723" lon="11.4530447"><ele>121.0</ele><time>2026-04-26T14:56:34.852Z</time></trkpt><trkpt lat="43.6407979" lon="11.4529363"><ele>121.0</ele><time>2026-04-26T14:56:35.852Z</time></trkpt><trkpt lat="43.6409275" lon="11.4528581"><ele>121.0</ele><time>2026-04-26T14:56:36.852Z</time></trkpt><trkpt lat="43.6410562" lon="11.4528136"><ele>121.0</ele><time>2026-04-26T14:56:37.852Z</time></trkpt><trkpt lat="43.6411889" lon="11.4527939"><ele>121.0</ele><time>2026-04-26T14:56:38.851Z</time></trkpt><trkpt lat="43.6413046" lon="11.4527802"><ele>121.0</ele><time>2026-04-26T14:56:39.852Z</time></trkpt><trkpt lat="43.6413787" lon="11.4527649"><ele>121.0</ele><time>2026-04-26T14:56:40.851Z</time></trkpt><trkpt lat="43.6414769" lon="11.4527729"><ele>121.0</ele><time>2026-04-26T14:56:42.852Z</time></trkpt><trkpt lat="43.6415601" lon="11.4528043"><ele>121.0</ele><time>2026-04-26T14:56:44.852Z</time></trkpt><trkpt lat="43.6416538" lon="11.4528455"><ele>121.0</ele><time>2026-04-26T14:56:46.852Z</time></trkpt><trkpt lat="43.6417741" lon="11.4527978"><ele>121.0</ele><time>2026-04-26T14:56:48.852Z</time></trkpt><trkpt lat="43.6418303" lon="11.4527363"><ele>121.0</ele><time>2026-04-26T14:56:49.852Z</time></trkpt><trkpt lat="43.6418751" lon="11.4526243"><ele>121.0</ele><time>2026-04-26T14:56:50.852Z</time></trkpt><trkpt lat="43.6418921" lon="11.4524921"><ele>121.0</ele><time>2026-04-26T14:56:51.852Z</time></trkpt><trkpt lat="43.6419017" lon="11.4523382"><ele>121.0</ele><time>2026-04-26T14:56:52.852Z</time></trkpt><trkpt lat="43.6419486" lon="11.4522029"><ele>121.75</ele><time>2026-04-26T14:56:53.852Z</time></trkpt><trkpt lat="43.6420265" lon="11.4520713"><ele>122.5</ele><time>2026-04-26T14:56:54.852Z</time></trkpt><trkpt lat="43.6421078" lon="11.4519407"><ele>123.25</ele><time>2026-04-26T14:56:55.852Z</time></trkpt><trkpt lat="43.6421746" lon="11.4518041"><ele>124.0</ele><time>2026-04-26T14:56:56.852Z</time></trkpt><trkpt lat="43.6422346" lon="11.4516694"><ele>124.0</ele><time>2026-04-26T14:56:57.851Z</time></trkpt><trkpt lat="43.6422948" lon="11.4515445"><ele>124.0</ele><time>2026-04-26T14:56:58.852Z</time></trkpt><trkpt lat="43.6423758" lon="11.4514564"><ele>124.0</ele><time>2026-04-26T14:56:59.851Z</time></trkpt><trkpt lat="43.6424639" lon="11.4514178"><ele>124.0</ele><time>2026-04-26T14:57:00.851Z</time></trkpt><trkpt lat="43.6425564" lon="11.4514137"><ele>124.0</ele><time>2026-04-26T14:57:01.852Z</time></trkpt><trkpt lat="43.6426359" lon="11.4513875"><ele>124.0</ele><time>2026-04-26T14:57:02.852Z</time></trkpt><trkpt lat="43.6426805" lon="11.4513174"><ele>124.0</ele><time>2026-04-26T14:57:03.852Z</time></trkpt><trkpt lat="43.642685" lon="11.4511982"><ele>124.0</ele><time>2026-04-26T14:57:04.852Z</time></trkpt><trkpt lat="43.6426708" lon="11.4510586"><ele>124.0</ele><time>2026-04-26T14:57:05.852Z</time></trkpt><trkpt lat="43.6426613" lon="11.4509097"><ele>124.0</ele><time>2026-04-26T14:57:06.851Z</time></trkpt><trkpt lat="43.6426553" lon="11.4507677"><ele>124.2</ele><time>2026-04-26T14:57:07.851Z</time></trkpt><trkpt lat="43.6426428" lon="11.4506352"><ele>124.4</ele><time>2026-04-26T14:57:08.851Z</time></trkpt><trkpt lat="43.6426537" lon="11.4505041"><ele>124.6</ele><time>2026-04-26T14:57:09.851Z</time></trkpt><trkpt lat="43.6426983" lon="11.4503955"><ele>124.8</ele><time>2026-04-26T14:57:10.852Z</time></trkpt><trkpt lat="43.6427751" lon="11.4503491"><ele>125.0</ele><time>2026-04-26T14:57:11.852Z</time></trkpt><trkpt lat="43.6428844" lon="11.4503405"><ele>125.16666666666666</ele><time>2026-04-26T14:57:12.852Z</time></trkpt><trkpt lat="43.6429791" lon="11.4503466"><ele>125.33333333333333</ele><time>2026-04-26T14:57:13.852Z</time></trkpt><trkpt lat="43.6430653" lon="11.4503416"><ele>125.5</ele><time>2026-04-26T14:57:14.852Z</time></trkpt><trkpt lat="43.6431479" lon="11.4503385"><ele>125.66666666666666</ele><time>2026-04-26T14:57:15.852Z</time></trkpt><trkpt lat="43.6432122" lon="11.4503346"><ele>125.83333333333333</ele><time>2026-04-26T14:57:16.852Z</time></trkpt><trkpt lat="43.6432971" lon="11.450334"><ele>126.0</ele><time>2026-04-26T14:57:18.852Z</time></trkpt><trkpt lat="43.6433453" lon="11.4501886"><ele>126.0</ele><time>2026-04-26T14:57:21.852Z</time></trkpt><trkpt lat="43.6434113" lon="11.450068"><ele>126.0</ele><time>2026-04-26T14:57:23.852Z</time></trkpt><trkpt lat="43.6434758" lon="11.4500602"><ele>126.0</ele><time>2026-04-26T14:57:24.852Z</time></trkpt><trkpt lat="43.6435409" lon="11.4500634"><ele>126.0</ele><time>2026-04-26T14:57:25.852Z</time></trkpt><trkpt lat="43.6436527" lon="11.4500591"><ele>126.0</ele><time>2026-04-26T14:57:27.851Z</time></trkpt><trkpt lat="43.6437202" lon="11.4499763"><ele>126.0</ele><time>2026-04-26T14:57:29.852Z</time></trkpt><trkpt lat="43.6437313" lon="11.4498781"><ele>126.16666666666667</ele><time>2026-04-26T14:57:30.851Z</time></trkpt><trkpt lat="43.643832" lon="11.4498047"><ele>126.33333333333334</ele><time>2026-04-26T14:57:32.852Z</time></trkpt><trkpt lat="43.6439035" lon="11.4497925"><ele>126.5</ele><time>2026-04-26T14:57:33.852Z</time></trkpt><trkpt lat="43.6439668" lon="11.4497875"><ele>126.66666666666667</ele><time>2026-04-26T14:57:34.851Z</time></trkpt><trkpt lat="43.6440384" lon="11.4497807"><ele>126.83333333333334</ele><time>2026-04-26T14:57:35.852Z</time></trkpt><trkpt lat="43.6441474" lon="11.4497621"><ele>127.0</ele><time>2026-04-26T14:57:37.852Z</time></trkpt><trkpt lat="43.6442196" lon="11.4497684"><ele>127.0</ele><time>2026-04-26T14:57:40.851Z</time></trkpt></trkseg></trk></gpx>